<?xml version='1.0' encoding='UTF-8'?><gpx version="1.1" creator="JPX - https://github.com/jenetics/jpx" xmlns="http://www.topografix.com/GPX/1/1"><trk><trkseg><trkpt lat="40.72715231872789" lon="14.691320767928715"><ele>127.0</ele><time>2026-04-25T07:54:56.212Z</time></trkpt><trkpt lat="40.72710043371424" lon="14.691368905388936"><ele>127.0</ele><time>2026-04-25T07:55:15Z</time></trkpt><trkpt lat="40.72702729112842" lon="14.691343733144295"><ele>127.0</ele><time>2026-04-25T07:55:59.999Z</time></trkpt><trkpt lat="40.72697461475539" lon="14.691391511727568"><ele>127.0</ele><time>2026-04-25T07:56:13.999Z</time></trkpt><trkpt lat="40.726960868292366" lon="14.691497402699493"><ele>127.0</ele><time>2026-04-25T07:56:17.999Z</time></trkpt><trkpt lat="40.726913424294516" lon="14.691573965345754"><ele>127.0</ele><time>2026-04-25T07:56:19.999Z</time></trkpt><trkpt lat="40.726856236252836" lon="14.691619352574216"><ele>127.0</ele><time>2026-04-25T07:56:21.999Z</time></trkpt><trkpt lat="40.726786183979364" lon="14.69166988093333"><ele>127.00000000000001</ele><time>2026-04-25T07:56:23.999Z</time></trkpt><trkpt lat="40.72673630451309" lon="14.691724036527038"><ele>127.0</ele><time>2026-04-25T07:57:13Z</time></trkpt><trkpt lat="40.72665202825305" lon="14.69180572795684"><ele>127.0</ele><time>2026-04-25T07:57:46Z</time></trkpt><trkpt lat="40.72671457351556" lon="14.691850794358071"><ele>127.0</ele><time>2026-04-25T07:59:22Z</time></trkpt><trkpt lat="40.72677607276915" lon="14.691805353225465"><ele>127.00000000000001</ele><time>2026-04-25T07:59:26Z</time></trkpt><trkpt lat="40.72683845023514" lon="14.691762608229311"><ele>127.0</ele><time>2026-04-25T07:59:31Z</time></trkpt><trkpt lat="40.726897936517986" lon="14.691708103510004"><ele>127.00000000000001</ele><time>2026-04-25T07:59:37Z</time></trkpt><trkpt lat="40.726955132486054" lon="14.691649936118404"><ele>127.0</ele><time>2026-04-25T07:59:42Z</time></trkpt><trkpt lat="40.72701639178253" lon="14.691588852534943"><ele>127.0</ele><time>2026-04-25T07:59:51Z</time></trkpt><trkpt lat="40.72708725471785" lon="14.69152605718052"><ele>127.0</ele><time>2026-04-25T07:59:54Z</time></trkpt><trkpt lat="40.72702266974075" lon="14.691583946638072"><ele>127.00000000000001</ele><time>2026-04-25T08:00:03Z</time></trkpt><trkpt lat="40.726967447030226" lon="14.691643989148178"><ele>127.0</ele><time>2026-04-25T08:00:07.999Z</time></trkpt><trkpt lat="40.726900214627705" lon="14.691698243299731"><ele>127.14285714285714</ele><time>2026-04-25T08:00:12.999Z</time></trkpt><trkpt lat="40.72684762670282" lon="14.691746246231201"><ele>127.28571428571428</ele><time>2026-04-25T08:00:16.999Z</time></trkpt><trkpt lat="40.72678392257327" lon="14.691802728897734"><ele>127.42857142857142</ele><time>2026-04-25T08:00:21.999Z</time></trkpt><trkpt lat="40.72672738032414" lon="14.691865111743045"><ele>127.57142857142857</ele><time>2026-04-25T08:00:26.999Z</time></trkpt><trkpt lat="40.7266609418624" lon="14.69185137323486"><ele>127.7142857142857</ele><time>2026-04-25T08:00:35.999Z</time></trkpt><trkpt lat="40.726597604316304" lon="14.691847284097996"><ele>127.85714285714285</ele><time>2026-04-25T08:01:34Z</time></trkpt><trkpt lat="40.726546232225786" lon="14.69189547577356"><ele>128.0</ele><time>2026-04-25T08:01:35Z</time></trkpt><trkpt lat="40.7264811789103" lon="14.6919568248643"><ele>128.0</ele><time>2026-04-25T08:01:36Z</time></trkpt><trkpt lat="40.72641266218533" lon="14.692019569008748"><ele>128.0</ele><time>2026-04-25T08:01:37Z</time></trkpt><trkpt lat="40.72633896283171" lon="14.692083419447128"><ele>128.0</ele><time>2026-04-25T08:01:38Z</time></trkpt><trkpt lat="40.72626294642523" lon="14.692157349674638"><ele>128.0</ele><time>2026-04-25T08:01:39Z</time></trkpt><trkpt lat="40.72617912655603" lon="14.692229901617031"><ele>128.0</ele><time>2026-04-25T08:01:40Z</time></trkpt><trkpt lat="40.726080612877276" lon="14.692315168308658"><ele>129.75</ele><time>2026-04-25T08:01:41Z</time></trkpt><trkpt lat="40.72597948223307" lon="14.692403999972317"><ele>131.5</ele><time>2026-04-25T08:01:42Z</time></trkpt><trkpt lat="40.72586461852877" lon="14.692506421351212"><ele>133.25</ele><time>2026-04-25T08:01:43Z</time></trkpt><trkpt lat="40.725736485806145" lon="14.692618831339509"><ele>135.0</ele><time>2026-04-25T08:01:44Z</time></trkpt><trkpt lat="40.72562425109943" lon="14.69272397545371"><ele>134.75</ele><time>2026-04-25T08:01:45Z</time></trkpt><trkpt lat="40.72552722664357" lon="14.692810500266816"><ele>134.5</ele><time>2026-04-25T08:01:46Z</time></trkpt><trkpt lat="40.72542552842553" lon="14.69290110900815"><ele>134.25</ele><time>2026-04-25T08:01:47Z</time></trkpt><trkpt lat="40.7253173532944" lon="14.69300018447883"><ele>134.0</ele><time>2026-04-25T08:01:48Z</time></trkpt><trkpt lat="40.72520652224316" lon="14.693105649982105"><ele>134.0</ele><time>2026-04-25T08:01:49Z</time></trkpt><trkpt lat="40.72510990935626" lon="14.69319698140449"><ele>134.0</ele><time>2026-04-25T08:01:50Z</time></trkpt><trkpt lat="40.72502168806805" lon="14.693278182012595"><ele>134.0</ele><time>2026-04-25T08:01:51Z</time></trkpt><trkpt lat="40.724938701375926" lon="14.69335955386009"><ele>134.0</ele><time>2026-04-25T08:01:52Z</time></trkpt><trkpt lat="40.724824204923216" lon="14.693468090053434"><ele>134.0</ele><time>2026-04-25T08:01:53Z</time></trkpt><trkpt lat="40.72468654070156" lon="14.693598605352959"><ele>134.0</ele><time>2026-04-25T08:01:54Z</time></trkpt><trkpt lat="40.724559837736486" lon="14.693711907562086"><ele>134.0</ele><time>2026-04-25T08:01:55Z</time></trkpt><trkpt lat="40.72443587214211" lon="14.693812923985172"><ele>134.33333333333331</ele><time>2026-04-25T08:01:56Z</time></trkpt><trkpt lat="40.7243051647068" lon="14.693916610731945"><ele>134.66666666666666</ele><time>2026-04-25T08:01:57Z</time></trkpt><trkpt lat="40.724157136669135" lon="14.69404678525902"><ele>135.0</ele><time>2026-04-25T08:01:58Z</time></trkpt><trkpt lat="40.724006602672695" lon="14.694188810757456"><ele>135.0</ele><time>2026-04-25T08:01:59Z</time></trkpt><trkpt lat="40.723878399538734" lon="14.694313278133274"><ele>135.0</ele><time>2026-04-25T08:01:59.999Z</time></trkpt><trkpt lat="40.72376035369634" lon="14.694426348958489"><ele>135.0</ele><time>2026-04-25T08:02:00.999Z</time></trkpt><trkpt lat="40.72364870829051" lon="14.694528946283349"><ele>135.0</ele><time>2026-04-25T08:02:01.999Z</time></trkpt><trkpt lat="40.723546195007486" lon="14.694626819850454"><ele>135.75</ele><time>2026-04-25T08:02:02.999Z</time></trkpt><trkpt lat="40.723446056182624" lon="14.694725379757795"><ele>136.5</ele><time>2026-04-25T08:02:03.999Z</time></trkpt><trkpt lat="40.723348127903485" lon="14.69481655355868"><ele>137.25</ele><time>2026-04-25T08:02:04.999Z</time></trkpt><trkpt lat="40.72325900610227" lon="14.694898690476329"><ele>138.0</ele><time>2026-04-25T08:02:05.999Z</time></trkpt><trkpt lat="40.72317977780506" lon="14.694974264177528"><ele>138.0</ele><time>2026-04-25T08:02:06.999Z</time></trkpt><trkpt lat="40.72309877803592" lon="14.695050509453086"><ele>138.0</ele><time>2026-04-25T08:02:07.999Z</time></trkpt><trkpt lat="40.72302768526422" lon="14.695119875943755"><ele>138.0</ele><time>2026-04-25T08:02:08.999Z</time></trkpt><trkpt lat="40.7229614855712" lon="14.695187917637716"><ele>138.0</ele><time>2026-04-25T08:02:09.999Z</time></trkpt><trkpt lat="40.72288961410577" lon="14.695257082968315"><ele>138.0</ele><time>2026-04-25T08:02:10.999Z</time></trkpt><trkpt lat="40.72282219312574" lon="14.695322529370042"><ele>138.0</ele><time>2026-04-25T08:02:11.999Z</time></trkpt><trkpt lat="40.722765784895344" lon="14.695374180901588"><ele>138.4</ele><time>2026-04-25T08:02:12.999Z</time></trkpt><trkpt lat="40.72270398276086" lon="14.69542975752108"><ele>138.8</ele><time>2026-04-25T08:02:13.999Z</time></trkpt><trkpt lat="40.72263157960003" lon="14.695501065486496"><ele>139.2</ele><time>2026-04-25T08:02:14.999Z</time></trkpt><trkpt lat="40.72255764561634" lon="14.69558281675663"><ele>139.6</ele><time>2026-04-25T08:02:15.999Z</time></trkpt><trkpt lat="40.72247995991172" lon="14.695656605899726"><ele>140.0</ele><time>2026-04-25T08:02:16.999Z</time></trkpt><trkpt lat="40.72240302392496" lon="14.695728038823926"><ele>140.0</ele><time>2026-04-25T08:02:17.999Z</time></trkpt><trkpt lat="40.72231549515603" lon="14.695807250809947"><ele>140.0</ele><time>2026-04-25T08:02:18.999Z</time></trkpt><trkpt lat="40.72222024841764" lon="14.69589532330117"><ele>140.0</ele><time>2026-04-25T08:02:19.999Z</time></trkpt><trkpt lat="40.72212971941657" lon="14.695978029631814"><ele>140.0</ele><time>2026-04-25T08:02:20.999Z</time></trkpt><trkpt lat="40.722042018541465" lon="14.696056132833275"><ele>140.0</ele><time>2026-04-25T08:02:21.999Z</time></trkpt><trkpt lat="40.72195032378415" lon="14.696138795147803"><ele>140.6</ele><time>2026-04-25T08:02:22.999Z</time></trkpt><trkpt lat="40.72186461319323" lon="14.696223123724474"><ele>141.2</ele><time>2026-04-25T08:02:23.999Z</time></trkpt><trkpt lat="40.72178234855701" lon="14.696302147949526"><ele>141.8</ele><time>2026-04-25T08:02:24.999Z</time></trkpt><trkpt lat="40.7216986090882" lon="14.696389835427436"><ele>142.4</ele><time>2026-04-25T08:02:25.999Z</time></trkpt><trkpt lat="40.721603441905046" lon="14.696486956601158"><ele>143.0</ele><time>2026-04-25T08:02:26.999Z</time></trkpt><trkpt lat="40.72150731594589" lon="14.696577200912417"><ele>143.0</ele><time>2026-04-25T08:02:27.999Z</time></trkpt><trkpt lat="40.721424207826814" lon="14.696652270269423"><ele>143.0</ele><time>2026-04-25T08:02:28.999Z</time></trkpt><trkpt lat="40.72135028324008" lon="14.696719798798219"><ele>143.0</ele><time>2026-04-25T08:02:29.999Z</time></trkpt><trkpt lat="40.72129141776625" lon="14.696781695257714"><ele>143.0</ele><time>2026-04-25T08:02:30.999Z</time></trkpt><trkpt lat="40.7212253566116" lon="14.696842497152074"><ele>143.0</ele><time>2026-04-25T08:02:31.999Z</time></trkpt><trkpt lat="40.72114189331527" lon="14.696893917762312"><ele>143.0</ele><time>2026-04-25T08:02:32.999Z</time></trkpt><trkpt lat="40.72107776978234" lon="14.696980584502882"><ele>143.8</ele><time>2026-04-25T08:02:33.999Z</time></trkpt><trkpt lat="40.72098672945096" lon="14.69704110148008"><ele>144.60000000000002</ele><time>2026-04-25T08:02:34.999Z</time></trkpt><trkpt lat="40.72089960364559" lon="14.697123746376102"><ele>145.39999999999998</ele><time>2026-04-25T08:02:35.999Z</time></trkpt><trkpt lat="40.720822617026165" lon="14.697194347550548"><ele>146.2</ele><time>2026-04-25T08:02:36.999Z</time></trkpt><trkpt lat="40.72075095678291" lon="14.697259986580411"><ele>147.0</ele><time>2026-04-25T08:02:37.999Z</time></trkpt><trkpt lat="40.72067850826556" lon="14.69732404985245"><ele>147.0</ele><time>2026-04-25T08:02:38.999Z</time></trkpt><trkpt lat="40.72060817834563" lon="14.69738394118203"><ele>147.0</ele><time>2026-04-25T08:02:39.999Z</time></trkpt><trkpt lat="40.72055246116131" lon="14.697431007898315"><ele>147.0</ele><time>2026-04-25T08:02:40.999Z</time></trkpt><trkpt lat="40.720518264769666" lon="14.697501035055641"><ele>147.0</ele><time>2026-04-25T08:02:41.999Z</time></trkpt><trkpt lat="40.72044993808212" lon="14.697563095401465"><ele>147.0</ele><time>2026-04-25T08:02:43.999Z</time></trkpt><trkpt lat="40.72039604572302" lon="14.697621336520179"><ele>147.0</ele><time>2026-04-25T08:02:46.999Z</time></trkpt><trkpt lat="40.72032286862304" lon="14.697682808657866"><ele>146.6</ele><time>2026-04-25T08:03:02.999Z</time></trkpt><trkpt lat="40.72025187706813" lon="14.697752981208367"><ele>146.2</ele><time>2026-04-25T08:03:03.999Z</time></trkpt><trkpt lat="40.720170099447714" lon="14.697830799449353"><ele>145.8</ele><time>2026-04-25T08:03:04.999Z</time></trkpt><trkpt lat="40.720071497221745" lon="14.697919659597833"><ele>145.4</ele><time>2026-04-25T08:03:05.999Z</time></trkpt><trkpt lat="40.71996933652076" lon="14.698010002475058"><ele>145.0</ele><time>2026-04-25T08:03:06.999Z</time></trkpt><trkpt lat="40.71988122241982" lon="14.698091823099297"><ele>145.8</ele><time>2026-04-25T08:03:07.999Z</time></trkpt><trkpt lat="40.7197959478058" lon="14.698124972157862"><ele>146.6</ele><time>2026-04-25T08:03:08.999Z</time></trkpt><trkpt lat="40.71973887674245" lon="14.698177877596727"><ele>147.4</ele><time>2026-04-25T08:03:09.999Z</time></trkpt><trkpt lat="40.71967978554869" lon="14.698250045238717"><ele>148.2</ele><time>2026-04-25T08:03:11.999Z</time></trkpt><trkpt lat="40.719558555308474" lon="14.698353711819752"><ele>149.0</ele><time>2026-04-25T08:03:29Z</time></trkpt><trkpt lat="40.71946328581131" lon="14.69843444142663"><ele>149.5</ele><time>2026-04-25T08:03:30Z</time></trkpt><trkpt lat="40.71936590926524" lon="14.698530180113934"><ele>150.0</ele><time>2026-04-25T08:03:31Z</time></trkpt><trkpt lat="40.71925350449114" lon="14.698645279800411"><ele>150.5</ele><time>2026-04-25T08:03:32Z</time></trkpt><trkpt lat="40.719134083669466" lon="14.698763510905394"><ele>151.0</ele><time>2026-04-25T08:03:33Z</time></trkpt><trkpt lat="40.718992938508975" lon="14.698889357162084"><ele>151.0</ele><time>2026-04-25T08:03:34Z</time></trkpt><trkpt lat="40.71883255266061" lon="14.699026049567058"><ele>151.0</ele><time>2026-04-25T08:03:35Z</time></trkpt><trkpt lat="40.71868099616547" lon="14.69915773351397"><ele>151.0</ele><time>2026-04-25T08:03:36Z</time></trkpt><trkpt lat="40.718531262496064" lon="14.699289414070208"><ele>152.33333333333334</ele><time>2026-04-25T08:03:37Z</time></trkpt><trkpt lat="40.71839404481163" lon="14.699409730615457"><ele>153.66666666666666</ele><time>2026-04-25T08:03:38Z</time></trkpt><trkpt lat="40.71824965450551" lon="14.699537269340013"><ele>155.0</ele><time>2026-04-25T08:03:39Z</time></trkpt><trkpt lat="40.71810425342608" lon="14.69967176218569"><ele>155.0</ele><time>2026-04-25T08:03:40Z</time></trkpt><trkpt lat="40.7179686268703" lon="14.699796112065938"><ele>155.0</ele><time>2026-04-25T08:03:41Z</time></trkpt><trkpt lat="40.71784373863055" lon="14.69991297446103"><ele>155.0</ele><time>2026-04-25T08:03:42Z</time></trkpt><trkpt lat="40.71771566552597" lon="14.700032088340572"><ele>156.0</ele><time>2026-04-25T08:03:43Z</time></trkpt><trkpt lat="40.71758541358357" lon="14.700154570800882"><ele>157.0</ele><time>2026-04-25T08:03:44Z</time></trkpt><trkpt lat="40.717464728518145" lon="14.700238354770745"><ele>158.0</ele><time>2026-04-25T08:03:45Z</time></trkpt><trkpt lat="40.71736324116875" lon="14.70032812444473"><ele>159.0</ele><time>2026-04-25T08:03:46Z</time></trkpt><trkpt lat="40.71727309850253" lon="14.70040785928424"><ele>159.0</ele><time>2026-04-25T08:03:47Z</time></trkpt><trkpt lat="40.71719076408772" lon="14.700480687415793"><ele>159.0</ele><time>2026-04-25T08:03:48Z</time></trkpt><trkpt lat="40.71711083914475" lon="14.70055138427562"><ele>159.0</ele><time>2026-04-25T08:03:49Z</time></trkpt><trkpt lat="40.71703068016655" lon="14.700622888225196"><ele>159.0</ele><time>2026-04-25T08:03:50Z</time></trkpt><trkpt lat="40.71695892871638" lon="14.700688754710345"><ele>159.0</ele><time>2026-04-25T08:03:51Z</time></trkpt><trkpt lat="40.71687521044073" lon="14.700765492444223"><ele>159.75</ele><time>2026-04-25T08:03:52Z</time></trkpt><trkpt lat="40.71675733015244" lon="14.700876421365232"><ele>160.5</ele><time>2026-04-25T08:03:53Z</time></trkpt><trkpt lat="40.71665354639895" lon="14.700974788577296"><ele>161.25</ele><time>2026-04-25T08:03:54Z</time></trkpt><trkpt lat="40.716568439299074" lon="14.701053416231657"><ele>162.0</ele><time>2026-04-25T08:03:55Z</time></trkpt><trkpt lat="40.71649216404414" lon="14.701124310919804"><ele>162.0</ele><time>2026-04-25T08:03:56Z</time></trkpt><trkpt lat="40.716415928248885" lon="14.70119516893254"><ele>162.0</ele><time>2026-04-25T08:03:56.999Z</time></trkpt><trkpt lat="40.71634202188419" lon="14.701263861835146"><ele>162.0</ele><time>2026-04-25T08:03:57.999Z</time></trkpt><trkpt lat="40.71628419115947" lon="14.701317613096235"><ele>162.0</ele><time>2026-04-25T08:03:58.999Z</time></trkpt><trkpt lat="40.71621163286478" lon="14.701408409938884"><ele>162.0</ele><time>2026-04-25T08:04:00.999Z</time></trkpt><trkpt lat="40.716129090631675" lon="14.701483550080015"><ele>163.2</ele><time>2026-04-25T08:04:02.999Z</time></trkpt><trkpt lat="40.71605500836276" lon="14.701552630588942"><ele>164.39999999999998</ele><time>2026-04-25T08:04:04.999Z</time></trkpt><trkpt lat="40.71596219976425" lon="14.701616834486407"><ele>165.60000000000002</ele><time>2026-04-25T08:04:06.999Z</time></trkpt><trkpt lat="40.71586558768269" lon="14.701706010177858"><ele>166.8</ele><time>2026-04-25T08:04:08.999Z</time></trkpt><trkpt lat="40.71580144427128" lon="14.701763476831093"><ele>168.0</ele><time>2026-04-25T08:04:11.999Z</time></trkpt><trkpt lat="40.71571567883517" lon="14.701840314846963"><ele>168.0</ele><time>2026-04-25T08:04:13.999Z</time></trkpt><trkpt lat="40.71565571162929" lon="14.701893727502938"><ele>168.0</ele><time>2026-04-25T08:04:14.999Z</time></trkpt><trkpt lat="40.715588053538426" lon="14.701954457125568"><ele>168.0</ele><time>2026-04-25T08:04:16.999Z</time></trkpt><trkpt lat="40.715527108177746" lon="14.702010323691008"><ele>168.0</ele><time>2026-04-25T08:04:19.999Z</time></trkpt><trkpt lat="40.71548255046958" lon="14.702075462509109"><ele>168.0</ele><time>2026-04-25T08:04:21.999Z</time></trkpt><trkpt lat="40.71544410870769" lon="14.702157030656585"><ele>168.0</ele><time>2026-04-25T08:04:23.999Z</time></trkpt><trkpt lat="40.71551402553769" lon="14.702255594888838"><ele>167.60000000000002</ele><time>2026-04-25T08:04:25.999Z</time></trkpt><trkpt lat="40.71556570390358" lon="14.702308306415174"><ele>167.20000000000002</ele><time>2026-04-25T08:04:26.999Z</time></trkpt><trkpt lat="40.715598499523146" lon="14.702380680423945"><ele>166.8</ele><time>2026-04-25T08:04:27.999Z</time></trkpt><trkpt lat="40.71561145104586" lon="14.702499626146073"><ele>166.4</ele><time>2026-04-25T08:04:28.999Z</time></trkpt><trkpt lat="40.71565630903795" lon="14.702648581799398"><ele>166.0</ele><time>2026-04-25T08:04:29.999Z</time></trkpt><trkpt lat="40.715685909226465" lon="14.702834916135286"><ele>166.0</ele><time>2026-04-25T08:04:30.999Z</time></trkpt><trkpt lat="40.71572512817186" lon="14.703000430422579"><ele>166.0</ele><time>2026-04-25T08:04:31.999Z</time></trkpt><trkpt lat="40.71576490668811" lon="14.703149374818517"><ele>166.0</ele><time>2026-04-25T08:04:32.999Z</time></trkpt><trkpt lat="40.71579992339809" lon="14.703293982149027"><ele>166.0</ele><time>2026-04-25T08:04:33.999Z</time></trkpt><trkpt lat="40.71583356250686" lon="14.703435768476277"><ele>166.0</ele><time>2026-04-25T08:04:34.999Z</time></trkpt><trkpt lat="40.71586934060461" lon="14.703578374569112"><ele>166.0</ele><time>2026-04-25T08:04:35.999Z</time></trkpt><trkpt lat="40.71590594292518" lon="14.703722377783011"><ele>166.0</ele><time>2026-04-25T08:04:36.999Z</time></trkpt><trkpt lat="40.715930977758504" lon="14.703843721054412"><ele>166.0</ele><time>2026-04-25T08:04:37.999Z</time></trkpt><trkpt lat="40.715957920445796" lon="14.703964605248705"><ele>166.0</ele><time>2026-04-25T08:04:38.999Z</time></trkpt><trkpt lat="40.715987296977254" lon="14.704088643416775"><ele>167.0</ele><time>2026-04-25T08:04:39.999Z</time></trkpt><trkpt lat="40.7160140481724" lon="14.7042022763435"><ele>168.0</ele><time>2026-04-25T08:04:40.999Z</time></trkpt><trkpt lat="40.71603605192279" lon="14.704307408005565"><ele>169.0</ele><time>2026-04-25T08:04:41.999Z</time></trkpt><trkpt lat="40.71605885781609" lon="14.704413524584536"><ele>170.0</ele><time>2026-04-25T08:04:42.999Z</time></trkpt><trkpt lat="40.71608312686514" lon="14.704525375280106"><ele>171.0</ele><time>2026-04-25T08:04:43.999Z</time></trkpt><trkpt lat="40.716103420825355" lon="14.704640253032046"><ele>172.0</ele><time>2026-04-25T08:04:44.999Z</time></trkpt><trkpt lat="40.71611502704816" lon="14.70474908877987"><ele>173.2</ele><time>2026-04-25T08:04:45.999Z</time></trkpt><trkpt lat="40.71612141196647" lon="14.704838926804866"><ele>174.39999999999998</ele><time>2026-04-25T08:04:46.999Z</time></trkpt><trkpt lat="40.71613084683473" lon="14.704926358076335"><ele>175.60000000000002</ele><time>2026-04-25T08:04:47.999Z</time></trkpt><trkpt lat="40.71614519753235" lon="14.705052239025942"><ele>176.8</ele><time>2026-04-25T08:04:49.999Z</time></trkpt><trkpt lat="40.71615615560815" lon="14.705190289362271"><ele>178.0</ele><time>2026-04-25T08:04:52.999Z</time></trkpt><trkpt lat="40.71615227717991" lon="14.705348916521581"><ele>178.8</ele><time>2026-04-25T08:04:54.999Z</time></trkpt><trkpt lat="40.7161773102148" lon="14.705489905696087"><ele>179.60000000000002</ele><time>2026-04-25T08:04:56.999Z</time></trkpt><trkpt lat="40.71611203501272" lon="14.70564942185913"><ele>180.39999999999998</ele><time>2026-04-25T08:04:58.999Z</time></trkpt><trkpt lat="40.71611276143997" lon="14.705732938600494"><ele>181.2</ele><time>2026-04-25T08:04:59.999Z</time></trkpt><trkpt lat="40.716117847468595" lon="14.705833868786035"><ele>182.0</ele><time>2026-04-25T08:05:00.999Z</time></trkpt><trkpt lat="40.716132232855756" lon="14.70595470290657"><ele>183.2</ele><time>2026-04-25T08:05:01.999Z</time></trkpt><trkpt lat="40.716144572720324" lon="14.7060820453879"><ele>184.39999999999998</ele><time>2026-04-25T08:05:02.999Z</time></trkpt><trkpt lat="40.71614843522648" lon="14.706194388485574"><ele>185.60000000000002</ele><time>2026-04-25T08:05:03.999Z</time></trkpt><trkpt lat="40.71615278987499" lon="14.70629049002508"><ele>186.8</ele><time>2026-04-25T08:05:04.999Z</time></trkpt><trkpt lat="40.71616027917384" lon="14.706420899727592"><ele>188.0</ele><time>2026-04-25T08:05:06.999Z</time></trkpt><trkpt lat="40.71607739427431" lon="14.706564088206717"><ele>188.0</ele><time>2026-04-25T08:05:08.999Z</time></trkpt><trkpt lat="40.71600546119809" lon="14.706603481971715"><ele>188.0</ele><time>2026-04-25T08:05:09.999Z</time></trkpt><trkpt lat="40.715938146588" lon="14.706628334754466"><ele>188.0</ele><time>2026-04-25T08:05:10.999Z</time></trkpt><trkpt lat="40.71587099726936" lon="14.70665921282633"><ele>188.0</ele><time>2026-04-25T08:05:11.999Z</time></trkpt><trkpt lat="40.71579977321854" lon="14.706697307585664"><ele>188.0</ele><time>2026-04-25T08:05:12.999Z</time></trkpt><trkpt lat="40.715713707805804" lon="14.70674313339844"><ele>188.0</ele><time>2026-04-25T08:05:13.999Z</time></trkpt><trkpt lat="40.715619854493" lon="14.706795846622947"><ele>188.0</ele><time>2026-04-25T08:05:14.999Z</time></trkpt><trkpt lat="40.71553425397022" lon="14.706848128287758"><ele>188.0</ele><time>2026-04-25T08:05:15.999Z</time></trkpt><trkpt lat="40.71544036437018" lon="14.706911216659092"><ele>188.0</ele><time>2026-04-25T08:05:16.999Z</time></trkpt><trkpt lat="40.71533598245335" lon="14.706979145234879"><ele>188.0</ele><time>2026-04-25T08:05:17.999Z</time></trkpt><trkpt lat="40.715225106478954" lon="14.707042349671228"><ele>188.0</ele><time>2026-04-25T08:05:18.999Z</time></trkpt><trkpt lat="40.71511859321412" lon="14.707096872444346"><ele>188.60000000000002</ele><time>2026-04-25T08:05:19.998Z</time></trkpt><trkpt lat="40.7150163668198" lon="14.707153250577287"><ele>189.20000000000002</ele><time>2026-04-25T08:05:20.998Z</time></trkpt><trkpt lat="40.71491968675486" lon="14.707221620098792"><ele>189.8</ele><time>2026-04-25T08:05:21.998Z</time></trkpt><trkpt lat="40.71482830898647" lon="14.70727928953772"><ele>190.4</ele><time>2026-04-25T08:05:22.998Z</time></trkpt><trkpt lat="40.71474494503299" lon="14.707327579074104"><ele>191.0</ele><time>2026-04-25T08:05:23.998Z</time></trkpt><trkpt lat="40.71466465212822" lon="14.70737749638306"><ele>191.0</ele><time>2026-04-25T08:05:24.998Z</time></trkpt><trkpt lat="40.71459318542754" lon="14.707425716878957"><ele>191.0</ele><time>2026-04-25T08:05:26Z</time></trkpt><trkpt lat="40.714508795173685" lon="14.707484406315729"><ele>191.0</ele><time>2026-04-25T08:05:27Z</time></trkpt><trkpt lat="40.714402792251256" lon="14.707554062633017"><ele>191.0</ele><time>2026-04-25T08:05:28Z</time></trkpt><trkpt lat="40.714279295932684" lon="14.707623324694463"><ele>191.0</ele><time>2026-04-25T08:05:29Z</time></trkpt><trkpt lat="40.71414713480368" lon="14.707697707001062"><ele>191.5</ele><time>2026-04-25T08:05:30Z</time></trkpt><trkpt lat="40.71402052852831" lon="14.707768587185985"><ele>192.0</ele><time>2026-04-25T08:05:31Z</time></trkpt><trkpt lat="40.71390618900629" lon="14.70783066741002"><ele>192.5</ele><time>2026-04-25T08:05:32Z</time></trkpt><trkpt lat="40.71380442672016" lon="14.707895408565916"><ele>193.0</ele><time>2026-04-25T08:05:33Z</time></trkpt><trkpt lat="40.713725217004956" lon="14.707960505200887"><ele>192.99999999999997</ele><time>2026-04-25T08:05:34Z</time></trkpt><trkpt lat="40.71364893372706" lon="14.70801516176661"><ele>193.0</ele><time>2026-04-25T08:05:35Z</time></trkpt><trkpt lat="40.713580636246036" lon="14.708064161689755"><ele>193.0</ele><time>2026-04-25T08:05:36Z</time></trkpt><trkpt lat="40.713520555466815" lon="14.708103975751932"><ele>193.0</ele><time>2026-04-25T08:05:37Z</time></trkpt><trkpt lat="40.71343168203042" lon="14.708145949197291"><ele>192.99999999999997</ele><time>2026-04-25T08:05:39Z</time></trkpt><trkpt lat="40.71336987369917" lon="14.708125865745615"><ele>193.0</ele><time>2026-04-25T08:05:42Z</time></trkpt><trkpt lat="40.71325937484111" lon="14.708125997653234"><ele>192.8</ele><time>2026-04-25T08:05:45Z</time></trkpt><trkpt lat="40.713151933878386" lon="14.708168970467083"><ele>192.60000000000002</ele><time>2026-04-25T08:05:47Z</time></trkpt><trkpt lat="40.71315294866577" lon="14.708268177248993"><ele>192.39999999999998</ele><time>2026-04-25T08:05:48Z</time></trkpt><trkpt lat="40.713207136625364" lon="14.708403724954442"><ele>192.2</ele><time>2026-04-25T08:05:50Z</time></trkpt><trkpt lat="40.71330136407047" lon="14.708466400480221"><ele>192.0</ele><time>2026-04-25T08:05:51Z</time></trkpt><trkpt lat="40.71342379346783" lon="14.708538768912156"><ele>193.25</ele><time>2026-04-25T08:05:52Z</time></trkpt><trkpt lat="40.713550941065485" lon="14.708607379675696"><ele>194.5</ele><time>2026-04-25T08:05:53Z</time></trkpt><trkpt lat="40.71366101386654" lon="14.708660295004288"><ele>195.75</ele><time>2026-04-25T08:05:54Z</time></trkpt><trkpt lat="40.71377127017321" lon="14.708711788864415"><ele>197.0</ele><time>2026-04-25T08:05:54.999Z</time></trkpt><trkpt lat="40.71389322047238" lon="14.708767574746178"><ele>197.25</ele><time>2026-04-25T08:05:55.999Z</time></trkpt><trkpt lat="40.714019803863515" lon="14.708833438277747"><ele>197.5</ele><time>2026-04-25T08:05:56.999Z</time></trkpt><trkpt lat="40.714141612126724" lon="14.708915848256387"><ele>197.75</ele><time>2026-04-25T08:05:57.999Z</time></trkpt><trkpt lat="40.71426004497931" lon="14.709005355965376"><ele>198.0</ele><time>2026-04-25T08:05:58.999Z</time></trkpt><trkpt lat="40.7143738654303" lon="14.709077289490935"><ele>198.0</ele><time>2026-04-25T08:05:59.999Z</time></trkpt><trkpt lat="40.714495646463476" lon="14.709140241851284"><ele>198.0</ele><time>2026-04-25T08:06:00.999Z</time></trkpt><trkpt lat="40.71463205819312" lon="14.709195177918923"><ele>198.0</ele><time>2026-04-25T08:06:01.999Z</time></trkpt><trkpt lat="40.71478041685724" lon="14.709229620048314"><ele>198.0</ele><time>2026-04-25T08:06:02.999Z</time></trkpt><trkpt lat="40.714931395922726" lon="14.709247053854215"><ele>198.0</ele><time>2026-04-25T08:06:03.999Z</time></trkpt><trkpt lat="40.71506952072392" lon="14.709257978959062"><ele>198.0</ele><time>2026-04-25T08:06:04.999Z</time></trkpt><trkpt lat="40.715198775927696" lon="14.70927135609814"><ele>198.0</ele><time>2026-04-25T08:06:05.999Z</time></trkpt><trkpt lat="40.715324057924214" lon="14.709272507541852"><ele>198.0</ele><time>2026-04-25T08:06:06.999Z</time></trkpt><trkpt lat="40.71544126032573" lon="14.709268712787724"><ele>199.0</ele><time>2026-04-25T08:06:07.999Z</time></trkpt><trkpt lat="40.715540471979224" lon="14.709267778867739"><ele>200.0</ele><time>2026-04-25T08:06:08.999Z</time></trkpt><trkpt lat="40.71561959074488" lon="14.709269500928528"><ele>201.0</ele><time>2026-04-25T08:06:09.999Z</time></trkpt><trkpt lat="40.715717172437635" lon="14.709280104599342"><ele>202.0</ele><time>2026-04-25T08:06:11.999Z</time></trkpt><trkpt lat="40.715813128307" lon="14.709340822547462"><ele>203.0</ele><time>2026-04-25T08:06:13.999Z</time></trkpt><trkpt lat="40.71587958086839" lon="14.709464681325018"><ele>204.2</ele><time>2026-04-25T08:06:15.999Z</time></trkpt><trkpt lat="40.71596251853351" lon="14.709577801085562"><ele>205.4</ele><time>2026-04-25T08:06:17.999Z</time></trkpt><trkpt lat="40.71600273125691" lon="14.709651169310163"><ele>206.6</ele><time>2026-04-25T08:06:18.999Z</time></trkpt><trkpt lat="40.716024546842746" lon="14.70975109280092"><ele>207.79999999999998</ele><time>2026-04-25T08:06:19.999Z</time></trkpt><trkpt lat="40.71603816838018" lon="14.709895733386018"><ele>209.0</ele><time>2026-04-25T08:06:20.999Z</time></trkpt><trkpt lat="40.71604226164409" lon="14.710026109758688"><ele>209.00000000000003</ele><time>2026-04-25T08:06:21.999Z</time></trkpt><trkpt lat="40.71604712243576" lon="14.710165637355622"><ele>209.0</ele><time>2026-04-25T08:06:22.999Z</time></trkpt><trkpt lat="40.716040379552396" lon="14.710299388781609"><ele>209.0</ele><time>2026-04-25T08:06:23.999Z</time></trkpt><trkpt lat="40.71606438516242" lon="14.710407348689586"><ele>209.0</ele><time>2026-04-25T08:06:24.999Z</time></trkpt><trkpt lat="40.71606435279696" lon="14.710503780995824"><ele>209.00000000000003</ele><time>2026-04-25T08:06:25.999Z</time></trkpt><trkpt lat="40.71606182216383" lon="14.71060965477073"><ele>209.0</ele><time>2026-04-25T08:06:26.999Z</time></trkpt><trkpt lat="40.716054415858686" lon="14.710706992316439"><ele>210.00000000000003</ele><time>2026-04-25T08:06:27.999Z</time></trkpt><trkpt lat="40.716049781941265" lon="14.710827185000246"><ele>211.0</ele><time>2026-04-25T08:06:29.999Z</time></trkpt><trkpt lat="40.71605974654571" lon="14.71094023662519"><ele>212.0</ele><time>2026-04-25T08:06:31.999Z</time></trkpt><trkpt lat="40.71605062437732" lon="14.71108851571337"><ele>213.0</ele><time>2026-04-25T08:06:33.999Z</time></trkpt><trkpt lat="40.71605561463136" lon="14.711172509856029"><ele>214.00000000000003</ele><time>2026-04-25T08:06:34.999Z</time></trkpt><trkpt lat="40.71606397127197" lon="14.71127950015459"><ele>215.0</ele><time>2026-04-25T08:06:35.999Z</time></trkpt><trkpt lat="40.71607331258199" lon="14.71139909720559"><ele>215.75</ele><time>2026-04-25T08:06:36.999Z</time></trkpt><trkpt lat="40.716083184944075" lon="14.71150947841058"><ele>216.5</ele><time>2026-04-25T08:06:37.999Z</time></trkpt><trkpt lat="40.71609583144783" lon="14.711638546988626"><ele>217.25</ele><time>2026-04-25T08:06:38.999Z</time></trkpt><trkpt lat="40.7161160937819" lon="14.711800956981104"><ele>218.0</ele><time>2026-04-25T08:06:39.999Z</time></trkpt><trkpt lat="40.7161422858346" lon="14.711998911332273"><ele>219.2</ele><time>2026-04-25T08:06:40.999Z</time></trkpt><trkpt lat="40.71616299373534" lon="14.712178357013892"><ele>220.4</ele><time>2026-04-25T08:06:41.999Z</time></trkpt><trkpt lat="40.71618197794681" lon="14.712336754828714"><ele>221.59999999999997</ele><time>2026-04-25T08:06:42.999Z</time></trkpt><trkpt lat="40.716214260983925" lon="14.712458393559352"><ele>222.79999999999998</ele><time>2026-04-25T08:06:43.999Z</time></trkpt><trkpt lat="40.71622782349655" lon="14.71256964068943"><ele>224.0</ele><time>2026-04-25T08:06:44.999Z</time></trkpt><trkpt lat="40.71625063925065" lon="14.712684231884992"><ele>224.2</ele><time>2026-04-25T08:06:45.999Z</time></trkpt><trkpt lat="40.716277992426946" lon="14.712793267100391"><ele>224.39999999999998</ele><time>2026-04-25T08:06:46.999Z</time></trkpt><trkpt lat="40.71630566038436" lon="14.712959209561095"><ele>224.6</ele><time>2026-04-25T08:06:48.999Z</time></trkpt><trkpt lat="40.7163077849408" lon="14.713076178640117"><ele>224.8</ele><time>2026-04-25T08:06:49.999Z</time></trkpt><trkpt lat="40.716287925729894" lon="14.713203421133407"><ele>225.0</ele><time>2026-04-25T08:06:50.999Z</time></trkpt><trkpt lat="40.716215208955624" lon="14.71332450044715"><ele>225.0</ele><time>2026-04-25T08:06:51.999Z</time></trkpt><trkpt lat="40.71614465830196" lon="14.713453791926556"><ele>225.0</ele><time>2026-04-25T08:06:52.999Z</time></trkpt><trkpt lat="40.71610990378751" lon="14.713554034752631"><ele>225.0</ele><time>2026-04-25T08:06:53.999Z</time></trkpt><trkpt lat="40.71605926062892" lon="14.713665113263685"><ele>225.0</ele><time>2026-04-25T08:06:55.999Z</time></trkpt><trkpt lat="40.716035505459885" lon="14.71378483108418"><ele>225.0</ele><time>2026-04-25T08:06:57.999Z</time></trkpt><trkpt lat="40.71606758625589" lon="14.71394332034737"><ele>225.8</ele><time>2026-04-25T08:06:59.999Z</time></trkpt><trkpt lat="40.71616669340595" lon="14.714038873756722"><ele>226.6</ele><time>2026-04-25T08:07:01.999Z</time></trkpt><trkpt lat="40.71626401960947" lon="14.714028665295144"><ele>227.39999999999998</ele><time>2026-04-25T08:07:03.999Z</time></trkpt><trkpt lat="40.71633855107683" lon="14.713996226827796"><ele>228.2</ele><time>2026-04-25T08:07:04.999Z</time></trkpt><trkpt lat="40.71641644966717" lon="14.713884460707547"><ele>229.0</ele><time>2026-04-25T08:07:05.999Z</time></trkpt><trkpt lat="40.71651639716739" lon="14.713817178896614"><ele>229.0</ele><time>2026-04-25T08:07:06.999Z</time></trkpt><trkpt lat="40.71662412165201" lon="14.713745528625045"><ele>229.0</ele><time>2026-04-25T08:07:07.999Z</time></trkpt><trkpt lat="40.716735416851186" lon="14.713675273168539"><ele>229.0</ele><time>2026-04-25T08:07:08.999Z</time></trkpt><trkpt lat="40.71684199834429" lon="14.713607882826173"><ele>229.0</ele><time>2026-04-25T08:07:09.999Z</time></trkpt><trkpt lat="40.71693973020254" lon="14.713545388100083"><ele>228.33333333333331</ele><time>2026-04-25T08:07:10.999Z</time></trkpt><trkpt lat="40.71702811828979" lon="14.713493821233044"><ele>227.66666666666666</ele><time>2026-04-25T08:07:11.999Z</time></trkpt><trkpt lat="40.717112715501074" lon="14.713439843955209"><ele>227.0</ele><time>2026-04-25T08:07:12.999Z</time></trkpt><trkpt lat="40.71719158917945" lon="14.713392897360041"><ele>226.33333333333331</ele><time>2026-04-25T08:07:13.999Z</time></trkpt><trkpt lat="40.717262781267344" lon="14.713340826264325"><ele>225.66666666666666</ele><time>2026-04-25T08:07:14.998Z</time></trkpt><trkpt lat="40.71733112304314" lon="14.713279063327368"><ele>225.0</ele><time>2026-04-25T08:07:15.998Z</time></trkpt><trkpt lat="40.71739316438928" lon="14.71319678100456"><ele>225.0</ele><time>2026-04-25T08:07:16.998Z</time></trkpt><trkpt lat="40.717442097460385" lon="14.713087116328367"><ele>225.0</ele><time>2026-04-25T08:07:17.998Z</time></trkpt><trkpt lat="40.717485081191676" lon="14.712975200340372"><ele>225.0</ele><time>2026-04-25T08:07:18.998Z</time></trkpt><trkpt lat="40.71751948591657" lon="14.712895187587307"><ele>225.0</ele><time>2026-04-25T08:07:19.998Z</time></trkpt><trkpt lat="40.71755017529849" lon="14.712819332928623"><ele>225.0</ele><time>2026-04-25T08:07:21.998Z</time></trkpt><trkpt lat="40.71758587515314" lon="14.712743768226849"><ele>225.0</ele><time>2026-04-25T08:07:23.998Z</time></trkpt><trkpt lat="40.71770333154471" lon="14.712750231358593"><ele>227.0</ele><time>2026-04-25T08:07:24.998Z</time></trkpt><trkpt lat="40.71780091836944" lon="14.71277255455093"><ele>229.0</ele><time>2026-04-25T08:07:25.998Z</time></trkpt><trkpt lat="40.71791944834457" lon="14.712822238669583"><ele>231.0</ele><time>2026-04-25T08:07:26.998Z</time></trkpt><trkpt lat="40.71804875107941" lon="14.712870365300068"><ele>233.0</ele><time>2026-04-25T08:07:27.998Z</time></trkpt><trkpt lat="40.718156410387" lon="14.712895204082336"><ele>233.0</ele><time>2026-04-25T08:07:28.998Z</time></trkpt><trkpt lat="40.7182598043114" lon="14.712880905451845"><ele>233.0</ele><time>2026-04-25T08:07:29.998Z</time></trkpt><trkpt lat="40.718364989859246" lon="14.712830656131791"><ele>233.0</ele><time>2026-04-25T08:07:31Z</time></trkpt><trkpt lat="40.71845768559529" lon="14.712776329237412"><ele>233.0</ele><time>2026-04-25T08:07:32Z</time></trkpt><trkpt lat="40.71853414086998" lon="14.712743418455775"><ele>233.0</ele><time>2026-04-25T08:07:33Z</time></trkpt><trkpt lat="40.718613819678374" lon="14.712717184114203"><ele>232.5</ele><time>2026-04-25T08:07:34Z</time></trkpt><trkpt lat="40.71870279987677" lon="14.712689913879474"><ele>232.0</ele><time>2026-04-25T08:07:35Z</time></trkpt><trkpt lat="40.71881623605801" lon="14.712667824159329"><ele>231.5</ele><time>2026-04-25T08:07:36Z</time></trkpt><trkpt lat="40.71892264685717" lon="14.71255787005475"><ele>231.0</ele><time>2026-04-25T08:07:37Z</time></trkpt><trkpt lat="40.71903875263602" lon="14.712460134943615"><ele>231.0</ele><time>2026-04-25T08:07:38Z</time></trkpt><trkpt lat="40.71914935839533" lon="14.712394582471621"><ele>231.0</ele><time>2026-04-25T08:07:39Z</time></trkpt><trkpt lat="40.71927091373107" lon="14.71236819971561"><ele>231.0</ele><time>2026-04-25T08:07:40Z</time></trkpt><trkpt lat="40.719401348767526" lon="14.712316664878731"><ele>231.0</ele><time>2026-04-25T08:07:41Z</time></trkpt><trkpt lat="40.71953078483531" lon="14.712322094235041"><ele>232.33333333333331</ele><time>2026-04-25T08:07:42Z</time></trkpt><trkpt lat="40.719676320875195" lon="14.712298776335336"><ele>233.66666666666666</ele><time>2026-04-25T08:07:43Z</time></trkpt><trkpt lat="40.7198301862283" lon="14.712308635221952"><ele>235.0</ele><time>2026-04-25T08:07:44Z</time></trkpt><trkpt lat="40.71997853945923" lon="14.712327392514261"><ele>235.0</ele><time>2026-04-25T08:07:45Z</time></trkpt><trkpt lat="40.72012125359004" lon="14.71234978308174"><ele>235.0</ele><time>2026-04-25T08:07:46Z</time></trkpt><trkpt lat="40.72026539454501" lon="14.712355916176893"><ele>235.0</ele><time>2026-04-25T08:07:47Z</time></trkpt><trkpt lat="40.7204194234515" lon="14.712339868924552"><ele>235.0</ele><time>2026-04-25T08:07:48Z</time></trkpt><trkpt lat="40.720569550181935" lon="14.712317763236387"><ele>235.75</ele><time>2026-04-25T08:07:49Z</time></trkpt><trkpt lat="40.72070279789218" lon="14.712305275566035"><ele>236.5</ele><time>2026-04-25T08:07:49.999Z</time></trkpt><trkpt lat="40.72083298618715" lon="14.712301549116846"><ele>237.25</ele><time>2026-04-25T08:07:50.999Z</time></trkpt><trkpt lat="40.72096238913973" lon="14.71230826914496"><ele>238.0</ele><time>2026-04-25T08:07:51.999Z</time></trkpt><trkpt lat="40.72108112407582" lon="14.712341823336379"><ele>238.60000000000002</ele><time>2026-04-25T08:07:52.999Z</time></trkpt><trkpt lat="40.72119334920323" lon="14.712403720753214"><ele>239.20000000000002</ele><time>2026-04-25T08:07:53.999Z</time></trkpt><trkpt lat="40.721298520888546" lon="14.712454578869991"><ele>239.8</ele><time>2026-04-25T08:07:54.999Z</time></trkpt><trkpt lat="40.721391683758114" lon="14.712471397456907"><ele>240.4</ele><time>2026-04-25T08:07:55.999Z</time></trkpt><trkpt lat="40.72149098491025" lon="14.71245693983532"><ele>241.0</ele><time>2026-04-25T08:07:56.999Z</time></trkpt><trkpt lat="40.72159589209778" lon="14.712429630034165"><ele>241.0</ele><time>2026-04-25T08:07:57.999Z</time></trkpt><trkpt lat="40.72171021238235" lon="14.712405036574138"><ele>241.00000000000003</ele><time>2026-04-25T08:07:58.999Z</time></trkpt><trkpt lat="40.7218313213395" lon="14.712396969631673"><ele>241.00000000000003</ele><time>2026-04-25T08:07:59.999Z</time></trkpt><trkpt lat="40.72194100198239" lon="14.71240911386927"><ele>241.0</ele><time>2026-04-25T08:08:00.999Z</time></trkpt><trkpt lat="40.72203791997298" lon="14.712412225182966"><ele>241.0</ele><time>2026-04-25T08:08:01.999Z</time></trkpt><trkpt lat="40.72212006539046" lon="14.712385891953462"><ele>240.60000000000002</ele><time>2026-04-25T08:08:02.999Z</time></trkpt><trkpt lat="40.72219451483567" lon="14.712316664160769"><ele>240.20000000000002</ele><time>2026-04-25T08:08:03.999Z</time></trkpt><trkpt lat="40.722266144233295" lon="14.712206716923713"><ele>239.79999999999998</ele><time>2026-04-25T08:08:04.999Z</time></trkpt><trkpt lat="40.7223339986842" lon="14.712065767242104"><ele>239.39999999999998</ele><time>2026-04-25T08:08:05.999Z</time></trkpt><trkpt lat="40.722407248093155" lon="14.711938320597557"><ele>239.0</ele><time>2026-04-25T08:08:06.999Z</time></trkpt><trkpt lat="40.72249664470617" lon="14.711834487052286"><ele>239.5</ele><time>2026-04-25T08:08:07.999Z</time></trkpt><trkpt lat="40.72259894648976" lon="14.71175623698259"><ele>240.0</ele><time>2026-04-25T08:08:08.999Z</time></trkpt><trkpt lat="40.722712367214335" lon="14.711695492121734"><ele>240.5</ele><time>2026-04-25T08:08:09.999Z</time></trkpt><trkpt lat="40.72283839188208" lon="14.711673805555536"><ele>241.0</ele><time>2026-04-25T08:08:10.999Z</time></trkpt><trkpt lat="40.72296457098746" lon="14.711650301681242"><ele>241.0</ele><time>2026-04-25T08:08:11.999Z</time></trkpt><trkpt lat="40.723087051318664" lon="14.711607054384569"><ele>241.0</ele><time>2026-04-25T08:08:12.999Z</time></trkpt><trkpt lat="40.72319368036912" lon="14.711596778186943"><ele>241.0</ele><time>2026-04-25T08:08:13.999Z</time></trkpt><trkpt lat="40.72329205106757" lon="14.711559956636027"><ele>241.0</ele><time>2026-04-25T08:08:14.999Z</time></trkpt><trkpt lat="40.723389662412046" lon="14.711478971309482"><ele>241.0</ele><time>2026-04-25T08:08:15.999Z</time></trkpt><trkpt lat="40.723481814251414" lon="14.711363469977897"><ele>241.00000000000003</ele><time>2026-04-25T08:08:16.999Z</time></trkpt><trkpt lat="40.72354086548559" lon="14.711251876589058"><ele>241.00000000000003</ele><time>2026-04-25T08:08:17.999Z</time></trkpt><trkpt lat="40.72358695332929" lon="14.711153156672752"><ele>241.0</ele><time>2026-04-25T08:08:18.999Z</time></trkpt><trkpt lat="40.72364098454797" lon="14.711042530883645"><ele>241.0</ele><time>2026-04-25T08:08:19.999Z</time></trkpt><trkpt lat="40.72369591239433" lon="14.710917986518604"><ele>240.66666666666666</ele><time>2026-04-25T08:08:20.999Z</time></trkpt><trkpt lat="40.72374605732283" lon="14.71080703010209"><ele>240.33333333333331</ele><time>2026-04-25T08:08:21.999Z</time></trkpt><trkpt lat="40.72379388158656" lon="14.71071054235608"><ele>240.0</ele><time>2026-04-25T08:08:22.999Z</time></trkpt><trkpt lat="40.723841529099005" lon="14.710632348509792"><ele>239.66666666666669</ele><time>2026-04-25T08:08:23.999Z</time></trkpt><trkpt lat="40.723894885199805" lon="14.710567508425651"><ele>239.33333333333334</ele><time>2026-04-25T08:08:24.999Z</time></trkpt><trkpt lat="40.7239628603652" lon="14.710525582285143"><ele>239.0</ele><time>2026-04-25T08:08:25.999Z</time></trkpt><trkpt lat="40.72404666838949" lon="14.71050117301937"><ele>239.00000000000003</ele><time>2026-04-25T08:08:26.999Z</time></trkpt><trkpt lat="40.72412423813737" lon="14.710487219603639"><ele>239.0</ele><time>2026-04-25T08:08:27.999Z</time></trkpt><trkpt lat="40.7241983960801" lon="14.71048909719357"><ele>239.0</ele><time>2026-04-25T08:08:28.999Z</time></trkpt><trkpt lat="40.72429042600627" lon="14.71051859065765"><ele>239.0</ele><time>2026-04-25T08:08:29.999Z</time></trkpt><trkpt lat="40.724363235818885" lon="14.710594264321397"><ele>239.00000000000003</ele><time>2026-04-25T08:08:30.999Z</time></trkpt><trkpt lat="40.72444188661493" lon="14.710639580286498"><ele>239.0</ele><time>2026-04-25T08:08:31.999Z</time></trkpt><trkpt lat="40.72452885894727" lon="14.71069836257243"><ele>239.25</ele><time>2026-04-25T08:08:32.999Z</time></trkpt><trkpt lat="40.72463621414456" lon="14.710719686368824"><ele>239.5</ele><time>2026-04-25T08:08:33.999Z</time></trkpt><trkpt lat="40.724756187818926" lon="14.710715265471078"><ele>239.75</ele><time>2026-04-25T08:08:34.999Z</time></trkpt><trkpt lat="40.72487860358817" lon="14.710695986366542"><ele>240.0</ele><time>2026-04-25T08:08:35.999Z</time></trkpt><trkpt lat="40.725015029452685" lon="14.71066528539864"><ele>240.0</ele><time>2026-04-25T08:08:36.999Z</time></trkpt><trkpt lat="40.72515839348944" lon="14.710642984627697"><ele>240.0</ele><time>2026-04-25T08:08:37.999Z</time></trkpt><trkpt lat="40.725295763215186" lon="14.710621634290884"><ele>240.0</ele><time>2026-04-25T08:08:39Z</time></trkpt><trkpt lat="40.725422621357026" lon="14.710583009679253"><ele>240.0</ele><time>2026-04-25T08:08:40Z</time></trkpt><trkpt lat="40.725531196057624" lon="14.710536588366693"><ele>241.66666666666666</ele><time>2026-04-25T08:08:41Z</time></trkpt><trkpt lat="40.725635012816596" lon="14.710495633318256"><ele>243.33333333333331</ele><time>2026-04-25T08:08:42Z</time></trkpt><trkpt lat="40.725726539419675" lon="14.71046696893706"><ele>245.0</ele><time>2026-04-25T08:08:43Z</time></trkpt><trkpt lat="40.725797998462745" lon="14.710446740326494"><ele>246.66666666666666</ele><time>2026-04-25T08:08:44Z</time></trkpt><trkpt lat="40.72588709811706" lon="14.710420223563885"><ele>248.33333333333331</ele><time>2026-04-25T08:08:51Z</time></trkpt><trkpt lat="40.725958382105894" lon="14.710410381887836"><ele>250.0</ele><time>2026-04-25T08:08:52Z</time></trkpt><trkpt lat="40.72604987324317" lon="14.710395546290277"><ele>250.6</ele><time>2026-04-25T08:08:53Z</time></trkpt><trkpt lat="40.726146741005344" lon="14.710368622753522"><ele>251.2</ele><time>2026-04-25T08:08:54Z</time></trkpt><trkpt lat="40.72626282244929" lon="14.710339922172787"><ele>251.8</ele><time>2026-04-25T08:08:55Z</time></trkpt><trkpt lat="40.72636724766525" lon="14.710319649317801"><ele>252.4</ele><time>2026-04-25T08:08:56Z</time></trkpt><trkpt lat="40.726471343134804" lon="14.710329472379069"><ele>253.0</ele><time>2026-04-25T08:08:57Z</time></trkpt><trkpt lat="40.726566064987594" lon="14.710320091461936"><ele>253.0</ele><time>2026-04-25T08:08:58Z</time></trkpt><trkpt lat="40.726667408346835" lon="14.710356872269855"><ele>253.0</ele><time>2026-04-25T08:08:59Z</time></trkpt><trkpt lat="40.726782587743685" lon="14.71041393782271"><ele>253.0</ele><time>2026-04-25T08:09:00Z</time></trkpt><trkpt lat="40.72689217821663" lon="14.710501868916172"><ele>253.0</ele><time>2026-04-25T08:09:01Z</time></trkpt><trkpt lat="40.727013218683425" lon="14.710596419110548"><ele>252.25</ele><time>2026-04-25T08:09:02Z</time></trkpt><trkpt lat="40.72713935692047" lon="14.71067471696393"><ele>251.5</ele><time>2026-04-25T08:09:03Z</time></trkpt><trkpt lat="40.72726151577181" lon="14.71074363072044"><ele>250.75</ele><time>2026-04-25T08:09:04Z</time></trkpt><trkpt lat="40.72739145401348" lon="14.710774025376814"><ele>250.0</ele><time>2026-04-25T08:09:05Z</time></trkpt><trkpt lat="40.72753504444253" lon="14.710770134712046"><ele>250.0</ele><time>2026-04-25T08:09:06Z</time></trkpt><trkpt lat="40.72769290676931" lon="14.710758253652749"><ele>250.0</ele><time>2026-04-25T08:09:07Z</time></trkpt><trkpt lat="40.72783339051319" lon="14.710757574971847"><ele>250.0</ele><time>2026-04-25T08:09:08Z</time></trkpt><trkpt lat="40.72796906890316" lon="14.710767853675884"><ele>250.0</ele><time>2026-04-25T08:09:09Z</time></trkpt><trkpt lat="40.728102868921155" lon="14.710768631862068"><ele>251.75</ele><time>2026-04-25T08:09:09.999Z</time></trkpt><trkpt lat="40.72822474139624" lon="14.710757133830011"><ele>253.5</ele><time>2026-04-25T08:09:10.999Z</time></trkpt><trkpt lat="40.728354954071534" lon="14.710725682620199"><ele>255.25</ele><time>2026-04-25T08:09:11.999Z</time></trkpt><trkpt lat="40.72848358301573" lon="14.710715197966639"><ele>257.0</ele><time>2026-04-25T08:09:12.999Z</time></trkpt><trkpt lat="40.72860940821924" lon="14.710698756060236"><ele>258.0</ele><time>2026-04-25T08:09:13.999Z</time></trkpt><trkpt lat="40.728738995885884" lon="14.710682318689258"><ele>259.0</ele><time>2026-04-25T08:09:14.999Z</time></trkpt><trkpt lat="40.72885996958291" lon="14.710673180172433"><ele>260.0</ele><time>2026-04-25T08:09:15.999Z</time></trkpt><trkpt lat="40.72897772395068" lon="14.710728339506787"><ele>261.0</ele><time>2026-04-25T08:09:16.999Z</time></trkpt><trkpt lat="40.72912655544842" lon="14.710783531800043"><ele>261.0</ele><time>2026-04-25T08:09:17.999Z</time></trkpt><trkpt lat="40.72930044110235" lon="14.710819930069137"><ele>261.0</ele><time>2026-04-25T08:09:18.999Z</time></trkpt><trkpt lat="40.72947452845216" lon="14.710851971133504"><ele>261.0</ele><time>2026-04-25T08:09:19.999Z</time></trkpt><trkpt lat="40.729635417562285" lon="14.710872178020846"><ele>263.0</ele><time>2026-04-25T08:09:20.999Z</time></trkpt><trkpt lat="40.729796385847735" lon="14.710896150686136"><ele>265.0</ele><time>2026-04-25T08:09:21.999Z</time></trkpt><trkpt lat="40.72993237503899" lon="14.71091595156021"><ele>267.0</ele><time>2026-04-25T08:09:22.999Z</time></trkpt><trkpt lat="40.73004453888025" lon="14.710941392223921"><ele>269.0</ele><time>2026-04-25T08:09:23.999Z</time></trkpt><trkpt lat="40.73016667840185" lon="14.710987020445172"><ele>270.75</ele><time>2026-04-25T08:09:24.999Z</time></trkpt><trkpt lat="40.73030999966239" lon="14.711044185848516"><ele>272.5</ele><time>2026-04-25T08:09:25.999Z</time></trkpt><trkpt lat="40.73045126138457" lon="14.711103441165719"><ele>274.25</ele><time>2026-04-25T08:09:26.999Z</time></trkpt><trkpt lat="40.730561171958456" lon="14.711149981253868"><ele>276.0</ele><time>2026-04-25T08:09:27.999Z</time></trkpt><trkpt lat="40.73065448310463" lon="14.711197708947243"><ele>277.5</ele><time>2026-04-25T08:09:28.999Z</time></trkpt><trkpt lat="40.730745744964054" lon="14.711272320007291"><ele>279.0</ele><time>2026-04-25T08:09:29.999Z</time></trkpt><trkpt lat="40.730835904387156" lon="14.711381986334194"><ele>280.5</ele><time>2026-04-25T08:09:30.999Z</time></trkpt><trkpt lat="40.730935117160506" lon="14.71148995444735"><ele>282.0</ele><time>2026-04-25T08:09:31.999Z</time></trkpt><trkpt lat="40.73106281789948" lon="14.711575123117125"><ele>282.75</ele><time>2026-04-25T08:09:32.999Z</time></trkpt><trkpt lat="40.731209596002586" lon="14.711639103206597"><ele>283.5</ele><time>2026-04-25T08:09:33.999Z</time></trkpt><trkpt lat="40.73133991673019" lon="14.7116828396853"><ele>284.25</ele><time>2026-04-25T08:09:34.999Z</time></trkpt><trkpt lat="40.731458233317575" lon="14.711724614683925"><ele>285.0</ele><time>2026-04-25T08:09:35.999Z</time></trkpt><trkpt lat="40.73157905598138" lon="14.711766611370498"><ele>285.0</ele><time>2026-04-25T08:09:37.001Z</time></trkpt><trkpt lat="40.73167926108516" lon="14.711798885103374"><ele>285.0</ele><time>2026-04-25T08:09:38.001Z</time></trkpt><trkpt lat="40.731769040956344" lon="14.711857340248097"><ele>285.0</ele><time>2026-04-25T08:09:39Z</time></trkpt><trkpt lat="40.73187285412466" lon="14.711872320942721"><ele>285.0</ele><time>2026-04-25T08:09:40.001Z</time></trkpt><trkpt lat="40.73198330932234" lon="14.711920227791149"><ele>285.0</ele><time>2026-04-25T08:09:41.001Z</time></trkpt><trkpt lat="40.732102823281686" lon="14.711957559157804"><ele>286.5</ele><time>2026-04-25T08:09:42Z</time></trkpt><trkpt lat="40.73221095549147" lon="14.711978964850356"><ele>288.0</ele><time>2026-04-25T08:09:43.001Z</time></trkpt><trkpt lat="40.73229646381544" lon="14.712002033302058"><ele>289.5</ele><time>2026-04-25T08:09:44.001Z</time></trkpt><trkpt lat="40.73236316201353" lon="14.712017420684226"><ele>291.0</ele><time>2026-04-25T08:09:45.001Z</time></trkpt><trkpt lat="40.73245347041806" lon="14.712033178481121"><ele>292.5</ele><time>2026-04-25T08:09:47.001Z</time></trkpt><trkpt lat="40.73252645877491" lon="14.712047858912275"><ele>294.0</ele><time>2026-04-25T08:09:49.001Z</time></trkpt><trkpt lat="40.73246221655929" lon="14.712038892046456"><ele>294.0</ele><time>2026-04-25T08:10:06Z</time></trkpt><trkpt lat="40.73239683367542" lon="14.712031968836328"><ele>294.0</ele><time>2026-04-25T08:10:07Z</time></trkpt><trkpt lat="40.732326677430756" lon="14.712002477774671"><ele>294.0</ele><time>2026-04-25T08:10:08Z</time></trkpt><trkpt lat="40.73226115019248" lon="14.711950161936125"><ele>294.0</ele><time>2026-04-25T08:10:09Z</time></trkpt><trkpt lat="40.73218526763532" lon="14.711929317370673"><ele>294.0</ele><time>2026-04-25T08:10:10Z</time></trkpt><trkpt lat="40.732111515437474" lon="14.711909058015578"><ele>294.0</ele><time>2026-04-25T08:10:11Z</time></trkpt><trkpt lat="40.73204743879188" lon="14.71189145649742"><ele>294.0</ele><time>2026-04-25T08:10:12Z</time></trkpt><trkpt lat="40.731957452286856" lon="14.711870898157697"><ele>294.0</ele><time>2026-04-25T08:10:14Z</time></trkpt><trkpt lat="40.73191262812228" lon="14.712079445718976"><ele>294.0</ele><time>2026-04-25T08:10:17Z</time></trkpt><trkpt lat="40.73191510224367" lon="14.712182236239979"><ele>294.0</ele><time>2026-04-25T08:10:19Z</time></trkpt><trkpt lat="40.73192166908011" lon="14.712271065606375"><ele>294.0</ele><time>2026-04-25T08:10:20Z</time></trkpt><trkpt lat="40.73193046114224" lon="14.712407383526463"><ele>294.0</ele><time>2026-04-25T08:10:21Z</time></trkpt><trkpt lat="40.731936700057496" lon="14.71257245528476"><ele>295.75</ele><time>2026-04-25T08:10:22Z</time></trkpt><trkpt lat="40.73194653696482" lon="14.712784805343363"><ele>297.5</ele><time>2026-04-25T08:10:23Z</time></trkpt><trkpt lat="40.73195365458743" lon="14.712985888228983"><ele>299.25</ele><time>2026-04-25T08:10:24Z</time></trkpt><trkpt lat="40.73196245935209" lon="14.713163894325875"><ele>301.0</ele><time>2026-04-25T08:10:25Z</time></trkpt><trkpt lat="40.73197317544197" lon="14.713373566414928"><ele>304.0</ele><time>2026-04-25T08:10:26Z</time></trkpt><trkpt lat="40.73198167895514" lon="14.71358538710839"><ele>307.0</ele><time>2026-04-25T08:10:27Z</time></trkpt><trkpt lat="40.731987693040374" lon="14.713763463480744"><ele>310.0</ele><time>2026-04-25T08:10:28Z</time></trkpt><trkpt lat="40.73199304255859" lon="14.713913295284582"><ele>313.0</ele><time>2026-04-25T08:10:29Z</time></trkpt><trkpt lat="40.73198995316737" lon="14.714039489470046"><ele>313.0</ele><time>2026-04-25T08:10:30Z</time></trkpt><trkpt lat="40.73197400397452" lon="14.714160578990013"><ele>313.0</ele><time>2026-04-25T08:10:31Z</time></trkpt><trkpt lat="40.73192766164137" lon="14.714293450894935"><ele>313.0</ele><time>2026-04-25T08:10:32Z</time></trkpt><trkpt lat="40.73186746788294" lon="14.714453358498716"><ele>313.0</ele><time>2026-04-25T08:10:33Z</time></trkpt><trkpt lat="40.73181579314056" lon="14.714647513067455"><ele>317.0</ele><time>2026-04-25T08:10:34Z</time></trkpt><trkpt lat="40.731790108833934" lon="14.714852218444841"><ele>321.0</ele><time>2026-04-25T08:10:35Z</time></trkpt><trkpt lat="40.731767358462434" lon="14.715057737397533"><ele>325.0</ele><time>2026-04-25T08:10:36Z</time></trkpt><trkpt lat="40.731736513883725" lon="14.71523777374478"><ele>326.8</ele><time>2026-04-25T08:10:37Z</time></trkpt><trkpt lat="40.73170454756689" lon="14.715385431572575"><ele>328.6</ele><time>2026-04-25T08:10:38Z</time></trkpt><trkpt lat="40.73168094206411" lon="14.71550301787977"><ele>330.4</ele><time>2026-04-25T08:10:39Z</time></trkpt><trkpt lat="40.73166564178627" lon="14.715587539090627"><ele>332.2</ele><time>2026-04-25T08:10:40Z</time></trkpt><trkpt lat="40.73161681387977" lon="14.71570905470589"><ele>334.0</ele><time>2026-04-25T08:10:42Z</time></trkpt><trkpt lat="40.7315317933668" lon="14.715752988540226"><ele>334.0</ele><time>2026-04-25T08:10:43Z</time></trkpt><trkpt lat="40.73141280440099" lon="14.715857473965809"><ele>334.0</ele><time>2026-04-25T08:10:44Z</time></trkpt><trkpt lat="40.73126099873581" lon="14.71594343477454"><ele>334.0</ele><time>2026-04-25T08:10:45Z</time></trkpt><trkpt lat="40.731123778885895" lon="14.716021528647953"><ele>335.25</ele><time>2026-04-25T08:10:46Z</time></trkpt><trkpt lat="40.73099552345009" lon="14.716122640885509"><ele>336.5</ele><time>2026-04-25T08:10:47Z</time></trkpt><trkpt lat="40.7308661923148" lon="14.716242728625884"><ele>337.75</ele><time>2026-04-25T08:10:48Z</time></trkpt><trkpt lat="40.73075363435039" lon="14.716336908192387"><ele>339.0</ele><time>2026-04-25T08:10:49Z</time></trkpt><trkpt lat="40.73063345684311" lon="14.716380783206107"><ele>339.0</ele><time>2026-04-25T08:10:50Z</time></trkpt><trkpt lat="40.730519217236285" lon="14.716437370738275"><ele>339.0</ele><time>2026-04-25T08:10:51Z</time></trkpt><trkpt lat="40.730402292779644" lon="14.716479519782142"><ele>339.0</ele><time>2026-04-25T08:10:52Z</time></trkpt><trkpt lat="40.730286692279016" lon="14.716502869768789"><ele>339.0</ele><time>2026-04-25T08:10:53Z</time></trkpt><trkpt lat="40.730165819175454" lon="14.716519500015009"><ele>340.79999999999995</ele><time>2026-04-25T08:10:54Z</time></trkpt><trkpt lat="40.73003594931166" lon="14.71652610142057"><ele>342.59999999999997</ele><time>2026-04-25T08:10:55Z</time></trkpt><trkpt lat="40.72991990818002" lon="14.71651348836006"><ele>344.4</ele><time>2026-04-25T08:10:56Z</time></trkpt><trkpt lat="40.72982400023881" lon="14.716508231658963"><ele>346.2</ele><time>2026-04-25T08:10:57Z</time></trkpt><trkpt lat="40.72973806806122" lon="14.716522779471237"><ele>348.0</ele><time>2026-04-25T08:10:58Z</time></trkpt><trkpt lat="40.729645401380026" lon="14.716528797284257"><ele>348.0</ele><time>2026-04-25T08:10:59Z</time></trkpt><trkpt lat="40.72955470110986" lon="14.716585263689712"><ele>348.0</ele><time>2026-04-25T08:11:00Z</time></trkpt><trkpt lat="40.72945947446669" lon="14.716669465191073"><ele>348.0</ele><time>2026-04-25T08:11:01Z</time></trkpt><trkpt lat="40.72937208891069" lon="14.71671175239159"><ele>348.0</ele><time>2026-04-25T08:11:02Z</time></trkpt><trkpt lat="40.729301841284204" lon="14.71678232128663"><ele>348.0</ele><time>2026-04-25T08:11:03Z</time></trkpt><trkpt lat="40.729210847965206" lon="14.716846146436904"><ele>350.4</ele><time>2026-04-25T08:11:04Z</time></trkpt><trkpt lat="40.7291050405123" lon="14.716920823526216"><ele>352.79999999999995</ele><time>2026-04-25T08:11:05Z</time></trkpt><trkpt lat="40.729002153442416" lon="14.71698282094663"><ele>355.2</ele><time>2026-04-25T08:11:06Z</time></trkpt><trkpt lat="40.728920946671906" lon="14.71703309357645"><ele>357.6</ele><time>2026-04-25T08:11:07Z</time></trkpt><trkpt lat="40.72885122405989" lon="14.717075987089057"><ele>360.0</ele><time>2026-04-25T08:11:08Z</time></trkpt><trkpt lat="40.728742813011294" lon="14.717153512967839"><ele>360.0</ele><time>2026-04-25T08:11:10Z</time></trkpt><trkpt lat="40.728688931179526" lon="14.717199871312324"><ele>360.0</ele><time>2026-04-25T08:11:11Z</time></trkpt><trkpt lat="40.72862752839019" lon="14.717263846635516"><ele>360.0</ele><time>2026-04-25T08:11:11.999Z</time></trkpt><trkpt lat="40.72854226715154" lon="14.717331530701127"><ele>360.0</ele><time>2026-04-25T08:11:12.999Z</time></trkpt><trkpt lat="40.72843641875913" lon="14.717347554911115"><ele>360.0</ele><time>2026-04-25T08:11:13.999Z</time></trkpt><trkpt lat="40.72832202911621" lon="14.717347735332961"><ele>358.1666666666667</ele><time>2026-04-25T08:11:14.999Z</time></trkpt><trkpt lat="40.72823725766209" lon="14.717344993427654"><ele>356.3333333333333</ele><time>2026-04-25T08:11:15.999Z</time></trkpt><trkpt lat="40.72817204053367" lon="14.717344909227059"><ele>354.5</ele><time>2026-04-25T08:11:16.999Z</time></trkpt><trkpt lat="40.72807127869746" lon="14.717369546904877"><ele>352.66666666666663</ele><time>2026-04-25T08:11:18.999Z</time></trkpt><trkpt lat="40.72800640780361" lon="14.717376315038928"><ele>350.8333333333333</ele><time>2026-04-25T08:11:20.999Z</time></trkpt><trkpt lat="40.72792046606298" lon="14.717382614458163"><ele>349.0</ele><time>2026-04-25T08:11:23.999Z</time></trkpt><trkpt lat="40.727850410492884" lon="14.71738477433229"><ele>349.0</ele><time>2026-04-25T08:11:27.999Z</time></trkpt><trkpt lat="40.7277995888811" lon="14.717434582703815"><ele>349.0</ele><time>2026-04-25T08:11:30.999Z</time></trkpt><trkpt lat="40.72787260595378" lon="14.717405323509809"><ele>349.0</ele><time>2026-04-25T08:11:41.999Z</time></trkpt><trkpt lat="40.72800898537692" lon="14.717370865168608"><ele>349.0</ele><time>2026-04-25T08:11:44Z</time></trkpt><trkpt lat="40.72813382436724" lon="14.717365296520214"><ele>349.0</ele><time>2026-04-25T08:11:45Z</time></trkpt><trkpt lat="40.72828402784048" lon="14.717389398554"><ele>349.0</ele><time>2026-04-25T08:11:46Z</time></trkpt><trkpt lat="40.72841085809141" lon="14.71738939855326"><ele>349.0</ele><time>2026-04-25T08:11:47Z</time></trkpt><trkpt lat="40.7285016274064" lon="14.717365666692512"><ele>349.0</ele><time>2026-04-25T08:11:48Z</time></trkpt><trkpt lat="40.72857070639712" lon="14.717385796144951"><ele>349.0</ele><time>2026-04-25T08:11:49Z</time></trkpt><trkpt lat="40.72866887909838" lon="14.717353183600638"><ele>349.0</ele><time>2026-04-25T08:11:51Z</time></trkpt><trkpt lat="40.72874427328703" lon="14.7173513785587"><ele>351.75</ele><time>2026-04-25T08:11:54Z</time></trkpt><trkpt lat="40.728668393798536" lon="14.717307957466312"><ele>354.5</ele><time>2026-04-25T08:11:57Z</time></trkpt><trkpt lat="40.72878659291311" lon="14.717609689975756"><ele>357.25</ele><time>2026-04-25T08:12:08Z</time></trkpt><trkpt lat="40.728854164254074" lon="14.717652983493062"><ele>360.0</ele><time>2026-04-25T08:12:11Z</time></trkpt><trkpt lat="40.7288989419974" lon="14.71773092422902"><ele>360.0</ele><time>2026-04-25T08:12:13Z</time></trkpt><trkpt lat="40.72898438425976" lon="14.717736461907668"><ele>360.0</ele><time>2026-04-25T08:12:15Z</time></trkpt><trkpt lat="40.72906454263404" lon="14.717649810243516"><ele>360.0</ele><time>2026-04-25T08:12:17Z</time></trkpt><trkpt lat="40.729133524864515" lon="14.7175730048097"><ele>360.0</ele><time>2026-04-25T08:12:19Z</time></trkpt><trkpt lat="40.72922510017516" lon="14.717530571836278"><ele>360.0</ele><time>2026-04-25T08:12:21Z</time></trkpt><trkpt lat="40.729340292411365" lon="14.717505064578718"><ele>361.2</ele><time>2026-04-25T08:12:23Z</time></trkpt><trkpt lat="40.72945595815849" lon="14.717541443942695"><ele>362.4</ele><time>2026-04-25T08:12:25Z</time></trkpt><trkpt lat="40.729575057672456" lon="14.717592246238093"><ele>363.6</ele><time>2026-04-25T08:12:27Z</time></trkpt><trkpt lat="40.729640779159254" lon="14.7176253041513"><ele>364.8</ele><time>2026-04-25T08:12:28Z</time></trkpt><trkpt lat="40.72970934441699" lon="14.717649506419386"><ele>366.0</ele><time>2026-04-25T08:12:29Z</time></trkpt><trkpt lat="40.7298292586827" lon="14.717715619628114"><ele>369.3333333333333</ele><time>2026-04-25T08:12:31Z</time></trkpt><trkpt lat="40.7298857017917" lon="14.717753722918664"><ele>372.66666666666663</ele><time>2026-04-25T08:12:32Z</time></trkpt><trkpt lat="40.729948471548326" lon="14.717783172219361"><ele>376.0</ele><time>2026-04-25T08:12:33Z</time></trkpt><trkpt lat="40.73001435509971" lon="14.717798537915408"><ele>379.3333333333333</ele><time>2026-04-25T08:12:34Z</time></trkpt><trkpt lat="40.73011460739245" lon="14.717801663474983"><ele>382.66666666666663</ele><time>2026-04-25T08:12:36Z</time></trkpt><trkpt lat="40.730176522661765" lon="14.717861101346664"><ele>386.0</ele><time>2026-04-25T08:12:37Z</time></trkpt><trkpt lat="40.730241558456385" lon="14.717927024425641"><ele>386.3333333333333</ele><time>2026-04-25T08:12:38Z</time></trkpt><trkpt lat="40.73032180889068" lon="14.718008697948141"><ele>386.66666666666663</ele><time>2026-04-25T08:12:39Z</time></trkpt><trkpt lat="40.730404670028825" lon="14.718072422892991"><ele>387.0</ele><time>2026-04-25T08:12:40Z</time></trkpt><trkpt lat="40.73047746904281" lon="14.71811198403201"><ele>387.33333333333337</ele><time>2026-04-25T08:12:41Z</time></trkpt><trkpt lat="40.730545866819895" lon="14.718147148223483"><ele>387.6666666666667</ele><time>2026-04-25T08:12:42Z</time></trkpt><trkpt lat="40.73063074847993" lon="14.718196040886477"><ele>388.0</ele><time>2026-04-25T08:12:43Z</time></trkpt><trkpt lat="40.73071327942807" lon="14.7182286131817"><ele>388.00000000000006</ele><time>2026-04-25T08:12:44Z</time></trkpt><trkpt lat="40.730808206657734" lon="14.718272556533902"><ele>388.0</ele><time>2026-04-25T08:12:45Z</time></trkpt><trkpt lat="40.73088886950192" lon="14.718320989024894"><ele>388.0</ele><time>2026-04-25T08:12:46Z</time></trkpt><trkpt lat="40.73096406161972" lon="14.718368910049476"><ele>388.0</ele><time>2026-04-25T08:12:47Z</time></trkpt><trkpt lat="40.73103691357698" lon="14.718421312764574"><ele>388.00000000000006</ele><time>2026-04-25T08:12:48Z</time></trkpt><trkpt lat="40.73111443328201" lon="14.718470996475208"><ele>388.0</ele><time>2026-04-25T08:12:49Z</time></trkpt><trkpt lat="40.73118432538772" lon="14.718522010435791"><ele>393.0</ele><time>2026-04-25T08:12:50Z</time></trkpt><trkpt lat="40.731246297007544" lon="14.71858081359489"><ele>398.0</ele><time>2026-04-25T08:12:51Z</time></trkpt><trkpt lat="40.731327124223235" lon="14.718674479177594"><ele>403.0</ele><time>2026-04-25T08:12:53Z</time></trkpt><trkpt lat="40.731403270839735" lon="14.718748964846021"><ele>408.0</ele><time>2026-04-25T08:12:55Z</time></trkpt><trkpt lat="40.731489113500324" lon="14.71882242485175"><ele>413.0</ele><time>2026-04-25T08:12:57Z</time></trkpt><trkpt lat="40.73158463925407" lon="14.718881359341456"><ele>413.0</ele><time>2026-04-25T08:12:59Z</time></trkpt><trkpt lat="40.731641958483024" lon="14.71891826469058"><ele>413.0</ele><time>2026-04-25T08:13:00Z</time></trkpt><trkpt lat="40.73175023863961" lon="14.718995673879638"><ele>413.0</ele><time>2026-04-25T08:13:02Z</time></trkpt><trkpt lat="40.73181033400366" lon="14.719062443590053"><ele>413.0</ele><time>2026-04-25T08:13:03Z</time></trkpt><trkpt lat="40.73191225191014" lon="14.719150537078049"><ele>413.0</ele><time>2026-04-25T08:13:05Z</time></trkpt><trkpt lat="40.731977974262556" lon="14.719180455767606"><ele>413.0</ele><time>2026-04-25T08:13:06Z</time></trkpt><trkpt lat="40.73209390100173" lon="14.719240806556787"><ele>413.0</ele><time>2026-04-25T08:13:08Z</time></trkpt><trkpt lat="40.73219372897258" lon="14.719292163337974"><ele>413.0</ele><time>2026-04-25T08:13:10Z</time></trkpt><trkpt lat="40.73225814728338" lon="14.719351148768064"><ele>413.0</ele><time>2026-04-25T08:13:12Z</time></trkpt><trkpt lat="40.732328320405855" lon="14.719459774848435"><ele>413.0</ele><time>2026-04-25T08:13:14Z</time></trkpt><trkpt lat="40.73237887800988" lon="14.719521402567013"><ele>417.49999999999994</ele><time>2026-04-25T08:13:15.999Z</time></trkpt><trkpt lat="40.73243331012264" lon="14.719626186353393"><ele>422.0</ele><time>2026-04-25T08:13:17.999Z</time></trkpt><trkpt lat="40.73250888036677" lon="14.719729909370809"><ele>426.5</ele><time>2026-04-25T08:13:19.999Z</time></trkpt><trkpt lat="40.73255602532203" lon="14.719815678179227"><ele>431.0</ele><time>2026-04-25T08:13:21.999Z</time></trkpt><trkpt lat="40.73259558097779" lon="14.719883809558553"><ele>435.49999999999994</ele><time>2026-04-25T08:13:22.999Z</time></trkpt><trkpt lat="40.73264617041846" lon="14.719958100187023"><ele>440.0</ele><time>2026-04-25T08:13:23.999Z</time></trkpt><trkpt lat="40.73269482477432" lon="14.720025527410268"><ele>441.16666666666663</ele><time>2026-04-25T08:13:24.999Z</time></trkpt><trkpt lat="40.73277395544451" lon="14.720131379790722"><ele>442.3333333333333</ele><time>2026-04-25T08:13:26.999Z</time></trkpt><trkpt lat="40.732832840251405" lon="14.72016564148859"><ele>443.5</ele><time>2026-04-25T08:13:27.999Z</time></trkpt><trkpt lat="40.73289019802181" lon="14.720202528528436"><ele>444.66666666666663</ele><time>2026-04-25T08:13:28.999Z</time></trkpt><trkpt lat="40.73300068555204" lon="14.720261482137303"><ele>445.8333333333333</ele><time>2026-04-25T08:13:30.999Z</time></trkpt><trkpt lat="40.733066309996424" lon="14.720293717236736"><ele>447.0</ele><time>2026-04-25T08:13:31.999Z</time></trkpt><trkpt lat="40.73312918464655" lon="14.72031658254383"><ele>446.2857142857143</ele><time>2026-04-25T08:13:32.999Z</time></trkpt><trkpt lat="40.73319534005556" lon="14.72032344063407"><ele>445.57142857142856</ele><time>2026-04-25T08:13:33.999Z</time></trkpt><trkpt lat="40.73326090224509" lon="14.720320869684421"><ele>444.8571428571429</ele><time>2026-04-25T08:13:34.999Z</time></trkpt><trkpt lat="40.73332424718074" lon="14.720307703194948"><ele>444.1428571428571</ele><time>2026-04-25T08:13:35.999Z</time></trkpt><trkpt lat="40.73338986167381" lon="14.720308062753046"><ele>443.42857142857144</ele><time>2026-04-25T08:13:36.999Z</time></trkpt><trkpt lat="40.7334888211384" lon="14.720304987535725"><ele>442.7142857142857</ele><time>2026-04-25T08:13:38.999Z</time></trkpt><trkpt lat="40.73355987064485" lon="14.720321841333798"><ele>442.0</ele><time>2026-04-25T08:13:49Z</time></trkpt><trkpt lat="40.733574042689305" lon="14.720459442050066"><ele>442.0</ele><time>2026-04-25T08:13:53Z</time></trkpt><trkpt lat="40.73360112272808" lon="14.720591563367027"><ele>442.00000000000006</ele><time>2026-04-25T08:13:54Z</time></trkpt><trkpt lat="40.7336074598775" lon="14.720711686703657"><ele>442.00000000000006</ele><time>2026-04-25T08:13:56Z</time></trkpt><trkpt lat="40.733560209618325" lon="14.720867377456534"><ele>442.0</ele><time>2026-04-25T08:13:58Z</time></trkpt><trkpt lat="40.73349520564741" lon="14.72099352095276"><ele>442.0</ele><time>2026-04-25T08:14:00Z</time></trkpt><trkpt lat="40.73348300353218" lon="14.721109906492714"><ele>443.6</ele><time>2026-04-25T08:14:02Z</time></trkpt><trkpt lat="40.73350684315496" lon="14.72125347462422"><ele>445.20000000000005</ele><time>2026-04-25T08:14:04Z</time></trkpt><trkpt lat="40.73355589667376" lon="14.721406613195587"><ele>446.8</ele><time>2026-04-25T08:14:06Z</time></trkpt><trkpt lat="40.73358501267212" lon="14.721492823768356"><ele>448.4</ele><time>2026-04-25T08:14:07Z</time></trkpt><trkpt lat="40.73362234677567" lon="14.721608109006391"><ele>450.0</ele><time>2026-04-25T08:14:09Z</time></trkpt><trkpt lat="40.73364580005946" lon="14.72174570854333"><ele>450.0</ele><time>2026-04-25T08:14:11Z</time></trkpt><trkpt lat="40.73366706596387" lon="14.721840934649576"><ele>450.0</ele><time>2026-04-25T08:14:12Z</time></trkpt><trkpt lat="40.73369677973991" lon="14.721993581606286"><ele>450.0</ele><time>2026-04-25T08:14:14Z</time></trkpt><trkpt lat="40.73371513548611" lon="14.722078496540094"><ele>450.0</ele><time>2026-04-25T08:14:15Z</time></trkpt><trkpt lat="40.733712182948494" lon="14.722224089089961"><ele>450.0</ele><time>2026-04-25T08:14:17Z</time></trkpt><trkpt lat="40.733683645271135" lon="14.722308708559572"><ele>450.0</ele><time>2026-04-25T08:14:18Z</time></trkpt><trkpt lat="40.733699048387955" lon="14.722474760035457"><ele>452.8333333333333</ele><time>2026-04-25T08:14:20Z</time></trkpt><trkpt lat="40.73372448211243" lon="14.72256851395989"><ele>455.66666666666663</ele><time>2026-04-25T08:14:21Z</time></trkpt><trkpt lat="40.73375024042346" lon="14.722669790595855"><ele>458.5</ele><time>2026-04-25T08:14:22Z</time></trkpt><trkpt lat="40.73376346840969" lon="14.722773525302104"><ele>461.3333333333333</ele><time>2026-04-25T08:14:23Z</time></trkpt><trkpt lat="40.73376695981377" lon="14.722864396742844"><ele>464.16666666666663</ele><time>2026-04-25T08:14:24Z</time></trkpt><trkpt lat="40.73377466293788" lon="14.722962049733107"><ele>467.0</ele><time>2026-04-25T08:14:25Z</time></trkpt><trkpt lat="40.733779549558115" lon="14.723061772570093"><ele>471.40000000000003</ele><time>2026-04-25T08:14:26Z</time></trkpt><trkpt lat="40.73378361714394" lon="14.723149479493486"><ele>475.80000000000007</ele><time>2026-04-25T08:14:27Z</time></trkpt><trkpt lat="40.733796647629624" lon="14.723307840818563"><ele>480.2</ele><time>2026-04-25T08:14:29Z</time></trkpt><trkpt lat="40.73384292736959" lon="14.723454375271377"><ele>484.6</ele><time>2026-04-25T08:14:31Z</time></trkpt><trkpt lat="40.733892610332305" lon="14.723567574346477"><ele>489.0</ele><time>2026-04-25T08:14:33Z</time></trkpt><trkpt lat="40.73390153683013" lon="14.723731975870981"><ele>494.4</ele><time>2026-04-25T08:14:35Z</time></trkpt><trkpt lat="40.73390773340717" lon="14.723833235059553"><ele>499.79999999999995</ele><time>2026-04-25T08:14:36Z</time></trkpt><trkpt lat="40.73392541189282" lon="14.723925813461905"><ele>505.20000000000005</ele><time>2026-04-25T08:14:37Z</time></trkpt><trkpt lat="40.73398014443857" lon="14.72407844896596"><ele>510.6</ele><time>2026-04-25T08:14:39Z</time></trkpt><trkpt lat="40.734025462364684" lon="14.724218402760462"><ele>516.0</ele><time>2026-04-25T08:14:41Z</time></trkpt><trkpt lat="40.73408153229314" lon="14.72434238527804"><ele>520.2</ele><time>2026-04-25T08:14:43Z</time></trkpt><trkpt lat="40.73412552152622" lon="14.724421664156935"><ele>524.4000000000001</ele><time>2026-04-25T08:14:44Z</time></trkpt><trkpt lat="40.734158447973" lon="14.724510741169377"><ele>528.6</ele><time>2026-04-25T08:14:45Z</time></trkpt><trkpt lat="40.7341829492584" lon="14.724594124475907"><ele>532.8000000000001</ele><time>2026-04-25T08:14:46Z</time></trkpt><trkpt lat="40.73426876959779" lon="14.724702603210158"><ele>537.0</ele><time>2026-04-25T08:14:48Z</time></trkpt><trkpt lat="40.7343921560549" lon="14.724740431367495"><ele>536.9999999999999</ele><time>2026-04-25T08:14:50Z</time></trkpt><trkpt lat="40.734469046867154" lon="14.724735096073834"><ele>537.0</ele><time>2026-04-25T08:14:51Z</time></trkpt><trkpt lat="40.73454289023676" lon="14.724741346054008"><ele>537.0</ele><time>2026-04-25T08:14:52Z</time></trkpt><trkpt lat="40.73460594006189" lon="14.72473338274229"><ele>537.0</ele><time>2026-04-25T08:14:53Z</time></trkpt><trkpt lat="40.73467577722795" lon="14.724734422114228"><ele>537.0</ele><time>2026-04-25T08:14:54Z</time></trkpt><trkpt lat="40.73474243383853" lon="14.724745864913192"><ele>536.9999999999999</ele><time>2026-04-25T08:14:55Z</time></trkpt><trkpt lat="40.73481192531772" lon="14.724743852897662"><ele>537.0</ele><time>2026-04-25T08:14:56Z</time></trkpt><trkpt lat="40.73486882726101" lon="14.72470313914373"><ele>537.0</ele><time>2026-04-25T08:14:57Z</time></trkpt><trkpt lat="40.734931563884885" lon="14.724657141338298"><ele>537.0</ele><time>2026-04-25T08:14:58Z</time></trkpt><trkpt lat="40.735040278974765" lon="14.724584636802668"><ele>537.0</ele><time>2026-04-25T08:15:00Z</time></trkpt><trkpt lat="40.73512123784582" lon="14.724587175651347"><ele>537.0</ele><time>2026-04-25T08:15:02Z</time></trkpt><trkpt lat="40.73514767327202" lon="14.724665336498036"><ele>537.0</ele><time>2026-04-25T08:15:05Z</time></trkpt><trkpt lat="40.73512689165707" lon="14.724796205387634"><ele>537.0</ele><time>2026-04-25T08:15:07Z</time></trkpt><trkpt lat="40.735142634272336" lon="14.724884826414705"><ele>537.0</ele><time>2026-04-25T08:15:08Z</time></trkpt><trkpt lat="40.73510605333015" lon="14.72500500991773"><ele>537.0</ele><time>2026-04-25T08:15:10Z</time></trkpt><trkpt lat="40.73502129840636" lon="14.725096325246856"><ele>537.0</ele><time>2026-04-25T08:15:13Z</time></trkpt><trkpt lat="40.73493046005523" lon="14.72512593675695"><ele>537.0</ele><time>2026-04-25T08:15:15Z</time></trkpt><trkpt lat="40.73489527527502" lon="14.725264834246271"><ele>537.0</ele><time>2026-04-25T08:15:17Z</time></trkpt><trkpt lat="40.73490973601984" lon="14.725359733711464"><ele>538.5</ele><time>2026-04-25T08:15:18Z</time></trkpt><trkpt lat="40.734923472548125" lon="14.725443432381462"><ele>540.0</ele><time>2026-04-25T08:15:19Z</time></trkpt><trkpt lat="40.73493116656692" lon="14.725543147392989"><ele>541.5</ele><time>2026-04-25T08:15:19.999Z</time></trkpt><trkpt lat="40.73492233094452" lon="14.725651313602963"><ele>543.0</ele><time>2026-04-25T08:15:20.999Z</time></trkpt><trkpt lat="40.7349052598322" lon="14.725796988578253"><ele>544.5</ele><time>2026-04-25T08:15:21.999Z</time></trkpt><trkpt lat="40.734908161964135" lon="14.725939403176568"><ele>546.0</ele><time>2026-04-25T08:15:22.999Z</time></trkpt><trkpt lat="40.73491069751404" lon="14.726079032302838"><ele>547.8333333333334</ele><time>2026-04-25T08:15:23.999Z</time></trkpt><trkpt lat="40.734909879610456" lon="14.726198289309146"><ele>549.6666666666666</ele><time>2026-04-25T08:15:24.999Z</time></trkpt><trkpt lat="40.73490857207534" lon="14.726291560293049"><ele>551.5</ele><time>2026-04-25T08:15:25.999Z</time></trkpt><trkpt lat="40.73490795731213" lon="14.726390637789436"><ele>553.3333333333333</ele><time>2026-04-25T08:15:26.999Z</time></trkpt><trkpt lat="40.73489879804051" lon="14.726502133210849"><ele>555.1666666666666</ele><time>2026-04-25T08:15:27.999Z</time></trkpt><trkpt lat="40.73490713869553" lon="14.726634703124624"><ele>557.0</ele><time>2026-04-25T08:15:28.999Z</time></trkpt><trkpt lat="40.73493222884564" lon="14.726767673717964"><ele>557.0</ele><time>2026-04-25T08:15:29.999Z</time></trkpt><trkpt lat="40.734936022866556" lon="14.726870909471014"><ele>557.0</ele><time>2026-04-25T08:15:30.999Z</time></trkpt><trkpt lat="40.734954992311756" lon="14.727003793825034"><ele>557.0</ele><time>2026-04-25T08:15:32.999Z</time></trkpt><trkpt lat="40.73507525388296" lon="14.727039280778047"><ele>557.0</ele><time>2026-04-25T08:15:34.999Z</time></trkpt><trkpt lat="40.735160345184426" lon="14.727007409964756"><ele>557.0</ele><time>2026-04-25T08:15:35.999Z</time></trkpt><trkpt lat="40.73526494205589" lon="14.726961354277778"><ele>554.8000000000001</ele><time>2026-04-25T08:15:36.999Z</time></trkpt><trkpt lat="40.73534863695721" lon="14.72693970999874"><ele>552.6</ele><time>2026-04-25T08:15:37.999Z</time></trkpt><trkpt lat="40.735412812690946" lon="14.726944428356045"><ele>550.4000000000001</ele><time>2026-04-25T08:15:38.999Z</time></trkpt><trkpt lat="40.73551239419335" lon="14.727009817747295"><ele>548.2</ele><time>2026-04-25T08:15:40.999Z</time></trkpt><trkpt lat="40.735550507259354" lon="14.727139226848285"><ele>546.0</ele><time>2026-04-25T08:15:42.999Z</time></trkpt><trkpt lat="40.73553729566513" lon="14.727248235317491"><ele>546.0</ele><time>2026-04-25T08:15:44.999Z</time></trkpt><trkpt lat="40.73552111516587" lon="14.727416907980796"><ele>546.0</ele><time>2026-04-25T08:15:46.999Z</time></trkpt><trkpt lat="40.735513720606555" lon="14.727503523913244"><ele>546.0</ele><time>2026-04-25T08:15:47.999Z</time></trkpt><trkpt lat="40.73546413033812" lon="14.727655646178365"><ele>546.0</ele><time>2026-04-25T08:15:49.999Z</time></trkpt><trkpt lat="40.73543542854546" lon="14.72772971972231"><ele>546.0</ele><time>2026-04-25T08:15:50.999Z</time></trkpt><trkpt lat="40.7354478218502" lon="14.727883660558616"><ele>553.4</ele><time>2026-04-25T08:15:52.999Z</time></trkpt><trkpt lat="40.73550319549771" lon="14.727967682764021"><ele>560.8</ele><time>2026-04-25T08:15:55Z</time></trkpt><trkpt lat="40.73560177931748" lon="14.72795412669269"><ele>568.1999999999999</ele><time>2026-04-25T08:15:57Z</time></trkpt><trkpt lat="40.73566849660963" lon="14.727929558618271"><ele>575.6</ele><time>2026-04-25T08:15:58Z</time></trkpt><trkpt lat="40.73581283263705" lon="14.727939255133858"><ele>583.0</ele><time>2026-04-25T08:16:00Z</time></trkpt><trkpt lat="40.73588723897687" lon="14.727957741014462"><ele>583.0</ele><time>2026-04-25T08:16:01Z</time></trkpt><trkpt lat="40.735958558288814" lon="14.72794365974155"><ele>583.0</ele><time>2026-04-25T08:16:02Z</time></trkpt><trkpt lat="40.73602708123544" lon="14.727912219986287"><ele>583.0</ele><time>2026-04-25T08:16:03Z</time></trkpt><trkpt lat="40.736110967183336" lon="14.727902350599837"><ele>583.0</ele><time>2026-04-25T08:16:05Z</time></trkpt><trkpt lat="40.736172897160586" lon="14.727917694278315"><ele>583.0</ele><time>2026-04-25T08:16:06Z</time></trkpt><trkpt lat="40.73623809361096" lon="14.727942790484633"><ele>583.0</ele><time>2026-04-25T08:16:07Z</time></trkpt><trkpt lat="40.73636154860157" lon="14.727916998350493"><ele>581.6666666666667</ele><time>2026-04-25T08:16:09Z</time></trkpt><trkpt lat="40.736434070063105" lon="14.727901800815987"><ele>580.3333333333334</ele><time>2026-04-25T08:16:10Z</time></trkpt><trkpt lat="40.736538524663096" lon="14.72790217647644"><ele>579.0</ele><time>2026-04-25T08:16:12Z</time></trkpt><trkpt lat="40.736602249958686" lon="14.727932160500872"><ele>577.6666666666666</ele><time>2026-04-25T08:16:14Z</time></trkpt><trkpt lat="40.73662743175069" lon="14.728040926142423"><ele>576.3333333333333</ele><time>2026-04-25T08:16:16Z</time></trkpt><trkpt lat="40.73664443815936" lon="14.728123108529163"><ele>575.0</ele><time>2026-04-25T08:16:17Z</time></trkpt><trkpt lat="40.7366770461458" lon="14.72825345602449"><ele>575.0</ele><time>2026-04-25T08:16:19Z</time></trkpt><trkpt lat="40.73667213847313" lon="14.728382126474393"><ele>575.0</ele><time>2026-04-25T08:16:21Z</time></trkpt><trkpt lat="40.73664136583847" lon="14.728466591175723"><ele>575.0</ele><time>2026-04-25T08:16:22Z</time></trkpt><trkpt lat="40.73663281468339" lon="14.728609665657922"><ele>575.0</ele><time>2026-04-25T08:16:24Z</time></trkpt><trkpt lat="40.73664907369636" lon="14.72874249421941"><ele>575.0</ele><time>2026-04-25T08:16:26Z</time></trkpt><trkpt lat="40.73667949723157" lon="14.728914001985572"><ele>578.8333333333333</ele><time>2026-04-25T08:16:28Z</time></trkpt><trkpt lat="40.73669747240543" lon="14.729023585365839"><ele>582.6666666666666</ele><time>2026-04-25T08:16:29Z</time></trkpt><trkpt lat="40.73672237299227" lon="14.729119902213963"><ele>586.5</ele><time>2026-04-25T08:16:30Z</time></trkpt><trkpt lat="40.736737926531" lon="14.729231937924784"><ele>590.3333333333334</ele><time>2026-04-25T08:16:31Z</time></trkpt><trkpt lat="40.73674600519561" lon="14.729350893721286"><ele>594.1666666666667</ele><time>2026-04-25T08:16:32Z</time></trkpt><trkpt lat="40.7367640464397" lon="14.729468147478258"><ele>598.0</ele><time>2026-04-25T08:16:33Z</time></trkpt><trkpt lat="40.736795466760334" lon="14.729566674967046"><ele>601.0</ele><time>2026-04-25T08:16:34Z</time></trkpt><trkpt lat="40.73680276738434" lon="14.729689013174669"><ele>604.0</ele><time>2026-04-25T08:16:35Z</time></trkpt><trkpt lat="40.73679329009339" lon="14.729792502952735"><ele>607.0</ele><time>2026-04-25T08:16:36Z</time></trkpt><trkpt lat="40.73679432834395" lon="14.729910652518413"><ele>610.0</ele><time>2026-04-25T08:16:37Z</time></trkpt><trkpt lat="40.73681747069069" lon="14.730081674454468"><ele>613.0</ele><time>2026-04-25T08:16:38Z</time></trkpt><trkpt lat="40.736851209105346" lon="14.730230988534272"><ele>611.6666666666667</ele><time>2026-04-25T08:16:39Z</time></trkpt><trkpt lat="40.736873974690404" lon="14.730347743418985"><ele>610.3333333333334</ele><time>2026-04-25T08:16:40Z</time></trkpt><trkpt lat="40.73689572975957" lon="14.730438439999139"><ele>609.0</ele><time>2026-04-25T08:16:41Z</time></trkpt><trkpt lat="40.73690613416354" lon="14.730521571464314"><ele>607.6666666666666</ele><time>2026-04-25T08:16:42Z</time></trkpt><trkpt lat="40.7369176263747" lon="14.730621238080236"><ele>606.3333333333333</ele><time>2026-04-25T08:16:43Z</time></trkpt><trkpt lat="40.73691272371028" lon="14.73074104461464"><ele>605.0</ele><time>2026-04-25T08:16:44Z</time></trkpt><trkpt lat="40.736934325308816" lon="14.730853587092314"><ele>605.0</ele><time>2026-04-25T08:16:45Z</time></trkpt><trkpt lat="40.73694993885187" lon="14.730952636970912"><ele>605.0</ele><time>2026-04-25T08:16:46Z</time></trkpt><trkpt lat="40.73693978400567" lon="14.731037635344837"><ele>605.0</ele><time>2026-04-25T08:16:47Z</time></trkpt><trkpt lat="40.736927473948505" lon="14.731142296238055"><ele>605.0</ele><time>2026-04-25T08:16:48Z</time></trkpt><trkpt lat="40.73691285294747" lon="14.731293680531346"><ele>605.0</ele><time>2026-04-25T08:16:49Z</time></trkpt><trkpt lat="40.73690164492221" lon="14.731427157694213"><ele>605.0</ele><time>2026-04-25T08:16:50Z</time></trkpt><trkpt lat="40.73689333696822" lon="14.731518965473082"><ele>609.4</ele><time>2026-04-25T08:16:51Z</time></trkpt><trkpt lat="40.736871495276" lon="14.73168008284999"><ele>613.8</ele><time>2026-04-25T08:16:53Z</time></trkpt><trkpt lat="40.736822609204175" lon="14.731801696015083"><ele>618.2</ele><time>2026-04-25T08:16:55Z</time></trkpt><trkpt lat="40.736771083577544" lon="14.731918157306518"><ele>622.6</ele><time>2026-04-25T08:16:57Z</time></trkpt><trkpt lat="40.736769317970605" lon="14.732003722851914"><ele>627.0</ele><time>2026-04-25T08:16:58Z</time></trkpt><trkpt lat="40.7367716849293" lon="14.732114884632015"><ele>627.0</ele><time>2026-04-25T08:17:00Z</time></trkpt><trkpt lat="40.73672430656632" lon="14.732187418860168"><ele>627.0</ele><time>2026-04-25T08:19:08Z</time></trkpt><trkpt lat="40.73668088079415" lon="14.73226862895476"><ele>627.0</ele><time>2026-04-25T08:21:13Z</time></trkpt><trkpt lat="40.73665605314405" lon="14.732378739649919"><ele>627.0</ele><time>2026-04-25T08:21:15Z</time></trkpt><trkpt lat="40.73663432454468" lon="14.732508167492579"><ele>627.0</ele><time>2026-04-25T08:21:17Z</time></trkpt><trkpt lat="40.73661180057805" lon="14.732591184970774"><ele>627.0</ele><time>2026-04-25T08:21:18Z</time></trkpt><trkpt lat="40.73661441982822" lon="14.732694882924763"><ele>625.7142857142858</ele><time>2026-04-25T08:21:19Z</time></trkpt><trkpt lat="40.73663413511064" lon="14.732797243949229"><ele>624.4285714285714</ele><time>2026-04-25T08:21:20Z</time></trkpt><trkpt lat="40.736655189140386" lon="14.732891639022638"><ele>623.1428571428571</ele><time>2026-04-25T08:21:21Z</time></trkpt><trkpt lat="40.73666170496833" lon="14.73298162152723"><ele>621.8571428571429</ele><time>2026-04-25T08:21:22Z</time></trkpt><trkpt lat="40.73665411445134" lon="14.733066502615657"><ele>620.5714285714286</ele><time>2026-04-25T08:21:23Z</time></trkpt><trkpt lat="40.73662254830335" lon="14.733144796337562"><ele>619.2857142857143</ele><time>2026-04-25T08:21:24Z</time></trkpt><trkpt lat="40.73658665312254" lon="14.73325878809829"><ele>618.0</ele><time>2026-04-25T08:21:25Z</time></trkpt><trkpt lat="40.73658441687004" lon="14.733349536357922"><ele>618.0</ele><time>2026-04-25T08:21:26Z</time></trkpt><trkpt lat="40.736610320151165" lon="14.733430685699963"><ele>618.0</ele><time>2026-04-25T08:21:27Z</time></trkpt><trkpt lat="40.73663708112534" lon="14.733545396825976"><ele>618.0</ele><time>2026-04-25T08:21:29Z</time></trkpt><trkpt lat="40.736627943943525" lon="14.733640798107118"><ele>618.0</ele><time>2026-04-25T08:21:31Z</time></trkpt><trkpt lat="40.736599098576704" lon="14.73373345165071"><ele>618.0</ele><time>2026-04-25T08:21:33Z</time></trkpt><trkpt lat="40.73655920987255" lon="14.733819881840825"><ele>618.0</ele><time>2026-04-25T08:21:34Z</time></trkpt><trkpt lat="40.73652077771506" lon="14.733915850547241"><ele>616.8571428571429</ele><time>2026-04-25T08:21:35Z</time></trkpt><trkpt lat="40.73649580750068" lon="14.734004506104338"><ele>615.7142857142858</ele><time>2026-04-25T08:21:36Z</time></trkpt><trkpt lat="40.73646993419707" lon="14.734100456222048"><ele>614.5714285714287</ele><time>2026-04-25T08:21:37Z</time></trkpt><trkpt lat="40.73644096456392" lon="14.734188624090827"><ele>613.4285714285714</ele><time>2026-04-25T08:21:38Z</time></trkpt><trkpt lat="40.736407282582476" lon="14.734259458436544"><ele>612.2857142857142</ele><time>2026-04-25T08:21:39Z</time></trkpt><trkpt lat="40.736366609817026" lon="14.734337482084696"><ele>611.1428571428572</ele><time>2026-04-25T08:21:40Z</time></trkpt><trkpt lat="40.73633083654912" lon="14.734418728028816"><ele>610.0</ele><time>2026-04-25T08:21:40.999Z</time></trkpt><trkpt lat="40.736267679124374" lon="14.734532788539122"><ele>610.8</ele><time>2026-04-25T08:21:41.999Z</time></trkpt><trkpt lat="40.7362056721699" lon="14.7346593149393"><ele>611.6</ele><time>2026-04-25T08:21:42.999Z</time></trkpt><trkpt lat="40.73614203952413" lon="14.734784545408626"><ele>612.4</ele><time>2026-04-25T08:21:43.999Z</time></trkpt><trkpt lat="40.73608752822284" lon="14.734894228111061"><ele>613.2</ele><time>2026-04-25T08:21:44.999Z</time></trkpt><trkpt lat="40.736046100727606" lon="14.734984848487535"><ele>614.0</ele><time>2026-04-25T08:21:45.999Z</time></trkpt><trkpt lat="40.73598882646468" lon="14.735146792585555"><ele>612.1666666666666</ele><time>2026-04-25T08:21:47.999Z</time></trkpt><trkpt lat="40.73593700647965" lon="14.735258933266149"><ele>610.3333333333333</ele><time>2026-04-25T08:21:48.999Z</time></trkpt><trkpt lat="40.735889287440735" lon="14.735366793958121"><ele>608.5</ele><time>2026-04-25T08:21:49.999Z</time></trkpt><trkpt lat="40.73585809184872" lon="14.735446132276437"><ele>606.6666666666666</ele><time>2026-04-25T08:21:50.999Z</time></trkpt><trkpt lat="40.735839727968155" lon="14.73556354859751"><ele>604.8333333333334</ele><time>2026-04-25T08:21:52.999Z</time></trkpt><trkpt lat="40.735827886313224" lon="14.735657256882526"><ele>603.0</ele><time>2026-04-25T08:21:54.999Z</time></trkpt><trkpt lat="40.7358023234845" lon="14.73577801545188"><ele>603.0</ele><time>2026-04-25T08:21:56.999Z</time></trkpt><trkpt lat="40.73581351410294" lon="14.73587956674912"><ele>603.0</ele><time>2026-04-25T08:21:59.999Z</time></trkpt><trkpt lat="40.73581640533862" lon="14.735982612425135"><ele>603.0</ele><time>2026-04-25T08:22:02.999Z</time></trkpt><trkpt lat="40.73586679871444" lon="14.736084149670063"><ele>603.0</ele><time>2026-04-25T08:22:04.999Z</time></trkpt><trkpt lat="40.73593289569543" lon="14.736116444793591"><ele>603.0</ele><time>2026-04-25T08:22:06.999Z</time></trkpt><trkpt lat="40.736015492007034" lon="14.736134575317825"><ele>603.0</ele><time>2026-04-25T08:22:08.999Z</time></trkpt><trkpt lat="40.736079233580234" lon="14.73613533471132"><ele>600.6</ele><time>2026-04-25T08:22:09.999Z</time></trkpt><trkpt lat="40.736160078165376" lon="14.736224166644169"><ele>598.1999999999999</ele><time>2026-04-25T08:22:13.001Z</time></trkpt><trkpt lat="40.73626681849268" lon="14.736279526797915"><ele>595.8</ele><time>2026-04-25T08:22:15.001Z</time></trkpt><trkpt lat="40.73633257331122" lon="14.736289923364016"><ele>593.4</ele><time>2026-04-25T08:22:16.001Z</time></trkpt><trkpt lat="40.736453255028565" lon="14.736305058757132"><ele>591.0</ele><time>2026-04-25T08:22:18.001Z</time></trkpt><trkpt lat="40.73651648207838" lon="14.73630834240583"><ele>591.0</ele><time>2026-04-25T08:22:19.001Z</time></trkpt><trkpt lat="40.73659206272617" lon="14.736315660104031"><ele>591.0</ele><time>2026-04-25T08:22:21.001Z</time></trkpt><trkpt lat="40.73665972241683" lon="14.736351366713691"><ele>591.0</ele><time>2026-04-25T08:22:25.001Z</time></trkpt><trkpt lat="40.7367295937797" lon="14.736325593712593"><ele>591.0</ele><time>2026-04-25T08:22:28.001Z</time></trkpt><trkpt lat="40.73681303180877" lon="14.736354250788622"><ele>591.0</ele><time>2026-04-25T08:22:31Z</time></trkpt><trkpt lat="40.73687310453588" lon="14.736396889049253"><ele>591.0</ele><time>2026-04-25T08:22:33Z</time></trkpt><trkpt lat="40.736920186920045" lon="14.736465814622793"><ele>591.0</ele><time>2026-04-25T08:25:52Z</time></trkpt><trkpt lat="40.7369444224352" lon="14.73657361946005"><ele>591.8</ele><time>2026-04-25T08:25:53.999Z</time></trkpt><trkpt lat="40.736966011558216" lon="14.736696132717572"><ele>592.6</ele><time>2026-04-25T08:25:54.999Z</time></trkpt><trkpt lat="40.73697331996452" lon="14.736797271866957"><ele>593.4</ele><time>2026-04-25T08:25:55.999Z</time></trkpt><trkpt lat="40.73700547811496" lon="14.736920179379771"><ele>594.2</ele><time>2026-04-25T08:25:56.999Z</time></trkpt><trkpt lat="40.7370512797613" lon="14.737055074215201"><ele>595.0</ele><time>2026-04-25T08:25:57.999Z</time></trkpt><trkpt lat="40.73709226667764" lon="14.737199135558074"><ele>593.0</ele><time>2026-04-25T08:25:58.999Z</time></trkpt><trkpt lat="40.737121059475406" lon="14.737344796967019"><ele>591.0</ele><time>2026-04-25T08:25:59.999Z</time></trkpt><trkpt lat="40.73715145632397" lon="14.737495867308953"><ele>589.0</ele><time>2026-04-25T08:26:00.999Z</time></trkpt><trkpt lat="40.737192973823795" lon="14.7376553337717"><ele>587.0</ele><time>2026-04-25T08:26:01.999Z</time></trkpt><trkpt lat="40.73724248037445" lon="14.737806521206686"><ele>586.2</ele><time>2026-04-25T08:26:02.999Z</time></trkpt><trkpt lat="40.737297423914" lon="14.737942587410531"><ele>585.4000000000001</ele><time>2026-04-25T08:26:03.999Z</time></trkpt><trkpt lat="40.73734055485358" lon="14.738077401208828"><ele>584.5999999999999</ele><time>2026-04-25T08:26:04.999Z</time></trkpt><trkpt lat="40.737385310386365" lon="14.738208418995479"><ele>583.8</ele><time>2026-04-25T08:26:05.999Z</time></trkpt><trkpt lat="40.73741678885601" lon="14.738315457074718"><ele>583.0</ele><time>2026-04-25T08:26:06.999Z</time></trkpt><trkpt lat="40.73743734252431" lon="14.738403293003646"><ele>582.1666666666667</ele><time>2026-04-25T08:26:07.999Z</time></trkpt><trkpt lat="40.73745295148947" lon="14.73856485153766"><ele>581.3333333333334</ele><time>2026-04-25T08:26:09.999Z</time></trkpt><trkpt lat="40.73746375756348" lon="14.738670598887023"><ele>580.5</ele><time>2026-04-25T08:26:10.999Z</time></trkpt><trkpt lat="40.73748085988672" lon="14.73875662138098"><ele>579.6666666666666</ele><time>2026-04-25T08:26:11.999Z</time></trkpt><trkpt lat="40.73750691694676" lon="14.738851797274965"><ele>578.8333333333333</ele><time>2026-04-25T08:26:12.999Z</time></trkpt><trkpt lat="40.737536998043716" lon="14.738942442701111"><ele>578.0</ele><time>2026-04-25T08:26:13.999Z</time></trkpt><trkpt lat="40.73756681121224" lon="14.73902840451506"><ele>578.0</ele><time>2026-04-25T08:26:14.999Z</time></trkpt><trkpt lat="40.73759824486573" lon="14.739110937672317"><ele>578.0</ele><time>2026-04-25T08:26:15.999Z</time></trkpt><trkpt lat="40.73763026416934" lon="14.7392070773776"><ele>578.0</ele><time>2026-04-25T08:26:16.999Z</time></trkpt><trkpt lat="40.73766393670895" lon="14.739286949816831"><ele>578.0</ele><time>2026-04-25T08:26:17.999Z</time></trkpt><trkpt lat="40.737751172609464" lon="14.739396822113044"><ele>578.0</ele><time>2026-04-25T08:26:19.999Z</time></trkpt><trkpt lat="40.7377981211895" lon="14.739460386720465"><ele>578.0</ele><time>2026-04-25T08:26:20.999Z</time></trkpt><trkpt lat="40.7378494469097" lon="14.739519176817746"><ele>578.6666666666666</ele><time>2026-04-25T08:26:21.999Z</time></trkpt><trkpt lat="40.737908957402354" lon="14.739569876655606"><ele>579.3333333333333</ele><time>2026-04-25T08:26:22.999Z</time></trkpt><trkpt lat="40.737970995718555" lon="14.73961163848225"><ele>580.0</ele><time>2026-04-25T08:26:24.001Z</time></trkpt><trkpt lat="40.73803375259493" lon="14.739656304084532"><ele>580.6666666666666</ele><time>2026-04-25T08:26:26.001Z</time></trkpt><trkpt lat="40.73802829545169" lon="14.739744895984868"><ele>581.3333333333334</ele><time>2026-04-25T08:26:28.001Z</time></trkpt><trkpt lat="40.737953632715254" lon="14.73983925072753"><ele>582.0</ele><time>2026-04-25T08:26:30.001Z</time></trkpt><trkpt lat="40.73788515166312" lon="14.739907622212979"><ele>582.0</ele><time>2026-04-25T08:26:32.001Z</time></trkpt><trkpt lat="40.73779911640686" lon="14.739948530463895"><ele>582.0</ele><time>2026-04-25T08:26:34.001Z</time></trkpt><trkpt lat="40.73769309058281" lon="14.740031506887224"><ele>582.0</ele><time>2026-04-25T08:26:36.001Z</time></trkpt><trkpt lat="40.73760848638944" lon="14.740115188930691"><ele>582.0</ele><time>2026-04-25T08:26:38.001Z</time></trkpt><trkpt lat="40.737540071159174" lon="14.740199486834507"><ele>582.0</ele><time>2026-04-25T08:26:41.001Z</time></trkpt><trkpt lat="40.73749945487397" lon="14.740301800805483"><ele>579.8333333333334</ele><time>2026-04-25T08:26:43Z</time></trkpt><trkpt lat="40.73748939359597" lon="14.7403839813571"><ele>577.6666666666666</ele><time>2026-04-25T08:26:44Z</time></trkpt><trkpt lat="40.73751080543044" lon="14.740535587613513"><ele>575.5</ele><time>2026-04-25T08:26:46Z</time></trkpt><trkpt lat="40.737556348689566" lon="14.740684164414207"><ele>573.3333333333333</ele><time>2026-04-25T08:26:48Z</time></trkpt><trkpt lat="40.73758347404387" lon="14.740764259186829"><ele>571.1666666666666</ele><time>2026-04-25T08:26:49Z</time></trkpt><trkpt lat="40.7376237527612" lon="14.740855301076781"><ele>569.0</ele><time>2026-04-25T08:26:50Z</time></trkpt><trkpt lat="40.737678946502925" lon="14.740944277698235"><ele>569.0</ele><time>2026-04-25T08:26:51Z</time></trkpt><trkpt lat="40.73773067064542" lon="14.741021559030003"><ele>569.0</ele><time>2026-04-25T08:26:52Z</time></trkpt><trkpt lat="40.73776914935702" lon="14.741102749454981"><ele>569.0</ele><time>2026-04-25T08:26:53Z</time></trkpt><trkpt lat="40.73780775240033" lon="14.741183000228922"><ele>569.0</ele><time>2026-04-25T08:26:54Z</time></trkpt><trkpt lat="40.73784494424688" lon="14.741258417014944"><ele>569.0</ele><time>2026-04-25T08:26:55Z</time></trkpt><trkpt lat="40.73791213418317" lon="14.74141972002343"><ele>569.0</ele><time>2026-04-25T08:26:57Z</time></trkpt><trkpt lat="40.73795287039767" lon="14.741497394978088"><ele>569.0</ele><time>2026-04-25T08:26:58Z</time></trkpt><trkpt lat="40.73804492289902" lon="14.741608888641096"><ele>569.0</ele><time>2026-04-25T08:27:00Z</time></trkpt><trkpt lat="40.738100246573495" lon="14.741665263663236"><ele>569.0</ele><time>2026-04-25T08:27:01Z</time></trkpt><trkpt lat="40.738148147409746" lon="14.741720516972787"><ele>569.0</ele><time>2026-04-25T08:27:02Z</time></trkpt><trkpt lat="40.738194661727" lon="14.741781409349581"><ele>569.0</ele><time>2026-04-25T08:27:03Z</time></trkpt><trkpt lat="40.73827538545249" lon="14.741916203491542"><ele>567.4</ele><time>2026-04-25T08:27:05Z</time></trkpt><trkpt lat="40.7383714695936" lon="14.74202260062006"><ele>565.8</ele><time>2026-04-25T08:27:07Z</time></trkpt><trkpt lat="40.73842360628054" lon="14.742069527803249"><ele>564.2</ele><time>2026-04-25T08:27:08Z</time></trkpt><trkpt lat="40.738521718598676" lon="14.74215986777157"><ele>562.6</ele><time>2026-04-25T08:27:10Z</time></trkpt><trkpt lat="40.738624972973874" lon="14.742233570462538"><ele>561.0</ele><time>2026-04-25T08:27:12Z</time></trkpt><trkpt lat="40.738712674868715" lon="14.742288127262006"><ele>561.0</ele><time>2026-04-25T08:27:14Z</time></trkpt><trkpt lat="40.73880111748592" lon="14.742382620204124"><ele>561.0</ele><time>2026-04-25T08:27:16Z</time></trkpt><trkpt lat="40.73885872821099" lon="14.742419574255468"><ele>561.0</ele><time>2026-04-25T08:27:17Z</time></trkpt><trkpt lat="40.73895809343709" lon="14.742420016734034"><ele>561.0</ele><time>2026-04-25T08:27:19Z</time></trkpt><trkpt lat="40.73902333084134" lon="14.74238677250634"><ele>561.0</ele><time>2026-04-25T08:27:20Z</time></trkpt><trkpt lat="40.739082261004796" lon="14.742353059151924"><ele>561.0</ele><time>2026-04-25T08:27:21Z</time></trkpt><trkpt lat="40.73919693877078" lon="14.742341258659154"><ele>561.0</ele><time>2026-04-25T08:27:23Z</time></trkpt><trkpt lat="40.7392804690777" lon="14.742393861191058"><ele>561.0</ele><time>2026-04-25T08:27:25Z</time></trkpt><trkpt lat="40.73932686747377" lon="14.742533321573354"><ele>561.0</ele><time>2026-04-25T08:27:27Z</time></trkpt><trkpt lat="40.73936886284258" lon="14.742703097945085"><ele>561.0</ele><time>2026-04-25T08:27:29Z</time></trkpt><trkpt lat="40.7394010795568" lon="14.742789140154668"><ele>561.0</ele><time>2026-04-25T08:27:30Z</time></trkpt><trkpt lat="40.73943841751325" lon="14.742868858721849"><ele>562.4</ele><time>2026-04-25T08:27:31Z</time></trkpt><trkpt lat="40.73948570128341" lon="14.742965214347805"><ele>563.8</ele><time>2026-04-25T08:27:32Z</time></trkpt><trkpt lat="40.739545786750675" lon="14.743060475626583"><ele>565.1999999999999</ele><time>2026-04-25T08:27:33Z</time></trkpt><trkpt lat="40.739612745563164" lon="14.743159290026218"><ele>566.6</ele><time>2026-04-25T08:27:34Z</time></trkpt><trkpt lat="40.73968523695162" lon="14.743276271722227"><ele>568.0</ele><time>2026-04-25T08:27:35Z</time></trkpt><trkpt lat="40.73974480946979" lon="14.743392032820585"><ele>568.0</ele><time>2026-04-25T08:27:36Z</time></trkpt><trkpt lat="40.73979490305688" lon="14.743499645898586"><ele>568.0</ele><time>2026-04-25T08:27:37Z</time></trkpt><trkpt lat="40.73984797080858" lon="14.743620723165154"><ele>568.0</ele><time>2026-04-25T08:27:38Z</time></trkpt><trkpt lat="40.73991074330078" lon="14.743752062542326"><ele>568.0</ele><time>2026-04-25T08:27:39Z</time></trkpt><trkpt lat="40.739970377390286" lon="14.743879445260806"><ele>568.0</ele><time>2026-04-25T08:27:40Z</time></trkpt><trkpt lat="40.740023008149976" lon="14.744000242144189"><ele>568.1999999999999</ele><time>2026-04-25T08:27:41Z</time></trkpt><trkpt lat="40.7400633611982" lon="14.744118583488001"><ele>568.4</ele><time>2026-04-25T08:27:42Z</time></trkpt><trkpt lat="40.74010657555423" lon="14.744269353775607"><ele>568.5999999999999</ele><time>2026-04-25T08:27:43Z</time></trkpt><trkpt lat="40.74015078665798" lon="14.744405090513032"><ele>568.8</ele><time>2026-04-25T08:27:44Z</time></trkpt><trkpt lat="40.7402119751009" lon="14.744523030198263"><ele>569.0</ele><time>2026-04-25T08:27:45Z</time></trkpt><trkpt lat="40.7402970210484" lon="14.744625921505348"><ele>569.0</ele><time>2026-04-25T08:27:46Z</time></trkpt><trkpt lat="40.74038864672851" lon="14.74472001334135"><ele>569.0</ele><time>2026-04-25T08:27:47Z</time></trkpt><trkpt lat="40.74047565887062" lon="14.744800244400905"><ele>569.0</ele><time>2026-04-25T08:27:48Z</time></trkpt><trkpt lat="40.740541567638616" lon="14.74488163302347"><ele>569.0</ele><time>2026-04-25T08:27:49Z</time></trkpt><trkpt lat="40.74057888587269" lon="14.744983744506289"><ele>569.0</ele><time>2026-04-25T08:27:50Z</time></trkpt><trkpt lat="40.7406041462901" lon="14.745099616553446"><ele>568.3333333333333</ele><time>2026-04-25T08:27:51Z</time></trkpt><trkpt lat="40.74062145272732" lon="14.74522303130098"><ele>567.6666666666666</ele><time>2026-04-25T08:27:52Z</time></trkpt><trkpt lat="40.74062382247136" lon="14.74534782257514"><ele>567.0</ele><time>2026-04-25T08:27:53Z</time></trkpt><trkpt lat="40.74061574556961" lon="14.745473209372033"><ele>566.3333333333334</ele><time>2026-04-25T08:27:54Z</time></trkpt><trkpt lat="40.74063540077279" lon="14.745579328452754"><ele>565.6666666666667</ele><time>2026-04-25T08:27:54.999Z</time></trkpt><trkpt lat="40.74068153369093" lon="14.745668138158239"><ele>565.0</ele><time>2026-04-25T08:27:55.999Z</time></trkpt><trkpt lat="40.7407334663102" lon="14.745737484365138"><ele>564.9999999999999</ele><time>2026-04-25T08:27:56.999Z</time></trkpt><trkpt lat="40.74080331480433" lon="14.745786074153395"><ele>565.0</ele><time>2026-04-25T08:27:58.999Z</time></trkpt><trkpt lat="40.74086297916236" lon="14.745831670258411"><ele>565.0</ele><time>2026-04-25T08:28:00.999Z</time></trkpt><trkpt lat="40.74088684573207" lon="14.745931084587102"><ele>565.0</ele><time>2026-04-25T08:28:02.999Z</time></trkpt><trkpt lat="40.740949303137846" lon="14.74596263998558"><ele>565.0</ele><time>2026-04-25T08:28:04.999Z</time></trkpt><trkpt lat="40.74099086029117" lon="14.746049133633917"><ele>564.9999999999999</ele><time>2026-04-25T08:28:07.999Z</time></trkpt><trkpt lat="40.74102877537024" lon="14.746136457109795"><ele>565.0</ele><time>2026-04-25T08:28:22.999Z</time></trkpt><trkpt lat="40.741085284407006" lon="14.746220866612306"><ele>561.1666666666667</ele><time>2026-04-25T08:28:25.999Z</time></trkpt><trkpt lat="40.741140932629484" lon="14.746299496044847"><ele>557.3333333333334</ele><time>2026-04-25T08:28:29.001Z</time></trkpt><trkpt lat="40.741178346689686" lon="14.746387174171506"><ele>553.5</ele><time>2026-04-25T08:28:31.001Z</time></trkpt><trkpt lat="40.74119648518727" lon="14.746501014255452"><ele>549.6666666666666</ele><time>2026-04-25T08:28:34.001Z</time></trkpt><trkpt lat="40.74121342399087" lon="14.746607995801073"><ele>545.8333333333333</ele><time>2026-04-25T08:28:36.001Z</time></trkpt><trkpt lat="40.741236319653865" lon="14.746711321022403"><ele>542.0</ele><time>2026-04-25T08:28:38.001Z</time></trkpt><trkpt lat="40.741275142041715" lon="14.746807409236002"><ele>536.8333333333333</ele><time>2026-04-25T08:28:40.001Z</time></trkpt><trkpt lat="40.74131485841475" lon="14.746910740916968"><ele>531.6666666666666</ele><time>2026-04-25T08:28:43.001Z</time></trkpt><trkpt lat="40.74136927956513" lon="14.74699202951519"><ele>526.5</ele><time>2026-04-25T08:28:46Z</time></trkpt><trkpt lat="40.74144123028159" lon="14.747010276024916"><ele>521.3333333333334</ele><time>2026-04-25T08:28:49Z</time></trkpt><trkpt lat="40.74151132034776" lon="14.747067057369847"><ele>516.1666666666667</ele><time>2026-04-25T08:28:52Z</time></trkpt><trkpt lat="40.74156809246522" lon="14.747110757968438"><ele>511.0</ele><time>2026-04-25T08:28:57Z</time></trkpt><trkpt lat="40.74164625436863" lon="14.747121969930745"><ele>511.00000000000006</ele><time>2026-04-25T08:28:59Z</time></trkpt><trkpt lat="40.74171156129971" lon="14.74709970785619"><ele>511.0</ele><time>2026-04-25T08:29:01Z</time></trkpt><trkpt lat="40.741773988970564" lon="14.74705967148481"><ele>511.0</ele><time>2026-04-25T08:29:03Z</time></trkpt><trkpt lat="40.741833291585216" lon="14.747024776753578"><ele>511.0</ele><time>2026-04-25T08:29:05Z</time></trkpt><trkpt lat="40.74189723925714" lon="14.747052137608167"><ele>511.00000000000006</ele><time>2026-04-25T08:29:07Z</time></trkpt><trkpt lat="40.74196975847854" lon="14.747122872219027"><ele>511.0</ele><time>2026-04-25T08:29:09Z</time></trkpt><trkpt lat="40.74207224770844" lon="14.74718426993437"><ele>509.50000000000006</ele><time>2026-04-25T08:29:11Z</time></trkpt><trkpt lat="40.74216030117144" lon="14.747185796964057"><ele>508.0</ele><time>2026-04-25T08:29:13Z</time></trkpt><trkpt lat="40.742248927859315" lon="14.74717916205765"><ele>506.5</ele><time>2026-04-25T08:29:15Z</time></trkpt><trkpt lat="40.742320285420384" lon="14.747173383529361"><ele>505.0</ele><time>2026-04-25T08:29:17Z</time></trkpt><trkpt lat="40.74240783414103" lon="14.747245793381126"><ele>503.50000000000006</ele><time>2026-04-25T08:29:19Z</time></trkpt><trkpt lat="40.74247970970386" lon="14.747313602660757"><ele>502.0</ele><time>2026-04-25T08:29:21Z</time></trkpt><trkpt lat="40.74256088543427" lon="14.747340355526488"><ele>502.0</ele><time>2026-04-25T08:29:23Z</time></trkpt><trkpt lat="40.74264340110632" lon="14.747338731638909"><ele>502.00000000000006</ele><time>2026-04-25T08:29:25Z</time></trkpt><trkpt lat="40.742716812419395" lon="14.747448335094889"><ele>502.00000000000006</ele><time>2026-04-25T08:29:29Z</time></trkpt><trkpt lat="40.74278194577546" lon="14.747598608722619"><ele>502.0</ele><time>2026-04-25T08:29:32Z</time></trkpt><trkpt lat="40.742826159152855" lon="14.747683314941629"><ele>502.0</ele><time>2026-04-25T08:29:34Z</time></trkpt><trkpt lat="40.742890971623574" lon="14.747768465963356"><ele>499.00000000000006</ele><time>2026-04-25T08:29:36Z</time></trkpt><trkpt lat="40.742933293554806" lon="14.747843593684255"><ele>496.0</ele><time>2026-04-25T08:29:38Z</time></trkpt><trkpt lat="40.74298426524239" lon="14.747934089375768"><ele>493.0</ele><time>2026-04-25T08:29:40Z</time></trkpt><trkpt lat="40.743039621536404" lon="14.748049066147225"><ele>490.0</ele><time>2026-04-25T08:29:42Z</time></trkpt><trkpt lat="40.74308277395207" lon="14.748155973213334"><ele>487.00000000000006</ele><time>2026-04-25T08:29:44Z</time></trkpt><trkpt lat="40.74311239497709" lon="14.748233385425726"><ele>484.0</ele><time>2026-04-25T08:29:45Z</time></trkpt><trkpt lat="40.743128087011414" lon="14.74837479706631"><ele>484.0</ele><time>2026-04-25T08:29:47Z</time></trkpt><trkpt lat="40.743156937044276" lon="14.748480556222864"><ele>484.0</ele><time>2026-04-25T08:29:50Z</time></trkpt><trkpt lat="40.743276307824665" lon="14.748538957505131"><ele>484.0</ele><time>2026-04-25T08:29:52Z</time></trkpt><trkpt lat="40.743379587311914" lon="14.74855832210143"><ele>484.0</ele><time>2026-04-25T08:29:54Z</time></trkpt><trkpt lat="40.743446596522304" lon="14.748497042512131"><ele>484.0</ele><time>2026-04-25T08:29:55.999Z</time></trkpt><trkpt lat="40.743472721693536" lon="14.748405940130672"><ele>484.0</ele><time>2026-04-25T08:29:57.999Z</time></trkpt><trkpt lat="40.74350375833429" lon="14.748328445852374"><ele>484.0</ele><time>2026-04-25T08:30:00.999Z</time></trkpt><trkpt lat="40.74357326232486" lon="14.748275022745423"><ele>484.0</ele><time>2026-04-25T08:30:04.999Z</time></trkpt><trkpt lat="40.74362338442025" lon="14.748335478907945"><ele>484.0</ele><time>2026-04-25T08:30:06.999Z</time></trkpt><trkpt lat="40.743667433038446" lon="14.748419906829017"><ele>484.0</ele><time>2026-04-25T08:30:08.999Z</time></trkpt><trkpt lat="40.74380323316557" lon="14.748548531150293"><ele>486.2</ele><time>2026-04-25T08:30:10.999Z</time></trkpt><trkpt lat="40.74384765050482" lon="14.748652451488727"><ele>488.4</ele><time>2026-04-25T08:30:12.999Z</time></trkpt><trkpt lat="40.74389632110277" lon="14.748750320338994"><ele>490.6</ele><time>2026-04-25T08:30:14.999Z</time></trkpt><trkpt lat="40.74390495580248" lon="14.7488653238497"><ele>492.8</ele><time>2026-04-25T08:30:16.999Z</time></trkpt><trkpt lat="40.74386315013878" lon="14.748962535216789"><ele>495.0</ele><time>2026-04-25T08:30:18.999Z</time></trkpt><trkpt lat="40.743771382997345" lon="14.749021298819844"><ele>495.0</ele><time>2026-04-25T08:30:20.999Z</time></trkpt><trkpt lat="40.74372080498426" lon="14.74908915377021"><ele>495.0</ele><time>2026-04-25T08:30:22.999Z</time></trkpt><trkpt lat="40.743677918171635" lon="14.74917191213409"><ele>495.0</ele><time>2026-04-25T08:30:24.999Z</time></trkpt><trkpt lat="40.743622419650386" lon="14.749265139354756"><ele>495.0</ele><time>2026-04-25T08:30:26.999Z</time></trkpt><trkpt lat="40.74355135405435" lon="14.749345137800592"><ele>495.0</ele><time>2026-04-25T08:30:28.999Z</time></trkpt><trkpt lat="40.74348928135078" lon="14.749426211162321"><ele>495.0</ele><time>2026-04-25T08:30:30.999Z</time></trkpt><trkpt lat="40.74344793241091" lon="14.749531034285678"><ele>488.8</ele><time>2026-04-25T08:30:35Z</time></trkpt><trkpt lat="40.743369361969215" lon="14.749607205053817"><ele>482.6</ele><time>2026-04-25T08:30:38Z</time></trkpt><trkpt lat="40.743294093251514" lon="14.749699179340297"><ele>476.4</ele><time>2026-04-25T08:30:41Z</time></trkpt><trkpt lat="40.743211182049855" lon="14.749788469220578"><ele>470.2</ele><time>2026-04-25T08:30:44Z</time></trkpt><trkpt lat="40.74315485377142" lon="14.749861301647723"><ele>464.0</ele><time>2026-04-25T08:30:45Z</time></trkpt><trkpt lat="40.74308159288141" lon="14.74988653631294"><ele>463.99999999999994</ele><time>2026-04-25T08:30:47Z</time></trkpt><trkpt lat="40.74300908027195" lon="14.7499301527113"><ele>464.0</ele><time>2026-04-25T08:30:50Z</time></trkpt><trkpt lat="40.74291423660079" lon="14.750004366281111"><ele>464.0</ele><time>2026-04-25T08:30:53Z</time></trkpt><trkpt lat="40.74282873708461" lon="14.750068484515484"><ele>464.0</ele><time>2026-04-25T08:30:55Z</time></trkpt><trkpt lat="40.742761186446124" lon="14.750109932754771"><ele>463.99999999999994</ele><time>2026-04-25T08:30:57Z</time></trkpt><trkpt lat="40.74269419695946" lon="14.750161254269141"><ele>464.0</ele><time>2026-04-25T08:31:00Z</time></trkpt><trkpt lat="40.74262331233187" lon="14.750206356020085"><ele>457.79999999999995</ele><time>2026-04-25T08:31:02Z</time></trkpt><trkpt lat="40.74249081864942" lon="14.750305022362015"><ele>451.59999999999997</ele><time>2026-04-25T08:31:04Z</time></trkpt><trkpt lat="40.74242611241838" lon="14.750391617654392"><ele>445.4</ele><time>2026-04-25T08:31:07Z</time></trkpt><trkpt lat="40.74236020589219" lon="14.750365281328943"><ele>439.2</ele><time>2026-04-25T08:31:10Z</time></trkpt><trkpt lat="40.74240718071005" lon="14.750266229917054"><ele>433.0</ele><time>2026-04-25T08:31:13Z</time></trkpt><trkpt lat="40.742466667837036" lon="14.750184200729857"><ele>430.85714285714283</ele><time>2026-04-25T08:31:15Z</time></trkpt><trkpt lat="40.74250711434997" lon="14.750112649697412"><ele>428.7142857142857</ele><time>2026-04-25T08:31:17Z</time></trkpt><trkpt lat="40.74254722376935" lon="14.750035176928964"><ele>426.57142857142856</ele><time>2026-04-25T08:31:19Z</time></trkpt><trkpt lat="40.742547806011714" lon="14.749942189636684"><ele>424.42857142857144</ele><time>2026-04-25T08:31:23Z</time></trkpt><trkpt lat="40.742475128413425" lon="14.749916463485361"><ele>422.2857142857143</ele><time>2026-04-25T08:31:27Z</time></trkpt><trkpt lat="40.74240430636436" lon="14.749913185104875"><ele>420.1428571428571</ele><time>2026-04-25T08:31:30Z</time></trkpt><trkpt lat="40.74232733788199" lon="14.749919608863843"><ele>418.0</ele><time>2026-04-25T08:31:33Z</time></trkpt><trkpt lat="40.74224966058781" lon="14.7498835541596"><ele>418.00000000000006</ele><time>2026-04-25T08:31:36Z</time></trkpt><trkpt lat="40.74220781796808" lon="14.749782946107622"><ele>418.0</ele><time>2026-04-25T08:31:39Z</time></trkpt><trkpt lat="40.7421458513641" lon="14.74980305615473"><ele>418.0</ele><time>2026-04-25T08:31:42Z</time></trkpt><trkpt lat="40.74211601602883" lon="14.749876262931178"><ele>418.0</ele><time>2026-04-25T08:31:45Z</time></trkpt><trkpt lat="40.74207859156405" lon="14.749988238423493"><ele>418.00000000000006</ele><time>2026-04-25T08:31:47Z</time></trkpt><trkpt lat="40.74201820447488" lon="14.750099279223035"><ele>418.0</ele><time>2026-04-25T08:31:50Z</time></trkpt><trkpt lat="40.741931586474465" lon="14.750209634368519"><ele>413.83333333333337</ele><time>2026-04-25T08:31:52Z</time></trkpt><trkpt lat="40.74183328439018" lon="14.750267015180617"><ele>409.6666666666667</ele><time>2026-04-25T08:31:54Z</time></trkpt><trkpt lat="40.7417472450394" lon="14.750273407703537"><ele>405.5</ele><time>2026-04-25T08:31:56Z</time></trkpt><trkpt lat="40.7416735616956" lon="14.750305231970826"><ele>401.33333333333337</ele><time>2026-04-25T08:31:58Z</time></trkpt><trkpt lat="40.741661703778824" lon="14.750390773642438"><ele>397.1666666666667</ele><time>2026-04-25T08:31:59Z</time></trkpt><trkpt lat="40.74160615310554" lon="14.750513801546745"><ele>393.0</ele><time>2026-04-25T08:32:00.999Z</time></trkpt><trkpt lat="40.74152489397401" lon="14.750580479344835"><ele>393.0</ele><time>2026-04-25T08:32:02.999Z</time></trkpt><trkpt lat="40.7414719902173" lon="14.750640044467822"><ele>393.0</ele><time>2026-04-25T08:32:04.999Z</time></trkpt><trkpt lat="40.741421624277756" lon="14.750721508117646"><ele>393.0</ele><time>2026-04-25T08:32:06.999Z</time></trkpt><trkpt lat="40.74138752376673" lon="14.750831623895337"><ele>393.0</ele><time>2026-04-25T08:32:08.999Z</time></trkpt><trkpt lat="40.74134580574731" lon="14.750930754431469"><ele>393.0</ele><time>2026-04-25T08:32:11.999Z</time></trkpt><trkpt lat="40.7412977852399" lon="14.75104510471875"><ele>393.0</ele><time>2026-04-25T08:32:14.999Z</time></trkpt><trkpt lat="40.74127017084837" lon="14.751129693802763"><ele>393.6666666666667</ele><time>2026-04-25T08:32:16.999Z</time></trkpt><trkpt lat="40.74122317030614" lon="14.75122712568727"><ele>394.33333333333337</ele><time>2026-04-25T08:32:18.999Z</time></trkpt><trkpt lat="40.7411755649387" lon="14.751325468778939"><ele>395.0</ele><time>2026-04-25T08:32:21.999Z</time></trkpt><trkpt lat="40.74112124517964" lon="14.751381509846883"><ele>395.6666666666667</ele><time>2026-04-25T08:32:23.999Z</time></trkpt><trkpt lat="40.74115346477021" lon="14.751464933251807"><ele>396.33333333333337</ele><time>2026-04-25T08:32:26.999Z</time></trkpt><trkpt lat="40.741260108730096" lon="14.75142150744191"><ele>397.0</ele><time>2026-04-25T08:32:31.999Z</time></trkpt><trkpt lat="40.741159003074706" lon="14.751606366265177"><ele>397.0</ele><time>2026-04-25T08:32:35.999Z</time></trkpt><trkpt lat="40.74108720520089" lon="14.751728115184166"><ele>397.0</ele><time>2026-04-25T08:32:37.999Z</time></trkpt><trkpt lat="40.74104795210911" lon="14.75185315208071"><ele>397.0</ele><time>2026-04-25T08:32:39.999Z</time></trkpt><trkpt lat="40.740996473877956" lon="14.751944922871306"><ele>397.0</ele><time>2026-04-25T08:32:42Z</time></trkpt><trkpt lat="40.740916809901" lon="14.752048389210264"><ele>397.0</ele><time>2026-04-25T08:32:44Z</time></trkpt><trkpt lat="40.74081125282132" lon="14.752134706390045"><ele>390.00000000000006</ele><time>2026-04-25T08:32:46Z</time></trkpt><trkpt lat="40.74072086469497" lon="14.752237115097511"><ele>383.0</ele><time>2026-04-25T08:32:48Z</time></trkpt><trkpt lat="40.74061804119322" lon="14.75227111064227"><ele>376.0</ele><time>2026-04-25T08:32:50Z</time></trkpt><trkpt lat="40.74054805151107" lon="14.752294433178228"><ele>369.0</ele><time>2026-04-25T08:32:53Z</time></trkpt><trkpt lat="40.74048233248465" lon="14.752330593462185"><ele>362.0</ele><time>2026-04-25T08:32:54Z</time></trkpt><trkpt lat="40.74043150849923" lon="14.752399532878837"><ele>355.0</ele><time>2026-04-25T08:32:56Z</time></trkpt><trkpt lat="40.74040367312787" lon="14.752498497486807"><ele>355.0</ele><time>2026-04-25T08:32:59Z</time></trkpt><trkpt lat="40.74038112606913" lon="14.75258135424152"><ele>355.0</ele><time>2026-04-25T08:33:01Z</time></trkpt><trkpt lat="40.74039677844922" lon="14.752675097180214"><ele>355.0</ele><time>2026-04-25T08:33:04Z</time></trkpt><trkpt lat="40.74044463234893" lon="14.752741126645738"><ele>355.0</ele><time>2026-04-25T08:33:06Z</time></trkpt><trkpt lat="40.740468875755305" lon="14.752852930213844"><ele>355.0</ele><time>2026-04-25T08:33:09Z</time></trkpt><trkpt lat="40.740468770352486" lon="14.752948372849703"><ele>355.0</ele><time>2026-04-25T08:33:11Z</time></trkpt><trkpt lat="40.74045419795174" lon="14.753041881523846"><ele>355.0</ele><time>2026-04-25T08:33:13Z</time></trkpt><trkpt lat="40.74040018703259" lon="14.753122335859487"><ele>354.2</ele><time>2026-04-25T08:33:15Z</time></trkpt><trkpt lat="40.74031163424439" lon="14.753314632380004"><ele>353.4</ele><time>2026-04-25T08:33:16Z</time></trkpt><trkpt lat="40.74023327541696" lon="14.753381865091537"><ele>352.6</ele><time>2026-04-25T08:33:18Z</time></trkpt><trkpt lat="40.740170857656715" lon="14.753451466081042"><ele>351.8</ele><time>2026-04-25T08:33:20Z</time></trkpt><trkpt lat="40.74011655709758" lon="14.753562644321397"><ele>351.0</ele><time>2026-04-25T08:33:22Z</time></trkpt><trkpt lat="40.74008288836509" lon="14.753671294280924"><ele>344.1666666666667</ele><time>2026-04-25T08:33:24Z</time></trkpt><trkpt lat="40.740044565846446" lon="14.753752234950252"><ele>337.3333333333333</ele><time>2026-04-25T08:33:26Z</time></trkpt><trkpt lat="40.7400196031373" lon="14.753845715010932"><ele>330.5</ele><time>2026-04-25T08:33:28Z</time></trkpt><trkpt lat="40.739972190418136" lon="14.753935418345643"><ele>323.66666666666663</ele><time>2026-04-25T08:33:30Z</time></trkpt><trkpt lat="40.73993245309974" lon="14.754002241294698"><ele>316.8333333333333</ele><time>2026-04-25T08:33:32Z</time></trkpt><trkpt lat="40.73986817076715" lon="14.754077232494396"><ele>310.0</ele><time>2026-04-25T08:33:34Z</time></trkpt><trkpt lat="40.739802411949086" lon="14.754179657986416"><ele>310.0</ele><time>2026-04-25T08:33:36Z</time></trkpt><trkpt lat="40.73974950532664" lon="14.754253353080466"><ele>310.0</ele><time>2026-04-25T08:33:38Z</time></trkpt><trkpt lat="40.73965359082263" lon="14.75427680605129"><ele>310.0</ele><time>2026-04-25T08:33:42Z</time></trkpt><trkpt lat="40.73958138679055" lon="14.754277484359255"><ele>310.0</ele><time>2026-04-25T08:33:45Z</time></trkpt><trkpt lat="40.739576339338775" lon="14.754386399816"><ele>310.0</ele><time>2026-04-25T08:33:48Z</time></trkpt><trkpt lat="40.73945124656842" lon="14.754494502260957"><ele>309.6</ele><time>2026-04-25T08:33:49Z</time></trkpt><trkpt lat="40.739422410870866" lon="14.754583561264276"><ele>309.2</ele><time>2026-04-25T08:33:50Z</time></trkpt><trkpt lat="40.73937993075813" lon="14.754687385369946"><ele>308.8</ele><time>2026-04-25T08:33:51Z</time></trkpt><trkpt lat="40.73933349654298" lon="14.754820944840159"><ele>308.4</ele><time>2026-04-25T08:33:52Z</time></trkpt><trkpt lat="40.73929148132887" lon="14.754930707795847"><ele>308.0</ele><time>2026-04-25T08:33:53Z</time></trkpt><trkpt lat="40.73924962564104" lon="14.755032260799785"><ele>303.83333333333337</ele><time>2026-04-25T08:33:54Z</time></trkpt><trkpt lat="40.739208725728346" lon="14.755156824311216"><ele>299.6666666666667</ele><time>2026-04-25T08:33:55Z</time></trkpt><trkpt lat="40.739180662311156" lon="14.755259790829834"><ele>295.5</ele><time>2026-04-25T08:33:57Z</time></trkpt><trkpt lat="40.739116756418696" lon="14.755302095760078"><ele>291.3333333333333</ele><time>2026-04-25T08:33:59Z</time></trkpt><trkpt lat="40.73914086082111" lon="14.75539025002615"><ele>287.16666666666663</ele><time>2026-04-25T08:34:21.999Z</time></trkpt><trkpt lat="40.73908421480539" lon="14.755463157818726"><ele>283.0</ele><time>2026-04-25T08:34:23.999Z</time></trkpt><trkpt lat="40.739036928090925" lon="14.755605226753469"><ele>282.16666666666663</ele><time>2026-04-25T08:34:25.999Z</time></trkpt><trkpt lat="40.73901164624322" lon="14.755693928857477"><ele>281.3333333333333</ele><time>2026-04-25T08:34:26.999Z</time></trkpt><trkpt lat="40.7389471668765" lon="14.755759324669485"><ele>280.5</ele><time>2026-04-25T08:34:27.999Z</time></trkpt><trkpt lat="40.73895940574593" lon="14.755864425116194"><ele>279.6666666666667</ele><time>2026-04-25T08:34:28.999Z</time></trkpt><trkpt lat="40.73892579786793" lon="14.755945939310212"><ele>278.83333333333337</ele><time>2026-04-25T08:34:29.999Z</time></trkpt><trkpt lat="40.73889095859915" lon="14.756045172130145"><ele>278.0</ele><time>2026-04-25T08:34:30.999Z</time></trkpt><trkpt lat="40.738833996836895" lon="14.756142483624664"><ele>276.33333333333337</ele><time>2026-04-25T08:34:31.999Z</time></trkpt><trkpt lat="40.73877956209081" lon="14.756237887223104"><ele>274.6666666666667</ele><time>2026-04-25T08:34:32.999Z</time></trkpt><trkpt lat="40.738736368013996" lon="14.756317753483502"><ele>273.0</ele><time>2026-04-25T08:34:33.999Z</time></trkpt><trkpt lat="40.738734860194505" lon="14.75641155221193"><ele>271.3333333333333</ele><time>2026-04-25T08:34:34.999Z</time></trkpt><trkpt lat="40.738745959416605" lon="14.756532159408826"><ele>269.66666666666663</ele><time>2026-04-25T08:34:36.999Z</time></trkpt><trkpt lat="40.73877910407052" lon="14.756603671308484"><ele>268.0</ele><time>2026-04-25T08:34:37.999Z</time></trkpt><trkpt lat="40.73882652694359" lon="14.756678697904425"><ele>268.0</ele><time>2026-04-25T08:34:38.999Z</time></trkpt><trkpt lat="40.73888179047697" lon="14.756820030178721"><ele>268.0</ele><time>2026-04-25T08:34:40.999Z</time></trkpt><trkpt lat="40.7389204476701" lon="14.756892334597996"><ele>268.0</ele><time>2026-04-25T08:34:41.999Z</time></trkpt><trkpt lat="40.73897155810803" lon="14.756958755161927"><ele>268.0</ele><time>2026-04-25T08:34:42.999Z</time></trkpt><trkpt lat="40.739016125060225" lon="14.75702235103561"><ele>268.0</ele><time>2026-04-25T08:34:43.999Z</time></trkpt><trkpt lat="40.73906036697903" lon="14.75708263230613"><ele>268.0</ele><time>2026-04-25T08:34:44.999Z</time></trkpt><trkpt lat="40.73911359143504" lon="14.757131436632074"><ele>267.0</ele><time>2026-04-25T08:34:45.999Z</time></trkpt><trkpt lat="40.73917464369837" lon="14.757176886231962"><ele>266.0</ele><time>2026-04-25T08:34:47Z</time></trkpt><trkpt lat="40.73925367057492" lon="14.757222816246621"><ele>265.0</ele><time>2026-04-25T08:34:48Z</time></trkpt><trkpt lat="40.73934888208077" lon="14.75727003054815"><ele>264.0</ele><time>2026-04-25T08:34:49Z</time></trkpt><trkpt lat="40.73942804358285" lon="14.757304952185468"><ele>263.0</ele><time>2026-04-25T08:34:50Z</time></trkpt><trkpt lat="40.739494718770494" lon="14.757356931015009"><ele>262.0</ele><time>2026-04-25T08:34:51Z</time></trkpt><trkpt lat="40.73955999883974" lon="14.757449798316332"><ele>262.0</ele><time>2026-04-25T08:34:52Z</time></trkpt><trkpt lat="40.739611286135926" lon="14.757559151763127"><ele>262.0</ele><time>2026-04-25T08:34:53Z</time></trkpt><trkpt lat="40.73965785789642" lon="14.757663330301675"><ele>262.0</ele><time>2026-04-25T08:34:54Z</time></trkpt><trkpt lat="40.73971007272467" lon="14.757745894011364"><ele>262.0</ele><time>2026-04-25T08:34:55Z</time></trkpt><trkpt lat="40.73977882531391" lon="14.757818516789614"><ele>262.0</ele><time>2026-04-25T08:34:56Z</time></trkpt><trkpt lat="40.73987175388984" lon="14.7578781512924"><ele>261.4</ele><time>2026-04-25T08:34:57Z</time></trkpt><trkpt lat="40.7399733431583" lon="14.757929740132653"><ele>260.79999999999995</ele><time>2026-04-25T08:34:58Z</time></trkpt><trkpt lat="40.74006359911706" lon="14.757968504115865"><ele>260.2</ele><time>2026-04-25T08:34:59Z</time></trkpt><trkpt lat="40.74014223824327" lon="14.758022158580262"><ele>259.59999999999997</ele><time>2026-04-25T08:35:00Z</time></trkpt><trkpt lat="40.74021585248073" lon="14.758077023112616"><ele>259.0</ele><time>2026-04-25T08:35:01Z</time></trkpt><trkpt lat="40.740280226979024" lon="14.75813231518142"><ele>259.0</ele><time>2026-04-25T08:35:02Z</time></trkpt><trkpt lat="40.74034312200708" lon="14.758223926806819"><ele>259.0</ele><time>2026-04-25T08:35:03Z</time></trkpt><trkpt lat="40.740412980489246" lon="14.75833975781076"><ele>259.0</ele><time>2026-04-25T08:35:04Z</time></trkpt><trkpt lat="40.740473009667895" lon="14.75844051731026"><ele>259.0</ele><time>2026-04-25T08:35:05Z</time></trkpt><trkpt lat="40.74053330377655" lon="14.758529561682021"><ele>259.0</ele><time>2026-04-25T08:35:06Z</time></trkpt><trkpt lat="40.740587656736025" lon="14.758622161738856"><ele>257.59999999999997</ele><time>2026-04-25T08:35:07Z</time></trkpt><trkpt lat="40.74065237855605" lon="14.758721767611272"><ele>256.2</ele><time>2026-04-25T08:35:08Z</time></trkpt><trkpt lat="40.74074034072813" lon="14.758835495691272"><ele>254.79999999999998</ele><time>2026-04-25T08:35:09Z</time></trkpt><trkpt lat="40.74082315778382" lon="14.75893889006695"><ele>253.39999999999998</ele><time>2026-04-25T08:35:10Z</time></trkpt><trkpt lat="40.740897088585704" lon="14.759032063090011"><ele>252.0</ele><time>2026-04-25T08:35:11Z</time></trkpt><trkpt lat="40.740961677726126" lon="14.759115392604556"><ele>252.0</ele><time>2026-04-25T08:35:12Z</time></trkpt><trkpt lat="40.74101815303126" lon="14.75919093133196"><ele>252.0</ele><time>2026-04-25T08:35:13Z</time></trkpt><trkpt lat="40.741066384805336" lon="14.759289880255915"><ele>252.0</ele><time>2026-04-25T08:35:14Z</time></trkpt><trkpt lat="40.7411135398176" lon="14.759404530340198"><ele>252.0</ele><time>2026-04-25T08:35:15Z</time></trkpt><trkpt lat="40.741151420065236" lon="14.75953663702487"><ele>252.0</ele><time>2026-04-25T08:35:16Z</time></trkpt><trkpt lat="40.74118926288663" lon="14.759675414803455"><ele>250.6</ele><time>2026-04-25T08:35:17Z</time></trkpt><trkpt lat="40.741227095384545" lon="14.7598033489989"><ele>249.2</ele><time>2026-04-25T08:35:18Z</time></trkpt><trkpt lat="40.7412575660238" lon="14.759926138077603"><ele>247.8</ele><time>2026-04-25T08:35:19Z</time></trkpt><trkpt lat="40.741280428182066" lon="14.760053551442358"><ele>246.4</ele><time>2026-04-25T08:35:20Z</time></trkpt><trkpt lat="40.74130429524013" lon="14.760183068796053"><ele>245.0</ele><time>2026-04-25T08:35:21Z</time></trkpt><trkpt lat="40.741316584716905" lon="14.760317127509813"><ele>243.4</ele><time>2026-04-25T08:35:22Z</time></trkpt><trkpt lat="40.74129460182015" lon="14.760453971927332"><ele>241.8</ele><time>2026-04-25T08:35:23Z</time></trkpt><trkpt lat="40.74127723158317" lon="14.760591134714762"><ele>240.2</ele><time>2026-04-25T08:35:24Z</time></trkpt><trkpt lat="40.741263947378044" lon="14.760727120041643"><ele>238.6</ele><time>2026-04-25T08:35:25Z</time></trkpt><trkpt lat="40.74123976790504" lon="14.760854916082748"><ele>237.0</ele><time>2026-04-25T08:35:26Z</time></trkpt><trkpt lat="40.74121443301737" lon="14.760983327077863"><ele>236.2</ele><time>2026-04-25T08:35:27Z</time></trkpt><trkpt lat="40.741195383471855" lon="14.761121611859414"><ele>235.39999999999998</ele><time>2026-04-25T08:35:28Z</time></trkpt><trkpt lat="40.74117182429926" lon="14.761267952291613"><ele>234.60000000000002</ele><time>2026-04-25T08:35:29Z</time></trkpt><trkpt lat="40.74117645086247" lon="14.761406788975997"><ele>233.8</ele><time>2026-04-25T08:35:30Z</time></trkpt><trkpt lat="40.7412269789713" lon="14.76152739489786"><ele>233.0</ele><time>2026-04-25T08:35:31Z</time></trkpt><trkpt lat="40.74122490758564" lon="14.761645676932819"><ele>233.0</ele><time>2026-04-25T08:35:32Z</time></trkpt><trkpt lat="40.74117211333771" lon="14.761756129568397"><ele>233.0</ele><time>2026-04-25T08:35:33Z</time></trkpt><trkpt lat="40.741106397817475" lon="14.761858758820253"><ele>233.0</ele><time>2026-04-25T08:35:34Z</time></trkpt><trkpt lat="40.741059653710465" lon="14.761972029710456"><ele>233.0</ele><time>2026-04-25T08:35:35Z</time></trkpt><trkpt lat="40.74102912795558" lon="14.762083289320218"><ele>233.0</ele><time>2026-04-25T08:35:36Z</time></trkpt><trkpt lat="40.740970192791536" lon="14.762178188222965"><ele>231.60000000000002</ele><time>2026-04-25T08:35:37Z</time></trkpt><trkpt lat="40.74087643974898" lon="14.762223337850992"><ele>230.20000000000002</ele><time>2026-04-25T08:35:38Z</time></trkpt><trkpt lat="40.74080214343031" lon="14.762333741339518"><ele>228.8</ele><time>2026-04-25T08:35:39Z</time></trkpt><trkpt lat="40.740695966926005" lon="14.762426365654916"><ele>227.4</ele><time>2026-04-25T08:35:40Z</time></trkpt><trkpt lat="40.740605641749504" lon="14.762509439419201"><ele>226.0</ele><time>2026-04-25T08:35:41Z</time></trkpt><trkpt lat="40.740516703833485" lon="14.762574848986203"><ele>226.0</ele><time>2026-04-25T08:35:42Z</time></trkpt><trkpt lat="40.74044365805288" lon="14.76264327611376"><ele>226.00000000000003</ele><time>2026-04-25T08:35:43Z</time></trkpt><trkpt lat="40.740404772396516" lon="14.762740234487252"><ele>226.00000000000003</ele><time>2026-04-25T08:35:44Z</time></trkpt><trkpt lat="40.74036636174771" lon="14.762850756114481"><ele>226.0</ele><time>2026-04-25T08:35:45Z</time></trkpt><trkpt lat="40.74030656831625" lon="14.762949546167793"><ele>226.0</ele><time>2026-04-25T08:35:46Z</time></trkpt><trkpt lat="40.74027119068746" lon="14.763063185616055"><ele>225.33333333333331</ele><time>2026-04-25T08:35:47Z</time></trkpt><trkpt lat="40.740244664295446" lon="14.763171687215138"><ele>224.66666666666666</ele><time>2026-04-25T08:35:48Z</time></trkpt><trkpt lat="40.740227660978654" lon="14.76328946404739"><ele>224.0</ele><time>2026-04-25T08:35:49Z</time></trkpt><trkpt lat="40.740207953510755" lon="14.763407941676428"><ele>223.33333333333331</ele><time>2026-04-25T08:35:50Z</time></trkpt><trkpt lat="40.7402071628515" lon="14.763532549125378"><ele>222.66666666666666</ele><time>2026-04-25T08:35:51Z</time></trkpt><trkpt lat="40.7401852844709" lon="14.763638994710469"><ele>222.0</ele><time>2026-04-25T08:35:52Z</time></trkpt><trkpt lat="40.74016620411687" lon="14.763749958870859"><ele>220.85714285714286</ele><time>2026-04-25T08:35:53Z</time></trkpt><trkpt lat="40.740142003165055" lon="14.763849245209412"><ele>219.71428571428572</ele><time>2026-04-25T08:35:54Z</time></trkpt><trkpt lat="40.74011344546707" lon="14.763940493159854"><ele>218.57142857142858</ele><time>2026-04-25T08:35:55Z</time></trkpt><trkpt lat="40.7400893712493" lon="14.7640194122592"><ele>217.42857142857144</ele><time>2026-04-25T08:35:56Z</time></trkpt><trkpt lat="40.740063422176156" lon="14.764107627937772"><ele>216.28571428571428</ele><time>2026-04-25T08:35:59Z</time></trkpt><trkpt lat="40.740059373209" lon="14.764193456068117"><ele>215.14285714285717</ele><time>2026-04-25T08:36:02Z</time></trkpt><trkpt lat="40.740098464349636" lon="14.764266069055058"><ele>214.0</ele><time>2026-04-25T08:36:04Z</time></trkpt><trkpt lat="40.740164760340846" lon="14.764327235744595"><ele>213.33333333333331</ele><time>2026-04-25T08:36:05Z</time></trkpt><trkpt lat="40.7402310748642" lon="14.764395838473318"><ele>212.66666666666666</ele><time>2026-04-25T08:36:06Z</time></trkpt><trkpt lat="40.74029083112921" lon="14.76443843273416"><ele>212.0</ele><time>2026-04-25T08:36:07Z</time></trkpt><trkpt lat="40.740365691956754" lon="14.764468771537654"><ele>211.33333333333331</ele><time>2026-04-25T08:36:07.999Z</time></trkpt><trkpt lat="40.74043803643381" lon="14.764507975076537"><ele>210.66666666666666</ele><time>2026-04-25T08:36:08.999Z</time></trkpt><trkpt lat="40.740545598716025" lon="14.764564463809437"><ele>210.0</ele><time>2026-04-25T08:36:10.999Z</time></trkpt><trkpt lat="40.740672703254695" lon="14.764614442026216"><ele>210.0</ele><time>2026-04-25T08:36:12.999Z</time></trkpt><trkpt lat="40.74076403517847" lon="14.76464508629243"><ele>210.0</ele><time>2026-04-25T08:36:13.999Z</time></trkpt><trkpt lat="40.74085305903389" lon="14.764672741139778"><ele>210.0</ele><time>2026-04-25T08:36:14.999Z</time></trkpt><trkpt lat="40.740947162442524" lon="14.764707312096496"><ele>210.0</ele><time>2026-04-25T08:36:15.999Z</time></trkpt><trkpt lat="40.741035116834695" lon="14.764749920774152"><ele>210.0</ele><time>2026-04-25T08:36:16.999Z</time></trkpt><trkpt lat="40.74111284041501" lon="14.764823459515835"><ele>210.6</ele><time>2026-04-25T08:36:17.999Z</time></trkpt><trkpt lat="40.74119209792723" lon="14.764914941518557"><ele>211.2</ele><time>2026-04-25T08:36:18.999Z</time></trkpt><trkpt lat="40.74124034427122" lon="14.765046306424376"><ele>211.8</ele><time>2026-04-25T08:36:19.999Z</time></trkpt><trkpt lat="40.74128693976954" lon="14.765137951014555"><ele>212.4</ele><time>2026-04-25T08:36:20.999Z</time></trkpt><trkpt lat="40.741329476113556" lon="14.76522341364911"><ele>213.0</ele><time>2026-04-25T08:36:21.999Z</time></trkpt><trkpt lat="40.74136702220465" lon="14.765307822597915"><ele>211.83333333333334</ele><time>2026-04-25T08:36:22.999Z</time></trkpt><trkpt lat="40.74140682757311" lon="14.765385598909502"><ele>210.66666666666669</ele><time>2026-04-25T08:36:23.999Z</time></trkpt><trkpt lat="40.741444564502125" lon="14.765459251068743"><ele>209.5</ele><time>2026-04-25T08:36:24.999Z</time></trkpt><trkpt lat="40.741509329069245" lon="14.76558369154328"><ele>208.33333333333334</ele><time>2026-04-25T08:36:26.999Z</time></trkpt><trkpt lat="40.741558733403096" lon="14.765712608540115"><ele>207.16666666666669</ele><time>2026-04-25T08:36:28.999Z</time></trkpt><trkpt lat="40.74158538620219" lon="14.76579640040276"><ele>206.0</ele><time>2026-04-25T08:36:29.999Z</time></trkpt><trkpt lat="40.74163995411278" lon="14.7658531423361"><ele>206.0</ele><time>2026-04-25T08:36:30.999Z</time></trkpt><trkpt lat="40.74171827894955" lon="14.765862463098777"><ele>206.0</ele><time>2026-04-25T08:36:31.999Z</time></trkpt><trkpt lat="40.74180583595496" lon="14.765857330740047"><ele>206.0</ele><time>2026-04-25T08:36:32.999Z</time></trkpt><trkpt lat="40.74190996097949" lon="14.765907672507154"><ele>206.0</ele><time>2026-04-25T08:36:33.999Z</time></trkpt><trkpt lat="40.74202200575621" lon="14.765999663329186"><ele>206.0</ele><time>2026-04-25T08:36:34.999Z</time></trkpt><trkpt lat="40.742126717256596" lon="14.766097286450767"><ele>204.75</ele><time>2026-04-25T08:36:35.999Z</time></trkpt><trkpt lat="40.74222752957062" lon="14.766186328549322"><ele>203.5</ele><time>2026-04-25T08:36:36.999Z</time></trkpt><trkpt lat="40.742320559123755" lon="14.766268146115651"><ele>202.25</ele><time>2026-04-25T08:36:37.999Z</time></trkpt><trkpt lat="40.74241689663139" lon="14.766347276856369"><ele>201.0</ele><time>2026-04-25T08:36:38.999Z</time></trkpt><trkpt lat="40.74251941214927" lon="14.766426843429858"><ele>201.0</ele><time>2026-04-25T08:36:39.999Z</time></trkpt><trkpt lat="40.742620459828885" lon="14.766508219233312"><ele>201.0</ele><time>2026-04-25T08:36:40.999Z</time></trkpt><trkpt lat="40.742713796135945" lon="14.766589480516608"><ele>201.0</ele><time>2026-04-25T08:36:41.999Z</time></trkpt><trkpt lat="40.74280749790031" lon="14.766655647014703"><ele>201.0</ele><time>2026-04-25T08:36:42.999Z</time></trkpt><trkpt lat="40.742899891739604" lon="14.766712935236216"><ele>201.0</ele><time>2026-04-25T08:36:43.999Z</time></trkpt><trkpt lat="40.74299484900489" lon="14.76676436310462"><ele>201.0</ele><time>2026-04-25T08:36:44.999Z</time></trkpt><trkpt lat="40.74309292239949" lon="14.766817488572155"><ele>201.0</ele><time>2026-04-25T08:36:45.999Z</time></trkpt><trkpt lat="40.74318534697703" lon="14.766868074886935"><ele>201.0</ele><time>2026-04-25T08:36:46.999Z</time></trkpt><trkpt lat="40.74327569695857" lon="14.766917077785214"><ele>201.0</ele><time>2026-04-25T08:36:47.999Z</time></trkpt><trkpt lat="40.743374030632424" lon="14.766985283419968"><ele>201.0</ele><time>2026-04-25T08:36:48.999Z</time></trkpt><trkpt lat="40.74345960061259" lon="14.767046540163598"><ele>201.0</ele><time>2026-04-25T08:36:49.999Z</time></trkpt><trkpt lat="40.743530318078164" lon="14.76710229941977"><ele>201.0</ele><time>2026-04-25T08:36:50.999Z</time></trkpt><trkpt lat="40.74361010656916" lon="14.767165497249966"><ele>201.0</ele><time>2026-04-25T08:36:51.999Z</time></trkpt><trkpt lat="40.74369286102822" lon="14.767236108982924"><ele>201.0</ele><time>2026-04-25T08:36:53Z</time></trkpt><trkpt lat="40.74376616734693" lon="14.76730319303836"><ele>201.0</ele><time>2026-04-25T08:36:54Z</time></trkpt><trkpt lat="40.74384662489323" lon="14.767369991541104"><ele>201.0</ele><time>2026-04-25T08:36:55Z</time></trkpt><trkpt lat="40.74393142491027" lon="14.767431789721"><ele>201.0</ele><time>2026-04-25T08:36:56Z</time></trkpt><trkpt lat="40.744013092757925" lon="14.767488943706061"><ele>201.0</ele><time>2026-04-25T08:36:57Z</time></trkpt><trkpt lat="40.74408354194291" lon="14.767529236312523"><ele>201.0</ele><time>2026-04-25T08:36:58Z</time></trkpt><trkpt lat="40.74414071396277" lon="14.767582537270108"><ele>201.0</ele><time>2026-04-25T08:36:59Z</time></trkpt><trkpt lat="40.744210698187324" lon="14.767626911802054"><ele>201.0</ele><time>2026-04-25T08:37:00Z</time></trkpt><trkpt lat="40.744275878527475" lon="14.767669057977871"><ele>200.5</ele><time>2026-04-25T08:37:01Z</time></trkpt><trkpt lat="40.7443511155541" lon="14.767699879369522"><ele>200.0</ele><time>2026-04-25T08:37:02Z</time></trkpt><trkpt lat="40.74443025744447" lon="14.767749939230617"><ele>199.5</ele><time>2026-04-25T08:37:03Z</time></trkpt><trkpt lat="40.74450795562324" lon="14.767794658593399"><ele>199.0</ele><time>2026-04-25T08:37:04Z</time></trkpt><trkpt lat="40.744584901988574" lon="14.767827166676815"><ele>198.5</ele><time>2026-04-25T08:37:05Z</time></trkpt><trkpt lat="40.74466125495818" lon="14.767859752172587"><ele>198.0</ele><time>2026-04-25T08:37:06Z</time></trkpt><trkpt lat="40.74474423846971" lon="14.7678999011872"><ele>198.0</ele><time>2026-04-25T08:37:07Z</time></trkpt><trkpt lat="40.74482891909982" lon="14.767935842820105"><ele>198.0</ele><time>2026-04-25T08:37:08Z</time></trkpt><trkpt lat="40.744901510736234" lon="14.76797226141624"><ele>198.0</ele><time>2026-04-25T08:37:09Z</time></trkpt><trkpt lat="40.744971901336825" lon="14.768002931268917"><ele>198.0</ele><time>2026-04-25T08:37:10Z</time></trkpt><trkpt lat="40.745054451874246" lon="14.768030523218583"><ele>198.0</ele><time>2026-04-25T08:37:11Z</time></trkpt><trkpt lat="40.74514029607198" lon="14.768053926621137"><ele>198.0</ele><time>2026-04-25T08:37:12Z</time></trkpt><trkpt lat="40.74522558731556" lon="14.768081242548353"><ele>198.16666666666666</ele><time>2026-04-25T08:37:13Z</time></trkpt><trkpt lat="40.74530583222" lon="14.768100616223784"><ele>198.33333333333331</ele><time>2026-04-25T08:37:14Z</time></trkpt><trkpt lat="40.74537895842881" lon="14.768129026563376"><ele>198.5</ele><time>2026-04-25T08:37:15Z</time></trkpt><trkpt lat="40.745447765569715" lon="14.768150809568953"><ele>198.66666666666666</ele><time>2026-04-25T08:37:16Z</time></trkpt><trkpt lat="40.74552133598931" lon="14.768177844892344"><ele>198.83333333333331</ele><time>2026-04-25T08:37:17Z</time></trkpt><trkpt lat="40.74559588654139" lon="14.768215742130948"><ele>199.0</ele><time>2026-04-25T08:37:18Z</time></trkpt><trkpt lat="40.74566824265434" lon="14.768269682558572"><ele>198.99999999999997</ele><time>2026-04-25T08:37:19Z</time></trkpt><trkpt lat="40.745728447224614" lon="14.76834167012249"><ele>199.0</ele><time>2026-04-25T08:37:20Z</time></trkpt><trkpt lat="40.74578288236911" lon="14.768413830340743"><ele>199.0</ele><time>2026-04-25T08:37:21Z</time></trkpt><trkpt lat="40.74583010724941" lon="14.768472684664523"><ele>199.0</ele><time>2026-04-25T08:37:22Z</time></trkpt><trkpt lat="40.74590198995795" lon="14.768552798240624"><ele>198.99999999999997</ele><time>2026-04-25T08:37:24Z</time></trkpt><trkpt lat="40.74600675859037" lon="14.768655052448292"><ele>199.0</ele><time>2026-04-25T08:37:26Z</time></trkpt><trkpt lat="40.74607146415875" lon="14.768710436338676"><ele>198.83333333333331</ele><time>2026-04-25T08:37:27Z</time></trkpt><trkpt lat="40.74612641435455" lon="14.768773167771021"><ele>198.66666666666666</ele><time>2026-04-25T08:37:28Z</time></trkpt><trkpt lat="40.74618251491085" lon="14.768815766945254"><ele>198.5</ele><time>2026-04-25T08:37:29Z</time></trkpt><trkpt lat="40.74626222295899" lon="14.768894495689098"><ele>198.33333333333331</ele><time>2026-04-25T08:37:31Z</time></trkpt><trkpt lat="40.746249907003616" lon="14.769025896796308"><ele>198.16666666666666</ele><time>2026-04-25T08:37:32Z</time></trkpt><trkpt lat="40.74624038381112" lon="14.769140328899987"><ele>198.0</ele><time>2026-04-25T08:37:33Z</time></trkpt><trkpt lat="40.74621845855444" lon="14.769272077716488"><ele>197.66666666666666</ele><time>2026-04-25T08:37:34Z</time></trkpt><trkpt lat="40.74620631856494" lon="14.769389637432669"><ele>197.33333333333331</ele><time>2026-04-25T08:37:35Z</time></trkpt><trkpt lat="40.74619691923991" lon="14.769501557542227"><ele>197.0</ele><time>2026-04-25T08:37:36Z</time></trkpt><trkpt lat="40.74619245753583" lon="14.769609037382656"><ele>196.66666666666666</ele><time>2026-04-25T08:37:37Z</time></trkpt><trkpt lat="40.74619350174119" lon="14.769715067554746"><ele>196.33333333333331</ele><time>2026-04-25T08:37:38Z</time></trkpt><trkpt lat="40.7462091702948" lon="14.76981474615995"><ele>196.0</ele><time>2026-04-25T08:37:39Z</time></trkpt><trkpt lat="40.746209958191386" lon="14.769899295945509"><ele>196.0</ele><time>2026-04-25T08:37:40Z</time></trkpt><trkpt lat="40.746196328172395" lon="14.770007702325781"><ele>196.0</ele><time>2026-04-25T08:37:42Z</time></trkpt><trkpt lat="40.74619918621624" lon="14.770112503300526"><ele>196.0</ele><time>2026-04-25T08:37:44Z</time></trkpt><trkpt lat="40.7461894607199" lon="14.770201052398082"><ele>196.0</ele><time>2026-04-25T08:37:47Z</time></trkpt><trkpt lat="40.74617934291304" lon="14.770311480622075"><ele>196.0</ele><time>2026-04-25T08:37:50Z</time></trkpt><trkpt lat="40.74619135761304" lon="14.770399440684573"><ele>196.0</ele><time>2026-04-25T08:37:56Z</time></trkpt><trkpt lat="40.74617357145515" lon="14.77047964791931"><ele>196.0</ele><time>2026-04-25T08:38:01Z</time></trkpt><trkpt lat="40.74605694623571" lon="14.770491061641343"><ele>195.83333333333331</ele><time>2026-04-25T08:38:02Z</time></trkpt><trkpt lat="40.74598996620209" lon="14.770494089690171"><ele>195.66666666666666</ele><time>2026-04-25T08:38:03Z</time></trkpt><trkpt lat="40.74592556941558" lon="14.770502780378667"><ele>195.5</ele><time>2026-04-25T08:38:04Z</time></trkpt><trkpt lat="40.74580673110819" lon="14.77052867183632"><ele>195.33333333333331</ele><time>2026-04-25T08:38:06Z</time></trkpt><trkpt lat="40.74573735536054" lon="14.770542792576766"><ele>195.16666666666666</ele><time>2026-04-25T08:38:07Z</time></trkpt><trkpt lat="40.745667505449035" lon="14.770554178509101"><ele>195.0</ele><time>2026-04-25T08:38:08Z</time></trkpt><trkpt lat="40.74559974845179" lon="14.77057080874541"><ele>195.0</ele><time>2026-04-25T08:38:09Z</time></trkpt><trkpt lat="40.745528311966524" lon="14.77057920356225"><ele>195.0</ele><time>2026-04-25T08:38:10Z</time></trkpt><trkpt lat="40.74545804628026" lon="14.770590530042773"><ele>195.0</ele><time>2026-04-25T08:38:11Z</time></trkpt><trkpt lat="40.745389184727735" lon="14.770607995267811"><ele>195.0</ele><time>2026-04-25T08:38:11.999Z</time></trkpt><trkpt lat="40.74526978643916" lon="14.770629967228437"><ele>195.0</ele><time>2026-04-25T08:38:13.999Z</time></trkpt><trkpt lat="40.74514324856558" lon="14.770658241857173"><ele>194.6</ele><time>2026-04-25T08:38:15.999Z</time></trkpt><trkpt lat="40.74506801055169" lon="14.770680796492144"><ele>194.2</ele><time>2026-04-25T08:38:16.999Z</time></trkpt><trkpt lat="40.744961828041376" lon="14.770683852527782"><ele>193.8</ele><time>2026-04-25T08:38:17.999Z</time></trkpt><trkpt lat="40.74483228229321" lon="14.770729740341391"><ele>193.4</ele><time>2026-04-25T08:38:18.999Z</time></trkpt><trkpt lat="40.744711670621264" lon="14.770739739463242"><ele>193.0</ele><time>2026-04-25T08:38:19.999Z</time></trkpt><trkpt lat="40.74460737037252" lon="14.770753037952646"><ele>193.00000000000003</ele><time>2026-04-25T08:38:20.999Z</time></trkpt><trkpt lat="40.74451394415334" lon="14.770773676245199"><ele>193.0</ele><time>2026-04-25T08:38:21.999Z</time></trkpt><trkpt lat="40.74444607593522" lon="14.77077663053569"><ele>193.0</ele><time>2026-04-25T08:38:22.999Z</time></trkpt><trkpt lat="40.74437643126738" lon="14.770788844914245"><ele>193.0</ele><time>2026-04-25T08:38:25.999Z</time></trkpt><trkpt lat="40.744313371250534" lon="14.770799734316295"><ele>193.0</ele><time>2026-04-25T08:38:27.999Z</time></trkpt><trkpt lat="40.744246782483856" lon="14.770813825423847"><ele>193.00000000000003</ele><time>2026-04-25T08:38:29.999Z</time></trkpt><trkpt lat="40.74418233913027" lon="14.770829135093884"><ele>193.0</ele><time>2026-04-25T08:38:33.999Z</time></trkpt><trkpt lat="40.744128569447554" lon="14.770896168328754"><ele>193.2</ele><time>2026-04-25T08:38:36.999Z</time></trkpt><trkpt lat="40.7441487873062" lon="14.7709928474122"><ele>193.4</ele><time>2026-04-25T08:38:38.999Z</time></trkpt><trkpt lat="40.74419727906061" lon="14.771105414482456"><ele>193.6</ele><time>2026-04-25T08:38:39.999Z</time></trkpt><trkpt lat="40.744233215981566" lon="14.771279372954194"><ele>193.79999999999998</ele><time>2026-04-25T08:38:40.999Z</time></trkpt><trkpt lat="40.74426096964778" lon="14.771455414964157"><ele>194.0</ele><time>2026-04-25T08:38:41.999Z</time></trkpt><trkpt lat="40.74429780064684" lon="14.771601722451674"><ele>192.79999999999998</ele><time>2026-04-25T08:38:42.999Z</time></trkpt><trkpt lat="40.74433026283649" lon="14.771730675327376"><ele>191.6</ele><time>2026-04-25T08:38:43.999Z</time></trkpt><trkpt lat="40.744360808761954" lon="14.77185201479131"><ele>190.4</ele><time>2026-04-25T08:38:44.999Z</time></trkpt><trkpt lat="40.744412154691695" lon="14.771972798034758"><ele>189.2</ele><time>2026-04-25T08:38:45.999Z</time></trkpt><trkpt lat="40.74444509517899" lon="14.772101594331383"><ele>188.0</ele><time>2026-04-25T08:38:46.999Z</time></trkpt><trkpt lat="40.74446022508108" lon="14.772229883482284"><ele>187.5</ele><time>2026-04-25T08:38:47.999Z</time></trkpt><trkpt lat="40.74449047698417" lon="14.772352406762638"><ele>187.0</ele><time>2026-04-25T08:38:48.999Z</time></trkpt><trkpt lat="40.74453701516963" lon="14.772459587210182"><ele>186.5</ele><time>2026-04-25T08:38:49.999Z</time></trkpt><trkpt lat="40.74456098433544" lon="14.772561880849356"><ele>186.0</ele><time>2026-04-25T08:38:50.999Z</time></trkpt><trkpt lat="40.74458419667851" lon="14.772650102355437"><ele>185.5</ele><time>2026-04-25T08:38:51.999Z</time></trkpt><trkpt lat="40.74461747712255" lon="14.772739556197513"><ele>185.0</ele><time>2026-04-25T08:38:52.999Z</time></trkpt><trkpt lat="40.74465181031982" lon="14.772812713360379"><ele>184.6</ele><time>2026-04-25T08:38:53.999Z</time></trkpt><trkpt lat="40.74471250680443" lon="14.77292447623326"><ele>184.2</ele><time>2026-04-25T08:38:55.999Z</time></trkpt><trkpt lat="40.7447748521906" lon="14.773056581981649"><ele>183.8</ele><time>2026-04-25T08:38:57.999Z</time></trkpt><trkpt lat="40.74481611135061" lon="14.77319722009349"><ele>183.4</ele><time>2026-04-25T08:39:00Z</time></trkpt><trkpt lat="40.74480142082187" lon="14.773340241629644"><ele>183.0</ele><time>2026-04-25T08:39:02Z</time></trkpt><trkpt lat="40.744793236255994" lon="14.77345030715339"><ele>183.4</ele><time>2026-04-25T08:39:03Z</time></trkpt><trkpt lat="40.74483138486797" lon="14.773592299875308"><ele>183.8</ele><time>2026-04-25T08:39:05Z</time></trkpt><trkpt lat="40.74494491758771" lon="14.77365486401812"><ele>184.2</ele><time>2026-04-25T08:39:07Z</time></trkpt><trkpt lat="40.745029593355525" lon="14.773646360323186"><ele>184.6</ele><time>2026-04-25T08:39:08Z</time></trkpt><trkpt lat="40.74513356598902" lon="14.773647074855079"><ele>185.0</ele><time>2026-04-25T08:39:09Z</time></trkpt><trkpt lat="40.74523611527429" lon="14.77368434918621"><ele>185.2</ele><time>2026-04-25T08:39:10Z</time></trkpt><trkpt lat="40.74533899884134" lon="14.773740635240143"><ele>185.4</ele><time>2026-04-25T08:39:11Z</time></trkpt><trkpt lat="40.7454497153128" lon="14.77379157688332"><ele>185.60000000000002</ele><time>2026-04-25T08:39:12Z</time></trkpt><trkpt lat="40.74554139972106" lon="14.773787945357464"><ele>185.8</ele><time>2026-04-25T08:39:13Z</time></trkpt><trkpt lat="40.74561980408542" lon="14.773829332884016"><ele>186.0</ele><time>2026-04-25T08:39:14Z</time></trkpt><trkpt lat="40.74571080889478" lon="14.773858167689312"><ele>186.0</ele><time>2026-04-25T08:39:15Z</time></trkpt><trkpt lat="40.745812206663814" lon="14.773891337309495"><ele>186.0</ele><time>2026-04-25T08:39:16Z</time></trkpt><trkpt lat="40.74591216214858" lon="14.773916386377197"><ele>186.0</ele><time>2026-04-25T08:39:17Z</time></trkpt><trkpt lat="40.745997191408776" lon="14.773939109154178"><ele>186.0</ele><time>2026-04-25T08:39:18Z</time></trkpt><trkpt lat="40.74606789412865" lon="14.773959453837202"><ele>186.0</ele><time>2026-04-25T08:39:19Z</time></trkpt><trkpt lat="40.7461363116563" lon="14.773978330201874"><ele>186.0</ele><time>2026-04-25T08:39:20Z</time></trkpt><trkpt lat="40.74620683331282" lon="14.773999067110378"><ele>186.0</ele><time>2026-04-25T08:39:21Z</time></trkpt><trkpt lat="40.74631104508224" lon="14.774027740717482"><ele>186.0</ele><time>2026-04-25T08:39:23Z</time></trkpt><trkpt lat="40.74637829495935" lon="14.774058211255607"><ele>186.0</ele><time>2026-04-25T08:39:25Z</time></trkpt><trkpt lat="40.746471104925206" lon="14.774077971010195"><ele>186.0</ele><time>2026-04-25T08:39:28Z</time></trkpt><trkpt lat="40.74655183291573" lon="14.774091674892162"><ele>186.0</ele><time>2026-04-25T08:39:31Z</time></trkpt><trkpt lat="40.74649405715501" lon="14.774006854690022"><ele>186.0</ele><time>2026-04-25T08:39:34Z</time></trkpt><trkpt lat="40.74640014300135" lon="14.774011639041785"><ele>186.0</ele><time>2026-04-25T08:39:35Z</time></trkpt><trkpt lat="40.74628800276548" lon="14.774011409912978"><ele>186.0</ele><time>2026-04-25T08:39:36Z</time></trkpt><trkpt lat="40.74618257404971" lon="14.774003977490775"><ele>186.0</ele><time>2026-04-25T08:39:37Z</time></trkpt><trkpt lat="40.74605269534074" lon="14.773972065321173"><ele>186.0</ele><time>2026-04-25T08:39:38Z</time></trkpt><trkpt lat="40.74592439556104" lon="14.77393282707549"><ele>186.0</ele><time>2026-04-25T08:39:39Z</time></trkpt><trkpt lat="40.74583628182931" lon="14.77385245786338"><ele>186.0</ele><time>2026-04-25T08:39:40Z</time></trkpt><trkpt lat="40.745763781355166" lon="14.773829174770771"><ele>186.0</ele><time>2026-04-25T08:39:41Z</time></trkpt><trkpt lat="40.74566699187219" lon="14.773796879445268"><ele>186.0</ele><time>2026-04-25T08:39:43Z</time></trkpt><trkpt lat="40.74560310225031" lon="14.773774765281793"><ele>186.0</ele><time>2026-04-25T08:39:46Z</time></trkpt><trkpt lat="40.745481849086794" lon="14.773751480707153"><ele>186.0</ele><time>2026-04-25T08:39:48Z</time></trkpt><trkpt lat="40.745406454042396" lon="14.773716105603288"><ele>186.0</ele><time>2026-04-25T08:39:49Z</time></trkpt><trkpt lat="40.74532067948247" lon="14.773678229942117"><ele>186.0</ele><time>2026-04-25T08:39:50Z</time></trkpt><trkpt lat="40.74523464414179" lon="14.773626709039736"><ele>186.0</ele><time>2026-04-25T08:39:51Z</time></trkpt><trkpt lat="40.745157760012475" lon="14.7735755370367"><ele>186.0</ele><time>2026-04-25T08:39:52Z</time></trkpt><trkpt lat="40.74508564205203" lon="14.773519224250087"><ele>186.0</ele><time>2026-04-25T08:39:53Z</time></trkpt><trkpt lat="40.745022023324175" lon="14.7734518120455"><ele>185.8</ele><time>2026-04-25T08:39:54Z</time></trkpt><trkpt lat="40.74496159040302" lon="14.773398238673055"><ele>185.60000000000002</ele><time>2026-04-25T08:39:55Z</time></trkpt><trkpt lat="40.74487977186248" lon="14.77334335419398"><ele>185.4</ele><time>2026-04-25T08:39:57Z</time></trkpt><trkpt lat="40.7447814910717" lon="14.773426183584748"><ele>185.2</ele><time>2026-04-25T08:39:59Z</time></trkpt><trkpt lat="40.74476001090134" lon="14.773511652198454"><ele>185.0</ele><time>2026-04-25T08:40:00Z</time></trkpt><trkpt lat="40.74488824221614" lon="14.773655848738137"><ele>185.0</ele><time>2026-04-25T08:40:02Z</time></trkpt><trkpt lat="40.74497708383459" lon="14.773663750911686"><ele>185.0</ele><time>2026-04-25T08:40:03Z</time></trkpt><trkpt lat="40.74506483983944" lon="14.77364725010147"><ele>185.0</ele><time>2026-04-25T08:40:04Z</time></trkpt><trkpt lat="40.745141622740846" lon="14.773659867940411"><ele>185.0</ele><time>2026-04-25T08:40:05Z</time></trkpt><trkpt lat="40.7452194411651" lon="14.773701935342798"><ele>185.0</ele><time>2026-04-25T08:40:06Z</time></trkpt><trkpt lat="40.74530641027322" lon="14.773768942027145"><ele>185.0</ele><time>2026-04-25T08:40:08Z</time></trkpt><trkpt lat="40.74533423005463" lon="14.773846624155016"><ele>185.16666666666666</ele><time>2026-04-25T08:42:34.999Z</time></trkpt><trkpt lat="40.74535709720385" lon="14.773973044964356"><ele>185.33333333333331</ele><time>2026-04-25T09:45:41.999Z</time></trkpt><trkpt lat="40.74536756370089" lon="14.774068464576251"><ele>185.5</ele><time>2026-04-25T09:45:43.999Z</time></trkpt><trkpt lat="40.74541566857172" lon="14.774164400447036"><ele>185.66666666666666</ele><time>2026-04-25T09:46:49.999Z</time></trkpt><trkpt lat="40.745441613149445" lon="14.774246005089468"><ele>185.83333333333334</ele><time>2026-04-25T09:46:52.999Z</time></trkpt><trkpt lat="40.74544526942501" lon="14.774372697374378"><ele>186.0</ele><time>2026-04-25T09:46:53.999Z</time></trkpt><trkpt lat="40.74546358135924" lon="14.774528877253786"><ele>186.4</ele><time>2026-04-25T09:46:54.999Z</time></trkpt><trkpt lat="40.74548912774656" lon="14.774661093935416"><ele>186.8</ele><time>2026-04-25T09:46:55.999Z</time></trkpt><trkpt lat="40.74551248212277" lon="14.774755397666508"><ele>187.20000000000002</ele><time>2026-04-25T09:46:56.999Z</time></trkpt><trkpt lat="40.74553462131832" lon="14.774866788626362"><ele>187.60000000000002</ele><time>2026-04-25T09:46:57.999Z</time></trkpt><trkpt lat="40.74554211556495" lon="14.77500797505576"><ele>188.0</ele><time>2026-04-25T09:46:58.999Z</time></trkpt><trkpt lat="40.74554102360739" lon="14.775170755505004"><ele>188.2</ele><time>2026-04-25T09:46:59.999Z</time></trkpt><trkpt lat="40.74555089351102" lon="14.77530510936636"><ele>188.4</ele><time>2026-04-25T09:47:00.999Z</time></trkpt><trkpt lat="40.745561216248056" lon="14.77540129655137"><ele>188.6</ele><time>2026-04-25T09:47:01.999Z</time></trkpt><trkpt lat="40.74557267819363" lon="14.775516796679943"><ele>188.79999999999998</ele><time>2026-04-25T09:47:03.999Z</time></trkpt><trkpt lat="40.74560678207466" lon="14.77561777072474"><ele>189.0</ele><time>2026-04-25T09:47:05.999Z</time></trkpt><trkpt lat="40.7457386292554" lon="14.775705205317498"><ele>189.0</ele><time>2026-04-25T09:47:07.999Z</time></trkpt><trkpt lat="40.74583217953823" lon="14.77566162803282"><ele>189.0</ele><time>2026-04-25T09:47:08.999Z</time></trkpt><trkpt lat="40.745955649500154" lon="14.77563734273039"><ele>189.0</ele><time>2026-04-25T09:47:09.999Z</time></trkpt><trkpt lat="40.746090432931034" lon="14.775605058245922"><ele>189.0</ele><time>2026-04-25T09:47:10.999Z</time></trkpt><trkpt lat="40.74618596081727" lon="14.775581704214932"><ele>188.75</ele><time>2026-04-25T09:47:11.999Z</time></trkpt><trkpt lat="40.74629272128386" lon="14.7755617571446"><ele>188.5</ele><time>2026-04-25T09:47:13.999Z</time></trkpt><trkpt lat="40.7463550756987" lon="14.775477975866696"><ele>188.25</ele><time>2026-04-25T09:47:15.999Z</time></trkpt><trkpt lat="40.74635155069231" lon="14.775313347553475"><ele>188.0</ele><time>2026-04-25T09:47:17.999Z</time></trkpt><trkpt lat="40.74631488109751" lon="14.775151007730795"><ele>188.0</ele><time>2026-04-25T09:47:18.999Z</time></trkpt><trkpt lat="40.74629374722804" lon="14.774963383212988"><ele>188.0</ele><time>2026-04-25T09:47:19.999Z</time></trkpt><trkpt lat="40.746288340142605" lon="14.77481608623626"><ele>188.0</ele><time>2026-04-25T09:47:20.999Z</time></trkpt><trkpt lat="40.74630775922175" lon="14.774702974498496"><ele>188.0</ele><time>2026-04-25T09:47:21.999Z</time></trkpt><trkpt lat="40.746376777727235" lon="14.774569299174567"><ele>188.0</ele><time>2026-04-25T09:47:22.999Z</time></trkpt><trkpt lat="40.746422052048054" lon="14.774428331907"><ele>188.0</ele><time>2026-04-25T09:47:23.999Z</time></trkpt><trkpt lat="40.746468398546284" lon="14.774334994626445"><ele>188.0</ele><time>2026-04-25T09:47:24.999Z</time></trkpt><trkpt lat="40.746509274575516" lon="14.774259908031883"><ele>188.0</ele><time>2026-04-25T09:47:27.999Z</time></trkpt><trkpt lat="40.74655480501693" lon="14.774192767784143"><ele>188.0</ele><time>2026-04-25T09:47:30.999Z</time></trkpt><trkpt lat="40.74657856704584" lon="14.774105716023891"><ele>188.0</ele><time>2026-04-25T09:47:47.999Z</time></trkpt><trkpt lat="40.74657419232121" lon="14.77401710045034"><ele>187.66666666666666</ele><time>2026-04-25T09:47:50.999Z</time></trkpt><trkpt lat="40.74650196995737" lon="14.773981036302697"><ele>187.33333333333331</ele><time>2026-04-25T09:47:51.999Z</time></trkpt><trkpt lat="40.74642060972576" lon="14.773974106794345"><ele>187.0</ele><time>2026-04-25T09:47:53.999Z</time></trkpt><trkpt lat="40.7463407842631" lon="14.773955744721707"><ele>186.66666666666666</ele><time>2026-04-25T09:47:56.999Z</time></trkpt><trkpt lat="40.74625837409915" lon="14.77394312838571"><ele>186.33333333333334</ele><time>2026-04-25T09:47:59.999Z</time></trkpt><trkpt lat="40.74616219160877" lon="14.773918638249395"><ele>186.0</ele><time>2026-04-25T09:48:01.999Z</time></trkpt><trkpt lat="40.74604089440067" lon="14.773886787651737"><ele>186.0</ele><time>2026-04-25T09:48:03.999Z</time></trkpt><trkpt lat="40.7459528978404" lon="14.77385568936957"><ele>186.0</ele><time>2026-04-25T09:48:05.999Z</time></trkpt><trkpt lat="40.745870938070546" lon="14.773820464592758"><ele>186.0</ele><time>2026-04-25T09:48:08.999Z</time></trkpt><trkpt lat="40.74565817357778" lon="14.773752340083298"><ele>186.0</ele><time>2026-04-25T09:50:23Z</time></trkpt><trkpt lat="40.745549672273654" lon="14.77371586483244"><ele>186.0</ele><time>2026-04-25T09:50:25Z</time></trkpt><trkpt lat="40.74543752092671" lon="14.773667787583062"><ele>186.0</ele><time>2026-04-25T09:50:27Z</time></trkpt><trkpt lat="40.745332279328224" lon="14.773653393029658"><ele>186.0</ele><time>2026-04-25T09:50:29Z</time></trkpt><trkpt lat="40.74527200522819" lon="14.77359978118266"><ele>186.0</ele><time>2026-04-25T09:50:30Z</time></trkpt><trkpt lat="40.74519899336372" lon="14.77354985560384"><ele>186.0</ele><time>2026-04-25T09:50:31Z</time></trkpt><trkpt lat="40.745127061637376" lon="14.77349567730302"><ele>185.85714285714286</ele><time>2026-04-25T09:50:32Z</time></trkpt><trkpt lat="40.7450646839682" lon="14.773446849532489"><ele>185.71428571428572</ele><time>2026-04-25T09:50:33Z</time></trkpt><trkpt lat="40.74500806631616" lon="14.773395463043968"><ele>185.57142857142856</ele><time>2026-04-25T09:50:34Z</time></trkpt><trkpt lat="40.74495283649439" lon="14.773353517475524"><ele>185.42857142857144</ele><time>2026-04-25T09:50:35Z</time></trkpt><trkpt lat="40.74488767197546" lon="14.773333872390129"><ele>185.28571428571428</ele><time>2026-04-25T09:50:36Z</time></trkpt><trkpt lat="40.74482037561632" lon="14.773356847498594"><ele>185.14285714285714</ele><time>2026-04-25T09:50:37Z</time></trkpt><trkpt lat="40.74475390967388" lon="14.773370053996478"><ele>185.0</ele><time>2026-04-25T09:50:38Z</time></trkpt><trkpt lat="40.74471635303912" lon="14.773533051676994"><ele>185.0</ele><time>2026-04-25T09:50:39Z</time></trkpt><trkpt lat="40.74463490954186" lon="14.773608912371476"><ele>185.0</ele><time>2026-04-25T09:50:40Z</time></trkpt><trkpt lat="40.74458517138245" lon="14.773719753227736"><ele>185.0</ele><time>2026-04-25T09:50:41Z</time></trkpt><trkpt lat="40.744451694899524" lon="14.773727225965683"><ele>185.0</ele><time>2026-04-25T09:50:42Z</time></trkpt><trkpt lat="40.74435404875635" lon="14.773768271038838"><ele>185.0</ele><time>2026-04-25T09:50:43Z</time></trkpt><trkpt lat="40.74426488894405" lon="14.77380974109893"><ele>184.83333333333331</ele><time>2026-04-25T09:50:44Z</time></trkpt><trkpt lat="40.74419262295308" lon="14.773848352038732"><ele>184.66666666666666</ele><time>2026-04-25T09:50:45Z</time></trkpt><trkpt lat="40.74412817816489" lon="14.773881293408348"><ele>184.5</ele><time>2026-04-25T09:50:46Z</time></trkpt><trkpt lat="40.74406401052124" lon="14.773910109812336"><ele>184.33333333333334</ele><time>2026-04-25T09:50:47Z</time></trkpt><trkpt lat="40.744002606299105" lon="14.773939907600479"><ele>184.16666666666669</ele><time>2026-04-25T09:50:48Z</time></trkpt><trkpt lat="40.74388143867154" lon="14.77399437586286"><ele>184.0</ele><time>2026-04-25T09:50:50Z</time></trkpt><trkpt lat="40.74380785276765" lon="14.7740180834503"><ele>184.0</ele><time>2026-04-25T09:50:51Z</time></trkpt><trkpt lat="40.74373397862406" lon="14.77404636326747"><ele>184.0</ele><time>2026-04-25T09:50:52Z</time></trkpt><trkpt lat="40.743651060416056" lon="14.774078862602245"><ele>184.0</ele><time>2026-04-25T09:50:53Z</time></trkpt><trkpt lat="40.74356590539234" lon="14.77412130105237"><ele>184.0</ele><time>2026-04-25T09:50:54Z</time></trkpt><trkpt lat="40.74347572907866" lon="14.774176756709101"><ele>184.0</ele><time>2026-04-25T09:50:55Z</time></trkpt><trkpt lat="40.74336892011184" lon="14.774240326015008"><ele>184.0</ele><time>2026-04-25T09:50:56Z</time></trkpt><trkpt lat="40.74326390652963" lon="14.774292676893014"><ele>184.0</ele><time>2026-04-25T09:50:57Z</time></trkpt><trkpt lat="40.743179295750615" lon="14.774331428884025"><ele>184.0</ele><time>2026-04-25T09:50:58Z</time></trkpt><trkpt lat="40.74312220809119" lon="14.774367574888728"><ele>184.0</ele><time>2026-04-25T09:50:59Z</time></trkpt><trkpt lat="40.743060561912195" lon="14.774414620005826"><ele>184.0</ele><time>2026-04-25T09:51:00Z</time></trkpt><trkpt lat="40.742974735795876" lon="14.77443839128319"><ele>184.0</ele><time>2026-04-25T09:51:02Z</time></trkpt><trkpt lat="40.74289714105613" lon="14.77447538221775"><ele>184.0</ele><time>2026-04-25T09:51:05Z</time></trkpt><trkpt lat="40.742827425645935" lon="14.774508616491149"><ele>184.0</ele><time>2026-04-25T09:51:09Z</time></trkpt><trkpt lat="40.74285888956859" lon="14.774662025391748"><ele>184.0</ele><time>2026-04-25T09:51:10Z</time></trkpt><trkpt lat="40.74277969675271" lon="14.774713873961952"><ele>184.0</ele><time>2026-04-25T09:51:20Z</time></trkpt><trkpt lat="40.74269774164942" lon="14.774679543271033"><ele>184.0</ele><time>2026-04-25T09:51:22Z</time></trkpt><trkpt lat="40.74262069625429" lon="14.774778535825522"><ele>184.0</ele><time>2026-04-25T09:51:25Z</time></trkpt><trkpt lat="40.74261407796505" lon="14.774862307694663"><ele>184.0</ele><time>2026-04-25T09:51:27Z</time></trkpt><trkpt lat="40.742700206595266" lon="14.774899897773022"><ele>184.0</ele><time>2026-04-25T09:51:30Z</time></trkpt><trkpt lat="40.74276034124653" lon="14.774851048224985"><ele>184.0</ele><time>2026-04-25T09:51:34Z</time></trkpt><trkpt lat="40.74283416480943" lon="14.774829290590674"><ele>184.0</ele><time>2026-04-25T09:51:55Z</time></trkpt><trkpt lat="40.74290019288156" lon="14.774776464460734"><ele>184.0</ele><time>2026-04-25T09:59:59Z</time></trkpt><trkpt lat="40.74295601239849" lon="14.7747155662507"><ele>184.0</ele><time>2026-04-25T10:00:01Z</time></trkpt><trkpt lat="40.743025771342644" lon="14.774670709350268"><ele>184.0</ele><time>2026-04-25T10:00:04Z</time></trkpt><trkpt lat="40.743030114843904" lon="14.774577782278108"><ele>184.0</ele><time>2026-04-25T10:00:09Z</time></trkpt><trkpt lat="40.743120062460214" lon="14.774438015219875"><ele>184.0</ele><time>2026-04-25T10:00:20Z</time></trkpt><trkpt lat="40.743197869108" lon="14.774408551671183"><ele>184.0</ele><time>2026-04-25T10:00:21Z</time></trkpt><trkpt lat="40.743262337839596" lon="14.774377687589869"><ele>184.0</ele><time>2026-04-25T10:00:22Z</time></trkpt><trkpt lat="40.74332471822963" lon="14.774345090703868"><ele>184.0</ele><time>2026-04-25T10:00:22.999Z</time></trkpt><trkpt lat="40.74339792744032" lon="14.774306782415943"><ele>184.0</ele><time>2026-04-25T10:00:23.999Z</time></trkpt><trkpt lat="40.743486636257536" lon="14.774260491412921"><ele>184.0</ele><time>2026-04-25T10:00:24.999Z</time></trkpt><trkpt lat="40.74359669577517" lon="14.774202307040962"><ele>184.0</ele><time>2026-04-25T10:00:25.999Z</time></trkpt><trkpt lat="40.74369528126293" lon="14.774150598659203"><ele>184.0</ele><time>2026-04-25T10:00:26.999Z</time></trkpt><trkpt lat="40.74377593904167" lon="14.774110974786241"><ele>184.0</ele><time>2026-04-25T10:00:27.999Z</time></trkpt><trkpt lat="40.74385151899029" lon="14.774077768678191"><ele>184.0</ele><time>2026-04-25T10:00:28.999Z</time></trkpt><trkpt lat="40.74392193074603" lon="14.774041479199116"><ele>184.0</ele><time>2026-04-25T10:00:29.999Z</time></trkpt><trkpt lat="40.743983100806" lon="14.774011027412143"><ele>184.0</ele><time>2026-04-25T10:00:30.999Z</time></trkpt><trkpt lat="40.74404414305467" lon="14.773986808420544"><ele>184.0</ele><time>2026-04-25T10:00:31.999Z</time></trkpt><trkpt lat="40.74412307977764" lon="14.773950640914489"><ele>184.0</ele><time>2026-04-25T10:00:32.999Z</time></trkpt><trkpt lat="40.7442076003448" lon="14.773908361838291"><ele>184.0</ele><time>2026-04-25T10:00:33.999Z</time></trkpt><trkpt lat="40.74428480294751" lon="14.773869330943686"><ele>184.0</ele><time>2026-04-25T10:00:34.999Z</time></trkpt><trkpt lat="40.74435063002809" lon="14.773837467527223"><ele>184.0</ele><time>2026-04-25T10:00:35.999Z</time></trkpt><trkpt lat="40.74445849240757" lon="14.773783965283993"><ele>184.0</ele><time>2026-04-25T10:00:37.999Z</time></trkpt><trkpt lat="40.744526486025535" lon="14.773751454679962"><ele>184.0</ele><time>2026-04-25T10:00:38.999Z</time></trkpt><trkpt lat="40.74459569553999" lon="14.77371708228539"><ele>184.0</ele><time>2026-04-25T10:00:39.999Z</time></trkpt><trkpt lat="40.744710282118675" lon="14.773659672754288"><ele>184.2</ele><time>2026-04-25T10:00:41.999Z</time></trkpt><trkpt lat="40.74481868193076" lon="14.773616522114091"><ele>184.39999999999998</ele><time>2026-04-25T10:00:43.999Z</time></trkpt><trkpt lat="40.744929877276135" lon="14.773620111500291"><ele>184.6</ele><time>2026-04-25T10:00:46Z</time></trkpt><trkpt lat="40.74500871726301" lon="14.773620763978023"><ele>184.8</ele><time>2026-04-25T10:00:47Z</time></trkpt><trkpt lat="40.74508911355601" lon="14.773613865900582"><ele>185.0</ele><time>2026-04-25T10:00:48Z</time></trkpt><trkpt lat="40.7451602593755" lon="14.77362546967124"><ele>185.2</ele><time>2026-04-25T10:00:49Z</time></trkpt><trkpt lat="40.74523461897954" lon="14.773661718858637"><ele>185.4</ele><time>2026-04-25T10:00:50Z</time></trkpt><trkpt lat="40.74530842359676" lon="14.773705138242688"><ele>185.60000000000002</ele><time>2026-04-25T10:00:51Z</time></trkpt><trkpt lat="40.745367261399416" lon="14.773743670418845"><ele>185.8</ele><time>2026-04-25T10:00:52Z</time></trkpt><trkpt lat="40.745403435561144" lon="14.773925439893008"><ele>186.0</ele><time>2026-04-25T10:00:54Z</time></trkpt><trkpt lat="40.74542117541521" lon="14.774053600719586"><ele>186.0</ele><time>2026-04-25T10:00:55Z</time></trkpt><trkpt lat="40.74543816594613" lon="14.774198348089124"><ele>186.0</ele><time>2026-04-25T10:00:56Z</time></trkpt><trkpt lat="40.74545716440359" lon="14.774360201978483"><ele>186.0</ele><time>2026-04-25T10:00:57Z</time></trkpt><trkpt lat="40.74547418961933" lon="14.774498544034266"><ele>186.0</ele><time>2026-04-25T10:00:58Z</time></trkpt><trkpt lat="40.74548993474046" lon="14.774623636631988"><ele>186.0</ele><time>2026-04-25T10:00:59Z</time></trkpt><trkpt lat="40.74550498841274" lon="14.774743235457779"><ele>186.33333333333334</ele><time>2026-04-25T10:01:00Z</time></trkpt><trkpt lat="40.745520476935766" lon="14.774870151156541"><ele>186.66666666666666</ele><time>2026-04-25T10:01:01Z</time></trkpt><trkpt lat="40.74555156412787" lon="14.774991057163756"><ele>187.0</ele><time>2026-04-25T10:01:02Z</time></trkpt><trkpt lat="40.74556437811572" lon="14.775103479584772"><ele>187.33333333333331</ele><time>2026-04-25T10:01:03Z</time></trkpt><trkpt lat="40.745573708578" lon="14.775212185197248"><ele>187.66666666666666</ele><time>2026-04-25T10:01:04Z</time></trkpt><trkpt lat="40.74558411673047" lon="14.775313502101637"><ele>188.0</ele><time>2026-04-25T10:01:05Z</time></trkpt><trkpt lat="40.74559619442446" lon="14.775401811657925"><ele>188.2</ele><time>2026-04-25T10:01:06Z</time></trkpt><trkpt lat="40.74560853501866" lon="14.775496717759752"><ele>188.4</ele><time>2026-04-25T10:01:07Z</time></trkpt><trkpt lat="40.745625350398946" lon="14.77561801129736"><ele>188.6</ele><time>2026-04-25T10:01:08Z</time></trkpt><trkpt lat="40.74564440195209" lon="14.77574431776197"><ele>188.79999999999998</ele><time>2026-04-25T10:01:09Z</time></trkpt><trkpt lat="40.745660237903195" lon="14.775871992553686"><ele>189.0</ele><time>2026-04-25T10:01:10Z</time></trkpt><trkpt lat="40.74563634660896" lon="14.776010838903552"><ele>189.5</ele><time>2026-04-25T10:01:11Z</time></trkpt><trkpt lat="40.74570496528526" lon="14.776145899897877"><ele>190.0</ele><time>2026-04-25T10:01:12Z</time></trkpt><trkpt lat="40.74573237410661" lon="14.776305784015117"><ele>190.5</ele><time>2026-04-25T10:01:13Z</time></trkpt><trkpt lat="40.745769543530905" lon="14.776460626128511"><ele>191.0</ele><time>2026-04-25T10:01:14Z</time></trkpt><trkpt lat="40.74581396699455" lon="14.776603473765832"><ele>191.0</ele><time>2026-04-25T10:01:15Z</time></trkpt><trkpt lat="40.745832527194196" lon="14.776741613805276"><ele>191.0</ele><time>2026-04-25T10:01:16Z</time></trkpt><trkpt lat="40.745874174332776" lon="14.77687176116468"><ele>191.0</ele><time>2026-04-25T10:01:17Z</time></trkpt><trkpt lat="40.745912980227985" lon="14.776993029642467"><ele>191.0</ele><time>2026-04-25T10:01:18Z</time></trkpt><trkpt lat="40.74594936543982" lon="14.777106842705232"><ele>191.0</ele><time>2026-04-25T10:01:19Z</time></trkpt><trkpt lat="40.74598391135215" lon="14.777214981923267"><ele>191.0</ele><time>2026-04-25T10:01:20Z</time></trkpt><trkpt lat="40.746013184704395" lon="14.7773173294657"><ele>191.0</ele><time>2026-04-25T10:01:21Z</time></trkpt><trkpt lat="40.746042713580515" lon="14.777426745920101"><ele>191.0</ele><time>2026-04-25T10:01:22Z</time></trkpt><trkpt lat="40.746057015727864" lon="14.777549705876341"><ele>191.0</ele><time>2026-04-25T10:01:23Z</time></trkpt><trkpt lat="40.74605558765375" lon="14.77769130588305"><ele>191.0</ele><time>2026-04-25T10:01:24Z</time></trkpt><trkpt lat="40.7460403217075" lon="14.777847301473788"><ele>191.0</ele><time>2026-04-25T10:01:25Z</time></trkpt><trkpt lat="40.746024188919186" lon="14.778012991292487"><ele>191.0</ele><time>2026-04-25T10:01:26Z</time></trkpt><trkpt lat="40.74601118073802" lon="14.778154014146015"><ele>191.0</ele><time>2026-04-25T10:01:27Z</time></trkpt><trkpt lat="40.74601287795254" lon="14.77830707901599"><ele>191.0</ele><time>2026-04-25T10:01:28Z</time></trkpt><trkpt lat="40.745994577667794" lon="14.778439694499259"><ele>190.8</ele><time>2026-04-25T10:01:29Z</time></trkpt><trkpt lat="40.74598060067237" lon="14.778571583062533"><ele>190.60000000000002</ele><time>2026-04-25T10:01:30Z</time></trkpt><trkpt lat="40.74595888336769" lon="14.778690160425516"><ele>190.4</ele><time>2026-04-25T10:01:31Z</time></trkpt><trkpt lat="40.74592321483802" lon="14.778811692085444"><ele>190.2</ele><time>2026-04-25T10:01:32Z</time></trkpt><trkpt lat="40.745872065582965" lon="14.778948041895138"><ele>190.0</ele><time>2026-04-25T10:01:33Z</time></trkpt><trkpt lat="40.74581550846344" lon="14.779092897075687"><ele>190.0</ele><time>2026-04-25T10:01:34Z</time></trkpt><trkpt lat="40.74575889290516" lon="14.779244694113924"><ele>190.0</ele><time>2026-04-25T10:01:35Z</time></trkpt><trkpt lat="40.745698116535216" lon="14.779404764859647"><ele>190.0</ele><time>2026-04-25T10:01:36Z</time></trkpt><trkpt lat="40.74563961946936" lon="14.779586433328948"><ele>190.0</ele><time>2026-04-25T10:01:37Z</time></trkpt><trkpt lat="40.74558931987292" lon="14.779780655482714"><ele>191.25</ele><time>2026-04-25T10:01:38Z</time></trkpt><trkpt lat="40.745547667661384" lon="14.779959286590149"><ele>192.5</ele><time>2026-04-25T10:01:39Z</time></trkpt><trkpt lat="40.74550891661174" lon="14.78013191437331"><ele>193.75</ele><time>2026-04-25T10:01:40Z</time></trkpt><trkpt lat="40.74547197270157" lon="14.780297856886138"><ele>195.0</ele><time>2026-04-25T10:01:41Z</time></trkpt><trkpt lat="40.74543726651686" lon="14.780452314606745"><ele>197.0</ele><time>2026-04-25T10:01:42Z</time></trkpt><trkpt lat="40.745401176749546" lon="14.780605985885705"><ele>199.0</ele><time>2026-04-25T10:01:43Z</time></trkpt><trkpt lat="40.74536372374349" lon="14.780757738510943"><ele>201.0</ele><time>2026-04-25T10:01:44Z</time></trkpt><trkpt lat="40.74532486149272" lon="14.780905207162414"><ele>203.0</ele><time>2026-04-25T10:01:45Z</time></trkpt><trkpt lat="40.74529980759511" lon="14.78105029053776"><ele>203.8</ele><time>2026-04-25T10:01:46Z</time></trkpt><trkpt lat="40.74528828979922" lon="14.781192735345725"><ele>204.60000000000002</ele><time>2026-04-25T10:01:47Z</time></trkpt><trkpt lat="40.74525694009658" lon="14.781329403521388"><ele>205.39999999999998</ele><time>2026-04-25T10:01:48Z</time></trkpt><trkpt lat="40.74523290364956" lon="14.781467636388973"><ele>206.2</ele><time>2026-04-25T10:01:49Z</time></trkpt><trkpt lat="40.745192739432426" lon="14.781613359093193"><ele>207.0</ele><time>2026-04-25T10:01:50Z</time></trkpt><trkpt lat="40.745143192920736" lon="14.781770242188578"><ele>207.75</ele><time>2026-04-25T10:01:51Z</time></trkpt><trkpt lat="40.74508248939426" lon="14.781934089405473"><ele>208.5</ele><time>2026-04-25T10:01:52Z</time></trkpt><trkpt lat="40.74502337325465" lon="14.782093012506653"><ele>209.25</ele><time>2026-04-25T10:01:53Z</time></trkpt><trkpt lat="40.74498367676007" lon="14.782224601693969"><ele>210.0</ele><time>2026-04-25T10:01:54Z</time></trkpt><trkpt lat="40.74496458999877" lon="14.782344913411388"><ele>210.0</ele><time>2026-04-25T10:01:55Z</time></trkpt><trkpt lat="40.74495949242145" lon="14.782460776996686"><ele>210.0</ele><time>2026-04-25T10:01:56Z</time></trkpt><trkpt lat="40.74501828599577" lon="14.782568917972721"><ele>210.0</ele><time>2026-04-25T10:01:57Z</time></trkpt><trkpt lat="40.74509199226926" lon="14.782692959189285"><ele>210.0</ele><time>2026-04-25T10:01:58Z</time></trkpt><trkpt lat="40.74515843118998" lon="14.782799937979641"><ele>210.0</ele><time>2026-04-25T10:01:59Z</time></trkpt><trkpt lat="40.7452008657285" lon="14.782873838531152"><ele>210.0</ele><time>2026-04-25T10:02:00Z</time></trkpt><trkpt lat="40.745239806835244" lon="14.782939730141706"><ele>210.0</ele><time>2026-04-25T10:02:01Z</time></trkpt><trkpt lat="40.74526021012047" lon="14.783026428046577"><ele>210.0</ele><time>2026-04-25T10:02:02Z</time></trkpt><trkpt lat="40.74525645494175" lon="14.783114993546805"><ele>210.0</ele><time>2026-04-25T10:02:03Z</time></trkpt><trkpt lat="40.74523015049769" lon="14.783212877718261"><ele>210.0</ele><time>2026-04-25T10:02:04Z</time></trkpt><trkpt lat="40.74519136667634" lon="14.783312845694173"><ele>210.0</ele><time>2026-04-25T10:02:05Z</time></trkpt><trkpt lat="40.74512467401722" lon="14.783407730176888"><ele>210.75</ele><time>2026-04-25T10:02:06Z</time></trkpt><trkpt lat="40.74503495618727" lon="14.783505805299177"><ele>211.5</ele><time>2026-04-25T10:02:07Z</time></trkpt><trkpt lat="40.74492669545728" lon="14.78359735234829"><ele>212.25</ele><time>2026-04-25T10:02:08Z</time></trkpt><trkpt lat="40.74481911975403" lon="14.783670204929797"><ele>213.0</ele><time>2026-04-25T10:02:09Z</time></trkpt><trkpt lat="40.744725174707405" lon="14.783745802229879"><ele>214.0</ele><time>2026-04-25T10:02:10Z</time></trkpt><trkpt lat="40.744642358900876" lon="14.78385667468781"><ele>215.0</ele><time>2026-04-25T10:02:11Z</time></trkpt><trkpt lat="40.744558951438314" lon="14.784006145205788"><ele>216.0</ele><time>2026-04-25T10:02:12Z</time></trkpt><trkpt lat="40.74447824377502" lon="14.784175138521194"><ele>217.0</ele><time>2026-04-25T10:02:13Z</time></trkpt><trkpt lat="40.74440286242643" lon="14.784351221724771"><ele>218.5</ele><time>2026-04-25T10:02:14Z</time></trkpt><trkpt lat="40.744323209516885" lon="14.784521233658324"><ele>220.0</ele><time>2026-04-25T10:02:15Z</time></trkpt><trkpt lat="40.74423268750383" lon="14.784662791122205"><ele>221.5</ele><time>2026-04-25T10:02:16Z</time></trkpt><trkpt lat="40.744152708544185" lon="14.784818686820573"><ele>223.0</ele><time>2026-04-25T10:02:17Z</time></trkpt><trkpt lat="40.744080544111576" lon="14.784953718535247"><ele>223.0</ele><time>2026-04-25T10:02:18Z</time></trkpt><trkpt lat="40.74397727441003" lon="14.78514609077717"><ele>223.0</ele><time>2026-04-25T10:02:19Z</time></trkpt><trkpt lat="40.743888877213834" lon="14.785304590508838"><ele>223.0</ele><time>2026-04-25T10:02:19.999Z</time></trkpt><trkpt lat="40.74378788139465" lon="14.785456935045628"><ele>224.33333333333331</ele><time>2026-04-25T10:02:20.999Z</time></trkpt><trkpt lat="40.74367523045881" lon="14.78561526868566"><ele>225.66666666666669</ele><time>2026-04-25T10:02:21.999Z</time></trkpt><trkpt lat="40.74356723533532" lon="14.785778470174746"><ele>227.0</ele><time>2026-04-25T10:02:22.999Z</time></trkpt><trkpt lat="40.74347190494748" lon="14.785959700823247"><ele>228.33333333333334</ele><time>2026-04-25T10:02:23.999Z</time></trkpt><trkpt lat="40.74336662298456" lon="14.786134891445295"><ele>229.66666666666669</ele><time>2026-04-25T10:02:24.999Z</time></trkpt><trkpt lat="40.743273426255506" lon="14.786318374520105"><ele>231.0</ele><time>2026-04-25T10:02:25.999Z</time></trkpt><trkpt lat="40.74317856647067" lon="14.786497515742452"><ele>231.0</ele><time>2026-04-25T10:02:26.999Z</time></trkpt><trkpt lat="40.743074357119234" lon="14.78668493960533"><ele>231.0</ele><time>2026-04-25T10:02:27.999Z</time></trkpt><trkpt lat="40.74297187274008" lon="14.786892075893645"><ele>231.0</ele><time>2026-04-25T10:02:28.999Z</time></trkpt><trkpt lat="40.742873006209265" lon="14.787101943856555"><ele>232.33333333333331</ele><time>2026-04-25T10:02:29.999Z</time></trkpt><trkpt lat="40.742779179523446" lon="14.787287545316726"><ele>233.66666666666666</ele><time>2026-04-25T10:02:30.999Z</time></trkpt><trkpt lat="40.74269439183206" lon="14.78747526352357"><ele>235.0</ele><time>2026-04-25T10:02:31.999Z</time></trkpt><trkpt lat="40.742598549743576" lon="14.787678891433927"><ele>238.0</ele><time>2026-04-25T10:02:32.999Z</time></trkpt><trkpt lat="40.74250344592622" lon="14.787878637158547"><ele>241.0</ele><time>2026-04-25T10:02:33.999Z</time></trkpt><trkpt lat="40.74242105539468" lon="14.788055358769876"><ele>244.0</ele><time>2026-04-25T10:02:34.999Z</time></trkpt><trkpt lat="40.742348792623666" lon="14.788226860525317"><ele>244.0</ele><time>2026-04-25T10:02:35.999Z</time></trkpt><trkpt lat="40.74226378518231" lon="14.788406249797598"><ele>244.0</ele><time>2026-04-25T10:02:36.999Z</time></trkpt><trkpt lat="40.74215131176639" lon="14.788552684070096"><ele>244.0</ele><time>2026-04-25T10:02:37.999Z</time></trkpt><trkpt lat="40.74204630467332" lon="14.788722176747045"><ele>245.66666666666666</ele><time>2026-04-25T10:02:38.999Z</time></trkpt><trkpt lat="40.741949198407184" lon="14.78890597824927"><ele>247.33333333333331</ele><time>2026-04-25T10:02:39.999Z</time></trkpt><trkpt lat="40.741877346195146" lon="14.789113555225585"><ele>249.0</ele><time>2026-04-25T10:02:40.999Z</time></trkpt><trkpt lat="40.74179675963139" lon="14.789316312359757"><ele>250.75</ele><time>2026-04-25T10:02:41.999Z</time></trkpt><trkpt lat="40.7417185082567" lon="14.789479452399242"><ele>252.5</ele><time>2026-04-25T10:02:42.999Z</time></trkpt><trkpt lat="40.74165087550417" lon="14.789629203771595"><ele>254.25</ele><time>2026-04-25T10:02:43.999Z</time></trkpt><trkpt lat="40.74158949485621" lon="14.78975313160105"><ele>256.0</ele><time>2026-04-25T10:02:44.999Z</time></trkpt><trkpt lat="40.74153320951016" lon="14.789867111281676"><ele>256.0</ele><time>2026-04-25T10:02:45.999Z</time></trkpt><trkpt lat="40.74147466204252" lon="14.789977343163041"><ele>256.0</ele><time>2026-04-25T10:02:46.999Z</time></trkpt><trkpt lat="40.74142210247116" lon="14.790096761658711"><ele>256.0</ele><time>2026-04-25T10:02:47.999Z</time></trkpt><trkpt lat="40.74138609166059" lon="14.79022906764638"><ele>256.0</ele><time>2026-04-25T10:02:48.999Z</time></trkpt><trkpt lat="40.74136316133944" lon="14.790371605661223"><ele>256.0</ele><time>2026-04-25T10:02:49.999Z</time></trkpt><trkpt lat="40.74134752706503" lon="14.790513042299194"><ele>257.8</ele><time>2026-04-25T10:02:50.999Z</time></trkpt><trkpt lat="40.74133845593466" lon="14.790623839726145"><ele>259.6</ele><time>2026-04-25T10:02:52Z</time></trkpt><trkpt lat="40.74134068298951" lon="14.790758514737735"><ele>261.4</ele><time>2026-04-25T10:02:54Z</time></trkpt><trkpt lat="40.74132052394995" lon="14.790873020833365"><ele>263.2</ele><time>2026-04-25T10:02:56Z</time></trkpt><trkpt lat="40.74127966336325" lon="14.790936951898376"><ele>265.0</ele><time>2026-04-25T10:02:58Z</time></trkpt><trkpt lat="40.74114875503029" lon="14.790905909360022"><ele>265.0</ele><time>2026-04-25T10:02:59Z</time></trkpt><trkpt lat="40.74100676735743" lon="14.790862596275355"><ele>265.0</ele><time>2026-04-25T10:03:00Z</time></trkpt><trkpt lat="40.740851522932935" lon="14.790816186124346"><ele>265.0</ele><time>2026-04-25T10:03:01Z</time></trkpt><trkpt lat="40.74072840747469" lon="14.790782590376296"><ele>265.0</ele><time>2026-04-25T10:03:02Z</time></trkpt><trkpt lat="40.740624657119625" lon="14.790734814065745"><ele>265.0</ele><time>2026-04-25T10:03:03Z</time></trkpt><trkpt lat="40.740514192104094" lon="14.790659239898234"><ele>265.0</ele><time>2026-04-25T10:03:04Z</time></trkpt><trkpt lat="40.740406958542195" lon="14.790582523899245"><ele>265.0</ele><time>2026-04-25T10:03:05Z</time></trkpt><trkpt lat="40.740311155842384" lon="14.790521873771073"><ele>265.0</ele><time>2026-04-25T10:03:06Z</time></trkpt><trkpt lat="40.740226023461695" lon="14.790475111683362"><ele>265.0</ele><time>2026-04-25T10:03:07Z</time></trkpt><trkpt lat="40.74014553840162" lon="14.790454877783356"><ele>266.8333333333333</ele><time>2026-04-25T10:03:08Z</time></trkpt><trkpt lat="40.74006187199492" lon="14.790480762024705"><ele>268.66666666666663</ele><time>2026-04-25T10:03:09Z</time></trkpt><trkpt lat="40.73998716561212" lon="14.79053656079183"><ele>270.5</ele><time>2026-04-25T10:03:10Z</time></trkpt><trkpt lat="40.73993730073257" lon="14.790597504342855"><ele>272.3333333333333</ele><time>2026-04-25T10:03:11Z</time></trkpt><trkpt lat="40.739872935181474" lon="14.790663868386796"><ele>274.1666666666667</ele><time>2026-04-25T10:03:13Z</time></trkpt><trkpt lat="40.73986199712918" lon="14.790783321125419"><ele>276.0</ele><time>2026-04-25T10:03:14Z</time></trkpt><trkpt lat="40.739802278834986" lon="14.790931759433304"><ele>277.0</ele><time>2026-04-25T10:03:15Z</time></trkpt><trkpt lat="40.73974696145889" lon="14.791096396915059"><ele>278.0</ele><time>2026-04-25T10:03:16Z</time></trkpt><trkpt lat="40.739683211084454" lon="14.791283257182478"><ele>279.0</ele><time>2026-04-25T10:03:17Z</time></trkpt><trkpt lat="40.73961628875978" lon="14.791479524594829"><ele>279.0</ele><time>2026-04-25T10:03:18Z</time></trkpt><trkpt lat="40.7395581092368" lon="14.791645834078603"><ele>279.0</ele><time>2026-04-25T10:03:19Z</time></trkpt><trkpt lat="40.73950159187079" lon="14.791807887098892"><ele>279.0</ele><time>2026-04-25T10:03:20Z</time></trkpt><trkpt lat="40.73944014973268" lon="14.791983755554167"><ele>279.0</ele><time>2026-04-25T10:03:21Z</time></trkpt><trkpt lat="40.739370717041304" lon="14.792151428521471"><ele>282.0</ele><time>2026-04-25T10:03:22Z</time></trkpt><trkpt lat="40.73929121513529" lon="14.792298251514344"><ele>285.0</ele><time>2026-04-25T10:03:23Z</time></trkpt><trkpt lat="40.73921394974713" lon="14.79241702457373"><ele>288.0</ele><time>2026-04-25T10:03:24Z</time></trkpt><trkpt lat="40.7391577449688" lon="14.792542447245687"><ele>291.0</ele><time>2026-04-25T10:03:25Z</time></trkpt><trkpt lat="40.7390962723705" lon="14.792649774497113"><ele>291.6</ele><time>2026-04-25T10:03:26Z</time></trkpt><trkpt lat="40.73904069582569" lon="14.792746805361089"><ele>292.20000000000005</ele><time>2026-04-25T10:03:27Z</time></trkpt><trkpt lat="40.73899765738751" lon="14.79281876139498"><ele>292.79999999999995</ele><time>2026-04-25T10:03:28Z</time></trkpt><trkpt lat="40.73895617377704" lon="14.792898953560638"><ele>293.4</ele><time>2026-04-25T10:03:30Z</time></trkpt><trkpt lat="40.738884538602385" lon="14.792994727774106"><ele>294.0</ele><time>2026-04-25T10:03:33Z</time></trkpt><trkpt lat="40.73875014091023" lon="14.793002334088737"><ele>294.0</ele><time>2026-04-25T10:03:47Z</time></trkpt><trkpt lat="40.738644001394384" lon="14.793033831392533"><ele>294.0</ele><time>2026-04-25T10:03:48Z</time></trkpt><trkpt lat="40.73855167337885" lon="14.793097876457496"><ele>294.0</ele><time>2026-04-25T10:03:49Z</time></trkpt><trkpt lat="40.738482635067065" lon="14.793164483469088"><ele>294.0</ele><time>2026-04-25T10:03:50Z</time></trkpt><trkpt lat="40.738412767955005" lon="14.79325491676491"><ele>294.0</ele><time>2026-04-25T10:03:51Z</time></trkpt><trkpt lat="40.73834210686964" lon="14.793385862114496"><ele>295.6666666666667</ele><time>2026-04-25T10:03:52Z</time></trkpt><trkpt lat="40.738277800227515" lon="14.793578957256754"><ele>297.33333333333337</ele><time>2026-04-25T10:03:53Z</time></trkpt><trkpt lat="40.73821809693893" lon="14.793788051976001"><ele>299.0</ele><time>2026-04-25T10:03:54Z</time></trkpt><trkpt lat="40.73813985332162" lon="14.793961077096034"><ele>299.0</ele><time>2026-04-25T10:03:55Z</time></trkpt><trkpt lat="40.738065944463216" lon="14.794114158947675"><ele>299.0</ele><time>2026-04-25T10:03:56Z</time></trkpt><trkpt lat="40.73801625661902" lon="14.794258210669849"><ele>299.0</ele><time>2026-04-25T10:03:57Z</time></trkpt><trkpt lat="40.738000498158385" lon="14.794403143748509"><ele>299.0</ele><time>2026-04-25T10:03:58Z</time></trkpt><trkpt lat="40.73801370744991" lon="14.794531702784294"><ele>300.0</ele><time>2026-04-25T10:03:59Z</time></trkpt><trkpt lat="40.738109719672885" lon="14.794660942902155"><ele>301.0</ele><time>2026-04-25T10:04:00Z</time></trkpt><trkpt lat="40.738171648233674" lon="14.794818250022502"><ele>302.0</ele><time>2026-04-25T10:04:01Z</time></trkpt><trkpt lat="40.7381989977614" lon="14.794929520214268"><ele>303.0</ele><time>2026-04-25T10:04:02Z</time></trkpt><trkpt lat="40.73818480799593" lon="14.795037624948645"><ele>304.0</ele><time>2026-04-25T10:04:04Z</time></trkpt><trkpt lat="40.73806207960746" lon="14.795109443481941"><ele>304.0</ele><time>2026-04-25T10:04:06Z</time></trkpt><trkpt lat="40.73797264710618" lon="14.79514054639508"><ele>304.0</ele><time>2026-04-25T10:04:07Z</time></trkpt><trkpt lat="40.73789166117882" lon="14.795266264053241"><ele>304.0</ele><time>2026-04-25T10:04:09Z</time></trkpt><trkpt lat="40.7379365555535" lon="14.795393999957135"><ele>304.0</ele><time>2026-04-25T10:04:10Z</time></trkpt><trkpt lat="40.73795737605034" lon="14.79555663616193"><ele>304.0</ele><time>2026-04-25T10:04:11Z</time></trkpt><trkpt lat="40.73798479775582" lon="14.795677108089485"><ele>304.2</ele><time>2026-04-25T10:04:12Z</time></trkpt><trkpt lat="40.73798799186201" lon="14.795822195725686"><ele>304.4</ele><time>2026-04-25T10:04:14Z</time></trkpt><trkpt lat="40.73790695255653" lon="14.795815492263747"><ele>304.6</ele><time>2026-04-25T10:04:16Z</time></trkpt><trkpt lat="40.737882668980376" lon="14.79567963132687"><ele>304.8</ele><time>2026-04-25T10:04:17.999Z</time></trkpt><trkpt lat="40.73789966551744" lon="14.795556374317702"><ele>305.0</ele><time>2026-04-25T10:04:18.999Z</time></trkpt><trkpt lat="40.737883974672116" lon="14.795432764543381"><ele>305.0</ele><time>2026-04-25T10:04:19.999Z</time></trkpt><trkpt lat="40.73784953542841" lon="14.795336198488041"><ele>305.0</ele><time>2026-04-25T10:04:20.999Z</time></trkpt><trkpt lat="40.73775713574259" lon="14.795305036775733"><ele>305.0</ele><time>2026-04-25T10:04:21.999Z</time></trkpt><trkpt lat="40.73766785391497" lon="14.79528277384869"><ele>305.0</ele><time>2026-04-25T10:04:22.999Z</time></trkpt><trkpt lat="40.73753539861394" lon="14.795302553295718"><ele>305.0</ele><time>2026-04-25T10:04:23.999Z</time></trkpt><trkpt lat="40.73743468795861" lon="14.795302156713724"><ele>305.0</ele><time>2026-04-25T10:04:24.999Z</time></trkpt><trkpt lat="40.737367320768016" lon="14.795271680601326"><ele>305.0</ele><time>2026-04-25T10:04:25.999Z</time></trkpt><trkpt lat="40.73730378005813" lon="14.795241624508723"><ele>305.0</ele><time>2026-04-25T10:04:26.999Z</time></trkpt><trkpt lat="40.73731737069797" lon="14.79509298462346"><ele>305.0</ele><time>2026-04-25T10:04:27.999Z</time></trkpt><trkpt lat="40.73729781544499" lon="14.794961665781788"><ele>305.0</ele><time>2026-04-25T10:04:28.999Z</time></trkpt><trkpt lat="40.73726362557003" lon="14.794841253520163"><ele>305.0</ele><time>2026-04-25T10:04:29.999Z</time></trkpt><trkpt lat="40.737186344509986" lon="14.794728159049262"><ele>305.0</ele><time>2026-04-25T10:04:30.999Z</time></trkpt><trkpt lat="40.73709187515739" lon="14.794614809405003"><ele>305.0</ele><time>2026-04-25T10:04:31.999Z</time></trkpt><trkpt lat="40.73700706914874" lon="14.7945054368588"><ele>305.0</ele><time>2026-04-25T10:04:32.999Z</time></trkpt><trkpt lat="40.73693654039754" lon="14.79441073672242"><ele>306.4</ele><time>2026-04-25T10:04:33.999Z</time></trkpt><trkpt lat="40.736879294815466" lon="14.794353295146118"><ele>307.8</ele><time>2026-04-25T10:04:34.999Z</time></trkpt><trkpt lat="40.73677377871403" lon="14.79433385075304"><ele>309.2</ele><time>2026-04-25T10:04:36.999Z</time></trkpt><trkpt lat="40.736716408118504" lon="14.794384326612786"><ele>310.6</ele><time>2026-04-25T10:04:37.999Z</time></trkpt><trkpt lat="40.736664718318764" lon="14.794474713936271"><ele>312.0</ele><time>2026-04-25T10:04:38.999Z</time></trkpt><trkpt lat="40.736598480605366" lon="14.79462145773562"><ele>313.75</ele><time>2026-04-25T10:04:39.999Z</time></trkpt><trkpt lat="40.73653709507257" lon="14.794781281348037"><ele>315.5</ele><time>2026-04-25T10:04:40.999Z</time></trkpt><trkpt lat="40.73648000757555" lon="14.794932012289816"><ele>317.25</ele><time>2026-04-25T10:04:41.999Z</time></trkpt><trkpt lat="40.736419365581284" lon="14.795075497566707"><ele>319.0</ele><time>2026-04-25T10:04:42.999Z</time></trkpt><trkpt lat="40.736357912764234" lon="14.795210125313051"><ele>320.75</ele><time>2026-04-25T10:04:43.999Z</time></trkpt><trkpt lat="40.73629689940987" lon="14.79534576664458"><ele>322.5</ele><time>2026-04-25T10:04:44.999Z</time></trkpt><trkpt lat="40.73624219382317" lon="14.795496302163547"><ele>324.25</ele><time>2026-04-25T10:04:45.999Z</time></trkpt><trkpt lat="40.736212719321706" lon="14.795675909911916"><ele>326.0</ele><time>2026-04-25T10:04:46.999Z</time></trkpt><trkpt lat="40.73618301708995" lon="14.795857064736285"><ele>327.8</ele><time>2026-04-25T10:04:47.999Z</time></trkpt><trkpt lat="40.73615458541334" lon="14.79601986279906"><ele>329.6</ele><time>2026-04-25T10:04:48.999Z</time></trkpt><trkpt lat="40.73612991392486" lon="14.796163505737443"><ele>331.4</ele><time>2026-04-25T10:04:49.999Z</time></trkpt><trkpt lat="40.736110798211115" lon="14.796273351211287"><ele>333.2</ele><time>2026-04-25T10:04:50.999Z</time></trkpt><trkpt lat="40.73605263825051" lon="14.796381862531966"><ele>335.0</ele><time>2026-04-25T10:04:52.999Z</time></trkpt><trkpt lat="40.73598025785895" lon="14.79640810270099"><ele>335.8</ele><time>2026-04-25T10:04:53.999Z</time></trkpt><trkpt lat="40.73588935306451" lon="14.796336009394071"><ele>336.6</ele><time>2026-04-25T10:04:54.999Z</time></trkpt><trkpt lat="40.73581549306642" lon="14.796276736430805"><ele>337.4</ele><time>2026-04-25T10:04:55.999Z</time></trkpt><trkpt lat="40.73574304386241" lon="14.796209652927292"><ele>338.2</ele><time>2026-04-25T10:04:56.999Z</time></trkpt><trkpt lat="40.73565463542609" lon="14.796173782810394"><ele>339.0</ele><time>2026-04-25T10:04:58Z</time></trkpt><trkpt lat="40.73560756120198" lon="14.796073655890735"><ele>339.0</ele><time>2026-04-25T10:04:59Z</time></trkpt><trkpt lat="40.73553778566425" lon="14.796006913150132"><ele>339.0</ele><time>2026-04-25T10:05:00Z</time></trkpt><trkpt lat="40.73547336326651" lon="14.795950595264486"><ele>339.0</ele><time>2026-04-25T10:05:01Z</time></trkpt><trkpt lat="40.73541344138198" lon="14.795919965473843"><ele>339.0</ele><time>2026-04-25T10:05:02Z</time></trkpt><trkpt lat="40.73534754551634" lon="14.795913915742991"><ele>339.0</ele><time>2026-04-25T10:05:03Z</time></trkpt><trkpt lat="40.73526207482786" lon="14.795950537518559"><ele>339.0</ele><time>2026-04-25T10:05:04Z</time></trkpt><trkpt lat="40.735163888361534" lon="14.796047652535801"><ele>340.0</ele><time>2026-04-25T10:05:05Z</time></trkpt><trkpt lat="40.735057565460785" lon="14.79614596647545"><ele>341.0</ele><time>2026-04-25T10:05:06Z</time></trkpt><trkpt lat="40.73495280884837" lon="14.796219616214863"><ele>342.0</ele><time>2026-04-25T10:05:07Z</time></trkpt><trkpt lat="40.73483883153044" lon="14.796284870327979"><ele>343.0</ele><time>2026-04-25T10:05:08Z</time></trkpt><trkpt lat="40.73473737340652" lon="14.796349574238816"><ele>343.0</ele><time>2026-04-25T10:05:09Z</time></trkpt><trkpt lat="40.73464999537121" lon="14.796420047431983"><ele>343.0</ele><time>2026-04-25T10:05:10Z</time></trkpt><trkpt lat="40.73457206318694" lon="14.79649245230112"><ele>343.0</ele><time>2026-04-25T10:05:11Z</time></trkpt><trkpt lat="40.73450747371678" lon="14.796553620123479"><ele>343.0</ele><time>2026-04-25T10:05:12Z</time></trkpt><trkpt lat="40.734455358333136" lon="14.796601735008633"><ele>343.0</ele><time>2026-04-25T10:05:13Z</time></trkpt><trkpt lat="40.734393350882485" lon="14.796657517564736"><ele>343.0</ele><time>2026-04-25T10:05:14Z</time></trkpt><trkpt lat="40.73430865893995" lon="14.79670507319466"><ele>343.66666666666663</ele><time>2026-04-25T10:05:15Z</time></trkpt><trkpt lat="40.734248954539446" lon="14.79680090063596"><ele>344.3333333333333</ele><time>2026-04-25T10:05:16Z</time></trkpt><trkpt lat="40.734183150988585" lon="14.79687002160754"><ele>345.0</ele><time>2026-04-25T10:05:17Z</time></trkpt><trkpt lat="40.73412920884638" lon="14.796937083760756"><ele>345.6666666666667</ele><time>2026-04-25T10:05:18Z</time></trkpt><trkpt lat="40.73407637890989" lon="14.797001943950537"><ele>346.33333333333337</ele><time>2026-04-25T10:05:19Z</time></trkpt><trkpt lat="40.734013834239164" lon="14.797075715247578"><ele>347.0</ele><time>2026-04-25T10:05:20Z</time></trkpt><trkpt lat="40.73393133652702" lon="14.797159025329796"><ele>349.75</ele><time>2026-04-25T10:05:21Z</time></trkpt><trkpt lat="40.73382693181481" lon="14.797257943911852"><ele>352.5</ele><time>2026-04-25T10:05:22Z</time></trkpt><trkpt lat="40.73372875748082" lon="14.797334227910117"><ele>355.25</ele><time>2026-04-25T10:05:23Z</time></trkpt><trkpt lat="40.73362063285924" lon="14.797391233097633"><ele>358.0</ele><time>2026-04-25T10:05:24Z</time></trkpt><trkpt lat="40.733511425572594" lon="14.797433377130075"><ele>358.75</ele><time>2026-04-25T10:05:25Z</time></trkpt><trkpt lat="40.733401157332594" lon="14.79746575555745"><ele>359.5</ele><time>2026-04-25T10:05:26Z</time></trkpt><trkpt lat="40.73330418924889" lon="14.797511505795203"><ele>360.25</ele><time>2026-04-25T10:05:27Z</time></trkpt><trkpt lat="40.73321328817946" lon="14.797592171969239"><ele>361.0</ele><time>2026-04-25T10:05:28Z</time></trkpt><trkpt lat="40.733111948565416" lon="14.797686684873897"><ele>363.20000000000005</ele><time>2026-04-25T10:05:29Z</time></trkpt><trkpt lat="40.73300957902832" lon="14.797786360064597"><ele>365.40000000000003</ele><time>2026-04-25T10:05:30Z</time></trkpt><trkpt lat="40.73291851923714" lon="14.797865239109681"><ele>367.6</ele><time>2026-04-25T10:05:31Z</time></trkpt><trkpt lat="40.732861635999065" lon="14.797929867152366"><ele>369.8</ele><time>2026-04-25T10:05:32Z</time></trkpt><trkpt lat="40.73280255478262" lon="14.797970386493937"><ele>372.0</ele><time>2026-04-25T10:05:33Z</time></trkpt><trkpt lat="40.73272871646099" lon="14.79798322388988"><ele>373.20000000000005</ele><time>2026-04-25T10:05:34Z</time></trkpt><trkpt lat="40.73265369866674" lon="14.797952724641185"><ele>374.4</ele><time>2026-04-25T10:05:35Z</time></trkpt><trkpt lat="40.732575022644674" lon="14.797895330771325"><ele>375.6</ele><time>2026-04-25T10:05:36Z</time></trkpt><trkpt lat="40.73249381551016" lon="14.797812751534698"><ele>376.79999999999995</ele><time>2026-04-25T10:05:37Z</time></trkpt><trkpt lat="40.73241676496528" lon="14.797736889226764"><ele>378.0</ele><time>2026-04-25T10:05:38Z</time></trkpt><trkpt lat="40.73235075531234" lon="14.797641074202652"><ele>378.0</ele><time>2026-04-25T10:05:39Z</time></trkpt><trkpt lat="40.73227795732353" lon="14.797581542207853"><ele>378.0</ele><time>2026-04-25T10:05:40Z</time></trkpt><trkpt lat="40.732212383338045" lon="14.79750914364463"><ele>378.0</ele><time>2026-04-25T10:05:41Z</time></trkpt><trkpt lat="40.73211095118971" lon="14.797463371755043"><ele>378.0</ele><time>2026-04-25T10:05:42Z</time></trkpt><trkpt lat="40.731988935339025" lon="14.797424861471292"><ele>378.0</ele><time>2026-04-25T10:05:43Z</time></trkpt><trkpt lat="40.73187180932717" lon="14.79739363570136"><ele>381.0</ele><time>2026-04-25T10:05:44Z</time></trkpt><trkpt lat="40.731790435026284" lon="14.79733857998426"><ele>384.0</ele><time>2026-04-25T10:05:45Z</time></trkpt><trkpt lat="40.73173079076715" lon="14.797302430259764"><ele>387.0</ele><time>2026-04-25T10:05:46Z</time></trkpt><trkpt lat="40.73168078116543" lon="14.797244591843965"><ele>390.0</ele><time>2026-04-25T10:05:47Z</time></trkpt><trkpt lat="40.73166730488275" lon="14.797136305452769"><ele>393.0</ele><time>2026-04-25T10:05:48Z</time></trkpt><trkpt lat="40.73162497965247" lon="14.797035226456538"><ele>396.0</ele><time>2026-04-25T10:05:49Z</time></trkpt><trkpt lat="40.73159771320152" lon="14.796943563676216"><ele>396.0</ele><time>2026-04-25T10:05:50Z</time></trkpt><trkpt lat="40.7315948608257" lon="14.79685337565124"><ele>396.0</ele><time>2026-04-25T10:05:52Z</time></trkpt><trkpt lat="40.73149612696108" lon="14.796856717483829"><ele>396.0</ele><time>2026-04-25T10:05:59Z</time></trkpt><trkpt lat="40.73145579698062" lon="14.796925376201497"><ele>396.0</ele><time>2026-04-25T10:06:01Z</time></trkpt><trkpt lat="40.731425798274195" lon="14.797061781958174"><ele>396.0</ele><time>2026-04-25T10:06:03Z</time></trkpt><trkpt lat="40.731405677314115" lon="14.797146459673817"><ele>396.0</ele><time>2026-04-25T10:06:04Z</time></trkpt><trkpt lat="40.73137136284665" lon="14.797223202856621"><ele>396.0</ele><time>2026-04-25T10:06:05Z</time></trkpt><trkpt lat="40.731327908020816" lon="14.797283817452513"><ele>396.0</ele><time>2026-04-25T10:06:06Z</time></trkpt><trkpt lat="40.73128197260606" lon="14.797432062271247"><ele>396.0</ele><time>2026-04-25T10:06:08Z</time></trkpt><trkpt lat="40.73126732541476" lon="14.79754253891495"><ele>396.0</ele><time>2026-04-25T10:06:09Z</time></trkpt><trkpt lat="40.731252839463345" lon="14.797659801082203"><ele>396.0</ele><time>2026-04-25T10:06:10Z</time></trkpt><trkpt lat="40.73123072016081" lon="14.797744049821729"><ele>396.0</ele><time>2026-04-25T10:06:11Z</time></trkpt><trkpt lat="40.73125021850699" lon="14.797874411103528"><ele>397.5</ele><time>2026-04-25T10:06:13Z</time></trkpt><trkpt lat="40.731231986757656" lon="14.797971628356732"><ele>399.0</ele><time>2026-04-25T10:06:14.999Z</time></trkpt><trkpt lat="40.731121426738504" lon="14.798009614917586"><ele>400.5</ele><time>2026-04-25T10:06:16.999Z</time></trkpt><trkpt lat="40.731041128855686" lon="14.797979789993615"><ele>402.0</ele><time>2026-04-25T10:06:17.999Z</time></trkpt><trkpt lat="40.730976218530806" lon="14.797953149109558"><ele>403.5</ele><time>2026-04-25T10:06:18.999Z</time></trkpt><trkpt lat="40.7309095643857" lon="14.797976544132721"><ele>405.0</ele><time>2026-04-25T10:06:20.999Z</time></trkpt><trkpt lat="40.73090644428175" lon="14.798103737783977"><ele>408.0</ele><time>2026-04-25T10:06:22.999Z</time></trkpt><trkpt lat="40.73091455184861" lon="14.798196225416937"><ele>411.0</ele><time>2026-04-25T10:06:23.999Z</time></trkpt><trkpt lat="40.73086894759568" lon="14.798270806404458"><ele>414.0</ele><time>2026-04-25T10:06:25.999Z</time></trkpt><trkpt lat="40.73078667646035" lon="14.798397498194563"><ele>417.0</ele><time>2026-04-25T10:06:27.999Z</time></trkpt><trkpt lat="40.730716970639925" lon="14.798442370100794"><ele>420.0</ele><time>2026-04-25T10:06:28.999Z</time></trkpt><trkpt lat="40.730648415750935" lon="14.798454304532413"><ele>423.0</ele><time>2026-04-25T10:06:29.999Z</time></trkpt><trkpt lat="40.73058421229813" lon="14.798477837748791"><ele>424.4</ele><time>2026-04-25T10:06:30.999Z</time></trkpt><trkpt lat="40.73049503598927" lon="14.798583223087045"><ele>425.79999999999995</ele><time>2026-04-25T10:06:32.999Z</time></trkpt><trkpt lat="40.730480228226895" lon="14.798675698238439"><ele>427.2</ele><time>2026-04-25T10:06:33.999Z</time></trkpt><trkpt lat="40.73045077234329" lon="14.798764793835339"><ele>428.6</ele><time>2026-04-25T10:06:34.999Z</time></trkpt><trkpt lat="40.73041396617548" lon="14.798882936807377"><ele>430.0</ele><time>2026-04-25T10:06:35.999Z</time></trkpt><trkpt lat="40.73037417632087" lon="14.799000253505366"><ele>430.00000000000006</ele><time>2026-04-25T10:06:36.999Z</time></trkpt><trkpt lat="40.73034734017758" lon="14.799135407112209"><ele>430.0</ele><time>2026-04-25T10:06:37.999Z</time></trkpt><trkpt lat="40.730315706216075" lon="14.79924788827995"><ele>430.0</ele><time>2026-04-25T10:06:38.999Z</time></trkpt><trkpt lat="40.730285490008896" lon="14.799354309284741"><ele>430.0</ele><time>2026-04-25T10:06:39.999Z</time></trkpt><trkpt lat="40.73024139753571" lon="14.799441037338015"><ele>430.00000000000006</ele><time>2026-04-25T10:06:40.999Z</time></trkpt><trkpt lat="40.73020750063691" lon="14.79952818555759"><ele>430.0</ele><time>2026-04-25T10:06:41.999Z</time></trkpt><trkpt lat="40.730105510350285" lon="14.799622351302718"><ele>434.0</ele><time>2026-04-25T10:06:43.999Z</time></trkpt><trkpt lat="40.73003206129868" lon="14.799662152839792"><ele>438.0</ele><time>2026-04-25T10:06:44.999Z</time></trkpt><trkpt lat="40.7299738038066" lon="14.799699958130576"><ele>442.0</ele><time>2026-04-25T10:06:45.999Z</time></trkpt><trkpt lat="40.729880539593914" lon="14.799763283832963"><ele>446.0</ele><time>2026-04-25T10:06:47.999Z</time></trkpt><trkpt lat="40.72978971616276" lon="14.799874453520193"><ele>450.0</ele><time>2026-04-25T10:06:49.999Z</time></trkpt><trkpt lat="40.729770848921724" lon="14.800003278825791"><ele>450.0</ele><time>2026-04-25T10:06:51.999Z</time></trkpt><trkpt lat="40.72983188578774" lon="14.800134777337536"><ele>450.0</ele><time>2026-04-25T10:06:53.999Z</time></trkpt><trkpt lat="40.72987542954361" lon="14.800196140006182"><ele>450.0</ele><time>2026-04-25T10:06:54.999Z</time></trkpt><trkpt lat="40.72990648370683" lon="14.80033826125675"><ele>450.0</ele><time>2026-04-25T10:06:56.999Z</time></trkpt><trkpt lat="40.729914570254714" lon="14.800442358240042"><ele>450.0</ele><time>2026-04-25T10:06:57.999Z</time></trkpt><trkpt lat="40.729935755397854" lon="14.80055548107557"><ele>451.8</ele><time>2026-04-25T10:06:58.999Z</time></trkpt><trkpt lat="40.72997776578654" lon="14.800669198776882"><ele>453.6</ele><time>2026-04-25T10:06:59.999Z</time></trkpt><trkpt lat="40.73001577994845" lon="14.800794648649706"><ele>455.4</ele><time>2026-04-25T10:07:00.999Z</time></trkpt><trkpt lat="40.73003079949537" lon="14.80089315836149"><ele>457.2</ele><time>2026-04-25T10:07:01.999Z</time></trkpt><trkpt lat="40.73002742347109" lon="14.800988146726048"><ele>459.0</ele><time>2026-04-25T10:07:02.999Z</time></trkpt><trkpt lat="40.729980073443556" lon="14.801129743474787"><ele>460.0</ele><time>2026-04-25T10:07:05Z</time></trkpt><trkpt lat="40.72992249813744" lon="14.801229534941202"><ele>461.0</ele><time>2026-04-25T10:07:06Z</time></trkpt><trkpt lat="40.729874023130975" lon="14.801333471937939"><ele>462.0</ele><time>2026-04-25T10:07:07Z</time></trkpt><trkpt lat="40.72984799479008" lon="14.801428818054593"><ele>463.0</ele><time>2026-04-25T10:07:08Z</time></trkpt><trkpt lat="40.729813668625084" lon="14.801510191767475"><ele>464.0</ele><time>2026-04-25T10:07:09Z</time></trkpt><trkpt lat="40.72977100988998" lon="14.801580880737239"><ele>465.0</ele><time>2026-04-25T10:07:10Z</time></trkpt><trkpt lat="40.72972563160468" lon="14.801668602275694"><ele>465.0</ele><time>2026-04-25T10:07:11Z</time></trkpt><trkpt lat="40.72968022042799" lon="14.801735151860454"><ele>465.0</ele><time>2026-04-25T10:07:12Z</time></trkpt><trkpt lat="40.729658836050554" lon="14.801853649667285"><ele>465.0</ele><time>2026-04-25T10:07:14Z</time></trkpt><trkpt lat="40.729716078515324" lon="14.801946293790234"><ele>465.0</ele><time>2026-04-25T10:07:16Z</time></trkpt><trkpt lat="40.72979432001986" lon="14.802000565212165"><ele>465.0</ele><time>2026-04-25T10:07:17Z</time></trkpt><trkpt lat="40.72988041866861" lon="14.802063255659736"><ele>465.0</ele><time>2026-04-25T10:07:18Z</time></trkpt><trkpt lat="40.72994142031176" lon="14.80211776154323"><ele>463.5</ele><time>2026-04-25T10:07:19Z</time></trkpt><trkpt lat="40.729990315306146" lon="14.802177313773099"><ele>462.0</ele><time>2026-04-25T10:07:20Z</time></trkpt><trkpt lat="40.73003042854215" lon="14.802245517422458"><ele>460.5</ele><time>2026-04-25T10:07:21Z</time></trkpt><trkpt lat="40.730088613794" lon="14.802348832932621"><ele>459.0</ele><time>2026-04-25T10:07:22Z</time></trkpt><trkpt lat="40.730155953778194" lon="14.802435671104575"><ele>457.5</ele><time>2026-04-25T10:07:23Z</time></trkpt><trkpt lat="40.730208332309715" lon="14.802520965009066"><ele>456.0</ele><time>2026-04-25T10:07:24Z</time></trkpt><trkpt lat="40.73025454552466" lon="14.802624522665225"><ele>457.6</ele><time>2026-04-25T10:07:25Z</time></trkpt><trkpt lat="40.730291145528675" lon="14.802748921258473"><ele>459.20000000000005</ele><time>2026-04-25T10:07:26Z</time></trkpt><trkpt lat="40.73030896098819" lon="14.802877383394993"><ele>460.79999999999995</ele><time>2026-04-25T10:07:27Z</time></trkpt><trkpt lat="40.73031463422228" lon="14.803014897677532"><ele>462.4</ele><time>2026-04-25T10:07:28Z</time></trkpt><trkpt lat="40.73031963143306" lon="14.803151515792171"><ele>464.0</ele><time>2026-04-25T10:07:29Z</time></trkpt><trkpt lat="40.7303418975714" lon="14.80329599600715"><ele>464.0</ele><time>2026-04-25T10:07:30Z</time></trkpt><trkpt lat="40.73037111251814" lon="14.803454872176642"><ele>464.0</ele><time>2026-04-25T10:07:31Z</time></trkpt><trkpt lat="40.730405370162146" lon="14.803609956665682"><ele>464.0</ele><time>2026-04-25T10:07:32Z</time></trkpt><trkpt lat="40.73043737149595" lon="14.803732412968605"><ele>464.0</ele><time>2026-04-25T10:07:33Z</time></trkpt><trkpt lat="40.730449586715174" lon="14.803835364918891"><ele>464.0</ele><time>2026-04-25T10:07:34Z</time></trkpt><trkpt lat="40.73044770637671" lon="14.803958170730146"><ele>464.8333333333333</ele><time>2026-04-25T10:07:35Z</time></trkpt><trkpt lat="40.730436816305605" lon="14.804087348308038"><ele>465.66666666666663</ele><time>2026-04-25T10:07:36Z</time></trkpt><trkpt lat="40.73043607840383" lon="14.804181807787701"><ele>466.5</ele><time>2026-04-25T10:07:37Z</time></trkpt><trkpt lat="40.73045717844821" lon="14.80426210583065"><ele>467.33333333333337</ele><time>2026-04-25T10:07:38Z</time></trkpt><trkpt lat="40.73049921025317" lon="14.804362537917061"><ele>468.1666666666667</ele><time>2026-04-25T10:07:39Z</time></trkpt><trkpt lat="40.73054306181876" lon="14.80448434078589"><ele>469.0</ele><time>2026-04-25T10:07:40Z</time></trkpt><trkpt lat="40.730567159172566" lon="14.80459125797444"><ele>471.4</ele><time>2026-04-25T10:07:41Z</time></trkpt><trkpt lat="40.730572154610115" lon="14.804700628627144"><ele>473.79999999999995</ele><time>2026-04-25T10:07:42Z</time></trkpt><trkpt lat="40.73057557690812" lon="14.804819590139973"><ele>476.20000000000005</ele><time>2026-04-25T10:07:43Z</time></trkpt><trkpt lat="40.730588546517374" lon="14.804931921984657"><ele>478.6</ele><time>2026-04-25T10:07:44Z</time></trkpt><trkpt lat="40.73059013865311" lon="14.80506436974787"><ele>481.0</ele><time>2026-04-25T10:07:45Z</time></trkpt><trkpt lat="40.7305890691845" lon="14.805195994998025"><ele>483.83333333333337</ele><time>2026-04-25T10:07:46Z</time></trkpt><trkpt lat="40.73057211795995" lon="14.805330539123393"><ele>486.6666666666667</ele><time>2026-04-25T10:07:47Z</time></trkpt><trkpt lat="40.73056596052125" lon="14.805446592480303"><ele>489.5</ele><time>2026-04-25T10:07:48Z</time></trkpt><trkpt lat="40.73058287752028" lon="14.805562873368226"><ele>492.33333333333337</ele><time>2026-04-25T10:07:49Z</time></trkpt><trkpt lat="40.730606222486244" lon="14.805642071593248"><ele>495.1666666666667</ele><time>2026-04-25T10:07:50Z</time></trkpt><trkpt lat="40.73066495237613" lon="14.805753395467693"><ele>498.0</ele><time>2026-04-25T10:07:52Z</time></trkpt><trkpt lat="40.7307779521901" lon="14.805795337944096"><ele>498.0</ele><time>2026-04-25T10:07:54Z</time></trkpt><trkpt lat="40.73090149698751" lon="14.805732492763386"><ele>497.99999999999994</ele><time>2026-04-25T10:07:56Z</time></trkpt><trkpt lat="40.73098686741063" lon="14.80569484607202"><ele>497.99999999999994</ele><time>2026-04-25T10:07:58Z</time></trkpt><trkpt lat="40.73109083746313" lon="14.805759284534382"><ele>498.0</ele><time>2026-04-25T10:08:00Z</time></trkpt><trkpt lat="40.73114878346046" lon="14.805844967082159"><ele>498.0</ele><time>2026-04-25T10:08:01Z</time></trkpt><trkpt lat="40.73120773797212" lon="14.805945071189395"><ele>502.1666666666667</ele><time>2026-04-25T10:08:02Z</time></trkpt><trkpt lat="40.73126328570651" lon="14.806028642091922"><ele>506.33333333333337</ele><time>2026-04-25T10:08:03Z</time></trkpt><trkpt lat="40.73131048574759" lon="14.80610900673049"><ele>510.5</ele><time>2026-04-25T10:08:04Z</time></trkpt><trkpt lat="40.731364394465324" lon="14.80617701563406"><ele>514.6666666666667</ele><time>2026-04-25T10:08:05Z</time></trkpt><trkpt lat="40.73140637585617" lon="14.806261773654148"><ele>518.8333333333334</ele><time>2026-04-25T10:08:06Z</time></trkpt><trkpt lat="40.731455236936704" lon="14.806333650693862"><ele>523.0</ele><time>2026-04-25T10:08:07Z</time></trkpt><trkpt lat="40.731493254605624" lon="14.806401580430459"><ele>523.0</ele><time>2026-04-25T10:08:08Z</time></trkpt><trkpt lat="40.73157697814764" lon="14.806533736656407"><ele>523.0</ele><time>2026-04-25T10:08:10Z</time></trkpt><trkpt lat="40.731625618793935" lon="14.806619613862203"><ele>523.0</ele><time>2026-04-25T10:08:11Z</time></trkpt><trkpt lat="40.73169022894349" lon="14.80675407492932"><ele>523.0</ele><time>2026-04-25T10:08:13Z</time></trkpt><trkpt lat="40.73173827063317" lon="14.806815200623737"><ele>523.0</ele><time>2026-04-25T10:08:14Z</time></trkpt><trkpt lat="40.73178954020049" lon="14.806888460364844"><ele>529.0</ele><time>2026-04-25T10:08:15Z</time></trkpt><trkpt lat="40.73183754985935" lon="14.80696309272146"><ele>535.0</ele><time>2026-04-25T10:08:16Z</time></trkpt><trkpt lat="40.73191198248085" lon="14.807070907181815"><ele>541.0</ele><time>2026-04-25T10:08:17.999Z</time></trkpt><trkpt lat="40.73196488310671" lon="14.807163786229003"><ele>547.0</ele><time>2026-04-25T10:08:19.999Z</time></trkpt><trkpt lat="40.732050279484454" lon="14.807157726646105"><ele>553.0</ele><time>2026-04-25T10:08:21.999Z</time></trkpt><trkpt lat="40.73211995144436" lon="14.807057100625457"><ele>553.3333333333334</ele><time>2026-04-25T10:08:23.999Z</time></trkpt><trkpt lat="40.73223679790976" lon="14.807016961523946"><ele>553.6666666666667</ele><time>2026-04-25T10:08:27.999Z</time></trkpt><trkpt lat="40.73230840823808" lon="14.807049141397114"><ele>554.0</ele><time>2026-04-25T10:08:28.999Z</time></trkpt><trkpt lat="40.732371819355706" lon="14.807092379161395"><ele>554.3333333333334</ele><time>2026-04-25T10:08:29.999Z</time></trkpt><trkpt lat="40.73245734080464" lon="14.80712493630823"><ele>554.6666666666666</ele><time>2026-04-25T10:08:31.999Z</time></trkpt><trkpt lat="40.7324793275749" lon="14.807034350506944"><ele>555.0</ele><time>2026-04-25T10:08:33.999Z</time></trkpt><trkpt lat="40.73244424388798" lon="14.80687300675247"><ele>554.0</ele><time>2026-04-25T10:08:35.999Z</time></trkpt><trkpt lat="40.732414860042205" lon="14.806780625003636"><ele>553.0</ele><time>2026-04-25T10:08:36.999Z</time></trkpt><trkpt lat="40.732382236443534" lon="14.806676162997379"><ele>552.0</ele><time>2026-04-25T10:08:37.999Z</time></trkpt><trkpt lat="40.73234652841406" lon="14.806587788733143"><ele>551.0</ele><time>2026-04-25T10:08:38.999Z</time></trkpt><trkpt lat="40.73230707888041" lon="14.806509928212751"><ele>550.0</ele><time>2026-04-25T10:08:39.999Z</time></trkpt><trkpt lat="40.73228610047994" lon="14.806429995442764"><ele>549.0</ele><time>2026-04-25T10:08:40.999Z</time></trkpt><trkpt lat="40.73229124212524" lon="14.806324437958578"><ele>549.0</ele><time>2026-04-25T10:08:41.999Z</time></trkpt><trkpt lat="40.732312585539226" lon="14.806198070091375"><ele>549.0</ele><time>2026-04-25T10:08:43.999Z</time></trkpt><trkpt lat="40.73226988982204" lon="14.806086057035905"><ele>549.0</ele><time>2026-04-25T10:08:45.999Z</time></trkpt><trkpt lat="40.732242194427606" lon="14.805991225851105"><ele>549.0</ele><time>2026-04-25T10:08:47.999Z</time></trkpt><trkpt lat="40.732238027768155" lon="14.805896992525339"><ele>549.0</ele><time>2026-04-25T10:08:55.999Z</time></trkpt><trkpt lat="40.73221201724738" lon="14.805756350259154"><ele>549.5</ele><time>2026-04-25T10:08:58.999Z</time></trkpt><trkpt lat="40.73222087456423" lon="14.805636921348972"><ele>550.0</ele><time>2026-04-25T10:09:00.999Z</time></trkpt><trkpt lat="40.73229272922958" lon="14.805552248156127"><ele>550.5</ele><time>2026-04-25T10:09:02.999Z</time></trkpt><trkpt lat="40.73235606282348" lon="14.805517531551267"><ele>551.0</ele><time>2026-04-25T10:09:03.999Z</time></trkpt><trkpt lat="40.73242328911229" lon="14.80549775158002"><ele>551.5</ele><time>2026-04-25T10:09:04.999Z</time></trkpt><trkpt lat="40.732486889784965" lon="14.805454067419333"><ele>552.0</ele><time>2026-04-25T10:09:05.999Z</time></trkpt><trkpt lat="40.732543731264684" lon="14.805381585696543"><ele>552.0</ele><time>2026-04-25T10:09:06.999Z</time></trkpt><trkpt lat="40.73257926705814" lon="14.805302179067079"><ele>552.0</ele><time>2026-04-25T10:09:07.999Z</time></trkpt><trkpt lat="40.7326649533504" lon="14.805248658470795"><ele>552.0</ele><time>2026-04-25T10:09:11Z</time></trkpt><trkpt lat="40.73277234239115" lon="14.8052871952396"><ele>552.0</ele><time>2026-04-25T10:09:13Z</time></trkpt><trkpt lat="40.73286146570567" lon="14.805334185429976"><ele>552.0</ele><time>2026-04-25T10:09:15Z</time></trkpt><trkpt lat="40.73293029795581" lon="14.8054324665867"><ele>554.4</ele><time>2026-04-25T10:09:17Z</time></trkpt><trkpt lat="40.733004852999564" lon="14.805510333480864"><ele>556.8000000000001</ele><time>2026-04-25T10:09:18Z</time></trkpt><trkpt lat="40.73308974550472" lon="14.805597710078615"><ele>559.2</ele><time>2026-04-25T10:09:19Z</time></trkpt><trkpt lat="40.73317258607988" lon="14.805661382493417"><ele>561.6</ele><time>2026-04-25T10:09:20Z</time></trkpt><trkpt lat="40.73325119058899" lon="14.805713850323993"><ele>564.0</ele><time>2026-04-25T10:09:21Z</time></trkpt><trkpt lat="40.7333217209648" lon="14.805767649181274"><ele>564.0</ele><time>2026-04-25T10:09:22Z</time></trkpt><trkpt lat="40.73338219138404" lon="14.805804389182079"><ele>564.0</ele><time>2026-04-25T10:09:23Z</time></trkpt><trkpt lat="40.73345687484243" lon="14.805839056984984"><ele>564.0</ele><time>2026-04-25T10:09:24Z</time></trkpt><trkpt lat="40.73354281693637" lon="14.805878579068638"><ele>564.0</ele><time>2026-04-25T10:09:25Z</time></trkpt><trkpt lat="40.73363829132245" lon="14.805912292664427"><ele>564.0</ele><time>2026-04-25T10:09:26Z</time></trkpt><trkpt lat="40.733724056173315" lon="14.805948252932676"><ele>564.0</ele><time>2026-04-25T10:09:27Z</time></trkpt><trkpt lat="40.73379945227475" lon="14.806004893281175"><ele>567.4</ele><time>2026-04-25T10:09:28Z</time></trkpt><trkpt lat="40.73387326341308" lon="14.806035957637608"><ele>570.8</ele><time>2026-04-25T10:09:30Z</time></trkpt><trkpt lat="40.73394922695884" lon="14.8059662560887"><ele>574.2</ele><time>2026-04-25T10:09:33Z</time></trkpt><trkpt lat="40.733990187377955" lon="14.805717488753626"><ele>577.6</ele><time>2026-04-25T10:09:37Z</time></trkpt><trkpt lat="40.73401003021738" lon="14.805629467363742"><ele>581.0</ele><time>2026-04-25T10:09:38Z</time></trkpt><trkpt lat="40.73402214902181" lon="14.805534160571682"><ele>581.0</ele><time>2026-04-25T10:09:39Z</time></trkpt><trkpt lat="40.73405035363672" lon="14.80545059567263"><ele>581.0</ele><time>2026-04-25T10:09:40Z</time></trkpt><trkpt lat="40.734070320650055" lon="14.805362023407984"><ele>581.0</ele><time>2026-04-25T10:09:41Z</time></trkpt><trkpt lat="40.73409010187918" lon="14.805269887960991"><ele>581.0</ele><time>2026-04-25T10:09:42Z</time></trkpt><trkpt lat="40.734109201531204" lon="14.805170591272946"><ele>581.0</ele><time>2026-04-25T10:09:43Z</time></trkpt><trkpt lat="40.73412321016933" lon="14.805034363500384"><ele>581.0</ele><time>2026-04-25T10:09:44Z</time></trkpt><trkpt lat="40.73414294188045" lon="14.804863332974985"><ele>578.4</ele><time>2026-04-25T10:09:46Z</time></trkpt><trkpt lat="40.73421281335479" lon="14.804749742977181"><ele>575.8</ele><time>2026-04-25T10:09:48Z</time></trkpt><trkpt lat="40.73427031943516" lon="14.80466682977765"><ele>573.1999999999999</ele><time>2026-04-25T10:09:50Z</time></trkpt><trkpt lat="40.73435225473009" lon="14.804665591184861"><ele>570.6</ele><time>2026-04-25T10:09:52Z</time></trkpt><trkpt lat="40.73437088043093" lon="14.804784073023718"><ele>568.0</ele><time>2026-04-25T10:09:54Z</time></trkpt><trkpt lat="40.73432894021809" lon="14.804887966222102"><ele>568.0</ele><time>2026-04-25T10:09:56Z</time></trkpt><trkpt lat="40.734254431415344" lon="14.8049797348317"><ele>568.0</ele><time>2026-04-25T10:09:58Z</time></trkpt><trkpt lat="40.73422610967766" lon="14.80513824936872"><ele>568.0</ele><time>2026-04-25T10:10:00Z</time></trkpt><trkpt lat="40.73422136889328" lon="14.805248272436438"><ele>568.0</ele><time>2026-04-25T10:10:01Z</time></trkpt><trkpt lat="40.73423144012728" lon="14.805361694221983"><ele>568.0</ele><time>2026-04-25T10:10:02Z</time></trkpt><trkpt lat="40.73425267146919" lon="14.805471819023404"><ele>570.1666666666667</ele><time>2026-04-25T10:10:03Z</time></trkpt><trkpt lat="40.734269597197226" lon="14.80558410248267"><ele>572.3333333333334</ele><time>2026-04-25T10:10:04Z</time></trkpt><trkpt lat="40.734264272131405" lon="14.805691123631798"><ele>574.5</ele><time>2026-04-25T10:10:05Z</time></trkpt><trkpt lat="40.73426153267827" lon="14.80580367549708"><ele>576.6666666666666</ele><time>2026-04-25T10:10:06Z</time></trkpt><trkpt lat="40.734265516606804" lon="14.805910224512278"><ele>578.8333333333333</ele><time>2026-04-25T10:10:07Z</time></trkpt><trkpt lat="40.73427631017013" lon="14.806004942002508"><ele>581.0</ele><time>2026-04-25T10:10:08Z</time></trkpt><trkpt lat="40.734274034271124" lon="14.806111861289853"><ele>586.6</ele><time>2026-04-25T10:10:09Z</time></trkpt><trkpt lat="40.734271386307675" lon="14.80621892257239"><ele>592.2</ele><time>2026-04-25T10:10:10Z</time></trkpt><trkpt lat="40.73428041362243" lon="14.806323260085797"><ele>597.8</ele><time>2026-04-25T10:10:11Z</time></trkpt><trkpt lat="40.734288673513646" lon="14.806460988780751"><ele>603.4</ele><time>2026-04-25T10:10:13Z</time></trkpt><trkpt lat="40.73428488920706" lon="14.806565953055955"><ele>609.0</ele><time>2026-04-25T10:10:15Z</time></trkpt><trkpt lat="40.73420305659359" lon="14.806666704551153"><ele>609.0</ele><time>2026-04-25T10:10:17Z</time></trkpt><trkpt lat="40.734087978369246" lon="14.806658825317502"><ele>609.0</ele><time>2026-04-25T10:10:18.999Z</time></trkpt><trkpt lat="40.733971438568545" lon="14.806616997017"><ele>609.0</ele><time>2026-04-25T10:10:20.999Z</time></trkpt><trkpt lat="40.73389594050328" lon="14.806619607660362"><ele>609.0</ele><time>2026-04-25T10:10:21.999Z</time></trkpt><trkpt lat="40.73376121970133" lon="14.80664584306595"><ele>609.0</ele><time>2026-04-25T10:10:23.999Z</time></trkpt><trkpt lat="40.73367551928709" lon="14.806652658102516"><ele>609.0</ele><time>2026-04-25T10:10:24.999Z</time></trkpt><trkpt lat="40.73358707932045" lon="14.806639195037853"><ele>609.0</ele><time>2026-04-25T10:10:25.999Z</time></trkpt><trkpt lat="40.73349547826808" lon="14.806665380671225"><ele>609.0</ele><time>2026-04-25T10:10:27.999Z</time></trkpt><trkpt lat="40.733445342826855" lon="14.806753278067943"><ele>609.0</ele><time>2026-04-25T10:10:29.999Z</time></trkpt><trkpt lat="40.73344080651613" lon="14.806839508971967"><ele>609.0</ele><time>2026-04-25T10:10:30.999Z</time></trkpt><trkpt lat="40.73347033097296" lon="14.806927799620377"><ele>609.0</ele><time>2026-04-25T10:10:31.999Z</time></trkpt><trkpt lat="40.73351060872308" lon="14.807005325522018"><ele>613.5</ele><time>2026-04-25T10:10:32.999Z</time></trkpt><trkpt lat="40.733558638486585" lon="14.80708455556234"><ele>618.0</ele><time>2026-04-25T10:10:33.999Z</time></trkpt><trkpt lat="40.73361555692594" lon="14.80718493338271"><ele>622.5</ele><time>2026-04-25T10:10:34.999Z</time></trkpt><trkpt lat="40.73368275384888" lon="14.807283149747558"><ele>627.0</ele><time>2026-04-25T10:10:35.999Z</time></trkpt><trkpt lat="40.733730621372" lon="14.807377191934629"><ele>631.5</ele><time>2026-04-25T10:10:36.999Z</time></trkpt><trkpt lat="40.733747043137036" lon="14.807458777394636"><ele>636.0</ele><time>2026-04-25T10:10:37.999Z</time></trkpt><trkpt lat="40.733805254766956" lon="14.807607383756869"><ele>640.3333333333334</ele><time>2026-04-25T10:10:39.999Z</time></trkpt><trkpt lat="40.73379868264357" lon="14.807737415681508"><ele>644.6666666666666</ele><time>2026-04-25T10:10:41.999Z</time></trkpt><trkpt lat="40.73374730862784" lon="14.807806936987697"><ele>649.0</ele><time>2026-04-25T10:10:42.999Z</time></trkpt><trkpt lat="40.73369844275807" lon="14.807869112182075"><ele>653.3333333333333</ele><time>2026-04-25T10:10:43.999Z</time></trkpt><trkpt lat="40.73361557204992" lon="14.807963915585882"><ele>657.6666666666666</ele><time>2026-04-25T10:10:45.999Z</time></trkpt><trkpt lat="40.73361719336953" lon="14.808073336766117"><ele>662.0</ele><time>2026-04-25T10:10:46.999Z</time></trkpt><trkpt lat="40.733596209424945" lon="14.808166292875011"><ele>653.8000000000001</ele><time>2026-04-25T10:10:47.999Z</time></trkpt><trkpt lat="40.73354576422431" lon="14.808240844550463"><ele>645.6</ele><time>2026-04-25T10:10:48.999Z</time></trkpt><trkpt lat="40.73348217242548" lon="14.808288777266604"><ele>637.4000000000001</ele><time>2026-04-25T10:10:49.999Z</time></trkpt><trkpt lat="40.733397105294486" lon="14.808309375487719"><ele>629.2</ele><time>2026-04-25T10:10:50.999Z</time></trkpt><trkpt lat="40.73329086783131" lon="14.808329210234543"><ele>621.0</ele><time>2026-04-25T10:10:51.999Z</time></trkpt><trkpt lat="40.733177573131826" lon="14.808346035238152"><ele>621.0</ele><time>2026-04-25T10:10:52.999Z</time></trkpt><trkpt lat="40.73309558902649" lon="14.808371053323816"><ele>621.0</ele><time>2026-04-25T10:10:53.999Z</time></trkpt><trkpt lat="40.73301227564225" lon="14.808462067924184"><ele>621.0</ele><time>2026-04-25T10:10:55.999Z</time></trkpt><trkpt lat="40.73298919437122" lon="14.80855757481165"><ele>621.0</ele><time>2026-04-25T10:10:56.999Z</time></trkpt><trkpt lat="40.73297396574554" lon="14.808669950920848"><ele>621.0</ele><time>2026-04-25T10:10:57.999Z</time></trkpt><trkpt lat="40.73297292357416" lon="14.808765133406451"><ele>621.0</ele><time>2026-04-25T10:10:58.999Z</time></trkpt><trkpt lat="40.73300046155523" lon="14.808869184275999"><ele>627.4</ele><time>2026-04-25T10:10:59.999Z</time></trkpt><trkpt lat="40.733038598636774" lon="14.808983299432446"><ele>633.8</ele><time>2026-04-25T10:11:00.999Z</time></trkpt><trkpt lat="40.73307106630941" lon="14.809076193947256"><ele>640.1999999999999</ele><time>2026-04-25T10:11:01.999Z</time></trkpt><trkpt lat="40.733034244947646" lon="14.809225902478037"><ele>646.6</ele><time>2026-04-25T10:11:03.999Z</time></trkpt><trkpt lat="40.733011012917515" lon="14.80932433478177"><ele>653.0</ele><time>2026-04-25T10:11:04.999Z</time></trkpt><trkpt lat="40.73295024190273" lon="14.809408725340521"><ele>652.3333333333333</ele><time>2026-04-25T10:11:05.999Z</time></trkpt><trkpt lat="40.7329110911201" lon="14.80948268283903"><ele>651.6666666666666</ele><time>2026-04-25T10:11:06.999Z</time></trkpt><trkpt lat="40.73288967196985" lon="14.809675467387219"><ele>651.0</ele><time>2026-04-25T10:11:08.999Z</time></trkpt><trkpt lat="40.7328501244622" lon="14.809750512756434"><ele>650.3333333333334</ele><time>2026-04-25T10:11:09.999Z</time></trkpt><trkpt lat="40.73279640549926" lon="14.809794712371906"><ele>649.6666666666667</ele><time>2026-04-25T10:11:10.999Z</time></trkpt><trkpt lat="40.73272621851998" lon="14.809838619963527"><ele>649.0</ele><time>2026-04-25T10:11:11.999Z</time></trkpt><trkpt lat="40.73265518701483" lon="14.809872025632984"><ele>649.0</ele><time>2026-04-25T10:11:12.999Z</time></trkpt><trkpt lat="40.732587846903535" lon="14.809884571956633"><ele>649.0</ele><time>2026-04-25T10:11:13.999Z</time></trkpt><trkpt lat="40.73250058622644" lon="14.809866947036902"><ele>649.0</ele><time>2026-04-25T10:11:14.999Z</time></trkpt><trkpt lat="40.732406934516625" lon="14.809867493928323"><ele>649.0</ele><time>2026-04-25T10:11:16Z</time></trkpt><trkpt lat="40.73231858180989" lon="14.809894073154933"><ele>649.0</ele><time>2026-04-25T10:11:17Z</time></trkpt><trkpt lat="40.73222895748294" lon="14.809937088519414"><ele>649.0</ele><time>2026-04-25T10:11:18Z</time></trkpt><trkpt lat="40.73216341380848" lon="14.809986470433076"><ele>649.0</ele><time>2026-04-25T10:11:19Z</time></trkpt><trkpt lat="40.732101711789596" lon="14.810049051957387"><ele>649.0</ele><time>2026-04-25T10:11:20Z</time></trkpt><trkpt lat="40.73202808077548" lon="14.810116547524752"><ele>649.0</ele><time>2026-04-25T10:11:21Z</time></trkpt><trkpt lat="40.73194068181338" lon="14.810200832103007"><ele>649.0</ele><time>2026-04-25T10:11:22Z</time></trkpt><trkpt lat="40.731851323653" lon="14.810272006457543"><ele>649.0</ele><time>2026-04-25T10:11:23Z</time></trkpt><trkpt lat="40.73178580893032" lon="14.810291669467965"><ele>649.0</ele><time>2026-04-25T10:11:24Z</time></trkpt><trkpt lat="40.7316855818793" lon="14.810284297195444"><ele>648.2</ele><time>2026-04-25T10:11:27Z</time></trkpt><trkpt lat="40.73157255060756" lon="14.810209928373297"><ele>647.4000000000001</ele><time>2026-04-25T10:11:29Z</time></trkpt><trkpt lat="40.73152520722991" lon="14.810094362557424"><ele>646.6</ele><time>2026-04-25T10:11:30Z</time></trkpt><trkpt lat="40.731491524012846" lon="14.809991820615458"><ele>645.8</ele><time>2026-04-25T10:11:31Z</time></trkpt><trkpt lat="40.73144560007967" lon="14.80992540150492"><ele>645.0</ele><time>2026-04-25T10:11:32Z</time></trkpt><trkpt lat="40.73135353199654" lon="14.809968665777012"><ele>645.0</ele><time>2026-04-25T10:11:34Z</time></trkpt><trkpt lat="40.7313034744673" lon="14.810050456456127"><ele>645.0</ele><time>2026-04-25T10:11:35Z</time></trkpt><trkpt lat="40.731282852695344" lon="14.810130727610389"><ele>645.0</ele><time>2026-04-25T10:11:36Z</time></trkpt><trkpt lat="40.731270989655336" lon="14.810218209626662"><ele>645.0</ele><time>2026-04-25T10:11:37Z</time></trkpt><trkpt lat="40.73125237443682" lon="14.810305937089"><ele>645.0</ele><time>2026-04-25T10:11:38Z</time></trkpt><trkpt lat="40.73122312665989" lon="14.810382346583816"><ele>645.0</ele><time>2026-04-25T10:11:39Z</time></trkpt><trkpt lat="40.731152675688534" lon="14.810474034548733"><ele>645.0</ele><time>2026-04-25T10:11:41Z</time></trkpt><trkpt lat="40.73109504320298" lon="14.810534944560922"><ele>650.6</ele><time>2026-04-25T10:11:43Z</time></trkpt><trkpt lat="40.731033568598995" lon="14.810570949549875"><ele>656.2</ele><time>2026-04-25T10:11:44Z</time></trkpt><trkpt lat="40.730943209255166" lon="14.810625093690858"><ele>661.8</ele><time>2026-04-25T10:11:45Z</time></trkpt><trkpt lat="40.730858008428065" lon="14.810676582977027"><ele>667.4</ele><time>2026-04-25T10:11:46Z</time></trkpt><trkpt lat="40.73076078055835" lon="14.810732473610358"><ele>673.0</ele><time>2026-04-25T10:11:48Z</time></trkpt><trkpt lat="40.73064052515324" lon="14.810750382887171"><ele>673.0</ele><time>2026-04-25T10:11:50Z</time></trkpt><trkpt lat="40.73058026935072" lon="14.810804815786812"><ele>673.0</ele><time>2026-04-25T10:11:51Z</time></trkpt><trkpt lat="40.730472666536464" lon="14.810866765735838"><ele>673.0</ele><time>2026-04-25T10:11:52Z</time></trkpt><trkpt lat="40.73036464830545" lon="14.81090915061332"><ele>673.0</ele><time>2026-04-25T10:11:53Z</time></trkpt><trkpt lat="40.73028459576044" lon="14.810933865662411"><ele>673.0</ele><time>2026-04-25T10:11:54Z</time></trkpt><trkpt lat="40.73022140780819" lon="14.810971386494483"><ele>673.6666666666667</ele><time>2026-04-25T10:11:55Z</time></trkpt><trkpt lat="40.730159017022686" lon="14.810999191569506"><ele>674.3333333333334</ele><time>2026-04-25T10:11:56Z</time></trkpt><trkpt lat="40.730086656379164" lon="14.811026985004611"><ele>675.0</ele><time>2026-04-25T10:11:57Z</time></trkpt><trkpt lat="40.73002324328388" lon="14.811053596229797"><ele>675.6666666666666</ele><time>2026-04-25T10:11:58Z</time></trkpt><trkpt lat="40.729962253455035" lon="14.811085759716086"><ele>676.3333333333333</ele><time>2026-04-25T10:11:59Z</time></trkpt><trkpt lat="40.72989190418067" lon="14.811101109986733"><ele>677.0</ele><time>2026-04-25T10:12:00Z</time></trkpt><trkpt lat="40.729801847231585" lon="14.811176932272033"><ele>677.0</ele><time>2026-04-25T10:12:02Z</time></trkpt><trkpt lat="40.72972286478233" lon="14.811271731530418"><ele>677.0</ele><time>2026-04-25T10:12:04Z</time></trkpt><trkpt lat="40.72967635167484" lon="14.811366478106219"><ele>677.0</ele><time>2026-04-25T10:12:13Z</time></trkpt><trkpt lat="40.729691071936216" lon="14.811454946540739"><ele>677.0</ele><time>2026-04-25T10:12:15Z</time></trkpt><trkpt lat="40.72974882828449" lon="14.81149332141257"><ele>677.0</ele><time>2026-04-25T10:12:17Z</time></trkpt><trkpt lat="40.72984999979839" lon="14.811498527749004"><ele>677.0</ele><time>2026-04-25T10:12:20Z</time></trkpt><trkpt lat="40.7299184363306" lon="14.8114388464878"><ele>677.0</ele><time>2026-04-25T10:12:21Z</time></trkpt><trkpt lat="40.730001976959784" lon="14.811341393438518"><ele>677.0</ele><time>2026-04-25T10:12:22Z</time></trkpt><trkpt lat="40.73014093486714" lon="14.811351874534889"><ele>677.0</ele><time>2026-04-25T10:12:22.999Z</time></trkpt><trkpt lat="40.73027815390159" lon="14.811304333185097"><ele>677.0</ele><time>2026-04-25T10:12:23.999Z</time></trkpt><trkpt lat="40.73047178245056" lon="14.811234651136527"><ele>676.5</ele><time>2026-04-25T10:12:24.999Z</time></trkpt><trkpt lat="40.730609417085766" lon="14.81117917388832"><ele>676.0</ele><time>2026-04-25T10:12:25.999Z</time></trkpt><trkpt lat="40.730729271273326" lon="14.811137485282755"><ele>675.5</ele><time>2026-04-25T10:12:26.999Z</time></trkpt><trkpt lat="40.730825332149784" lon="14.811108357094374"><ele>675.0</ele><time>2026-04-25T10:12:27.999Z</time></trkpt><trkpt lat="40.73093951790255" lon="14.811082584058104"><ele>675.0</ele><time>2026-04-25T10:12:28.999Z</time></trkpt><trkpt lat="40.73104992711868" lon="14.811064540114119"><ele>675.0</ele><time>2026-04-25T10:12:29.999Z</time></trkpt><trkpt lat="40.73115280803156" lon="14.811026882407766"><ele>675.0</ele><time>2026-04-25T10:12:30.999Z</time></trkpt><trkpt lat="40.73122342285791" lon="14.810984197418666"><ele>675.0</ele><time>2026-04-25T10:12:31.999Z</time></trkpt><trkpt lat="40.731280465639834" lon="14.810948867739048"><ele>675.0</ele><time>2026-04-25T10:12:32.999Z</time></trkpt><trkpt lat="40.73138674231636" lon="14.81091230546342"><ele>676.2</ele><time>2026-04-25T10:12:34.999Z</time></trkpt><trkpt lat="40.73149354789255" lon="14.810950681331091"><ele>677.4</ele><time>2026-04-25T10:12:37.999Z</time></trkpt><trkpt lat="40.73157447337895" lon="14.810972291452787"><ele>678.5999999999999</ele><time>2026-04-25T10:12:38.999Z</time></trkpt><trkpt lat="40.731653263992335" lon="14.8109566224152"><ele>679.8</ele><time>2026-04-25T10:12:39.999Z</time></trkpt><trkpt lat="40.73177656650746" lon="14.810987545419826"><ele>681.0</ele><time>2026-04-25T10:12:41.999Z</time></trkpt><trkpt lat="40.73188321153043" lon="14.810912381999497"><ele>679.5</ele><time>2026-04-25T10:12:43.999Z</time></trkpt><trkpt lat="40.731957621234706" lon="14.810904972095587"><ele>678.0</ele><time>2026-04-25T10:12:44.999Z</time></trkpt><trkpt lat="40.732034669543566" lon="14.810893319082933"><ele>676.5</ele><time>2026-04-25T10:12:45.999Z</time></trkpt><trkpt lat="40.73213315047411" lon="14.810884223446562"><ele>675.0</ele><time>2026-04-25T10:12:46.999Z</time></trkpt><trkpt lat="40.73219370833163" lon="14.810820280282078"><ele>673.5</ele><time>2026-04-25T10:12:49.999Z</time></trkpt><trkpt lat="40.732305696201244" lon="14.810776864082031"><ele>672.0</ele><time>2026-04-25T10:12:51.999Z</time></trkpt><trkpt lat="40.73240112318906" lon="14.810707598207081"><ele>672.0</ele><time>2026-04-25T10:12:53.999Z</time></trkpt><trkpt lat="40.7325367788216" lon="14.81073301920726"><ele>672.0</ele><time>2026-04-25T10:12:55.999Z</time></trkpt><trkpt lat="40.73264023564555" lon="14.810752358859906"><ele>672.0</ele><time>2026-04-25T10:12:56.999Z</time></trkpt><trkpt lat="40.732731079702276" lon="14.810731827374903"><ele>672.0</ele><time>2026-04-25T10:12:57.999Z</time></trkpt><trkpt lat="40.732811824037476" lon="14.810715019429166"><ele>672.0</ele><time>2026-04-25T10:12:58.999Z</time></trkpt><trkpt lat="40.73288512593213" lon="14.810693548585254"><ele>670.8</ele><time>2026-04-25T10:12:59.999Z</time></trkpt><trkpt lat="40.73294770193377" lon="14.810675732653685"><ele>669.6</ele><time>2026-04-25T10:13:00.999Z</time></trkpt><trkpt lat="40.7330897585519" lon="14.810689539601846"><ele>668.4</ele><time>2026-04-25T10:13:02.999Z</time></trkpt><trkpt lat="40.733177541508915" lon="14.81071461462038"><ele>667.1999999999999</ele><time>2026-04-25T10:13:03.999Z</time></trkpt><trkpt lat="40.733269178357276" lon="14.810712310672569"><ele>666.0</ele><time>2026-04-25T10:13:04.999Z</time></trkpt><trkpt lat="40.7333356580639" lon="14.81071575781066"><ele>666.0</ele><time>2026-04-25T10:13:05.999Z</time></trkpt><trkpt lat="40.73344217697233" lon="14.810683814804833"><ele>666.0</ele><time>2026-04-25T10:13:07.999Z</time></trkpt><trkpt lat="40.73351240269153" lon="14.810638176583119"><ele>666.0</ele><time>2026-04-25T10:13:08.999Z</time></trkpt><trkpt lat="40.73357550308892" lon="14.810577984842608"><ele>666.0</ele><time>2026-04-25T10:13:09.999Z</time></trkpt><trkpt lat="40.73361241932318" lon="14.810503727049028"><ele>666.0</ele><time>2026-04-25T10:13:10.999Z</time></trkpt><trkpt lat="40.733702170571384" lon="14.810424280996763"><ele>666.0</ele><time>2026-04-25T10:13:12.999Z</time></trkpt><trkpt lat="40.73377496648306" lon="14.810416144502906"><ele>663.25</ele><time>2026-04-25T10:13:13.999Z</time></trkpt><trkpt lat="40.733890312131905" lon="14.810438892170056"><ele>660.5</ele><time>2026-04-25T10:13:14.999Z</time></trkpt><trkpt lat="40.734003299902284" lon="14.810464365892408"><ele>657.75</ele><time>2026-04-25T10:13:15.999Z</time></trkpt><trkpt lat="40.73410742350174" lon="14.810459840004958"><ele>655.0</ele><time>2026-04-25T10:13:16.999Z</time></trkpt><trkpt lat="40.73422375783396" lon="14.81045597100698"><ele>655.0</ele><time>2026-04-25T10:13:17.999Z</time></trkpt><trkpt lat="40.7343174752341" lon="14.810459165791066"><ele>655.0</ele><time>2026-04-25T10:13:18.999Z</time></trkpt><trkpt lat="40.73439264558657" lon="14.810454108843365"><ele>655.0</ele><time>2026-04-25T10:13:19.999Z</time></trkpt><trkpt lat="40.7344553788249" lon="14.810465538773375"><ele>655.0</ele><time>2026-04-25T10:13:20.999Z</time></trkpt><trkpt lat="40.734540616262215" lon="14.810527594104535"><ele>655.0</ele><time>2026-04-25T10:13:23Z</time></trkpt><trkpt lat="40.73462069487043" lon="14.810549467741804"><ele>655.0</ele><time>2026-04-25T10:13:25Z</time></trkpt><trkpt lat="40.73472670713897" lon="14.810481641641072"><ele>653.3333333333334</ele><time>2026-04-25T10:13:27Z</time></trkpt><trkpt lat="40.734766267111816" lon="14.81040244137294"><ele>651.6666666666667</ele><time>2026-04-25T10:13:28Z</time></trkpt><trkpt lat="40.73479694965631" lon="14.810304682211019"><ele>650.0</ele><time>2026-04-25T10:13:29Z</time></trkpt><trkpt lat="40.73481877495416" lon="14.810206714619854"><ele>648.3333333333334</ele><time>2026-04-25T10:13:30Z</time></trkpt><trkpt lat="40.734829395610845" lon="14.810120594865507"><ele>646.6666666666666</ele><time>2026-04-25T10:13:31Z</time></trkpt><trkpt lat="40.73484656684175" lon="14.809993064726363"><ele>645.0</ele><time>2026-04-25T10:13:33Z</time></trkpt><trkpt lat="40.73498340759272" lon="14.80993137299501"><ele>644.4</ele><time>2026-04-25T10:13:35Z</time></trkpt><trkpt lat="40.73506195284817" lon="14.809965509487578"><ele>643.8</ele><time>2026-04-25T10:13:36Z</time></trkpt><trkpt lat="40.735126011811275" lon="14.810035641324355"><ele>643.2</ele><time>2026-04-25T10:13:37Z</time></trkpt><trkpt lat="40.7351873738738" lon="14.810131360087405"><ele>642.6</ele><time>2026-04-25T10:13:38Z</time></trkpt><trkpt lat="40.73526612361165" lon="14.810228166431292"><ele>642.0</ele><time>2026-04-25T10:13:39Z</time></trkpt><trkpt lat="40.73534306438372" lon="14.81030892301412"><ele>642.0</ele><time>2026-04-25T10:13:40Z</time></trkpt><trkpt lat="40.735421321935775" lon="14.81036157475728"><ele>642.0</ele><time>2026-04-25T10:13:41Z</time></trkpt><trkpt lat="40.73549794926237" lon="14.810424365182172"><ele>642.0</ele><time>2026-04-25T10:13:42Z</time></trkpt><trkpt lat="40.73555875562337" lon="14.810497539296698"><ele>642.0</ele><time>2026-04-25T10:13:43Z</time></trkpt><trkpt lat="40.73561407897063" lon="14.810585907654092"><ele>642.0</ele><time>2026-04-25T10:13:44Z</time></trkpt><trkpt lat="40.7356599118647" lon="14.81065795637184"><ele>642.0</ele><time>2026-04-25T10:13:45Z</time></trkpt><trkpt lat="40.735742729439814" lon="14.810731495300466"><ele>642.0</ele><time>2026-04-25T10:13:47Z</time></trkpt><trkpt lat="40.73586872833646" lon="14.810760418582154"><ele>642.0</ele><time>2026-04-25T10:13:49Z</time></trkpt><trkpt lat="40.73598157976977" lon="14.810753814586304"><ele>642.0</ele><time>2026-04-25T10:13:51Z</time></trkpt><trkpt lat="40.73608395962243" lon="14.810738757174065"><ele>642.0</ele><time>2026-04-25T10:13:53Z</time></trkpt><trkpt lat="40.73616428616621" lon="14.810718896828671"><ele>642.0</ele><time>2026-04-25T10:13:54Z</time></trkpt><trkpt lat="40.73623092504419" lon="14.810729174405797"><ele>640.5</ele><time>2026-04-25T10:13:55Z</time></trkpt><trkpt lat="40.73629570479869" lon="14.810717149315595"><ele>639.0</ele><time>2026-04-25T10:13:56Z</time></trkpt><trkpt lat="40.736371039807715" lon="14.810692013745552"><ele>637.5</ele><time>2026-04-25T10:13:57Z</time></trkpt><trkpt lat="40.73645013123455" lon="14.810661582782382"><ele>636.0</ele><time>2026-04-25T10:13:58Z</time></trkpt><trkpt lat="40.73651995287296" lon="14.81063327697728"><ele>634.5</ele><time>2026-04-25T10:13:59Z</time></trkpt><trkpt lat="40.736592860121554" lon="14.81059457105815"><ele>633.0</ele><time>2026-04-25T10:14:00Z</time></trkpt><trkpt lat="40.73666681430046" lon="14.810576827335074"><ele>633.0</ele><time>2026-04-25T10:14:01Z</time></trkpt><trkpt lat="40.73675987814489" lon="14.810562519852843"><ele>633.0</ele><time>2026-04-25T10:14:02Z</time></trkpt><trkpt lat="40.73684337685804" lon="14.81053803555524"><ele>633.0</ele><time>2026-04-25T10:14:03Z</time></trkpt><trkpt lat="40.7369144382895" lon="14.810526580671487"><ele>633.0</ele><time>2026-04-25T10:14:04Z</time></trkpt><trkpt lat="40.737012436183655" lon="14.810561864269918"><ele>633.0</ele><time>2026-04-25T10:14:06Z</time></trkpt><trkpt lat="40.73708934875413" lon="14.810631844147435"><ele>633.0</ele><time>2026-04-25T10:14:07Z</time></trkpt><trkpt lat="40.73716399341574" lon="14.81071422227697"><ele>633.8</ele><time>2026-04-25T10:14:08Z</time></trkpt><trkpt lat="40.737210641917116" lon="14.810771678246695"><ele>634.5999999999999</ele><time>2026-04-25T10:14:09Z</time></trkpt><trkpt lat="40.73728347549379" lon="14.810880160030589"><ele>635.4000000000001</ele><time>2026-04-25T10:14:11Z</time></trkpt><trkpt lat="40.73736038380695" lon="14.810980700485803"><ele>636.2</ele><time>2026-04-25T10:14:13Z</time></trkpt><trkpt lat="40.73752378046134" lon="14.811017024070177"><ele>637.0</ele><time>2026-04-25T10:14:15Z</time></trkpt><trkpt lat="40.7376068728576" lon="14.811017337385938"><ele>632.1666666666667</ele><time>2026-04-25T10:14:16Z</time></trkpt><trkpt lat="40.73767648922308" lon="14.811024017023357"><ele>627.3333333333334</ele><time>2026-04-25T10:14:17Z</time></trkpt><trkpt lat="40.73779122446835" lon="14.811078416702752"><ele>622.5</ele><time>2026-04-25T10:14:19Z</time></trkpt><trkpt lat="40.73787104522736" lon="14.811091242446043"><ele>617.6666666666666</ele><time>2026-04-25T10:14:21Z</time></trkpt><trkpt lat="40.73796813625892" lon="14.811103865446"><ele>612.8333333333333</ele><time>2026-04-25T10:14:23Z</time></trkpt><trkpt lat="40.73802863131803" lon="14.81112736824648"><ele>608.0</ele><time>2026-04-25T10:14:23.999Z</time></trkpt><trkpt lat="40.73810379908336" lon="14.811150274120354"><ele>608.0</ele><time>2026-04-25T10:14:24.999Z</time></trkpt><trkpt lat="40.7381678885889" lon="14.811164408465634"><ele>608.0</ele><time>2026-04-25T10:14:25.999Z</time></trkpt><trkpt lat="40.73828173811498" lon="14.811173169942258"><ele>608.0</ele><time>2026-04-25T10:14:27.999Z</time></trkpt><trkpt lat="40.738361943562246" lon="14.81116517664267"><ele>608.0</ele><time>2026-04-25T10:14:30.999Z</time></trkpt><trkpt lat="40.738443552204465" lon="14.811130428373163"><ele>608.0</ele><time>2026-04-25T10:14:32.999Z</time></trkpt><trkpt lat="40.738563952907775" lon="14.811168177817438"><ele>609.8333333333333</ele><time>2026-04-25T10:14:33.999Z</time></trkpt><trkpt lat="40.73862348316039" lon="14.811204057444247"><ele>611.6666666666666</ele><time>2026-04-25T10:14:34.999Z</time></trkpt><trkpt lat="40.73869880936044" lon="14.811253914365329"><ele>613.5</ele><time>2026-04-25T10:14:35.999Z</time></trkpt><trkpt lat="40.73878557065229" lon="14.811306771658206"><ele>615.3333333333334</ele><time>2026-04-25T10:14:36.999Z</time></trkpt><trkpt lat="40.738864245877345" lon="14.811349951499098"><ele>617.1666666666667</ele><time>2026-04-25T10:14:37.999Z</time></trkpt><trkpt lat="40.738932285382404" lon="14.81137939928219"><ele>619.0</ele><time>2026-04-25T10:14:38.999Z</time></trkpt><trkpt lat="40.739003052887355" lon="14.811407076748548"><ele>619.0</ele><time>2026-04-25T10:14:39.999Z</time></trkpt><trkpt lat="40.7390683977102" lon="14.81142330451187"><ele>619.0</ele><time>2026-04-25T10:14:40.999Z</time></trkpt><trkpt lat="40.7391543073611" lon="14.81148164609213"><ele>619.0</ele><time>2026-04-25T10:14:42.999Z</time></trkpt><trkpt lat="40.739256188463315" lon="14.811508068266242"><ele>619.0</ele><time>2026-04-25T10:14:44.999Z</time></trkpt><trkpt lat="40.739329492123986" lon="14.81152693884783"><ele>619.0</ele><time>2026-04-25T10:14:45.999Z</time></trkpt><trkpt lat="40.739413265445" lon="14.811563811747634"><ele>619.0</ele><time>2026-04-25T10:14:46.999Z</time></trkpt><trkpt lat="40.73948684882525" lon="14.81158126055184"><ele>619.0</ele><time>2026-04-25T10:14:48.999Z</time></trkpt><trkpt lat="40.73942766293949" lon="14.81161557891262"><ele>619.0</ele><time>2026-04-25T10:14:52.999Z</time></trkpt><trkpt lat="40.739373987892996" lon="14.81170539040718"><ele>619.0</ele><time>2026-04-25T10:14:55.999Z</time></trkpt><trkpt lat="40.739278223326785" lon="14.811748834039982"><ele>619.0</ele><time>2026-04-25T10:14:57.999Z</time></trkpt><trkpt lat="40.73921408915482" lon="14.811842179929352"><ele>619.0</ele><time>2026-04-25T10:14:59.999Z</time></trkpt><trkpt lat="40.73922514822666" lon="14.811935887914556"><ele>619.0</ele><time>2026-04-25T10:15:24.999Z</time></trkpt><trkpt lat="40.739302278983644" lon="14.81191122413367"><ele>621.1428571428571</ele><time>2026-04-25T10:15:26.999Z</time></trkpt><trkpt lat="40.739368268226116" lon="14.811864506696585"><ele>623.2857142857143</ele><time>2026-04-25T10:15:29Z</time></trkpt><trkpt lat="40.73943871571337" lon="14.81191611039729"><ele>625.4285714285714</ele><time>2026-04-25T10:15:31Z</time></trkpt><trkpt lat="40.73951011540295" lon="14.811900492031581"><ele>627.5714285714286</ele><time>2026-04-25T10:15:33Z</time></trkpt><trkpt lat="40.73957257907108" lon="14.81182521939563"><ele>629.7142857142857</ele><time>2026-04-25T10:15:56Z</time></trkpt><trkpt lat="40.73961248784749" lon="14.811895284458386"><ele>631.8571428571429</ele><time>2026-04-25T10:16:00Z</time></trkpt><trkpt lat="40.739556615935406" lon="14.81194344672929"><ele>634.0</ele><time>2026-04-25T10:16:02Z</time></trkpt><trkpt lat="40.73945037546533" lon="14.81199661548546"><ele>634.0</ele><time>2026-04-25T10:16:13Z</time></trkpt><trkpt lat="40.73936059663227" lon="14.812043563459572"><ele>634.0</ele><time>2026-04-25T10:16:15Z</time></trkpt><trkpt lat="40.73929882484303" lon="14.812181281767604"><ele>634.0</ele><time>2026-04-25T10:16:17Z</time></trkpt><trkpt lat="40.73925816827134" lon="14.81230411877488"><ele>634.0</ele><time>2026-04-25T10:16:18.999Z</time></trkpt><trkpt lat="40.739211447604724" lon="14.812361299604722"><ele>634.0</ele><time>2026-04-25T10:16:19.999Z</time></trkpt><trkpt lat="40.739145693929274" lon="14.812441594116327"><ele>634.0</ele><time>2026-04-25T10:16:20.999Z</time></trkpt><trkpt lat="40.73909766062166" lon="14.81254210309339"><ele>634.0</ele><time>2026-04-25T10:16:21.999Z</time></trkpt><trkpt lat="40.739074423950306" lon="14.812629577296608"><ele>634.0</ele><time>2026-04-25T10:16:22.999Z</time></trkpt><trkpt lat="40.73906195760981" lon="14.812746645314574"><ele>634.0</ele><time>2026-04-25T10:16:24.999Z</time></trkpt><trkpt lat="40.739063208302504" lon="14.812904360346126"><ele>634.0</ele><time>2026-04-25T10:16:26.999Z</time></trkpt><trkpt lat="40.73898301400402" lon="14.812963320634935"><ele>635.0</ele><time>2026-04-25T10:16:28.999Z</time></trkpt><trkpt lat="40.73885649061988" lon="14.812887028585399"><ele>636.0</ele><time>2026-04-25T10:16:30.999Z</time></trkpt><trkpt lat="40.73876809276557" lon="14.812846147667118"><ele>637.0</ele><time>2026-04-25T10:16:31.999Z</time></trkpt><trkpt lat="40.73868911055434" lon="14.812842160019109"><ele>638.0</ele><time>2026-04-25T10:16:32.999Z</time></trkpt><trkpt lat="40.73858974525139" lon="14.812884574365736"><ele>639.0</ele><time>2026-04-25T10:16:34.999Z</time></trkpt><trkpt lat="40.7384951109212" lon="14.812964343224056"><ele>639.0</ele><time>2026-04-25T10:16:36.999Z</time></trkpt><trkpt lat="40.73839824066011" lon="14.813014726561224"><ele>639.0</ele><time>2026-04-25T10:16:38.999Z</time></trkpt><trkpt lat="40.73834123831177" lon="14.813066566093957"><ele>639.0</ele><time>2026-04-25T10:16:39.999Z</time></trkpt><trkpt lat="40.73825644337267" lon="14.813172611371916"><ele>639.0</ele><time>2026-04-25T10:16:41.999Z</time></trkpt><trkpt lat="40.738218918089174" lon="14.813292249332335"><ele>639.0</ele><time>2026-04-25T10:16:43.999Z</time></trkpt><trkpt lat="40.73823574973912" lon="14.81340813580624"><ele>639.0</ele><time>2026-04-25T10:16:45.999Z</time></trkpt><trkpt lat="40.73827642241816" lon="14.813553272434039"><ele>639.0</ele><time>2026-04-25T10:16:47.999Z</time></trkpt><trkpt lat="40.73825603517833" lon="14.8136665412315"><ele>639.0</ele><time>2026-04-25T10:16:49.999Z</time></trkpt><trkpt lat="40.73831201483206" lon="14.81358165871041"><ele>639.0</ele><time>2026-04-25T10:16:54.999Z</time></trkpt><trkpt lat="40.73831681159621" lon="14.81347905827958"><ele>639.0</ele><time>2026-04-25T10:16:55.999Z</time></trkpt><trkpt lat="40.73828450554017" lon="14.813341748020619"><ele>639.0</ele><time>2026-04-25T10:16:57.999Z</time></trkpt><trkpt lat="40.738330084926666" lon="14.813247717427949"><ele>639.0</ele><time>2026-04-25T10:16:59.999Z</time></trkpt><trkpt lat="40.73843982487469" lon="14.813154167989142"><ele>639.0</ele><time>2026-04-25T10:17:01.999Z</time></trkpt><trkpt lat="40.73851146784909" lon="14.81312319851408"><ele>639.0</ele><time>2026-04-25T10:17:02.999Z</time></trkpt><trkpt lat="40.738581958214006" lon="14.813102018877533"><ele>639.0</ele><time>2026-04-25T10:17:03.999Z</time></trkpt><trkpt lat="40.73866272166901" lon="14.813090287070306"><ele>639.0</ele><time>2026-04-25T10:17:05.999Z</time></trkpt><trkpt lat="40.73867955680846" lon="14.81317702506702"><ele>639.0</ele><time>2026-04-25T10:17:08.999Z</time></trkpt><trkpt lat="40.73861065711045" lon="14.813204465771326"><ele>639.0</ele><time>2026-04-25T10:17:10.999Z</time></trkpt><trkpt lat="40.738551002074225" lon="14.813234791586954"><ele>639.0</ele><time>2026-04-25T10:17:12.999Z</time></trkpt><trkpt lat="40.738491653200654" lon="14.813324042964608"><ele>639.0</ele><time>2026-04-25T10:17:14.999Z</time></trkpt><trkpt lat="40.7384636339746" lon="14.813485728238119"><ele>639.0</ele><time>2026-04-25T10:17:16.999Z</time></trkpt><trkpt lat="40.73847610712688" lon="14.813673695569996"><ele>643.0</ele><time>2026-04-25T10:17:18.999Z</time></trkpt><trkpt lat="40.738471287274464" lon="14.813784754247"><ele>647.0</ele><time>2026-04-25T10:17:19.999Z</time></trkpt><trkpt lat="40.738456527250214" lon="14.813884294796313"><ele>651.0</ele><time>2026-04-25T10:17:20.999Z</time></trkpt><trkpt lat="40.738450923136014" lon="14.813988447701"><ele>655.0</ele><time>2026-04-25T10:17:21.999Z</time></trkpt><trkpt lat="40.73843206214151" lon="14.814107970065352"><ele>659.0</ele><time>2026-04-25T10:17:23.999Z</time></trkpt><trkpt lat="40.73849502279455" lon="14.814119236576406"><ele>663.0</ele><time>2026-04-25T10:17:26.999Z</time></trkpt><trkpt lat="40.73848946380992" lon="14.814029363098806"><ele>663.0</ele><time>2026-04-25T10:17:36Z</time></trkpt><trkpt lat="40.73851270066949" lon="14.81389498893939"><ele>663.0</ele><time>2026-04-25T10:17:38Z</time></trkpt><trkpt lat="40.738559888779555" lon="14.813763570258882"><ele>663.0</ele><time>2026-04-25T10:17:40Z</time></trkpt><trkpt lat="40.73862258259682" lon="14.813659870848372"><ele>663.0</ele><time>2026-04-25T10:17:42Z</time></trkpt><trkpt lat="40.738696374058186" lon="14.813597187737201"><ele>663.0</ele><time>2026-04-25T10:17:45Z</time></trkpt><trkpt lat="40.73877765345682" lon="14.813565031557332"><ele>667.8</ele><time>2026-04-25T10:17:47Z</time></trkpt><trkpt lat="40.73886391865593" lon="14.813608293492313"><ele>672.5999999999999</ele><time>2026-04-25T10:17:49Z</time></trkpt><trkpt lat="40.7389405964376" lon="14.813713811154335"><ele>677.4000000000001</ele><time>2026-04-25T10:17:51Z</time></trkpt><trkpt lat="40.73901958170032" lon="14.813745143816616"><ele>682.2</ele><time>2026-04-25T10:17:54Z</time></trkpt><trkpt lat="40.7391637534007" lon="14.813668118262429"><ele>687.0</ele><time>2026-04-25T10:17:56Z</time></trkpt><trkpt lat="40.73927377997274" lon="14.813645494977422"><ele>687.0</ele><time>2026-04-25T10:17:58Z</time></trkpt><trkpt lat="40.739340545028405" lon="14.813632916631711"><ele>687.0</ele><time>2026-04-25T10:17:59Z</time></trkpt><trkpt lat="40.73942700547321" lon="14.813598910515388"><ele>687.0</ele><time>2026-04-25T10:18:00Z</time></trkpt><trkpt lat="40.739510710714264" lon="14.813553660968063"><ele>687.0</ele><time>2026-04-25T10:18:01Z</time></trkpt><trkpt lat="40.739591202175355" lon="14.813512156207798"><ele>687.0</ele><time>2026-04-25T10:18:02Z</time></trkpt><trkpt lat="40.7396660553732" lon="14.813474705616565"><ele>687.0</ele><time>2026-04-25T10:18:03Z</time></trkpt><trkpt lat="40.73973638339359" lon="14.81344394147747"><ele>688.2</ele><time>2026-04-25T10:18:04Z</time></trkpt><trkpt lat="40.73983903879889" lon="14.813472843190995"><ele>689.4000000000001</ele><time>2026-04-25T10:18:06Z</time></trkpt><trkpt lat="40.73990342857435" lon="14.813514588900302"><ele>690.5999999999999</ele><time>2026-04-25T10:18:07Z</time></trkpt><trkpt lat="40.74001467069678" lon="14.813615736020159"><ele>691.8</ele><time>2026-04-25T10:18:09Z</time></trkpt><trkpt lat="40.74006731662969" lon="14.813664852072217"><ele>693.0</ele><time>2026-04-25T10:18:10Z</time></trkpt><trkpt lat="40.74017405660813" lon="14.813711254597635"><ele>693.1666666666666</ele><time>2026-04-25T10:18:13Z</time></trkpt><trkpt lat="40.74023262997973" lon="14.813753462775331"><ele>693.3333333333334</ele><time>2026-04-25T10:18:14Z</time></trkpt><trkpt lat="40.74030156030637" lon="14.813763895688464"><ele>693.5</ele><time>2026-04-25T10:18:15Z</time></trkpt><trkpt lat="40.740366466806385" lon="14.813742273364928"><ele>693.6666666666667</ele><time>2026-04-25T10:18:16Z</time></trkpt><trkpt lat="40.740524414620346" lon="14.813734132014838"><ele>693.8333333333334</ele><time>2026-04-25T10:18:18Z</time></trkpt><trkpt lat="40.740593179542046" lon="14.81369646261044"><ele>694.0</ele><time>2026-04-25T10:18:19Z</time></trkpt><trkpt lat="40.74066465605395" lon="14.813651613982165"><ele>694.0</ele><time>2026-04-25T10:18:21Z</time></trkpt><trkpt lat="40.74070671222999" lon="14.813723662600506"><ele>694.0</ele><time>2026-04-25T10:18:23Z</time></trkpt><trkpt lat="40.74061638997028" lon="14.813794075214412"><ele>694.0</ele><time>2026-04-25T10:18:25.999Z</time></trkpt><trkpt lat="40.74053226196527" lon="14.813845191219265"><ele>694.0</ele><time>2026-04-25T10:18:27.999Z</time></trkpt><trkpt lat="40.7404803371198" lon="14.813903923485707"><ele>694.0</ele><time>2026-04-25T10:18:28.999Z</time></trkpt><trkpt lat="40.74041667493712" lon="14.813933855868767"><ele>694.0</ele><time>2026-04-25T10:18:30.999Z</time></trkpt><trkpt lat="40.740354798287754" lon="14.813970513686645"><ele>694.0</ele><time>2026-04-25T10:18:32.999Z</time></trkpt><trkpt lat="40.74026855285227" lon="14.81402133172355"><ele>694.0</ele><time>2026-04-25T10:18:33.999Z</time></trkpt><trkpt lat="40.740202652745225" lon="14.814065829480358"><ele>694.0</ele><time>2026-04-25T10:18:34.999Z</time></trkpt><trkpt lat="40.740135107153264" lon="14.814172546478812"><ele>694.0</ele><time>2026-04-25T10:18:36.999Z</time></trkpt><trkpt lat="40.74018814558397" lon="14.814281144211852"><ele>694.0</ele><time>2026-04-25T10:18:38.999Z</time></trkpt><trkpt lat="40.74026130402917" lon="14.8143089055213"><ele>694.0</ele><time>2026-04-25T10:18:39.999Z</time></trkpt><trkpt lat="40.74033498003572" lon="14.814314658107788"><ele>694.0</ele><time>2026-04-25T10:18:40.999Z</time></trkpt><trkpt lat="40.74043056181195" lon="14.81431620710435"><ele>694.0</ele><time>2026-04-25T10:18:41.999Z</time></trkpt><trkpt lat="40.74052964103693" lon="14.81431380894063"><ele>694.0</ele><time>2026-04-25T10:18:42.999Z</time></trkpt><trkpt lat="40.74061913101774" lon="14.814313027241987"><ele>694.0</ele><time>2026-04-25T10:18:43.999Z</time></trkpt><trkpt lat="40.740707956906036" lon="14.81433624123071"><ele>694.0</ele><time>2026-04-25T10:18:44.999Z</time></trkpt><trkpt lat="40.74077222341698" lon="14.81436478298039"><ele>694.0</ele><time>2026-04-25T10:18:45.999Z</time></trkpt><trkpt lat="40.7408679634256" lon="14.814451044313435"><ele>691.2</ele><time>2026-04-25T10:18:47.999Z</time></trkpt><trkpt lat="40.74096361409468" lon="14.814588752822102"><ele>688.4000000000001</ele><time>2026-04-25T10:18:49.999Z</time></trkpt><trkpt lat="40.74101681580245" lon="14.81468019953978"><ele>685.6</ele><time>2026-04-25T10:18:50.999Z</time></trkpt><trkpt lat="40.74105502282099" lon="14.814754188130749"><ele>682.8</ele><time>2026-04-25T10:18:51.999Z</time></trkpt><trkpt lat="40.74112582295555" lon="14.814904410063146"><ele>680.0</ele><time>2026-04-25T10:18:53.999Z</time></trkpt><trkpt lat="40.74115600808687" lon="14.814978857803869"><ele>677.6666666666666</ele><time>2026-04-25T10:18:54.999Z</time></trkpt><trkpt lat="40.74114230045209" lon="14.815133307519284"><ele>675.3333333333333</ele><time>2026-04-25T10:18:55.999Z</time></trkpt><trkpt lat="40.741170798197146" lon="14.815218658637827"><ele>673.0</ele><time>2026-04-25T10:18:56.999Z</time></trkpt><trkpt lat="40.74121822934023" lon="14.815303937564611"><ele>670.6666666666666</ele><time>2026-04-25T10:18:57.999Z</time></trkpt><trkpt lat="40.74126734240423" lon="14.815377432351996"><ele>668.3333333333334</ele><time>2026-04-25T10:18:58.999Z</time></trkpt><trkpt lat="40.74129497448385" lon="14.815504535436874"><ele>666.0</ele><time>2026-04-25T10:19:00.999Z</time></trkpt><trkpt lat="40.741309560134056" lon="14.815593220791495"><ele>666.0</ele><time>2026-04-25T10:19:01.999Z</time></trkpt><trkpt lat="40.741298166046285" lon="14.81568101220248"><ele>666.0</ele><time>2026-04-25T10:19:02.999Z</time></trkpt><trkpt lat="40.741319389125564" lon="14.815858856131268"><ele>666.0</ele><time>2026-04-25T10:19:04.999Z</time></trkpt><trkpt lat="40.741337252130066" lon="14.815940971010882"><ele>666.0</ele><time>2026-04-25T10:19:05.999Z</time></trkpt><trkpt lat="40.74139933617441" lon="14.816049243009623"><ele>666.0</ele><time>2026-04-25T10:19:07.999Z</time></trkpt><trkpt lat="40.741452862861514" lon="14.816109211758555"><ele>666.0</ele><time>2026-04-25T10:19:08.999Z</time></trkpt><trkpt lat="40.74149792288508" lon="14.816172967955973"><ele>664.5999999999999</ele><time>2026-04-25T10:19:09.999Z</time></trkpt><trkpt lat="40.74154968147527" lon="14.816229592164653"><ele>663.2</ele><time>2026-04-25T10:19:10.999Z</time></trkpt><trkpt lat="40.741665881651116" lon="14.81633270907948"><ele>661.8</ele><time>2026-04-25T10:19:12.999Z</time></trkpt><trkpt lat="40.74175322801641" lon="14.816402684372871"><ele>660.4000000000001</ele><time>2026-04-25T10:19:13.999Z</time></trkpt><trkpt lat="40.741842965721204" lon="14.816450778124327"><ele>659.0</ele><time>2026-04-25T10:19:14.999Z</time></trkpt><trkpt lat="40.74193050599464" lon="14.816492359062767"><ele>659.0</ele><time>2026-04-25T10:19:15.999Z</time></trkpt><trkpt lat="40.74201802425859" lon="14.816520310408562"><ele>659.0</ele><time>2026-04-25T10:19:16.999Z</time></trkpt><trkpt lat="40.7420938888609" lon="14.816553475181527"><ele>659.0</ele><time>2026-04-25T10:19:17.999Z</time></trkpt><trkpt lat="40.74214471717113" lon="14.816623519708697"><ele>659.0</ele><time>2026-04-25T10:19:18.999Z</time></trkpt><trkpt lat="40.74219748464883" lon="14.816724132423445"><ele>659.0</ele><time>2026-04-25T10:19:19.999Z</time></trkpt><trkpt lat="40.74224606775818" lon="14.816828995317893"><ele>659.0</ele><time>2026-04-25T10:19:20.999Z</time></trkpt><trkpt lat="40.74229088052361" lon="14.816921756471272"><ele>661.8333333333333</ele><time>2026-04-25T10:19:21.999Z</time></trkpt><trkpt lat="40.74232609336691" lon="14.81700139562232"><ele>664.6666666666666</ele><time>2026-04-25T10:19:22.999Z</time></trkpt><trkpt lat="40.74234601754811" lon="14.81709017746361"><ele>667.5</ele><time>2026-04-25T10:19:23.999Z</time></trkpt><trkpt lat="40.74237092081629" lon="14.817174402091878"><ele>670.3333333333334</ele><time>2026-04-25T10:19:24.999Z</time></trkpt><trkpt lat="40.74245127858943" lon="14.817303877017583"><ele>673.1666666666667</ele><time>2026-04-25T10:19:26.999Z</time></trkpt><trkpt lat="40.74250682791062" lon="14.817377535952883"><ele>676.0</ele><time>2026-04-25T10:19:27.999Z</time></trkpt><trkpt lat="40.742532209090975" lon="14.817476801792488"><ele>676.0</ele><time>2026-04-25T10:19:28.999Z</time></trkpt><trkpt lat="40.74253589717828" lon="14.817579661730162"><ele>676.0</ele><time>2026-04-25T10:19:29.999Z</time></trkpt><trkpt lat="40.742474779053325" lon="14.817725356431872"><ele>676.0</ele><time>2026-04-25T10:19:31.999Z</time></trkpt><trkpt lat="40.74241645093633" lon="14.817803844094973"><ele>676.0</ele><time>2026-04-25T10:19:32.999Z</time></trkpt><trkpt lat="40.74235847852564" lon="14.81789448642155"><ele>676.0</ele><time>2026-04-25T10:19:33.999Z</time></trkpt><trkpt lat="40.74231107849564" lon="14.818055229895842"><ele>678.0</ele><time>2026-04-25T10:19:35.999Z</time></trkpt><trkpt lat="40.742307881260516" lon="14.8181569437192"><ele>680.0</ele><time>2026-04-25T10:19:36.999Z</time></trkpt><trkpt lat="40.74232841923344" lon="14.818267518955249"><ele>682.0</ele><time>2026-04-25T10:19:37.999Z</time></trkpt><trkpt lat="40.742371040746264" lon="14.818345810045331"><ele>684.0</ele><time>2026-04-25T10:19:38.999Z</time></trkpt><trkpt lat="40.742420410512004" lon="14.818442488445639"><ele>686.0</ele><time>2026-04-25T10:19:40Z</time></trkpt><trkpt lat="40.742469526498546" lon="14.818544578704062"><ele>688.0</ele><time>2026-04-25T10:19:41Z</time></trkpt><trkpt lat="40.74251543610659" lon="14.818657452333696"><ele>689.1666666666667</ele><time>2026-04-25T10:19:42Z</time></trkpt><trkpt lat="40.7425548797231" lon="14.818758676700568"><ele>690.3333333333334</ele><time>2026-04-25T10:19:43Z</time></trkpt><trkpt lat="40.742598522779076" lon="14.818845535473331"><ele>691.5</ele><time>2026-04-25T10:19:44Z</time></trkpt><trkpt lat="40.742638311054925" lon="14.81891863892899"><ele>692.6666666666666</ele><time>2026-04-25T10:19:45Z</time></trkpt><trkpt lat="40.74262035997499" lon="14.81907846139245"><ele>693.8333333333333</ele><time>2026-04-25T10:19:47Z</time></trkpt><trkpt lat="40.74256781502468" lon="14.819152895974836"><ele>695.0</ele><time>2026-04-25T10:19:48Z</time></trkpt><trkpt lat="40.742479864420105" lon="14.81919961094419"><ele>695.0</ele><time>2026-04-25T10:19:49Z</time></trkpt><trkpt lat="40.74237836129833" lon="14.819234157371644"><ele>695.0</ele><time>2026-04-25T10:19:50Z</time></trkpt><trkpt lat="40.74228882194693" lon="14.819294045550041"><ele>695.0</ele><time>2026-04-25T10:19:51Z</time></trkpt><trkpt lat="40.742220236931765" lon="14.819375414908968"><ele>695.0</ele><time>2026-04-25T10:19:52Z</time></trkpt><trkpt lat="40.74215233823203" lon="14.819478359565315"><ele>695.0</ele><time>2026-04-25T10:19:53Z</time></trkpt><trkpt lat="40.742064646684454" lon="14.819586144809241"><ele>694.2</ele><time>2026-04-25T10:19:54Z</time></trkpt><trkpt lat="40.74198147911082" lon="14.819684542222047"><ele>693.4</ele><time>2026-04-25T10:19:55Z</time></trkpt><trkpt lat="40.74190486485847" lon="14.819780606667713"><ele>692.5999999999999</ele><time>2026-04-25T10:19:56Z</time></trkpt><trkpt lat="40.74183947241176" lon="14.819862449068271"><ele>691.8</ele><time>2026-04-25T10:19:57Z</time></trkpt><trkpt lat="40.741768819523934" lon="14.819926476962758"><ele>691.0</ele><time>2026-04-25T10:19:58Z</time></trkpt><trkpt lat="40.74169613769017" lon="14.819984559917893"><ele>691.0</ele><time>2026-04-25T10:19:59Z</time></trkpt><trkpt lat="40.74164213045517" lon="14.820041514118733"><ele>691.0</ele><time>2026-04-25T10:20:00Z</time></trkpt><trkpt lat="40.74166618213427" lon="14.820127469697992"><ele>691.0</ele><time>2026-04-25T10:20:03Z</time></trkpt><trkpt lat="40.74177968784833" lon="14.820112637512024"><ele>691.0</ele><time>2026-04-25T10:20:05Z</time></trkpt><trkpt lat="40.741856993489826" lon="14.820085218610307"><ele>691.0</ele><time>2026-04-25T10:20:06Z</time></trkpt><trkpt lat="40.74192038554066" lon="14.82006862782637"><ele>691.0</ele><time>2026-04-25T10:20:07Z</time></trkpt><trkpt lat="40.74202568343608" lon="14.8201303676115"><ele>694.5999999999999</ele><time>2026-04-25T10:20:09Z</time></trkpt><trkpt lat="40.74210994219181" lon="14.820245481249534"><ele>698.2</ele><time>2026-04-25T10:20:11Z</time></trkpt><trkpt lat="40.742148017094785" lon="14.820326799540553"><ele>701.8</ele><time>2026-04-25T10:20:12Z</time></trkpt><trkpt lat="40.74219118112572" lon="14.820394056544922"><ele>705.4000000000001</ele><time>2026-04-25T10:20:13Z</time></trkpt><trkpt lat="40.74226400965409" lon="14.820489703831056"><ele>709.0</ele><time>2026-04-25T10:20:15Z</time></trkpt><trkpt lat="40.74236635349453" lon="14.820542125422305"><ele>709.0</ele><time>2026-04-25T10:20:17Z</time></trkpt><trkpt lat="40.742456421983" lon="14.820572284265033"><ele>709.0</ele><time>2026-04-25T10:20:18Z</time></trkpt><trkpt lat="40.74255923850177" lon="14.820615927392147"><ele>709.0</ele><time>2026-04-25T10:20:19Z</time></trkpt><trkpt lat="40.74262724198787" lon="14.820673835494057"><ele>709.0</ele><time>2026-04-25T10:20:20Z</time></trkpt><trkpt lat="40.74268312785942" lon="14.820766089754628"><ele>709.0</ele><time>2026-04-25T10:20:21Z</time></trkpt><trkpt lat="40.74273833054515" lon="14.820866760018562"><ele>712.6</ele><time>2026-04-25T10:20:21.999Z</time></trkpt><trkpt lat="40.74279694499694" lon="14.820974767226673"><ele>716.2</ele><time>2026-04-25T10:20:22.999Z</time></trkpt><trkpt lat="40.742850242830436" lon="14.821094529045114"><ele>719.8000000000001</ele><time>2026-04-25T10:20:23.999Z</time></trkpt><trkpt lat="40.74290490948776" lon="14.821228308740876"><ele>723.4000000000001</ele><time>2026-04-25T10:20:24.999Z</time></trkpt><trkpt lat="40.74294992214184" lon="14.821344252522012"><ele>727.0</ele><time>2026-04-25T10:20:25.999Z</time></trkpt><trkpt lat="40.74298498922183" lon="14.821464484013685"><ele>727.0</ele><time>2026-04-25T10:20:26.999Z</time></trkpt><trkpt lat="40.743013010434936" lon="14.82158727623366"><ele>727.0</ele><time>2026-04-25T10:20:27.999Z</time></trkpt><trkpt lat="40.74301689409241" lon="14.821716485808714"><ele>727.0</ele><time>2026-04-25T10:20:28.999Z</time></trkpt><trkpt lat="40.74301693190073" lon="14.821863780603845"><ele>727.0</ele><time>2026-04-25T10:20:29.999Z</time></trkpt><trkpt lat="40.74303975680095" lon="14.821985608762612"><ele>727.0</ele><time>2026-04-25T10:20:30.999Z</time></trkpt><trkpt lat="40.743047299929636" lon="14.822129308355985"><ele>727.0</ele><time>2026-04-25T10:20:32.999Z</time></trkpt><trkpt lat="40.74300415129934" lon="14.822219168942203"><ele>727.0</ele><time>2026-04-25T10:20:33.999Z</time></trkpt><trkpt lat="40.74297618568042" lon="14.822310006571913"><ele>727.0</ele><time>2026-04-25T10:20:34.999Z</time></trkpt><trkpt lat="40.74296366241722" lon="14.822419637254887"><ele>727.0</ele><time>2026-04-25T10:20:35.999Z</time></trkpt><trkpt lat="40.74295082710215" lon="14.822547359269794"><ele>727.0</ele><time>2026-04-25T10:20:36.999Z</time></trkpt><trkpt lat="40.74292698444358" lon="14.822644877315962"><ele>727.0</ele><time>2026-04-25T10:20:37.999Z</time></trkpt><trkpt lat="40.74288770772698" lon="14.822727197055722"><ele>721.2</ele><time>2026-04-25T10:20:38.999Z</time></trkpt><trkpt lat="40.742885509999525" lon="14.822851696862987"><ele>715.4000000000001</ele><time>2026-04-25T10:20:40.999Z</time></trkpt><trkpt lat="40.74296855670248" lon="14.82290948748898"><ele>709.5999999999999</ele><time>2026-04-25T10:20:42.999Z</time></trkpt><trkpt lat="40.7430462093026" lon="14.822923892030744"><ele>703.8</ele><time>2026-04-25T10:20:43.999Z</time></trkpt><trkpt lat="40.7431406570409" lon="14.822939170086844"><ele>698.0</ele><time>2026-04-25T10:20:44.999Z</time></trkpt><trkpt lat="40.74324333762966" lon="14.82294842005078"><ele>698.0</ele><time>2026-04-25T10:20:45.999Z</time></trkpt><trkpt lat="40.743334806135756" lon="14.822945003338248"><ele>698.0</ele><time>2026-04-25T10:20:46.999Z</time></trkpt><trkpt lat="40.74343859274769" lon="14.82293658796273"><ele>698.0</ele><time>2026-04-25T10:20:47.999Z</time></trkpt><trkpt lat="40.74354237558496" lon="14.82293230637949"><ele>698.0</ele><time>2026-04-25T10:20:48.999Z</time></trkpt><trkpt lat="40.743625026146766" lon="14.822928627042609"><ele>698.0</ele><time>2026-04-25T10:20:49.999Z</time></trkpt><trkpt lat="40.7436944903364" lon="14.822950225437479"><ele>702.5999999999999</ele><time>2026-04-25T10:20:50.999Z</time></trkpt><trkpt lat="40.74376022565438" lon="14.82301259083676"><ele>707.1999999999999</ele><time>2026-04-25T10:20:51.999Z</time></trkpt><trkpt lat="40.74383503000519" lon="14.823102193519006"><ele>711.8</ele><time>2026-04-25T10:20:52.999Z</time></trkpt><trkpt lat="40.74392049809367" lon="14.823194228003224"><ele>716.4</ele><time>2026-04-25T10:20:53.999Z</time></trkpt><trkpt lat="40.744006160464174" lon="14.823249026724735"><ele>721.0</ele><time>2026-04-25T10:20:54.999Z</time></trkpt><trkpt lat="40.74407982390757" lon="14.823375850950306"><ele>721.0</ele><time>2026-04-25T10:20:56.999Z</time></trkpt><trkpt lat="40.74408956870804" lon="14.823466733333378"><ele>721.0</ele><time>2026-04-25T10:20:57.999Z</time></trkpt><trkpt lat="40.744123183520934" lon="14.823548781585306"><ele>721.0</ele><time>2026-04-25T10:20:58.999Z</time></trkpt><trkpt lat="40.74418616257869" lon="14.823600794043115"><ele>721.0</ele><time>2026-04-25T10:20:59.999Z</time></trkpt><trkpt lat="40.744261399426904" lon="14.823633171388856"><ele>721.0</ele><time>2026-04-25T10:21:00.999Z</time></trkpt><trkpt lat="40.74433549837787" lon="14.823644543480885"><ele>721.0</ele><time>2026-04-25T10:21:01.999Z</time></trkpt><trkpt lat="40.744417089574505" lon="14.823665901109464"><ele>722.1666666666667</ele><time>2026-04-25T10:21:02.999Z</time></trkpt><trkpt lat="40.74451112959204" lon="14.823702585407018"><ele>723.3333333333334</ele><time>2026-04-25T10:21:03.999Z</time></trkpt><trkpt lat="40.74457497068344" lon="14.823740937140057"><ele>724.5</ele><time>2026-04-25T10:21:04.999Z</time></trkpt><trkpt lat="40.74462602545203" lon="14.823866412292206"><ele>725.6666666666666</ele><time>2026-04-25T10:21:06.999Z</time></trkpt><trkpt lat="40.744626083555346" lon="14.823961686201834"><ele>726.8333333333333</ele><time>2026-04-25T10:21:07.999Z</time></trkpt><trkpt lat="40.74466725457222" lon="14.824039375460174"><ele>728.0</ele><time>2026-04-25T10:21:08.999Z</time></trkpt><trkpt lat="40.744726146255594" lon="14.824079951351198"><ele>728.0</ele><time>2026-04-25T10:21:09.999Z</time></trkpt><trkpt lat="40.74479764427211" lon="14.824082794701678"><ele>728.0</ele><time>2026-04-25T10:21:10.999Z</time></trkpt><trkpt lat="40.744873119986686" lon="14.824098413026045"><ele>728.0</ele><time>2026-04-25T10:21:11.999Z</time></trkpt><trkpt lat="40.74494624481766" lon="14.824149913437797"><ele>728.0</ele><time>2026-04-25T10:21:12.999Z</time></trkpt><trkpt lat="40.74500854422311" lon="14.824240450698072"><ele>728.0</ele><time>2026-04-25T10:21:13.999Z</time></trkpt><trkpt lat="40.74505496327552" lon="14.824341762498118"><ele>728.0</ele><time>2026-04-25T10:21:14.999Z</time></trkpt><trkpt lat="40.74507434942721" lon="14.824458784844698"><ele>727.8</ele><time>2026-04-25T10:21:15.999Z</time></trkpt><trkpt lat="40.74508982320728" lon="14.8245631971289"><ele>727.5999999999999</ele><time>2026-04-25T10:21:16.999Z</time></trkpt><trkpt lat="40.74515788950688" lon="14.824647068199047"><ele>727.4000000000001</ele><time>2026-04-25T10:21:18.999Z</time></trkpt><trkpt lat="40.74522539706686" lon="14.82472615672022"><ele>727.2</ele><time>2026-04-25T10:21:19.999Z</time></trkpt><trkpt lat="40.745317682963034" lon="14.82478753702185"><ele>727.0</ele><time>2026-04-25T10:21:20.999Z</time></trkpt><trkpt lat="40.74539337185361" lon="14.824838298738028"><ele>727.0</ele><time>2026-04-25T10:21:21.999Z</time></trkpt><trkpt lat="40.745475351532455" lon="14.824860036855103"><ele>727.0</ele><time>2026-04-25T10:21:22.999Z</time></trkpt><trkpt lat="40.745532410390005" lon="14.82491530492878"><ele>727.0</ele><time>2026-04-25T10:21:23.999Z</time></trkpt><trkpt lat="40.74557439571111" lon="14.825025161145348"><ele>727.0</ele><time>2026-04-25T10:21:24.999Z</time></trkpt><trkpt lat="40.74562441823345" lon="14.825132624095001"><ele>727.0</ele><time>2026-04-25T10:21:25.999Z</time></trkpt><trkpt lat="40.745692167861705" lon="14.825221928611109"><ele>727.0</ele><time>2026-04-25T10:21:26.999Z</time></trkpt><trkpt lat="40.745780199744644" lon="14.825298538934168"><ele>725.5</ele><time>2026-04-25T10:21:27.999Z</time></trkpt><trkpt lat="40.74583537354826" lon="14.825378257145928"><ele>724.0</ele><time>2026-04-25T10:21:28.999Z</time></trkpt><trkpt lat="40.74586846731172" lon="14.8254843218587"><ele>722.5</ele><time>2026-04-25T10:21:29.999Z</time></trkpt><trkpt lat="40.745883844429216" lon="14.825605172409842"><ele>721.0</ele><time>2026-04-25T10:21:30.999Z</time></trkpt><trkpt lat="40.74588395002321" lon="14.825729780298143"><ele>719.5</ele><time>2026-04-25T10:21:31.999Z</time></trkpt><trkpt lat="40.74590348044695" lon="14.825835748187284"><ele>718.0</ele><time>2026-04-25T10:21:32.999Z</time></trkpt><trkpt lat="40.745944855784074" lon="14.825939256145455"><ele>717.8</ele><time>2026-04-25T10:21:33.999Z</time></trkpt><trkpt lat="40.745996487907824" lon="14.826074882885035"><ele>717.5999999999999</ele><time>2026-04-25T10:21:34.999Z</time></trkpt><trkpt lat="40.746056249960645" lon="14.826183002248712"><ele>717.4000000000001</ele><time>2026-04-25T10:21:35.999Z</time></trkpt><trkpt lat="40.74612487433781" lon="14.826269737932147"><ele>717.2</ele><time>2026-04-25T10:21:36.999Z</time></trkpt><trkpt lat="40.74618749734923" lon="14.826357491222943"><ele>717.0</ele><time>2026-04-25T10:21:37.999Z</time></trkpt><trkpt lat="40.746252373508845" lon="14.826434760039438"><ele>716.8333333333334</ele><time>2026-04-25T10:21:39.999Z</time></trkpt><trkpt lat="40.74631491084034" lon="14.82651033610246"><ele>716.6666666666666</ele><time>2026-04-25T10:23:31.999Z</time></trkpt><trkpt lat="40.74632427177895" lon="14.82662892844827"><ele>716.5</ele><time>2026-04-25T10:23:34.999Z</time></trkpt><trkpt lat="40.746314147332015" lon="14.826715340605688"><ele>716.3333333333333</ele><time>2026-04-25T10:23:36.999Z</time></trkpt><trkpt lat="40.74630890036805" lon="14.826837578791128"><ele>716.1666666666666</ele><time>2026-04-25T10:23:38.999Z</time></trkpt><trkpt lat="40.74630212491475" lon="14.826956074296884"><ele>716.0</ele><time>2026-04-25T10:23:40.999Z</time></trkpt><trkpt lat="40.74628154941575" lon="14.827046678644585"><ele>719.5999999999999</ele><time>2026-04-25T10:23:42.999Z</time></trkpt><trkpt lat="40.74623024385572" lon="14.8271785996378"><ele>723.2</ele><time>2026-04-25T10:23:44.999Z</time></trkpt><trkpt lat="40.74619156437373" lon="14.827278807068305"><ele>726.8</ele><time>2026-04-25T10:23:46.999Z</time></trkpt><trkpt lat="40.746111020413" lon="14.827375104754095"><ele>730.4000000000001</ele><time>2026-04-25T10:23:48.999Z</time></trkpt><trkpt lat="40.74601456507286" lon="14.82745098590583"><ele>734.0</ele><time>2026-04-25T10:23:50.999Z</time></trkpt><trkpt lat="40.745968987248624" lon="14.827577054645396"><ele>738.6666666666666</ele><time>2026-04-25T10:23:53Z</time></trkpt><trkpt lat="40.745961327425285" lon="14.827676105651538"><ele>743.3333333333333</ele><time>2026-04-25T10:23:54Z</time></trkpt><trkpt lat="40.74595152217243" lon="14.827784384338035"><ele>748.0</ele><time>2026-04-25T10:23:55Z</time></trkpt><trkpt lat="40.745929733664106" lon="14.827875534154987"><ele>752.6666666666666</ele><time>2026-04-25T10:23:56Z</time></trkpt><trkpt lat="40.745894467355114" lon="14.827974058202965"><ele>757.3333333333334</ele><time>2026-04-25T10:23:57Z</time></trkpt><trkpt lat="40.74585950289326" lon="14.82805584575862"><ele>762.0</ele><time>2026-04-25T10:23:58Z</time></trkpt><trkpt lat="40.745761236281304" lon="14.828161976843973"><ele>762.0</ele><time>2026-04-25T10:24:00Z</time></trkpt><trkpt lat="40.74568545708056" lon="14.828173445525334"><ele>762.0</ele><time>2026-04-25T10:24:01Z</time></trkpt><trkpt lat="40.74561211640463" lon="14.828170958836763"><ele>762.0</ele><time>2026-04-25T10:24:02Z</time></trkpt><trkpt lat="40.745552957985446" lon="14.828208684282979"><ele>762.0</ele><time>2026-04-25T10:24:03Z</time></trkpt><trkpt lat="40.74548914881099" lon="14.828343684839066"><ele>762.0</ele><time>2026-04-25T10:24:05Z</time></trkpt><trkpt lat="40.745487511314494" lon="14.828459441181161"><ele>762.0</ele><time>2026-04-25T10:24:06Z</time></trkpt><trkpt lat="40.745496130408476" lon="14.82859403148357"><ele>764.1666666666666</ele><time>2026-04-25T10:24:07Z</time></trkpt><trkpt lat="40.74550029348793" lon="14.82868969143021"><ele>766.3333333333333</ele><time>2026-04-25T10:24:08Z</time></trkpt><trkpt lat="40.74542339165855" lon="14.82881574291573"><ele>768.5</ele><time>2026-04-25T10:24:10Z</time></trkpt><trkpt lat="40.74536075619471" lon="14.828832555744444"><ele>770.6666666666666</ele><time>2026-04-25T10:24:11Z</time></trkpt><trkpt lat="40.74527812366065" lon="14.828829901839597"><ele>772.8333333333333</ele><time>2026-04-25T10:24:12Z</time></trkpt><trkpt lat="40.745186759884334" lon="14.828837325389678"><ele>775.0</ele><time>2026-04-25T10:24:13Z</time></trkpt><trkpt lat="40.74509713239258" lon="14.828844245171183"><ele>775.0</ele><time>2026-04-25T10:24:14Z</time></trkpt><trkpt lat="40.74502071854241" lon="14.828827598760194"><ele>775.0</ele><time>2026-04-25T10:24:15Z</time></trkpt><trkpt lat="40.74493630671444" lon="14.828808692280514"><ele>775.0</ele><time>2026-04-25T10:24:16Z</time></trkpt><trkpt lat="40.744849677793994" lon="14.828776984362284"><ele>775.0</ele><time>2026-04-25T10:24:17Z</time></trkpt><trkpt lat="40.74475743204959" lon="14.828768816301501"><ele>775.0</ele><time>2026-04-25T10:24:18Z</time></trkpt><trkpt lat="40.744645609919374" lon="14.828768505860518"><ele>775.0</ele><time>2026-04-25T10:24:19Z</time></trkpt><trkpt lat="40.74453769519745" lon="14.828773892969771"><ele>775.0</ele><time>2026-04-25T10:24:20Z</time></trkpt><trkpt lat="40.74443685817512" lon="14.828787256603952"><ele>775.0</ele><time>2026-04-25T10:24:21Z</time></trkpt><trkpt lat="40.74433095682057" lon="14.82880325336602"><ele>775.0</ele><time>2026-04-25T10:24:22Z</time></trkpt><trkpt lat="40.7442316537976" lon="14.828819868254833"><ele>775.0</ele><time>2026-04-25T10:24:23Z</time></trkpt><trkpt lat="40.744139174150135" lon="14.828822198506677"><ele>773.9999999999999</ele><time>2026-04-25T10:24:24Z</time></trkpt><trkpt lat="40.74404562445335" lon="14.82880469842771"><ele>773.0</ele><time>2026-04-25T10:24:25Z</time></trkpt><trkpt lat="40.74395763159883" lon="14.828782295384734"><ele>772.0</ele><time>2026-04-25T10:24:26Z</time></trkpt><trkpt lat="40.743873861496354" lon="14.828764847289873"><ele>771.0</ele><time>2026-04-25T10:24:27Z</time></trkpt><trkpt lat="40.74380665483838" lon="14.828741804352711"><ele>769.9999999999999</ele><time>2026-04-25T10:24:28Z</time></trkpt><trkpt lat="40.74373148788161" lon="14.828779074896007"><ele>769.0</ele><time>2026-04-25T10:24:31Z</time></trkpt><trkpt lat="40.74378363088171" lon="14.828931877669351"><ele>769.0</ele><time>2026-04-25T10:24:34Z</time></trkpt><trkpt lat="40.74381143684063" lon="14.829020435423596"><ele>769.0</ele><time>2026-04-25T10:24:35Z</time></trkpt><trkpt lat="40.74387201943282" lon="14.829130382384436"><ele>769.0</ele><time>2026-04-25T10:24:36Z</time></trkpt><trkpt lat="40.7439301691436" lon="14.829268806996907"><ele>769.0</ele><time>2026-04-25T10:24:37Z</time></trkpt><trkpt lat="40.74400988407407" lon="14.829443191806694"><ele>767.6</ele><time>2026-04-25T10:24:38Z</time></trkpt><trkpt lat="40.744048918176915" lon="14.829570917641327"><ele>766.2</ele><time>2026-04-25T10:24:39Z</time></trkpt><trkpt lat="40.7440851441486" lon="14.829690294430918"><ele>764.8000000000001</ele><time>2026-04-25T10:24:40Z</time></trkpt><trkpt lat="40.74413339168017" lon="14.829825634743633"><ele>763.4000000000001</ele><time>2026-04-25T10:24:41Z</time></trkpt><trkpt lat="40.74418911179773" lon="14.829954264613116"><ele>762.0</ele><time>2026-04-25T10:24:42Z</time></trkpt><trkpt lat="40.744251525301486" lon="14.830064723051377"><ele>764.6</ele><time>2026-04-25T10:24:43Z</time></trkpt><trkpt lat="40.74432132827229" lon="14.830141941491032"><ele>767.2</ele><time>2026-04-25T10:24:44Z</time></trkpt><trkpt lat="40.74440166241467" lon="14.830203037836704"><ele>769.8</ele><time>2026-04-25T10:24:45Z</time></trkpt><trkpt lat="40.74449826504502" lon="14.830288580968652"><ele>772.4</ele><time>2026-04-25T10:24:45.999Z</time></trkpt><trkpt lat="40.74459829096184" lon="14.830374030264485"><ele>775.0</ele><time>2026-04-25T10:24:46.999Z</time></trkpt><trkpt lat="40.744692378859455" lon="14.830482546536267"><ele>775.0</ele><time>2026-04-25T10:24:47.999Z</time></trkpt><trkpt lat="40.744782851090775" lon="14.83062732900485"><ele>775.0</ele><time>2026-04-25T10:24:48.999Z</time></trkpt><trkpt lat="40.74486701337642" lon="14.830767601780046"><ele>775.0</ele><time>2026-04-25T10:24:49.999Z</time></trkpt><trkpt lat="40.744941552826035" lon="14.830901941304868"><ele>775.0</ele><time>2026-04-25T10:24:50.999Z</time></trkpt><trkpt lat="40.74500326144834" lon="14.83099816350897"><ele>773.6666666666666</ele><time>2026-04-25T10:24:51.999Z</time></trkpt><trkpt lat="40.745051856373834" lon="14.831058989609025"><ele>772.3333333333333</ele><time>2026-04-25T10:24:52.999Z</time></trkpt><trkpt lat="40.7451092801666" lon="14.831132543038255"><ele>771.0</ele><time>2026-04-25T10:24:53.999Z</time></trkpt><trkpt lat="40.7451835430062" lon="14.831142471037527"><ele>769.6666666666666</ele><time>2026-04-25T10:24:54.999Z</time></trkpt><trkpt lat="40.74526389990469" lon="14.831156872239216"><ele>768.3333333333333</ele><time>2026-04-25T10:24:55.999Z</time></trkpt><trkpt lat="40.74536110365402" lon="14.831171203411477"><ele>767.0</ele><time>2026-04-25T10:24:56.999Z</time></trkpt><trkpt lat="40.74546547728343" lon="14.831169556196192"><ele>767.0</ele><time>2026-04-25T10:24:57.999Z</time></trkpt><trkpt lat="40.745552534443135" lon="14.831166237112223"><ele>767.0</ele><time>2026-04-25T10:24:58.999Z</time></trkpt><trkpt lat="40.74562947659599" lon="14.831155886647563"><ele>767.0</ele><time>2026-04-25T10:24:59.999Z</time></trkpt><trkpt lat="40.7457513743566" lon="14.831202667343295"><ele>767.0</ele><time>2026-04-25T10:25:01.999Z</time></trkpt><trkpt lat="40.745774766746806" lon="14.831282610513593"><ele>767.0</ele><time>2026-04-25T10:25:02.999Z</time></trkpt><trkpt lat="40.74578682130714" lon="14.8313966106851"><ele>767.0</ele><time>2026-04-25T10:25:03.999Z</time></trkpt><trkpt lat="40.74579641861646" lon="14.831520819564817"><ele>767.0</ele><time>2026-04-25T10:25:04.999Z</time></trkpt><trkpt lat="40.74583445128377" lon="14.831630307135637"><ele>767.0</ele><time>2026-04-25T10:25:05.999Z</time></trkpt><trkpt lat="40.74588915266052" lon="14.831719231391533"><ele>767.0</ele><time>2026-04-25T10:25:06.999Z</time></trkpt><trkpt lat="40.745944293878" lon="14.831780687242857"><ele>767.0</ele><time>2026-04-25T10:25:07.999Z</time></trkpt><trkpt lat="40.74601690496905" lon="14.83183217402034"><ele>767.0</ele><time>2026-04-25T10:25:08.999Z</time></trkpt><trkpt lat="40.74612218374333" lon="14.831831728506353"><ele>767.0</ele><time>2026-04-25T10:25:09.999Z</time></trkpt><trkpt lat="40.7462362289103" lon="14.831845385313942"><ele>763.25</ele><time>2026-04-25T10:25:10.999Z</time></trkpt><trkpt lat="40.746340709259414" lon="14.831870130759533"><ele>759.5</ele><time>2026-04-25T10:25:11.999Z</time></trkpt><trkpt lat="40.74644016488019" lon="14.831902140592678"><ele>755.75</ele><time>2026-04-25T10:25:12.999Z</time></trkpt><trkpt lat="40.74654837829365" lon="14.831955964484436"><ele>752.0</ele><time>2026-04-25T10:25:13.999Z</time></trkpt><trkpt lat="40.74667294599629" lon="14.832046309799475"><ele>752.0</ele><time>2026-04-25T10:25:14.999Z</time></trkpt><trkpt lat="40.74677957031923" lon="14.832129288911803"><ele>752.0</ele><time>2026-04-25T10:25:15.999Z</time></trkpt><trkpt lat="40.74686356497137" lon="14.832182166532373"><ele>752.0</ele><time>2026-04-25T10:25:16.999Z</time></trkpt><trkpt lat="40.74692837250421" lon="14.832196523306449"><ele>752.0</ele><time>2026-04-25T10:25:17.999Z</time></trkpt><trkpt lat="40.74701488161999" lon="14.832149269802292"><ele>752.0</ele><time>2026-04-25T10:25:19.999Z</time></trkpt><trkpt lat="40.747076979166806" lon="14.832004280871649"><ele>751.8</ele><time>2026-04-25T10:25:21.999Z</time></trkpt><trkpt lat="40.74711454719101" lon="14.831872625815176"><ele>751.6</ele><time>2026-04-25T10:25:22.999Z</time></trkpt><trkpt lat="40.74715318336257" lon="14.831714326188324"><ele>751.4</ele><time>2026-04-25T10:25:23.999Z</time></trkpt><trkpt lat="40.747187801560614" lon="14.83158181623164"><ele>751.1999999999999</ele><time>2026-04-25T10:25:24.999Z</time></trkpt><trkpt lat="40.74720381207069" lon="14.831466678531955"><ele>751.0</ele><time>2026-04-25T10:25:25.999Z</time></trkpt><trkpt lat="40.74721173740476" lon="14.8313701325658"><ele>751.0</ele><time>2026-04-25T10:25:26.999Z</time></trkpt><trkpt lat="40.74731744792874" lon="14.831226116367171"><ele>751.0</ele><time>2026-04-25T10:25:28.999Z</time></trkpt><trkpt lat="40.747368907566084" lon="14.831143258833498"><ele>751.0</ele><time>2026-04-25T10:25:29.999Z</time></trkpt><trkpt lat="40.747388702480706" lon="14.830970693514573"><ele>751.0</ele><time>2026-04-25T10:25:31.999Z</time></trkpt><trkpt lat="40.747431520142335" lon="14.830834395495842"><ele>749.5999999999999</ele><time>2026-04-25T10:25:33.999Z</time></trkpt><trkpt lat="40.74752962315103" lon="14.830806842650041"><ele>748.2</ele><time>2026-04-25T10:25:35.999Z</time></trkpt><trkpt lat="40.74761787729807" lon="14.830806698778442"><ele>746.8</ele><time>2026-04-25T10:25:36.999Z</time></trkpt><trkpt lat="40.74771056215946" lon="14.830850909882841"><ele>745.4000000000001</ele><time>2026-04-25T10:25:37.999Z</time></trkpt><trkpt lat="40.74780441111129" lon="14.830925120228144"><ele>744.0</ele><time>2026-04-25T10:25:38.999Z</time></trkpt><trkpt lat="40.747949201055256" lon="14.831008027535782"><ele>744.0</ele><time>2026-04-25T10:25:39.999Z</time></trkpt><trkpt lat="40.74807275116628" lon="14.831061869850167"><ele>744.0</ele><time>2026-04-25T10:25:40.999Z</time></trkpt><trkpt lat="40.74817464728333" lon="14.831142396840411"><ele>744.0</ele><time>2026-04-25T10:25:41.999Z</time></trkpt><trkpt lat="40.74825703316839" lon="14.831215011735306"><ele>744.0</ele><time>2026-04-25T10:25:42.999Z</time></trkpt><trkpt lat="40.748317807615834" lon="14.831263608102924"><ele>744.0</ele><time>2026-04-25T10:25:43.999Z</time></trkpt><trkpt lat="40.74842402060289" lon="14.831409635486617"><ele>744.0</ele><time>2026-04-25T10:25:45.999Z</time></trkpt><trkpt lat="40.74851140406901" lon="14.831461839722682"><ele>744.0</ele><time>2026-04-25T10:25:46.999Z</time></trkpt><trkpt lat="40.74861230915655" lon="14.83149768693368"><ele>744.0</ele><time>2026-04-25T10:25:47.999Z</time></trkpt><trkpt lat="40.74874589483583" lon="14.8315272580392"><ele>744.0</ele><time>2026-04-25T10:25:48.999Z</time></trkpt><trkpt lat="40.74887787816079" lon="14.831531895841431"><ele>742.8000000000001</ele><time>2026-04-25T10:25:49.999Z</time></trkpt><trkpt lat="40.7489476730128" lon="14.831557341135904"><ele>741.6</ele><time>2026-04-25T10:25:50.999Z</time></trkpt><trkpt lat="40.749052201311095" lon="14.831594519239161"><ele>740.4</ele><time>2026-04-25T10:25:52.999Z</time></trkpt><trkpt lat="40.749143154811414" lon="14.831726310736368"><ele>739.2</ele><time>2026-04-25T10:25:54.999Z</time></trkpt><trkpt lat="40.74918545541103" lon="14.831858021640961"><ele>738.0</ele><time>2026-04-25T10:25:55.999Z</time></trkpt><trkpt lat="40.74923617809274" lon="14.831989682033262"><ele>738.0</ele><time>2026-04-25T10:25:56.999Z</time></trkpt><trkpt lat="40.74929194803948" lon="14.83210229560622"><ele>738.0</ele><time>2026-04-25T10:25:58Z</time></trkpt><trkpt lat="40.74934706905472" lon="14.832198322535783"><ele>738.0</ele><time>2026-04-25T10:25:59Z</time></trkpt><trkpt lat="40.749429844302924" lon="14.83227650613322"><ele>738.0</ele><time>2026-04-25T10:26:01Z</time></trkpt><trkpt lat="40.74955232246104" lon="14.832199441886745"><ele>738.0</ele><time>2026-04-25T10:26:03Z</time></trkpt><trkpt lat="40.749638748402994" lon="14.832137094616508"><ele>738.1666666666666</ele><time>2026-04-25T10:26:04Z</time></trkpt><trkpt lat="40.74971587730408" lon="14.832114693448533"><ele>738.3333333333334</ele><time>2026-04-25T10:26:05Z</time></trkpt><trkpt lat="40.74978954971973" lon="14.832122635757374"><ele>738.5</ele><time>2026-04-25T10:26:06Z</time></trkpt><trkpt lat="40.74986321306029" lon="14.832137716721054"><ele>738.6666666666667</ele><time>2026-04-25T10:26:07Z</time></trkpt><trkpt lat="40.7499494103175" lon="14.832155532773118"><ele>738.8333333333334</ele><time>2026-04-25T10:26:08Z</time></trkpt><trkpt lat="40.7500783468248" lon="14.832176734976386"><ele>739.0</ele><time>2026-04-25T10:26:09Z</time></trkpt><trkpt lat="40.75020168212638" lon="14.832176175178091"><ele>737.4000000000001</ele><time>2026-04-25T10:26:10Z</time></trkpt><trkpt lat="40.750322473155805" lon="14.832197310540725"><ele>735.8</ele><time>2026-04-25T10:26:11Z</time></trkpt><trkpt lat="40.75043434749598" lon="14.832221176502067"><ele>734.2</ele><time>2026-04-25T10:26:12Z</time></trkpt><trkpt lat="40.75054032689995" lon="14.832230113723039"><ele>732.5999999999999</ele><time>2026-04-25T10:26:13Z</time></trkpt><trkpt lat="40.75061284397491" lon="14.832244601931162"><ele>731.0</ele><time>2026-04-25T10:26:14Z</time></trkpt><trkpt lat="40.75069319492105" lon="14.832265076380342"><ele>731.0</ele><time>2026-04-25T10:26:15Z</time></trkpt><trkpt lat="40.750770770991565" lon="14.832303742945701"><ele>731.0</ele><time>2026-04-25T10:26:16Z</time></trkpt><trkpt lat="40.750851035289266" lon="14.832372512548801"><ele>731.0</ele><time>2026-04-25T10:26:17Z</time></trkpt><trkpt lat="40.75092528689141" lon="14.832457736615398"><ele>731.0</ele><time>2026-04-25T10:26:18Z</time></trkpt><trkpt lat="40.750987272225984" lon="14.832524536328593"><ele>731.0</ele><time>2026-04-25T10:26:19Z</time></trkpt><trkpt lat="40.75109562271238" lon="14.832554165301985"><ele>730.6666666666666</ele><time>2026-04-25T10:26:20Z</time></trkpt><trkpt lat="40.75120802743643" lon="14.832584938569427"><ele>730.3333333333333</ele><time>2026-04-25T10:26:21Z</time></trkpt><trkpt lat="40.75129716645787" lon="14.832624953868272"><ele>730.0</ele><time>2026-04-25T10:26:22Z</time></trkpt><trkpt lat="40.751352394893125" lon="14.832686639352922"><ele>729.6666666666666</ele><time>2026-04-25T10:26:23Z</time></trkpt><trkpt lat="40.75138021102143" lon="14.832763374013934"><ele>729.3333333333334</ele><time>2026-04-25T10:26:24Z</time></trkpt><trkpt lat="40.751398328043464" lon="14.832875044609974"><ele>729.0</ele><time>2026-04-25T10:26:25Z</time></trkpt><trkpt lat="40.75141936072269" lon="14.833003639804188"><ele>729.0</ele><time>2026-04-25T10:26:26Z</time></trkpt><trkpt lat="40.75146175192799" lon="14.83313125770017"><ele>729.0</ele><time>2026-04-25T10:26:27Z</time></trkpt><trkpt lat="40.751517568937594" lon="14.833259378922158"><ele>729.0</ele><time>2026-04-25T10:26:28Z</time></trkpt><trkpt lat="40.75158554112423" lon="14.833390462628241"><ele>729.0</ele><time>2026-04-25T10:26:29Z</time></trkpt><trkpt lat="40.751649745832026" lon="14.833505482651216"><ele>729.0</ele><time>2026-04-25T10:26:30Z</time></trkpt><trkpt lat="40.751691482125366" lon="14.833604500867114"><ele>727.1666666666666</ele><time>2026-04-25T10:26:31Z</time></trkpt><trkpt lat="40.75173244113893" lon="14.833706108358019"><ele>725.3333333333334</ele><time>2026-04-25T10:26:32Z</time></trkpt><trkpt lat="40.751761481027124" lon="14.833805550254073"><ele>723.5</ele><time>2026-04-25T10:26:33Z</time></trkpt><trkpt lat="40.75178520410559" lon="14.833886155445258"><ele>721.6666666666667</ele><time>2026-04-25T10:26:34Z</time></trkpt><trkpt lat="40.751855731964696" lon="14.833995856524163"><ele>719.8333333333334</ele><time>2026-04-25T10:26:36Z</time></trkpt><trkpt lat="40.75193161391261" lon="14.834061275673267"><ele>718.0</ele><time>2026-04-25T10:26:37Z</time></trkpt><trkpt lat="40.75200890248887" lon="14.83413244440942"><ele>718.0</ele><time>2026-04-25T10:26:38Z</time></trkpt><trkpt lat="40.752101111716165" lon="14.834191905203747"><ele>718.0</ele><time>2026-04-25T10:26:39Z</time></trkpt><trkpt lat="40.752203331963806" lon="14.83425134465367"><ele>718.0</ele><time>2026-04-25T10:26:40Z</time></trkpt><trkpt lat="40.75229739240668" lon="14.834297428497656"><ele>718.0</ele><time>2026-04-25T10:26:41Z</time></trkpt><trkpt lat="40.75237861455622" lon="14.834314962745035"><ele>718.0</ele><time>2026-04-25T10:26:42Z</time></trkpt><trkpt lat="40.75246505655839" lon="14.834367527022245"><ele>719.2</ele><time>2026-04-25T10:26:44Z</time></trkpt><trkpt lat="40.75254891042418" lon="14.834492721259208"><ele>720.4</ele><time>2026-04-25T10:26:46Z</time></trkpt><trkpt lat="40.752589525822685" lon="14.834602532533744"><ele>721.6</ele><time>2026-04-25T10:26:46.999Z</time></trkpt><trkpt lat="40.75262505464915" lon="14.834735655634988"><ele>722.8000000000001</ele><time>2026-04-25T10:26:47.999Z</time></trkpt><trkpt lat="40.75266797403953" lon="14.834871514818946"><ele>724.0</ele><time>2026-04-25T10:26:48.999Z</time></trkpt><trkpt lat="40.75271024628602" lon="14.834956421283984"><ele>725.0</ele><time>2026-04-25T10:26:49.999Z</time></trkpt><trkpt lat="40.752767227053575" lon="14.835009674646114"><ele>726.0</ele><time>2026-04-25T10:26:50.999Z</time></trkpt><trkpt lat="40.75284157963306" lon="14.835044123005142"><ele>727.0</ele><time>2026-04-25T10:26:51.999Z</time></trkpt><trkpt lat="40.7529321263228" lon="14.8350752887324"><ele>728.0</ele><time>2026-04-25T10:26:52.999Z</time></trkpt><trkpt lat="40.75303136129797" lon="14.83508138642099"><ele>729.0</ele><time>2026-04-25T10:26:53.999Z</time></trkpt><trkpt lat="40.75313248038418" lon="14.835102730938432"><ele>730.0</ele><time>2026-04-25T10:26:54.999Z</time></trkpt><trkpt lat="40.75323663293669" lon="14.835139918585059"><ele>730.0</ele><time>2026-04-25T10:26:55.999Z</time></trkpt><trkpt lat="40.75332880381961" lon="14.835187075141283"><ele>730.0</ele><time>2026-04-25T10:26:56.999Z</time></trkpt><trkpt lat="40.75340661405489" lon="14.835249142971207"><ele>730.0</ele><time>2026-04-25T10:26:57.999Z</time></trkpt><trkpt lat="40.753479099435964" lon="14.83532718738913"><ele>730.0</ele><time>2026-04-25T10:26:58.999Z</time></trkpt><trkpt lat="40.75352329680089" lon="14.83542594802888"><ele>730.0</ele><time>2026-04-25T10:26:59.999Z</time></trkpt><trkpt lat="40.75354612830554" lon="14.835542845337443"><ele>729.4</ele><time>2026-04-25T10:27:00.999Z</time></trkpt><trkpt lat="40.7535538328025" lon="14.835696588686714"><ele>728.8</ele><time>2026-04-25T10:27:01.999Z</time></trkpt><trkpt lat="40.753567467969674" lon="14.835818859986873"><ele>728.2</ele><time>2026-04-25T10:27:02.999Z</time></trkpt><trkpt lat="40.75358460036295" lon="14.835902742527736"><ele>727.6</ele><time>2026-04-25T10:27:03.999Z</time></trkpt><trkpt lat="40.75366595472321" lon="14.836036007632869"><ele>727.0</ele><time>2026-04-25T10:27:05.999Z</time></trkpt><trkpt lat="40.753746279535655" lon="14.83609006820259"><ele>727.0</ele><time>2026-04-25T10:27:06.999Z</time></trkpt><trkpt lat="40.753830769558405" lon="14.836140098774734"><ele>727.0</ele><time>2026-04-25T10:27:07.999Z</time></trkpt><trkpt lat="40.75393309538399" lon="14.836169170504974"><ele>727.0</ele><time>2026-04-25T10:27:08.999Z</time></trkpt><trkpt lat="40.75403429774889" lon="14.836177778822202"><ele>727.0</ele><time>2026-04-25T10:27:09.999Z</time></trkpt><trkpt lat="40.7541261641317" lon="14.836174079355407"><ele>727.0</ele><time>2026-04-25T10:27:10.999Z</time></trkpt><trkpt lat="40.754202808529364" lon="14.836167750813285"><ele>727.0</ele><time>2026-04-25T10:27:11.999Z</time></trkpt><trkpt lat="40.75427566216397" lon="14.836145754067434"><ele>727.0</ele><time>2026-04-25T10:27:12.999Z</time></trkpt><trkpt lat="40.75438314567952" lon="14.836104765093136"><ele>727.0</ele><time>2026-04-25T10:27:13.999Z</time></trkpt><trkpt lat="40.75449119238803" lon="14.836078947616993"><ele>727.0</ele><time>2026-04-25T10:27:14.999Z</time></trkpt><trkpt lat="40.754601653312115" lon="14.836062576203433"><ele>727.0</ele><time>2026-04-25T10:27:15.999Z</time></trkpt><trkpt lat="40.754700339058175" lon="14.83604118639636"><ele>729.2</ele><time>2026-04-25T10:27:16.999Z</time></trkpt><trkpt lat="40.754787112782914" lon="14.836023794248009"><ele>731.4000000000001</ele><time>2026-04-25T10:27:17.999Z</time></trkpt><trkpt lat="40.75489008990576" lon="14.836000755358738"><ele>733.5999999999999</ele><time>2026-04-25T10:27:19.999Z</time></trkpt><trkpt lat="40.7549860894704" lon="14.836129789694434"><ele>735.8</ele><time>2026-04-25T10:27:21.999Z</time></trkpt><trkpt lat="40.755001168692836" lon="14.836253562783972"><ele>738.0</ele><time>2026-04-25T10:27:22.999Z</time></trkpt><trkpt lat="40.755032161414135" lon="14.83634275192665"><ele>738.0</ele><time>2026-04-25T10:27:23.999Z</time></trkpt><trkpt lat="40.75514804876647" lon="14.836401413456933"><ele>738.0</ele><time>2026-04-25T10:27:25.999Z</time></trkpt><trkpt lat="40.755244416593364" lon="14.836421564338687"><ele>738.0</ele><time>2026-04-25T10:27:26.999Z</time></trkpt><trkpt lat="40.75535810256574" lon="14.836429145513637"><ele>738.0</ele><time>2026-04-25T10:27:27.999Z</time></trkpt><trkpt lat="40.755482305504785" lon="14.836432686110678"><ele>739.5999999999999</ele><time>2026-04-25T10:27:28.999Z</time></trkpt><trkpt lat="40.75561249039635" lon="14.836434019694178"><ele>741.1999999999999</ele><time>2026-04-25T10:27:29.999Z</time></trkpt><trkpt lat="40.75569914590273" lon="14.836424607545599"><ele>742.8</ele><time>2026-04-25T10:27:30.999Z</time></trkpt><trkpt lat="40.75576536088613" lon="14.836407649030184"><ele>744.4</ele><time>2026-04-25T10:27:31.999Z</time></trkpt><trkpt lat="40.75583928474067" lon="14.836374504505986"><ele>746.0</ele><time>2026-04-25T10:27:32.999Z</time></trkpt><trkpt lat="40.75591933317773" lon="14.836310544245352"><ele>746.0</ele><time>2026-04-25T10:27:33.999Z</time></trkpt><trkpt lat="40.75599645287613" lon="14.836222742152795"><ele>746.0</ele><time>2026-04-25T10:27:34.999Z</time></trkpt><trkpt lat="40.75606861998099" lon="14.836177386913151"><ele>746.0</ele><time>2026-04-25T10:27:35.999Z</time></trkpt><trkpt lat="40.756159541434585" lon="14.836174448594148"><ele>746.0</ele><time>2026-04-25T10:27:36.999Z</time></trkpt><trkpt lat="40.7562717558395" lon="14.836165310090486"><ele>746.0</ele><time>2026-04-25T10:27:37.999Z</time></trkpt><trkpt lat="40.75636913319077" lon="14.836124061754614"><ele>745.0</ele><time>2026-04-25T10:27:38.999Z</time></trkpt><trkpt lat="40.756495275824065" lon="14.83603662250723"><ele>744.0</ele><time>2026-04-25T10:27:39.999Z</time></trkpt><trkpt lat="40.75659728005474" lon="14.835953346029473"><ele>743.0</ele><time>2026-04-25T10:27:40.999Z</time></trkpt><trkpt lat="40.75668750174014" lon="14.835888760299182"><ele>742.0</ele><time>2026-04-25T10:27:41.999Z</time></trkpt><trkpt lat="40.7567715426088" lon="14.835835956154648"><ele>742.6666666666667</ele><time>2026-04-25T10:27:42.999Z</time></trkpt><trkpt lat="40.75683824442126" lon="14.835794041428665"><ele>743.3333333333334</ele><time>2026-04-25T10:27:43.999Z</time></trkpt><trkpt lat="40.756908508347756" lon="14.835759409566908"><ele>744.0</ele><time>2026-04-25T10:27:45.999Z</time></trkpt><trkpt lat="40.75698013067846" lon="14.835768989292847"><ele>744.6666666666666</ele><time>2026-04-25T10:27:48.999Z</time></trkpt><trkpt lat="40.7570484143779" lon="14.835845829273163"><ele>745.3333333333333</ele><time>2026-04-25T10:28:36Z</time></trkpt><trkpt lat="40.75707323404107" lon="14.835966103492263"><ele>746.0</ele><time>2026-04-25T10:28:38Z</time></trkpt><trkpt lat="40.7570803252202" lon="14.83606382818709"><ele>746.0</ele><time>2026-04-25T10:28:39Z</time></trkpt><trkpt lat="40.757087135077484" lon="14.836163326861556"><ele>746.0</ele><time>2026-04-25T10:28:40Z</time></trkpt><trkpt lat="40.75705311070284" lon="14.836273693298773"><ele>746.0</ele><time>2026-04-25T10:28:41Z</time></trkpt><trkpt lat="40.757040589626705" lon="14.836406245494151"><ele>746.0</ele><time>2026-04-25T10:28:42Z</time></trkpt><trkpt lat="40.75702537551845" lon="14.83656441236724"><ele>746.0</ele><time>2026-04-25T10:28:43Z</time></trkpt><trkpt lat="40.75701327992345" lon="14.836703392359924"><ele>744.1999999999999</ele><time>2026-04-25T10:28:44Z</time></trkpt><trkpt lat="40.757002407886255" lon="14.836853777150159"><ele>742.4</ele><time>2026-04-25T10:28:45Z</time></trkpt><trkpt lat="40.75698818117149" lon="14.837008034794508"><ele>740.6</ele><time>2026-04-25T10:28:46Z</time></trkpt><trkpt lat="40.75696190515364" lon="14.83714982268766"><ele>738.8</ele><time>2026-04-25T10:28:47Z</time></trkpt><trkpt lat="40.75693216543704" lon="14.837272684777393"><ele>737.0</ele><time>2026-04-25T10:28:48Z</time></trkpt><trkpt lat="40.75689196488612" lon="14.837385542500057"><ele>736.75</ele><time>2026-04-25T10:28:49Z</time></trkpt><trkpt lat="40.756832561920525" lon="14.837514766898016"><ele>736.5</ele><time>2026-04-25T10:28:49.999Z</time></trkpt><trkpt lat="40.75675362104814" lon="14.837656251255746"><ele>736.25</ele><time>2026-04-25T10:28:50.999Z</time></trkpt><trkpt lat="40.756666902815994" lon="14.837797349379919"><ele>736.0</ele><time>2026-04-25T10:28:51.999Z</time></trkpt><trkpt lat="40.756580482734506" lon="14.837937138815029"><ele>737.25</ele><time>2026-04-25T10:28:52.999Z</time></trkpt><trkpt lat="40.75648905307498" lon="14.838078269040155"><ele>738.5</ele><time>2026-04-25T10:28:53.999Z</time></trkpt><trkpt lat="40.75640528422405" lon="14.838205732451646"><ele>739.75</ele><time>2026-04-25T10:28:54.999Z</time></trkpt><trkpt lat="40.75633044771957" lon="14.838329722436496"><ele>741.0</ele><time>2026-04-25T10:28:55.999Z</time></trkpt><trkpt lat="40.756266885717174" lon="14.838450525973052"><ele>740.4</ele><time>2026-04-25T10:28:56.999Z</time></trkpt><trkpt lat="40.756214077087684" lon="14.838563398735818"><ele>739.8</ele><time>2026-04-25T10:28:57.999Z</time></trkpt><trkpt lat="40.756165102996974" lon="14.838668538411273"><ele>739.1999999999999</ele><time>2026-04-25T10:28:58.999Z</time></trkpt><trkpt lat="40.75611307802044" lon="14.838777398659303"><ele>738.5999999999999</ele><time>2026-04-25T10:28:59.999Z</time></trkpt><trkpt lat="40.75606833547595" lon="14.838899405674562"><ele>738.0</ele><time>2026-04-25T10:29:00.999Z</time></trkpt><trkpt lat="40.75600487321519" lon="14.839013346369281"><ele>738.0</ele><time>2026-04-25T10:29:01.999Z</time></trkpt><trkpt lat="40.755939058009886" lon="14.83912939773976"><ele>738.0</ele><time>2026-04-25T10:29:02.999Z</time></trkpt><trkpt lat="40.75587201568103" lon="14.839263576899475"><ele>738.0</ele><time>2026-04-25T10:29:03.999Z</time></trkpt><trkpt lat="40.7557918815299" lon="14.839420234867287"><ele>738.0</ele><time>2026-04-25T10:29:04.999Z</time></trkpt><trkpt lat="40.75567553478191" lon="14.839581319600176"><ele>735.3333333333334</ele><time>2026-04-25T10:29:05.999Z</time></trkpt><trkpt lat="40.755564920107744" lon="14.839762048600363"><ele>732.6666666666667</ele><time>2026-04-25T10:29:06.999Z</time></trkpt><trkpt lat="40.755463160605444" lon="14.8399260317075"><ele>730.0</ele><time>2026-04-25T10:29:07.999Z</time></trkpt><trkpt lat="40.75537556940789" lon="14.8400797893683"><ele>732.0</ele><time>2026-04-25T10:29:08.999Z</time></trkpt><trkpt lat="40.75529723175876" lon="14.840264496465782"><ele>734.0</ele><time>2026-04-25T10:29:09.999Z</time></trkpt><trkpt lat="40.75521869188666" lon="14.840479664623754"><ele>736.0</ele><time>2026-04-25T10:29:10.999Z</time></trkpt><trkpt lat="40.755152047414974" lon="14.840661398320089"><ele>736.0</ele><time>2026-04-25T10:29:11.999Z</time></trkpt><trkpt lat="40.75509337216636" lon="14.84082136311139"><ele>736.0</ele><time>2026-04-25T10:29:12.999Z</time></trkpt><trkpt lat="40.755036243438745" lon="14.840977111665445"><ele>736.0</ele><time>2026-04-25T10:29:13.999Z</time></trkpt><trkpt lat="40.754976825339654" lon="14.841129666757231"><ele>736.0</ele><time>2026-04-25T10:29:14.999Z</time></trkpt><trkpt lat="40.75492160366254" lon="14.841258404520287"><ele>734.5999999999999</ele><time>2026-04-25T10:29:15.999Z</time></trkpt><trkpt lat="40.754871891325855" lon="14.841358972721702"><ele>733.2</ele><time>2026-04-25T10:29:16.999Z</time></trkpt><trkpt lat="40.75482396577304" lon="14.841432249659288"><ele>731.8</ele><time>2026-04-25T10:29:17.999Z</time></trkpt><trkpt lat="40.75476363016083" lon="14.841509443741954"><ele>730.4000000000001</ele><time>2026-04-25T10:29:18.999Z</time></trkpt><trkpt lat="40.754688692461926" lon="14.84158175861718"><ele>729.0</ele><time>2026-04-25T10:29:19.999Z</time></trkpt><trkpt lat="40.75458979091133" lon="14.841677237341171"><ele>729.0</ele><time>2026-04-25T10:29:20.999Z</time></trkpt><trkpt lat="40.75448725036243" lon="14.8417797609303"><ele>729.0</ele><time>2026-04-25T10:29:21.999Z</time></trkpt><trkpt lat="40.7543981914524" lon="14.841876848806795"><ele>729.0</ele><time>2026-04-25T10:29:22.999Z</time></trkpt><trkpt lat="40.75431402581315" lon="14.841984369240377"><ele>729.0</ele><time>2026-04-25T10:29:23.999Z</time></trkpt><trkpt lat="40.75425154261319" lon="14.84207423562893"><ele>729.8000000000001</ele><time>2026-04-25T10:29:24.999Z</time></trkpt><trkpt lat="40.75421350519929" lon="14.8421879937407"><ele>730.6</ele><time>2026-04-25T10:29:25.999Z</time></trkpt><trkpt lat="40.754198491230795" lon="14.842336433446452"><ele>731.4</ele><time>2026-04-25T10:29:26.999Z</time></trkpt><trkpt lat="40.754196442693846" lon="14.842496553724532"><ele>732.2</ele><time>2026-04-25T10:29:27.999Z</time></trkpt><trkpt lat="40.75421486341069" lon="14.842646321940727"><ele>733.0</ele><time>2026-04-25T10:29:28.999Z</time></trkpt><trkpt lat="40.754243326835606" lon="14.84277971743952"><ele>733.0</ele><time>2026-04-25T10:29:29.999Z</time></trkpt><trkpt lat="40.754282738997304" lon="14.842920751974281"><ele>733.0</ele><time>2026-04-25T10:29:30.999Z</time></trkpt><trkpt lat="40.75436275196821" lon="14.843047651279008"><ele>733.0</ele><time>2026-04-25T10:29:31.999Z</time></trkpt><trkpt lat="40.754454367601305" lon="14.843202576923225"><ele>733.0</ele><time>2026-04-25T10:29:32.999Z</time></trkpt><trkpt lat="40.75455757773659" lon="14.843344208583028"><ele>731.25</ele><time>2026-04-25T10:29:33.999Z</time></trkpt><trkpt lat="40.754639963576786" lon="14.843490104311323"><ele>729.5</ele><time>2026-04-25T10:29:34.999Z</time></trkpt><trkpt lat="40.75470605354131" lon="14.843661999321576"><ele>727.75</ele><time>2026-04-25T10:29:35.999Z</time></trkpt><trkpt lat="40.75475577994111" lon="14.84386511900006"><ele>726.0</ele><time>2026-04-25T10:29:36.999Z</time></trkpt><trkpt lat="40.75479626798464" lon="14.844051303666081"><ele>726.0</ele><time>2026-04-25T10:29:37.999Z</time></trkpt><trkpt lat="40.75484160215426" lon="14.844233004602245"><ele>726.0</ele><time>2026-04-25T10:29:38.999Z</time></trkpt><trkpt lat="40.75490339426025" lon="14.844395174638734"><ele>726.0</ele><time>2026-04-25T10:29:39.999Z</time></trkpt><trkpt lat="40.75498047830782" lon="14.84452269342509"><ele>726.0</ele><time>2026-04-25T10:29:40.999Z</time></trkpt><trkpt lat="40.75508145115016" lon="14.84463727611415"><ele>726.75</ele><time>2026-04-25T10:29:41.999Z</time></trkpt><trkpt lat="40.75521581305143" lon="14.84474684283797"><ele>727.5</ele><time>2026-04-25T10:29:42.999Z</time></trkpt><trkpt lat="40.755347581706715" lon="14.844840561448212"><ele>728.25</ele><time>2026-04-25T10:29:43.999Z</time></trkpt><trkpt lat="40.75545781531621" lon="14.844940220806253"><ele>729.0</ele><time>2026-04-25T10:29:44.999Z</time></trkpt><trkpt lat="40.75556120606592" lon="14.845043688397462"><ele>731.6666666666666</ele><time>2026-04-25T10:29:45.999Z</time></trkpt><trkpt lat="40.75566314928668" lon="14.845197501539044"><ele>734.3333333333333</ele><time>2026-04-25T10:29:46.999Z</time></trkpt><trkpt lat="40.75575326871609" lon="14.845350662696038"><ele>737.0</ele><time>2026-04-25T10:29:47.999Z</time></trkpt><trkpt lat="40.75584481306724" lon="14.845506833172525"><ele>737.0</ele><time>2026-04-25T10:29:48.999Z</time></trkpt><trkpt lat="40.755942393383116" lon="14.845644859632316"><ele>737.0</ele><time>2026-04-25T10:29:49.999Z</time></trkpt><trkpt lat="40.756055126453624" lon="14.845745659519016"><ele>737.0</ele><time>2026-04-25T10:29:50.999Z</time></trkpt><trkpt lat="40.756172489873435" lon="14.845844477938272"><ele>737.0</ele><time>2026-04-25T10:29:51.999Z</time></trkpt><trkpt lat="40.75628563276348" lon="14.845972339523508"><ele>736.75</ele><time>2026-04-25T10:29:52.999Z</time></trkpt><trkpt lat="40.756389268799474" lon="14.846079674413112"><ele>736.5</ele><time>2026-04-25T10:29:53.999Z</time></trkpt><trkpt lat="40.75648601001315" lon="14.846215914850145"><ele>736.25</ele><time>2026-04-25T10:29:54.999Z</time></trkpt><trkpt lat="40.75659605135419" lon="14.846365906937493"><ele>736.0</ele><time>2026-04-25T10:29:55.999Z</time></trkpt><trkpt lat="40.75668542436195" lon="14.846502592648829"><ele>736.0</ele><time>2026-04-25T10:29:56.999Z</time></trkpt><trkpt lat="40.75676003918086" lon="14.84664046058639"><ele>736.0</ele><time>2026-04-25T10:29:57.999Z</time></trkpt><trkpt lat="40.75682579355586" lon="14.84679407583472"><ele>736.0</ele><time>2026-04-25T10:29:58.999Z</time></trkpt><trkpt lat="40.756881078128636" lon="14.846950867897823"><ele>736.0</ele><time>2026-04-25T10:29:59.999Z</time></trkpt><trkpt lat="40.756940851411834" lon="14.847125219879718"><ele>735.5</ele><time>2026-04-25T10:30:00.999Z</time></trkpt><trkpt lat="40.75699455878404" lon="14.847288426297274"><ele>735.0</ele><time>2026-04-25T10:30:01.999Z</time></trkpt><trkpt lat="40.75704435476639" lon="14.847441285727273"><ele>734.5</ele><time>2026-04-25T10:30:02.999Z</time></trkpt><trkpt lat="40.75709692414345" lon="14.847608459060485"><ele>734.0</ele><time>2026-04-25T10:30:03.999Z</time></trkpt><trkpt lat="40.75714209464541" lon="14.847767625447048"><ele>736.0</ele><time>2026-04-25T10:30:04.999Z</time></trkpt><trkpt lat="40.75718620731267" lon="14.847928542947109"><ele>738.0</ele><time>2026-04-25T10:30:05.999Z</time></trkpt><trkpt lat="40.75724487545778" lon="14.848109788088873"><ele>740.0</ele><time>2026-04-25T10:30:06.999Z</time></trkpt><trkpt lat="40.75731827599782" lon="14.848283964306221"><ele>742.0</ele><time>2026-04-25T10:30:07.999Z</time></trkpt><trkpt lat="40.7574048871147" lon="14.848436296245609"><ele>741.75</ele><time>2026-04-25T10:30:08.999Z</time></trkpt><trkpt lat="40.75749839401466" lon="14.848579325177054"><ele>741.5</ele><time>2026-04-25T10:30:10Z</time></trkpt><trkpt lat="40.75758194778231" lon="14.848699856904174"><ele>741.25</ele><time>2026-04-25T10:30:11Z</time></trkpt><trkpt lat="40.75765426437779" lon="14.84883383830131"><ele>741.0</ele><time>2026-04-25T10:30:12Z</time></trkpt><trkpt lat="40.75771500683795" lon="14.848972445586053"><ele>741.0</ele><time>2026-04-25T10:30:13Z</time></trkpt><trkpt lat="40.75776160974406" lon="14.849101650862199"><ele>741.0</ele><time>2026-04-25T10:30:14Z</time></trkpt><trkpt lat="40.7577896660852" lon="14.849202248546638"><ele>741.0</ele><time>2026-04-25T10:30:15Z</time></trkpt><trkpt lat="40.7578073608704" lon="14.849303323655617"><ele>741.0</ele><time>2026-04-25T10:30:17Z</time></trkpt><trkpt lat="40.75783934062598" lon="14.849417093833743"><ele>741.0</ele><time>2026-04-25T10:30:20Z</time></trkpt><trkpt lat="40.75796895385368" lon="14.849466045392603"><ele>740.0</ele><time>2026-04-25T10:30:21Z</time></trkpt><trkpt lat="40.758069732165346" lon="14.849498759547947"><ele>739.0</ele><time>2026-04-25T10:30:22Z</time></trkpt><trkpt lat="40.758170974936974" lon="14.84954223167854"><ele>738.0</ele><time>2026-04-25T10:30:23Z</time></trkpt><trkpt lat="40.75824358050313" lon="14.849632469364353"><ele>737.0</ele><time>2026-04-25T10:30:24Z</time></trkpt><trkpt lat="40.758311143705235" lon="14.849773461489608"><ele>736.0</ele><time>2026-04-25T10:30:25Z</time></trkpt><trkpt lat="40.75839245219286" lon="14.84991515497154"><ele>736.0</ele><time>2026-04-25T10:30:26Z</time></trkpt><trkpt lat="40.758509354218425" lon="14.850047558409399"><ele>736.0</ele><time>2026-04-25T10:30:27Z</time></trkpt><trkpt lat="40.75864325077082" lon="14.850156127678"><ele>736.0</ele><time>2026-04-25T10:30:28Z</time></trkpt><trkpt lat="40.75881632334575" lon="14.85024266578128"><ele>732.75</ele><time>2026-04-25T10:30:29Z</time></trkpt><trkpt lat="40.75895908903686" lon="14.850311297902502"><ele>729.5</ele><time>2026-04-25T10:30:30Z</time></trkpt><trkpt lat="40.75908904577418" lon="14.850375782610834"><ele>726.25</ele><time>2026-04-25T10:30:31Z</time></trkpt><trkpt lat="40.759209845169615" lon="14.850447874866404"><ele>723.0</ele><time>2026-04-25T10:30:32Z</time></trkpt><trkpt lat="40.75931592311928" lon="14.85054735357784"><ele>723.5</ele><time>2026-04-25T10:30:33Z</time></trkpt><trkpt lat="40.75942291187431" lon="14.850655411415763"><ele>724.0</ele><time>2026-04-25T10:30:34Z</time></trkpt><trkpt lat="40.759521971550164" lon="14.850782690471446"><ele>724.5</ele><time>2026-04-25T10:30:35Z</time></trkpt><trkpt lat="40.75959928392551" lon="14.850939862376137"><ele>725.0</ele><time>2026-04-25T10:30:36Z</time></trkpt><trkpt lat="40.759658083265826" lon="14.851118822780194"><ele>723.75</ele><time>2026-04-25T10:30:37Z</time></trkpt><trkpt lat="40.759703231512994" lon="14.851309899116968"><ele>722.5</ele><time>2026-04-25T10:30:38Z</time></trkpt><trkpt lat="40.75973755259892" lon="14.851488820118009"><ele>721.25</ele><time>2026-04-25T10:30:39Z</time></trkpt><trkpt lat="40.75976179080383" lon="14.851629712170656"><ele>720.0</ele><time>2026-04-25T10:30:40Z</time></trkpt><trkpt lat="40.75977890599773" lon="14.85172373167787"><ele>721.75</ele><time>2026-04-25T10:30:42Z</time></trkpt><trkpt lat="40.7597783066998" lon="14.851852047147961"><ele>723.5</ele><time>2026-04-25T10:30:50Z</time></trkpt><trkpt lat="40.7596670972621" lon="14.852041467481197"><ele>725.25</ele><time>2026-04-25T10:30:52Z</time></trkpt><trkpt lat="40.759629486809565" lon="14.852122733635053"><ele>727.0</ele><time>2026-04-25T10:30:53Z</time></trkpt><trkpt lat="40.75956913119117" lon="14.852252306543042"><ele>727.0</ele><time>2026-04-25T10:30:54.999Z</time></trkpt><trkpt lat="40.759585006684254" lon="14.852336403119546"><ele>727.0</ele><time>2026-04-25T10:30:55.999Z</time></trkpt><trkpt lat="40.75962035561439" lon="14.8524244760023"><ele>727.0</ele><time>2026-04-25T10:30:56.999Z</time></trkpt><trkpt lat="40.75965240238551" lon="14.852519405225646"><ele>727.0</ele><time>2026-04-25T10:30:57.999Z</time></trkpt><trkpt lat="40.759679933980365" lon="14.852620607895563"><ele>727.0</ele><time>2026-04-25T10:30:58.999Z</time></trkpt><trkpt lat="40.75969914609911" lon="14.85271728453295"><ele>727.0</ele><time>2026-04-25T10:30:59.999Z</time></trkpt><trkpt lat="40.75970677020062" lon="14.852837738449514"><ele>727.6666666666667</ele><time>2026-04-25T10:31:00.999Z</time></trkpt><trkpt lat="40.75969679850769" lon="14.852946942968165"><ele>728.3333333333334</ele><time>2026-04-25T10:31:01.999Z</time></trkpt><trkpt lat="40.75966473121615" lon="14.853033296653166"><ele>729.0</ele><time>2026-04-25T10:31:02.999Z</time></trkpt><trkpt lat="40.759704694895696" lon="14.853181425817397"><ele>729.6666666666666</ele><time>2026-04-25T10:31:04.999Z</time></trkpt><trkpt lat="40.75973284275" lon="14.853264006347882"><ele>730.3333333333333</ele><time>2026-04-25T10:31:05.999Z</time></trkpt><trkpt lat="40.759743960234104" lon="14.853378744288534"><ele>731.0</ele><time>2026-04-25T10:31:06.999Z</time></trkpt><trkpt lat="40.75973634695459" lon="14.853506197945917"><ele>729.3333333333333</ele><time>2026-04-25T10:31:07.999Z</time></trkpt><trkpt lat="40.759737729828224" lon="14.853614297330202"><ele>727.6666666666666</ele><time>2026-04-25T10:31:08.999Z</time></trkpt><trkpt lat="40.759740879979326" lon="14.853703871298508"><ele>726.0</ele><time>2026-04-25T10:31:09.999Z</time></trkpt><trkpt lat="40.7597180500912" lon="14.853785263711222"><ele>724.3333333333334</ele><time>2026-04-25T10:31:10.999Z</time></trkpt><trkpt lat="40.75966290385107" lon="14.85389389140478"><ele>722.6666666666667</ele><time>2026-04-25T10:31:11.999Z</time></trkpt><trkpt lat="40.75960700162253" lon="14.853995420932735"><ele>721.0</ele><time>2026-04-25T10:31:12.999Z</time></trkpt><trkpt lat="40.75958450954259" lon="14.8540895081118"><ele>721.0</ele><time>2026-04-25T10:31:13.999Z</time></trkpt><trkpt lat="40.75956203615052" lon="14.854177896701092"><ele>721.0</ele><time>2026-04-25T10:31:14.999Z</time></trkpt><trkpt lat="40.759531766027386" lon="14.854314298146308"><ele>721.0</ele><time>2026-04-25T10:31:16.999Z</time></trkpt><trkpt lat="40.75949071641522" lon="14.854464374268531"><ele>721.0</ele><time>2026-04-25T10:31:18.999Z</time></trkpt><trkpt lat="40.759458190691504" lon="14.85457201803717"><ele>721.0</ele><time>2026-04-25T10:31:20.999Z</time></trkpt><trkpt lat="40.759437533610864" lon="14.854661534287183"><ele>718.6666666666667</ele><time>2026-04-25T10:31:22.999Z</time></trkpt><trkpt lat="40.75936604978742" lon="14.854705912671673"><ele>716.3333333333334</ele><time>2026-04-25T10:31:24.999Z</time></trkpt><trkpt lat="40.75928681938144" lon="14.854718263579636"><ele>714.0</ele><time>2026-04-25T10:31:25.999Z</time></trkpt><trkpt lat="40.75919094557524" lon="14.85474580593334"><ele>711.6666666666666</ele><time>2026-04-25T10:31:26.999Z</time></trkpt><trkpt lat="40.75909789642205" lon="14.85479171980234"><ele>709.3333333333333</ele><time>2026-04-25T10:31:27.999Z</time></trkpt><trkpt lat="40.759027182104646" lon="14.854831954116309"><ele>707.0</ele><time>2026-04-25T10:31:28.999Z</time></trkpt><trkpt lat="40.758957947134476" lon="14.854899547748623"><ele>707.0</ele><time>2026-04-25T10:31:29.999Z</time></trkpt><trkpt lat="40.75888597189651" lon="14.854986986771717"><ele>707.0</ele><time>2026-04-25T10:31:30.999Z</time></trkpt><trkpt lat="40.7588269663889" lon="14.855057916275065"><ele>707.0</ele><time>2026-04-25T10:31:31.999Z</time></trkpt><trkpt lat="40.75875947393788" lon="14.855130054594165"><ele>707.0</ele><time>2026-04-25T10:31:32.999Z</time></trkpt><trkpt lat="40.758688241589404" lon="14.855187832000281"><ele>707.0</ele><time>2026-04-25T10:31:33.999Z</time></trkpt><trkpt lat="40.75861388325485" lon="14.855253232969954"><ele>707.0</ele><time>2026-04-25T10:31:34.999Z</time></trkpt><trkpt lat="40.75856810030994" lon="14.855330429795494"><ele>704.5714285714286</ele><time>2026-04-25T10:31:35.999Z</time></trkpt><trkpt lat="40.75852326739243" lon="14.855414692720421"><ele>702.1428571428571</ele><time>2026-04-25T10:31:36.999Z</time></trkpt><trkpt lat="40.75846831491871" lon="14.855473451609148"><ele>699.7142857142858</ele><time>2026-04-25T10:31:37.999Z</time></trkpt><trkpt lat="40.758401329706224" lon="14.855499307401036"><ele>697.2857142857142</ele><time>2026-04-25T10:31:40.999Z</time></trkpt><trkpt lat="40.75833996926467" lon="14.855547042825506"><ele>694.8571428571429</ele><time>2026-04-25T10:31:44.999Z</time></trkpt><trkpt lat="40.75829997603522" lon="14.85562515207904"><ele>692.4285714285714</ele><time>2026-04-25T10:31:46.999Z</time></trkpt><trkpt lat="40.75823914794545" lon="14.855696534387471"><ele>690.0</ele><time>2026-04-25T10:31:49.999Z</time></trkpt><trkpt lat="40.75807625641572" lon="14.855828766527345"><ele>690.0</ele><time>2026-04-25T10:31:51.999Z</time></trkpt><trkpt lat="40.75802476479728" lon="14.855881372081772"><ele>690.0</ele><time>2026-04-25T10:31:52.999Z</time></trkpt><trkpt lat="40.75796270688635" lon="14.855928008562776"><ele>690.0</ele><time>2026-04-25T10:31:53.999Z</time></trkpt><trkpt lat="40.75789575397401" lon="14.855986691385628"><ele>690.0</ele><time>2026-04-25T10:31:54.999Z</time></trkpt><trkpt lat="40.757834590079284" lon="14.856046449565962"><ele>690.0</ele><time>2026-04-25T10:31:55.999Z</time></trkpt><trkpt lat="40.75777491605745" lon="14.856113899582747"><ele>690.0</ele><time>2026-04-25T10:31:56.999Z</time></trkpt><trkpt lat="40.757712506306845" lon="14.85617910232146"><ele>688.1666666666666</ele><time>2026-04-25T10:31:57.999Z</time></trkpt><trkpt lat="40.7576532959916" lon="14.856243059096398"><ele>686.3333333333334</ele><time>2026-04-25T10:31:58.999Z</time></trkpt><trkpt lat="40.75760654750911" lon="14.856304583669045"><ele>684.5</ele><time>2026-04-25T10:31:59.999Z</time></trkpt><trkpt lat="40.757542749327634" lon="14.856413354574219"><ele>682.6666666666667</ele><time>2026-04-25T10:32:01.999Z</time></trkpt><trkpt lat="40.75749156680699" lon="14.856522206768457"><ele>680.8333333333334</ele><time>2026-04-25T10:32:03.999Z</time></trkpt><trkpt lat="40.757463074964484" lon="14.856633869301424"><ele>679.0</ele><time>2026-04-25T10:32:05.999Z</time></trkpt><trkpt lat="40.75743418279691" lon="14.856708112040403"><ele>679.0</ele><time>2026-04-25T10:32:07.999Z</time></trkpt><trkpt lat="40.75736022223465" lon="14.8567750813084"><ele>679.0</ele><time>2026-04-25T10:32:09.999Z</time></trkpt><trkpt lat="40.75730866970904" lon="14.856842209587716"><ele>679.0</ele><time>2026-04-25T10:32:10.999Z</time></trkpt><trkpt lat="40.75723644538938" lon="14.856865188394094"><ele>679.0</ele><time>2026-04-25T10:32:11.999Z</time></trkpt><trkpt lat="40.75713763661348" lon="14.856876228549948"><ele>679.0</ele><time>2026-04-25T10:32:12.999Z</time></trkpt><trkpt lat="40.7570430743714" lon="14.856992223656817"><ele>675.1666666666667</ele><time>2026-04-25T10:32:14.999Z</time></trkpt><trkpt lat="40.75698487503037" lon="14.857060783115603"><ele>671.3333333333334</ele><time>2026-04-25T10:32:16Z</time></trkpt><trkpt lat="40.756925920387424" lon="14.85713282468033"><ele>667.5</ele><time>2026-04-25T10:32:17Z</time></trkpt><trkpt lat="40.756871037074134" lon="14.857202012254302"><ele>663.6666666666666</ele><time>2026-04-25T10:32:18Z</time></trkpt><trkpt lat="40.75680324367499" lon="14.857280393896827"><ele>659.8333333333333</ele><time>2026-04-25T10:32:19Z</time></trkpt><trkpt lat="40.7567376164425" lon="14.857336513330496"><ele>656.0</ele><time>2026-04-25T10:32:20Z</time></trkpt><trkpt lat="40.756669279966644" lon="14.857386127890713"><ele>656.0</ele><time>2026-04-25T10:32:21Z</time></trkpt><trkpt lat="40.75660877489213" lon="14.857431826968618"><ele>656.0</ele><time>2026-04-25T10:32:22Z</time></trkpt><trkpt lat="40.75650336781552" lon="14.857486919398537"><ele>656.0</ele><time>2026-04-25T10:32:24Z</time></trkpt><trkpt lat="40.75639145673689" lon="14.857544013665345"><ele>656.0</ele><time>2026-04-25T10:32:26Z</time></trkpt><trkpt lat="40.756335537057964" lon="14.857607416755489"><ele>656.0</ele><time>2026-04-25T10:32:27Z</time></trkpt><trkpt lat="40.756281705647595" lon="14.857675027789597"><ele>651.4</ele><time>2026-04-25T10:32:28Z</time></trkpt><trkpt lat="40.75622926924736" lon="14.857741708194888"><ele>646.8</ele><time>2026-04-25T10:32:29Z</time></trkpt><trkpt lat="40.756157343119455" lon="14.857812148280772"><ele>642.1999999999999</ele><time>2026-04-25T10:32:31Z</time></trkpt><trkpt lat="40.756083844459134" lon="14.8578841719277"><ele>637.5999999999999</ele><time>2026-04-25T10:32:33Z</time></trkpt><trkpt lat="40.7559714447269" lon="14.857926043650927"><ele>633.0</ele><time>2026-04-25T10:32:35Z</time></trkpt><trkpt lat="40.75588988280801" lon="14.857959268146113"><ele>633.0</ele><time>2026-04-25T10:32:37Z</time></trkpt><trkpt lat="40.75580801111334" lon="14.858009504951353"><ele>633.0</ele><time>2026-04-25T10:32:39Z</time></trkpt><trkpt lat="40.75570248901046" lon="14.857980427756212"><ele>633.0</ele><time>2026-04-25T10:32:41Z</time></trkpt><trkpt lat="40.7556122397412" lon="14.857961367778968"><ele>633.0</ele><time>2026-04-25T10:32:44Z</time></trkpt><trkpt lat="40.75561943294891" lon="14.85806892867766"><ele>633.0</ele><time>2026-04-25T10:32:47Z</time></trkpt><trkpt lat="40.75568319821373" lon="14.858113767583621"><ele>633.0</ele><time>2026-04-25T10:32:51Z</time></trkpt><trkpt lat="40.755744954009174" lon="14.858179185452773"><ele>633.0</ele><time>2026-04-25T10:32:55Z</time></trkpt><trkpt lat="40.75570325993929" lon="14.858245724384943"><ele>633.0</ele><time>2026-04-25T10:32:57Z</time></trkpt><trkpt lat="40.75561572417775" lon="14.858276432938325"><ele>633.0</ele><time>2026-04-25T10:32:58.999Z</time></trkpt><trkpt lat="40.75553525895859" lon="14.858328730474158"><ele>633.0</ele><time>2026-04-25T10:33:00.999Z</time></trkpt><trkpt lat="40.75544019256579" lon="14.858412002284107"><ele>633.0</ele><time>2026-04-25T10:33:02.999Z</time></trkpt><trkpt lat="40.755364786954544" lon="14.858429609372608"><ele>633.0</ele><time>2026-04-25T10:33:03.999Z</time></trkpt><trkpt lat="40.75530156586445" lon="14.858445423505941"><ele>627.6</ele><time>2026-04-25T10:33:04.999Z</time></trkpt><trkpt lat="40.75523448564734" lon="14.858504009014327"><ele>622.1999999999999</ele><time>2026-04-25T10:33:06.999Z</time></trkpt><trkpt lat="40.755146944037016" lon="14.858604103448723"><ele>616.8</ele><time>2026-04-25T10:33:08.999Z</time></trkpt><trkpt lat="40.75509152142324" lon="14.858656474038444"><ele>611.4</ele><time>2026-04-25T10:33:09.999Z</time></trkpt><trkpt lat="40.75500878784983" lon="14.858746307814421"><ele>606.0</ele><time>2026-04-25T10:33:11.999Z</time></trkpt><trkpt lat="40.75494152850652" lon="14.858827073773243"><ele>606.0</ele><time>2026-04-25T10:33:13.999Z</time></trkpt><trkpt lat="40.75484737523444" lon="14.85889887881564"><ele>606.0</ele><time>2026-04-25T10:33:15.999Z</time></trkpt><trkpt lat="40.75477274605933" lon="14.858962170572868"><ele>606.0</ele><time>2026-04-25T10:33:17.999Z</time></trkpt><trkpt lat="40.754673263168584" lon="14.859033714254872"><ele>606.0</ele><time>2026-04-25T10:33:19.999Z</time></trkpt><trkpt lat="40.754590622657915" lon="14.859131026074298"><ele>606.0</ele><time>2026-04-25T10:33:21.999Z</time></trkpt><trkpt lat="40.75450399845923" lon="14.859184168212199"><ele>606.0</ele><time>2026-04-25T10:33:23.999Z</time></trkpt><trkpt lat="40.754385356973174" lon="14.859163234201663"><ele>606.0</ele><time>2026-04-25T10:33:25.999Z</time></trkpt><trkpt lat="40.75431107642241" lon="14.859178291801667"><ele>606.0</ele><time>2026-04-25T10:33:27.999Z</time></trkpt><trkpt lat="40.75431235766364" lon="14.859297031222505"><ele>606.0</ele><time>2026-04-25T10:33:29.999Z</time></trkpt><trkpt lat="40.754403454530824" lon="14.859329585612986"><ele>606.0</ele><time>2026-04-25T10:33:32.999Z</time></trkpt><trkpt lat="40.75448383896893" lon="14.859300822433793"><ele>603.8333333333334</ele><time>2026-04-25T10:33:34.999Z</time></trkpt><trkpt lat="40.754478887410954" lon="14.859391922147523"><ele>601.6666666666666</ele><time>2026-04-25T10:33:37.999Z</time></trkpt><trkpt lat="40.754414571093825" lon="14.859396191862672"><ele>599.5</ele><time>2026-04-25T10:33:39.999Z</time></trkpt><trkpt lat="40.754345152704666" lon="14.859417530716046"><ele>597.3333333333333</ele><time>2026-04-25T10:33:41.999Z</time></trkpt><trkpt lat="40.75424510793094" lon="14.859435917720749"><ele>595.1666666666666</ele><time>2026-04-25T10:33:42.999Z</time></trkpt><trkpt lat="40.754171955341874" lon="14.859476887626847"><ele>593.0</ele><time>2026-04-25T10:33:44.999Z</time></trkpt><trkpt lat="40.7540902372904" lon="14.859485565114968"><ele>591.3333333333333</ele><time>2026-04-25T10:33:46.999Z</time></trkpt><trkpt lat="40.754011871497354" lon="14.859482459781294"><ele>589.6666666666666</ele><time>2026-04-25T10:33:48.999Z</time></trkpt><trkpt lat="40.75393060830329" lon="14.85952603182725"><ele>588.0</ele><time>2026-04-25T10:33:51.999Z</time></trkpt><trkpt lat="40.753931160154856" lon="14.859614478978544"><ele>586.3333333333334</ele><time>2026-04-25T10:33:53.999Z</time></trkpt><trkpt lat="40.75401299800595" lon="14.859646782985164"><ele>584.6666666666667</ele><time>2026-04-25T10:33:57.999Z</time></trkpt><trkpt lat="40.7540997887623" lon="14.859624460927682"><ele>583.0</ele><time>2026-04-25T10:33:59.999Z</time></trkpt><trkpt lat="40.75412495925227" lon="14.859708166268119"><ele>583.0</ele><time>2026-04-25T10:34:01.999Z</time></trkpt><trkpt lat="40.75404135481795" lon="14.859766833320757"><ele>583.0</ele><time>2026-04-25T10:34:03.999Z</time></trkpt><trkpt lat="40.75392338206025" lon="14.859739454497737"><ele>583.0</ele><time>2026-04-25T10:34:05.999Z</time></trkpt><trkpt lat="40.75386122891967" lon="14.859753801932012"><ele>583.0</ele><time>2026-04-25T10:34:09.999Z</time></trkpt><trkpt lat="40.75376393245953" lon="14.859738755087365"><ele>583.0</ele><time>2026-04-25T10:34:13.999Z</time></trkpt><trkpt lat="40.753689480034836" lon="14.85979375422086"><ele>583.0</ele><time>2026-04-25T10:34:16.999Z</time></trkpt><trkpt lat="40.753645927677134" lon="14.859887729465534"><ele>583.0</ele><time>2026-04-25T10:34:18.999Z</time></trkpt><trkpt lat="40.75359613714123" lon="14.859950404046561"><ele>583.0</ele><time>2026-04-25T10:34:22Z</time></trkpt><trkpt lat="40.753545598803655" lon="14.860002381069284"><ele>583.0</ele><time>2026-04-25T10:34:24Z</time></trkpt><trkpt lat="40.75350797357946" lon="14.860102851871924"><ele>583.0</ele><time>2026-04-25T10:34:27Z</time></trkpt><trkpt lat="40.75350264443536" lon="14.86026756776869"><ele>583.0</ele><time>2026-04-25T10:34:29Z</time></trkpt><trkpt lat="40.753502712106716" lon="14.86035127898894"><ele>578.8</ele><time>2026-04-25T10:34:30Z</time></trkpt><trkpt lat="40.75348508983306" lon="14.860493482309707"><ele>574.5999999999999</ele><time>2026-04-25T10:34:31Z</time></trkpt><trkpt lat="40.753472142310976" lon="14.860607873944105"><ele>570.4000000000001</ele><time>2026-04-25T10:34:33Z</time></trkpt><trkpt lat="40.75342983645032" lon="14.860725004343696"><ele>566.2</ele><time>2026-04-25T10:34:35Z</time></trkpt><trkpt lat="40.75336997591459" lon="14.860836338238666"><ele>562.0</ele><time>2026-04-25T10:34:37Z</time></trkpt><trkpt lat="40.75330315621441" lon="14.860950301143506"><ele>560.4</ele><time>2026-04-25T10:34:39Z</time></trkpt><trkpt lat="40.75323628496468" lon="14.861058549131407"><ele>558.8000000000001</ele><time>2026-04-25T10:34:41Z</time></trkpt><trkpt lat="40.753169863360384" lon="14.86117731559806"><ele>557.2</ele><time>2026-04-25T10:34:43Z</time></trkpt><trkpt lat="40.753123141796934" lon="14.861284466351695"><ele>555.6</ele><time>2026-04-25T10:34:45Z</time></trkpt><trkpt lat="40.75308653443978" lon="14.861366696465316"><ele>554.0</ele><time>2026-04-25T10:34:47Z</time></trkpt><trkpt lat="40.75304902264643" lon="14.861498942455242"><ele>554.0</ele><time>2026-04-25T10:34:49Z</time></trkpt><trkpt lat="40.753011182590335" lon="14.861589527136722"><ele>554.0</ele><time>2026-04-25T10:34:51Z</time></trkpt><trkpt lat="40.75296083026005" lon="14.861641461356767"><ele>554.0</ele><time>2026-04-25T10:34:53Z</time></trkpt><trkpt lat="40.752842032922764" lon="14.861740588933541"><ele>554.0</ele><time>2026-04-25T10:34:55Z</time></trkpt><trkpt lat="40.75278485788597" lon="14.861797291403827"><ele>554.0</ele><time>2026-04-25T10:34:56Z</time></trkpt><trkpt lat="40.75272903705269" lon="14.861862257361"><ele>554.0</ele><time>2026-04-25T10:34:57Z</time></trkpt><trkpt lat="40.75268604895875" lon="14.861929574047915"><ele>550.4</ele><time>2026-04-25T10:34:58Z</time></trkpt><trkpt lat="40.75259392508464" lon="14.862059546745487"><ele>546.8</ele><time>2026-04-25T10:35:00Z</time></trkpt><trkpt lat="40.752533049286924" lon="14.862114016783645"><ele>543.2</ele><time>2026-04-25T10:35:01Z</time></trkpt><trkpt lat="40.75246645366423" lon="14.862181466252538"><ele>539.6</ele><time>2026-04-25T10:35:02Z</time></trkpt><trkpt lat="40.7524026840115" lon="14.862241237527664"><ele>536.0</ele><time>2026-04-25T10:35:03Z</time></trkpt><trkpt lat="40.75231218846462" lon="14.862334616984263"><ele>536.0</ele><time>2026-04-25T10:35:05Z</time></trkpt><trkpt lat="40.75225760044398" lon="14.862386087526444"><ele>536.0</ele><time>2026-04-25T10:35:06Z</time></trkpt><trkpt lat="40.752179768691256" lon="14.862445261152203"><ele>536.0</ele><time>2026-04-25T10:35:07Z</time></trkpt><trkpt lat="40.75211184748595" lon="14.8624753437963"><ele>536.0</ele><time>2026-04-25T10:35:07.999Z</time></trkpt><trkpt lat="40.75204449504911" lon="14.86258089257057"><ele>536.0</ele><time>2026-04-25T10:35:10.999Z</time></trkpt><trkpt lat="40.751984756649485" lon="14.862708516172146"><ele>536.0</ele><time>2026-04-25T10:35:12.999Z</time></trkpt><trkpt lat="40.751895912230346" lon="14.862767620225746"><ele>532.1666666666666</ele><time>2026-04-25T10:35:14.999Z</time></trkpt><trkpt lat="40.75183569060395" lon="14.862809071145794"><ele>528.3333333333333</ele><time>2026-04-25T10:35:15.999Z</time></trkpt><trkpt lat="40.7517543872547" lon="14.86286885076307"><ele>524.5</ele><time>2026-04-25T10:35:17.999Z</time></trkpt><trkpt lat="40.75171829012636" lon="14.862941511760248"><ele>520.6666666666666</ele><time>2026-04-25T10:35:20.999Z</time></trkpt><trkpt lat="40.75164823354875" lon="14.863011227999941"><ele>516.8333333333334</ele><time>2026-04-25T10:35:23.999Z</time></trkpt><trkpt lat="40.75156669516999" lon="14.863022112441428"><ele>513.0</ele><time>2026-04-25T10:35:25.999Z</time></trkpt><trkpt lat="40.75148003582252" lon="14.863032393688043"><ele>513.0</ele><time>2026-04-25T10:35:27.999Z</time></trkpt><trkpt lat="40.75138242180344" lon="14.863022518487076"><ele>513.0</ele><time>2026-04-25T10:35:29.999Z</time></trkpt><trkpt lat="40.75131632052376" lon="14.86302374607592"><ele>513.0</ele><time>2026-04-25T10:35:30.999Z</time></trkpt><trkpt lat="40.751301764777715" lon="14.862932572178936"><ele>513.0</ele><time>2026-04-25T10:35:33.999Z</time></trkpt><trkpt lat="40.75132158487761" lon="14.862848004678277"><ele>513.0</ele><time>2026-04-25T10:35:34.999Z</time></trkpt><trkpt lat="40.751381810656476" lon="14.862762761598065"><ele>513.0</ele><time>2026-04-25T10:35:36.999Z</time></trkpt><trkpt lat="40.751462084727976" lon="14.862607042479594"><ele>513.8</ele><time>2026-04-25T10:35:38.999Z</time></trkpt><trkpt lat="40.751546454755434" lon="14.862507508612232"><ele>514.5999999999999</ele><time>2026-04-25T10:35:40.999Z</time></trkpt><trkpt lat="40.75157016846443" lon="14.862413964665935"><ele>515.4000000000001</ele><time>2026-04-25T10:35:42.999Z</time></trkpt><trkpt lat="40.75156841483475" lon="14.862268098727931"><ele>516.2</ele><time>2026-04-25T10:35:44.999Z</time></trkpt><trkpt lat="40.751525654793966" lon="14.86214146269189"><ele>517.0</ele><time>2026-04-25T10:35:46.999Z</time></trkpt><trkpt lat="40.75148175804547" lon="14.862028895149665"><ele>517.0</ele><time>2026-04-25T10:35:48.999Z</time></trkpt><trkpt lat="40.75153157724977" lon="14.8619157810145"><ele>517.0</ele><time>2026-04-25T10:35:50.999Z</time></trkpt><trkpt lat="40.75158427895634" lon="14.861863645858616"><ele>517.0</ele><time>2026-04-25T10:35:51.999Z</time></trkpt><trkpt lat="40.751635455301624" lon="14.861814892195433"><ele>517.0</ele><time>2026-04-25T10:35:52.999Z</time></trkpt><trkpt lat="40.751694373759356" lon="14.861774181319593"><ele>517.0</ele><time>2026-04-25T10:35:53.999Z</time></trkpt><trkpt lat="40.75180524283909" lon="14.861721582553525"><ele>517.0</ele><time>2026-04-25T10:35:55.999Z</time></trkpt><trkpt lat="40.75189415359883" lon="14.861685737876789"><ele>519.6</ele><time>2026-04-25T10:35:57.999Z</time></trkpt><trkpt lat="40.75196522071758" lon="14.861650572853051"><ele>522.2</ele><time>2026-04-25T10:35:59.999Z</time></trkpt><trkpt lat="40.75204366475544" lon="14.861529011590699"><ele>524.8</ele><time>2026-04-25T10:36:01.999Z</time></trkpt><trkpt lat="40.75213014840022" lon="14.8614554133458"><ele>527.4</ele><time>2026-04-25T10:36:03.999Z</time></trkpt><trkpt lat="40.75215805027453" lon="14.861366473208303"><ele>530.0</ele><time>2026-04-25T10:36:07.999Z</time></trkpt><trkpt lat="40.75208162539359" lon="14.861389038616206"><ele>530.0</ele><time>2026-04-25T10:36:12.999Z</time></trkpt><trkpt lat="40.75199731088416" lon="14.8614605169343"><ele>530.0</ele><time>2026-04-25T10:36:16.999Z</time></trkpt><trkpt lat="40.7519218924811" lon="14.861454882378322"><ele>530.0</ele><time>2026-04-25T10:36:20.999Z</time></trkpt><trkpt lat="40.75183934173877" lon="14.861467916507245"><ele>530.0</ele><time>2026-04-25T10:36:23.999Z</time></trkpt><trkpt lat="40.75176604295726" lon="14.861486697495733"><ele>530.0</ele><time>2026-04-25T10:36:26.999Z</time></trkpt><trkpt lat="40.7517032358505" lon="14.861530820027804"><ele>530.0</ele><time>2026-04-25T10:36:31Z</time></trkpt><trkpt lat="40.751810440966054" lon="14.86143892888003"><ele>530.0</ele><time>2026-04-25T10:36:37Z</time></trkpt><trkpt lat="40.751876633521945" lon="14.861411938689159"><ele>530.0</ele><time>2026-04-25T10:36:39Z</time></trkpt><trkpt lat="40.75192964113969" lon="14.861332903073952"><ele>530.0</ele><time>2026-04-25T10:36:42Z</time></trkpt><trkpt lat="40.75196896550265" lon="14.861241986258513"><ele>530.0</ele><time>2026-04-25T10:36:45Z</time></trkpt><trkpt lat="40.751899366628265" lon="14.861221854035572"><ele>530.0</ele><time>2026-04-25T10:36:51Z</time></trkpt><trkpt lat="40.7518069214591" lon="14.861297773134769"><ele>530.0</ele><time>2026-04-25T10:36:53Z</time></trkpt><trkpt lat="40.751750720306035" lon="14.861347661751251"><ele>524.2</ele><time>2026-04-25T10:36:54Z</time></trkpt><trkpt lat="40.75164143655862" lon="14.861390567979742"><ele>518.4</ele><time>2026-04-25T10:36:56Z</time></trkpt><trkpt lat="40.751527076140476" lon="14.86147405623682"><ele>512.6</ele><time>2026-04-25T10:36:58Z</time></trkpt><trkpt lat="40.75145714404673" lon="14.861493208399956"><ele>506.8</ele><time>2026-04-25T10:36:59Z</time></trkpt><trkpt lat="40.75139258922453" lon="14.861486619118246"><ele>501.0</ele><time>2026-04-25T10:37:00Z</time></trkpt><trkpt lat="40.751287175957856" lon="14.861574468675508"><ele>501.0</ele><time>2026-04-25T10:37:02Z</time></trkpt><trkpt lat="40.75121835216644" lon="14.861634226544108"><ele>501.0</ele><time>2026-04-25T10:37:03Z</time></trkpt><trkpt lat="40.751149607291836" lon="14.861688324234532"><ele>501.0</ele><time>2026-04-25T10:37:04Z</time></trkpt><trkpt lat="40.751089482235486" lon="14.86172391133809"><ele>501.0</ele><time>2026-04-25T10:37:05Z</time></trkpt><trkpt lat="40.75103726977911" lon="14.861786945336494"><ele>501.0</ele><time>2026-04-25T10:37:06Z</time></trkpt><trkpt lat="40.75101480798312" lon="14.861885486485644"><ele>501.0</ele><time>2026-04-25T10:37:07Z</time></trkpt><trkpt lat="40.75098774592868" lon="14.861985213540537"><ele>499.1666666666667</ele><time>2026-04-25T10:37:08Z</time></trkpt><trkpt lat="40.75098149370791" lon="14.862093203677624"><ele>497.33333333333337</ele><time>2026-04-25T10:37:09Z</time></trkpt><trkpt lat="40.75097784523973" lon="14.862187428406054"><ele>495.5</ele><time>2026-04-25T10:37:10Z</time></trkpt><trkpt lat="40.750893611755444" lon="14.862262391318227"><ele>493.6666666666667</ele><time>2026-04-25T10:37:12Z</time></trkpt><trkpt lat="40.75082476260477" lon="14.862331559700888"><ele>491.83333333333337</ele><time>2026-04-25T10:37:13Z</time></trkpt><trkpt lat="40.75075398135711" lon="14.862403241967366"><ele>490.0</ele><time>2026-04-25T10:37:14Z</time></trkpt><trkpt lat="40.75068973069762" lon="14.862474514932607"><ele>490.00000000000006</ele><time>2026-04-25T10:37:15Z</time></trkpt><trkpt lat="40.7505764176386" lon="14.862477478548941"><ele>490.0</ele><time>2026-04-25T10:37:17Z</time></trkpt><trkpt lat="40.750506554780515" lon="14.862466669832115"><ele>490.0</ele><time>2026-04-25T10:37:17.999Z</time></trkpt><trkpt lat="40.7504233466973" lon="14.862471236381671"><ele>490.0</ele><time>2026-04-25T10:37:19.999Z</time></trkpt><trkpt lat="40.75039890787092" lon="14.862562080547937"><ele>490.00000000000006</ele><time>2026-04-25T10:37:21.999Z</time></trkpt><trkpt lat="40.750356724894395" lon="14.862681323727575"><ele>490.0</ele><time>2026-04-25T10:37:23.999Z</time></trkpt><trkpt lat="40.75033970381372" lon="14.86283136045132"><ele>490.6</ele><time>2026-04-25T10:37:25.999Z</time></trkpt><trkpt lat="40.75033110809373" lon="14.862975294638735"><ele>491.2</ele><time>2026-04-25T10:37:27.999Z</time></trkpt><trkpt lat="40.75023767854854" lon="14.863102896074972"><ele>491.79999999999995</ele><time>2026-04-25T10:37:29.999Z</time></trkpt><trkpt lat="40.750169826949914" lon="14.863201400720133"><ele>492.4</ele><time>2026-04-25T10:37:30.999Z</time></trkpt><trkpt lat="40.75013792785334" lon="14.863294182588463"><ele>493.0</ele><time>2026-04-25T10:37:31.999Z</time></trkpt><trkpt lat="40.75009258356461" lon="14.863369676730452"><ele>490.33333333333337</ele><time>2026-04-25T10:37:32.999Z</time></trkpt><trkpt lat="40.75004283189661" lon="14.863476055465014"><ele>487.6666666666667</ele><time>2026-04-25T10:37:34.999Z</time></trkpt><trkpt lat="40.75005307183187" lon="14.863582369254074"><ele>485.0</ele><time>2026-04-25T10:37:38.999Z</time></trkpt><trkpt lat="40.75005650441193" lon="14.863687259333473"><ele>482.33333333333337</ele><time>2026-04-25T10:37:40.999Z</time></trkpt><trkpt lat="40.75004724184781" lon="14.86378161422427"><ele>479.6666666666667</ele><time>2026-04-25T10:37:42.999Z</time></trkpt><trkpt lat="40.75003281094061" lon="14.863864464410776"><ele>477.0</ele><time>2026-04-25T10:37:45.999Z</time></trkpt><trkpt lat="40.75000969387884" lon="14.863965203524227"><ele>471.5</ele><time>2026-04-25T10:37:48.999Z</time></trkpt><trkpt lat="40.749904991192125" lon="14.864449721396653"><ele>466.0</ele><time>2026-04-25T10:37:51.999Z</time></trkpt><trkpt lat="40.74988283456668" lon="14.864541714830922"><ele>466.0</ele><time>2026-04-25T10:37:52.999Z</time></trkpt><trkpt lat="40.74984967421589" lon="14.864681106574134"><ele>466.0</ele><time>2026-04-25T10:37:54.999Z</time></trkpt><trkpt lat="40.74980833007322" lon="14.864816768398384"><ele>466.0</ele><time>2026-04-25T10:37:56.999Z</time></trkpt><trkpt lat="40.74977666751262" lon="14.864904103164987"><ele>466.0</ele><time>2026-04-25T10:37:57.999Z</time></trkpt><trkpt lat="40.74975082189588" lon="14.864995915077909"><ele>466.0</ele><time>2026-04-25T10:37:58.999Z</time></trkpt><trkpt lat="40.74971833328455" lon="14.865098760458228"><ele>464.6666666666667</ele><time>2026-04-25T10:37:59.999Z</time></trkpt><trkpt lat="40.74970187640425" lon="14.865207851627721"><ele>463.33333333333337</ele><time>2026-04-25T10:38:00.999Z</time></trkpt><trkpt lat="40.74969344820692" lon="14.865324330350624"><ele>462.0</ele><time>2026-04-25T10:38:01.999Z</time></trkpt><trkpt lat="40.74970637903856" lon="14.865429771414098"><ele>460.66666666666663</ele><time>2026-04-25T10:38:02.999Z</time></trkpt><trkpt lat="40.74969806528766" lon="14.86551352430269"><ele>459.3333333333333</ele><time>2026-04-25T10:38:03.999Z</time></trkpt><trkpt lat="40.74968033092243" lon="14.865602138103544"><ele>458.0</ele><time>2026-04-25T10:38:04.999Z</time></trkpt><trkpt lat="40.749642971670355" lon="14.865702894423505"><ele>458.0</ele><time>2026-04-25T10:38:05.999Z</time></trkpt><trkpt lat="40.74959700366624" lon="14.865823641647689"><ele>458.0</ele><time>2026-04-25T10:38:06.999Z</time></trkpt><trkpt lat="40.74955037247882" lon="14.865957994972206"><ele>458.0</ele><time>2026-04-25T10:38:07.999Z</time></trkpt><trkpt lat="40.74950076217885" lon="14.866111427672282"><ele>458.0</ele><time>2026-04-25T10:38:08.999Z</time></trkpt><trkpt lat="40.749463410937025" lon="14.866257768382308"><ele>456.0</ele><time>2026-04-25T10:38:09.999Z</time></trkpt><trkpt lat="40.74953596263207" lon="14.866274124804836"><ele>453.99999999999994</ele><time>2026-04-25T10:38:10.999Z</time></trkpt><trkpt lat="40.749474021314946" lon="14.86642465009368"><ele>451.99999999999994</ele><time>2026-04-25T10:38:11.999Z</time></trkpt><trkpt lat="40.749427343180216" lon="14.866528215886838"><ele>450.0</ele><time>2026-04-25T10:38:12.999Z</time></trkpt><trkpt lat="40.749399990682676" lon="14.866609591840938"><ele>448.0</ele><time>2026-04-25T10:38:13.999Z</time></trkpt><trkpt lat="40.74938743923534" lon="14.866747084898947"><ele>453.0</ele><time>2026-04-25T10:38:14.999Z</time></trkpt><trkpt lat="40.74937149551239" lon="14.86690430096853"><ele>457.99999999999994</ele><time>2026-04-25T10:38:15.999Z</time></trkpt><trkpt lat="40.74934612810763" lon="14.867031983678542"><ele>462.99999999999994</ele><time>2026-04-25T10:38:16.999Z</time></trkpt><trkpt lat="40.749322873663964" lon="14.867179080587238"><ele>468.0</ele><time>2026-04-25T10:38:17.999Z</time></trkpt><trkpt lat="40.749314504823644" lon="14.86730567224551"><ele>473.0</ele><time>2026-04-25T10:38:18.999Z</time></trkpt><trkpt lat="40.74932078907792" lon="14.867443757919963"><ele>473.0</ele><time>2026-04-25T10:38:19.999Z</time></trkpt><trkpt lat="40.74932290418785" lon="14.867552656435791"><ele>472.99999999999994</ele><time>2026-04-25T10:38:20.999Z</time></trkpt><trkpt lat="40.749293066286185" lon="14.867700739658108"><ele>472.99999999999994</ele><time>2026-04-25T10:38:22.999Z</time></trkpt><trkpt lat="40.74930631857634" lon="14.867813822798436"><ele>473.0</ele><time>2026-04-25T10:38:23.999Z</time></trkpt><trkpt lat="40.74932816265242" lon="14.867973598774828"><ele>473.0</ele><time>2026-04-25T10:38:24.999Z</time></trkpt><trkpt lat="40.74935500525757" lon="14.86813637450663"><ele>466.4</ele><time>2026-04-25T10:38:25.999Z</time></trkpt><trkpt lat="40.74937868306573" lon="14.868285754393389"><ele>459.79999999999995</ele><time>2026-04-25T10:38:26.999Z</time></trkpt><trkpt lat="40.74939668522688" lon="14.868427770550271"><ele>453.2</ele><time>2026-04-25T10:38:27.999Z</time></trkpt><trkpt lat="40.749408456991745" lon="14.86854565067899"><ele>446.6</ele><time>2026-04-25T10:38:28.999Z</time></trkpt><trkpt lat="40.74941129731682" lon="14.868668027754847"><ele>440.0</ele><time>2026-04-25T10:38:29.999Z</time></trkpt><trkpt lat="40.749399600025534" lon="14.868811257984854"><ele>439.2</ele><time>2026-04-25T10:38:30.999Z</time></trkpt><trkpt lat="40.74937697787772" lon="14.86896544308177"><ele>438.4</ele><time>2026-04-25T10:38:31.999Z</time></trkpt><trkpt lat="40.74936985129621" lon="14.869126332307584"><ele>437.6</ele><time>2026-04-25T10:38:32.999Z</time></trkpt><trkpt lat="40.74936237951659" lon="14.869262364567994"><ele>436.8</ele><time>2026-04-25T10:38:34Z</time></trkpt><trkpt lat="40.74936586901377" lon="14.869367297532664"><ele>436.0</ele><time>2026-04-25T10:38:35Z</time></trkpt><trkpt lat="40.74936593284885" lon="14.869489437111753"><ele>437.8571428571429</ele><time>2026-04-25T10:38:37Z</time></trkpt><trkpt lat="40.74939422775038" lon="14.869570461936028"><ele>439.7142857142857</ele><time>2026-04-25T10:38:38Z</time></trkpt><trkpt lat="40.74943595062046" lon="14.869659862770106"><ele>441.57142857142856</ele><time>2026-04-25T10:38:40Z</time></trkpt><trkpt lat="40.74942368997359" lon="14.869757693259363"><ele>443.42857142857144</ele><time>2026-04-25T10:38:42Z</time></trkpt><trkpt lat="40.749407228332444" lon="14.86984128936027"><ele>445.2857142857142</ele><time>2026-04-25T10:38:43Z</time></trkpt><trkpt lat="40.74937255549907" lon="14.869946565061037"><ele>447.1428571428571</ele><time>2026-04-25T10:38:45Z</time></trkpt><trkpt lat="40.74931425578274" lon="14.869978959608922"><ele>449.0</ele><time>2026-04-25T10:38:47Z</time></trkpt><trkpt lat="40.749272796063316" lon="14.87007528710864"><ele>442.2</ele><time>2026-04-25T10:38:50Z</time></trkpt><trkpt lat="40.749415793320736" lon="14.870062873546813"><ele>435.4</ele><time>2026-04-25T10:38:52Z</time></trkpt><trkpt lat="40.7494795699834" lon="14.870001991063079"><ele>428.6</ele><time>2026-04-25T10:38:53Z</time></trkpt><trkpt lat="40.74953163981598" lon="14.869922107420324"><ele>421.8</ele><time>2026-04-25T10:38:54Z</time></trkpt><trkpt lat="40.74959010787634" lon="14.869788235808219"><ele>415.0</ele><time>2026-04-25T10:38:55Z</time></trkpt><trkpt lat="40.74964306528852" lon="14.869663939528188"><ele>415.00000000000006</ele><time>2026-04-25T10:38:56Z</time></trkpt><trkpt lat="40.74968904737708" lon="14.86955917847398"><ele>415.0</ele><time>2026-04-25T10:38:57Z</time></trkpt><trkpt lat="40.749726653312976" lon="14.869454446635372"><ele>415.0</ele><time>2026-04-25T10:38:58Z</time></trkpt><trkpt lat="40.74976627479358" lon="14.869356526698391"><ele>415.0</ele><time>2026-04-25T10:38:59Z</time></trkpt><trkpt lat="40.74981404113574" lon="14.86926729451883"><ele>415.00000000000006</ele><time>2026-04-25T10:39:00Z</time></trkpt><trkpt lat="40.74985906898681" lon="14.869169017023573"><ele>415.0</ele><time>2026-04-25T10:39:01Z</time></trkpt><trkpt lat="40.749898107363414" lon="14.869085135094984"><ele>420.25</ele><time>2026-04-25T10:39:02Z</time></trkpt><trkpt lat="40.74991155579016" lon="14.868922467960637"><ele>425.5</ele><time>2026-04-25T10:39:04Z</time></trkpt><trkpt lat="40.749890618183045" lon="14.868760681064794"><ele>430.75</ele><time>2026-04-25T10:39:05Z</time></trkpt><trkpt lat="40.74988259659771" lon="14.868611560866393"><ele>436.0</ele><time>2026-04-25T10:39:06Z</time></trkpt><trkpt lat="40.749921354522876" lon="14.868485517089157"><ele>436.6666666666667</ele><time>2026-04-25T10:39:07Z</time></trkpt><trkpt lat="40.74994557877665" lon="14.868388181211687"><ele>437.33333333333337</ele><time>2026-04-25T10:39:08Z</time></trkpt><trkpt lat="40.74993430241519" lon="14.868287937070022"><ele>438.0</ele><time>2026-04-25T10:39:09Z</time></trkpt><trkpt lat="40.749914285901475" lon="14.868146492597367"><ele>438.66666666666663</ele><time>2026-04-25T10:39:10Z</time></trkpt><trkpt lat="40.749907137324755" lon="14.868011276214023"><ele>439.3333333333333</ele><time>2026-04-25T10:39:11Z</time></trkpt><trkpt lat="40.74991224792088" lon="14.867907336162357"><ele>440.0</ele><time>2026-04-25T10:39:12Z</time></trkpt><trkpt lat="40.74996417167968" lon="14.867784540622422"><ele>439.99999999999994</ele><time>2026-04-25T10:39:14Z</time></trkpt><trkpt lat="40.75003618477925" lon="14.867734112920239"><ele>440.0</ele><time>2026-04-25T10:39:15Z</time></trkpt><trkpt lat="40.75012188702918" lon="14.867685139997857"><ele>440.0</ele><time>2026-04-25T10:39:16Z</time></trkpt><trkpt lat="40.75018741727526" lon="14.86761338195811"><ele>440.0</ele><time>2026-04-25T10:39:17Z</time></trkpt><trkpt lat="40.75022401650849" lon="14.867535326824015"><ele>439.99999999999994</ele><time>2026-04-25T10:39:18Z</time></trkpt><trkpt lat="40.75023582326562" lon="14.86744654531486"><ele>440.0</ele><time>2026-04-25T10:39:19Z</time></trkpt><trkpt lat="40.7502409852955" lon="14.867330437321126"><ele>440.3333333333333</ele><time>2026-04-25T10:39:20Z</time></trkpt><trkpt lat="40.75025998700842" lon="14.867208141996072"><ele>440.66666666666663</ele><time>2026-04-25T10:39:21Z</time></trkpt><trkpt lat="40.75028055038441" lon="14.867111797535157"><ele>441.0</ele><time>2026-04-25T10:39:22Z</time></trkpt><trkpt lat="40.750277459303604" lon="14.867020118267435"><ele>441.33333333333337</ele><time>2026-04-25T10:39:23Z</time></trkpt><trkpt lat="40.75024221729257" lon="14.866923667063295"><ele>441.6666666666667</ele><time>2026-04-25T10:39:24Z</time></trkpt><trkpt lat="40.750194674416186" lon="14.866815367165254"><ele>442.0</ele><time>2026-04-25T10:39:25Z</time></trkpt><trkpt lat="40.75017294089685" lon="14.866710927732182"><ele>441.40000000000003</ele><time>2026-04-25T10:39:26Z</time></trkpt><trkpt lat="40.75021197421501" lon="14.8665724562"><ele>440.80000000000007</ele><time>2026-04-25T10:39:28Z</time></trkpt><trkpt lat="40.750276299787856" lon="14.866525631914335"><ele>440.2</ele><time>2026-04-25T10:39:29Z</time></trkpt><trkpt lat="40.75036737553182" lon="14.866490897144672"><ele>439.6</ele><time>2026-04-25T10:39:30Z</time></trkpt><trkpt lat="40.75045801526156" lon="14.866455387123032"><ele>439.0</ele><time>2026-04-25T10:39:30.999Z</time></trkpt><trkpt lat="40.75054615073084" lon="14.866411757748484"><ele>439.00000000000006</ele><time>2026-04-25T10:39:31.999Z</time></trkpt><trkpt lat="40.75061139515334" lon="14.866361643213423"><ele>439.0</ele><time>2026-04-25T10:39:32.999Z</time></trkpt><trkpt lat="40.750676771191756" lon="14.866314849006226"><ele>439.0</ele><time>2026-04-25T10:39:34.999Z</time></trkpt><trkpt lat="40.750739172488174" lon="14.866374553679984"><ele>439.0</ele><time>2026-04-25T10:39:36.999Z</time></trkpt><trkpt lat="40.75072466594498" lon="14.866482045606864"><ele>439.00000000000006</ele><time>2026-04-25T10:39:38.999Z</time></trkpt><trkpt lat="40.75063188472745" lon="14.866598268677407"><ele>439.0</ele><time>2026-04-25T10:39:40.999Z</time></trkpt><trkpt lat="40.75057301084242" lon="14.866662904287045"><ele>439.00000000000006</ele><time>2026-04-25T10:39:41.999Z</time></trkpt><trkpt lat="40.750565952943035" lon="14.866770633137374"><ele>439.0</ele><time>2026-04-25T10:39:43.999Z</time></trkpt><trkpt lat="40.750618713223155" lon="14.866894838347688"><ele>439.0</ele><time>2026-04-25T10:39:45.999Z</time></trkpt><trkpt lat="40.75064994473841" lon="14.86699889766763"><ele>439.0</ele><time>2026-04-25T10:39:46.999Z</time></trkpt><trkpt lat="40.75065178939281" lon="14.867107801420497"><ele>439.00000000000006</ele><time>2026-04-25T10:39:47.999Z</time></trkpt><trkpt lat="40.750645349423415" lon="14.867222451941231"><ele>439.0</ele><time>2026-04-25T10:39:48.999Z</time></trkpt><trkpt lat="40.75066865472651" lon="14.86734388039591"><ele>436.4</ele><time>2026-04-25T10:39:49.999Z</time></trkpt><trkpt lat="40.750713333940105" lon="14.867480671518605"><ele>433.79999999999995</ele><time>2026-04-25T10:39:50.999Z</time></trkpt><trkpt lat="40.7507571252934" lon="14.867606435954508"><ele>431.20000000000005</ele><time>2026-04-25T10:39:51.999Z</time></trkpt><trkpt lat="40.75078040757612" lon="14.867707409397712"><ele>428.6</ele><time>2026-04-25T10:39:52.999Z</time></trkpt><trkpt lat="40.750781993696926" lon="14.86780706768488"><ele>426.0</ele><time>2026-04-25T10:39:53.999Z</time></trkpt><trkpt lat="40.750751147844674" lon="14.867908000240785"><ele>422.6</ele><time>2026-04-25T10:39:54.999Z</time></trkpt><trkpt lat="40.750731051850856" lon="14.868016017381397"><ele>419.20000000000005</ele><time>2026-04-25T10:39:55.999Z</time></trkpt><trkpt lat="40.75074799572795" lon="14.868140297257359"><ele>415.79999999999995</ele><time>2026-04-25T10:39:56.999Z</time></trkpt><trkpt lat="40.75078874690511" lon="14.868263479650189"><ele>412.4</ele><time>2026-04-25T10:39:57.999Z</time></trkpt><trkpt lat="40.75086147910179" lon="14.868405413520085"><ele>409.0</ele><time>2026-04-25T10:39:58.999Z</time></trkpt><trkpt lat="40.75091172288415" lon="14.868508488984524"><ele>406.1666666666667</ele><time>2026-04-25T10:39:59.999Z</time></trkpt><trkpt lat="40.75095525388515" lon="14.868606963008194"><ele>403.33333333333337</ele><time>2026-04-25T10:40:00.999Z</time></trkpt><trkpt lat="40.75098277658615" lon="14.868702596678824"><ele>400.5</ele><time>2026-04-25T10:40:01.999Z</time></trkpt><trkpt lat="40.750993849387186" lon="14.868813992713472"><ele>397.66666666666663</ele><time>2026-04-25T10:40:02.999Z</time></trkpt><trkpt lat="40.75098791457956" lon="14.868931797138448"><ele>394.8333333333333</ele><time>2026-04-25T10:40:03.999Z</time></trkpt><trkpt lat="40.75097613336234" lon="14.869063656252614"><ele>392.0</ele><time>2026-04-25T10:40:04.999Z</time></trkpt><trkpt lat="40.7510134350632" lon="14.86920389355466"><ele>393.20000000000005</ele><time>2026-04-25T10:40:05.999Z</time></trkpt><trkpt lat="40.751049607194574" lon="14.869345934501563"><ele>394.4</ele><time>2026-04-25T10:40:06.999Z</time></trkpt><trkpt lat="40.751097196987715" lon="14.869476509164528"><ele>395.6</ele><time>2026-04-25T10:40:07.999Z</time></trkpt><trkpt lat="40.75113604398775" lon="14.869592043738095"><ele>396.79999999999995</ele><time>2026-04-25T10:40:08.999Z</time></trkpt><trkpt lat="40.751151017190466" lon="14.86970332539885"><ele>398.0</ele><time>2026-04-25T10:40:09.999Z</time></trkpt><trkpt lat="40.75114219764714" lon="14.869820625259798"><ele>397.99999999999994</ele><time>2026-04-25T10:40:10.999Z</time></trkpt><trkpt lat="40.751102871338105" lon="14.869924951068855"><ele>398.0</ele><time>2026-04-25T10:40:11.999Z</time></trkpt><trkpt lat="40.75105049827052" lon="14.870007804160027"><ele>398.0</ele><time>2026-04-25T10:40:12.999Z</time></trkpt><trkpt lat="40.750999416436954" lon="14.870073977749588"><ele>398.0</ele><time>2026-04-25T10:40:13.999Z</time></trkpt><trkpt lat="40.7509623951775" lon="14.870143338760409"><ele>398.0</ele><time>2026-04-25T10:40:14.999Z</time></trkpt><trkpt lat="40.75093735640072" lon="14.870232539128256"><ele>397.99999999999994</ele><time>2026-04-25T10:40:15.999Z</time></trkpt><trkpt lat="40.75091369341406" lon="14.870311810136286"><ele>398.0</ele><time>2026-04-25T10:40:16.999Z</time></trkpt><trkpt lat="40.75082313632372" lon="14.870446153632551"><ele>396.3333333333333</ele><time>2026-04-25T10:40:18.999Z</time></trkpt><trkpt lat="40.750754722648196" lon="14.870514021309347"><ele>394.66666666666663</ele><time>2026-04-25T10:40:19.999Z</time></trkpt><trkpt lat="40.75068594071364" lon="14.870589645060782"><ele>393.0</ele><time>2026-04-25T10:40:20.999Z</time></trkpt><trkpt lat="40.75066175473668" lon="14.87067033839907"><ele>391.33333333333337</ele><time>2026-04-25T10:40:21.999Z</time></trkpt><trkpt lat="40.7506226265922" lon="14.870799578148068"><ele>389.6666666666667</ele><time>2026-04-25T10:40:22.999Z</time></trkpt><trkpt lat="40.75059737976408" lon="14.870921840253141"><ele>388.0</ele><time>2026-04-25T10:40:23.999Z</time></trkpt><trkpt lat="40.750570382924266" lon="14.871055351133345"><ele>388.0</ele><time>2026-04-25T10:40:24.999Z</time></trkpt><trkpt lat="40.75053163992978" lon="14.871185066470069"><ele>388.0</ele><time>2026-04-25T10:40:25.999Z</time></trkpt><trkpt lat="40.75049209683814" lon="14.871295035638436"><ele>388.0</ele><time>2026-04-25T10:40:26.999Z</time></trkpt><trkpt lat="40.750457564893416" lon="14.871403298918151"><ele>388.0</ele><time>2026-04-25T10:40:27.999Z</time></trkpt><trkpt lat="40.750439617709375" lon="14.871506675666613"><ele>388.0</ele><time>2026-04-25T10:40:28.999Z</time></trkpt><trkpt lat="40.750438964742095" lon="14.871631419839327"><ele>388.0</ele><time>2026-04-25T10:40:29.999Z</time></trkpt><trkpt lat="40.75046424580407" lon="14.871755257093376"><ele>388.0</ele><time>2026-04-25T10:40:30.999Z</time></trkpt><trkpt lat="40.75046330940272" lon="14.871884597702145"><ele>388.0</ele><time>2026-04-25T10:40:31.999Z</time></trkpt><trkpt lat="40.75043509097579" lon="14.872009299437487"><ele>388.0</ele><time>2026-04-25T10:40:32.999Z</time></trkpt><trkpt lat="40.7504134783661" lon="14.872134462460489"><ele>388.0</ele><time>2026-04-25T10:40:33.999Z</time></trkpt><trkpt lat="40.7504314016602" lon="14.872232336197644"><ele>384.00000000000006</ele><time>2026-04-25T10:40:34.999Z</time></trkpt><trkpt lat="40.75046575373309" lon="14.872322859864484"><ele>380.0</ele><time>2026-04-25T10:40:35.999Z</time></trkpt><trkpt lat="40.75050750424375" lon="14.872438574008145"><ele>376.0</ele><time>2026-04-25T10:40:36.999Z</time></trkpt><trkpt lat="40.750527383074534" lon="14.872525882003357"><ele>372.0</ele><time>2026-04-25T10:40:37.999Z</time></trkpt><trkpt lat="40.750562952826094" lon="14.872609902531538"><ele>368.0</ele><time>2026-04-25T10:40:38.999Z</time></trkpt><trkpt lat="40.75058203137456" lon="14.872703509447845"><ele>364.0</ele><time>2026-04-25T10:40:40Z</time></trkpt><trkpt lat="40.75056334919449" lon="14.8728063445863"><ele>358.4</ele><time>2026-04-25T10:40:41Z</time></trkpt><trkpt lat="40.75053959059759" lon="14.872926720580244"><ele>352.79999999999995</ele><time>2026-04-25T10:40:42Z</time></trkpt><trkpt lat="40.750523233677754" lon="14.873037686242737"><ele>347.20000000000005</ele><time>2026-04-25T10:40:43Z</time></trkpt><trkpt lat="40.75051186285824" lon="14.873157128144248"><ele>341.6</ele><time>2026-04-25T10:40:44Z</time></trkpt><trkpt lat="40.75051514965215" lon="14.873296377660566"><ele>336.0</ele><time>2026-04-25T10:40:46Z</time></trkpt><trkpt lat="40.750562809187905" lon="14.873389161080555"><ele>336.0</ele><time>2026-04-25T10:40:48Z</time></trkpt><trkpt lat="40.75068771349741" lon="14.873350347992117"><ele>336.0</ele><time>2026-04-25T10:40:50Z</time></trkpt><trkpt lat="40.75072844773345" lon="14.873283333469427"><ele>336.0</ele><time>2026-04-25T10:40:51Z</time></trkpt><trkpt lat="40.75080268378887" lon="14.873224051514933"><ele>336.0</ele><time>2026-04-25T10:40:54Z</time></trkpt><trkpt lat="40.75083271730603" lon="14.873299663391904"><ele>336.0</ele><time>2026-04-25T10:40:56Z</time></trkpt><trkpt lat="40.75078873972969" lon="14.873372242402324"><ele>336.0</ele><time>2026-04-25T10:40:57Z</time></trkpt><trkpt lat="40.750705828721024" lon="14.87347976782183"><ele>329.8</ele><time>2026-04-25T10:40:58Z</time></trkpt><trkpt lat="40.750624983474076" lon="14.873620204550656"><ele>323.6</ele><time>2026-04-25T10:40:59Z</time></trkpt><trkpt lat="40.75056544950196" lon="14.87374213021073"><ele>317.4</ele><time>2026-04-25T10:41:00Z</time></trkpt><trkpt lat="40.750500089144346" lon="14.873846416982953"><ele>311.2</ele><time>2026-04-25T10:41:02Z</time></trkpt><trkpt lat="40.75044002136597" lon="14.873810840671716"><ele>305.0</ele><time>2026-04-25T10:41:04Z</time></trkpt><trkpt lat="40.750411180068284" lon="14.8737144242207"><ele>305.0</ele><time>2026-04-25T10:41:05Z</time></trkpt><trkpt lat="40.75039894017962" lon="14.87355962929953"><ele>305.0</ele><time>2026-04-25T10:41:06Z</time></trkpt><trkpt lat="40.75036332490036" lon="14.873380923576889"><ele>305.0</ele><time>2026-04-25T10:41:07Z</time></trkpt><trkpt lat="40.75031963813797" lon="14.87323116019022"><ele>305.0</ele><time>2026-04-25T10:41:08Z</time></trkpt><trkpt lat="40.7503107409981" lon="14.873114891123757"><ele>309.6666666666667</ele><time>2026-04-25T10:41:09Z</time></trkpt><trkpt lat="40.7503088097994" lon="14.87303013107118"><ele>314.33333333333337</ele><time>2026-04-25T10:41:10Z</time></trkpt><trkpt lat="40.75029022460362" lon="14.8729157785453"><ele>319.0</ele><time>2026-04-25T10:41:11Z</time></trkpt><trkpt lat="40.75028841380755" lon="14.872824892417967"><ele>323.6666666666667</ele><time>2026-04-25T10:41:12Z</time></trkpt><trkpt lat="40.75028153008304" lon="14.872739786035352"><ele>328.3333333333333</ele><time>2026-04-25T10:41:13Z</time></trkpt><trkpt lat="40.750205385744884" lon="14.872711269364586"><ele>333.0</ele><time>2026-04-25T10:41:16Z</time></trkpt><trkpt lat="40.750176601153846" lon="14.872854879711694"><ele>333.0</ele><time>2026-04-25T10:41:18Z</time></trkpt><trkpt lat="40.7501959789474" lon="14.872979133419472"><ele>333.0</ele><time>2026-04-25T10:41:19Z</time></trkpt><trkpt lat="40.75020809471772" lon="14.87312557235396"><ele>333.0</ele><time>2026-04-25T10:41:20Z</time></trkpt><trkpt lat="40.75019202560527" lon="14.873236307868593"><ele>333.0</ele><time>2026-04-25T10:41:21Z</time></trkpt><trkpt lat="40.75016881513502" lon="14.873368167206534"><ele>333.0</ele><time>2026-04-25T10:41:22Z</time></trkpt><trkpt lat="40.75014727441384" lon="14.873509608381774"><ele>328.0</ele><time>2026-04-25T10:41:23Z</time></trkpt><trkpt lat="40.75011724198766" lon="14.873634214312629"><ele>323.0</ele><time>2026-04-25T10:41:24Z</time></trkpt><trkpt lat="40.75009059245765" lon="14.873768973054114"><ele>318.0</ele><time>2026-04-25T10:41:25Z</time></trkpt><trkpt lat="40.75008819115929" lon="14.873900718660854"><ele>313.0</ele><time>2026-04-25T10:41:26Z</time></trkpt><trkpt lat="40.750094064275864" lon="14.874027411656497"><ele>308.0</ele><time>2026-04-25T10:41:27Z</time></trkpt><trkpt lat="40.75010311456505" lon="14.87414993304873"><ele>308.0</ele><time>2026-04-25T10:41:28Z</time></trkpt><trkpt lat="40.7501018804857" lon="14.874265733398227"><ele>308.0</ele><time>2026-04-25T10:41:29Z</time></trkpt><trkpt lat="40.75009720305872" lon="14.874380081417732"><ele>308.0</ele><time>2026-04-25T10:41:30Z</time></trkpt><trkpt lat="40.75010002986272" lon="14.874491133205286"><ele>308.0</ele><time>2026-04-25T10:41:31Z</time></trkpt><trkpt lat="40.750163920021784" lon="14.874615897605365"><ele>308.0</ele><time>2026-04-25T10:41:33Z</time></trkpt><trkpt lat="40.75018188480873" lon="14.874717323747046"><ele>306.1666666666667</ele><time>2026-04-25T10:41:35Z</time></trkpt><trkpt lat="40.750123169314605" lon="14.87478394616607"><ele>304.33333333333337</ele><time>2026-04-25T10:41:35.999Z</time></trkpt><trkpt lat="40.75005728798005" lon="14.874836409066374"><ele>302.5</ele><time>2026-04-25T10:41:36.999Z</time></trkpt><trkpt lat="40.7500050758229" lon="14.874907620290722"><ele>300.6666666666667</ele><time>2026-04-25T10:41:37.999Z</time></trkpt><trkpt lat="40.74997034392206" lon="14.875005483793664"><ele>298.8333333333333</ele><time>2026-04-25T10:41:38.999Z</time></trkpt><trkpt lat="40.749930410087934" lon="14.875136536156319"><ele>297.0</ele><time>2026-04-25T10:41:39.999Z</time></trkpt><trkpt lat="40.749871707734144" lon="14.875256195760938"><ele>297.0</ele><time>2026-04-25T10:41:40.999Z</time></trkpt><trkpt lat="40.7498184418882" lon="14.875364280788075"><ele>297.0</ele><time>2026-04-25T10:41:41.999Z</time></trkpt><trkpt lat="40.749775095953375" lon="14.875462557023129"><ele>297.0</ele><time>2026-04-25T10:41:42.999Z</time></trkpt><trkpt lat="40.74974154356626" lon="14.875548482474336"><ele>297.0</ele><time>2026-04-25T10:41:43.999Z</time></trkpt><trkpt lat="40.7497099167923" lon="14.875626924824408"><ele>297.0</ele><time>2026-04-25T10:41:44.999Z</time></trkpt><trkpt lat="40.7496470023591" lon="14.87576682137071"><ele>297.0</ele><time>2026-04-25T10:41:46.999Z</time></trkpt><trkpt lat="40.749596270239174" lon="14.87584791899523"><ele>297.0</ele><time>2026-04-25T10:41:47.999Z</time></trkpt><trkpt lat="40.749538254195706" lon="14.875930538023727"><ele>297.0</ele><time>2026-04-25T10:41:48.999Z</time></trkpt><trkpt lat="40.74947036871886" lon="14.875979498216159"><ele>297.0</ele><time>2026-04-25T10:41:49.999Z</time></trkpt><trkpt lat="40.749384631650365" lon="14.876028834638523"><ele>297.0</ele><time>2026-04-25T10:41:50.999Z</time></trkpt><trkpt lat="40.749306887173205" lon="14.876096099817289"><ele>297.0</ele><time>2026-04-25T10:41:51.999Z</time></trkpt><trkpt lat="40.7492277090954" lon="14.87616192312609"><ele>297.0</ele><time>2026-04-25T10:41:52.999Z</time></trkpt><trkpt lat="40.749160687057305" lon="14.876214762694863"><ele>294.6666666666667</ele><time>2026-04-25T10:41:53.999Z</time></trkpt><trkpt lat="40.74909518102476" lon="14.876280318754294"><ele>292.3333333333333</ele><time>2026-04-25T10:41:54.999Z</time></trkpt><trkpt lat="40.749035322511105" lon="14.876346583659199"><ele>290.0</ele><time>2026-04-25T10:41:55.999Z</time></trkpt><trkpt lat="40.74898163513352" lon="14.876421803215589"><ele>287.66666666666663</ele><time>2026-04-25T10:41:56.999Z</time></trkpt><trkpt lat="40.74893783885787" lon="14.876500455278995"><ele>285.3333333333333</ele><time>2026-04-25T10:41:57.999Z</time></trkpt><trkpt lat="40.74889393687928" lon="14.876605676728026"><ele>283.0</ele><time>2026-04-25T10:41:58.999Z</time></trkpt><trkpt lat="40.748873898288274" lon="14.876756232239469"><ele>282.25</ele><time>2026-04-25T10:41:59.999Z</time></trkpt><trkpt lat="40.74887246345628" lon="14.876926724365026"><ele>281.5</ele><time>2026-04-25T10:42:00.999Z</time></trkpt><trkpt lat="40.74887939447737" lon="14.877082214921703"><ele>280.75</ele><time>2026-04-25T10:42:01.999Z</time></trkpt><trkpt lat="40.74888074589201" lon="14.87723496149949"><ele>280.0</ele><time>2026-04-25T10:42:02.999Z</time></trkpt><trkpt lat="40.74886770276628" lon="14.877371230431386"><ele>280.0</ele><time>2026-04-25T10:42:03.999Z</time></trkpt><trkpt lat="40.74883970795419" lon="14.877495933293591"><ele>280.0</ele><time>2026-04-25T10:42:04.999Z</time></trkpt><trkpt lat="40.74878057211888" lon="14.877618855977083"><ele>280.0</ele><time>2026-04-25T10:42:05.999Z</time></trkpt><trkpt lat="40.74869418189647" lon="14.877714068304616"><ele>280.0</ele><time>2026-04-25T10:42:06.999Z</time></trkpt><trkpt lat="40.74857616843989" lon="14.877806234940397"><ele>278.5</ele><time>2026-04-25T10:42:07.999Z</time></trkpt><trkpt lat="40.748478390946865" lon="14.877892717688209"><ele>277.0</ele><time>2026-04-25T10:42:08.999Z</time></trkpt><trkpt lat="40.74840797784839" lon="14.877996401903276"><ele>275.5</ele><time>2026-04-25T10:42:09.999Z</time></trkpt><trkpt lat="40.748348240312296" lon="14.87811950669185"><ele>274.0</ele><time>2026-04-25T10:42:10.999Z</time></trkpt><trkpt lat="40.74828855006005" lon="14.878268999405039"><ele>277.5</ele><time>2026-04-25T10:42:11.999Z</time></trkpt><trkpt lat="40.74821694153129" lon="14.878443852385905"><ele>281.0</ele><time>2026-04-25T10:42:12.999Z</time></trkpt><trkpt lat="40.74815699007946" lon="14.87859075273531"><ele>284.5</ele><time>2026-04-25T10:42:13.999Z</time></trkpt><trkpt lat="40.748102921576454" lon="14.87870572122354"><ele>288.0</ele><time>2026-04-25T10:42:14.999Z</time></trkpt><trkpt lat="40.7480376740609" lon="14.878792811096599"><ele>288.0</ele><time>2026-04-25T10:42:15.999Z</time></trkpt><trkpt lat="40.74794827697747" lon="14.878851052002958"><ele>288.0</ele><time>2026-04-25T10:42:16.999Z</time></trkpt><trkpt lat="40.747821180544555" lon="14.878904797779834"><ele>288.0</ele><time>2026-04-25T10:42:17.999Z</time></trkpt><trkpt lat="40.74768289674951" lon="14.878954447282323"><ele>288.0</ele><time>2026-04-25T10:42:18.999Z</time></trkpt><trkpt lat="40.74758702630894" lon="14.87900769929411"><ele>284.6</ele><time>2026-04-25T10:42:19.999Z</time></trkpt><trkpt lat="40.747510854530304" lon="14.87908614688708"><ele>281.20000000000005</ele><time>2026-04-25T10:42:20.999Z</time></trkpt><trkpt lat="40.747440648150956" lon="14.879198425328424"><ele>277.8</ele><time>2026-04-25T10:42:21.999Z</time></trkpt><trkpt lat="40.74739074733319" lon="14.879332213196452"><ele>274.40000000000003</ele><time>2026-04-25T10:42:22.999Z</time></trkpt><trkpt lat="40.747356604788486" lon="14.879462543461967"><ele>271.0</ele><time>2026-04-25T10:42:23.999Z</time></trkpt><trkpt lat="40.747312194852185" lon="14.87960801873742"><ele>270.5</ele><time>2026-04-25T10:42:24.999Z</time></trkpt><trkpt lat="40.747273542673426" lon="14.879766850440587"><ele>270.0</ele><time>2026-04-25T10:42:25.999Z</time></trkpt><trkpt lat="40.7472287998937" lon="14.879919316915139"><ele>269.5</ele><time>2026-04-25T10:42:26.999Z</time></trkpt><trkpt lat="40.74718622881787" lon="14.880076159350775"><ele>269.0</ele><time>2026-04-25T10:42:27.999Z</time></trkpt><trkpt lat="40.747140163327906" lon="14.8802392771778"><ele>269.0</ele><time>2026-04-25T10:42:28.999Z</time></trkpt><trkpt lat="40.74709035842279" lon="14.880402865097686"><ele>269.0</ele><time>2026-04-25T10:42:29.999Z</time></trkpt><trkpt lat="40.74705740275487" lon="14.88056869824888"><ele>269.0</ele><time>2026-04-25T10:42:30.999Z</time></trkpt><trkpt lat="40.74703032556889" lon="14.880729333748116"><ele>269.0</ele><time>2026-04-25T10:42:31.999Z</time></trkpt><trkpt lat="40.74699669627429" lon="14.880874540523639"><ele>270.0</ele><time>2026-04-25T10:42:32.999Z</time></trkpt><trkpt lat="40.74698525232012" lon="14.881017299469331"><ele>271.0</ele><time>2026-04-25T10:42:33.999Z</time></trkpt><trkpt lat="40.74696226942424" lon="14.881173919895744"><ele>272.0</ele><time>2026-04-25T10:42:34.999Z</time></trkpt><trkpt lat="40.746937282829464" lon="14.88134665735289"><ele>273.0</ele><time>2026-04-25T10:42:35.999Z</time></trkpt><trkpt lat="40.74690891253469" lon="14.88150468707107"><ele>273.0</ele><time>2026-04-25T10:42:36.999Z</time></trkpt><trkpt lat="40.74688406434743" lon="14.881645084001573"><ele>273.0</ele><time>2026-04-25T10:42:37.999Z</time></trkpt><trkpt lat="40.746844292629525" lon="14.88177161756098"><ele>273.0</ele><time>2026-04-25T10:42:38.999Z</time></trkpt><trkpt lat="40.74681002968406" lon="14.881892110012584"><ele>273.0</ele><time>2026-04-25T10:42:39.999Z</time></trkpt><trkpt lat="40.74676906193701" lon="14.881999873931923"><ele>273.0</ele><time>2026-04-25T10:42:40.999Z</time></trkpt><trkpt lat="40.74671833091917" lon="14.882085485030982"><ele>272.0</ele><time>2026-04-25T10:42:41.999Z</time></trkpt><trkpt lat="40.74664779875022" lon="14.882139926548561"><ele>271.0</ele><time>2026-04-25T10:42:43.999Z</time></trkpt><trkpt lat="40.746630850072975" lon="14.882233127144321"><ele>270.0</ele><time>2026-04-25T10:42:50Z</time></trkpt><trkpt lat="40.74668709798741" lon="14.882280176842206"><ele>269.0</ele><time>2026-04-25T10:42:54Z</time></trkpt><trkpt lat="40.74675476707511" lon="14.882334017722854"><ele>268.0</ele><time>2026-04-25T10:43:05Z</time></trkpt><trkpt lat="40.746822461194576" lon="14.882379284708941"><ele>267.0</ele><time>2026-04-25T10:43:06Z</time></trkpt><trkpt lat="40.74691083064071" lon="14.882480613776496"><ele>267.0</ele><time>2026-04-25T10:43:08Z</time></trkpt><trkpt lat="40.74694268205755" lon="14.882579925198927"><ele>267.0</ele><time>2026-04-25T10:43:09Z</time></trkpt><trkpt lat="40.74697261480667" lon="14.88266434122542"><ele>267.0</ele><time>2026-04-25T10:43:10Z</time></trkpt><trkpt lat="40.74705929856413" lon="14.882774505872641"><ele>267.0</ele><time>2026-04-25T10:43:12Z</time></trkpt><trkpt lat="40.747121940990795" lon="14.882803940147516"><ele>267.0</ele><time>2026-04-25T10:43:13Z</time></trkpt><trkpt lat="40.74719264710383" lon="14.882825961727328"><ele>267.0</ele><time>2026-04-25T10:43:14Z</time></trkpt><trkpt lat="40.74728682519388" lon="14.882856103625365"><ele>266.6666666666667</ele><time>2026-04-25T10:43:15Z</time></trkpt><trkpt lat="40.747357946583556" lon="14.882894348517118"><ele>266.3333333333333</ele><time>2026-04-25T10:43:16Z</time></trkpt><trkpt lat="40.74741919801363" lon="14.882958188724755"><ele>266.0</ele><time>2026-04-25T10:43:17Z</time></trkpt><trkpt lat="40.747478999598115" lon="14.883039251988354"><ele>265.66666666666663</ele><time>2026-04-25T10:43:18Z</time></trkpt><trkpt lat="40.747541269800784" lon="14.883131310665295"><ele>265.3333333333333</ele><time>2026-04-25T10:43:19Z</time></trkpt><trkpt lat="40.74760460662514" lon="14.883227612236082"><ele>265.0</ele><time>2026-04-25T10:43:20Z</time></trkpt><trkpt lat="40.74766131441583" lon="14.883307511108207"><ele>264.8</ele><time>2026-04-25T10:43:21Z</time></trkpt><trkpt lat="40.74772860177375" lon="14.883368055949262"><ele>264.6</ele><time>2026-04-25T10:43:22Z</time></trkpt><trkpt lat="40.74782684780169" lon="14.883423803892331"><ele>264.4</ele><time>2026-04-25T10:43:23Z</time></trkpt><trkpt lat="40.74792219283579" lon="14.883470246011104"><ele>264.2</ele><time>2026-04-25T10:43:24Z</time></trkpt><trkpt lat="40.748008048102676" lon="14.883508736560032"><ele>264.0</ele><time>2026-04-25T10:43:25Z</time></trkpt><trkpt lat="40.748116839015275" lon="14.883562906977545"><ele>269.25</ele><time>2026-04-25T10:43:26Z</time></trkpt><trkpt lat="40.748230500083764" lon="14.883622054825269"><ele>274.5</ele><time>2026-04-25T10:43:27Z</time></trkpt><trkpt lat="40.74834414786367" lon="14.883683774739644"><ele>279.75</ele><time>2026-04-25T10:43:28Z</time></trkpt><trkpt lat="40.74844418960563" lon="14.883753061633099"><ele>285.0</ele><time>2026-04-25T10:43:29Z</time></trkpt><trkpt lat="40.74852286288187" lon="14.883820222281253"><ele>283.2</ele><time>2026-04-25T10:43:30Z</time></trkpt><trkpt lat="40.74860629733625" lon="14.883893012044483"><ele>281.4</ele><time>2026-04-25T10:43:31Z</time></trkpt><trkpt lat="40.74868251974647" lon="14.883930393578288"><ele>279.6</ele><time>2026-04-25T10:43:32Z</time></trkpt><trkpt lat="40.74882552207387" lon="14.8839713071815"><ele>277.8</ele><time>2026-04-25T10:43:34Z</time></trkpt><trkpt lat="40.74892662556053" lon="14.883992180834662"><ele>276.0</ele><time>2026-04-25T10:43:35Z</time></trkpt><trkpt lat="40.74900501686469" lon="14.884008869324147"><ele>276.0</ele><time>2026-04-25T10:43:36Z</time></trkpt><trkpt lat="40.74907209322358" lon="14.884044722758963"><ele>276.0</ele><time>2026-04-25T10:43:37Z</time></trkpt><trkpt lat="40.74913177864333" lon="14.88408286290516"><ele>276.0</ele><time>2026-04-25T10:43:38Z</time></trkpt><trkpt lat="40.74920012391968" lon="14.88415093215364"><ele>276.0</ele><time>2026-04-25T10:43:38.999Z</time></trkpt><trkpt lat="40.74927664417626" lon="14.88421531412784"><ele>276.0</ele><time>2026-04-25T10:43:39.999Z</time></trkpt><trkpt lat="40.74933880562279" lon="14.884262207223241"><ele>276.0</ele><time>2026-04-25T10:43:40.999Z</time></trkpt><trkpt lat="40.74947646865511" lon="14.884280537465282"><ele>275.8</ele><time>2026-04-25T10:43:42.999Z</time></trkpt><trkpt lat="40.74957204537026" lon="14.88427374792657"><ele>275.6</ele><time>2026-04-25T10:43:43.999Z</time></trkpt><trkpt lat="40.74968223928394" lon="14.884235558977887"><ele>275.4</ele><time>2026-04-25T10:43:44.999Z</time></trkpt><trkpt lat="40.74977181876701" lon="14.884225269073884"><ele>275.2</ele><time>2026-04-25T10:43:45.999Z</time></trkpt><trkpt lat="40.74984612210712" lon="14.884235381768486"><ele>275.0</ele><time>2026-04-25T10:43:46.999Z</time></trkpt><trkpt lat="40.74993151507914" lon="14.88426088361674"><ele>277.6666666666667</ele><time>2026-04-25T10:43:47.999Z</time></trkpt><trkpt lat="40.750026097400685" lon="14.884285362747327"><ele>280.33333333333337</ele><time>2026-04-25T10:43:48.999Z</time></trkpt><trkpt lat="40.750110469224104" lon="14.884303217835752"><ele>283.0</ele><time>2026-04-25T10:43:49.999Z</time></trkpt><trkpt lat="40.750168843798576" lon="14.884334566193296"><ele>285.6666666666667</ele><time>2026-04-25T10:43:50.999Z</time></trkpt><trkpt lat="40.75023718052335" lon="14.88439214038235"><ele>288.3333333333333</ele><time>2026-04-25T10:43:51.999Z</time></trkpt><trkpt lat="40.75031382841657" lon="14.884466109498547"><ele>291.0</ele><time>2026-04-25T10:43:52.999Z</time></trkpt><trkpt lat="40.75039546621129" lon="14.88449598594096"><ele>291.0</ele><time>2026-04-25T10:43:53.999Z</time></trkpt><trkpt lat="40.750476968195116" lon="14.884500390603476"><ele>291.0</ele><time>2026-04-25T10:43:54.999Z</time></trkpt><trkpt lat="40.7505752915178" lon="14.884496823101138"><ele>291.0</ele><time>2026-04-25T10:43:55.999Z</time></trkpt><trkpt lat="40.75070726199298" lon="14.884494677070023"><ele>291.0</ele><time>2026-04-25T10:43:56.999Z</time></trkpt><trkpt lat="40.75082292883436" lon="14.884499295869375"><ele>291.0</ele><time>2026-04-25T10:43:57.999Z</time></trkpt><trkpt lat="40.75092181006384" lon="14.884521789671009"><ele>291.0</ele><time>2026-04-25T10:43:58.999Z</time></trkpt><trkpt lat="40.75102273223076" lon="14.884543769275817"><ele>291.0</ele><time>2026-04-25T10:43:59.999Z</time></trkpt><trkpt lat="40.751120544867064" lon="14.884545957181215"><ele>291.0</ele><time>2026-04-25T10:44:00.999Z</time></trkpt><trkpt lat="40.751219907993104" lon="14.88454882155843"><ele>291.0</ele><time>2026-04-25T10:44:01.999Z</time></trkpt><trkpt lat="40.75132852010856" lon="14.884570762791167"><ele>291.0</ele><time>2026-04-25T10:44:02.999Z</time></trkpt><trkpt lat="40.75142224403287" lon="14.884581228859547"><ele>289.6</ele><time>2026-04-25T10:44:03.999Z</time></trkpt><trkpt lat="40.75153389203678" lon="14.884568428625798"><ele>288.20000000000005</ele><time>2026-04-25T10:44:04.999Z</time></trkpt><trkpt lat="40.75162941802462" lon="14.884551470851626"><ele>286.79999999999995</ele><time>2026-04-25T10:44:05.999Z</time></trkpt><trkpt lat="40.75170825561928" lon="14.884551609733066"><ele>285.4</ele><time>2026-04-25T10:44:06.999Z</time></trkpt><trkpt lat="40.75175429826168" lon="14.884631944005747"><ele>284.0</ele><time>2026-04-25T10:44:08.999Z</time></trkpt><trkpt lat="40.75180066536179" lon="14.884732202845221"><ele>284.0</ele><time>2026-04-25T10:44:09.999Z</time></trkpt><trkpt lat="40.75184935627611" lon="14.884831222211421"><ele>284.0</ele><time>2026-04-25T10:44:10.999Z</time></trkpt><trkpt lat="40.751908197634" lon="14.884884516041568"><ele>284.0</ele><time>2026-04-25T10:44:11.999Z</time></trkpt><trkpt lat="40.751985351675934" lon="14.884880474857967"><ele>284.0</ele><time>2026-04-25T10:44:12.999Z</time></trkpt><trkpt lat="40.752074937130736" lon="14.884850824680798"><ele>284.0</ele><time>2026-04-25T10:44:13.999Z</time></trkpt><trkpt lat="40.75217192946771" lon="14.884804259009925"><ele>284.0</ele><time>2026-04-25T10:44:14.999Z</time></trkpt><trkpt lat="40.752274245251144" lon="14.884754181463007"><ele>285.0</ele><time>2026-04-25T10:44:15.999Z</time></trkpt><trkpt lat="40.7523710175004" lon="14.884730708614194"><ele>286.0</ele><time>2026-04-25T10:44:16.999Z</time></trkpt><trkpt lat="40.75245818359208" lon="14.884746475175293"><ele>287.0</ele><time>2026-04-25T10:44:17.999Z</time></trkpt><trkpt lat="40.75253030732576" lon="14.884789247972058"><ele>288.0</ele><time>2026-04-25T10:44:18.999Z</time></trkpt><trkpt lat="40.75258425142567" lon="14.884854036949354"><ele>289.0</ele><time>2026-04-25T10:44:19.999Z</time></trkpt><trkpt lat="40.752647249507895" lon="14.884930038575401"><ele>290.0</ele><time>2026-04-25T10:44:20.999Z</time></trkpt><trkpt lat="40.7527146503863" lon="14.884962720856265"><ele>294.2</ele><time>2026-04-25T10:44:21.999Z</time></trkpt><trkpt lat="40.7527867643284" lon="14.8849339398878"><ele>298.4</ele><time>2026-04-25T10:44:22.999Z</time></trkpt><trkpt lat="40.75288518337832" lon="14.884871571078374"><ele>302.6</ele><time>2026-04-25T10:44:23.999Z</time></trkpt><trkpt lat="40.75296913477788" lon="14.884789502881087"><ele>306.8</ele><time>2026-04-25T10:44:24.999Z</time></trkpt><trkpt lat="40.75306637995576" lon="14.884689310502752"><ele>311.0</ele><time>2026-04-25T10:44:25.999Z</time></trkpt><trkpt lat="40.753165785726075" lon="14.88459273982913"><ele>311.0</ele><time>2026-04-25T10:44:26.999Z</time></trkpt><trkpt lat="40.75326033931299" lon="14.884534471894895"><ele>311.0</ele><time>2026-04-25T10:44:27.999Z</time></trkpt><trkpt lat="40.75334070927467" lon="14.8844803317034"><ele>311.0</ele><time>2026-04-25T10:44:28.999Z</time></trkpt><trkpt lat="40.75341881111498" lon="14.884420726310548"><ele>311.0</ele><time>2026-04-25T10:44:29.999Z</time></trkpt><trkpt lat="40.753492406499824" lon="14.884378317748657"><ele>311.0</ele><time>2026-04-25T10:44:30.999Z</time></trkpt><trkpt lat="40.75358406283033" lon="14.884347194962707"><ele>310.8</ele><time>2026-04-25T10:44:31.999Z</time></trkpt><trkpt lat="40.75368879776683" lon="14.884326048449122"><ele>310.6</ele><time>2026-04-25T10:44:32.999Z</time></trkpt><trkpt lat="40.75376885941725" lon="14.884271796603286"><ele>310.4</ele><time>2026-04-25T10:44:33.999Z</time></trkpt><trkpt lat="40.75384227632799" lon="14.884178533552154"><ele>310.2</ele><time>2026-04-25T10:44:34.999Z</time></trkpt><trkpt lat="40.753904323870586" lon="14.88408061826268"><ele>310.0</ele><time>2026-04-25T10:44:35.999Z</time></trkpt><trkpt lat="40.75395737883579" lon="14.884007148963061"><ele>310.0</ele><time>2026-04-25T10:44:36.999Z</time></trkpt><trkpt lat="40.75401201539741" lon="14.883942719205818"><ele>310.0</ele><time>2026-04-25T10:44:37.999Z</time></trkpt><trkpt lat="40.75408752002523" lon="14.883887074384976"><ele>310.0</ele><time>2026-04-25T10:44:38.999Z</time></trkpt><trkpt lat="40.75416362443701" lon="14.883824232260572"><ele>310.0</ele><time>2026-04-25T10:44:39.999Z</time></trkpt><trkpt lat="40.754251852402405" lon="14.883759615795636"><ele>310.0</ele><time>2026-04-25T10:44:40.999Z</time></trkpt><trkpt lat="40.75433786466175" lon="14.883700335284045"><ele>310.0</ele><time>2026-04-25T10:44:41.999Z</time></trkpt><trkpt lat="40.754416146103374" lon="14.883643959425847"><ele>310.0</ele><time>2026-04-25T10:44:42.999Z</time></trkpt><trkpt lat="40.75448553777198" lon="14.883603116728908"><ele>310.0</ele><time>2026-04-25T10:44:43.999Z</time></trkpt><trkpt lat="40.75454858825679" lon="14.883558911638788"><ele>310.0</ele><time>2026-04-25T10:44:44.999Z</time></trkpt><trkpt lat="40.75462358850636" lon="14.883524434084466"><ele>310.0</ele><time>2026-04-25T10:44:45.999Z</time></trkpt><trkpt lat="40.754683425155136" lon="14.883491580790855"><ele>310.0</ele><time>2026-04-25T10:44:46.999Z</time></trkpt><trkpt lat="40.75473682308551" lon="14.883427154907622"><ele>310.0</ele><time>2026-04-25T10:44:47.999Z</time></trkpt><trkpt lat="40.754789385763274" lon="14.88338099283567"><ele>310.0</ele><time>2026-04-25T10:44:48.999Z</time></trkpt><trkpt lat="40.754855793894805" lon="14.883371790174"><ele>310.0</ele><time>2026-04-25T10:44:49.999Z</time></trkpt><trkpt lat="40.754929115879946" lon="14.88335995903945"><ele>310.0</ele><time>2026-04-25T10:44:51Z</time></trkpt><trkpt lat="40.75503179218457" lon="14.883351813290169"><ele>310.0</ele><time>2026-04-25T10:44:52Z</time></trkpt><trkpt lat="40.755112139800644" lon="14.883314641319842"><ele>310.0</ele><time>2026-04-25T10:44:53Z</time></trkpt><trkpt lat="40.755208102803614" lon="14.883280071727734"><ele>310.0</ele><time>2026-04-25T10:44:54Z</time></trkpt><trkpt lat="40.755297718946736" lon="14.883247129547712"><ele>312.16666666666663</ele><time>2026-04-25T10:44:55Z</time></trkpt><trkpt lat="40.755361093605515" lon="14.883212761371494"><ele>314.3333333333333</ele><time>2026-04-25T10:44:56Z</time></trkpt><trkpt lat="40.755421725326485" lon="14.883174954262243"><ele>316.5</ele><time>2026-04-25T10:44:57Z</time></trkpt><trkpt lat="40.75548451246614" lon="14.883126002410053"><ele>318.6666666666667</ele><time>2026-04-25T10:44:58Z</time></trkpt><trkpt lat="40.755540766253425" lon="14.883061175808647"><ele>320.83333333333337</ele><time>2026-04-25T10:44:59Z</time></trkpt><trkpt lat="40.75559797320149" lon="14.88302179627815"><ele>323.0</ele><time>2026-04-25T10:45:00Z</time></trkpt><trkpt lat="40.755728717452314" lon="14.882981793348272"><ele>323.0</ele><time>2026-04-25T10:45:02Z</time></trkpt><trkpt lat="40.75579307781489" lon="14.88298180135425"><ele>323.0</ele><time>2026-04-25T10:45:03Z</time></trkpt><trkpt lat="40.75585589232874" lon="14.88297425865306"><ele>323.0</ele><time>2026-04-25T10:45:04Z</time></trkpt><trkpt lat="40.755908873171414" lon="14.882927287827371"><ele>323.0</ele><time>2026-04-25T10:45:05Z</time></trkpt><trkpt lat="40.7559572828124" lon="14.88271033442006"><ele>323.0</ele><time>2026-04-25T10:45:07Z</time></trkpt><trkpt lat="40.75598059088392" lon="14.882579034352949"><ele>321.83333333333337</ele><time>2026-04-25T10:45:08Z</time></trkpt><trkpt lat="40.75599954548861" lon="14.88249801782945"><ele>320.6666666666667</ele><time>2026-04-25T10:45:09Z</time></trkpt><trkpt lat="40.756043986830335" lon="14.882424879635565"><ele>319.5</ele><time>2026-04-25T10:45:10Z</time></trkpt><trkpt lat="40.75610193126967" lon="14.882334695978583"><ele>318.3333333333333</ele><time>2026-04-25T10:45:11Z</time></trkpt><trkpt lat="40.75618568421437" lon="14.882242591176267"><ele>317.16666666666663</ele><time>2026-04-25T10:45:12Z</time></trkpt><trkpt lat="40.756267363983056" lon="14.88217527732614"><ele>316.0</ele><time>2026-04-25T10:45:13Z</time></trkpt><trkpt lat="40.756361716205326" lon="14.882113474832577"><ele>316.0</ele><time>2026-04-25T10:45:14Z</time></trkpt><trkpt lat="40.75642635819312" lon="14.882074279759937"><ele>316.0</ele><time>2026-04-25T10:45:15Z</time></trkpt><trkpt lat="40.75653919958053" lon="14.882046851663459"><ele>316.0</ele><time>2026-04-25T10:45:17Z</time></trkpt><trkpt lat="40.7566311020928" lon="14.882039197714299"><ele>316.0</ele><time>2026-04-25T10:45:18Z</time></trkpt><trkpt lat="40.756737204689884" lon="14.882041282990508"><ele>316.0</ele><time>2026-04-25T10:45:19Z</time></trkpt><trkpt lat="40.75687282859101" lon="14.882025840276658"><ele>317.4</ele><time>2026-04-25T10:45:20Z</time></trkpt><trkpt lat="40.7569869510648" lon="14.882000007620794"><ele>318.8</ele><time>2026-04-25T10:45:21Z</time></trkpt><trkpt lat="40.75705507948691" lon="14.881992374593716"><ele>320.2</ele><time>2026-04-25T10:45:22Z</time></trkpt><trkpt lat="40.757149944509365" lon="14.881994865347888"><ele>321.59999999999997</ele><time>2026-04-25T10:45:23Z</time></trkpt><trkpt lat="40.75724439239648" lon="14.88199853909861"><ele>323.0</ele><time>2026-04-25T10:45:24Z</time></trkpt><trkpt lat="40.757314345033336" lon="14.882053548768853"><ele>323.0</ele><time>2026-04-25T10:45:25Z</time></trkpt><trkpt lat="40.757411753400554" lon="14.88211309947098"><ele>323.0</ele><time>2026-04-25T10:45:26Z</time></trkpt><trkpt lat="40.757496386385455" lon="14.882206740738319"><ele>323.0</ele><time>2026-04-25T10:45:27Z</time></trkpt><trkpt lat="40.75758277703013" lon="14.882260048525048"><ele>323.0</ele><time>2026-04-25T10:45:28Z</time></trkpt><trkpt lat="40.75767024392074" lon="14.882294695116046"><ele>323.0</ele><time>2026-04-25T10:45:29Z</time></trkpt><trkpt lat="40.757750941236374" lon="14.882310967247449"><ele>324.59999999999997</ele><time>2026-04-25T10:45:30Z</time></trkpt><trkpt lat="40.75785147090017" lon="14.882296757798317"><ele>326.2</ele><time>2026-04-25T10:45:31Z</time></trkpt><trkpt lat="40.75792963936739" lon="14.882277063406084"><ele>327.8</ele><time>2026-04-25T10:45:32Z</time></trkpt><trkpt lat="40.758023000031805" lon="14.882253135158415"><ele>329.4</ele><time>2026-04-25T10:45:33Z</time></trkpt><trkpt lat="40.7581055635759" lon="14.882264757832074"><ele>331.0</ele><time>2026-04-25T10:45:34Z</time></trkpt><trkpt lat="40.75819421894054" lon="14.882291145383142"><ele>331.0</ele><time>2026-04-25T10:45:35Z</time></trkpt><trkpt lat="40.75827531109981" lon="14.88235158416652"><ele>331.0</ele><time>2026-04-25T10:45:36Z</time></trkpt><trkpt lat="40.758362563574146" lon="14.882447467243056"><ele>331.0</ele><time>2026-04-25T10:45:37Z</time></trkpt><trkpt lat="40.75844212809323" lon="14.882479185927412"><ele>331.0</ele><time>2026-04-25T10:45:38Z</time></trkpt><trkpt lat="40.75851983320404" lon="14.882492009642522"><ele>331.0</ele><time>2026-04-25T10:45:39Z</time></trkpt><trkpt lat="40.758582116247496" lon="14.88247516990418"><ele>331.0</ele><time>2026-04-25T10:45:39.999Z</time></trkpt><trkpt lat="40.75866618124891" lon="14.882375721587751"><ele>332.16666666666663</ele><time>2026-04-25T10:45:41.999Z</time></trkpt><trkpt lat="40.75871633053979" lon="14.882299720805282"><ele>333.3333333333333</ele><time>2026-04-25T10:45:42.999Z</time></trkpt><trkpt lat="40.75879217047581" lon="14.882193264605538"><ele>334.5</ele><time>2026-04-25T10:45:44.999Z</time></trkpt><trkpt lat="40.75883302649408" lon="14.882127035908823"><ele>335.6666666666667</ele><time>2026-04-25T10:45:45.999Z</time></trkpt><trkpt lat="40.75889254352746" lon="14.88199988444871"><ele>336.83333333333337</ele><time>2026-04-25T10:45:47.999Z</time></trkpt><trkpt lat="40.758939410639435" lon="14.881926768512727"><ele>338.0</ele><time>2026-04-25T10:45:49.999Z</time></trkpt><trkpt lat="40.75902755827639" lon="14.8819201781657"><ele>338.0</ele><time>2026-04-25T10:46:19.999Z</time></trkpt><trkpt lat="40.75909758146965" lon="14.881927204086196"><ele>338.0</ele><time>2026-04-25T10:46:20.999Z</time></trkpt><trkpt lat="40.75916171097893" lon="14.881910850631439"><ele>338.0</ele><time>2026-04-25T10:46:21.999Z</time></trkpt><trkpt lat="40.75925614747895" lon="14.881800683346203"><ele>338.0</ele><time>2026-04-25T10:46:23.999Z</time></trkpt><trkpt lat="40.75929629259347" lon="14.881714005909046"><ele>338.0</ele><time>2026-04-25T10:46:24.999Z</time></trkpt><trkpt lat="40.759371501288" lon="14.881640914345311"><ele>338.0</ele><time>2026-04-25T10:46:26.999Z</time></trkpt><trkpt lat="40.75947869370822" lon="14.881730973772576"><ele>340.0</ele><time>2026-04-25T10:46:28.999Z</time></trkpt><trkpt lat="40.75954581081342" lon="14.881813835167302"><ele>342.0</ele><time>2026-04-25T10:46:29.999Z</time></trkpt><trkpt lat="40.75960168372048" lon="14.881886604291283"><ele>344.0</ele><time>2026-04-25T10:46:30.999Z</time></trkpt><trkpt lat="40.759698248049325" lon="14.881919579989498"><ele>346.0</ele><time>2026-04-25T10:46:32.999Z</time></trkpt><trkpt lat="40.7597559875454" lon="14.881870104828515"><ele>348.0</ele><time>2026-04-25T10:46:33.999Z</time></trkpt><trkpt lat="40.75980902629109" lon="14.881796772469784"><ele>350.0</ele><time>2026-04-25T10:46:34.999Z</time></trkpt><trkpt lat="40.75985494959389" lon="14.881709970792276"><ele>352.1666666666667</ele><time>2026-04-25T10:46:35.999Z</time></trkpt><trkpt lat="40.75989294221147" lon="14.881619533973328"><ele>354.33333333333337</ele><time>2026-04-25T10:46:36.999Z</time></trkpt><trkpt lat="40.75994096803567" lon="14.88153448307261"><ele>356.5</ele><time>2026-04-25T10:46:37.999Z</time></trkpt><trkpt lat="40.760007289394515" lon="14.881464645349093"><ele>358.6666666666667</ele><time>2026-04-25T10:46:38.999Z</time></trkpt><trkpt lat="40.760073323194376" lon="14.881395861448269"><ele>360.8333333333333</ele><time>2026-04-25T10:46:39.999Z</time></trkpt><trkpt lat="40.76015013301057" lon="14.881279101696709"><ele>363.0</ele><time>2026-04-25T10:46:41.999Z</time></trkpt><trkpt lat="40.760247865070674" lon="14.88129565330109"><ele>361.59999999999997</ele><time>2026-04-25T10:46:43.999Z</time></trkpt><trkpt lat="40.76030769330802" lon="14.881442635955388"><ele>360.2</ele><time>2026-04-25T10:46:45.999Z</time></trkpt><trkpt lat="40.7603080245329" lon="14.881553273929912"><ele>358.8</ele><time>2026-04-25T10:46:46.999Z</time></trkpt><trkpt lat="40.76032428332452" lon="14.881657950596413"><ele>357.4</ele><time>2026-04-25T10:46:47.999Z</time></trkpt><trkpt lat="40.76025020785305" lon="14.881783095285709"><ele>356.0</ele><time>2026-04-25T10:46:49.999Z</time></trkpt><trkpt lat="40.760200097731094" lon="14.881867063501021"><ele>356.0</ele><time>2026-04-25T10:46:50.999Z</time></trkpt><trkpt lat="40.76021011876842" lon="14.881949497112776"><ele>356.0</ele><time>2026-04-25T10:46:51.999Z</time></trkpt><trkpt lat="40.76026037275158" lon="14.88202736466484"><ele>356.0</ele><time>2026-04-25T10:46:52.999Z</time></trkpt><trkpt lat="40.760328123444786" lon="14.882097743221594"><ele>356.0</ele><time>2026-04-25T10:46:53.999Z</time></trkpt><trkpt lat="40.7603861395208" lon="14.882137354993382"><ele>356.0</ele><time>2026-04-25T10:46:54.999Z</time></trkpt><trkpt lat="40.760522952128426" lon="14.882106087828562"><ele>356.0</ele><time>2026-04-25T10:46:57Z</time></trkpt><trkpt lat="40.7605923288594" lon="14.88205499051358"><ele>356.0</ele><time>2026-04-25T10:46:58Z</time></trkpt><trkpt lat="40.760649496824946" lon="14.881995657113011"><ele>356.0</ele><time>2026-04-25T10:46:59Z</time></trkpt><trkpt lat="40.76074402184066" lon="14.8818922437893"><ele>356.0</ele><time>2026-04-25T10:47:01Z</time></trkpt><trkpt lat="40.76085331637142" lon="14.881897481734011"><ele>356.0</ele><time>2026-04-25T10:47:03Z</time></trkpt><trkpt lat="40.760909882696396" lon="14.881959564556666"><ele>356.0</ele><time>2026-04-25T10:47:04Z</time></trkpt><trkpt lat="40.76094031982457" lon="14.882067227698498"><ele>356.0</ele><time>2026-04-25T10:47:05Z</time></trkpt><trkpt lat="40.76094961099385" lon="14.882176499561337"><ele>356.0</ele><time>2026-04-25T10:47:06Z</time></trkpt><trkpt lat="40.76100649448457" lon="14.882291038316064"><ele>356.0</ele><time>2026-04-25T10:47:08Z</time></trkpt><trkpt lat="40.76107677564718" lon="14.8823333784569"><ele>356.0</ele><time>2026-04-25T10:47:09Z</time></trkpt><trkpt lat="40.76115927727205" lon="14.882367953951174"><ele>356.0</ele><time>2026-04-25T10:47:10Z</time></trkpt><trkpt lat="40.761225482922725" lon="14.882384489783655"><ele>356.0</ele><time>2026-04-25T10:47:11Z</time></trkpt><trkpt lat="40.76133655256182" lon="14.882352962986639"><ele>358.33333333333337</ele><time>2026-04-25T10:47:13Z</time></trkpt><trkpt lat="40.76143334113794" lon="14.882332926341926"><ele>360.6666666666667</ele><time>2026-04-25T10:47:15Z</time></trkpt><trkpt lat="40.76146576461596" lon="14.88240802897458"><ele>363.0</ele><time>2026-04-25T10:47:16Z</time></trkpt><trkpt lat="40.76150802170885" lon="14.88251826688542"><ele>365.3333333333333</ele><time>2026-04-25T10:47:17Z</time></trkpt><trkpt lat="40.76156089884043" lon="14.882580334244741"><ele>367.66666666666663</ele><time>2026-04-25T10:47:18Z</time></trkpt><trkpt lat="40.7616380362709" lon="14.882608130448734"><ele>370.0</ele><time>2026-04-25T10:47:19Z</time></trkpt><trkpt lat="40.761727769254435" lon="14.882622514843309"><ele>370.66666666666663</ele><time>2026-04-25T10:47:20Z</time></trkpt><trkpt lat="40.76183644215549" lon="14.882599199014749"><ele>371.3333333333333</ele><time>2026-04-25T10:47:22Z</time></trkpt><trkpt lat="40.76193664458581" lon="14.882615493287291"><ele>372.0</ele><time>2026-04-25T10:47:24Z</time></trkpt><trkpt lat="40.761991305873096" lon="14.882663618067586"><ele>372.6666666666667</ele><time>2026-04-25T10:47:25Z</time></trkpt><trkpt lat="40.762067209642915" lon="14.882718096320675"><ele>373.33333333333337</ele><time>2026-04-25T10:47:26Z</time></trkpt><trkpt lat="40.76214043082616" lon="14.882773327036459"><ele>374.0</ele><time>2026-04-25T10:47:27Z</time></trkpt><trkpt lat="40.76222418855488" lon="14.882799360447649"><ele>375.0</ele><time>2026-04-25T10:47:28Z</time></trkpt><trkpt lat="40.76229409914543" lon="14.882839119644695"><ele>376.0</ele><time>2026-04-25T10:47:29Z</time></trkpt><trkpt lat="40.76237944795465" lon="14.88286671457765"><ele>377.0</ele><time>2026-04-25T10:47:30Z</time></trkpt><trkpt lat="40.762447308139485" lon="14.88287244089477"><ele>378.0</ele><time>2026-04-25T10:47:31Z</time></trkpt><trkpt lat="40.7625312041882" lon="14.8828926840765"><ele>379.0</ele><time>2026-04-25T10:47:33Z</time></trkpt><trkpt lat="40.762559289016544" lon="14.883007092437365"><ele>380.0</ele><time>2026-04-25T10:47:35Z</time></trkpt><trkpt lat="40.7624940306127" lon="14.883110661275632"><ele>380.0</ele><time>2026-04-25T10:47:37Z</time></trkpt><trkpt lat="40.76235775032498" lon="14.883239545529692"><ele>380.0</ele><time>2026-04-25T10:47:38.999Z</time></trkpt><trkpt lat="40.762241643546595" lon="14.883306281414022"><ele>380.0</ele><time>2026-04-25T10:47:39.999Z</time></trkpt><trkpt lat="40.76214729317585" lon="14.883375587247501"><ele>380.0</ele><time>2026-04-25T10:47:40.999Z</time></trkpt><trkpt lat="40.76206569459677" lon="14.883441819931837"><ele>378.8</ele><time>2026-04-25T10:47:41.999Z</time></trkpt><trkpt lat="40.76200710018496" lon="14.88350158957503"><ele>377.6</ele><time>2026-04-25T10:47:42.999Z</time></trkpt><trkpt lat="40.76189479084789" lon="14.883492860631657"><ele>376.4</ele><time>2026-04-25T10:47:44.999Z</time></trkpt><trkpt lat="40.76180393401834" lon="14.883457283313607"><ele>375.2</ele><time>2026-04-25T10:47:45.999Z</time></trkpt><trkpt lat="40.7617160281738" lon="14.883416627990592"><ele>374.0</ele><time>2026-04-25T10:47:46.999Z</time></trkpt><trkpt lat="40.76160563017796" lon="14.883368400101093"><ele>374.0</ele><time>2026-04-25T10:47:47.999Z</time></trkpt><trkpt lat="40.76151125332074" lon="14.883360904864709"><ele>374.0</ele><time>2026-04-25T10:47:48.999Z</time></trkpt><trkpt lat="40.7614223426647" lon="14.883363841618314"><ele>374.0</ele><time>2026-04-25T10:47:49.999Z</time></trkpt><trkpt lat="40.76133359209252" lon="14.883367927553131"><ele>374.0</ele><time>2026-04-25T10:47:50.999Z</time></trkpt><trkpt lat="40.761248781535976" lon="14.883344137814726"><ele>374.0</ele><time>2026-04-25T10:47:51.999Z</time></trkpt><trkpt lat="40.76116862666825" lon="14.883318957551701"><ele>374.0</ele><time>2026-04-25T10:47:52.999Z</time></trkpt><trkpt lat="40.761102807224816" lon="14.883294003043785"><ele>374.0</ele><time>2026-04-25T10:47:53.999Z</time></trkpt><trkpt lat="40.7610389594245" lon="14.88326652792221"><ele>374.0</ele><time>2026-04-25T10:47:54.999Z</time></trkpt><trkpt lat="40.760965004035384" lon="14.883363133519628"><ele>374.0</ele><time>2026-04-25T10:47:57.999Z</time></trkpt><trkpt lat="40.76093485174993" lon="14.883445323268658"><ele>374.0</ele><time>2026-04-25T10:47:58.999Z</time></trkpt><trkpt lat="40.760852568746145" lon="14.883440433474778"><ele>374.0</ele><time>2026-04-25T10:47:59.999Z</time></trkpt><trkpt lat="40.76079563865407" lon="14.883486691911624"><ele>374.0</ele><time>2026-04-25T10:48:00.999Z</time></trkpt><trkpt lat="40.76073440997387" lon="14.883547607473647"><ele>382.0</ele><time>2026-04-25T10:48:01.999Z</time></trkpt><trkpt lat="40.76066055906924" lon="14.88358615694891"><ele>390.0</ele><time>2026-04-25T10:48:02.999Z</time></trkpt><trkpt lat="40.760582494201714" lon="14.883613595704382"><ele>398.0</ele><time>2026-04-25T10:48:03.999Z</time></trkpt><trkpt lat="40.76051464658422" lon="14.883639512522624"><ele>406.0</ele><time>2026-04-25T10:48:04.999Z</time></trkpt><trkpt lat="40.76041380571383" lon="14.883774235353508"><ele>414.0</ele><time>2026-04-25T10:48:06.999Z</time></trkpt><trkpt lat="40.760334695564204" lon="14.883833406786058"><ele>414.0</ele><time>2026-04-25T10:48:07.999Z</time></trkpt><trkpt lat="40.760250192817104" lon="14.883853513152305"><ele>414.0</ele><time>2026-04-25T10:48:08.999Z</time></trkpt><trkpt lat="40.76017309000581" lon="14.883863355439336"><ele>414.0</ele><time>2026-04-25T10:48:09.999Z</time></trkpt><trkpt lat="40.76010110153413" lon="14.883877090663772"><ele>414.0</ele><time>2026-04-25T10:48:10.999Z</time></trkpt><trkpt lat="40.75999148465858" lon="14.883927324481826"><ele>414.0</ele><time>2026-04-25T10:48:12.999Z</time></trkpt><trkpt lat="40.7599084409694" lon="14.883952985623194"><ele>414.0</ele><time>2026-04-25T10:48:13.999Z</time></trkpt><trkpt lat="40.75983693228207" lon="14.883972405258806"><ele>413.2</ele><time>2026-04-25T10:48:14.999Z</time></trkpt><trkpt lat="40.75977242622027" lon="14.883980357937544"><ele>412.4</ele><time>2026-04-25T10:48:15.999Z</time></trkpt><trkpt lat="40.75970712790952" lon="14.884001110063906"><ele>411.6</ele><time>2026-04-25T10:48:16.999Z</time></trkpt><trkpt lat="40.75963477595585" lon="14.884047055470148"><ele>410.8</ele><time>2026-04-25T10:48:17.999Z</time></trkpt><trkpt lat="40.7595063141515" lon="14.884115644283145"><ele>410.0</ele><time>2026-04-25T10:48:18.999Z</time></trkpt><trkpt lat="40.7594196928481" lon="14.884199424897007"><ele>414.6</ele><time>2026-04-25T10:48:19.999Z</time></trkpt><trkpt lat="40.759332272280076" lon="14.884278487025076"><ele>419.2</ele><time>2026-04-25T10:48:20.999Z</time></trkpt><trkpt lat="40.75925035697673" lon="14.884336359711845"><ele>423.79999999999995</ele><time>2026-04-25T10:48:21.999Z</time></trkpt><trkpt lat="40.75917766834033" lon="14.884339909739216"><ele>428.4</ele><time>2026-04-25T10:48:22.999Z</time></trkpt><trkpt lat="40.759096326473305" lon="14.88434695560719"><ele>433.0</ele><time>2026-04-25T10:48:23.999Z</time></trkpt><trkpt lat="40.759006692090516" lon="14.884400583489644"><ele>433.0</ele><time>2026-04-25T10:48:24.999Z</time></trkpt><trkpt lat="40.75889847103893" lon="14.884469653887756"><ele>433.0</ele><time>2026-04-25T10:48:25.999Z</time></trkpt><trkpt lat="40.75877450933602" lon="14.884535226653194"><ele>433.0</ele><time>2026-04-25T10:48:26.999Z</time></trkpt><trkpt lat="40.75864719532821" lon="14.884611130931237"><ele>433.0</ele><time>2026-04-25T10:48:27.999Z</time></trkpt><trkpt lat="40.75852338484123" lon="14.884664292111028"><ele>430.79999999999995</ele><time>2026-04-25T10:48:28.999Z</time></trkpt><trkpt lat="40.75840690428656" lon="14.884704032256"><ele>428.59999999999997</ele><time>2026-04-25T10:48:29.999Z</time></trkpt><trkpt lat="40.7582907891707" lon="14.88474583125699"><ele>426.4</ele><time>2026-04-25T10:48:30.999Z</time></trkpt><trkpt lat="40.75818160042933" lon="14.884777496265448"><ele>424.20000000000005</ele><time>2026-04-25T10:48:31.999Z</time></trkpt><trkpt lat="40.758096968070355" lon="14.8848080775342"><ele>422.0</ele><time>2026-04-25T10:48:32.999Z</time></trkpt><trkpt lat="40.75804000240078" lon="14.884847811659494"><ele>422.0</ele><time>2026-04-25T10:48:33.999Z</time></trkpt><trkpt lat="40.75795878959452" lon="14.884839046834093"><ele>422.0</ele><time>2026-04-25T10:48:34.999Z</time></trkpt><trkpt lat="40.75786430601173" lon="14.884767020222753"><ele>422.0</ele><time>2026-04-25T10:48:35.999Z</time></trkpt><trkpt lat="40.75774140589422" lon="14.884677432978476"><ele>422.0</ele><time>2026-04-25T10:48:36.999Z</time></trkpt><trkpt lat="40.75760160180031" lon="14.884625502956448"><ele>424.0</ele><time>2026-04-25T10:48:37.999Z</time></trkpt><trkpt lat="40.757473298386515" lon="14.884592863972841"><ele>426.0</ele><time>2026-04-25T10:48:38.999Z</time></trkpt><trkpt lat="40.757368942891354" lon="14.884574154764294"><ele>428.00000000000006</ele><time>2026-04-25T10:48:39.999Z</time></trkpt><trkpt lat="40.75728274868071" lon="14.88455142780329"><ele>430.0</ele><time>2026-04-25T10:48:40.999Z</time></trkpt><trkpt lat="40.757196521215114" lon="14.884556915051835"><ele>432.0</ele><time>2026-04-25T10:48:41.999Z</time></trkpt><trkpt lat="40.75712271136925" lon="14.884569084843818"><ele>432.0</ele><time>2026-04-25T10:48:42.999Z</time></trkpt><trkpt lat="40.75703806230622" lon="14.884583351135426"><ele>432.0</ele><time>2026-04-25T10:48:43.999Z</time></trkpt><trkpt lat="40.756951986249206" lon="14.884597253677864"><ele>432.0</ele><time>2026-04-25T10:48:44.999Z</time></trkpt><trkpt lat="40.75686482645765" lon="14.884603861161647"><ele>432.0</ele><time>2026-04-25T10:48:45.999Z</time></trkpt><trkpt lat="40.756778965426435" lon="14.884632170508707"><ele>432.0</ele><time>2026-04-25T10:48:46.999Z</time></trkpt><trkpt lat="40.75668576605251" lon="14.884653696852977"><ele>432.0</ele><time>2026-04-25T10:48:47.999Z</time></trkpt><trkpt lat="40.75660254349583" lon="14.884660710424502"><ele>430.20000000000005</ele><time>2026-04-25T10:48:48.999Z</time></trkpt><trkpt lat="40.7564983186721" lon="14.884685383914247"><ele>428.40000000000003</ele><time>2026-04-25T10:48:49.999Z</time></trkpt><trkpt lat="40.75638769542076" lon="14.884722270433173"><ele>426.6</ele><time>2026-04-25T10:48:50.999Z</time></trkpt><trkpt lat="40.75627832494233" lon="14.884765140977942"><ele>424.79999999999995</ele><time>2026-04-25T10:48:51.999Z</time></trkpt><trkpt lat="40.75617763166414" lon="14.88483798324667"><ele>423.0</ele><time>2026-04-25T10:48:52.999Z</time></trkpt><trkpt lat="40.75610514776775" lon="14.884919902346605"><ele>423.0</ele><time>2026-04-25T10:48:53.999Z</time></trkpt><trkpt lat="40.75604000271226" lon="14.884959190941153"><ele>423.0</ele><time>2026-04-25T10:48:54.999Z</time></trkpt><trkpt lat="40.75599118833319" lon="14.885050485216388"><ele>423.0</ele><time>2026-04-25T10:48:56.999Z</time></trkpt><trkpt lat="40.75601494946695" lon="14.885149063488397"><ele>423.0</ele><time>2026-04-25T10:48:57.999Z</time></trkpt><trkpt lat="40.7560542550228" lon="14.885249051788147"><ele>423.0</ele><time>2026-04-25T10:48:58.999Z</time></trkpt><trkpt lat="40.75609680054851" lon="14.885328525397844"><ele>423.0</ele><time>2026-04-25T10:48:59.999Z</time></trkpt><trkpt lat="40.75613940218856" lon="14.885402730835416"><ele>422.6666666666667</ele><time>2026-04-25T10:49:00.999Z</time></trkpt><trkpt lat="40.756189354852616" lon="14.885464844455885"><ele>422.33333333333337</ele><time>2026-04-25T10:49:01.999Z</time></trkpt><trkpt lat="40.75624402483889" lon="14.885526313059549"><ele>422.0</ele><time>2026-04-25T10:49:03Z</time></trkpt><trkpt lat="40.75631140598655" lon="14.885597604243042"><ele>421.6666666666667</ele><time>2026-04-25T10:49:04Z</time></trkpt><trkpt lat="40.756358023338905" lon="14.885679386202911"><ele>421.33333333333337</ele><time>2026-04-25T10:49:05Z</time></trkpt><trkpt lat="40.75640357644813" lon="14.885773760379243"><ele>421.0</ele><time>2026-04-25T10:49:06Z</time></trkpt><trkpt lat="40.75642110142838" lon="14.885879494251094"><ele>420.20000000000005</ele><time>2026-04-25T10:49:07Z</time></trkpt><trkpt lat="40.75643527352771" lon="14.885967624624"><ele>419.40000000000003</ele><time>2026-04-25T10:49:08Z</time></trkpt><trkpt lat="40.75645833025915" lon="14.886069039537784"><ele>418.6</ele><time>2026-04-25T10:49:09Z</time></trkpt><trkpt lat="40.756497569372925" lon="14.886231367301749"><ele>417.8</ele><time>2026-04-25T10:49:11Z</time></trkpt><trkpt lat="40.75652270960202" lon="14.886388505487071"><ele>417.0</ele><time>2026-04-25T10:49:13Z</time></trkpt><trkpt lat="40.75650999598861" lon="14.88651027126296"><ele>417.0</ele><time>2026-04-25T10:49:15Z</time></trkpt><trkpt lat="40.75638659458808" lon="14.886467025977165"><ele>417.0</ele><time>2026-04-25T10:49:17Z</time></trkpt><trkpt lat="40.75631165812128" lon="14.886423511452456"><ele>417.0</ele><time>2026-04-25T10:49:18Z</time></trkpt><trkpt lat="40.7562109519104" lon="14.886504763020094"><ele>417.0</ele><time>2026-04-25T10:49:20Z</time></trkpt><trkpt lat="40.756157170999785" lon="14.886612291863102"><ele>417.0</ele><time>2026-04-25T10:49:21Z</time></trkpt><trkpt lat="40.756091501245045" lon="14.886732262794396"><ele>418.40000000000003</ele><time>2026-04-25T10:49:22Z</time></trkpt><trkpt lat="40.75601656931095" lon="14.886799078422039"><ele>419.8</ele><time>2026-04-25T10:49:23Z</time></trkpt><trkpt lat="40.755887853771185" lon="14.886832174816144"><ele>421.2</ele><time>2026-04-25T10:49:25Z</time></trkpt><trkpt lat="40.75580061955273" lon="14.886834070414205"><ele>422.6</ele><time>2026-04-25T10:49:26Z</time></trkpt><trkpt lat="40.75571159536375" lon="14.886810520270679"><ele>424.0</ele><time>2026-04-25T10:49:27Z</time></trkpt><trkpt lat="40.75565873188089" lon="14.886865682656675"><ele>424.00000000000006</ele><time>2026-04-25T10:49:28Z</time></trkpt><trkpt lat="40.75562913345236" lon="14.886953482972112"><ele>424.0</ele><time>2026-04-25T10:49:30Z</time></trkpt><trkpt lat="40.75563292040935" lon="14.887067935135468"><ele>424.0</ele><time>2026-04-25T10:49:32Z</time></trkpt><trkpt lat="40.75567559224571" lon="14.887177200452712"><ele>424.0</ele><time>2026-04-25T10:49:33Z</time></trkpt><trkpt lat="40.75571636262185" lon="14.887270240483645"><ele>424.00000000000006</ele><time>2026-04-25T10:49:33.999Z</time></trkpt><trkpt lat="40.755789244939486" lon="14.887359742468805"><ele>424.0</ele><time>2026-04-25T10:49:35.999Z</time></trkpt><trkpt lat="40.755752978690275" lon="14.887444279008145"><ele>424.0</ele><time>2026-04-25T10:49:38.999Z</time></trkpt><trkpt lat="40.75561445086076" lon="14.887477070090062"><ele>424.0</ele><time>2026-04-25T10:49:40.999Z</time></trkpt><trkpt lat="40.75550386551558" lon="14.88745711127401"><ele>424.0</ele><time>2026-04-25T10:49:41.999Z</time></trkpt><trkpt lat="40.75542477722851" lon="14.887546330875503"><ele>424.0</ele><time>2026-04-25T10:49:42.999Z</time></trkpt><trkpt lat="40.755273755051995" lon="14.88756264302907"><ele>423.2</ele><time>2026-04-25T10:49:43.999Z</time></trkpt><trkpt lat="40.75513403702877" lon="14.887531995781549"><ele>422.4</ele><time>2026-04-25T10:49:44.999Z</time></trkpt><trkpt lat="40.755021413149116" lon="14.887480021152937"><ele>421.6</ele><time>2026-04-25T10:49:45.999Z</time></trkpt><trkpt lat="40.75493492189026" lon="14.887439818217432"><ele>420.8</ele><time>2026-04-25T10:49:46.999Z</time></trkpt><trkpt lat="40.754859295060655" lon="14.887403089906497"><ele>420.0</ele><time>2026-04-25T10:49:47.999Z</time></trkpt><trkpt lat="40.75478400127604" lon="14.887395210243803"><ele>420.0</ele><time>2026-04-25T10:49:48.999Z</time></trkpt><trkpt lat="40.75470867628118" lon="14.887387327401042"><ele>420.0</ele><time>2026-04-25T10:49:49.999Z</time></trkpt><trkpt lat="40.75463411007226" lon="14.887387876338678"><ele>420.0</ele><time>2026-04-25T10:49:50.999Z</time></trkpt><trkpt lat="40.754550134969435" lon="14.887389334483824"><ele>420.0</ele><time>2026-04-25T10:49:51.999Z</time></trkpt><trkpt lat="40.75446512751998" lon="14.887289912173816"><ele>420.0</ele><time>2026-04-25T10:49:52.999Z</time></trkpt><trkpt lat="40.754374437593725" lon="14.887274538340183"><ele>420.0</ele><time>2026-04-25T10:49:53.999Z</time></trkpt><trkpt lat="40.75428081871061" lon="14.887275026334652"><ele>419.0</ele><time>2026-04-25T10:49:54.999Z</time></trkpt><trkpt lat="40.75419270717385" lon="14.887272099018464"><ele>418.0</ele><time>2026-04-25T10:49:55.999Z</time></trkpt><trkpt lat="40.75409291328623" lon="14.887261259401173"><ele>417.0</ele><time>2026-04-25T10:49:56.999Z</time></trkpt><trkpt lat="40.75398543218343" lon="14.887285826133168"><ele>416.0</ele><time>2026-04-25T10:49:57.999Z</time></trkpt><trkpt lat="40.75387111549001" lon="14.887303108710828"><ele>415.0</ele><time>2026-04-25T10:49:58.999Z</time></trkpt><trkpt lat="40.75375417542016" lon="14.887360592448452"><ele>415.00000000000006</ele><time>2026-04-25T10:49:59.999Z</time></trkpt><trkpt lat="40.75366123892426" lon="14.887409732725729"><ele>415.0</ele><time>2026-04-25T10:50:00.999Z</time></trkpt><trkpt lat="40.75357534709718" lon="14.887436472208952"><ele>415.0</ele><time>2026-04-25T10:50:01.999Z</time></trkpt><trkpt lat="40.75350262564375" lon="14.887446492695565"><ele>415.0</ele><time>2026-04-25T10:50:02.999Z</time></trkpt><trkpt lat="40.75343491245" lon="14.887452376601878"><ele>415.00000000000006</ele><time>2026-04-25T10:50:04.999Z</time></trkpt><trkpt lat="40.75336463440512" lon="14.887453026780374"><ele>415.0</ele><time>2026-04-25T10:50:07.999Z</time></trkpt><trkpt lat="40.75328571383195" lon="14.887464585495971"><ele>413.4</ele><time>2026-04-25T10:50:10.999Z</time></trkpt><trkpt lat="40.75321901282847" lon="14.887476791577956"><ele>411.8</ele><time>2026-04-25T10:50:12.999Z</time></trkpt><trkpt lat="40.75312008992185" lon="14.887471193710452"><ele>410.20000000000005</ele><time>2026-04-25T10:50:14.999Z</time></trkpt><trkpt lat="40.75298991811445" lon="14.887481956218757"><ele>408.6</ele><time>2026-04-25T10:50:16.999Z</time></trkpt><trkpt lat="40.752914832130145" lon="14.887430556315941"><ele>407.0</ele><time>2026-04-25T10:50:17.999Z</time></trkpt><trkpt lat="40.752825113068084" lon="14.887429044273262"><ele>406.99999999999994</ele><time>2026-04-25T10:50:18.999Z</time></trkpt><trkpt lat="40.75273355133593" lon="14.887423277846482"><ele>407.0</ele><time>2026-04-25T10:50:19.999Z</time></trkpt><trkpt lat="40.75265366560097" lon="14.887414893488883"><ele>407.0</ele><time>2026-04-25T10:50:20.999Z</time></trkpt><trkpt lat="40.75256654951372" lon="14.887408927191279"><ele>407.0</ele><time>2026-04-25T10:50:21.999Z</time></trkpt><trkpt lat="40.75247280919173" lon="14.887415573328209"><ele>406.99999999999994</ele><time>2026-04-25T10:50:22.999Z</time></trkpt><trkpt lat="40.75238738740261" lon="14.887438183127724"><ele>407.0</ele><time>2026-04-25T10:50:23.999Z</time></trkpt><trkpt lat="40.7522902988488" lon="14.887495054875872"><ele>404.8</ele><time>2026-04-25T10:50:24.999Z</time></trkpt><trkpt lat="40.752234164604396" lon="14.887569105370817"><ele>402.6</ele><time>2026-04-25T10:50:25.999Z</time></trkpt><trkpt lat="40.75216503728531" lon="14.887621356543526"><ele>400.40000000000003</ele><time>2026-04-25T10:50:27.999Z</time></trkpt><trkpt lat="40.75219564710561" lon="14.887718864495225"><ele>398.20000000000005</ele><time>2026-04-25T10:50:29.999Z</time></trkpt><trkpt lat="40.75228441289329" lon="14.887745221009013"><ele>396.0</ele><time>2026-04-25T10:50:30.999Z</time></trkpt><trkpt lat="40.75235124123376" lon="14.887606214247965"><ele>391.0</ele><time>2026-04-25T10:50:31.999Z</time></trkpt><trkpt lat="40.752191241628104" lon="14.8877471788013"><ele>386.0</ele><time>2026-04-25T10:50:55.999Z</time></trkpt><trkpt lat="40.75226608971162" lon="14.88774739893074"><ele>381.0</ele><time>2026-04-25T10:53:10.999Z</time></trkpt><trkpt lat="40.75236019750235" lon="14.88780350509875"><ele>376.0</ele><time>2026-04-25T10:53:12.999Z</time></trkpt><trkpt lat="40.75246543614911" lon="14.887822909509115"><ele>376.0</ele><time>2026-04-25T10:53:14.999Z</time></trkpt><trkpt lat="40.7525841729459" lon="14.887798698322053"><ele>376.0</ele><time>2026-04-25T10:53:16.999Z</time></trkpt><trkpt lat="40.752694363096026" lon="14.88784009961557"><ele>376.0</ele><time>2026-04-25T10:53:18.999Z</time></trkpt><trkpt lat="40.75272677609819" lon="14.88794741172506"><ele>376.0</ele><time>2026-04-25T10:53:19.999Z</time></trkpt><trkpt lat="40.75279351116061" lon="14.887999858294332"><ele>376.0</ele><time>2026-04-25T10:53:20.999Z</time></trkpt><trkpt lat="40.75285622744753" lon="14.888053007134058"><ele>378.3333333333333</ele><time>2026-04-25T10:53:21.999Z</time></trkpt><trkpt lat="40.75292066879197" lon="14.888109305893208"><ele>380.66666666666663</ele><time>2026-04-25T10:53:22.999Z</time></trkpt><trkpt lat="40.752988264218565" lon="14.888165782831326"><ele>383.0</ele><time>2026-04-25T10:53:23.999Z</time></trkpt><trkpt lat="40.75305698030815" lon="14.888212287666024"><ele>385.3333333333333</ele><time>2026-04-25T10:53:24.999Z</time></trkpt><trkpt lat="40.753136667138364" lon="14.888249177296695"><ele>387.6666666666667</ele><time>2026-04-25T10:53:25.999Z</time></trkpt><trkpt lat="40.75322468278954" lon="14.88828344397349"><ele>390.0</ele><time>2026-04-25T10:53:26.999Z</time></trkpt><trkpt lat="40.75329983236134" lon="14.888314060319075"><ele>390.0</ele><time>2026-04-25T10:53:27.999Z</time></trkpt><trkpt lat="40.75337398148474" lon="14.888354047282153"><ele>390.0</ele><time>2026-04-25T10:53:28.999Z</time></trkpt><trkpt lat="40.75346848202654" lon="14.888438024787202"><ele>390.0</ele><time>2026-04-25T10:53:30.999Z</time></trkpt><trkpt lat="40.75352753313335" lon="14.8885107810063"><ele>390.0</ele><time>2026-04-25T10:53:31.999Z</time></trkpt><trkpt lat="40.75356690930555" lon="14.88858088932333"><ele>390.0</ele><time>2026-04-25T10:53:32.999Z</time></trkpt><trkpt lat="40.753607203413836" lon="14.888661262674288"><ele>390.0</ele><time>2026-04-25T10:53:33.999Z</time></trkpt><trkpt lat="40.753646988972285" lon="14.88877277292218"><ele>389.0</ele><time>2026-04-25T10:53:35.999Z</time></trkpt><trkpt lat="40.753671861562204" lon="14.888856714163438"><ele>388.0</ele><time>2026-04-25T10:53:38.999Z</time></trkpt><trkpt lat="40.753634832607595" lon="14.888749973794601"><ele>387.0</ele><time>2026-04-25T10:53:47.999Z</time></trkpt><trkpt lat="40.753590250259684" lon="14.888653835410373"><ele>386.0</ele><time>2026-04-25T10:53:49.999Z</time></trkpt><trkpt lat="40.75350086273115" lon="14.888698664875639"><ele>385.0</ele><time>2026-04-25T10:55:33.999Z</time></trkpt><trkpt lat="40.753444527995484" lon="14.888610802475185"><ele>384.0</ele><time>2026-04-25T10:55:38.999Z</time></trkpt><trkpt lat="40.75335784396028" lon="14.888531530392376"><ele>384.0</ele><time>2026-04-25T10:55:42.999Z</time></trkpt><trkpt lat="40.75328853249965" lon="14.88852472524088"><ele>384.0</ele><time>2026-04-25T10:56:29.999Z</time></trkpt><trkpt lat="40.753349520959645" lon="14.88855235978534"><ele>384.0</ele><time>2026-04-25T10:57:29.999Z</time></trkpt><trkpt lat="40.75341291167218" lon="14.888531212121944"><ele>384.0</ele><time>2026-04-25T10:57:36.999Z</time></trkpt><trkpt lat="40.7534778132354" lon="14.888599242289068"><ele>384.0</ele><time>2026-04-25T10:57:38.999Z</time></trkpt><trkpt lat="40.75356264627782" lon="14.888708073766876"><ele>384.0</ele><time>2026-04-25T10:57:47.999Z</time></trkpt><trkpt lat="40.753598255913914" lon="14.888801769179578"><ele>384.0</ele><time>2026-04-25T10:57:48.999Z</time></trkpt><trkpt lat="40.75366128243467" lon="14.888866946054591"><ele>384.0</ele><time>2026-04-25T10:57:50.999Z</time></trkpt><trkpt lat="40.753713638848986" lon="14.888934732993983"><ele>384.0</ele><time>2026-04-25T10:57:52.999Z</time></trkpt><trkpt lat="40.753695605858034" lon="14.88902823030671"><ele>384.0</ele><time>2026-04-25T10:57:54.999Z</time></trkpt><trkpt lat="40.75360887291737" lon="14.889115095963525"><ele>384.0</ele><time>2026-04-25T10:57:57.999Z</time></trkpt><trkpt lat="40.75355368604941" lon="14.889182642138666"><ele>384.0</ele><time>2026-04-25T10:57:58.999Z</time></trkpt><trkpt lat="40.75346985131816" lon="14.889195354044627"><ele>384.0</ele><time>2026-04-25T10:57:59.999Z</time></trkpt><trkpt lat="40.75338954682371" lon="14.889215515644956"><ele>384.0</ele><time>2026-04-25T10:58:00.999Z</time></trkpt><trkpt lat="40.75329062531542" lon="14.889238088567918"><ele>384.0</ele><time>2026-04-25T10:58:01.999Z</time></trkpt><trkpt lat="40.75319506091208" lon="14.889257341792822"><ele>384.0</ele><time>2026-04-25T10:58:02.999Z</time></trkpt><trkpt lat="40.753124390761016" lon="14.889256762410703"><ele>384.0</ele><time>2026-04-25T10:58:03.999Z</time></trkpt><trkpt lat="40.753056773283625" lon="14.889260037240525"><ele>384.0</ele><time>2026-04-25T10:58:04.999Z</time></trkpt><trkpt lat="40.75299275784946" lon="14.889275809975322"><ele>387.8333333333333</ele><time>2026-04-25T10:58:05.999Z</time></trkpt><trkpt lat="40.75293054927984" lon="14.889307693845742"><ele>391.66666666666663</ele><time>2026-04-25T10:58:06.999Z</time></trkpt><trkpt lat="40.75290081045459" lon="14.889448451821638"><ele>395.5</ele><time>2026-04-25T10:58:07.999Z</time></trkpt><trkpt lat="40.75283585817746" lon="14.889531049362269"><ele>399.3333333333333</ele><time>2026-04-25T10:58:08.999Z</time></trkpt><trkpt lat="40.75276270986414" lon="14.889584036415192"><ele>403.16666666666663</ele><time>2026-04-25T10:58:09.999Z</time></trkpt><trkpt lat="40.75268387331482" lon="14.889618869657006"><ele>407.0</ele><time>2026-04-25T10:58:10.999Z</time></trkpt><trkpt lat="40.75259898643863" lon="14.889637454337882"><ele>406.99999999999994</ele><time>2026-04-25T10:58:11.999Z</time></trkpt><trkpt lat="40.75250942148908" lon="14.889632781307322"><ele>407.0</ele><time>2026-04-25T10:58:12.999Z</time></trkpt><trkpt lat="40.752421704624446" lon="14.889586452360598"><ele>407.0</ele><time>2026-04-25T10:58:13.999Z</time></trkpt><trkpt lat="40.75234038139568" lon="14.889567426602337"><ele>407.0</ele><time>2026-04-25T10:58:14.999Z</time></trkpt><trkpt lat="40.75223941874534" lon="14.889547908443875"><ele>406.99999999999994</ele><time>2026-04-25T10:58:16.999Z</time></trkpt><trkpt lat="40.752167024616284" lon="14.889569441422454"><ele>407.0</ele><time>2026-04-25T10:58:17.999Z</time></trkpt><trkpt lat="40.75207928360345" lon="14.889588815547341"><ele>406.99999999999994</ele><time>2026-04-25T10:58:18.999Z</time></trkpt><trkpt lat="40.75200912843716" lon="14.88965669463203"><ele>407.0</ele><time>2026-04-25T10:58:19.999Z</time></trkpt><trkpt lat="40.75193316045021" lon="14.889719574361347"><ele>407.0</ele><time>2026-04-25T10:58:20.999Z</time></trkpt><trkpt lat="40.751862749552245" lon="14.889788669508489"><ele>407.0</ele><time>2026-04-25T10:58:21.999Z</time></trkpt><trkpt lat="40.75181307889163" lon="14.88985553549173"><ele>406.99999999999994</ele><time>2026-04-25T10:58:22.999Z</time></trkpt><trkpt lat="40.75178469565024" lon="14.889935861533322"><ele>407.0</ele><time>2026-04-25T10:58:23.999Z</time></trkpt><trkpt lat="40.75174791076853" lon="14.890027914610592"><ele>402.3333333333333</ele><time>2026-04-25T10:58:24.999Z</time></trkpt><trkpt lat="40.75169679968154" lon="14.890097255068474"><ele>397.66666666666663</ele><time>2026-04-25T10:58:25.999Z</time></trkpt><trkpt lat="40.75166199706926" lon="14.890167308514794"><ele>393.0</ele><time>2026-04-25T10:58:26.999Z</time></trkpt><trkpt lat="40.75162722254527" lon="14.890273484100407"><ele>388.3333333333333</ele><time>2026-04-25T10:58:28.999Z</time></trkpt><trkpt lat="40.75164324063681" lon="14.890358603235539"><ele>383.66666666666663</ele><time>2026-04-25T10:58:31.999Z</time></trkpt><trkpt lat="40.75170377529393" lon="14.890467353226716"><ele>379.0</ele><time>2026-04-25T10:58:34.999Z</time></trkpt><trkpt lat="40.7517647801079" lon="14.890533802527319"><ele>379.0</ele><time>2026-04-25T10:58:36.999Z</time></trkpt><trkpt lat="40.75183976111698" lon="14.89061472454815"><ele>379.0</ele><time>2026-04-25T10:58:38.999Z</time></trkpt><trkpt lat="40.75190420775446" lon="14.890716778091225"><ele>379.0</ele><time>2026-04-25T10:58:40.999Z</time></trkpt><trkpt lat="40.75196782761207" lon="14.890834608536318"><ele>379.0</ele><time>2026-04-25T10:58:42.999Z</time></trkpt><trkpt lat="40.75202610765497" lon="14.8909531247849"><ele>379.0</ele><time>2026-04-25T10:58:44.999Z</time></trkpt><trkpt lat="40.75208753173498" lon="14.891085228314854"><ele>383.2</ele><time>2026-04-25T10:58:46.999Z</time></trkpt><trkpt lat="40.75212675778577" lon="14.891167728953704"><ele>387.4</ele><time>2026-04-25T10:58:47.999Z</time></trkpt><trkpt lat="40.75218832254614" lon="14.891300805191054"><ele>391.6</ele><time>2026-04-25T10:58:49.999Z</time></trkpt><trkpt lat="40.75222468320711" lon="14.891438359897784"><ele>395.8</ele><time>2026-04-25T10:58:51.999Z</time></trkpt><trkpt lat="40.75225814608592" lon="14.891527611259084"><ele>400.0</ele><time>2026-04-25T10:58:52.999Z</time></trkpt><trkpt lat="40.75226483763104" lon="14.89163254936801"><ele>400.00000000000006</ele><time>2026-04-25T10:58:53.999Z</time></trkpt><trkpt lat="40.752284795259506" lon="14.891729066080828"><ele>400.0</ele><time>2026-04-25T10:58:54.999Z</time></trkpt><trkpt lat="40.75230522677862" lon="14.891827874604243"><ele>400.0</ele><time>2026-04-25T10:58:55.999Z</time></trkpt><trkpt lat="40.7523247328449" lon="14.891922207584686"><ele>400.0</ele><time>2026-04-25T10:58:56.999Z</time></trkpt><trkpt lat="40.752350000421764" lon="14.892044403713081"><ele>400.00000000000006</ele><time>2026-04-25T10:58:58.999Z</time></trkpt><trkpt lat="40.75231662897628" lon="14.89214711265912"><ele>400.0</ele><time>2026-04-25T10:59:02.999Z</time></trkpt><trkpt lat="40.75219926400085" lon="14.892107322963296"><ele>400.0</ele><time>2026-04-25T10:59:04.999Z</time></trkpt><trkpt lat="40.75209840233102" lon="14.892130871002085"><ele>400.0</ele><time>2026-04-25T10:59:06.999Z</time></trkpt><trkpt lat="40.75200671801307" lon="14.892053786129257"><ele>400.0</ele><time>2026-04-25T10:59:08.999Z</time></trkpt><trkpt lat="40.75193299877669" lon="14.891990661951795"><ele>400.0</ele><time>2026-04-25T10:59:10.999Z</time></trkpt><trkpt lat="40.75185580345228" lon="14.891967370739128"><ele>400.0</ele><time>2026-04-25T10:59:14.999Z</time></trkpt><trkpt lat="40.7517637906754" lon="14.892031920562632"><ele>401.1666666666667</ele><time>2026-04-25T10:59:45Z</time></trkpt><trkpt lat="40.7517079436092" lon="14.892086730631272"><ele>402.33333333333337</ele><time>2026-04-25T10:59:46Z</time></trkpt><trkpt lat="40.75162275538668" lon="14.892147618592256"><ele>403.5</ele><time>2026-04-25T10:59:48Z</time></trkpt><trkpt lat="40.75150614838023" lon="14.892078515171034"><ele>404.66666666666663</ele><time>2026-04-25T10:59:50Z</time></trkpt><trkpt lat="40.75144805755008" lon="14.892028779899253"><ele>405.8333333333333</ele><time>2026-04-25T10:59:51Z</time></trkpt><trkpt lat="40.751386446819055" lon="14.891999353919552"><ele>407.0</ele><time>2026-04-25T10:59:52Z</time></trkpt><trkpt lat="40.751240572268806" lon="14.891996889192749"><ele>406.99999999999994</ele><time>2026-04-25T10:59:54Z</time></trkpt><trkpt lat="40.75114644989827" lon="14.891995095300636"><ele>407.0</ele><time>2026-04-25T10:59:55Z</time></trkpt><trkpt lat="40.75105458363193" lon="14.891990322611981"><ele>407.0</ele><time>2026-04-25T10:59:56Z</time></trkpt><trkpt lat="40.75097368239259" lon="14.891986527364619"><ele>407.0</ele><time>2026-04-25T10:59:57Z</time></trkpt><trkpt lat="40.75089946599935" lon="14.891986263975223"><ele>406.99999999999994</ele><time>2026-04-25T10:59:58Z</time></trkpt><trkpt lat="40.75082443339129" lon="14.892001049730016"><ele>407.0</ele><time>2026-04-25T10:59:59Z</time></trkpt><trkpt lat="40.75073819096364" lon="14.892048481426603"><ele>407.16666666666663</ele><time>2026-04-25T11:00:00Z</time></trkpt><trkpt lat="40.750648392885935" lon="14.892078616119026"><ele>407.3333333333333</ele><time>2026-04-25T11:00:01Z</time></trkpt><trkpt lat="40.75057069886471" lon="14.892114844241332"><ele>407.5</ele><time>2026-04-25T11:00:02Z</time></trkpt><trkpt lat="40.75051271994717" lon="14.89216515533904"><ele>407.66666666666663</ele><time>2026-04-25T11:00:03Z</time></trkpt><trkpt lat="40.750469683142995" lon="14.892229686810806"><ele>407.8333333333333</ele><time>2026-04-25T11:00:04Z</time></trkpt><trkpt lat="40.75043463676758" lon="14.892305313005537"><ele>408.0</ele><time>2026-04-25T11:00:05Z</time></trkpt><trkpt lat="40.75039328443045" lon="14.892419071927023"><ele>408.0</ele><time>2026-04-25T11:00:06Z</time></trkpt><trkpt lat="40.75034397141487" lon="14.89253029464083"><ele>408.0</ele><time>2026-04-25T11:00:07Z</time></trkpt><trkpt lat="40.7502809511704" lon="14.892657073460601"><ele>408.0</ele><time>2026-04-25T11:00:08Z</time></trkpt><trkpt lat="40.75024213609552" lon="14.892777667913712"><ele>408.0</ele><time>2026-04-25T11:00:09Z</time></trkpt><trkpt lat="40.75021564221885" lon="14.892857919397816"><ele>408.0</ele><time>2026-04-25T11:00:10Z</time></trkpt><trkpt lat="40.75019757069297" lon="14.892938281185028"><ele>408.0</ele><time>2026-04-25T11:00:14Z</time></trkpt><trkpt lat="40.75017149055603" lon="14.89301448697745"><ele>407.3333333333333</ele><time>2026-04-25T11:00:21.999Z</time></trkpt><trkpt lat="40.75014025199005" lon="14.893099576980084"><ele>406.66666666666663</ele><time>2026-04-25T11:00:22.999Z</time></trkpt><trkpt lat="40.75010062671107" lon="14.893179711769182"><ele>406.0</ele><time>2026-04-25T11:00:23.999Z</time></trkpt><trkpt lat="40.75004691077452" lon="14.893244767114869"><ele>405.3333333333333</ele><time>2026-04-25T11:00:24.999Z</time></trkpt><trkpt lat="40.74996221702279" lon="14.893288050364909"><ele>404.66666666666663</ele><time>2026-04-25T11:00:25.999Z</time></trkpt><trkpt lat="40.749853281300204" lon="14.893322360686204"><ele>404.0</ele><time>2026-04-25T11:00:26.999Z</time></trkpt><trkpt lat="40.74975934756137" lon="14.893351125483877"><ele>403.99999999999994</ele><time>2026-04-25T11:00:27.999Z</time></trkpt><trkpt lat="40.749686699195024" lon="14.893382724579892"><ele>404.0</ele><time>2026-04-25T11:00:28.999Z</time></trkpt><trkpt lat="40.74959393940635" lon="14.893466498017231"><ele>404.0</ele><time>2026-04-25T11:00:30.999Z</time></trkpt><trkpt lat="40.74954049955186" lon="14.89356306145658"><ele>404.0</ele><time>2026-04-25T11:00:32.999Z</time></trkpt><trkpt lat="40.749556719337" lon="14.893649960689357"><ele>403.99999999999994</ele><time>2026-04-25T11:00:34.999Z</time></trkpt><trkpt lat="40.74957701756881" lon="14.893729311099307"><ele>404.0</ele><time>2026-04-25T11:00:36.999Z</time></trkpt><trkpt lat="40.74960592871524" lon="14.893881613177998"><ele>404.79999999999995</ele><time>2026-04-25T11:01:16.999Z</time></trkpt><trkpt lat="40.749639879383416" lon="14.8939774556848"><ele>405.59999999999997</ele><time>2026-04-25T11:01:17.999Z</time></trkpt><trkpt lat="40.749681221044895" lon="14.89408679872498"><ele>406.4</ele><time>2026-04-25T11:01:18.999Z</time></trkpt><trkpt lat="40.749727453006315" lon="14.89419452444601"><ele>407.2</ele><time>2026-04-25T11:01:19.999Z</time></trkpt><trkpt lat="40.749775302940215" lon="14.8943138252086"><ele>408.0</ele><time>2026-04-25T11:01:20.999Z</time></trkpt><trkpt lat="40.74983464547586" lon="14.89442228496009"><ele>405.0</ele><time>2026-04-25T11:01:21.999Z</time></trkpt><trkpt lat="40.74989446177857" lon="14.894528902203936"><ele>402.0</ele><time>2026-04-25T11:01:22.999Z</time></trkpt><trkpt lat="40.74996163280053" lon="14.894658538549205"><ele>399.0</ele><time>2026-04-25T11:01:23.999Z</time></trkpt><trkpt lat="40.750037572595765" lon="14.894786864513948"><ele>396.0</ele><time>2026-04-25T11:01:24.999Z</time></trkpt><trkpt lat="40.7500978829168" lon="14.894885652296349"><ele>393.0</ele><time>2026-04-25T11:01:25.999Z</time></trkpt><trkpt lat="40.75014919449966" lon="14.895000258900085"><ele>393.0</ele><time>2026-04-25T11:01:27.999Z</time></trkpt><trkpt lat="40.75010765582269" lon="14.895136318402471"><ele>393.0</ele><time>2026-04-25T11:01:29.999Z</time></trkpt><trkpt lat="40.7500662048817" lon="14.895241756136894"><ele>393.0</ele><time>2026-04-25T11:01:30.999Z</time></trkpt><trkpt lat="40.7500590213942" lon="14.895348611247714"><ele>393.0</ele><time>2026-04-25T11:01:31.999Z</time></trkpt><trkpt lat="40.75007659392728" lon="14.895449340751387"><ele>393.0</ele><time>2026-04-25T11:01:32.999Z</time></trkpt><trkpt lat="40.75011622181705" lon="14.895520181808477"><ele>393.0</ele><time>2026-04-25T11:01:33.999Z</time></trkpt><trkpt lat="40.750175445977014" lon="14.895579798080004"><ele>398.5</ele><time>2026-04-25T11:01:34.999Z</time></trkpt><trkpt lat="40.750249253988436" lon="14.89563790739261"><ele>404.0</ele><time>2026-04-25T11:01:35.999Z</time></trkpt><trkpt lat="40.750307977879814" lon="14.895717372854078"><ele>409.5</ele><time>2026-04-25T11:01:36.999Z</time></trkpt><trkpt lat="40.75033956011377" lon="14.895804234943581"><ele>415.0</ele><time>2026-04-25T11:01:37.999Z</time></trkpt><trkpt lat="40.75032828083682" lon="14.895904724636694"><ele>420.5</ele><time>2026-04-25T11:01:39Z</time></trkpt><trkpt lat="40.75024975974512" lon="14.895981817461907"><ele>426.0</ele><time>2026-04-25T11:01:41Z</time></trkpt><trkpt lat="40.75022853573517" lon="14.896064323989815"><ele>426.0</ele><time>2026-04-25T11:01:43Z</time></trkpt><trkpt lat="40.7502642422222" lon="14.896137656851435"><ele>426.0</ele><time>2026-04-25T11:01:45Z</time></trkpt><trkpt lat="40.75025962214723" lon="14.89622411760381"><ele>426.0</ele><time>2026-04-25T11:01:47Z</time></trkpt><trkpt lat="40.75026763536208" lon="14.896324674905872"><ele>426.0</ele><time>2026-04-25T11:01:48Z</time></trkpt><trkpt lat="40.75026460422669" lon="14.896434242041927"><ele>426.0</ele><time>2026-04-25T11:01:49Z</time></trkpt><trkpt lat="40.75031327850189" lon="14.89659511434275"><ele>426.0</ele><time>2026-04-25T11:01:50Z</time></trkpt><trkpt lat="40.75033304100605" lon="14.896694468259788"><ele>426.20000000000005</ele><time>2026-04-25T11:01:51Z</time></trkpt><trkpt lat="40.7503798492109" lon="14.89675643298866"><ele>426.40000000000003</ele><time>2026-04-25T11:01:52Z</time></trkpt><trkpt lat="40.750470641231026" lon="14.896846240468529"><ele>426.6</ele><time>2026-04-25T11:01:54Z</time></trkpt><trkpt lat="40.750532268537846" lon="14.896970191658447"><ele>426.8</ele><time>2026-04-25T11:01:56Z</time></trkpt><trkpt lat="40.75052150348612" lon="14.897076332002214"><ele>427.0</ele><time>2026-04-25T11:01:58Z</time></trkpt><trkpt lat="40.75045608949668" lon="14.897198854188998"><ele>427.0</ele><time>2026-04-25T11:02:00Z</time></trkpt><trkpt lat="40.75036241371813" lon="14.897206606748485"><ele>427.00000000000006</ele><time>2026-04-25T11:02:02Z</time></trkpt><trkpt lat="40.7502917733611" lon="14.897196763843157"><ele>427.00000000000006</ele><time>2026-04-25T11:02:03Z</time></trkpt><trkpt lat="40.75017685895405" lon="14.897159278071939"><ele>427.0</ele><time>2026-04-25T11:02:04Z</time></trkpt><trkpt lat="40.7500587066199" lon="14.897116284140626"><ele>427.0</ele><time>2026-04-25T11:02:05Z</time></trkpt><trkpt lat="40.74993433114778" lon="14.897042280472698"><ele>427.83333333333337</ele><time>2026-04-25T11:02:06Z</time></trkpt><trkpt lat="40.74984461592194" lon="14.896953981215074"><ele>428.6666666666667</ele><time>2026-04-25T11:02:07Z</time></trkpt><trkpt lat="40.749786585404344" lon="14.896898785205389"><ele>429.5</ele><time>2026-04-25T11:02:08Z</time></trkpt><trkpt lat="40.74973163691347" lon="14.896824221096088"><ele>430.33333333333337</ele><time>2026-04-25T11:02:09Z</time></trkpt><trkpt lat="40.74971308871592" lon="14.896730504382722"><ele>431.1666666666667</ele><time>2026-04-25T11:02:10Z</time></trkpt><trkpt lat="40.749681455531245" lon="14.896637060898996"><ele>432.0</ele><time>2026-04-25T11:02:11Z</time></trkpt><trkpt lat="40.74962440302288" lon="14.896493851949757"><ele>429.6666666666667</ele><time>2026-04-25T11:02:13Z</time></trkpt><trkpt lat="40.749606159797615" lon="14.896404891972939"><ele>427.33333333333337</ele><time>2026-04-25T11:02:14Z</time></trkpt><trkpt lat="40.74957028067787" lon="14.896331548484783"><ele>425.0</ele><time>2026-04-25T11:02:15Z</time></trkpt><trkpt lat="40.74951759882215" lon="14.896281076787865"><ele>422.6666666666667</ele><time>2026-04-25T11:02:16Z</time></trkpt><trkpt lat="40.74942708863629" lon="14.896256526658282"><ele>420.33333333333337</ele><time>2026-04-25T11:02:17Z</time></trkpt><trkpt lat="40.74933093500189" lon="14.896271654977655"><ele>418.0</ele><time>2026-04-25T11:02:18Z</time></trkpt><trkpt lat="40.74922306826205" lon="14.896294159699002"><ele>418.00000000000006</ele><time>2026-04-25T11:02:19Z</time></trkpt><trkpt lat="40.749120638389364" lon="14.896319687354945"><ele>418.0</ele><time>2026-04-25T11:02:20Z</time></trkpt><trkpt lat="40.74903730397263" lon="14.896355033631618"><ele>418.0</ele><time>2026-04-25T11:02:21Z</time></trkpt><trkpt lat="40.748976764831504" lon="14.89640643968275"><ele>418.0</ele><time>2026-04-25T11:02:22Z</time></trkpt><trkpt lat="40.74893259160523" lon="14.896505353930165"><ele>418.00000000000006</ele><time>2026-04-25T11:02:24Z</time></trkpt><trkpt lat="40.74898416661634" lon="14.896589779236438"><ele>418.0</ele><time>2026-04-25T11:02:26Z</time></trkpt><trkpt lat="40.749098606373444" lon="14.89656838022253"><ele>418.00000000000006</ele><time>2026-04-25T11:02:28Z</time></trkpt><trkpt lat="40.74917822030794" lon="14.89655245602627"><ele>418.0</ele><time>2026-04-25T11:02:29Z</time></trkpt><trkpt lat="40.749245223838855" lon="14.896576131029772"><ele>418.0</ele><time>2026-04-25T11:02:30Z</time></trkpt><trkpt lat="40.74932552968888" lon="14.896635963159417"><ele>418.0</ele><time>2026-04-25T11:02:32Z</time></trkpt><trkpt lat="40.74929147032439" lon="14.89671688318809"><ele>418.00000000000006</ele><time>2026-04-25T11:02:34Z</time></trkpt><trkpt lat="40.74925015705743" lon="14.896782582059506"><ele>418.0</ele><time>2026-04-25T11:02:35Z</time></trkpt><trkpt lat="40.74926561189145" lon="14.896923022138022"><ele>419.79999999999995</ele><time>2026-04-25T11:02:37Z</time></trkpt><trkpt lat="40.74928749927953" lon="14.897021675888958"><ele>421.6</ele><time>2026-04-25T11:02:38Z</time></trkpt><trkpt lat="40.74931022971875" lon="14.897130878259565"><ele>423.40000000000003</ele><time>2026-04-25T11:02:39Z</time></trkpt><trkpt lat="40.749363310464226" lon="14.897224327615922"><ele>425.20000000000005</ele><time>2026-04-25T11:02:40Z</time></trkpt><trkpt lat="40.749401218409304" lon="14.897332917634301"><ele>427.0</ele><time>2026-04-25T11:02:42Z</time></trkpt><trkpt lat="40.749273087226385" lon="14.897491938543897"><ele>427.50000000000006</ele><time>2026-04-25T11:02:45Z</time></trkpt><trkpt lat="40.74924624456591" lon="14.897587487369208"><ele>428.0</ele><time>2026-04-25T11:02:46Z</time></trkpt><trkpt lat="40.74922926672419" lon="14.897706330269198"><ele>428.5</ele><time>2026-04-25T11:02:47Z</time></trkpt><trkpt lat="40.749225208526575" lon="14.897836830170611"><ele>429.0</ele><time>2026-04-25T11:02:48Z</time></trkpt><trkpt lat="40.74922751897887" lon="14.897931929111234"><ele>429.50000000000006</ele><time>2026-04-25T11:02:49Z</time></trkpt><trkpt lat="40.74924701295763" lon="14.898043372411054"><ele>430.0</ele><time>2026-04-25T11:02:50Z</time></trkpt><trkpt lat="40.7492661131434" lon="14.898186426413284"><ele>430.0</ele><time>2026-04-25T11:02:51Z</time></trkpt><trkpt lat="40.74928052835222" lon="14.898325934438509"><ele>430.0</ele><time>2026-04-25T11:02:52Z</time></trkpt><trkpt lat="40.749291435847304" lon="14.898433523143726"><ele>430.0</ele><time>2026-04-25T11:02:53Z</time></trkpt><trkpt lat="40.74928963443941" lon="14.898537322396253"><ele>430.0</ele><time>2026-04-25T11:02:54Z</time></trkpt><trkpt lat="40.74927884397799" lon="14.898675725745173"><ele>430.0</ele><time>2026-04-25T11:02:55.999Z</time></trkpt><trkpt lat="40.74930468392193" lon="14.898807432716588"><ele>430.6666666666667</ele><time>2026-04-25T11:02:57.999Z</time></trkpt><trkpt lat="40.749334739089036" lon="14.898880758620827"><ele>431.33333333333337</ele><time>2026-04-25T11:02:58.999Z</time></trkpt><trkpt lat="40.749364082977856" lon="14.898954576860874"><ele>432.0</ele><time>2026-04-25T11:02:59.999Z</time></trkpt><trkpt lat="40.74938553776633" lon="14.89904714550342"><ele>432.66666666666663</ele><time>2026-04-25T11:03:00.999Z</time></trkpt><trkpt lat="40.74937377060509" lon="14.89913159585623"><ele>433.3333333333333</ele><time>2026-04-25T11:03:01.999Z</time></trkpt><trkpt lat="40.749284523561535" lon="14.899242679368024"><ele>434.0</ele><time>2026-04-25T11:03:03.999Z</time></trkpt><trkpt lat="40.7492197280252" lon="14.89928841241361"><ele>436.79999999999995</ele><time>2026-04-25T11:03:04.999Z</time></trkpt><trkpt lat="40.74916324921366" lon="14.899406153623588"><ele>439.59999999999997</ele><time>2026-04-25T11:03:06.999Z</time></trkpt><trkpt lat="40.749097367799656" lon="14.899464567098235"><ele>442.4</ele><time>2026-04-25T11:03:07.999Z</time></trkpt><trkpt lat="40.74905532093452" lon="14.89955540792791"><ele>445.2</ele><time>2026-04-25T11:03:08.999Z</time></trkpt><trkpt lat="40.749153392426464" lon="14.899644855434834"><ele>448.0</ele><time>2026-04-25T11:03:09.999Z</time></trkpt><trkpt lat="40.74919812221587" lon="14.899806544462088"><ele>448.0</ele><time>2026-04-25T11:03:11.999Z</time></trkpt><trkpt lat="40.749232517850615" lon="14.89991428869023"><ele>447.99999999999994</ele><time>2026-04-25T11:03:12.999Z</time></trkpt><trkpt lat="40.749308736127404" lon="14.900036997328021"><ele>447.99999999999994</ele><time>2026-04-25T11:03:15.999Z</time></trkpt><trkpt lat="40.74927985943001" lon="14.900128603733524"><ele>448.0</ele><time>2026-04-25T11:03:16.999Z</time></trkpt><trkpt lat="40.74916765243318" lon="14.900168612939982"><ele>448.0</ele><time>2026-04-25T11:03:18.999Z</time></trkpt><trkpt lat="40.749061609852724" lon="14.900215758271134"><ele>455.0</ele><time>2026-04-25T11:03:19.999Z</time></trkpt><trkpt lat="40.74895247903743" lon="14.900245282233088"><ele>462.0</ele><time>2026-04-25T11:03:20.999Z</time></trkpt><trkpt lat="40.74914584812692" lon="14.9004909624883"><ele>469.0</ele><time>2026-04-25T11:03:21.999Z</time></trkpt><trkpt lat="40.749132932484954" lon="14.900592707035294"><ele>469.0</ele><time>2026-04-25T11:03:23.999Z</time></trkpt><trkpt lat="40.74911440575927" lon="14.900672483235589"><ele>469.0</ele><time>2026-04-25T11:03:24.999Z</time></trkpt><trkpt lat="40.74903739807864" lon="14.900669672501632"><ele>469.0</ele><time>2026-04-25T11:03:26.999Z</time></trkpt><trkpt lat="40.74888663731853" lon="14.900664197703925"><ele>469.0</ele><time>2026-04-25T11:03:28.999Z</time></trkpt><trkpt lat="40.748776642969304" lon="14.900642823971415"><ele>469.0</ele><time>2026-04-25T11:03:29.999Z</time></trkpt><trkpt lat="40.74867768629946" lon="14.90062966225788"><ele>469.00000000000006</ele><time>2026-04-25T11:03:30.999Z</time></trkpt><trkpt lat="40.74858458060463" lon="14.900599553916537"><ele>469.0</ele><time>2026-04-25T11:03:31.999Z</time></trkpt><trkpt lat="40.74851083871363" lon="14.900560670878201"><ele>469.0</ele><time>2026-04-25T11:03:32.999Z</time></trkpt><trkpt lat="40.748445470413294" lon="14.900503357781306"><ele>469.0</ele><time>2026-04-25T11:03:33.999Z</time></trkpt><trkpt lat="40.7483819582025" lon="14.90043701450726"><ele>469.00000000000006</ele><time>2026-04-25T11:03:34.999Z</time></trkpt><trkpt lat="40.74830580491512" lon="14.900381730149988"><ele>469.0</ele><time>2026-04-25T11:03:35.999Z</time></trkpt><trkpt lat="40.748228011559526" lon="14.900329064501623"><ele>469.00000000000006</ele><time>2026-04-25T11:03:36.999Z</time></trkpt><trkpt lat="40.74815931290194" lon="14.900296732156956"><ele>469.0</ele><time>2026-04-25T11:03:37.999Z</time></trkpt><trkpt lat="40.7480959060819" lon="14.900285857656318"><ele>469.0</ele><time>2026-04-25T11:03:38.999Z</time></trkpt><trkpt lat="40.74802833190353" lon="14.900288329384278"><ele>469.0</ele><time>2026-04-25T11:03:39.999Z</time></trkpt><trkpt lat="40.747960999282995" lon="14.90029377340864"><ele>469.00000000000006</ele><time>2026-04-25T11:03:40.999Z</time></trkpt><trkpt lat="40.747887688952765" lon="14.900313117835548"><ele>469.0</ele><time>2026-04-25T11:03:41.999Z</time></trkpt><trkpt lat="40.74773817037993" lon="14.900329142514394"><ele>468.6</ele><time>2026-04-25T11:03:43.999Z</time></trkpt><trkpt lat="40.74763194985787" lon="14.90038014176269"><ele>468.2</ele><time>2026-04-25T11:03:46Z</time></trkpt><trkpt lat="40.74752249234581" lon="14.900360517033771"><ele>467.80000000000007</ele><time>2026-04-25T11:03:48Z</time></trkpt><trkpt lat="40.74743889411826" lon="14.90028160078991"><ele>467.40000000000003</ele><time>2026-04-25T11:03:50Z</time></trkpt><trkpt lat="40.74732312847999" lon="14.900266017628324"><ele>467.0</ele><time>2026-04-25T11:03:52Z</time></trkpt><trkpt lat="40.74726702537289" lon="14.900333064406619"><ele>467.0</ele><time>2026-04-25T11:03:53Z</time></trkpt><trkpt lat="40.74720020853268" lon="14.900337440843751"><ele>467.00000000000006</ele><time>2026-04-25T11:03:54Z</time></trkpt><trkpt lat="40.74713953935232" lon="14.900367823859003"><ele>467.00000000000006</ele><time>2026-04-25T11:03:55Z</time></trkpt><trkpt lat="40.74705031680518" lon="14.900359864883619"><ele>467.0</ele><time>2026-04-25T11:03:57Z</time></trkpt><trkpt lat="40.746988798596746" lon="14.900379363692654"><ele>467.0</ele><time>2026-04-25T11:04:00Z</time></trkpt><trkpt lat="40.74700029988556" lon="14.90062571362686"><ele>467.0</ele><time>2026-04-25T11:04:01Z</time></trkpt><trkpt lat="40.747030776149096" lon="14.900779437555421"><ele>467.00000000000006</ele><time>2026-04-25T11:04:02Z</time></trkpt><trkpt lat="40.74704654130259" lon="14.90092303937973"><ele>467.00000000000006</ele><time>2026-04-25T11:04:03Z</time></trkpt><trkpt lat="40.747049513881684" lon="14.901046077111031"><ele>467.0</ele><time>2026-04-25T11:04:04Z</time></trkpt><trkpt lat="40.74703492329737" lon="14.901182133239136"><ele>467.0</ele><time>2026-04-25T11:04:05Z</time></trkpt><trkpt lat="40.74700799358103" lon="14.901331129127204"><ele>468.6</ele><time>2026-04-25T11:04:06Z</time></trkpt><trkpt lat="40.746977388847455" lon="14.90146303515435"><ele>470.20000000000005</ele><time>2026-04-25T11:04:07Z</time></trkpt><trkpt lat="40.74694080100815" lon="14.901580837463987"><ele>471.8</ele><time>2026-04-25T11:04:08Z</time></trkpt><trkpt lat="40.74688670409697" lon="14.901700626808182"><ele>473.4</ele><time>2026-04-25T11:04:09Z</time></trkpt><trkpt lat="40.746835187316506" lon="14.90180988296131"><ele>475.0</ele><time>2026-04-25T11:04:10Z</time></trkpt><trkpt lat="40.74680054693087" lon="14.901893642169714"><ele>471.2</ele><time>2026-04-25T11:04:11Z</time></trkpt><trkpt lat="40.746772221991264" lon="14.902003941862063"><ele>467.4</ele><time>2026-04-25T11:04:13Z</time></trkpt><trkpt lat="40.74673516747646" lon="14.902094370219285"><ele>463.6</ele><time>2026-04-25T11:04:15Z</time></trkpt><trkpt lat="40.74669144344026" lon="14.90219197994794"><ele>459.8</ele><time>2026-04-25T11:04:17Z</time></trkpt><trkpt lat="40.74666371184096" lon="14.902366667142003"><ele>456.0</ele><time>2026-04-25T11:04:20Z</time></trkpt><trkpt lat="40.74674006196254" lon="14.902570478219774"><ele>456.4285714285714</ele><time>2026-04-25T11:04:22Z</time></trkpt><trkpt lat="40.74678708293092" lon="14.90266533646292"><ele>456.8571428571428</ele><time>2026-04-25T11:04:23Z</time></trkpt><trkpt lat="40.74682620516604" lon="14.902744260451286"><ele>457.2857142857143</ele><time>2026-04-25T11:04:24Z</time></trkpt><trkpt lat="40.746862678046995" lon="14.902815972288142"><ele>457.71428571428567</ele><time>2026-04-25T11:04:25Z</time></trkpt><trkpt lat="40.746904725079396" lon="14.902895925363138"><ele>458.1428571428571</ele><time>2026-04-25T11:04:26Z</time></trkpt><trkpt lat="40.7469468769481" lon="14.902976305468474"><ele>458.57142857142856</ele><time>2026-04-25T11:04:27Z</time></trkpt><trkpt lat="40.74698452252499" lon="14.903055709697597"><ele>459.0</ele><time>2026-04-25T11:04:28Z</time></trkpt><trkpt lat="40.74701558367869" lon="14.903133807829397"><ele>459.0</ele><time>2026-04-25T11:04:29Z</time></trkpt><trkpt lat="40.74704993934447" lon="14.903224464421136"><ele>459.0</ele><time>2026-04-25T11:04:30Z</time></trkpt><trkpt lat="40.74708014662903" lon="14.903303182854598"><ele>459.0</ele><time>2026-04-25T11:04:31Z</time></trkpt><trkpt lat="40.747114488202904" lon="14.903397062698485"><ele>459.0</ele><time>2026-04-25T11:04:33Z</time></trkpt><trkpt lat="40.747055720108605" lon="14.903451530415701"><ele>459.0</ele><time>2026-04-25T11:04:35Z</time></trkpt><trkpt lat="40.746910834265684" lon="14.903492899488324"><ele>459.0</ele><time>2026-04-25T11:04:37Z</time></trkpt><trkpt lat="40.74682619996501" lon="14.903530732329205"><ele>457.3333333333333</ele><time>2026-04-25T11:04:38Z</time></trkpt><trkpt lat="40.74675991976325" lon="14.903569624299806"><ele>455.66666666666663</ele><time>2026-04-25T11:04:39Z</time></trkpt><trkpt lat="40.746667216193146" lon="14.903610995554114"><ele>454.0</ele><time>2026-04-25T11:04:40Z</time></trkpt><trkpt lat="40.74658116028139" lon="14.90363959562544"><ele>452.3333333333333</ele><time>2026-04-25T11:04:41Z</time></trkpt><trkpt lat="40.746505675687345" lon="14.903650220354749"><ele>450.66666666666663</ele><time>2026-04-25T11:04:42Z</time></trkpt><trkpt lat="40.74640829718314" lon="14.903728322852865"><ele>449.0</ele><time>2026-04-25T11:04:44Z</time></trkpt><trkpt lat="40.746368131092225" lon="14.903792985967495"><ele>449.0</ele><time>2026-04-25T11:04:45Z</time></trkpt><trkpt lat="40.746303320490256" lon="14.903885930346046"><ele>449.0</ele><time>2026-04-25T11:04:47Z</time></trkpt><trkpt lat="40.746308311479304" lon="14.903985458440165"><ele>449.0</ele><time>2026-04-25T11:04:48Z</time></trkpt><trkpt lat="40.74636121858146" lon="14.904079185100374"><ele>449.0</ele><time>2026-04-25T11:04:49Z</time></trkpt><trkpt lat="40.746401670277244" lon="14.90414326432112"><ele>449.0</ele><time>2026-04-25T11:04:50Z</time></trkpt><trkpt lat="40.74626814466831" lon="14.90417534021358"><ele>448.99999999999994</ele><time>2026-04-25T11:04:56Z</time></trkpt><trkpt lat="40.74618218053632" lon="14.904134456807789"><ele>449.0</ele><time>2026-04-25T11:04:57Z</time></trkpt><trkpt lat="40.74610634312765" lon="14.904075403737403"><ele>449.0</ele><time>2026-04-25T11:04:58Z</time></trkpt><trkpt lat="40.74603836251192" lon="14.904067719936512"><ele>449.0</ele><time>2026-04-25T11:04:59Z</time></trkpt><trkpt lat="40.74596277782812" lon="14.904056187363388"><ele>448.99999999999994</ele><time>2026-04-25T11:05:00Z</time></trkpt><trkpt lat="40.745865227212995" lon="14.903972869932304"><ele>449.0</ele><time>2026-04-25T11:05:02Z</time></trkpt><trkpt lat="40.74576547447785" lon="14.903868686275965"><ele>447.3333333333333</ele><time>2026-04-25T11:05:04Z</time></trkpt><trkpt lat="40.74570206520246" lon="14.90383227110522"><ele>445.66666666666663</ele><time>2026-04-25T11:05:05Z</time></trkpt><trkpt lat="40.745638341966654" lon="14.903815672651714"><ele>444.0</ele><time>2026-04-25T11:05:06Z</time></trkpt><trkpt lat="40.74556296259277" lon="14.903822996653888"><ele>442.33333333333337</ele><time>2026-04-25T11:05:07Z</time></trkpt><trkpt lat="40.745481129133246" lon="14.903836487097978"><ele>440.6666666666667</ele><time>2026-04-25T11:05:08Z</time></trkpt><trkpt lat="40.74537368289603" lon="14.903822764569533"><ele>439.0</ele><time>2026-04-25T11:05:10Z</time></trkpt><trkpt lat="40.7452926539744" lon="14.90380369007999"><ele>439.00000000000006</ele><time>2026-04-25T11:05:12.999Z</time></trkpt><trkpt lat="40.74533615440228" lon="14.90372628300946"><ele>439.0</ele><time>2026-04-25T11:05:16.999Z</time></trkpt><trkpt lat="40.745409561337304" lon="14.903758709243338"><ele>439.0</ele><time>2026-04-25T11:05:17.999Z</time></trkpt><trkpt lat="40.74548413076059" lon="14.903656836792177"><ele>439.0</ele><time>2026-04-25T11:05:19.999Z</time></trkpt><trkpt lat="40.74556411108687" lon="14.90356837261282"><ele>439.00000000000006</ele><time>2026-04-25T11:05:21.999Z</time></trkpt><trkpt lat="40.74561664954346" lon="14.90349659639697"><ele>439.0</ele><time>2026-04-25T11:05:24.999Z</time></trkpt><trkpt lat="40.74557503034838" lon="14.90339766633989"><ele>437.2</ele><time>2026-04-25T11:05:25.999Z</time></trkpt><trkpt lat="40.74554014823745" lon="14.903306822079799"><ele>435.4</ele><time>2026-04-25T11:05:26.999Z</time></trkpt><trkpt lat="40.74551633944928" lon="14.903229734474584"><ele>433.6</ele><time>2026-04-25T11:05:27.999Z</time></trkpt><trkpt lat="40.74536720675114" lon="14.9031839457076"><ele>431.8</ele><time>2026-04-25T11:05:29.999Z</time></trkpt><trkpt lat="40.7453120387202" lon="14.903129196641181"><ele>430.0</ele><time>2026-04-25T11:05:31.999Z</time></trkpt><trkpt lat="40.74531270436739" lon="14.90301156106947"><ele>430.00000000000006</ele><time>2026-04-25T11:05:33.999Z</time></trkpt><trkpt lat="40.74529092988928" lon="14.90292195912658"><ele>430.0</ele><time>2026-04-25T11:05:36.999Z</time></trkpt><trkpt lat="40.74516020461632" lon="14.902902646350498"><ele>430.0</ele><time>2026-04-25T11:05:38.999Z</time></trkpt><trkpt lat="40.74508407991208" lon="14.90288296296424"><ele>430.0</ele><time>2026-04-25T11:05:41.999Z</time></trkpt><trkpt lat="40.74504357329821" lon="14.902804871424477"><ele>430.00000000000006</ele><time>2026-04-25T11:05:45.999Z</time></trkpt><trkpt lat="40.745023413582174" lon="14.902699891338996"><ele>430.0</ele><time>2026-04-25T11:07:00Z</time></trkpt><trkpt lat="40.74503259684218" lon="14.902919441851404"><ele>425.0</ele><time>2026-04-25T11:07:05.038Z</time></trkpt><trkpt lat="40.744692380282636" lon="14.902957094776797"><ele>420.0</ele><time>2026-04-25T11:07:07.035Z</time></trkpt><trkpt lat="40.74479954755047" lon="14.902916612926036"><ele>420.0</ele><time>2026-04-25T11:07:15.036Z</time></trkpt><trkpt lat="40.744860634514616" lon="14.902854906154149"><ele>420.0</ele><time>2026-04-25T11:07:20.038Z</time></trkpt><trkpt lat="40.74491819408611" lon="14.90279329224417"><ele>420.0</ele><time>2026-04-25T11:07:28.032Z</time></trkpt><trkpt lat="40.74498133785463" lon="14.902769424207692"><ele>420.0</ele><time>2026-04-25T11:07:30.033Z</time></trkpt><trkpt lat="40.744918160208876" lon="14.902831732136354"><ele>420.0</ele><time>2026-04-25T11:08:26.018Z</time></trkpt><trkpt lat="40.74491672228115" lon="14.902744031428979"><ele>420.0</ele><time>2026-04-25T11:08:31.999Z</time></trkpt><trkpt lat="40.744989439171334" lon="14.902686325576548"><ele>420.0</ele><time>2026-04-25T11:08:36Z</time></trkpt><trkpt lat="40.745047077670215" lon="14.902638034882266"><ele>420.0</ele><time>2026-04-25T11:08:39Z</time></trkpt><trkpt lat="40.74498145312644" lon="14.902621384757746"><ele>420.0</ele><time>2026-04-25T11:08:44Z</time></trkpt><trkpt lat="40.74496687763031" lon="14.902840670036108"><ele>420.0</ele><time>2026-04-25T11:08:48Z</time></trkpt><trkpt lat="40.745017813891664" lon="14.902787068361993"><ele>420.0</ele><time>2026-04-25T11:23:57Z</time></trkpt><trkpt lat="40.74495461091895" lon="14.902774281332364"><ele>420.0</ele><time>2026-04-25T11:24:03Z</time></trkpt><trkpt lat="40.74487034740236" lon="14.902752679356146"><ele>420.0</ele><time>2026-04-25T11:24:05Z</time></trkpt><trkpt lat="40.7448042251903" lon="14.902679349345968"><ele>421.2</ele><time>2026-04-25T11:24:06Z</time></trkpt><trkpt lat="40.74471484445624" lon="14.902576356385312"><ele>422.4</ele><time>2026-04-25T11:24:07Z</time></trkpt><trkpt lat="40.744620666213855" lon="14.902484748633986"><ele>423.6</ele><time>2026-04-25T11:24:08Z</time></trkpt><trkpt lat="40.7445524962096" lon="14.902392174413235"><ele>424.8</ele><time>2026-04-25T11:24:09Z</time></trkpt><trkpt lat="40.74447235464987" lon="14.902364374247755"><ele>426.0</ele><time>2026-04-25T11:24:10Z</time></trkpt><trkpt lat="40.74439666775618" lon="14.90235960032755"><ele>423.4</ele><time>2026-04-25T11:24:11Z</time></trkpt><trkpt lat="40.744298666540644" lon="14.90238613837137"><ele>420.8</ele><time>2026-04-25T11:24:12Z</time></trkpt><trkpt lat="40.74421036413104" lon="14.902404282350698"><ele>418.2</ele><time>2026-04-25T11:24:13Z</time></trkpt><trkpt lat="40.74411869013472" lon="14.9023967488268"><ele>415.59999999999997</ele><time>2026-04-25T11:24:14Z</time></trkpt><trkpt lat="40.74401180114049" lon="14.902366634172802"><ele>413.0</ele><time>2026-04-25T11:24:15Z</time></trkpt><trkpt lat="40.74390740114778" lon="14.90235520461279"><ele>413.0</ele><time>2026-04-25T11:24:16Z</time></trkpt><trkpt lat="40.7437901712331" lon="14.902380677807347"><ele>413.0</ele><time>2026-04-25T11:24:17Z</time></trkpt><trkpt lat="40.74367666680024" lon="14.902429990116358"><ele>413.0</ele><time>2026-04-25T11:24:18Z</time></trkpt><trkpt lat="40.74356242628703" lon="14.902497364622278"><ele>413.0</ele><time>2026-04-25T11:24:19Z</time></trkpt><trkpt lat="40.74345446250039" lon="14.902563215286946"><ele>410.66666666666663</ele><time>2026-04-25T11:24:20Z</time></trkpt><trkpt lat="40.74335829110766" lon="14.902607521176172"><ele>408.3333333333333</ele><time>2026-04-25T11:24:21Z</time></trkpt><trkpt lat="40.743279869734785" lon="14.902641715310612"><ele>406.0</ele><time>2026-04-25T11:24:22Z</time></trkpt><trkpt lat="40.74321545138459" lon="14.902663524607439"><ele>403.66666666666663</ele><time>2026-04-25T11:24:23Z</time></trkpt><trkpt lat="40.743122455065965" lon="14.902698994222119"><ele>401.3333333333333</ele><time>2026-04-25T11:24:24.999Z</time></trkpt><trkpt lat="40.743132615817366" lon="14.902810691642356"><ele>399.0</ele><time>2026-04-25T11:24:26.999Z</time></trkpt><trkpt lat="40.743247729896574" lon="14.902774662266602"><ele>399.0</ele><time>2026-04-25T11:24:27.999Z</time></trkpt><trkpt lat="40.743346745979146" lon="14.902806639745913"><ele>399.0</ele><time>2026-04-25T11:24:29.999Z</time></trkpt><trkpt lat="40.74337402672203" lon="14.902883227263324"><ele>399.0</ele><time>2026-04-25T11:24:30.999Z</time></trkpt><trkpt lat="40.74335962118619" lon="14.9030154444977"><ele>399.0</ele><time>2026-04-25T11:24:31.999Z</time></trkpt><trkpt lat="40.74336256397703" lon="14.903146589286886"><ele>399.0</ele><time>2026-04-25T11:24:32.999Z</time></trkpt><trkpt lat="40.74334429863049" lon="14.903248858962977"><ele>399.0</ele><time>2026-04-25T11:24:33.999Z</time></trkpt><trkpt lat="40.743283781814185" lon="14.903361516617997"><ele>399.0</ele><time>2026-04-25T11:24:35.999Z</time></trkpt><trkpt lat="40.74320959253709" lon="14.903368334567068"><ele>399.0</ele><time>2026-04-25T11:24:36.999Z</time></trkpt><trkpt lat="40.74310571522977" lon="14.903329508310204"><ele>399.0</ele><time>2026-04-25T11:24:37.999Z</time></trkpt><trkpt lat="40.74298678107136" lon="14.903266139723929"><ele>399.0</ele><time>2026-04-25T11:24:38.999Z</time></trkpt><trkpt lat="40.74287819001861" lon="14.903220072505619"><ele>399.0</ele><time>2026-04-25T11:24:39.999Z</time></trkpt><trkpt lat="40.742778544904425" lon="14.903209557902258"><ele>400.75</ele><time>2026-04-25T11:24:40.999Z</time></trkpt><trkpt lat="40.74268476202145" lon="14.903231465689307"><ele>402.5</ele><time>2026-04-25T11:24:41.999Z</time></trkpt><trkpt lat="40.74258940817032" lon="14.903298615972204"><ele>404.25</ele><time>2026-04-25T11:24:42.999Z</time></trkpt><trkpt lat="40.742480853076295" lon="14.903416750255113"><ele>406.0</ele><time>2026-04-25T11:24:43.999Z</time></trkpt><trkpt lat="40.74237034680386" lon="14.903530760859015"><ele>406.0</ele><time>2026-04-25T11:24:44.999Z</time></trkpt><trkpt lat="40.74224642765489" lon="14.903636453630355"><ele>406.0</ele><time>2026-04-25T11:24:45.999Z</time></trkpt><trkpt lat="40.74212239886869" lon="14.903720874767878"><ele>406.0</ele><time>2026-04-25T11:24:46.999Z</time></trkpt><trkpt lat="40.74201387314708" lon="14.9038065875016"><ele>406.0</ele><time>2026-04-25T11:24:47.999Z</time></trkpt><trkpt lat="40.74190544018091" lon="14.903889838826847"><ele>402.20000000000005</ele><time>2026-04-25T11:24:48.999Z</time></trkpt><trkpt lat="40.741791833159766" lon="14.903953128827574"><ele>398.40000000000003</ele><time>2026-04-25T11:24:49.999Z</time></trkpt><trkpt lat="40.74170688777276" lon="14.904041065032153"><ele>394.6</ele><time>2026-04-25T11:24:50.999Z</time></trkpt><trkpt lat="40.741609587863664" lon="14.904097182945778"><ele>390.8</ele><time>2026-04-25T11:24:51.999Z</time></trkpt><trkpt lat="40.74149921109303" lon="14.90408879210621"><ele>387.0</ele><time>2026-04-25T11:24:52.999Z</time></trkpt><trkpt lat="40.741387265392575" lon="14.904045895256118"><ele>387.0</ele><time>2026-04-25T11:24:53.999Z</time></trkpt><trkpt lat="40.741269876442416" lon="14.904044527562753"><ele>387.0</ele><time>2026-04-25T11:24:54.999Z</time></trkpt><trkpt lat="40.74115401574413" lon="14.904051800414724"><ele>387.0</ele><time>2026-04-25T11:24:55.999Z</time></trkpt><trkpt lat="40.74104291182971" lon="14.904108411418859"><ele>387.0</ele><time>2026-04-25T11:24:56.999Z</time></trkpt><trkpt lat="40.74094625540017" lon="14.904150990678357"><ele>384.20000000000005</ele><time>2026-04-25T11:24:57.999Z</time></trkpt><trkpt lat="40.740863438805775" lon="14.90417652287673"><ele>381.4</ele><time>2026-04-25T11:24:58.999Z</time></trkpt><trkpt lat="40.74079903309848" lon="14.904208735368957"><ele>378.6</ele><time>2026-04-25T11:24:59.999Z</time></trkpt><trkpt lat="40.74074825303651" lon="14.904348088403554"><ele>375.79999999999995</ele><time>2026-04-25T11:25:01.999Z</time></trkpt><trkpt lat="40.740798216096884" lon="14.904477933495784"><ele>373.0</ele><time>2026-04-25T11:25:02.999Z</time></trkpt><trkpt lat="40.740827211491805" lon="14.904582546658233"><ele>373.0</ele><time>2026-04-25T11:25:03.999Z</time></trkpt><trkpt lat="40.74083267287877" lon="14.904666260770274"><ele>373.0</ele><time>2026-04-25T11:25:04.999Z</time></trkpt><trkpt lat="40.74076846322615" lon="14.904752754226687"><ele>373.0</ele><time>2026-04-25T11:25:05.999Z</time></trkpt><trkpt lat="40.74071999995215" lon="14.904853996972577"><ele>373.0</ele><time>2026-04-25T11:25:06.999Z</time></trkpt><trkpt lat="40.74065095057917" lon="14.904897679677559"><ele>373.0</ele><time>2026-04-25T11:25:07.999Z</time></trkpt><trkpt lat="40.740567354915804" lon="14.904900224337547"><ele>373.0</ele><time>2026-04-25T11:25:08.999Z</time></trkpt><trkpt lat="40.740480408852456" lon="14.904865358380155"><ele>373.0</ele><time>2026-04-25T11:25:09.999Z</time></trkpt><trkpt lat="40.74040265520211" lon="14.904777808106928"><ele>373.0</ele><time>2026-04-25T11:25:10.999Z</time></trkpt><trkpt lat="40.74032354469825" lon="14.904686590262905"><ele>373.0</ele><time>2026-04-25T11:25:11.999Z</time></trkpt><trkpt lat="40.740235807191226" lon="14.904627674236684"><ele>373.0</ele><time>2026-04-25T11:25:12.999Z</time></trkpt><trkpt lat="40.74016060660285" lon="14.904558497953577"><ele>373.0</ele><time>2026-04-25T11:25:13.999Z</time></trkpt><trkpt lat="40.740092502606615" lon="14.904502561563167"><ele>373.2</ele><time>2026-04-25T11:25:14.999Z</time></trkpt><trkpt lat="40.74003086472701" lon="14.904445952849107"><ele>373.4</ele><time>2026-04-25T11:25:15.999Z</time></trkpt><trkpt lat="40.73998158046523" lon="14.904377101779858"><ele>373.59999999999997</ele><time>2026-04-25T11:25:16.999Z</time></trkpt><trkpt lat="40.739911004025494" lon="14.904341611518907"><ele>373.79999999999995</ele><time>2026-04-25T11:25:17.999Z</time></trkpt><trkpt lat="40.73984321510228" lon="14.904292531568522"><ele>374.0</ele><time>2026-04-25T11:25:28Z</time></trkpt><trkpt lat="40.739760670075086" lon="14.904512944914103"><ele>374.0</ele><time>2026-04-25T11:25:29Z</time></trkpt><trkpt lat="40.73971488021556" lon="14.90460494454076"><ele>374.0</ele><time>2026-04-25T11:25:30Z</time></trkpt><trkpt lat="40.73967859512874" lon="14.904680297410833"><ele>374.0</ele><time>2026-04-25T11:25:31Z</time></trkpt><trkpt lat="40.739639578175094" lon="14.904759847540117"><ele>374.0</ele><time>2026-04-25T11:25:32Z</time></trkpt><trkpt lat="40.739601153269916" lon="14.904838190555255"><ele>374.0</ele><time>2026-04-25T11:25:33Z</time></trkpt><trkpt lat="40.73956740302662" lon="14.904920263581431"><ele>374.0</ele><time>2026-04-25T11:25:34Z</time></trkpt><trkpt lat="40.7394941563399" lon="14.904982068377622"><ele>374.0</ele><time>2026-04-25T11:25:35Z</time></trkpt><trkpt lat="40.73942782535053" lon="14.905024968356052"><ele>374.0</ele><time>2026-04-25T11:25:36Z</time></trkpt><trkpt lat="40.73936336619458" lon="14.905065464524725"><ele>374.0</ele><time>2026-04-25T11:25:37Z</time></trkpt><trkpt lat="40.7392979555012" lon="14.905109979924442"><ele>374.0</ele><time>2026-04-25T11:25:38Z</time></trkpt><trkpt lat="40.73922552656192" lon="14.905155853138961"><ele>374.0</ele><time>2026-04-25T11:25:39Z</time></trkpt><trkpt lat="40.73914235503906" lon="14.90518985281408"><ele>374.0</ele><time>2026-04-25T11:25:40Z</time></trkpt><trkpt lat="40.73903487785717" lon="14.905219917609719"><ele>377.75</ele><time>2026-04-25T11:25:41Z</time></trkpt><trkpt lat="40.73892740897335" lon="14.905252342330902"><ele>381.5</ele><time>2026-04-25T11:25:42Z</time></trkpt><trkpt lat="40.738818800019395" lon="14.905271271641158"><ele>385.25</ele><time>2026-04-25T11:25:43Z</time></trkpt><trkpt lat="40.73869268544149" lon="14.90527654474973"><ele>389.0</ele><time>2026-04-25T11:25:44Z</time></trkpt><trkpt lat="40.73854916876457" lon="14.905278621801704"><ele>389.0</ele><time>2026-04-25T11:25:45Z</time></trkpt><trkpt lat="40.738396089252106" lon="14.905308536294346"><ele>389.0</ele><time>2026-04-25T11:25:46Z</time></trkpt><trkpt lat="40.73826130026231" lon="14.905357360492523"><ele>389.0</ele><time>2026-04-25T11:25:47Z</time></trkpt><trkpt lat="40.738146900602466" lon="14.905398963502554"><ele>389.0</ele><time>2026-04-25T11:25:48Z</time></trkpt><trkpt lat="40.738039803406004" lon="14.905435916368544"><ele>389.0</ele><time>2026-04-25T11:25:49Z</time></trkpt><trkpt lat="40.73793060159244" lon="14.90548574490384"><ele>389.0</ele><time>2026-04-25T11:25:50Z</time></trkpt><trkpt lat="40.73782008608571" lon="14.905547891910881"><ele>389.0</ele><time>2026-04-25T11:25:51Z</time></trkpt><trkpt lat="40.73771723680413" lon="14.905610959390522"><ele>389.0</ele><time>2026-04-25T11:25:52Z</time></trkpt><trkpt lat="40.73758352379621" lon="14.90566676110246"><ele>386.25</ele><time>2026-04-25T11:25:53Z</time></trkpt><trkpt lat="40.73746021692214" lon="14.905708724351234"><ele>383.5</ele><time>2026-04-25T11:25:54Z</time></trkpt><trkpt lat="40.73734531580608" lon="14.905727595114309"><ele>380.75</ele><time>2026-04-25T11:25:55Z</time></trkpt><trkpt lat="40.737214024683844" lon="14.905744525785366"><ele>378.0</ele><time>2026-04-25T11:25:56Z</time></trkpt><trkpt lat="40.73707500567878" lon="14.905753551567669"><ele>378.0</ele><time>2026-04-25T11:25:57Z</time></trkpt><trkpt lat="40.73693586580662" lon="14.905754654415949"><ele>378.0</ele><time>2026-04-25T11:25:58Z</time></trkpt><trkpt lat="40.736795527090386" lon="14.905756521674656"><ele>378.0</ele><time>2026-04-25T11:25:59Z</time></trkpt><trkpt lat="40.736659320558644" lon="14.905762984794203"><ele>378.0</ele><time>2026-04-25T11:26:00Z</time></trkpt><trkpt lat="40.73654024223931" lon="14.905773012853464"><ele>376.4</ele><time>2026-04-25T11:26:01Z</time></trkpt><trkpt lat="40.73643495895247" lon="14.905781879176955"><ele>374.79999999999995</ele><time>2026-04-25T11:26:02Z</time></trkpt><trkpt lat="40.73633912812087" lon="14.905787188783382"><ele>373.2</ele><time>2026-04-25T11:26:03Z</time></trkpt><trkpt lat="40.73623837209916" lon="14.905804595819555"><ele>371.6</ele><time>2026-04-25T11:26:04Z</time></trkpt><trkpt lat="40.73613669867405" lon="14.905802465042695"><ele>370.0</ele><time>2026-04-25T11:26:05Z</time></trkpt><trkpt lat="40.73602518659387" lon="14.905813982850663"><ele>368.5</ele><time>2026-04-25T11:26:06Z</time></trkpt><trkpt lat="40.735899822611486" lon="14.905799557230273"><ele>367.0</ele><time>2026-04-25T11:26:07Z</time></trkpt><trkpt lat="40.73579540358893" lon="14.905796939173298"><ele>365.5</ele><time>2026-04-25T11:26:08Z</time></trkpt><trkpt lat="40.735703023115505" lon="14.90579462294912"><ele>364.0</ele><time>2026-04-25T11:26:09Z</time></trkpt><trkpt lat="40.73561138425848" lon="14.905935555314914"><ele>368.0</ele><time>2026-04-25T11:26:10Z</time></trkpt><trkpt lat="40.73552458635996" lon="14.905979325677567"><ele>372.0</ele><time>2026-04-25T11:26:11Z</time></trkpt><trkpt lat="40.735446134340144" lon="14.906073662054524"><ele>376.0</ele><time>2026-04-25T11:26:12Z</time></trkpt><trkpt lat="40.735393542675425" lon="14.906191085985224"><ele>380.0</ele><time>2026-04-25T11:26:13Z</time></trkpt><trkpt lat="40.735350379537195" lon="14.906303080705488"><ele>384.0</ele><time>2026-04-25T11:26:14Z</time></trkpt><trkpt lat="40.735301695764136" lon="14.906406828305286"><ele>384.0</ele><time>2026-04-25T11:26:15Z</time></trkpt><trkpt lat="40.73525676920091" lon="14.906516543129918"><ele>384.0</ele><time>2026-04-25T11:26:16Z</time></trkpt><trkpt lat="40.73522891960547" lon="14.90663639757029"><ele>384.0</ele><time>2026-04-25T11:26:17Z</time></trkpt><trkpt lat="40.735222754024775" lon="14.906771307173287"><ele>384.0</ele><time>2026-04-25T11:26:18Z</time></trkpt><trkpt lat="40.735228482116035" lon="14.906911248854293"><ele>384.0</ele><time>2026-04-25T11:26:19Z</time></trkpt><trkpt lat="40.73524086028964" lon="14.907040214077165"><ele>382.6</ele><time>2026-04-25T11:26:19.999Z</time></trkpt><trkpt lat="40.735260327564085" lon="14.907165859741722"><ele>381.2</ele><time>2026-04-25T11:26:20.999Z</time></trkpt><trkpt lat="40.73529579079244" lon="14.90727838203294"><ele>379.8</ele><time>2026-04-25T11:26:21.999Z</time></trkpt><trkpt lat="40.735333855347605" lon="14.907396434758013"><ele>378.40000000000003</ele><time>2026-04-25T11:26:22.999Z</time></trkpt><trkpt lat="40.73538772969984" lon="14.907492073885223"><ele>377.0</ele><time>2026-04-25T11:26:23.999Z</time></trkpt><trkpt lat="40.73544933628971" lon="14.907577190209715"><ele>374.0</ele><time>2026-04-25T11:26:24.999Z</time></trkpt><trkpt lat="40.735499508331294" lon="14.907659155068329"><ele>371.0</ele><time>2026-04-25T11:26:25.999Z</time></trkpt><trkpt lat="40.735542543508714" lon="14.907748440146475"><ele>368.0</ele><time>2026-04-25T11:26:26.999Z</time></trkpt><trkpt lat="40.73558631987212" lon="14.90784368367152"><ele>365.0</ele><time>2026-04-25T11:26:27.999Z</time></trkpt><trkpt lat="40.735626245212046" lon="14.907936595747604"><ele>362.0</ele><time>2026-04-25T11:26:28.999Z</time></trkpt><trkpt lat="40.73565718636294" lon="14.908011313953077"><ele>359.0</ele><time>2026-04-25T11:26:29.999Z</time></trkpt><trkpt lat="40.73566078945362" lon="14.908120820032096"><ele>359.0</ele><time>2026-04-25T11:26:31.999Z</time></trkpt><trkpt lat="40.73557258167206" lon="14.908218899687006"><ele>359.0</ele><time>2026-04-25T11:26:34.999Z</time></trkpt><trkpt lat="40.73550564223282" lon="14.908285295476311"><ele>359.0</ele><time>2026-04-25T11:26:35.999Z</time></trkpt><trkpt lat="40.73543523833759" lon="14.908347609750528"><ele>359.0</ele><time>2026-04-25T11:26:36.999Z</time></trkpt><trkpt lat="40.73536719355512" lon="14.908406151096829"><ele>359.0</ele><time>2026-04-25T11:26:37.999Z</time></trkpt><trkpt lat="40.735280558952375" lon="14.908461363635979"><ele>359.2</ele><time>2026-04-25T11:26:38.999Z</time></trkpt><trkpt lat="40.73518416481691" lon="14.908510575690094"><ele>359.4</ele><time>2026-04-25T11:26:39.999Z</time></trkpt><trkpt lat="40.73508032161606" lon="14.908569906675705"><ele>359.6</ele><time>2026-04-25T11:26:40.999Z</time></trkpt><trkpt lat="40.73498772326545" lon="14.908613865632669"><ele>359.8</ele><time>2026-04-25T11:26:41.999Z</time></trkpt><trkpt lat="40.734899758476985" lon="14.908634196211873"><ele>360.0</ele><time>2026-04-25T11:26:42.999Z</time></trkpt><trkpt lat="40.73482803110567" lon="14.90863230001266"><ele>360.0</ele><time>2026-04-25T11:26:43.999Z</time></trkpt><trkpt lat="40.73475398620574" lon="14.908550130303682"><ele>360.0</ele><time>2026-04-25T11:26:45.999Z</time></trkpt><trkpt lat="40.73470465654485" lon="14.90846095086267"><ele>360.0</ele><time>2026-04-25T11:26:46.999Z</time></trkpt><trkpt lat="40.734633167449054" lon="14.908349535746602"><ele>360.0</ele><time>2026-04-25T11:26:47.999Z</time></trkpt><trkpt lat="40.73455150945189" lon="14.908265085780245"><ele>360.0</ele><time>2026-04-25T11:26:48.999Z</time></trkpt><trkpt lat="40.73446537387432" lon="14.90822471032846"><ele>362.0</ele><time>2026-04-25T11:26:49.999Z</time></trkpt><trkpt lat="40.73436324749491" lon="14.908202042324094"><ele>364.0</ele><time>2026-04-25T11:26:50.999Z</time></trkpt><trkpt lat="40.73427170058356" lon="14.908168675087238"><ele>366.0</ele><time>2026-04-25T11:26:51.999Z</time></trkpt><trkpt lat="40.73419608253541" lon="14.908127977988514"><ele>368.0</ele><time>2026-04-25T11:26:52.999Z</time></trkpt><trkpt lat="40.734121197690015" lon="14.908089931349693"><ele>370.0</ele><time>2026-04-25T11:26:53.999Z</time></trkpt><trkpt lat="40.73405278392473" lon="14.908048361707035"><ele>372.0</ele><time>2026-04-25T11:26:54.999Z</time></trkpt><trkpt lat="40.73399201226414" lon="14.908002917930897"><ele>372.0</ele><time>2026-04-25T11:26:55.999Z</time></trkpt><trkpt lat="40.73391770786193" lon="14.907954701126934"><ele>372.0</ele><time>2026-04-25T11:26:56.999Z</time></trkpt><trkpt lat="40.73385850312649" lon="14.907891861506444"><ele>372.0</ele><time>2026-04-25T11:26:57.999Z</time></trkpt><trkpt lat="40.73379909334049" lon="14.907830585357473"><ele>372.0</ele><time>2026-04-25T11:26:58.999Z</time></trkpt><trkpt lat="40.73372961018614" lon="14.907783362558305"><ele>372.0</ele><time>2026-04-25T11:26:59.999Z</time></trkpt><trkpt lat="40.73364390665849" lon="14.907753464739285"><ele>372.0</ele><time>2026-04-25T11:27:00.999Z</time></trkpt><trkpt lat="40.73356772599275" lon="14.907715535284414"><ele>373.0</ele><time>2026-04-25T11:27:01.999Z</time></trkpt><trkpt lat="40.73351378471026" lon="14.907654143172369"><ele>374.0</ele><time>2026-04-25T11:27:02.999Z</time></trkpt><trkpt lat="40.73346138164487" lon="14.907549363233938"><ele>375.0</ele><time>2026-04-25T11:27:03.999Z</time></trkpt><trkpt lat="40.73341376660266" lon="14.9074223122391"><ele>376.0</ele><time>2026-04-25T11:27:04.999Z</time></trkpt><trkpt lat="40.73337174132498" lon="14.907332750675202"><ele>377.0</ele><time>2026-04-25T11:27:05.999Z</time></trkpt><trkpt lat="40.733346300716654" lon="14.907253174217361"><ele>378.0</ele><time>2026-04-25T11:27:06.999Z</time></trkpt><trkpt lat="40.73336490516569" lon="14.907122985703941"><ele>378.0</ele><time>2026-04-25T11:27:08.999Z</time></trkpt><trkpt lat="40.73347490192212" lon="14.90697538173146"><ele>378.0</ele><time>2026-04-25T11:27:10.999Z</time></trkpt><trkpt lat="40.73350681635437" lon="14.906888570918962"><ele>378.0</ele><time>2026-04-25T11:27:11.999Z</time></trkpt><trkpt lat="40.73346985711102" lon="14.906753584952797"><ele>378.0</ele><time>2026-04-25T11:27:13.999Z</time></trkpt><trkpt lat="40.73340859866079" lon="14.906629609628743"><ele>377.0</ele><time>2026-04-25T11:27:14.999Z</time></trkpt><trkpt lat="40.733360817570606" lon="14.906502365062526"><ele>376.0</ele><time>2026-04-25T11:27:15.999Z</time></trkpt><trkpt lat="40.73332611697048" lon="14.90639609629905"><ele>375.0</ele><time>2026-04-25T11:27:16.999Z</time></trkpt><trkpt lat="40.733288692621" lon="14.906267233957097"><ele>374.0</ele><time>2026-04-25T11:27:17.999Z</time></trkpt><trkpt lat="40.733259351463936" lon="14.906153978650396"><ele>373.0</ele><time>2026-04-25T11:27:18.999Z</time></trkpt><trkpt lat="40.733212582513104" lon="14.906062752078316"><ele>373.0</ele><time>2026-04-25T11:27:19.999Z</time></trkpt><trkpt lat="40.733156552976354" lon="14.905977700207586"><ele>373.0</ele><time>2026-04-25T11:27:20.999Z</time></trkpt><trkpt lat="40.7331116976543" lon="14.905856869273235"><ele>373.0</ele><time>2026-04-25T11:27:21.999Z</time></trkpt><trkpt lat="40.73304857684729" lon="14.905731431257927"><ele>373.0</ele><time>2026-04-25T11:27:22.999Z</time></trkpt><trkpt lat="40.73298853781824" lon="14.90563503155914"><ele>373.0</ele><time>2026-04-25T11:27:23.999Z</time></trkpt><trkpt lat="40.73293143796356" lon="14.905544671571331"><ele>371.2</ele><time>2026-04-25T11:27:24.999Z</time></trkpt><trkpt lat="40.732878901726" lon="14.905466602624822"><ele>369.4</ele><time>2026-04-25T11:27:26Z</time></trkpt><trkpt lat="40.73280959097387" lon="14.905401920883948"><ele>367.59999999999997</ele><time>2026-04-25T11:27:27Z</time></trkpt><trkpt lat="40.732727067845566" lon="14.905333763377138"><ele>365.79999999999995</ele><time>2026-04-25T11:27:28Z</time></trkpt><trkpt lat="40.73264209376583" lon="14.905262718620321"><ele>364.0</ele><time>2026-04-25T11:27:29Z</time></trkpt><trkpt lat="40.73255719580541" lon="14.905209794374967"><ele>365.0</ele><time>2026-04-25T11:27:30Z</time></trkpt><trkpt lat="40.7324698949535" lon="14.905154698798867"><ele>366.0</ele><time>2026-04-25T11:27:31Z</time></trkpt><trkpt lat="40.732387432731514" lon="14.905096618845416"><ele>367.0</ele><time>2026-04-25T11:27:32Z</time></trkpt><trkpt lat="40.732310914125804" lon="14.905048675010413"><ele>368.0</ele><time>2026-04-25T11:27:33Z</time></trkpt><trkpt lat="40.732214083605584" lon="14.905023125060339"><ele>369.0</ele><time>2026-04-25T11:27:34Z</time></trkpt><trkpt lat="40.732141278646885" lon="14.905012134044727"><ele>370.0</ele><time>2026-04-25T11:27:35Z</time></trkpt><trkpt lat="40.732078050295044" lon="14.905027824660579"><ele>370.0</ele><time>2026-04-25T11:27:36Z</time></trkpt><trkpt lat="40.7320099774741" lon="14.905078868136737"><ele>370.0</ele><time>2026-04-25T11:27:37Z</time></trkpt><trkpt lat="40.73192680578262" lon="14.905151394566364"><ele>370.0</ele><time>2026-04-25T11:27:38Z</time></trkpt><trkpt lat="40.73183983694157" lon="14.90524645441331"><ele>370.0</ele><time>2026-04-25T11:27:39Z</time></trkpt><trkpt lat="40.731753820705755" lon="14.905337734879536"><ele>370.0</ele><time>2026-04-25T11:27:40Z</time></trkpt><trkpt lat="40.73166491025975" lon="14.905393577692953"><ele>374.66666666666663</ele><time>2026-04-25T11:27:41Z</time></trkpt><trkpt lat="40.731581674100944" lon="14.905451408407101"><ele>379.3333333333333</ele><time>2026-04-25T11:27:42Z</time></trkpt><trkpt lat="40.73150320755869" lon="14.90548258372907"><ele>384.0</ele><time>2026-04-25T11:27:43Z</time></trkpt><trkpt lat="40.73141234579687" lon="14.905507659967698"><ele>388.66666666666663</ele><time>2026-04-25T11:27:44Z</time></trkpt><trkpt lat="40.731318477096046" lon="14.905524090707619"><ele>393.3333333333333</ele><time>2026-04-25T11:27:45Z</time></trkpt><trkpt lat="40.731241297188696" lon="14.905545903042077"><ele>398.0</ele><time>2026-04-25T11:27:46Z</time></trkpt><trkpt lat="40.73112858187782" lon="14.905653202406986"><ele>398.0</ele><time>2026-04-25T11:27:48Z</time></trkpt><trkpt lat="40.73105776646923" lon="14.90574156135647"><ele>398.0</ele><time>2026-04-25T11:27:49Z</time></trkpt><trkpt lat="40.730957918095925" lon="14.905828602579502"><ele>398.0</ele><time>2026-04-25T11:27:50Z</time></trkpt><trkpt lat="40.730847704302704" lon="14.905898357457884"><ele>398.0</ele><time>2026-04-25T11:27:51Z</time></trkpt><trkpt lat="40.73075833362903" lon="14.905950756591386"><ele>398.0</ele><time>2026-04-25T11:27:52Z</time></trkpt><trkpt lat="40.730687631019286" lon="14.905989066625992"><ele>400.2</ele><time>2026-04-25T11:27:53Z</time></trkpt><trkpt lat="40.73061863517915" lon="14.9059953282092"><ele>402.4</ele><time>2026-04-25T11:27:54Z</time></trkpt><trkpt lat="40.73053623314096" lon="14.905958026900494"><ele>404.59999999999997</ele><time>2026-04-25T11:27:55Z</time></trkpt><trkpt lat="40.730439574424366" lon="14.90588112039756"><ele>406.79999999999995</ele><time>2026-04-25T11:27:56Z</time></trkpt><trkpt lat="40.7303418471873" lon="14.90581984689103"><ele>409.0</ele><time>2026-04-25T11:27:57Z</time></trkpt><trkpt lat="40.730256437910214" lon="14.90579998586024"><ele>404.79999999999995</ele><time>2026-04-25T11:27:58Z</time></trkpt><trkpt lat="40.7301776819027" lon="14.90579508627702"><ele>400.59999999999997</ele><time>2026-04-25T11:27:59Z</time></trkpt><trkpt lat="40.730087152716536" lon="14.905817448710012"><ele>396.4</ele><time>2026-04-25T11:28:00Z</time></trkpt><trkpt lat="40.7299876512026" lon="14.90586263838364"><ele>392.2</ele><time>2026-04-25T11:28:01Z</time></trkpt><trkpt lat="40.729868669643245" lon="14.905935842769743"><ele>388.0</ele><time>2026-04-25T11:28:02Z</time></trkpt><trkpt lat="40.72974821516314" lon="14.906006021216012"><ele>388.00000000000006</ele><time>2026-04-25T11:28:03Z</time></trkpt><trkpt lat="40.72965401551413" lon="14.90604749416085"><ele>388.0</ele><time>2026-04-25T11:28:04Z</time></trkpt><trkpt lat="40.7295670000105" lon="14.906063080970357"><ele>388.0</ele><time>2026-04-25T11:28:05Z</time></trkpt><trkpt lat="40.72949963673089" lon="14.906070336309915"><ele>388.0</ele><time>2026-04-25T11:28:06Z</time></trkpt><trkpt lat="40.72943244576379" lon="14.90613830614023"><ele>388.00000000000006</ele><time>2026-04-25T11:28:08Z</time></trkpt><trkpt lat="40.72944231432719" lon="14.906268936277314"><ele>388.0</ele><time>2026-04-25T11:28:10Z</time></trkpt><trkpt lat="40.7294825375564" lon="14.90633313356579"><ele>388.0</ele><time>2026-04-25T11:28:11Z</time></trkpt><trkpt lat="40.729629442601954" lon="14.906534430587772"><ele>388.0</ele><time>2026-04-25T11:28:13Z</time></trkpt><trkpt lat="40.729728860295474" lon="14.906690592628214"><ele>388.0</ele><time>2026-04-25T11:28:14Z</time></trkpt><trkpt lat="40.72980777983839" lon="14.906844984592592"><ele>385.25</ele><time>2026-04-25T11:28:15Z</time></trkpt><trkpt lat="40.72987569197662" lon="14.907021421089352"><ele>382.5</ele><time>2026-04-25T11:28:15.999Z</time></trkpt><trkpt lat="40.72993718127149" lon="14.907173380837692"><ele>379.75</ele><time>2026-04-25T11:28:16.999Z</time></trkpt><trkpt lat="40.729987512539104" lon="14.907313248324304"><ele>377.0</ele><time>2026-04-25T11:28:17.999Z</time></trkpt><trkpt lat="40.73003263227054" lon="14.907461949273257"><ele>375.20000000000005</ele><time>2026-04-25T11:28:18.999Z</time></trkpt><trkpt lat="40.73007646764196" lon="14.907610882242576"><ele>373.4</ele><time>2026-04-25T11:28:19.999Z</time></trkpt><trkpt lat="40.73011642332884" lon="14.907743602712369"><ele>371.6</ele><time>2026-04-25T11:28:20.999Z</time></trkpt><trkpt lat="40.730152506357875" lon="14.907876449644643"><ele>369.79999999999995</ele><time>2026-04-25T11:28:21.999Z</time></trkpt><trkpt lat="40.730176315018824" lon="14.90800560105422"><ele>368.0</ele><time>2026-04-25T11:28:22.999Z</time></trkpt><trkpt lat="40.73020309771049" lon="14.908144912079829"><ele>378.0</ele><time>2026-04-25T11:28:23.999Z</time></trkpt><trkpt lat="40.73022997307336" lon="14.908297977052026"><ele>388.0</ele><time>2026-04-25T11:28:24.999Z</time></trkpt><trkpt lat="40.730259858697785" lon="14.908452167519071"><ele>398.0</ele><time>2026-04-25T11:28:25.999Z</time></trkpt><trkpt lat="40.730287300317535" lon="14.908596945256857"><ele>408.0</ele><time>2026-04-25T11:28:26.999Z</time></trkpt><trkpt lat="40.73030448603342" lon="14.908747901427505"><ele>408.0</ele><time>2026-04-25T11:28:27.999Z</time></trkpt><trkpt lat="40.730309075490304" lon="14.908914481359618"><ele>408.0</ele><time>2026-04-25T11:28:28.999Z</time></trkpt><trkpt lat="40.73031388260963" lon="14.90908540360828"><ele>408.0</ele><time>2026-04-25T11:28:29.999Z</time></trkpt><trkpt lat="40.73031880737293" lon="14.90923173245362"><ele>408.0</ele><time>2026-04-25T11:28:30.999Z</time></trkpt><trkpt lat="40.730325250556554" lon="14.909391477991564"><ele>407.59999999999997</ele><time>2026-04-25T11:28:31.999Z</time></trkpt><trkpt lat="40.73031725656355" lon="14.909522650964442"><ele>407.2</ele><time>2026-04-25T11:28:32.999Z</time></trkpt><trkpt lat="40.73029107778734" lon="14.909671255606757"><ele>406.8</ele><time>2026-04-25T11:28:33.999Z</time></trkpt><trkpt lat="40.730253704894494" lon="14.90981689063601"><ele>406.4</ele><time>2026-04-25T11:28:34.999Z</time></trkpt><trkpt lat="40.730237652178516" lon="14.90994834036215"><ele>406.0</ele><time>2026-04-25T11:28:35.999Z</time></trkpt><trkpt lat="40.73023104545362" lon="14.910063707666326"><ele>404.0</ele><time>2026-04-25T11:28:36.999Z</time></trkpt><trkpt lat="40.730182410127306" lon="14.91017336771332"><ele>402.0</ele><time>2026-04-25T11:28:38.999Z</time></trkpt><trkpt lat="40.73008694164952" lon="14.91012545269272"><ele>400.0</ele><time>2026-04-25T11:28:40.999Z</time></trkpt><trkpt lat="40.73002822880148" lon="14.91003711204856"><ele>398.0</ele><time>2026-04-25T11:28:41.999Z</time></trkpt><trkpt lat="40.72996031128147" lon="14.909945005291299"><ele>396.0</ele><time>2026-04-25T11:28:42.999Z</time></trkpt><trkpt lat="40.729881977963174" lon="14.90988012770471"><ele>392.6</ele><time>2026-04-25T11:28:43.999Z</time></trkpt><trkpt lat="40.72979487288483" lon="14.909819272397973"><ele>389.20000000000005</ele><time>2026-04-25T11:28:44.999Z</time></trkpt><trkpt lat="40.72971140844926" lon="14.909761148544884"><ele>385.79999999999995</ele><time>2026-04-25T11:28:45.999Z</time></trkpt><trkpt lat="40.72962963041485" lon="14.909693571011124"><ele>382.4</ele><time>2026-04-25T11:28:46.999Z</time></trkpt><trkpt lat="40.72954194545845" lon="14.909633808752396"><ele>379.0</ele><time>2026-04-25T11:28:47.999Z</time></trkpt><trkpt lat="40.72945483690322" lon="14.90958349762668"><ele>381.2</ele><time>2026-04-25T11:28:48.999Z</time></trkpt><trkpt lat="40.72937515709368" lon="14.909520727450381"><ele>383.4</ele><time>2026-04-25T11:28:49.999Z</time></trkpt><trkpt lat="40.72929884736091" lon="14.909453091428938"><ele>385.6</ele><time>2026-04-25T11:28:50.999Z</time></trkpt><trkpt lat="40.72922227875322" lon="14.909411663936924"><ele>387.8</ele><time>2026-04-25T11:28:51.999Z</time></trkpt><trkpt lat="40.72911863583267" lon="14.909387064673492"><ele>390.0</ele><time>2026-04-25T11:28:52.999Z</time></trkpt><trkpt lat="40.72900440688943" lon="14.909333958737435"><ele>390.0</ele><time>2026-04-25T11:28:53.999Z</time></trkpt><trkpt lat="40.72887927092352" lon="14.909274615013079"><ele>390.0</ele><time>2026-04-25T11:28:54.999Z</time></trkpt><trkpt lat="40.72877416431477" lon="14.909225229614302"><ele>390.0</ele><time>2026-04-25T11:28:55.999Z</time></trkpt><trkpt lat="40.728712299400726" lon="14.909190229161524"><ele>390.0</ele><time>2026-04-25T11:28:56.999Z</time></trkpt><trkpt lat="40.72863500047602" lon="14.90914864939015"><ele>390.0</ele><time>2026-04-25T11:28:58.999Z</time></trkpt><trkpt lat="40.72857595476605" lon="14.909094002171466"><ele>387.6666666666667</ele><time>2026-04-25T11:29:00.999Z</time></trkpt><trkpt lat="40.728551157749855" lon="14.90901210182814"><ele>385.3333333333333</ele><time>2026-04-25T11:29:02.999Z</time></trkpt><trkpt lat="40.72852441767932" lon="14.908934298496819"><ele>383.0</ele><time>2026-04-25T11:29:03.999Z</time></trkpt><trkpt lat="40.72844107924016" lon="14.908880181773137"><ele>380.66666666666663</ele><time>2026-04-25T11:29:05.999Z</time></trkpt><trkpt lat="40.728377914879516" lon="14.90887407245841"><ele>378.3333333333333</ele><time>2026-04-25T11:29:06.999Z</time></trkpt><trkpt lat="40.72824078312791" lon="14.90891609867045"><ele>376.0</ele><time>2026-04-25T11:29:08.999Z</time></trkpt><trkpt lat="40.72817151067181" lon="14.908962548100762"><ele>376.0</ele><time>2026-04-25T11:29:09.999Z</time></trkpt><trkpt lat="40.72811404151219" lon="14.909037360981612"><ele>376.0</ele><time>2026-04-25T11:29:10.999Z</time></trkpt><trkpt lat="40.72805401443008" lon="14.909133984118743"><ele>376.0</ele><time>2026-04-25T11:29:11.999Z</time></trkpt><trkpt lat="40.72798946578307" lon="14.909235019877903"><ele>376.0</ele><time>2026-04-25T11:29:12.999Z</time></trkpt><trkpt lat="40.727921111622315" lon="14.90932098370078"><ele>376.0</ele><time>2026-04-25T11:29:14.999Z</time></trkpt><trkpt lat="40.72782729537682" lon="14.909305330386498"><ele>376.0</ele><time>2026-04-25T11:29:16.999Z</time></trkpt><trkpt lat="40.72776335244843" lon="14.909238058138017"><ele>376.0</ele><time>2026-04-25T11:29:17.999Z</time></trkpt><trkpt lat="40.72767992857631" lon="14.909131551253408"><ele>376.0</ele><time>2026-04-25T11:29:18.999Z</time></trkpt><trkpt lat="40.7275836795705" lon="14.909012235398828"><ele>376.0</ele><time>2026-04-25T11:29:19.999Z</time></trkpt><trkpt lat="40.7274888887087" lon="14.908913193926345"><ele>375.16666666666663</ele><time>2026-04-25T11:29:20.999Z</time></trkpt><trkpt lat="40.72740664110219" lon="14.908848030702904"><ele>374.3333333333333</ele><time>2026-04-25T11:29:21.999Z</time></trkpt><trkpt lat="40.72732532222408" lon="14.908805972874216"><ele>373.5</ele><time>2026-04-25T11:29:22.999Z</time></trkpt><trkpt lat="40.72724214947144" lon="14.908772710119262"><ele>372.6666666666667</ele><time>2026-04-25T11:29:23.999Z</time></trkpt><trkpt lat="40.72716100082918" lon="14.90875748365212"><ele>371.83333333333337</ele><time>2026-04-25T11:29:24.999Z</time></trkpt><trkpt lat="40.72707389069854" lon="14.908766368077004"><ele>371.0</ele><time>2026-04-25T11:29:25.999Z</time></trkpt><trkpt lat="40.72698347608879" lon="14.908773547064765"><ele>373.0</ele><time>2026-04-25T11:29:26.999Z</time></trkpt><trkpt lat="40.726875394734975" lon="14.908761504973846"><ele>375.0</ele><time>2026-04-25T11:29:28.999Z</time></trkpt><trkpt lat="40.726814362426126" lon="14.908705289727424"><ele>377.0</ele><time>2026-04-25T11:29:29.999Z</time></trkpt><trkpt lat="40.726739031108735" lon="14.908600130235012"><ele>379.0</ele><time>2026-04-25T11:29:30.999Z</time></trkpt><trkpt lat="40.72664798915718" lon="14.908491248811652"><ele>381.0</ele><time>2026-04-25T11:29:32Z</time></trkpt><trkpt lat="40.726567598002" lon="14.908421429082507"><ele>376.3333333333333</ele><time>2026-04-25T11:29:33Z</time></trkpt><trkpt lat="40.72648269803406" lon="14.908358445711825"><ele>371.6666666666667</ele><time>2026-04-25T11:29:34Z</time></trkpt><trkpt lat="40.72640728138458" lon="14.90829350946352"><ele>367.0</ele><time>2026-04-25T11:29:35Z</time></trkpt><trkpt lat="40.726346800282954" lon="14.908220746178275"><ele>362.33333333333337</ele><time>2026-04-25T11:29:36Z</time></trkpt><trkpt lat="40.72628309231355" lon="14.908142527769751"><ele>357.6666666666667</ele><time>2026-04-25T11:29:37Z</time></trkpt><trkpt lat="40.72622147512167" lon="14.908072381380546"><ele>353.0</ele><time>2026-04-25T11:29:38Z</time></trkpt><trkpt lat="40.72614709157125" lon="14.90799726895251"><ele>355.0</ele><time>2026-04-25T11:29:39Z</time></trkpt><trkpt lat="40.726058217688056" lon="14.907893826265235"><ele>357.0</ele><time>2026-04-25T11:29:40Z</time></trkpt><trkpt lat="40.72597388432492" lon="14.90780671459541"><ele>359.0</ele><time>2026-04-25T11:29:41Z</time></trkpt><trkpt lat="40.72590160295855" lon="14.907749516060493"><ele>361.0</ele><time>2026-04-25T11:29:42Z</time></trkpt><trkpt lat="40.72581450554232" lon="14.907713837343136"><ele>363.0</ele><time>2026-04-25T11:29:43Z</time></trkpt><trkpt lat="40.72570328537532" lon="14.907705489066226"><ele>363.0</ele><time>2026-04-25T11:29:44Z</time></trkpt><trkpt lat="40.72557797901678" lon="14.907713002766343"><ele>363.0</ele><time>2026-04-25T11:29:45Z</time></trkpt><trkpt lat="40.72547858736425" lon="14.907729864171536"><ele>363.0</ele><time>2026-04-25T11:29:46Z</time></trkpt><trkpt lat="40.7253890816976" lon="14.907754822214091"><ele>363.0</ele><time>2026-04-25T11:29:47Z</time></trkpt><trkpt lat="40.72530063901442" lon="14.90779202569206"><ele>363.0</ele><time>2026-04-25T11:29:48Z</time></trkpt><trkpt lat="40.7252177598461" lon="14.907825530432785"><ele>362.0</ele><time>2026-04-25T11:29:49Z</time></trkpt><trkpt lat="40.725127603957276" lon="14.907835100247038"><ele>361.0</ele><time>2026-04-25T11:29:50Z</time></trkpt><trkpt lat="40.72505372749628" lon="14.907826697327103"><ele>360.0</ele><time>2026-04-25T11:29:51Z</time></trkpt><trkpt lat="40.724947182216624" lon="14.907745689002791"><ele>359.0</ele><time>2026-04-25T11:29:53Z</time></trkpt><trkpt lat="40.724866449508035" lon="14.907659876605853"><ele>358.0</ele><time>2026-04-25T11:29:54Z</time></trkpt><trkpt lat="40.72477444369516" lon="14.907589671760276"><ele>353.16666666666663</ele><time>2026-04-25T11:29:55Z</time></trkpt><trkpt lat="40.72468618460327" lon="14.907551152379543"><ele>348.3333333333333</ele><time>2026-04-25T11:29:56Z</time></trkpt><trkpt lat="40.724611267312966" lon="14.907516211308641"><ele>343.5</ele><time>2026-04-25T11:29:57Z</time></trkpt><trkpt lat="40.72453372753706" lon="14.907486656387382"><ele>338.6666666666667</ele><time>2026-04-25T11:29:58Z</time></trkpt><trkpt lat="40.724453163346645" lon="14.907448032270581"><ele>333.83333333333337</ele><time>2026-04-25T11:29:59Z</time></trkpt><trkpt lat="40.724365686776856" lon="14.907428130495388"><ele>329.0</ele><time>2026-04-25T11:30:00Z</time></trkpt><trkpt lat="40.72428564791878" lon="14.907435408866974"><ele>327.6666666666667</ele><time>2026-04-25T11:30:01Z</time></trkpt><trkpt lat="40.72421426782223" lon="14.907453782633194"><ele>326.33333333333337</ele><time>2026-04-25T11:30:02Z</time></trkpt><trkpt lat="40.724133994815325" lon="14.907487002581775"><ele>325.0</ele><time>2026-04-25T11:30:03Z</time></trkpt><trkpt lat="40.724038907116494" lon="14.907536655532065"><ele>323.6666666666667</ele><time>2026-04-25T11:30:04Z</time></trkpt><trkpt lat="40.72396333508176" lon="14.907593024333979"><ele>322.3333333333333</ele><time>2026-04-25T11:30:05Z</time></trkpt><trkpt lat="40.723889154451015" lon="14.907640576102294"><ele>321.0</ele><time>2026-04-25T11:30:06Z</time></trkpt><trkpt lat="40.723823747086215" lon="14.907663784055272"><ele>324.6</ele><time>2026-04-25T11:30:07Z</time></trkpt><trkpt lat="40.72374818341773" lon="14.90766163287849"><ele>328.20000000000005</ele><time>2026-04-25T11:30:08Z</time></trkpt><trkpt lat="40.723622086353444" lon="14.907624500295757"><ele>331.79999999999995</ele><time>2026-04-25T11:30:09Z</time></trkpt><trkpt lat="40.72348505704887" lon="14.90760124827254"><ele>335.4</ele><time>2026-04-25T11:30:10Z</time></trkpt><trkpt lat="40.72338355039119" lon="14.90759198100616"><ele>339.0</ele><time>2026-04-25T11:30:10.999Z</time></trkpt><trkpt lat="40.72330468709393" lon="14.907596886783375"><ele>339.0</ele><time>2026-04-25T11:30:11.999Z</time></trkpt><trkpt lat="40.723237354905606" lon="14.907613429727306"><ele>339.0</ele><time>2026-04-25T11:30:12.999Z</time></trkpt><trkpt lat="40.72317352767933" lon="14.907648535511873"><ele>339.0</ele><time>2026-04-25T11:30:13.999Z</time></trkpt><trkpt lat="40.72311750857543" lon="14.907715034574922"><ele>339.0</ele><time>2026-04-25T11:30:14.999Z</time></trkpt><trkpt lat="40.72306029254183" lon="14.907807100004668"><ele>339.0</ele><time>2026-04-25T11:30:15.999Z</time></trkpt><trkpt lat="40.72298588640482" lon="14.90787871930661"><ele>339.0</ele><time>2026-04-25T11:30:16.999Z</time></trkpt><trkpt lat="40.722881346983684" lon="14.907926198638448"><ele>339.0</ele><time>2026-04-25T11:30:17.999Z</time></trkpt><trkpt lat="40.722746837444504" lon="14.90796892988662"><ele>339.0</ele><time>2026-04-25T11:30:18.999Z</time></trkpt><trkpt lat="40.722603995963254" lon="14.907996046507355"><ele>339.0</ele><time>2026-04-25T11:30:19.999Z</time></trkpt><trkpt lat="40.72245885292074" lon="14.90801373792997"><ele>339.0</ele><time>2026-04-25T11:30:20.999Z</time></trkpt><trkpt lat="40.72233587838278" lon="14.908011485412661"><ele>335.6</ele><time>2026-04-25T11:30:21.999Z</time></trkpt><trkpt lat="40.722223118308705" lon="14.908014475331573"><ele>332.2</ele><time>2026-04-25T11:30:22.999Z</time></trkpt><trkpt lat="40.72211013015919" lon="14.908047908339464"><ele>328.8</ele><time>2026-04-25T11:30:23.999Z</time></trkpt><trkpt lat="40.722001967087024" lon="14.908083792378596"><ele>325.40000000000003</ele><time>2026-04-25T11:30:24.999Z</time></trkpt><trkpt lat="40.72189716411168" lon="14.908108760443215"><ele>322.0</ele><time>2026-04-25T11:30:25.999Z</time></trkpt><trkpt lat="40.72178044701943" lon="14.908138814469186"><ele>320.20000000000005</ele><time>2026-04-25T11:30:26.999Z</time></trkpt><trkpt lat="40.721673637044866" lon="14.908181471731591"><ele>318.40000000000003</ele><time>2026-04-25T11:30:27.999Z</time></trkpt><trkpt lat="40.721591957217996" lon="14.908243482794042"><ele>316.6</ele><time>2026-04-25T11:30:28.999Z</time></trkpt><trkpt lat="40.72152780284135" lon="14.908313477372287"><ele>314.8</ele><time>2026-04-25T11:30:29.999Z</time></trkpt><trkpt lat="40.72147329591629" lon="14.90841154895268"><ele>313.0</ele><time>2026-04-25T11:30:30.999Z</time></trkpt><trkpt lat="40.72142864640456" lon="14.908565105227588"><ele>313.0</ele><time>2026-04-25T11:30:31.999Z</time></trkpt><trkpt lat="40.721401026842614" lon="14.908722620045266"><ele>313.0</ele><time>2026-04-25T11:30:32.999Z</time></trkpt><trkpt lat="40.72137278321383" lon="14.908837403464066"><ele>313.0</ele><time>2026-04-25T11:30:33.999Z</time></trkpt><trkpt lat="40.72133841865171" lon="14.908917916576735"><ele>313.0</ele><time>2026-04-25T11:30:34.999Z</time></trkpt><trkpt lat="40.72122812121244" lon="14.908936440443135"><ele>313.0</ele><time>2026-04-25T11:30:36.999Z</time></trkpt><trkpt lat="40.72115674366277" lon="14.908861693270136"><ele>313.0</ele><time>2026-04-25T11:30:37.999Z</time></trkpt><trkpt lat="40.72109286874655" lon="14.908723598676183"><ele>313.0</ele><time>2026-04-25T11:30:38.999Z</time></trkpt><trkpt lat="40.72105388323638" lon="14.908575310991221"><ele>313.0</ele><time>2026-04-25T11:30:39.999Z</time></trkpt><trkpt lat="40.72104293557823" lon="14.908455754649648"><ele>313.0</ele><time>2026-04-25T11:30:40.999Z</time></trkpt><trkpt lat="40.72104149954452" lon="14.908351499135868"><ele>313.0</ele><time>2026-04-25T11:30:41.999Z</time></trkpt><trkpt lat="40.72106474357473" lon="14.908243324697374"><ele>311.0</ele><time>2026-04-25T11:30:42.999Z</time></trkpt><trkpt lat="40.72111324468014" lon="14.908137780966761"><ele>309.0</ele><time>2026-04-25T11:30:43.999Z</time></trkpt><trkpt lat="40.72121614748557" lon="14.908034129031904"><ele>307.0</ele><time>2026-04-25T11:30:45.999Z</time></trkpt><trkpt lat="40.721196737450626" lon="14.90792470014808"><ele>305.0</ele><time>2026-04-25T11:30:47.999Z</time></trkpt><trkpt lat="40.721145879376465" lon="14.90782835187804"><ele>303.0</ele><time>2026-04-25T11:30:48.999Z</time></trkpt><trkpt lat="40.72109783636208" lon="14.907731732028182"><ele>299.1666666666667</ele><time>2026-04-25T11:30:49.999Z</time></trkpt><trkpt lat="40.72106131361395" lon="14.907648844589797"><ele>295.3333333333333</ele><time>2026-04-25T11:30:50.999Z</time></trkpt><trkpt lat="40.721016569635694" lon="14.907574184948242"><ele>291.5</ele><time>2026-04-25T11:30:51.999Z</time></trkpt><trkpt lat="40.72094265978425" lon="14.90751095904579"><ele>287.66666666666663</ele><time>2026-04-25T11:30:52.999Z</time></trkpt><trkpt lat="40.72083501561641" lon="14.907477728008278"><ele>283.8333333333333</ele><time>2026-04-25T11:30:53.999Z</time></trkpt><trkpt lat="40.72074445069765" lon="14.907487832826666"><ele>280.0</ele><time>2026-04-25T11:30:54.999Z</time></trkpt><trkpt lat="40.720682710171495" lon="14.907435067049253"><ele>277.5</ele><time>2026-04-25T11:30:55.999Z</time></trkpt><trkpt lat="40.72062013358089" lon="14.907376148167526"><ele>275.0</ele><time>2026-04-25T11:30:56.999Z</time></trkpt><trkpt lat="40.720549531893454" lon="14.90730982840893"><ele>272.5</ele><time>2026-04-25T11:30:57.999Z</time></trkpt><trkpt lat="40.72047379852659" lon="14.907239463526262"><ele>270.0</ele><time>2026-04-25T11:30:58.999Z</time></trkpt><trkpt lat="40.7203939404258" lon="14.907188563900378"><ele>267.5</ele><time>2026-04-25T11:30:59.999Z</time></trkpt><trkpt lat="40.7203228237388" lon="14.907119329661874"><ele>265.0</ele><time>2026-04-25T11:31:00.999Z</time></trkpt><trkpt lat="40.72024941747923" lon="14.907051295031561"><ele>264.16666666666663</ele><time>2026-04-25T11:31:01.999Z</time></trkpt><trkpt lat="40.72018279598177" lon="14.906991747957752"><ele>263.3333333333333</ele><time>2026-04-25T11:31:02.999Z</time></trkpt><trkpt lat="40.72010299460463" lon="14.906920470494242"><ele>262.5</ele><time>2026-04-25T11:31:04.999Z</time></trkpt><trkpt lat="40.72006689825844" lon="14.906843289375882"><ele>261.6666666666667</ele><time>2026-04-25T11:31:07.999Z</time></trkpt><trkpt lat="40.71997985839714" lon="14.90692422104775"><ele>260.83333333333337</ele><time>2026-04-25T11:31:11.999Z</time></trkpt><trkpt lat="40.71992660370606" lon="14.906993315677779"><ele>260.0</ele><time>2026-04-25T11:31:13.999Z</time></trkpt><trkpt lat="40.71987646847378" lon="14.907092565476288"><ele>260.0</ele><time>2026-04-25T11:31:15.999Z</time></trkpt><trkpt lat="40.71982616959498" lon="14.90719034383312"><ele>260.0</ele><time>2026-04-25T11:31:17.999Z</time></trkpt><trkpt lat="40.719774738339886" lon="14.907294092294578"><ele>260.0</ele><time>2026-04-25T11:31:19.999Z</time></trkpt><trkpt lat="40.71971832483414" lon="14.90741676056059"><ele>260.0</ele><time>2026-04-25T11:31:21.999Z</time></trkpt><trkpt lat="40.719655459871035" lon="14.907553416287492"><ele>260.0</ele><time>2026-04-25T11:31:23.999Z</time></trkpt><trkpt lat="40.719625406245804" lon="14.907637849992916"><ele>260.33333333333337</ele><time>2026-04-25T11:31:24.999Z</time></trkpt><trkpt lat="40.719602920501124" lon="14.9077438324204"><ele>260.6666666666667</ele><time>2026-04-25T11:31:25.999Z</time></trkpt><trkpt lat="40.719577306537786" lon="14.907853399698727"><ele>261.0</ele><time>2026-04-25T11:31:26.999Z</time></trkpt><trkpt lat="40.719551038323836" lon="14.907929210455766"><ele>261.3333333333333</ele><time>2026-04-25T11:31:27.999Z</time></trkpt><trkpt lat="40.71944564155767" lon="14.908018881391873"><ele>261.66666666666663</ele><time>2026-04-25T11:31:29.999Z</time></trkpt><trkpt lat="40.71935765793869" lon="14.90801096300368"><ele>262.0</ele><time>2026-04-25T11:31:30.999Z</time></trkpt><trkpt lat="40.71925237420509" lon="14.907978042064823"><ele>259.8</ele><time>2026-04-25T11:31:31.998Z</time></trkpt><trkpt lat="40.71916998652025" lon="14.907963870213234"><ele>257.6</ele><time>2026-04-25T11:31:32.998Z</time></trkpt><trkpt lat="40.719093892263665" lon="14.90793769649627"><ele>255.40000000000003</ele><time>2026-04-25T11:31:34.998Z</time></trkpt><trkpt lat="40.71902707623154" lon="14.908001061001892"><ele>253.20000000000002</ele><time>2026-04-25T11:31:38Z</time></trkpt><trkpt lat="40.718954125475335" lon="14.908054170792578"><ele>251.0</ele><time>2026-04-25T11:32:11.999Z</time></trkpt><trkpt lat="40.718837481670384" lon="14.908109265488578"><ele>251.00000000000003</ele><time>2026-04-25T11:32:13.999Z</time></trkpt><trkpt lat="40.71876250960106" lon="14.908101253990864"><ele>251.0</ele><time>2026-04-25T11:32:14.999Z</time></trkpt><trkpt lat="40.71868679927625" lon="14.908054134135954"><ele>251.0</ele><time>2026-04-25T11:32:15.999Z</time></trkpt><trkpt lat="40.71861622571802" lon="14.908009927533655"><ele>251.0</ele><time>2026-04-25T11:32:16.999Z</time></trkpt><trkpt lat="40.71854238647972" lon="14.907997506466062"><ele>251.00000000000003</ele><time>2026-04-25T11:32:17.999Z</time></trkpt><trkpt lat="40.7184606770555" lon="14.908008992349892"><ele>251.0</ele><time>2026-04-25T11:32:18.999Z</time></trkpt><trkpt lat="40.71836880024978" lon="14.908034302337178"><ele>249.60000000000002</ele><time>2026-04-25T11:32:19.999Z</time></trkpt><trkpt lat="40.71827281571977" lon="14.908069448580237"><ele>248.20000000000002</ele><time>2026-04-25T11:32:20.999Z</time></trkpt><trkpt lat="40.7181764015616" lon="14.908081555448996"><ele>246.79999999999998</ele><time>2026-04-25T11:32:21.999Z</time></trkpt><trkpt lat="40.718087419755506" lon="14.908093386479504"><ele>245.39999999999998</ele><time>2026-04-25T11:32:22.999Z</time></trkpt><trkpt lat="40.71800368782079" lon="14.908112527878952"><ele>244.0</ele><time>2026-04-25T11:32:23.999Z</time></trkpt><trkpt lat="40.717916815022924" lon="14.908149353257253"><ele>244.0</ele><time>2026-04-25T11:32:24.999Z</time></trkpt><trkpt lat="40.71781579007467" lon="14.908204372547097"><ele>243.99999999999997</ele><time>2026-04-25T11:32:25.999Z</time></trkpt><trkpt lat="40.71771285391753" lon="14.90826616215236"><ele>243.99999999999997</ele><time>2026-04-25T11:32:26.999Z</time></trkpt><trkpt lat="40.71760720601415" lon="14.908279663983938"><ele>244.0</ele><time>2026-04-25T11:32:27.999Z</time></trkpt><trkpt lat="40.71750922757639" lon="14.908294748425092"><ele>244.0</ele><time>2026-04-25T11:32:28.999Z</time></trkpt><trkpt lat="40.71740717657353" lon="14.908286825210748"><ele>244.16666666666666</ele><time>2026-04-25T11:32:29.999Z</time></trkpt><trkpt lat="40.71734327973922" lon="14.908280528767836"><ele>244.33333333333331</ele><time>2026-04-25T11:32:30.999Z</time></trkpt><trkpt lat="40.71727862581147" lon="14.908274157708956"><ele>244.5</ele><time>2026-04-25T11:32:32.999Z</time></trkpt><trkpt lat="40.717246237928954" lon="14.908386881563711"><ele>244.66666666666669</ele><time>2026-04-25T11:32:33.999Z</time></trkpt><trkpt lat="40.71715223383424" lon="14.908538104338952"><ele>244.83333333333334</ele><time>2026-04-25T11:32:35.999Z</time></trkpt><trkpt lat="40.717129701821" lon="14.908636012157043"><ele>245.0</ele><time>2026-04-25T11:32:36.999Z</time></trkpt><trkpt lat="40.71709956088535" lon="14.908740989122771"><ele>245.33333333333334</ele><time>2026-04-25T11:32:37.999Z</time></trkpt><trkpt lat="40.717075342925284" lon="14.908833652833954"><ele>245.66666666666669</ele><time>2026-04-25T11:32:38.999Z</time></trkpt><trkpt lat="40.717049054414744" lon="14.908941431530772"><ele>246.0</ele><time>2026-04-25T11:32:39.999Z</time></trkpt><trkpt lat="40.71702771776374" lon="14.909047701430836"><ele>246.33333333333331</ele><time>2026-04-25T11:32:40.999Z</time></trkpt><trkpt lat="40.71701487815882" lon="14.909170806680796"><ele>246.66666666666666</ele><time>2026-04-25T11:32:41.999Z</time></trkpt><trkpt lat="40.71702122698746" lon="14.909282930372962"><ele>247.0</ele><time>2026-04-25T11:32:42.999Z</time></trkpt><trkpt lat="40.717049345762526" lon="14.909397611794152"><ele>245.39999999999998</ele><time>2026-04-25T11:32:43.999Z</time></trkpt><trkpt lat="40.71709631744229" lon="14.909533393238661"><ele>243.79999999999998</ele><time>2026-04-25T11:32:44.999Z</time></trkpt><trkpt lat="40.717148490253905" lon="14.909672087799965"><ele>242.2</ele><time>2026-04-25T11:32:45.999Z</time></trkpt><trkpt lat="40.71720008075662" lon="14.909795581724842"><ele>240.6</ele><time>2026-04-25T11:32:46.999Z</time></trkpt><trkpt lat="40.7172504527015" lon="14.909887707773649"><ele>239.0</ele><time>2026-04-25T11:32:47.999Z</time></trkpt><trkpt lat="40.71727748735" lon="14.909986567157713"><ele>239.6</ele><time>2026-04-25T11:32:48.999Z</time></trkpt><trkpt lat="40.71733184665844" lon="14.910113772204886"><ele>240.2</ele><time>2026-04-25T11:32:49.999Z</time></trkpt><trkpt lat="40.717347077744364" lon="14.91021031652073"><ele>240.79999999999998</ele><time>2026-04-25T11:32:50.999Z</time></trkpt><trkpt lat="40.71732463407471" lon="14.910318778668278"><ele>241.39999999999998</ele><time>2026-04-25T11:32:51.999Z</time></trkpt><trkpt lat="40.71728799406414" lon="14.910477294271288"><ele>242.0</ele><time>2026-04-25T11:32:52.999Z</time></trkpt><trkpt lat="40.71726547771742" lon="14.910637094048631"><ele>242.0</ele><time>2026-04-25T11:32:53.999Z</time></trkpt><trkpt lat="40.71725618407117" lon="14.910749593857132"><ele>242.0</ele><time>2026-04-25T11:32:54.999Z</time></trkpt><trkpt lat="40.71724814359044" lon="14.910852214128482"><ele>242.0</ele><time>2026-04-25T11:32:56.999Z</time></trkpt><trkpt lat="40.71719564473295" lon="14.910956868013836"><ele>242.0</ele><time>2026-04-25T11:32:59.999Z</time></trkpt><trkpt lat="40.71717577383309" lon="14.911067379607148"><ele>242.0</ele><time>2026-04-25T11:33:01.999Z</time></trkpt><trkpt lat="40.71716891814521" lon="14.911273524606495"><ele>242.39999999999998</ele><time>2026-04-25T11:33:03.999Z</time></trkpt><trkpt lat="40.717186255682684" lon="14.911402551255524"><ele>242.79999999999998</ele><time>2026-04-25T11:33:04.999Z</time></trkpt><trkpt lat="40.7171939890633" lon="14.91152417460181"><ele>243.2</ele><time>2026-04-25T11:33:05.999Z</time></trkpt><trkpt lat="40.717192486285164" lon="14.911659433839244"><ele>243.6</ele><time>2026-04-25T11:33:06.999Z</time></trkpt><trkpt lat="40.7171834451303" lon="14.911796215408774"><ele>244.0</ele><time>2026-04-25T11:33:07.999Z</time></trkpt><trkpt lat="40.71716850607131" lon="14.911900408430233"><ele>244.33333333333331</ele><time>2026-04-25T11:33:08.999Z</time></trkpt><trkpt lat="40.7171613062548" lon="14.912001694669563"><ele>244.66666666666666</ele><time>2026-04-25T11:33:09.999Z</time></trkpt><trkpt lat="40.71715525391542" lon="14.91213465683562"><ele>245.0</ele><time>2026-04-25T11:33:11.999Z</time></trkpt><trkpt lat="40.71714305324569" lon="14.912251498145912"><ele>245.33333333333331</ele><time>2026-04-25T11:33:13.999Z</time></trkpt><trkpt lat="40.71712648296495" lon="14.912362029290762"><ele>245.66666666666666</ele><time>2026-04-25T11:33:15.999Z</time></trkpt><trkpt lat="40.71711654444973" lon="14.912451846192887"><ele>246.0</ele><time>2026-04-25T11:33:16.999Z</time></trkpt><trkpt lat="40.71713447394862" lon="14.912614847879253"><ele>247.5</ele><time>2026-04-25T11:33:17.999Z</time></trkpt><trkpt lat="40.71711379065334" lon="14.912769213110392"><ele>249.0</ele><time>2026-04-25T11:33:18.999Z</time></trkpt><trkpt lat="40.717065987739105" lon="14.912933442053983"><ele>250.5</ele><time>2026-04-25T11:33:19.999Z</time></trkpt><trkpt lat="40.71698692312216" lon="14.913087539903925"><ele>252.0</ele><time>2026-04-25T11:33:20.999Z</time></trkpt><trkpt lat="40.71690713737379" lon="14.913243985906124"><ele>246.25</ele><time>2026-04-25T11:33:21.999Z</time></trkpt><trkpt lat="40.71681926294516" lon="14.91340014648877"><ele>240.5</ele><time>2026-04-25T11:33:22.999Z</time></trkpt><trkpt lat="40.716741579111364" lon="14.913563474860423"><ele>234.75</ele><time>2026-04-25T11:33:23.999Z</time></trkpt><trkpt lat="40.71668012430954" lon="14.913715039160678"><ele>229.0</ele><time>2026-04-25T11:33:24.999Z</time></trkpt><trkpt lat="40.716618802003566" lon="14.913846594428795"><ele>229.0</ele><time>2026-04-25T11:33:25.999Z</time></trkpt><trkpt lat="40.716543028371866" lon="14.913978768672463"><ele>229.0</ele><time>2026-04-25T11:33:26.999Z</time></trkpt><trkpt lat="40.71646755755452" lon="14.914096410108657"><ele>229.0</ele><time>2026-04-25T11:33:27.999Z</time></trkpt><trkpt lat="40.716389318640644" lon="14.914204189655566"><ele>229.0</ele><time>2026-04-25T11:33:28.999Z</time></trkpt><trkpt lat="40.7163167938785" lon="14.914319747094318"><ele>230.0</ele><time>2026-04-25T11:33:29.998Z</time></trkpt><trkpt lat="40.71624369346329" lon="14.91444295271046"><ele>231.0</ele><time>2026-04-25T11:33:30.998Z</time></trkpt><trkpt lat="40.71617410708846" lon="14.914593570909359"><ele>232.0</ele><time>2026-04-25T11:33:31.998Z</time></trkpt><trkpt lat="40.716119059374684" lon="14.914784681842887"><ele>233.0</ele><time>2026-04-25T11:33:32.998Z</time></trkpt><trkpt lat="40.71608782864408" lon="14.914996690521876"><ele>226.66666666666669</ele><time>2026-04-25T11:33:33.998Z</time></trkpt><trkpt lat="40.71605476916692" lon="14.915198869136528"><ele>220.33333333333331</ele><time>2026-04-25T11:33:34.998Z</time></trkpt><trkpt lat="40.716016810829124" lon="14.915408159926548"><ele>214.0</ele><time>2026-04-25T11:33:35.998Z</time></trkpt><trkpt lat="40.71597540591148" lon="14.915619397070257"><ele>214.0</ele><time>2026-04-25T11:33:36.998Z</time></trkpt><trkpt lat="40.71592854645739" lon="14.915831705053108"><ele>214.0</ele><time>2026-04-25T11:33:37.998Z</time></trkpt><trkpt lat="40.715882799189544" lon="14.916032809381322"><ele>214.0</ele><time>2026-04-25T11:33:38.998Z</time></trkpt><trkpt lat="40.71583834222093" lon="14.91623070467052"><ele>215.0</ele><time>2026-04-25T11:33:39.998Z</time></trkpt><trkpt lat="40.71579048815718" lon="14.916425338237197"><ele>216.0</ele><time>2026-04-25T11:33:40.998Z</time></trkpt><trkpt lat="40.71572947169617" lon="14.916603189848063"><ele>217.0</ele><time>2026-04-25T11:33:41.998Z</time></trkpt><trkpt lat="40.71566668730988" lon="14.916767909955254"><ele>218.0</ele><time>2026-04-25T11:33:43Z</time></trkpt><trkpt lat="40.715583657676305" lon="14.916948362806064"><ele>219.0</ele><time>2026-04-25T11:33:44Z</time></trkpt><trkpt lat="40.715501979285804" lon="14.91711154401217"><ele>220.0</ele><time>2026-04-25T11:33:45Z</time></trkpt><trkpt lat="40.71544086897014" lon="14.917266648937082"><ele>221.0</ele><time>2026-04-25T11:33:46Z</time></trkpt><trkpt lat="40.71540564438746" lon="14.917440522514054"><ele>222.0</ele><time>2026-04-25T11:33:47Z</time></trkpt><trkpt lat="40.71539591750598" lon="14.917644328048505"><ele>223.0</ele><time>2026-04-25T11:33:48Z</time></trkpt><trkpt lat="40.71539941820959" lon="14.917843242751115"><ele>224.0</ele><time>2026-04-25T11:33:49Z</time></trkpt><trkpt lat="40.71537564986125" lon="14.918007413449448"><ele>225.0</ele><time>2026-04-25T11:33:50Z</time></trkpt><trkpt lat="40.71536345437272" lon="14.91815132549763"><ele>226.0</ele><time>2026-04-25T11:33:51Z</time></trkpt><trkpt lat="40.715278142190954" lon="14.918243766224215"><ele>224.5</ele><time>2026-04-25T11:33:52Z</time></trkpt><trkpt lat="40.71517440399119" lon="14.918311268019592"><ele>223.0</ele><time>2026-04-25T11:33:53Z</time></trkpt><trkpt lat="40.715038192460234" lon="14.918385398005416"><ele>221.5</ele><time>2026-04-25T11:33:54Z</time></trkpt><trkpt lat="40.71490474132125" lon="14.918491844227674"><ele>220.0</ele><time>2026-04-25T11:33:55Z</time></trkpt><trkpt lat="40.71474548811377" lon="14.918600205488245"><ele>220.0</ele><time>2026-04-25T11:33:56Z</time></trkpt><trkpt lat="40.71459541409073" lon="14.918736474375335"><ele>220.0</ele><time>2026-04-25T11:33:57Z</time></trkpt><trkpt lat="40.714469225289605" lon="14.918854059171382"><ele>220.0</ele><time>2026-04-25T11:33:58Z</time></trkpt><trkpt lat="40.714348378541864" lon="14.9189504384135"><ele>219.5</ele><time>2026-04-25T11:33:59Z</time></trkpt><trkpt lat="40.714240418411876" lon="14.919051640846876"><ele>219.0</ele><time>2026-04-25T11:34:00Z</time></trkpt><trkpt lat="40.714152400302524" lon="14.919181112246093"><ele>218.5</ele><time>2026-04-25T11:34:01Z</time></trkpt><trkpt lat="40.7140871823482" lon="14.919337040348061"><ele>218.0</ele><time>2026-04-25T11:34:02Z</time></trkpt><trkpt lat="40.71403205690422" lon="14.91949021008101"><ele>218.0</ele><time>2026-04-25T11:34:03Z</time></trkpt><trkpt lat="40.71397222740914" lon="14.919635480929799"><ele>218.0</ele><time>2026-04-25T11:34:04Z</time></trkpt><trkpt lat="40.71391273050511" lon="14.91977377378678"><ele>218.0</ele><time>2026-04-25T11:34:05Z</time></trkpt><trkpt lat="40.71385464780163" lon="14.91991443715707"><ele>218.0</ele><time>2026-04-25T11:34:06Z</time></trkpt><trkpt lat="40.71380526181765" lon="14.920053130411056"><ele>217.75</ele><time>2026-04-25T11:34:07Z</time></trkpt><trkpt lat="40.713781479761195" lon="14.920206471660336"><ele>217.5</ele><time>2026-04-25T11:34:07.999Z</time></trkpt><trkpt lat="40.713800211263795" lon="14.920396072026058"><ele>217.25</ele><time>2026-04-25T11:34:08.999Z</time></trkpt><trkpt lat="40.713847056443846" lon="14.920600438224369"><ele>217.0</ele><time>2026-04-25T11:34:09.999Z</time></trkpt><trkpt lat="40.71389486451689" lon="14.920785778216635"><ele>215.75</ele><time>2026-04-25T11:34:10.999Z</time></trkpt><trkpt lat="40.713945192940976" lon="14.920964811581781"><ele>214.5</ele><time>2026-04-25T11:34:11.999Z</time></trkpt><trkpt lat="40.7139920043413" lon="14.921148836713954"><ele>213.25</ele><time>2026-04-25T11:34:12.999Z</time></trkpt><trkpt lat="40.714035118921764" lon="14.921324462515333"><ele>212.0</ele><time>2026-04-25T11:34:13.999Z</time></trkpt><trkpt lat="40.714073294699624" lon="14.921497109535725"><ele>212.0</ele><time>2026-04-25T11:34:14.999Z</time></trkpt><trkpt lat="40.714103320552546" lon="14.921680003612792"><ele>212.0</ele><time>2026-04-25T11:34:15.999Z</time></trkpt><trkpt lat="40.714090776539585" lon="14.921859231639733"><ele>212.0</ele><time>2026-04-25T11:34:16.999Z</time></trkpt><trkpt lat="40.714055261698086" lon="14.92202950260402"><ele>212.0</ele><time>2026-04-25T11:34:17.999Z</time></trkpt><trkpt lat="40.71400844928953" lon="14.922222886582349"><ele>212.75</ele><time>2026-04-25T11:34:18.999Z</time></trkpt><trkpt lat="40.71396585415575" lon="14.922426917527309"><ele>213.5</ele><time>2026-04-25T11:34:19.999Z</time></trkpt><trkpt lat="40.713908598105185" lon="14.922600757003075"><ele>214.25</ele><time>2026-04-25T11:34:20.999Z</time></trkpt><trkpt lat="40.71385449875255" lon="14.922777255580463"><ele>215.0</ele><time>2026-04-25T11:34:21.999Z</time></trkpt><trkpt lat="40.71378899647935" lon="14.922957995181124"><ele>217.0</ele><time>2026-04-25T11:34:22.999Z</time></trkpt><trkpt lat="40.71371455414953" lon="14.923139021011426"><ele>219.0</ele><time>2026-04-25T11:34:23.999Z</time></trkpt><trkpt lat="40.71365374870772" lon="14.923309855711485"><ele>221.0</ele><time>2026-04-25T11:34:24.999Z</time></trkpt><trkpt lat="40.71361789915619" lon="14.923485371337073"><ele>223.0</ele><time>2026-04-25T11:34:25.999Z</time></trkpt><trkpt lat="40.71360523937486" lon="14.923685218558598"><ele>223.33333333333331</ele><time>2026-04-25T11:34:26.999Z</time></trkpt><trkpt lat="40.713600610340976" lon="14.92388530952209"><ele>223.66666666666669</ele><time>2026-04-25T11:34:27.999Z</time></trkpt><trkpt lat="40.713603580800275" lon="14.92408160183882"><ele>224.0</ele><time>2026-04-25T11:34:28.999Z</time></trkpt><trkpt lat="40.713598908167555" lon="14.924290196340067"><ele>223.25</ele><time>2026-04-25T11:34:29.999Z</time></trkpt><trkpt lat="40.71358922979612" lon="14.924487791719852"><ele>222.5</ele><time>2026-04-25T11:34:30.999Z</time></trkpt><trkpt lat="40.713583904426564" lon="14.9246679954369"><ele>221.75</ele><time>2026-04-25T11:34:31.999Z</time></trkpt><trkpt lat="40.713578012280855" lon="14.924835227970226"><ele>221.0</ele><time>2026-04-25T11:34:32.999Z</time></trkpt><trkpt lat="40.71357532448216" lon="14.924993070102165"><ele>220.0</ele><time>2026-04-25T11:34:33.999Z</time></trkpt><trkpt lat="40.71359295606679" lon="14.925135436049931"><ele>219.00000000000003</ele><time>2026-04-25T11:34:34.999Z</time></trkpt><trkpt lat="40.7136408558149" lon="14.925252722307567"><ele>218.00000000000003</ele><time>2026-04-25T11:34:35.999Z</time></trkpt><trkpt lat="40.713714516940534" lon="14.925344964143218"><ele>217.0</ele><time>2026-04-25T11:34:36.999Z</time></trkpt><trkpt lat="40.71381983558492" lon="14.925434792349476"><ele>216.0</ele><time>2026-04-25T11:34:37.999Z</time></trkpt><trkpt lat="40.71392726115431" lon="14.925523974924932"><ele>216.0</ele><time>2026-04-25T11:34:38.999Z</time></trkpt><trkpt lat="40.7140244475487" lon="14.925617980739462"><ele>216.00000000000003</ele><time>2026-04-25T11:34:39.999Z</time></trkpt><trkpt lat="40.71411035320159" lon="14.925722737658361"><ele>216.00000000000003</ele><time>2026-04-25T11:34:40.999Z</time></trkpt><trkpt lat="40.71417335342156" lon="14.925830296535727"><ele>216.0</ele><time>2026-04-25T11:34:41.999Z</time></trkpt><trkpt lat="40.7142116434666" lon="14.925948112642994"><ele>216.0</ele><time>2026-04-25T11:34:42.999Z</time></trkpt><trkpt lat="40.71419454093794" lon="14.926089189090371"><ele>216.0</ele><time>2026-04-25T11:34:43.999Z</time></trkpt><trkpt lat="40.71415422924592" lon="14.926242090663907"><ele>216.0</ele><time>2026-04-25T11:34:44.999Z</time></trkpt><trkpt lat="40.7141304003346" lon="14.926400572124628"><ele>216.0</ele><time>2026-04-25T11:34:45.999Z</time></trkpt><trkpt lat="40.71410457161457" lon="14.92654761784294"><ele>216.0</ele><time>2026-04-25T11:34:46.999Z</time></trkpt><trkpt lat="40.71409464874173" lon="14.926712392967932"><ele>216.5</ele><time>2026-04-25T11:34:47.999Z</time></trkpt><trkpt lat="40.71409949345277" lon="14.926903785505836"><ele>217.0</ele><time>2026-04-25T11:34:48.999Z</time></trkpt><trkpt lat="40.71412550208676" lon="14.927087578684723"><ele>217.5</ele><time>2026-04-25T11:34:49.999Z</time></trkpt><trkpt lat="40.71414221729325" lon="14.927248428612572"><ele>218.0</ele><time>2026-04-25T11:34:50.999Z</time></trkpt><trkpt lat="40.71411889178141" lon="14.92739014490584"><ele>218.0</ele><time>2026-04-25T11:34:51.999Z</time></trkpt><trkpt lat="40.7140362863011" lon="14.927505694108065"><ele>218.0</ele><time>2026-04-25T11:34:52.999Z</time></trkpt><trkpt lat="40.71393976398857" lon="14.9276529511269"><ele>218.0</ele><time>2026-04-25T11:34:53.999Z</time></trkpt><trkpt lat="40.71385150168431" lon="14.927804561685964"><ele>218.0</ele><time>2026-04-25T11:34:54.999Z</time></trkpt><trkpt lat="40.71377253949983" lon="14.92793022657982"><ele>219.0</ele><time>2026-04-25T11:34:55.999Z</time></trkpt><trkpt lat="40.713716117989456" lon="14.928070499581567"><ele>220.0</ele><time>2026-04-25T11:34:56.999Z</time></trkpt><trkpt lat="40.713680367790374" lon="14.928257128336979"><ele>221.0</ele><time>2026-04-25T11:34:57.999Z</time></trkpt><trkpt lat="40.713662008940425" lon="14.928452187026423"><ele>222.0</ele><time>2026-04-25T11:34:58.999Z</time></trkpt><trkpt lat="40.713628943982904" lon="14.928655048742764"><ele>222.0</ele><time>2026-04-25T11:34:59.999Z</time></trkpt><trkpt lat="40.71359922753189" lon="14.928848143079005"><ele>222.0</ele><time>2026-04-25T11:35:00.999Z</time></trkpt><trkpt lat="40.71357462346088" lon="14.929037098052325"><ele>222.0</ele><time>2026-04-25T11:35:01.999Z</time></trkpt><trkpt lat="40.713537322165045" lon="14.929221753722615"><ele>222.0</ele><time>2026-04-25T11:35:02.999Z</time></trkpt><trkpt lat="40.7135048942197" lon="14.929412263762611"><ele>220.5</ele><time>2026-04-25T11:35:03.999Z</time></trkpt><trkpt lat="40.71347533512269" lon="14.929589139678585"><ele>219.0</ele><time>2026-04-25T11:35:04.999Z</time></trkpt><trkpt lat="40.7134415891298" lon="14.92976860673554"><ele>217.5</ele><time>2026-04-25T11:35:05.999Z</time></trkpt><trkpt lat="40.71338499568406" lon="14.929946789366316"><ele>216.0</ele><time>2026-04-25T11:35:06.999Z</time></trkpt><trkpt lat="40.71327016656201" lon="14.930081930974922"><ele>216.0</ele><time>2026-04-25T11:35:07.999Z</time></trkpt><trkpt lat="40.71317588411803" lon="14.930226894855751"><ele>216.0</ele><time>2026-04-25T11:35:08.999Z</time></trkpt><trkpt lat="40.713113315840246" lon="14.930381084559237"><ele>216.0</ele><time>2026-04-25T11:35:09.999Z</time></trkpt><trkpt lat="40.713074465627294" lon="14.93056651364355"><ele>216.0</ele><time>2026-04-25T11:35:10.999Z</time></trkpt><trkpt lat="40.713073843223235" lon="14.930750443265254"><ele>216.5</ele><time>2026-04-25T11:35:11.999Z</time></trkpt><trkpt lat="40.71310546798734" lon="14.93091615627544"><ele>217.0</ele><time>2026-04-25T11:35:12.999Z</time></trkpt><trkpt lat="40.713161221674675" lon="14.931056162873352"><ele>217.5</ele><time>2026-04-25T11:35:13.999Z</time></trkpt><trkpt lat="40.7132136581803" lon="14.931184239461741"><ele>218.0</ele><time>2026-04-25T11:35:14.999Z</time></trkpt><trkpt lat="40.71323974454568" lon="14.93132102132736"><ele>218.0</ele><time>2026-04-25T11:35:15.999Z</time></trkpt><trkpt lat="40.713230961893856" lon="14.931484599366767"><ele>218.0</ele><time>2026-04-25T11:35:16.999Z</time></trkpt><trkpt lat="40.71315580556748" lon="14.931667875735313"><ele>218.0</ele><time>2026-04-25T11:35:17.999Z</time></trkpt><trkpt lat="40.71310180953727" lon="14.931853790990147"><ele>218.0</ele><time>2026-04-25T11:35:18.999Z</time></trkpt><trkpt lat="40.7130617549583" lon="14.93203651507497"><ele>220.75</ele><time>2026-04-25T11:35:19.999Z</time></trkpt><trkpt lat="40.713006307162374" lon="14.932209874439145"><ele>223.5</ele><time>2026-04-25T11:35:20.999Z</time></trkpt><trkpt lat="40.71293996269471" lon="14.932378630771225"><ele>226.25</ele><time>2026-04-25T11:35:21.999Z</time></trkpt><trkpt lat="40.71286803979656" lon="14.932539797252932"><ele>229.0</ele><time>2026-04-25T11:35:22.999Z</time></trkpt><trkpt lat="40.71278721981788" lon="14.932695079168889"><ele>223.5</ele><time>2026-04-25T11:35:23.999Z</time></trkpt><trkpt lat="40.712700977516555" lon="14.9328325964309"><ele>218.0</ele><time>2026-04-25T11:35:24.999Z</time></trkpt><trkpt lat="40.71260949103005" lon="14.932948752357388"><ele>212.5</ele><time>2026-04-25T11:35:25.999Z</time></trkpt><trkpt lat="40.71252864276299" lon="14.933059246638564"><ele>207.0</ele><time>2026-04-25T11:35:26.998Z</time></trkpt><trkpt lat="40.71247283279168" lon="14.933192568300862"><ele>207.0</ele><time>2026-04-25T11:35:27.998Z</time></trkpt><trkpt lat="40.712448516991095" lon="14.933361628912973"><ele>207.0</ele><time>2026-04-25T11:35:28.998Z</time></trkpt><trkpt lat="40.71244068220192" lon="14.933546292047742"><ele>207.0</ele><time>2026-04-25T11:35:29.998Z</time></trkpt><trkpt lat="40.71241775197356" lon="14.933715423642303"><ele>207.0</ele><time>2026-04-25T11:35:30.998Z</time></trkpt><trkpt lat="40.71240208456666" lon="14.933880956519225"><ele>206.75</ele><time>2026-04-25T11:35:31.998Z</time></trkpt><trkpt lat="40.71236870339938" lon="14.93402471392675"><ele>206.5</ele><time>2026-04-25T11:35:32.998Z</time></trkpt><trkpt lat="40.712310336477515" lon="14.934146748274532"><ele>206.25</ele><time>2026-04-25T11:35:33.998Z</time></trkpt><trkpt lat="40.71223754078141" lon="14.934287046720975"><ele>206.0</ele><time>2026-04-25T11:35:34.998Z</time></trkpt><trkpt lat="40.71216986083819" lon="14.934434545642114"><ele>205.4</ele><time>2026-04-25T11:35:35.998Z</time></trkpt><trkpt lat="40.71209252658448" lon="14.934545688613412"><ele>204.8</ele><time>2026-04-25T11:35:36.998Z</time></trkpt><trkpt lat="40.712049349096944" lon="14.934667147793085"><ele>204.20000000000002</ele><time>2026-04-25T11:35:37.998Z</time></trkpt><trkpt lat="40.71204202361404" lon="14.934803703488516"><ele>203.60000000000002</ele><time>2026-04-25T11:35:38.998Z</time></trkpt><trkpt lat="40.712072767129776" lon="14.934952674621933"><ele>203.0</ele><time>2026-04-25T11:35:39.998Z</time></trkpt><trkpt lat="40.712140392704484" lon="14.935111244154704"><ele>200.66666666666669</ele><time>2026-04-25T11:35:40.998Z</time></trkpt><trkpt lat="40.712241335951184" lon="14.935278897772449"><ele>198.33333333333331</ele><time>2026-04-25T11:35:41.998Z</time></trkpt><trkpt lat="40.712350239486845" lon="14.935428964229606"><ele>196.0</ele><time>2026-04-25T11:35:42.998Z</time></trkpt><trkpt lat="40.71245735604203" lon="14.935575365860396"><ele>196.0</ele><time>2026-04-25T11:35:43.998Z</time></trkpt><trkpt lat="40.712566456722946" lon="14.935723810793435"><ele>196.0</ele><time>2026-04-25T11:35:44.998Z</time></trkpt><trkpt lat="40.71266969222689" lon="14.935882005696865"><ele>196.0</ele><time>2026-04-25T11:35:45.998Z</time></trkpt><trkpt lat="40.71276294363042" lon="14.936052883004203"><ele>200.0</ele><time>2026-04-25T11:35:46.998Z</time></trkpt><trkpt lat="40.71285848051247" lon="14.936217418059243"><ele>204.0</ele><time>2026-04-25T11:35:47.998Z</time></trkpt><trkpt lat="40.71295549481526" lon="14.936357700863324"><ele>208.0</ele><time>2026-04-25T11:35:49Z</time></trkpt><trkpt lat="40.7130539874838" lon="14.93646714210724"><ele>212.0</ele><time>2026-04-25T11:35:50Z</time></trkpt><trkpt lat="40.71314764574898" lon="14.936574076729965"><ele>209.75</ele><time>2026-04-25T11:35:51Z</time></trkpt><trkpt lat="40.7131904422061" lon="14.936727956927093"><ele>207.5</ele><time>2026-04-25T11:35:52Z</time></trkpt><trkpt lat="40.71323377382453" lon="14.936912049216227"><ele>205.25</ele><time>2026-04-25T11:35:53Z</time></trkpt><trkpt lat="40.713268234108966" lon="14.937104022959787"><ele>203.0</ele><time>2026-04-25T11:35:54Z</time></trkpt><trkpt lat="40.713311114343476" lon="14.937281868926766"><ele>203.0</ele><time>2026-04-25T11:35:55Z</time></trkpt><trkpt lat="40.713329745222325" lon="14.937467402820367"><ele>203.0</ele><time>2026-04-25T11:35:56Z</time></trkpt><trkpt lat="40.713358140207966" lon="14.937647873377086"><ele>203.0</ele><time>2026-04-25T11:35:57Z</time></trkpt><trkpt lat="40.713387055598574" lon="14.937826387035908"><ele>203.0</ele><time>2026-04-25T11:35:58Z</time></trkpt><trkpt lat="40.713414700521746" lon="14.93799907161719"><ele>200.0</ele><time>2026-04-25T11:35:59Z</time></trkpt><trkpt lat="40.7134391784256" lon="14.938173870585192"><ele>197.0</ele><time>2026-04-25T11:36:00Z</time></trkpt><trkpt lat="40.71346655177278" lon="14.938341010421633"><ele>194.0</ele><time>2026-04-25T11:36:01Z</time></trkpt><trkpt lat="40.71348909472179" lon="14.938486088750976"><ele>191.0</ele><time>2026-04-25T11:36:02Z</time></trkpt><trkpt lat="40.713511063906104" lon="14.938609357411899"><ele>190.0</ele><time>2026-04-25T11:36:03Z</time></trkpt><trkpt lat="40.71353241980206" lon="14.938724317012454"><ele>189.0</ele><time>2026-04-25T11:36:04Z</time></trkpt><trkpt lat="40.71353073433029" lon="14.938838476560123"><ele>188.0</ele><time>2026-04-25T11:36:05Z</time></trkpt><trkpt lat="40.71353743404078" lon="14.938946071641325"><ele>187.0</ele><time>2026-04-25T11:36:06Z</time></trkpt><trkpt lat="40.71353734558944" lon="14.939058539711548"><ele>186.0</ele><time>2026-04-25T11:36:07Z</time></trkpt><trkpt lat="40.71354608668601" lon="14.939175235736263"><ele>185.0</ele><time>2026-04-25T11:36:07.999Z</time></trkpt><trkpt lat="40.71353262819635" lon="14.939287527117566"><ele>184.5</ele><time>2026-04-25T11:36:08.999Z</time></trkpt><trkpt lat="40.713485477815006" lon="14.939384623244809"><ele>184.0</ele><time>2026-04-25T11:36:09.999Z</time></trkpt><trkpt lat="40.71344495763325" lon="14.939480559150592"><ele>183.5</ele><time>2026-04-25T11:36:10.999Z</time></trkpt><trkpt lat="40.71341735492758" lon="14.939578115984538"><ele>183.0</ele><time>2026-04-25T11:36:11.999Z</time></trkpt><trkpt lat="40.71335539170063" lon="14.939691635185945"><ele>182.5</ele><time>2026-04-25T11:36:13.999Z</time></trkpt><trkpt lat="40.713304971191526" lon="14.939746323187254"><ele>182.0</ele><time>2026-04-25T11:36:16.999Z</time></trkpt><trkpt lat="40.71326805968449" lon="14.93985027236868"><ele>182.0</ele><time>2026-04-25T11:36:19.999Z</time></trkpt><trkpt lat="40.713286022232154" lon="14.940025264170188"><ele>182.0</ele><time>2026-04-25T11:36:21.999Z</time></trkpt><trkpt lat="40.71332093063704" lon="14.940167575216183"><ele>182.0</ele><time>2026-04-25T11:36:23.999Z</time></trkpt><trkpt lat="40.71334026379358" lon="14.940258184169817"><ele>182.0</ele><time>2026-04-25T11:36:25.999Z</time></trkpt><trkpt lat="40.713249351318396" lon="14.940320155081128"><ele>182.0</ele><time>2026-04-25T11:36:27.999Z</time></trkpt><trkpt lat="40.71315365380954" lon="14.94033952742062"><ele>181.6</ele><time>2026-04-25T11:36:29.999Z</time></trkpt><trkpt lat="40.713078959660415" lon="14.940368530203314"><ele>181.2</ele><time>2026-04-25T11:36:31.999Z</time></trkpt><trkpt lat="40.71302257588288" lon="14.940422132435105"><ele>180.8</ele><time>2026-04-25T11:36:33.999Z</time></trkpt><trkpt lat="40.712993727505754" lon="14.9405698501039"><ele>180.4</ele><time>2026-04-25T11:36:35.999Z</time></trkpt><trkpt lat="40.71300334819416" lon="14.940698230096697"><ele>180.0</ele><time>2026-04-25T11:36:36.999Z</time></trkpt><trkpt lat="40.713036914734744" lon="14.94084692866171"><ele>178.5</ele><time>2026-04-25T11:36:37.999Z</time></trkpt><trkpt lat="40.713065549014445" lon="14.94099046507242"><ele>177.0</ele><time>2026-04-25T11:36:38.999Z</time></trkpt><trkpt lat="40.71308821617103" lon="14.941140621573716"><ele>175.5</ele><time>2026-04-25T11:36:39.999Z</time></trkpt><trkpt lat="40.71311637980112" lon="14.941303669396522"><ele>174.0</ele><time>2026-04-25T11:36:40.999Z</time></trkpt><trkpt lat="40.71314446578671" lon="14.941467832069774"><ele>174.0</ele><time>2026-04-25T11:36:41.999Z</time></trkpt><trkpt lat="40.713166262527274" lon="14.941615192136126"><ele>174.0</ele><time>2026-04-25T11:36:42.999Z</time></trkpt><trkpt lat="40.71318993337746" lon="14.941743653793678"><ele>174.0</ele><time>2026-04-25T11:36:43.999Z</time></trkpt><trkpt lat="40.713212208981396" lon="14.941866757421897"><ele>174.0</ele><time>2026-04-25T11:36:44.999Z</time></trkpt><trkpt lat="40.71323574839247" lon="14.941991746385055"><ele>174.0</ele><time>2026-04-25T11:36:45.999Z</time></trkpt><trkpt lat="40.71325503608757" lon="14.94211612243935"><ele>174.16666666666666</ele><time>2026-04-25T11:36:46.999Z</time></trkpt><trkpt lat="40.71327007402299" lon="14.942239778630059"><ele>174.33333333333334</ele><time>2026-04-25T11:36:47.999Z</time></trkpt><trkpt lat="40.71326533275277" lon="14.942354200646307"><ele>174.5</ele><time>2026-04-25T11:36:48.999Z</time></trkpt><trkpt lat="40.71328121519073" lon="14.94246666016394"><ele>174.66666666666669</ele><time>2026-04-25T11:36:49.999Z</time></trkpt><trkpt lat="40.713320300740406" lon="14.942580934275016"><ele>174.83333333333334</ele><time>2026-04-25T11:36:50.999Z</time></trkpt><trkpt lat="40.71334693280412" lon="14.942687089978348"><ele>175.0</ele><time>2026-04-25T11:36:51.999Z</time></trkpt><trkpt lat="40.713395456811895" lon="14.94276916082719"><ele>175.0</ele><time>2026-04-25T11:36:52.999Z</time></trkpt><trkpt lat="40.713470644964616" lon="14.942823557395126"><ele>175.0</ele><time>2026-04-25T11:36:53.999Z</time></trkpt><trkpt lat="40.71356670254922" lon="14.942842165628731"><ele>175.0</ele><time>2026-04-25T11:36:54.999Z</time></trkpt><trkpt lat="40.71367041541038" lon="14.942821516321775"><ele>175.0</ele><time>2026-04-25T11:36:55.999Z</time></trkpt><trkpt lat="40.71377650095184" lon="14.94278076410003"><ele>175.0</ele><time>2026-04-25T11:36:56.999Z</time></trkpt><trkpt lat="40.713876981947784" lon="14.942755646981366"><ele>175.2</ele><time>2026-04-25T11:36:57.999Z</time></trkpt><trkpt lat="40.71396880798162" lon="14.942741769019703"><ele>175.4</ele><time>2026-04-25T11:36:58.999Z</time></trkpt><trkpt lat="40.71405492576668" lon="14.942737976249818"><ele>175.60000000000002</ele><time>2026-04-25T11:36:59.999Z</time></trkpt><trkpt lat="40.71414269629004" lon="14.942762485809329"><ele>175.8</ele><time>2026-04-25T11:37:00.999Z</time></trkpt><trkpt lat="40.71422730313997" lon="14.942840366417762"><ele>176.0</ele><time>2026-04-25T11:37:01.999Z</time></trkpt><trkpt lat="40.71429270552675" lon="14.942921557824398"><ele>176.0</ele><time>2026-04-25T11:37:02.999Z</time></trkpt><trkpt lat="40.71434828819181" lon="14.942998138004073"><ele>176.0</ele><time>2026-04-25T11:37:03.999Z</time></trkpt><trkpt lat="40.714364083960646" lon="14.943104177167958"><ele>176.0</ele><time>2026-04-25T11:37:04.999Z</time></trkpt><trkpt lat="40.71441692501423" lon="14.943176853890803"><ele>176.0</ele><time>2026-04-25T11:37:05.999Z</time></trkpt><trkpt lat="40.714458732044996" lon="14.943263161586119"><ele>176.0</ele><time>2026-04-25T11:37:06.999Z</time></trkpt><trkpt lat="40.71451144262484" lon="14.943333082436155"><ele>176.0</ele><time>2026-04-25T11:37:07.999Z</time></trkpt><trkpt lat="40.714581651224115" lon="14.943386822569444"><ele>177.0</ele><time>2026-04-25T11:37:08.999Z</time></trkpt><trkpt lat="40.71466411560718" lon="14.943408541893573"><ele>178.0</ele><time>2026-04-25T11:37:09.999Z</time></trkpt><trkpt lat="40.71474529154035" lon="14.943400116630675"><ele>179.0</ele><time>2026-04-25T11:37:10.999Z</time></trkpt><trkpt lat="40.714815283240675" lon="14.943376522603787"><ele>180.0</ele><time>2026-04-25T11:37:11.999Z</time></trkpt><trkpt lat="40.71492556738688" lon="14.943333395264945"><ele>181.0</ele><time>2026-04-25T11:37:13.999Z</time></trkpt><trkpt lat="40.71503017032324" lon="14.943307436842131"><ele>181.0</ele><time>2026-04-25T11:37:15.999Z</time></trkpt><trkpt lat="40.715108941561354" lon="14.943296803787188"><ele>181.0</ele><time>2026-04-25T11:37:17.999Z</time></trkpt><trkpt lat="40.7152212452024" lon="14.943411249698695"><ele>181.0</ele><time>2026-04-25T11:37:19.999Z</time></trkpt><trkpt lat="40.7152944737449" lon="14.943524794093866"><ele>181.0</ele><time>2026-04-25T11:37:20.999Z</time></trkpt><trkpt lat="40.71535009275983" lon="14.943633932267831"><ele>181.0</ele><time>2026-04-25T11:37:21.999Z</time></trkpt><trkpt lat="40.71539389466112" lon="14.943738303556431"><ele>180.83333333333334</ele><time>2026-04-25T11:37:22.999Z</time></trkpt><trkpt lat="40.71542721115578" lon="14.943833790531704"><ele>180.66666666666669</ele><time>2026-04-25T11:37:23.999Z</time></trkpt><trkpt lat="40.71545871719094" lon="14.943914991735449"><ele>180.5</ele><time>2026-04-25T11:37:24.999Z</time></trkpt><trkpt lat="40.71548658566009" lon="14.94399642453319"><ele>180.33333333333334</ele><time>2026-04-25T11:37:25.999Z</time></trkpt><trkpt lat="40.7155028373828" lon="14.944092904227594"><ele>180.16666666666666</ele><time>2026-04-25T11:37:26.999Z</time></trkpt><trkpt lat="40.71550381486247" lon="14.944208517278442"><ele>180.0</ele><time>2026-04-25T11:37:27.999Z</time></trkpt><trkpt lat="40.71548332659464" lon="14.94435922921401"><ele>180.0</ele><time>2026-04-25T11:37:28.998Z</time></trkpt><trkpt lat="40.71545058939059" lon="14.944509207639886"><ele>180.0</ele><time>2026-04-25T11:37:29.998Z</time></trkpt><trkpt lat="40.715421298257766" lon="14.944665713248867"><ele>180.0</ele><time>2026-04-25T11:37:30.998Z</time></trkpt><trkpt lat="40.71538603772843" lon="14.944840020703467"><ele>180.0</ele><time>2026-04-25T11:37:31.998Z</time></trkpt><trkpt lat="40.715348315073875" lon="14.945000672449279"><ele>178.25</ele><time>2026-04-25T11:37:32.998Z</time></trkpt><trkpt lat="40.71531794151645" lon="14.945148548873746"><ele>176.5</ele><time>2026-04-25T11:37:33.998Z</time></trkpt><trkpt lat="40.71529955110579" lon="14.945296047987776"><ele>174.75</ele><time>2026-04-25T11:37:34.998Z</time></trkpt><trkpt lat="40.71528231165258" lon="14.945448791593611"><ele>173.0</ele><time>2026-04-25T11:37:35.998Z</time></trkpt><trkpt lat="40.71525535025208" lon="14.945633961295174"><ele>172.0</ele><time>2026-04-25T11:37:36.998Z</time></trkpt><trkpt lat="40.71522336280305" lon="14.945824822015418"><ele>171.0</ele><time>2026-04-25T11:37:37.998Z</time></trkpt><trkpt lat="40.715191275591586" lon="14.946002492270587"><ele>170.0</ele><time>2026-04-25T11:37:38.998Z</time></trkpt><trkpt lat="40.71515785864179" lon="14.946172671548323"><ele>169.0</ele><time>2026-04-25T11:37:39.998Z</time></trkpt><trkpt lat="40.71509800450329" lon="14.946355155533494"><ele>169.0</ele><time>2026-04-25T11:37:40.998Z</time></trkpt><trkpt lat="40.71501773839215" lon="14.946538326752105"><ele>169.0</ele><time>2026-04-25T11:37:41.998Z</time></trkpt><trkpt lat="40.7149293219172" lon="14.946714696020429"><ele>169.0</ele><time>2026-04-25T11:37:42.998Z</time></trkpt><trkpt lat="40.71482680269064" lon="14.946877707520922"><ele>172.0</ele><time>2026-04-25T11:37:43.998Z</time></trkpt><trkpt lat="40.71470949306811" lon="14.947020086882507"><ele>175.0</ele><time>2026-04-25T11:37:44.998Z</time></trkpt><trkpt lat="40.71457501930465" lon="14.947134627806186"><ele>178.0</ele><time>2026-04-25T11:37:45.998Z</time></trkpt><trkpt lat="40.714416066757025" lon="14.947224493829964"><ele>178.33333333333334</ele><time>2026-04-25T11:37:46.998Z</time></trkpt><trkpt lat="40.714252687962656" lon="14.947289206146612"><ele>178.66666666666666</ele><time>2026-04-25T11:37:47.998Z</time></trkpt><trkpt lat="40.714098596663376" lon="14.947339796799465"><ele>179.0</ele><time>2026-04-25T11:37:48.998Z</time></trkpt><trkpt lat="40.71394098437868" lon="14.947402410456986"><ele>179.0</ele><time>2026-04-25T11:37:49.998Z</time></trkpt><trkpt lat="40.713773524519915" lon="14.947488530801825"><ele>179.0</ele><time>2026-04-25T11:37:50.998Z</time></trkpt><trkpt lat="40.71362082750481" lon="14.94757942255459"><ele>179.0</ele><time>2026-04-25T11:37:51.998Z</time></trkpt><trkpt lat="40.71349371546881" lon="14.947666292632515"><ele>181.0</ele><time>2026-04-25T11:37:52.998Z</time></trkpt><trkpt lat="40.71338364793883" lon="14.947730390763676"><ele>183.0</ele><time>2026-04-25T11:37:53.998Z</time></trkpt><trkpt lat="40.7132717603015" lon="14.947761594868728"><ele>185.0</ele><time>2026-04-25T11:37:54.999Z</time></trkpt><trkpt lat="40.71316638873115" lon="14.947704290697"><ele>187.0</ele><time>2026-04-25T11:37:55.999Z</time></trkpt><trkpt lat="40.713037746704764" lon="14.947648800380694"><ele>187.0</ele><time>2026-04-25T11:37:56.999Z</time></trkpt><trkpt lat="40.712897317781646" lon="14.947596453024708"><ele>187.0</ele><time>2026-04-25T11:37:57.999Z</time></trkpt><trkpt lat="40.712733300734705" lon="14.947621258273658"><ele>187.0</ele><time>2026-04-25T11:37:58.999Z</time></trkpt><trkpt lat="40.712562955132206" lon="14.947685392667422"><ele>187.0</ele><time>2026-04-25T11:37:59.999Z</time></trkpt><trkpt lat="40.712391051474384" lon="14.94776438502534"><ele>187.0</ele><time>2026-04-25T11:38:00.999Z</time></trkpt><trkpt lat="40.712214294363385" lon="14.947845978391019"><ele>187.0</ele><time>2026-04-25T11:38:01.999Z</time></trkpt><trkpt lat="40.7120328990149" lon="14.947927817375222"><ele>185.66666666666669</ele><time>2026-04-25T11:38:02.999Z</time></trkpt><trkpt lat="40.71186064240764" lon="14.948004666437347"><ele>184.33333333333334</ele><time>2026-04-25T11:38:03.999Z</time></trkpt><trkpt lat="40.71171025636813" lon="14.94807237034877"><ele>183.0</ele><time>2026-04-25T11:38:04.999Z</time></trkpt><trkpt lat="40.71157143935713" lon="14.94814677262923"><ele>183.0</ele><time>2026-04-25T11:38:05.999Z</time></trkpt><trkpt lat="40.71144804480425" lon="14.948225327565476"><ele>183.0</ele><time>2026-04-25T11:38:06.999Z</time></trkpt><trkpt lat="40.711344332161744" lon="14.948331866428214"><ele>183.0</ele><time>2026-04-25T11:38:07.999Z</time></trkpt><trkpt lat="40.71126473688528" lon="14.94848790734099"><ele>183.0</ele><time>2026-04-25T11:38:08.999Z</time></trkpt><trkpt lat="40.71121134759529" lon="14.948649841152525"><ele>185.0</ele><time>2026-04-25T11:38:09.999Z</time></trkpt><trkpt lat="40.711160691193186" lon="14.94877018279049"><ele>187.0</ele><time>2026-04-25T11:38:10.999Z</time></trkpt><trkpt lat="40.71108422028379" lon="14.94883398513868"><ele>189.0</ele><time>2026-04-25T11:38:11.999Z</time></trkpt><trkpt lat="40.71099191160173" lon="14.948836719850169"><ele>191.0</ele><time>2026-04-25T11:38:12.999Z</time></trkpt><trkpt lat="40.710893225887794" lon="14.948775642688148"><ele>193.0</ele><time>2026-04-25T11:38:13.999Z</time></trkpt><trkpt lat="40.71079122393085" lon="14.948667093086504"><ele>193.0</ele><time>2026-04-25T11:38:14.999Z</time></trkpt><trkpt lat="40.71068215695052" lon="14.948551866723664"><ele>193.0</ele><time>2026-04-25T11:38:15.999Z</time></trkpt><trkpt lat="40.71056437703817" lon="14.948471823955837"><ele>193.0</ele><time>2026-04-25T11:38:16.999Z</time></trkpt><trkpt lat="40.71044913702414" lon="14.948445307573316"><ele>193.0</ele><time>2026-04-25T11:38:17.999Z</time></trkpt><trkpt lat="40.71031201175596" lon="14.948465345149259"><ele>193.66666666666666</ele><time>2026-04-25T11:38:18.999Z</time></trkpt><trkpt lat="40.71015278388329" lon="14.948520949489465"><ele>194.33333333333331</ele><time>2026-04-25T11:38:19.999Z</time></trkpt><trkpt lat="40.70999327454154" lon="14.948577934270446"><ele>195.0</ele><time>2026-04-25T11:38:20.999Z</time></trkpt><trkpt lat="40.70984040034286" lon="14.948614576252089"><ele>195.0</ele><time>2026-04-25T11:38:21.999Z</time></trkpt><trkpt lat="40.709692717963726" lon="14.948656591883822"><ele>195.0</ele><time>2026-04-25T11:38:22.999Z</time></trkpt><trkpt lat="40.70956813822423" lon="14.948713287418062"><ele>195.0</ele><time>2026-04-25T11:38:23.999Z</time></trkpt><trkpt lat="40.70945789733734" lon="14.948805881126328"><ele>195.0</ele><time>2026-04-25T11:38:24.999Z</time></trkpt><trkpt lat="40.709350792299446" lon="14.948948384185957"><ele>193.66666666666666</ele><time>2026-04-25T11:38:25.999Z</time></trkpt><trkpt lat="40.709244659275136" lon="14.949125803558221"><ele>192.33333333333331</ele><time>2026-04-25T11:38:26.999Z</time></trkpt><trkpt lat="40.70915010992287" lon="14.949309775672592"><ele>191.0</ele><time>2026-04-25T11:38:27.999Z</time></trkpt><trkpt lat="40.709066960085934" lon="14.949458585290127"><ele>192.60000000000002</ele><time>2026-04-25T11:38:28.999Z</time></trkpt><trkpt lat="40.70900083507011" lon="14.94956169083847"><ele>194.2</ele><time>2026-04-25T11:38:29.999Z</time></trkpt><trkpt lat="40.70895678883968" lon="14.949635624922715"><ele>195.8</ele><time>2026-04-25T11:38:30.999Z</time></trkpt><trkpt lat="40.70891334675618" lon="14.94970081609989"><ele>197.39999999999998</ele><time>2026-04-25T11:38:36.999Z</time></trkpt><trkpt lat="40.70905342290473" lon="14.949558444404177"><ele>199.0</ele><time>2026-04-25T11:38:40.999Z</time></trkpt><trkpt lat="40.709117895600514" lon="14.949416932412522"><ele>199.0</ele><time>2026-04-25T11:38:41.999Z</time></trkpt><trkpt lat="40.70921269291124" lon="14.949243694508231"><ele>199.0</ele><time>2026-04-25T11:38:42.999Z</time></trkpt><trkpt lat="40.70931555980801" lon="14.949084580792649"><ele>199.0</ele><time>2026-04-25T11:38:43.999Z</time></trkpt><trkpt lat="40.709399531767275" lon="14.948958733269103"><ele>199.0</ele><time>2026-04-25T11:38:44.999Z</time></trkpt><trkpt lat="40.70947891891844" lon="14.948852848164806"><ele>198.2</ele><time>2026-04-25T11:38:45.999Z</time></trkpt><trkpt lat="40.709561668186815" lon="14.948766953374482"><ele>197.39999999999998</ele><time>2026-04-25T11:38:46.999Z</time></trkpt><trkpt lat="40.7096581470645" lon="14.948724756147936"><ele>196.6</ele><time>2026-04-25T11:38:47.999Z</time></trkpt><trkpt lat="40.70975127489906" lon="14.948689645358598"><ele>195.8</ele><time>2026-04-25T11:38:48.999Z</time></trkpt><trkpt lat="40.70983524984605" lon="14.948668125403257"><ele>195.0</ele><time>2026-04-25T11:38:49.999Z</time></trkpt><trkpt lat="40.709924951192285" lon="14.948625715880782"><ele>195.0</ele><time>2026-04-25T11:38:51.999Z</time></trkpt><trkpt lat="40.70999671355209" lon="14.948647208676691"><ele>195.0</ele><time>2026-04-25T11:38:53.999Z</time></trkpt><trkpt lat="40.71006904841205" lon="14.948654772824034"><ele>195.0</ele><time>2026-04-25T11:38:56.999Z</time></trkpt><trkpt lat="40.710042513469936" lon="14.948562697805514"><ele>195.0</ele><time>2026-04-25T11:39:02.999Z</time></trkpt><trkpt lat="40.70987729810294" lon="14.948598049823543"><ele>195.0</ele><time>2026-04-25T11:39:04.999Z</time></trkpt><trkpt lat="40.70975360079053" lon="14.948645883968547"><ele>195.0</ele><time>2026-04-25T11:39:05.999Z</time></trkpt><trkpt lat="40.70961198932597" lon="14.948705505067853"><ele>195.0</ele><time>2026-04-25T11:39:06.999Z</time></trkpt><trkpt lat="40.709500330791634" lon="14.948781629630414"><ele>195.0</ele><time>2026-04-25T11:39:07.999Z</time></trkpt><trkpt lat="40.7094263314565" lon="14.948873665580168"><ele>195.0</ele><time>2026-04-25T11:39:08.999Z</time></trkpt><trkpt lat="40.70936957440519" lon="14.948958971550814"><ele>194.2</ele><time>2026-04-25T11:39:09.999Z</time></trkpt><trkpt lat="40.70929896095765" lon="14.948981166913637"><ele>193.4</ele><time>2026-04-25T11:39:11.999Z</time></trkpt><trkpt lat="40.709291904929906" lon="14.948890609911757"><ele>192.60000000000002</ele><time>2026-04-25T11:39:12.999Z</time></trkpt><trkpt lat="40.70922347183128" lon="14.948764292842565"><ele>191.8</ele><time>2026-04-25T11:39:13.999Z</time></trkpt><trkpt lat="40.70912831594056" lon="14.948600339588396"><ele>191.0</ele><time>2026-04-25T11:39:14.999Z</time></trkpt><trkpt lat="40.70904612768443" lon="14.94843770051816"><ele>189.25</ele><time>2026-04-25T11:39:15.999Z</time></trkpt><trkpt lat="40.70898036385232" lon="14.94830046460909"><ele>187.5</ele><time>2026-04-25T11:39:16.999Z</time></trkpt><trkpt lat="40.708916883551" lon="14.948177690017497"><ele>185.75</ele><time>2026-04-25T11:39:17.999Z</time></trkpt><trkpt lat="40.7088444532235" lon="14.948063780398993"><ele>184.0</ele><time>2026-04-25T11:39:18.999Z</time></trkpt><trkpt lat="40.70876465043346" lon="14.947958362910633"><ele>184.0</ele><time>2026-04-25T11:39:19.999Z</time></trkpt><trkpt lat="40.70865578144285" lon="14.947840322031233"><ele>184.0</ele><time>2026-04-25T11:39:20.999Z</time></trkpt><trkpt lat="40.70856895277946" lon="14.947694484315464"><ele>184.0</ele><time>2026-04-25T11:39:21.999Z</time></trkpt><trkpt lat="40.70848970946748" lon="14.947580107810591"><ele>184.0</ele><time>2026-04-25T11:39:22.999Z</time></trkpt><trkpt lat="40.70842539810428" lon="14.947484973321169"><ele>182.0</ele><time>2026-04-25T11:39:23.999Z</time></trkpt><trkpt lat="40.70835403567158" lon="14.947409616516925"><ele>180.0</ele><time>2026-04-25T11:39:24.999Z</time></trkpt><trkpt lat="40.70830145683632" lon="14.947319812243542"><ele>178.0</ele><time>2026-04-25T11:39:25.999Z</time></trkpt><trkpt lat="40.70825870949303" lon="14.947223814331917"><ele>176.0</ele><time>2026-04-25T11:39:26.999Z</time></trkpt><trkpt lat="40.708250471790144" lon="14.947108530083826"><ele>174.0</ele><time>2026-04-25T11:39:27.999Z</time></trkpt><trkpt lat="40.70825665896064" lon="14.946988444253307"><ele>172.0</ele><time>2026-04-25T11:39:28.999Z</time></trkpt><trkpt lat="40.70827110692071" lon="14.946839310928887"><ele>170.2</ele><time>2026-04-25T11:39:29.999Z</time></trkpt><trkpt lat="40.70828423339619" lon="14.946660958058605"><ele>168.39999999999998</ele><time>2026-04-25T11:39:30.999Z</time></trkpt><trkpt lat="40.70829015897163" lon="14.946521043815775"><ele>166.60000000000002</ele><time>2026-04-25T11:39:31.999Z</time></trkpt><trkpt lat="40.708284315762846" lon="14.946417711470653"><ele>164.8</ele><time>2026-04-25T11:39:32.998Z</time></trkpt><trkpt lat="40.708238628945296" lon="14.946337127027359"><ele>163.0</ele><time>2026-04-25T11:39:33.998Z</time></trkpt><trkpt lat="40.7081259236884" lon="14.946283806918242"><ele>163.0</ele><time>2026-04-25T11:39:34.998Z</time></trkpt><trkpt lat="40.70798610410265" lon="14.946208972455521"><ele>163.0</ele><time>2026-04-25T11:39:35.998Z</time></trkpt><trkpt lat="40.70783728766091" lon="14.946128429780412"><ele>163.0</ele><time>2026-04-25T11:39:36.998Z</time></trkpt><trkpt lat="40.70770610600262" lon="14.946051477289695"><ele>163.2</ele><time>2026-04-25T11:39:37.998Z</time></trkpt><trkpt lat="40.70759556436946" lon="14.94600454346336"><ele>163.4</ele><time>2026-04-25T11:39:38.998Z</time></trkpt><trkpt lat="40.707521787116775" lon="14.945934937752096"><ele>163.6</ele><time>2026-04-25T11:39:39.998Z</time></trkpt><trkpt lat="40.70745989291557" lon="14.945840104080775"><ele>163.79999999999998</ele><time>2026-04-25T11:39:40.998Z</time></trkpt><trkpt lat="40.707409809372955" lon="14.945721651913235"><ele>164.0</ele><time>2026-04-25T11:39:41.998Z</time></trkpt><trkpt lat="40.70737009279302" lon="14.945588666530735"><ele>162.25</ele><time>2026-04-25T11:39:42.998Z</time></trkpt><trkpt lat="40.70731144531949" lon="14.945477481273025"><ele>160.5</ele><time>2026-04-25T11:39:43.998Z</time></trkpt><trkpt lat="40.707274740201356" lon="14.945375092528188"><ele>158.75</ele><time>2026-04-25T11:39:44.998Z</time></trkpt><trkpt lat="40.707218447424985" lon="14.945292065588362"><ele>157.0</ele><time>2026-04-25T11:39:46.998Z</time></trkpt><trkpt lat="40.707051190916125" lon="14.94544511358747"><ele>157.0</ele><time>2026-04-25T11:39:50.998Z</time></trkpt><trkpt lat="40.706964648717715" lon="14.94559661689083"><ele>157.0</ele><time>2026-04-25T11:39:51.998Z</time></trkpt><trkpt lat="40.70682970405066" lon="14.945758370039812"><ele>157.0</ele><time>2026-04-25T11:39:52.998Z</time></trkpt><trkpt lat="40.70671924932286" lon="14.9459763097673"><ele>157.75</ele><time>2026-04-25T11:39:53.998Z</time></trkpt><trkpt lat="40.70662212482881" lon="14.946159622520101"><ele>158.5</ele><time>2026-04-25T11:39:54.998Z</time></trkpt><trkpt lat="40.70654942045861" lon="14.946309139263535"><ele>159.25</ele><time>2026-04-25T11:39:55.998Z</time></trkpt><trkpt lat="40.70648186689979" lon="14.946446564251943"><ele>160.0</ele><time>2026-04-25T11:39:56.998Z</time></trkpt><trkpt lat="40.7063958497276" lon="14.946636304830925"><ele>159.75</ele><time>2026-04-25T11:39:57.998Z</time></trkpt><trkpt lat="40.70631661798263" lon="14.946823727386647"><ele>159.5</ele><time>2026-04-25T11:39:58.998Z</time></trkpt><trkpt lat="40.70624760251541" lon="14.94697699590782"><ele>159.25</ele><time>2026-04-25T11:39:59.998Z</time></trkpt><trkpt lat="40.706180018973754" lon="14.947115612597232"><ele>159.0</ele><time>2026-04-25T11:40:00.999Z</time></trkpt><trkpt lat="40.70611996568028" lon="14.947246038522678"><ele>159.0</ele><time>2026-04-25T11:40:01.999Z</time></trkpt><trkpt lat="40.70608227648284" lon="14.947386461769957"><ele>159.0</ele><time>2026-04-25T11:40:02.999Z</time></trkpt><trkpt lat="40.706077163289585" lon="14.9475608188489"><ele>159.0</ele><time>2026-04-25T11:40:03.999Z</time></trkpt><trkpt lat="40.70610419449678" lon="14.947780895802074"><ele>159.0</ele><time>2026-04-25T11:40:04.999Z</time></trkpt><trkpt lat="40.70612263273365" lon="14.947996308611502"><ele>159.33333333333334</ele><time>2026-04-25T11:40:05.999Z</time></trkpt><trkpt lat="40.70612615118474" lon="14.94821209304492"><ele>159.66666666666669</ele><time>2026-04-25T11:40:06.999Z</time></trkpt><trkpt lat="40.70612166487101" lon="14.948428546118546"><ele>160.0</ele><time>2026-04-25T11:40:07.999Z</time></trkpt><trkpt lat="40.706080300196966" lon="14.948635837188542"><ele>161.66666666666669</ele><time>2026-04-25T11:40:08.999Z</time></trkpt><trkpt lat="40.706053261261665" lon="14.948869909263742"><ele>163.33333333333334</ele><time>2026-04-25T11:40:09.999Z</time></trkpt><trkpt lat="40.70602405175436" lon="14.949086529095915"><ele>165.0</ele><time>2026-04-25T11:40:10.999Z</time></trkpt><trkpt lat="40.70600834214212" lon="14.949296913081154"><ele>166.0</ele><time>2026-04-25T11:40:11.999Z</time></trkpt><trkpt lat="40.705987849929265" lon="14.9495007538111"><ele>167.0</ele><time>2026-04-25T11:40:12.999Z</time></trkpt><trkpt lat="40.70596686991712" lon="14.94967696880302"><ele>168.0</ele><time>2026-04-25T11:40:13.999Z</time></trkpt><trkpt lat="40.70593154449367" lon="14.949856758014128"><ele>169.0</ele><time>2026-04-25T11:40:14.999Z</time></trkpt><trkpt lat="40.70587386857913" lon="14.950056232046286"><ele>170.0</ele><time>2026-04-25T11:40:15.999Z</time></trkpt><trkpt lat="40.70582885662908" lon="14.95024161915622"><ele>171.0</ele><time>2026-04-25T11:40:16.999Z</time></trkpt><trkpt lat="40.70580360002546" lon="14.950396949203705"><ele>172.0</ele><time>2026-04-25T11:40:17.999Z</time></trkpt><trkpt lat="40.70579866184759" lon="14.950532598347934"><ele>173.0</ele><time>2026-04-25T11:40:18.999Z</time></trkpt><trkpt lat="40.70579849446488" lon="14.950650855013151"><ele>173.0</ele><time>2026-04-25T11:40:19.999Z</time></trkpt><trkpt lat="40.70579747475587" lon="14.950750770427051"><ele>173.0</ele><time>2026-04-25T11:40:20.999Z</time></trkpt><trkpt lat="40.70576921052597" lon="14.950898969485094"><ele>173.0</ele><time>2026-04-25T11:40:22.999Z</time></trkpt><trkpt lat="40.705779892411165" lon="14.950989828670641"><ele>173.0</ele><time>2026-04-25T11:40:23.999Z</time></trkpt><trkpt lat="40.70566401815205" lon="14.951118243675145"><ele>173.0</ele><time>2026-04-25T11:40:24.999Z</time></trkpt><trkpt lat="40.70560664556618" lon="14.951273939021489"><ele>173.5</ele><time>2026-04-25T11:40:25.999Z</time></trkpt><trkpt lat="40.7055685547863" lon="14.951386132005782"><ele>174.0</ele><time>2026-04-25T11:40:26.999Z</time></trkpt><trkpt lat="40.70552625447079" lon="14.951470856683752"><ele>174.5</ele><time>2026-04-25T11:40:27.999Z</time></trkpt><trkpt lat="40.70547338563572" lon="14.95153244441377"><ele>175.0</ele><time>2026-04-25T11:40:28.999Z</time></trkpt><trkpt lat="40.70537687028141" lon="14.951571116542985"><ele>175.5</ele><time>2026-04-25T11:40:30.999Z</time></trkpt><trkpt lat="40.70530765966829" lon="14.951640976363583"><ele>176.0</ele><time>2026-04-25T11:40:33.999Z</time></trkpt><trkpt lat="40.7052422608277" lon="14.951766249188871"><ele>176.16666666666666</ele><time>2026-04-25T11:40:35.999Z</time></trkpt><trkpt lat="40.7052011787827" lon="14.951863052166646"><ele>176.33333333333331</ele><time>2026-04-25T11:40:36.999Z</time></trkpt><trkpt lat="40.705174957015686" lon="14.951959160065057"><ele>176.5</ele><time>2026-04-25T11:40:37.999Z</time></trkpt><trkpt lat="40.705157048081986" lon="14.952041597036578"><ele>176.66666666666666</ele><time>2026-04-25T11:40:38.999Z</time></trkpt><trkpt lat="40.7051253442664" lon="14.95213384608165"><ele>176.83333333333334</ele><time>2026-04-25T11:40:39.999Z</time></trkpt><trkpt lat="40.70508503265802" lon="14.952249193307887"><ele>177.0</ele><time>2026-04-25T11:40:40.999Z</time></trkpt><trkpt lat="40.705037775222664" lon="14.952372727026091"><ele>177.0</ele><time>2026-04-25T11:40:41.999Z</time></trkpt><trkpt lat="40.704993328796235" lon="14.952499728398026"><ele>177.0</ele><time>2026-04-25T11:40:42.999Z</time></trkpt><trkpt lat="40.70495898259808" lon="14.952611949299156"><ele>177.0</ele><time>2026-04-25T11:40:43.999Z</time></trkpt><trkpt lat="40.70492761733634" lon="14.952715522839899"><ele>177.0</ele><time>2026-04-25T11:40:44.999Z</time></trkpt><trkpt lat="40.704895839132675" lon="14.952824032918713"><ele>177.0</ele><time>2026-04-25T11:40:45.999Z</time></trkpt><trkpt lat="40.70486569182032" lon="14.952933836581778"><ele>177.39999999999998</ele><time>2026-04-25T11:40:46.999Z</time></trkpt><trkpt lat="40.704839713838105" lon="14.953043291804567"><ele>177.79999999999998</ele><time>2026-04-25T11:40:47.999Z</time></trkpt><trkpt lat="40.70480190961117" lon="14.953166134261735"><ele>178.2</ele><time>2026-04-25T11:40:48.999Z</time></trkpt><trkpt lat="40.70476727899352" lon="14.953276546422062"><ele>178.6</ele><time>2026-04-25T11:40:49.999Z</time></trkpt><trkpt lat="40.70473831984633" lon="14.953382449904694"><ele>179.0</ele><time>2026-04-25T11:40:50.999Z</time></trkpt><trkpt lat="40.70470513036849" lon="14.953497376755346"><ele>179.79999999999998</ele><time>2026-04-25T11:40:51.999Z</time></trkpt><trkpt lat="40.70466752347788" lon="14.953608977382991"><ele>180.6</ele><time>2026-04-25T11:40:52.999Z</time></trkpt><trkpt lat="40.70462479530228" lon="14.95373717012753"><ele>181.4</ele><time>2026-04-25T11:40:53.999Z</time></trkpt><trkpt lat="40.704585323143725" lon="14.953863728951944"><ele>182.2</ele><time>2026-04-25T11:40:54.999Z</time></trkpt><trkpt lat="40.704543160585494" lon="14.953980056987584"><ele>183.0</ele><time>2026-04-25T11:40:55.999Z</time></trkpt><trkpt lat="40.704495121522626" lon="14.954090464486082"><ele>183.5</ele><time>2026-04-25T11:40:56.999Z</time></trkpt><trkpt lat="40.704457650939865" lon="14.954217601607475"><ele>184.0</ele><time>2026-04-25T11:40:57.999Z</time></trkpt><trkpt lat="40.70442845105785" lon="14.954372158201258"><ele>184.5</ele><time>2026-04-25T11:40:58.999Z</time></trkpt><trkpt lat="40.70441583597224" lon="14.954564389341217"><ele>185.0</ele><time>2026-04-25T11:40:59.999Z</time></trkpt><trkpt lat="40.704402626928065" lon="14.954729668278581"><ele>184.4</ele><time>2026-04-25T11:41:00.999Z</time></trkpt><trkpt lat="40.704382396934015" lon="14.95485970201501"><ele>183.8</ele><time>2026-04-25T11:41:01.999Z</time></trkpt><trkpt lat="40.70435279167512" lon="14.954970796226418"><ele>183.2</ele><time>2026-04-25T11:41:02.999Z</time></trkpt><trkpt lat="40.704307178375736" lon="14.95507630683097"><ele>182.6</ele><time>2026-04-25T11:41:03.999Z</time></trkpt><trkpt lat="40.704236034469275" lon="14.955191380860771"><ele>182.0</ele><time>2026-04-25T11:41:04.999Z</time></trkpt><trkpt lat="40.70415551339866" lon="14.955302014807744"><ele>182.0</ele><time>2026-04-25T11:41:05.999Z</time></trkpt><trkpt lat="40.704072577426246" lon="14.95540338210826"><ele>182.0</ele><time>2026-04-25T11:41:06.999Z</time></trkpt><trkpt lat="40.703999862634916" lon="14.955509057088957"><ele>182.0</ele><time>2026-04-25T11:41:07.999Z</time></trkpt><trkpt lat="40.703939280879275" lon="14.955626167253707"><ele>182.0</ele><time>2026-04-25T11:41:08.999Z</time></trkpt><trkpt lat="40.70387816712204" lon="14.955750346203288"><ele>182.0</ele><time>2026-04-25T11:41:09.999Z</time></trkpt><trkpt lat="40.70381242538917" lon="14.955869013738676"><ele>182.5</ele><time>2026-04-25T11:41:10.999Z</time></trkpt><trkpt lat="40.7037429972874" lon="14.956005811473938"><ele>183.0</ele><time>2026-04-25T11:41:11.999Z</time></trkpt><trkpt lat="40.703671007652254" lon="14.956172466792351"><ele>183.5</ele><time>2026-04-25T11:41:12.999Z</time></trkpt><trkpt lat="40.703599640249934" lon="14.956345743401053"><ele>184.0</ele><time>2026-04-25T11:41:13.999Z</time></trkpt><trkpt lat="40.70353175380891" lon="14.956484674916108"><ele>184.0</ele><time>2026-04-25T11:41:14.999Z</time></trkpt><trkpt lat="40.703469711805525" lon="14.956616213153087"><ele>184.0</ele><time>2026-04-25T11:41:15.999Z</time></trkpt><trkpt lat="40.70341507933356" lon="14.9567469389075"><ele>184.0</ele><time>2026-04-25T11:41:16.999Z</time></trkpt><trkpt lat="40.7033640910898" lon="14.956845898435702"><ele>184.0</ele><time>2026-04-25T11:41:17.999Z</time></trkpt><trkpt lat="40.70328611806682" lon="14.956949718977269"><ele>184.0</ele><time>2026-04-25T11:41:18.999Z</time></trkpt><trkpt lat="40.703180714134824" lon="14.957081135470904"><ele>184.25</ele><time>2026-04-25T11:41:19.999Z</time></trkpt><trkpt lat="40.70309220284636" lon="14.95719599322702"><ele>184.5</ele><time>2026-04-25T11:41:20.999Z</time></trkpt><trkpt lat="40.703035026553515" lon="14.957308660001258"><ele>184.75</ele><time>2026-04-25T11:41:21.999Z</time></trkpt><trkpt lat="40.70298559822963" lon="14.957449666143894"><ele>185.0</ele><time>2026-04-25T11:41:22.999Z</time></trkpt><trkpt lat="40.702941088305714" lon="14.95760923073015"><ele>185.5</ele><time>2026-04-25T11:41:23.999Z</time></trkpt><trkpt lat="40.702896081715366" lon="14.957777803326445"><ele>186.0</ele><time>2026-04-25T11:41:24.999Z</time></trkpt><trkpt lat="40.702851357999776" lon="14.957962850978591"><ele>186.5</ele><time>2026-04-25T11:41:25.999Z</time></trkpt><trkpt lat="40.70281267623426" lon="14.958141810218734"><ele>187.0</ele><time>2026-04-25T11:41:26.999Z</time></trkpt><trkpt lat="40.70276634129133" lon="14.95832008889642"><ele>188.5</ele><time>2026-04-25T11:41:27.999Z</time></trkpt><trkpt lat="40.702720919473514" lon="14.958484212802986"><ele>190.0</ele><time>2026-04-25T11:41:28.999Z</time></trkpt><trkpt lat="40.70267635520205" lon="14.958639928025201"><ele>191.5</ele><time>2026-04-25T11:41:29.999Z</time></trkpt><trkpt lat="40.70262975319877" lon="14.958801001728595"><ele>193.0</ele><time>2026-04-25T11:41:30.999Z</time></trkpt><trkpt lat="40.70258040297152" lon="14.958946345634837"><ele>193.0</ele><time>2026-04-25T11:41:31.999Z</time></trkpt><trkpt lat="40.70253366873036" lon="14.959078745936756"><ele>193.0</ele><time>2026-04-25T11:41:32.999Z</time></trkpt><trkpt lat="40.70249016858148" lon="14.959213450130049"><ele>193.0</ele><time>2026-04-25T11:41:33.999Z</time></trkpt><trkpt lat="40.70244742220359" lon="14.95934999717882"><ele>193.0</ele><time>2026-04-25T11:41:34.999Z</time></trkpt><trkpt lat="40.70240795271838" lon="14.959484987444796"><ele>193.0</ele><time>2026-04-25T11:41:35.999Z</time></trkpt><trkpt lat="40.702373868826264" lon="14.95960581451253"><ele>193.2</ele><time>2026-04-25T11:41:36.999Z</time></trkpt><trkpt lat="40.70233908493681" lon="14.95970404728027"><ele>193.4</ele><time>2026-04-25T11:41:37.999Z</time></trkpt><trkpt lat="40.702292909116146" lon="14.959800064551889"><ele>193.6</ele><time>2026-04-25T11:41:38.999Z</time></trkpt><trkpt lat="40.702229273475965" lon="14.959886065056862"><ele>193.79999999999998</ele><time>2026-04-25T11:41:39.999Z</time></trkpt><trkpt lat="40.7021372930783" lon="14.95995322953184"><ele>194.0</ele><time>2026-04-25T11:41:40.998Z</time></trkpt><trkpt lat="40.70207324244887" lon="14.960045862700934"><ele>194.33333333333334</ele><time>2026-04-25T11:41:41.998Z</time></trkpt><trkpt lat="40.702019414697396" lon="14.960110298611452"><ele>194.66666666666669</ele><time>2026-04-25T11:41:42.998Z</time></trkpt><trkpt lat="40.701983262990886" lon="14.960186419803845"><ele>195.0</ele><time>2026-04-25T11:41:43.998Z</time></trkpt><trkpt lat="40.701959440708364" lon="14.960286385331337"><ele>195.33333333333331</ele><time>2026-04-25T11:41:44.998Z</time></trkpt><trkpt lat="40.70191374025731" lon="14.960397588356457"><ele>195.66666666666666</ele><time>2026-04-25T11:41:45.998Z</time></trkpt><trkpt lat="40.701880970681145" lon="14.96047874215248"><ele>196.0</ele><time>2026-04-25T11:41:46.998Z</time></trkpt><trkpt lat="40.7017925955686" lon="14.96063075219325"><ele>196.33333333333331</ele><time>2026-04-25T11:41:48.998Z</time></trkpt><trkpt lat="40.701760682006736" lon="14.960751879848981"><ele>196.66666666666666</ele><time>2026-04-25T11:41:49.998Z</time></trkpt><trkpt lat="40.7017226026529" lon="14.960852307359412"><ele>197.0</ele><time>2026-04-25T11:41:50.998Z</time></trkpt><trkpt lat="40.70169507746655" lon="14.960928279472618"><ele>197.33333333333331</ele><time>2026-04-25T11:41:51.998Z</time></trkpt><trkpt lat="40.701664011704764" lon="14.961084186665177"><ele>197.66666666666666</ele><time>2026-04-25T11:41:53.998Z</time></trkpt><trkpt lat="40.70164254399751" lon="14.961183352011648"><ele>198.0</ele><time>2026-04-25T11:41:54.998Z</time></trkpt><trkpt lat="40.70159321790654" lon="14.961250652685818"><ele>198.33333333333334</ele><time>2026-04-25T11:41:56.998Z</time></trkpt><trkpt lat="40.70152776001305" lon="14.961261465770438"><ele>198.66666666666669</ele><time>2026-04-25T11:41:58.998Z</time></trkpt><trkpt lat="40.70144931426644" lon="14.96123992434698"><ele>199.0</ele><time>2026-04-25T11:41:59.998Z</time></trkpt><trkpt lat="40.701361479095766" lon="14.961193562994731"><ele>199.33333333333334</ele><time>2026-04-25T11:42:00.998Z</time></trkpt><trkpt lat="40.70126940081688" lon="14.961149124884473"><ele>199.66666666666669</ele><time>2026-04-25T11:42:01.998Z</time></trkpt><trkpt lat="40.70118708591236" lon="14.961117853363842"><ele>200.0</ele><time>2026-04-25T11:42:02.998Z</time></trkpt><trkpt lat="40.70110862891663" lon="14.961096047803377"><ele>201.0</ele><time>2026-04-25T11:42:03.998Z</time></trkpt><trkpt lat="40.70104129952055" lon="14.961079987320634"><ele>202.0</ele><time>2026-04-25T11:42:04.998Z</time></trkpt><trkpt lat="40.70092644413225" lon="14.961016235629623"><ele>203.0</ele><time>2026-04-25T11:42:07Z</time></trkpt><trkpt lat="40.70086305489083" lon="14.960956152011121"><ele>204.0</ele><time>2026-04-25T11:42:08Z</time></trkpt><trkpt lat="40.70074976966557" lon="14.960914000410046"><ele>205.0</ele><time>2026-04-25T11:42:10Z</time></trkpt><trkpt lat="40.70064858737856" lon="14.960962019506058"><ele>204.99999999999997</ele><time>2026-04-25T11:42:12Z</time></trkpt><trkpt lat="40.700592792282215" lon="14.961016889982803"><ele>205.0</ele><time>2026-04-25T11:42:13Z</time></trkpt><trkpt lat="40.700544964479946" lon="14.961076727234715"><ele>205.0</ele><time>2026-04-25T11:42:14Z</time></trkpt><trkpt lat="40.700443055917106" lon="14.961140986950534"><ele>205.0</ele><time>2026-04-25T11:42:16Z</time></trkpt><trkpt lat="40.700374258254236" lon="14.961178598970031"><ele>204.99999999999997</ele><time>2026-04-25T11:42:17Z</time></trkpt><trkpt lat="40.70029807588672" lon="14.961216400102746"><ele>205.0</ele><time>2026-04-25T11:42:18Z</time></trkpt><trkpt lat="40.700213738478844" lon="14.96122535191109"><ele>207.0</ele><time>2026-04-25T11:42:19Z</time></trkpt><trkpt lat="40.70011612585784" lon="14.961283420796612"><ele>209.0</ele><time>2026-04-25T11:42:20Z</time></trkpt><trkpt lat="40.700015443162314" lon="14.961328582797606"><ele>211.0</ele><time>2026-04-25T11:42:21Z</time></trkpt><trkpt lat="40.699913278245624" lon="14.961383883181181"><ele>213.0</ele><time>2026-04-25T11:42:21.999Z</time></trkpt><trkpt lat="40.6998390315268" lon="14.961446437090988"><ele>215.0</ele><time>2026-04-25T11:42:22.999Z</time></trkpt><trkpt lat="40.69977998204901" lon="14.961478222622288"><ele>215.0</ele><time>2026-04-25T11:42:23.999Z</time></trkpt><trkpt lat="40.699668761934106" lon="14.96144145525331"><ele>215.0</ele><time>2026-04-25T11:42:25.999Z</time></trkpt><trkpt lat="40.69958466630315" lon="14.961423599220733"><ele>215.0</ele><time>2026-04-25T11:42:26.999Z</time></trkpt><trkpt lat="40.699481477852984" lon="14.961457608010324"><ele>215.0</ele><time>2026-04-25T11:42:27.999Z</time></trkpt><trkpt lat="40.699374173072854" lon="14.961500543571383"><ele>215.0</ele><time>2026-04-25T11:42:28.999Z</time></trkpt><trkpt lat="40.69925439161043" lon="14.961542387750113"><ele>217.2</ele><time>2026-04-25T11:42:29.999Z</time></trkpt><trkpt lat="40.69912773721123" lon="14.961583243130391"><ele>219.4</ele><time>2026-04-25T11:42:30.999Z</time></trkpt><trkpt lat="40.699024314492114" lon="14.961593536706658"><ele>221.60000000000002</ele><time>2026-04-25T11:42:31.999Z</time></trkpt><trkpt lat="40.69893999860509" lon="14.961611132792589"><ele>223.8</ele><time>2026-04-25T11:42:32.999Z</time></trkpt><trkpt lat="40.69887849568388" lon="14.961658687504901"><ele>226.0</ele><time>2026-04-25T11:42:33.999Z</time></trkpt><trkpt lat="40.69881832858749" lon="14.96175058641104"><ele>226.0</ele><time>2026-04-25T11:42:34.999Z</time></trkpt><trkpt lat="40.69873154618664" lon="14.961840342456048"><ele>226.00000000000003</ele><time>2026-04-25T11:42:35.999Z</time></trkpt><trkpt lat="40.698615260780514" lon="14.96188684243098"><ele>226.00000000000003</ele><time>2026-04-25T11:42:36.999Z</time></trkpt><trkpt lat="40.698526188017105" lon="14.9619591093784"><ele>226.0</ele><time>2026-04-25T11:42:37.999Z</time></trkpt><trkpt lat="40.698450022205094" lon="14.962002509057536"><ele>226.0</ele><time>2026-04-25T11:42:38.999Z</time></trkpt><trkpt lat="40.69836527572297" lon="14.962046462039618"><ele>227.8</ele><time>2026-04-25T11:42:39.999Z</time></trkpt><trkpt lat="40.69826023996744" lon="14.962082990390252"><ele>229.60000000000002</ele><time>2026-04-25T11:42:40.999Z</time></trkpt><trkpt lat="40.69813631370119" lon="14.962091055717412"><ele>231.4</ele><time>2026-04-25T11:42:41.999Z</time></trkpt><trkpt lat="40.698023867147754" lon="14.96207256581521"><ele>233.2</ele><time>2026-04-25T11:42:42.999Z</time></trkpt><trkpt lat="40.697924725355094" lon="14.962054923385377"><ele>235.0</ele><time>2026-04-25T11:42:43.999Z</time></trkpt><trkpt lat="40.69784723556352" lon="14.962056116881808"><ele>234.99999999999997</ele><time>2026-04-25T11:42:44.999Z</time></trkpt><trkpt lat="40.69778112598618" lon="14.962075951890304"><ele>235.0</ele><time>2026-04-25T11:42:45.999Z</time></trkpt><trkpt lat="40.69771198802286" lon="14.962127089524"><ele>235.0</ele><time>2026-04-25T11:42:46.999Z</time></trkpt><trkpt lat="40.69764600919787" lon="14.96218773488786"><ele>235.0</ele><time>2026-04-25T11:42:47.999Z</time></trkpt><trkpt lat="40.6975741346719" lon="14.962211935785136"><ele>234.99999999999997</ele><time>2026-04-25T11:42:48.999Z</time></trkpt><trkpt lat="40.69748376434945" lon="14.962189121037241"><ele>235.0</ele><time>2026-04-25T11:42:49.999Z</time></trkpt><trkpt lat="40.69736385960883" lon="14.962137083345711"><ele>238.75</ele><time>2026-04-25T11:42:50.999Z</time></trkpt><trkpt lat="40.69724545835487" lon="14.962082760670668"><ele>242.5</ele><time>2026-04-25T11:42:51.999Z</time></trkpt><trkpt lat="40.697128077007065" lon="14.962056115398683"><ele>246.25</ele><time>2026-04-25T11:42:52.999Z</time></trkpt><trkpt lat="40.696996977768165" lon="14.962043258388091"><ele>250.0</ele><time>2026-04-25T11:42:53.999Z</time></trkpt><trkpt lat="40.69684169884914" lon="14.961995324521338"><ele>254.25</ele><time>2026-04-25T11:42:54.999Z</time></trkpt><trkpt lat="40.69667985111056" lon="14.961953192654995"><ele>258.5</ele><time>2026-04-25T11:42:55.999Z</time></trkpt><trkpt lat="40.69654829009681" lon="14.961928706786937"><ele>262.75</ele><time>2026-04-25T11:42:56.999Z</time></trkpt><trkpt lat="40.69643272421167" lon="14.961910115806711"><ele>267.0</ele><time>2026-04-25T11:42:57.999Z</time></trkpt><trkpt lat="40.69630504721063" lon="14.961884409128729"><ele>267.0</ele><time>2026-04-25T11:42:58.999Z</time></trkpt><trkpt lat="40.69618010368176" lon="14.961871652022538"><ele>267.0</ele><time>2026-04-25T11:42:59.999Z</time></trkpt><trkpt lat="40.69606381370413" lon="14.961845660580321"><ele>267.0</ele><time>2026-04-25T11:43:00.999Z</time></trkpt><trkpt lat="40.69595579228526" lon="14.961798317732214"><ele>267.0</ele><time>2026-04-25T11:43:01.999Z</time></trkpt><trkpt lat="40.695878798311426" lon="14.96169151955728"><ele>269.4</ele><time>2026-04-25T11:43:02.999Z</time></trkpt><trkpt lat="40.695781986413564" lon="14.961624731206983"><ele>271.79999999999995</ele><time>2026-04-25T11:43:03.999Z</time></trkpt><trkpt lat="40.69569904080734" lon="14.961577048098437"><ele>274.2</ele><time>2026-04-25T11:43:04.999Z</time></trkpt><trkpt lat="40.69561648823713" lon="14.961622440948622"><ele>276.59999999999997</ele><time>2026-04-25T11:43:06.999Z</time></trkpt><trkpt lat="40.695602278013325" lon="14.961799721077654"><ele>279.0</ele><time>2026-04-25T11:43:08.999Z</time></trkpt><trkpt lat="40.695601832611814" lon="14.961916517108573"><ele>280.2</ele><time>2026-04-25T11:43:09.999Z</time></trkpt><trkpt lat="40.695497527653096" lon="14.962016291250206"><ele>281.4</ele><time>2026-04-25T11:43:11.999Z</time></trkpt><trkpt lat="40.695401731298155" lon="14.961985754922601"><ele>282.6</ele><time>2026-04-25T11:43:12.999Z</time></trkpt><trkpt lat="40.69531585397033" lon="14.961965229956407"><ele>283.8</ele><time>2026-04-25T11:43:13.999Z</time></trkpt><trkpt lat="40.695239197243154" lon="14.961945713052861"><ele>285.0</ele><time>2026-04-25T11:43:14.999Z</time></trkpt><trkpt lat="40.69516304079974" lon="14.962010311461842"><ele>288.2</ele><time>2026-04-25T11:43:15.999Z</time></trkpt><trkpt lat="40.695098306048116" lon="14.962105178413598"><ele>291.4</ele><time>2026-04-25T11:43:16.999Z</time></trkpt><trkpt lat="40.69504377887382" lon="14.96215221988197"><ele>294.6</ele><time>2026-04-25T11:43:17.999Z</time></trkpt><trkpt lat="40.694973422437194" lon="14.96227158526026"><ele>297.8</ele><time>2026-04-25T11:43:19.999Z</time></trkpt><trkpt lat="40.69497647438868" lon="14.962401917717528"><ele>301.0</ele><time>2026-04-25T11:43:20.999Z</time></trkpt><trkpt lat="40.69500731859083" lon="14.96255016361366"><ele>302.5</ele><time>2026-04-25T11:43:21.999Z</time></trkpt><trkpt lat="40.69504542307308" lon="14.962708875932826"><ele>304.0</ele><time>2026-04-25T11:43:22.999Z</time></trkpt><trkpt lat="40.69507678121759" lon="14.962859670123091"><ele>305.5</ele><time>2026-04-25T11:43:23.999Z</time></trkpt><trkpt lat="40.69512170073519" lon="14.96300887625119"><ele>307.0</ele><time>2026-04-25T11:43:24.999Z</time></trkpt><trkpt lat="40.695144545716744" lon="14.963172102725574"><ele>307.0</ele><time>2026-04-25T11:43:25.999Z</time></trkpt><trkpt lat="40.69517075301508" lon="14.963316698688727"><ele>307.0</ele><time>2026-04-25T11:43:26.999Z</time></trkpt><trkpt lat="40.69519266045786" lon="14.963440396773041"><ele>307.0</ele><time>2026-04-25T11:43:27.999Z</time></trkpt><trkpt lat="40.69517145772095" lon="14.963556959528196"><ele>307.0</ele><time>2026-04-25T11:43:28.999Z</time></trkpt><trkpt lat="40.69516340360196" lon="14.963641334937266"><ele>307.0</ele><time>2026-04-25T11:43:29.999Z</time></trkpt><trkpt lat="40.69514404504467" lon="14.963753747922805"><ele>308.0</ele><time>2026-04-25T11:43:31.999Z</time></trkpt><trkpt lat="40.695128662712335" lon="14.963845397097904"><ele>309.0</ele><time>2026-04-25T11:43:34.999Z</time></trkpt><trkpt lat="40.695162422155214" lon="14.96392239047106"><ele>310.0</ele><time>2026-04-25T11:43:35.999Z</time></trkpt><trkpt lat="40.69517750121812" lon="14.964025709833981"><ele>311.0</ele><time>2026-04-25T11:43:37.999Z</time></trkpt><trkpt lat="40.69521387234063" lon="14.963919681680538"><ele>312.0</ele><time>2026-04-25T11:43:42.999Z</time></trkpt><trkpt lat="40.69517964685662" lon="14.963772778589098"><ele>313.0</ele><time>2026-04-25T11:43:43.999Z</time></trkpt><trkpt lat="40.695144397778265" lon="14.963570790095813"><ele>313.0</ele><time>2026-04-25T11:43:44.999Z</time></trkpt><trkpt lat="40.695098928431094" lon="14.963369286883045"><ele>313.0</ele><time>2026-04-25T11:43:45.998Z</time></trkpt><trkpt lat="40.695015581438625" lon="14.963196549097873"><ele>313.0</ele><time>2026-04-25T11:43:46.998Z</time></trkpt><trkpt lat="40.69488209278821" lon="14.96305116671971"><ele>311.5</ele><time>2026-04-25T11:43:47.998Z</time></trkpt><trkpt lat="40.6947374509189" lon="14.962943676216312"><ele>310.0</ele><time>2026-04-25T11:43:48.998Z</time></trkpt><trkpt lat="40.694631274665085" lon="14.962850697453552"><ele>308.5</ele><time>2026-04-25T11:43:49.998Z</time></trkpt><trkpt lat="40.69456504256858" lon="14.962726626435922"><ele>307.0</ele><time>2026-04-25T11:43:50.998Z</time></trkpt><trkpt lat="40.69456373952502" lon="14.96256295149797"><ele>305.5</ele><time>2026-04-25T11:43:51.998Z</time></trkpt><trkpt lat="40.69455562897687" lon="14.962395904308162"><ele>304.0</ele><time>2026-04-25T11:43:52.998Z</time></trkpt><trkpt lat="40.69457116172755" lon="14.962243205791149"><ele>302.5</ele><time>2026-04-25T11:43:53.998Z</time></trkpt><trkpt lat="40.69455803326743" lon="14.962082410489726"><ele>301.0</ele><time>2026-04-25T11:43:54.998Z</time></trkpt><trkpt lat="40.69450056684038" lon="14.961900502550831"><ele>307.3333333333333</ele><time>2026-04-25T11:43:55.998Z</time></trkpt><trkpt lat="40.69440083327384" lon="14.961705829335559"><ele>313.6666666666667</ele><time>2026-04-25T11:43:56.998Z</time></trkpt><trkpt lat="40.694295161855806" lon="14.96156045821369"><ele>320.0</ele><time>2026-04-25T11:43:57.998Z</time></trkpt><trkpt lat="40.69419936045039" lon="14.96144970944949"><ele>320.0</ele><time>2026-04-25T11:43:58.998Z</time></trkpt><trkpt lat="40.69408777587871" lon="14.961378867203985"><ele>320.0</ele><time>2026-04-25T11:43:59.998Z</time></trkpt><trkpt lat="40.693961904229035" lon="14.961344969297508"><ele>320.0</ele><time>2026-04-25T11:44:00.998Z</time></trkpt><trkpt lat="40.693855205785084" lon="14.961283288925427"><ele>320.0</ele><time>2026-04-25T11:44:01.998Z</time></trkpt><trkpt lat="40.69378633352684" lon="14.961156830840789"><ele>320.0</ele><time>2026-04-25T11:44:02.998Z</time></trkpt><trkpt lat="40.693764637788256" lon="14.960977452515014"><ele>320.0</ele><time>2026-04-25T11:44:03.998Z</time></trkpt><trkpt lat="40.69370139166348" lon="14.960786150155448"><ele>320.0</ele><time>2026-04-25T11:44:04.998Z</time></trkpt><trkpt lat="40.693598618579465" lon="14.9605996941251"><ele>323.0</ele><time>2026-04-25T11:44:05.998Z</time></trkpt><trkpt lat="40.69350350868312" lon="14.960440317393411"><ele>326.0</ele><time>2026-04-25T11:44:06.998Z</time></trkpt><trkpt lat="40.69342377444332" lon="14.960273451796105"><ele>329.0</ele><time>2026-04-25T11:44:07.998Z</time></trkpt><trkpt lat="40.6933677962433" lon="14.96011750492802"><ele>332.0</ele><time>2026-04-25T11:44:08.998Z</time></trkpt><trkpt lat="40.69332218675093" lon="14.960000113882115"><ele>332.0</ele><time>2026-04-25T11:44:09.998Z</time></trkpt><trkpt lat="40.69328518121381" lon="14.959905166130554"><ele>332.0</ele><time>2026-04-25T11:44:10.998Z</time></trkpt><trkpt lat="40.69325434086422" lon="14.959831204081603"><ele>332.0</ele><time>2026-04-25T11:44:12Z</time></trkpt><trkpt lat="40.69316389607919" lon="14.959705053174192"><ele>332.0</ele><time>2026-04-25T11:44:14Z</time></trkpt><trkpt lat="40.69308789416733" lon="14.95963217851185"><ele>332.0</ele><time>2026-04-25T11:44:15Z</time></trkpt><trkpt lat="40.6929873298193" lon="14.959563623793724"><ele>332.0</ele><time>2026-04-25T11:44:16Z</time></trkpt><trkpt lat="40.69288750469226" lon="14.95949703174373"><ele>332.0</ele><time>2026-04-25T11:44:17Z</time></trkpt><trkpt lat="40.692795780430366" lon="14.959414740972438"><ele>332.0</ele><time>2026-04-25T11:44:18Z</time></trkpt><trkpt lat="40.69271155937242" lon="14.959332990677995"><ele>332.0</ele><time>2026-04-25T11:44:19Z</time></trkpt><trkpt lat="40.692635920006836" lon="14.959248283259035"><ele>332.0</ele><time>2026-04-25T11:44:20Z</time></trkpt><trkpt lat="40.69259322705147" lon="14.959179442770992"><ele>334.0</ele><time>2026-04-25T11:44:21Z</time></trkpt><trkpt lat="40.69252562222014" lon="14.959019599188675"><ele>336.0</ele><time>2026-04-25T11:44:23Z</time></trkpt><trkpt lat="40.69249356283296" lon="14.958879617464202"><ele>338.0</ele><time>2026-04-25T11:44:24Z</time></trkpt><trkpt lat="40.69245069064014" lon="14.958751176919279"><ele>340.0</ele><time>2026-04-25T11:44:25Z</time></trkpt><trkpt lat="40.6924153168299" lon="14.958651650522429"><ele>342.0</ele><time>2026-04-25T11:44:26Z</time></trkpt><trkpt lat="40.692355177492495" lon="14.958581142341021"><ele>342.0</ele><time>2026-04-25T11:44:27Z</time></trkpt><trkpt lat="40.69227345584889" lon="14.958473775683574"><ele>342.0</ele><time>2026-04-25T11:44:27.999Z</time></trkpt><trkpt lat="40.69220925417235" lon="14.958339504041893"><ele>342.0</ele><time>2026-04-25T11:44:28.999Z</time></trkpt><trkpt lat="40.69214946535959" lon="14.95821208445752"><ele>342.0</ele><time>2026-04-25T11:44:29.999Z</time></trkpt><trkpt lat="40.69209664734259" lon="14.958099521020099"><ele>340.6</ele><time>2026-04-25T11:44:30.999Z</time></trkpt><trkpt lat="40.692057648562695" lon="14.958016408709717"><ele>339.20000000000005</ele><time>2026-04-25T11:44:31.999Z</time></trkpt><trkpt lat="40.69209852025593" lon="14.957801469086634"><ele>337.8</ele><time>2026-04-25T11:44:33.999Z</time></trkpt><trkpt lat="40.69212308358587" lon="14.957691345888438"><ele>336.4</ele><time>2026-04-25T11:44:34.999Z</time></trkpt><trkpt lat="40.69213262675687" lon="14.957589744874209"><ele>335.0</ele><time>2026-04-25T11:44:35.999Z</time></trkpt><trkpt lat="40.69211615104765" lon="14.957500582873765"><ele>334.0</ele><time>2026-04-25T11:44:36.999Z</time></trkpt><trkpt lat="40.69207991332965" lon="14.957429610079728"><ele>333.0</ele><time>2026-04-25T11:44:37.999Z</time></trkpt><trkpt lat="40.69203579010131" lon="14.95736995939459"><ele>332.0</ele><time>2026-04-25T11:44:38.999Z</time></trkpt><trkpt lat="40.69196878474206" lon="14.957308220389105"><ele>331.0</ele><time>2026-04-25T11:44:39.999Z</time></trkpt><trkpt lat="40.691864732531435" lon="14.95726423075657"><ele>330.0</ele><time>2026-04-25T11:44:40.999Z</time></trkpt><trkpt lat="40.69176966435797" lon="14.957206464396968"><ele>329.0</ele><time>2026-04-25T11:44:41.999Z</time></trkpt><trkpt lat="40.69169197166147" lon="14.957158644255651"><ele>331.83333333333337</ele><time>2026-04-25T11:44:42.999Z</time></trkpt><trkpt lat="40.69161641727816" lon="14.95711463477779"><ele>334.6666666666667</ele><time>2026-04-25T11:44:43.999Z</time></trkpt><trkpt lat="40.691545061377695" lon="14.957060359038508"><ele>337.5</ele><time>2026-04-25T11:44:44.999Z</time></trkpt><trkpt lat="40.69147477056786" lon="14.957012561459186"><ele>340.3333333333333</ele><time>2026-04-25T11:44:45.999Z</time></trkpt><trkpt lat="40.691408922030696" lon="14.956980215252559"><ele>343.16666666666663</ele><time>2026-04-25T11:44:46.999Z</time></trkpt><trkpt lat="40.691315321876694" lon="14.956952577941012"><ele>346.0</ele><time>2026-04-25T11:44:47.999Z</time></trkpt><trkpt lat="40.69119865744694" lon="14.956930446229538"><ele>350.25</ele><time>2026-04-25T11:44:48.999Z</time></trkpt><trkpt lat="40.691054472998964" lon="14.956902622325378"><ele>354.5</ele><time>2026-04-25T11:44:49.999Z</time></trkpt><trkpt lat="40.69092481411789" lon="14.956860822411539"><ele>358.75</ele><time>2026-04-25T11:44:50.999Z</time></trkpt><trkpt lat="40.69085494952107" lon="14.956828871520448"><ele>363.0</ele><time>2026-04-25T11:44:51.999Z</time></trkpt><trkpt lat="40.69074649092629" lon="14.956778218780995"><ele>363.0</ele><time>2026-04-25T11:44:53.999Z</time></trkpt><trkpt lat="40.690661321640675" lon="14.95671418536434"><ele>363.0</ele><time>2026-04-25T11:44:54.999Z</time></trkpt><trkpt lat="40.69060475823905" lon="14.95660489199025"><ele>363.0</ele><time>2026-04-25T11:44:55.999Z</time></trkpt><trkpt lat="40.690533854595245" lon="14.956481524051279"><ele>363.0</ele><time>2026-04-25T11:44:56.999Z</time></trkpt><trkpt lat="40.690466473699736" lon="14.956357604067081"><ele>363.0</ele><time>2026-04-25T11:44:57.999Z</time></trkpt><trkpt lat="40.69040450467299" lon="14.956236550508368"><ele>362.0</ele><time>2026-04-25T11:44:58.999Z</time></trkpt><trkpt lat="40.69035191836136" lon="14.956133997080592"><ele>361.0</ele><time>2026-04-25T11:44:59.999Z</time></trkpt><trkpt lat="40.690307833385255" lon="14.956056835160819"><ele>360.0</ele><time>2026-04-25T11:45:00.999Z</time></trkpt><trkpt lat="40.690259027759716" lon="14.955966222078876"><ele>359.0</ele><time>2026-04-25T11:45:02.999Z</time></trkpt><trkpt lat="40.69019078568187" lon="14.955890182695189"><ele>358.0</ele><time>2026-04-25T11:45:05.999Z</time></trkpt><trkpt lat="40.69012780236676" lon="14.955830974898609"><ele>357.0</ele><time>2026-04-25T11:45:06.999Z</time></trkpt><trkpt lat="40.69006920989048" lon="14.955740678094575"><ele>357.0</ele><time>2026-04-25T11:45:07.999Z</time></trkpt><trkpt lat="40.690003126928936" lon="14.955622199928207"><ele>357.0</ele><time>2026-04-25T11:45:08.999Z</time></trkpt><trkpt lat="40.6899401549545" lon="14.955507356371966"><ele>357.0</ele><time>2026-04-25T11:45:09.999Z</time></trkpt><trkpt lat="40.689859760459456" lon="14.955387590673086"><ele>357.0</ele><time>2026-04-25T11:45:10.999Z</time></trkpt><trkpt lat="40.689761003980216" lon="14.955264031201432"><ele>357.0</ele><time>2026-04-25T11:45:11.999Z</time></trkpt><trkpt lat="40.6896662055533" lon="14.955132721793648"><ele>357.0</ele><time>2026-04-25T11:45:12.999Z</time></trkpt><trkpt lat="40.689582647682776" lon="14.955037907430407"><ele>357.0</ele><time>2026-04-25T11:45:13.999Z</time></trkpt><trkpt lat="40.68950081737588" lon="14.954942102238203"><ele>357.0</ele><time>2026-04-25T11:45:14.999Z</time></trkpt><trkpt lat="40.68942939849908" lon="14.954807750563402"><ele>363.25</ele><time>2026-04-25T11:45:15.999Z</time></trkpt><trkpt lat="40.689363707507106" lon="14.954643976529326"><ele>369.5</ele><time>2026-04-25T11:45:16.999Z</time></trkpt><trkpt lat="40.689302383716864" lon="14.954506777312162"><ele>375.75</ele><time>2026-04-25T11:45:17.999Z</time></trkpt><trkpt lat="40.68924473941819" lon="14.954392086627918"><ele>382.0</ele><time>2026-04-25T11:45:18.999Z</time></trkpt><trkpt lat="40.68918672612871" lon="14.954283558679888"><ele>381.3333333333333</ele><time>2026-04-25T11:45:19.999Z</time></trkpt><trkpt lat="40.68911299744216" lon="14.954168468068467"><ele>380.66666666666663</ele><time>2026-04-25T11:45:20.999Z</time></trkpt><trkpt lat="40.68904369429036" lon="14.954069115394967"><ele>380.0</ele><time>2026-04-25T11:45:21.999Z</time></trkpt><trkpt lat="40.68899801133306" lon="14.954003890236098"><ele>379.3333333333333</ele><time>2026-04-25T11:45:22.999Z</time></trkpt><trkpt lat="40.68895351265123" lon="14.9539439862518"><ele>378.6666666666667</ele><time>2026-04-25T11:45:23.999Z</time></trkpt><trkpt lat="40.68893751585476" lon="14.953860862824738"><ele>378.0</ele><time>2026-04-25T11:45:24.999Z</time></trkpt><trkpt lat="40.68896079528677" lon="14.953748556773819"><ele>378.0</ele><time>2026-04-25T11:45:25.999Z</time></trkpt><trkpt lat="40.688983477535174" lon="14.953622600031649"><ele>378.0</ele><time>2026-04-25T11:45:26.999Z</time></trkpt><trkpt lat="40.688984948293886" lon="14.953501485925058"><ele>378.0</ele><time>2026-04-25T11:45:27.999Z</time></trkpt><trkpt lat="40.68894159169711" lon="14.953375695020458"><ele>378.0</ele><time>2026-04-25T11:45:28.999Z</time></trkpt><trkpt lat="40.68887816000722" lon="14.95323257360944"><ele>378.0</ele><time>2026-04-25T11:45:29.999Z</time></trkpt><trkpt lat="40.68881808586997" lon="14.953083724303772"><ele>379.2</ele><time>2026-04-25T11:45:30.999Z</time></trkpt><trkpt lat="40.68875435645217" lon="14.952959375725795"><ele>380.4</ele><time>2026-04-25T11:45:31.999Z</time></trkpt><trkpt lat="40.688677950318215" lon="14.952847097265131"><ele>381.59999999999997</ele><time>2026-04-25T11:45:32.999Z</time></trkpt><trkpt lat="40.68860936595289" lon="14.952756210325756"><ele>382.79999999999995</ele><time>2026-04-25T11:45:33.999Z</time></trkpt><trkpt lat="40.68852772834843" lon="14.952682796820776"><ele>384.0</ele><time>2026-04-25T11:45:34.999Z</time></trkpt><trkpt lat="40.68844995720109" lon="14.95262274818371"><ele>388.4</ele><time>2026-04-25T11:45:35.999Z</time></trkpt><trkpt lat="40.68837983721261" lon="14.952551164427033"><ele>392.79999999999995</ele><time>2026-04-25T11:45:36.999Z</time></trkpt><trkpt lat="40.68833506814469" lon="14.952449098441233"><ele>397.20000000000005</ele><time>2026-04-25T11:45:37.999Z</time></trkpt><trkpt lat="40.68830034456123" lon="14.952350238497564"><ele>401.6</ele><time>2026-04-25T11:45:38.999Z</time></trkpt><trkpt lat="40.6882578666237" lon="14.952288713438401"><ele>406.0</ele><time>2026-04-25T11:45:39.999Z</time></trkpt><trkpt lat="40.688119083283006" lon="14.952286212687195"><ele>406.00000000000006</ele><time>2026-04-25T11:45:41.999Z</time></trkpt><trkpt lat="40.68805544375408" lon="14.95235266119173"><ele>406.0</ele><time>2026-04-25T11:45:42.999Z</time></trkpt><trkpt lat="40.68800743288431" lon="14.952426387658958"><ele>406.0</ele><time>2026-04-25T11:45:43.999Z</time></trkpt><trkpt lat="40.68798032701115" lon="14.95251053491146"><ele>406.0</ele><time>2026-04-25T11:45:44.999Z</time></trkpt><trkpt lat="40.68793351526099" lon="14.952596085651438"><ele>406.00000000000006</ele><time>2026-04-25T11:45:46.999Z</time></trkpt><trkpt lat="40.687898402560315" lon="14.952665017471002"><ele>406.0</ele><time>2026-04-25T11:45:48.999Z</time></trkpt><trkpt lat="40.68791028518789" lon="14.952859794775025"><ele>406.6</ele><time>2026-04-25T11:45:50.999Z</time></trkpt><trkpt lat="40.68791627247072" lon="14.95298619519346"><ele>407.20000000000005</ele><time>2026-04-25T11:45:51.999Z</time></trkpt><trkpt lat="40.68790589941724" lon="14.953097305209802"><ele>407.79999999999995</ele><time>2026-04-25T11:45:52.999Z</time></trkpt><trkpt lat="40.687908689136215" lon="14.95321508466837"><ele>408.4</ele><time>2026-04-25T11:45:53.998Z</time></trkpt><trkpt lat="40.68793699416415" lon="14.953356387457571"><ele>409.0</ele><time>2026-04-25T11:45:54.998Z</time></trkpt><trkpt lat="40.68796721506198" lon="14.953498256488002"><ele>409.2</ele><time>2026-04-25T11:45:55.998Z</time></trkpt><trkpt lat="40.68800234111073" lon="14.953620959442738"><ele>409.4</ele><time>2026-04-25T11:45:56.998Z</time></trkpt><trkpt lat="40.68804063352181" lon="14.953727726792545"><ele>409.6</ele><time>2026-04-25T11:45:57.998Z</time></trkpt><trkpt lat="40.6880490991205" lon="14.953850282347114"><ele>409.8</ele><time>2026-04-25T11:45:58.998Z</time></trkpt><trkpt lat="40.68804612963964" lon="14.953997392726148"><ele>410.0</ele><time>2026-04-25T11:45:59.998Z</time></trkpt><trkpt lat="40.688043199425735" lon="14.954141139822822"><ele>411.66666666666663</ele><time>2026-04-25T11:46:00.998Z</time></trkpt><trkpt lat="40.688035715936735" lon="14.954258717228974"><ele>413.3333333333333</ele><time>2026-04-25T11:46:01.998Z</time></trkpt><trkpt lat="40.68801817914083" lon="14.954361254133097"><ele>415.0</ele><time>2026-04-25T11:46:02.998Z</time></trkpt><trkpt lat="40.68799514308891" lon="14.954528345924858"><ele>416.66666666666663</ele><time>2026-04-25T11:46:04.998Z</time></trkpt><trkpt lat="40.688000721991884" lon="14.954625013358086"><ele>418.3333333333333</ele><time>2026-04-25T11:46:05.998Z</time></trkpt><trkpt lat="40.688035034317444" lon="14.954696758947573"><ele>420.0</ele><time>2026-04-25T11:46:06.998Z</time></trkpt><trkpt lat="40.68810021455606" lon="14.954771670964751"><ele>420.0</ele><time>2026-04-25T11:46:07.998Z</time></trkpt><trkpt lat="40.688179465123746" lon="14.954861335782196"><ele>420.0</ele><time>2026-04-25T11:46:08.998Z</time></trkpt><trkpt lat="40.688258124198946" lon="14.954953710621822"><ele>420.0</ele><time>2026-04-25T11:46:09.998Z</time></trkpt><trkpt lat="40.688318171967936" lon="14.95505099592415"><ele>420.0</ele><time>2026-04-25T11:46:10.998Z</time></trkpt><trkpt lat="40.68837356810822" lon="14.955155541600433"><ele>420.0</ele><time>2026-04-25T11:46:11.998Z</time></trkpt><trkpt lat="40.68842212717396" lon="14.955266010622585"><ele>423.0</ele><time>2026-04-25T11:46:12.998Z</time></trkpt><trkpt lat="40.688461516461146" lon="14.955366116350369"><ele>426.0</ele><time>2026-04-25T11:46:13.998Z</time></trkpt><trkpt lat="40.68850491088868" lon="14.95549056542095"><ele>429.0</ele><time>2026-04-25T11:46:15.998Z</time></trkpt><trkpt lat="40.68853786348893" lon="14.955562132523518"><ele>432.0</ele><time>2026-04-25T11:46:16.998Z</time></trkpt><trkpt lat="40.68860773778281" lon="14.955676517110746"><ele>435.0</ele><time>2026-04-25T11:46:19Z</time></trkpt><trkpt lat="40.68866940455317" lon="14.955776988961864"><ele>431.8333333333333</ele><time>2026-04-25T11:46:21Z</time></trkpt><trkpt lat="40.68874751095478" lon="14.955906221616196"><ele>428.66666666666663</ele><time>2026-04-25T11:46:23Z</time></trkpt><trkpt lat="40.68876719150508" lon="14.955998074456286"><ele>425.5</ele><time>2026-04-25T11:46:24Z</time></trkpt><trkpt lat="40.68879778839875" lon="14.956088081374673"><ele>422.3333333333333</ele><time>2026-04-25T11:46:25Z</time></trkpt><trkpt lat="40.688845732758566" lon="14.95616354529335"><ele>419.16666666666663</ele><time>2026-04-25T11:46:26Z</time></trkpt><trkpt lat="40.68889846848049" lon="14.956247000662827"><ele>416.0</ele><time>2026-04-25T11:46:27Z</time></trkpt><trkpt lat="40.688948178065566" lon="14.956342209678455"><ele>416.0</ele><time>2026-04-25T11:46:28Z</time></trkpt><trkpt lat="40.68901632592067" lon="14.956436320980266"><ele>416.0</ele><time>2026-04-25T11:46:29Z</time></trkpt><trkpt lat="40.68909645325945" lon="14.956530039591092"><ele>416.0</ele><time>2026-04-25T11:46:30Z</time></trkpt><trkpt lat="40.68916460196693" lon="14.95661278338455"><ele>416.0</ele><time>2026-04-25T11:46:31Z</time></trkpt><trkpt lat="40.689219116916476" lon="14.956690007298464"><ele>416.0</ele><time>2026-04-25T11:46:32Z</time></trkpt><trkpt lat="40.68925946179083" lon="14.956774167307413"><ele>418.3333333333333</ele><time>2026-04-25T11:46:32.999Z</time></trkpt><trkpt lat="40.689285695673206" lon="14.956891790814714"><ele>420.66666666666663</ele><time>2026-04-25T11:46:33.999Z</time></trkpt><trkpt lat="40.689303053207766" lon="14.957015828355047"><ele>423.0</ele><time>2026-04-25T11:46:34.999Z</time></trkpt><trkpt lat="40.689314695335206" lon="14.957150048739123"><ele>425.33333333333337</ele><time>2026-04-25T11:46:35.999Z</time></trkpt><trkpt lat="40.68932007865731" lon="14.95725158571986"><ele>427.6666666666667</ele><time>2026-04-25T11:46:36.999Z</time></trkpt><trkpt lat="40.68934236443874" lon="14.95733779521305"><ele>430.0</ele><time>2026-04-25T11:46:37.999Z</time></trkpt><trkpt lat="40.68938492136132" lon="14.957405195577055"><ele>427.0</ele><time>2026-04-25T11:46:38.999Z</time></trkpt><trkpt lat="40.68943567987942" lon="14.957465026813303"><ele>424.0</ele><time>2026-04-25T11:46:39.999Z</time></trkpt><trkpt lat="40.68949100846039" lon="14.957535129708065"><ele>421.0</ele><time>2026-04-25T11:46:40.999Z</time></trkpt><trkpt lat="40.689587844613065" lon="14.95761823222676"><ele>418.0</ele><time>2026-04-25T11:46:41.999Z</time></trkpt><trkpt lat="40.68969113579605" lon="14.957689220863045"><ele>415.0</ele><time>2026-04-25T11:46:42.999Z</time></trkpt><trkpt lat="40.68977183443868" lon="14.957770522816736"><ele>415.0</ele><time>2026-04-25T11:46:43.999Z</time></trkpt><trkpt lat="40.689839245691395" lon="14.957851272980008"><ele>415.0</ele><time>2026-04-25T11:46:44.999Z</time></trkpt><trkpt lat="40.6898997806763" lon="14.957945053904448"><ele>415.0</ele><time>2026-04-25T11:46:45.999Z</time></trkpt><trkpt lat="40.689948888451134" lon="14.958059089278047"><ele>415.0</ele><time>2026-04-25T11:46:46.999Z</time></trkpt><trkpt lat="40.68999293580369" lon="14.958162786448083"><ele>415.0</ele><time>2026-04-25T11:46:47.999Z</time></trkpt><trkpt lat="40.69005205175039" lon="14.958246398386216"><ele>415.0</ele><time>2026-04-25T11:46:48.999Z</time></trkpt><trkpt lat="40.690108628068266" lon="14.958333672699986"><ele>415.0</ele><time>2026-04-25T11:46:49.999Z</time></trkpt><trkpt lat="40.690162891501544" lon="14.9584539162445"><ele>415.0</ele><time>2026-04-25T11:46:50.999Z</time></trkpt><trkpt lat="40.69021798285042" lon="14.958580183904497"><ele>415.0</ele><time>2026-04-25T11:46:51.999Z</time></trkpt><trkpt lat="40.69026933140344" lon="14.958684990118464"><ele>415.0</ele><time>2026-04-25T11:46:52.999Z</time></trkpt><trkpt lat="40.69032008285339" lon="14.958771703045855"><ele>412.00000000000006</ele><time>2026-04-25T11:46:54.999Z</time></trkpt><trkpt lat="40.69037058205895" lon="14.958880301160823"><ele>409.0</ele><time>2026-04-25T11:46:57.999Z</time></trkpt><trkpt lat="40.69044246322311" lon="14.958907602839837"><ele>406.0</ele><time>2026-04-25T11:47:00.999Z</time></trkpt><trkpt lat="40.69051452793725" lon="14.958962994114003"><ele>403.0</ele><time>2026-04-25T11:47:03.999Z</time></trkpt><trkpt lat="40.69057141781697" lon="14.959019832423623"><ele>400.00000000000006</ele><time>2026-04-25T11:47:06.999Z</time></trkpt><trkpt lat="40.690641371460345" lon="14.959052303480306"><ele>397.0</ele><time>2026-04-25T11:47:09.999Z</time></trkpt><trkpt lat="40.690690445317315" lon="14.959127156735642"><ele>397.6</ele><time>2026-04-25T11:47:11.999Z</time></trkpt><trkpt lat="40.69071745885561" lon="14.959278030500023"><ele>398.20000000000005</ele><time>2026-04-25T11:47:13.999Z</time></trkpt><trkpt lat="40.690705500982425" lon="14.959391227365536"><ele>398.8</ele><time>2026-04-25T11:47:14.999Z</time></trkpt><trkpt lat="40.69067817655258" lon="14.95951425351621"><ele>399.4</ele><time>2026-04-25T11:47:15.999Z</time></trkpt><trkpt lat="40.6906727453533" lon="14.959629737574534"><ele>400.0</ele><time>2026-04-25T11:47:16.999Z</time></trkpt><trkpt lat="40.69068119965747" lon="14.959730758882952"><ele>400.00000000000006</ele><time>2026-04-25T11:47:17.999Z</time></trkpt><trkpt lat="40.69072631585756" lon="14.959838623231"><ele>400.0</ele><time>2026-04-25T11:47:19.999Z</time></trkpt><trkpt lat="40.69075812210477" lon="14.959926071605722"><ele>400.0</ele><time>2026-04-25T11:47:20.999Z</time></trkpt><trkpt lat="40.6908009089941" lon="14.96007557980188"><ele>400.0</ele><time>2026-04-25T11:47:22.999Z</time></trkpt><trkpt lat="40.6908189750728" lon="14.96016141097081"><ele>400.00000000000006</ele><time>2026-04-25T11:47:23.999Z</time></trkpt><trkpt lat="40.69082899855224" lon="14.960247367906746"><ele>400.0</ele><time>2026-04-25T11:47:24.999Z</time></trkpt><trkpt lat="40.69083946887185" lon="14.96033599568496"><ele>400.33333333333337</ele><time>2026-04-25T11:47:25.999Z</time></trkpt><trkpt lat="40.69085544573702" lon="14.96045145585322"><ele>400.6666666666667</ele><time>2026-04-25T11:47:26.999Z</time></trkpt><trkpt lat="40.69086382505403" lon="14.960551696289208"><ele>401.0</ele><time>2026-04-25T11:47:27.999Z</time></trkpt><trkpt lat="40.69087841462198" lon="14.960657518477563"><ele>401.33333333333337</ele><time>2026-04-25T11:47:28.999Z</time></trkpt><trkpt lat="40.69086820676045" lon="14.960790425913006"><ele>401.6666666666667</ele><time>2026-04-25T11:47:29.999Z</time></trkpt><trkpt lat="40.69086605308966" lon="14.960915886676933"><ele>402.0</ele><time>2026-04-25T11:47:30.999Z</time></trkpt><trkpt lat="40.690884314584196" lon="14.9610299095957"><ele>403.3333333333333</ele><time>2026-04-25T11:47:31.999Z</time></trkpt><trkpt lat="40.69090462523408" lon="14.961118689932725"><ele>404.66666666666663</ele><time>2026-04-25T11:47:32.999Z</time></trkpt><trkpt lat="40.69090245675799" lon="14.961232785067905"><ele>406.0</ele><time>2026-04-25T11:47:34.999Z</time></trkpt><trkpt lat="40.69085940963106" lon="14.961326112957344"><ele>407.3333333333333</ele><time>2026-04-25T11:47:36.999Z</time></trkpt><trkpt lat="40.69083271577642" lon="14.961463325362882"><ele>408.66666666666663</ele><time>2026-04-25T11:47:38.999Z</time></trkpt><trkpt lat="40.69085566669282" lon="14.961545343959287"><ele>410.0</ele><time>2026-04-25T11:47:39.999Z</time></trkpt><trkpt lat="40.69091219720241" lon="14.961615586816809"><ele>409.99999999999994</ele><time>2026-04-25T11:47:40.999Z</time></trkpt><trkpt lat="40.690959869720444" lon="14.961675886530502"><ele>410.0</ele><time>2026-04-25T11:47:41.999Z</time></trkpt><trkpt lat="40.69102270862969" lon="14.961697112147377"><ele>410.0</ele><time>2026-04-25T11:47:42.999Z</time></trkpt><trkpt lat="40.69109294513367" lon="14.961677322343114"><ele>410.0</ele><time>2026-04-25T11:47:43.999Z</time></trkpt><trkpt lat="40.69117910173973" lon="14.961653778387467"><ele>409.99999999999994</ele><time>2026-04-25T11:47:44.999Z</time></trkpt><trkpt lat="40.69127088240046" lon="14.961654680406154"><ele>410.0</ele><time>2026-04-25T11:47:45.999Z</time></trkpt><trkpt lat="40.69134023736333" lon="14.961644214438039"><ele>409.2</ele><time>2026-04-25T11:47:46.999Z</time></trkpt><trkpt lat="40.691404120305" lon="14.961652945761582"><ele>408.4</ele><time>2026-04-25T11:47:47.999Z</time></trkpt><trkpt lat="40.69150612014932" lon="14.961652661621867"><ele>407.6</ele><time>2026-04-25T11:47:49.999Z</time></trkpt><trkpt lat="40.69158295461927" lon="14.96164679269181"><ele>406.8</ele><time>2026-04-25T11:47:51.999Z</time></trkpt><trkpt lat="40.6916865052569" lon="14.96167739482307"><ele>406.0</ele><time>2026-04-25T11:47:54.999Z</time></trkpt><trkpt lat="40.69178539733561" lon="14.961750502098045"><ele>404.4</ele><time>2026-04-25T11:47:57.998Z</time></trkpt><trkpt lat="40.69192433115149" lon="14.961963784528667"><ele>402.8</ele><time>2026-04-25T11:48:00.998Z</time></trkpt><trkpt lat="40.691939507357844" lon="14.962049314023716"><ele>401.2</ele><time>2026-04-25T11:48:01.998Z</time></trkpt><trkpt lat="40.691964705472344" lon="14.962135284668024"><ele>399.59999999999997</ele><time>2026-04-25T11:48:02.998Z</time></trkpt><trkpt lat="40.6919932226146" lon="14.962233218108933"><ele>398.0</ele><time>2026-04-25T11:48:03.998Z</time></trkpt><trkpt lat="40.69202736697977" lon="14.962321514826602"><ele>397.99999999999994</ele><time>2026-04-25T11:48:04.998Z</time></trkpt><trkpt lat="40.69205359643813" lon="14.962397859372079"><ele>398.0</ele><time>2026-04-25T11:48:05.998Z</time></trkpt><trkpt lat="40.69205550602661" lon="14.962527393672993"><ele>398.0</ele><time>2026-04-25T11:48:07.998Z</time></trkpt><trkpt lat="40.69205894602297" lon="14.962612904166598"><ele>398.0</ele><time>2026-04-25T11:48:09.998Z</time></trkpt><trkpt lat="40.69206854044153" lon="14.962696642369801"><ele>397.99999999999994</ele><time>2026-04-25T11:48:11.998Z</time></trkpt><trkpt lat="40.69210307530964" lon="14.962798154961828"><ele>398.0</ele><time>2026-04-25T11:48:31.999Z</time></trkpt><trkpt lat="40.69217153854386" lon="14.96292361186561"><ele>397.49999999999994</ele><time>2026-04-25T11:48:33.999Z</time></trkpt><trkpt lat="40.692208102495506" lon="14.963021571657613"><ele>397.0</ele><time>2026-04-25T11:48:34.999Z</time></trkpt><trkpt lat="40.692234853096856" lon="14.963120438826028"><ele>396.5</ele><time>2026-04-25T11:48:35.999Z</time></trkpt><trkpt lat="40.6922598844658" lon="14.963215786951777"><ele>396.0</ele><time>2026-04-25T11:48:36.999Z</time></trkpt><trkpt lat="40.692286417423475" lon="14.963316668539505"><ele>395.49999999999994</ele><time>2026-04-25T11:48:37.999Z</time></trkpt><trkpt lat="40.69229776560232" lon="14.963440629968723"><ele>395.0</ele><time>2026-04-25T11:48:38.999Z</time></trkpt><trkpt lat="40.69230166631573" lon="14.963559540838107"><ele>395.0</ele><time>2026-04-25T11:48:39.999Z</time></trkpt><trkpt lat="40.692293303415816" lon="14.963650611384146"><ele>395.0</ele><time>2026-04-25T11:48:40.999Z</time></trkpt><trkpt lat="40.69228612072364" lon="14.963733434075504"><ele>395.0</ele><time>2026-04-25T11:48:41.999Z</time></trkpt><trkpt lat="40.692281737684254" lon="14.963824585681605"><ele>395.0</ele><time>2026-04-25T11:48:42.999Z</time></trkpt><trkpt lat="40.692284615398066" lon="14.96392779646411"><ele>395.0</ele><time>2026-04-25T11:48:43.999Z</time></trkpt><trkpt lat="40.69228943395822" lon="14.964026831754893"><ele>395.0</ele><time>2026-04-25T11:48:44.999Z</time></trkpt><trkpt lat="40.69227671377409" lon="14.964125076992714"><ele>395.0</ele><time>2026-04-25T11:48:45.999Z</time></trkpt><trkpt lat="40.69226836072621" lon="14.964223962642397"><ele>393.66666666666663</ele><time>2026-04-25T11:48:46.999Z</time></trkpt><trkpt lat="40.692276674442695" lon="14.964322065311645"><ele>392.3333333333333</ele><time>2026-04-25T11:48:47.999Z</time></trkpt><trkpt lat="40.692214169200895" lon="14.964346392197825"><ele>391.0</ele><time>2026-04-25T11:48:51.999Z</time></trkpt><trkpt lat="40.692275407153325" lon="14.964379406774196"><ele>389.66666666666663</ele><time>2026-04-25T11:49:40.999Z</time></trkpt><trkpt lat="40.69225054759575" lon="14.964492898856355"><ele>388.3333333333333</ele><time>2026-04-25T11:49:43.999Z</time></trkpt><trkpt lat="40.692253458650924" lon="14.964582467413237"><ele>387.0</ele><time>2026-04-25T11:49:45.999Z</time></trkpt><trkpt lat="40.69222058796002" lon="14.964706172912814"><ele>387.0</ele><time>2026-04-25T11:50:14.998Z</time></trkpt><trkpt lat="40.69226774118512" lon="14.964819426008216"><ele>387.0</ele><time>2026-04-25T11:50:16.998Z</time></trkpt><trkpt lat="40.6923087381532" lon="14.96492180130654"><ele>387.0</ele><time>2026-04-25T11:50:18.998Z</time></trkpt><trkpt lat="40.69237158375796" lon="14.965016710574563"><ele>387.0</ele><time>2026-04-25T11:50:20.998Z</time></trkpt><trkpt lat="40.6923991512816" lon="14.96512268213127"><ele>387.0</ele><time>2026-04-25T11:50:23.998Z</time></trkpt><trkpt lat="40.692433007028654" lon="14.965248913663311"><ele>386.6</ele><time>2026-04-25T11:50:25.998Z</time></trkpt><trkpt lat="40.692457793034514" lon="14.965379895714904"><ele>386.20000000000005</ele><time>2026-04-25T11:50:27.998Z</time></trkpt><trkpt lat="40.69247068711662" lon="14.965514627443783"><ele>385.8</ele><time>2026-04-25T11:50:30Z</time></trkpt><trkpt lat="40.69247516281067" lon="14.965635594411046"><ele>385.4</ele><time>2026-04-25T11:50:33Z</time></trkpt><trkpt lat="40.69247293337075" lon="14.96579867761745"><ele>385.0</ele><time>2026-04-25T11:50:35Z</time></trkpt><trkpt lat="40.69249597924687" lon="14.965936783272427"><ele>386.6</ele><time>2026-04-25T11:50:36Z</time></trkpt><trkpt lat="40.69251380455037" lon="14.966091713780443"><ele>388.2</ele><time>2026-04-25T11:50:37Z</time></trkpt><trkpt lat="40.69253830306115" lon="14.966243470438593"><ele>389.79999999999995</ele><time>2026-04-25T11:50:38Z</time></trkpt><trkpt lat="40.69256266145848" lon="14.966384377298395"><ele>391.4</ele><time>2026-04-25T11:50:39Z</time></trkpt><trkpt lat="40.69260448648303" lon="14.966486357945978"><ele>393.0</ele><time>2026-04-25T11:50:39.999Z</time></trkpt><trkpt lat="40.69263184020113" lon="14.966627914823576"><ele>391.4</ele><time>2026-04-25T11:50:42Z</time></trkpt><trkpt lat="40.692628042747316" lon="14.966715046200926"><ele>389.79999999999995</ele><time>2026-04-25T11:50:43Z</time></trkpt><trkpt lat="40.69262030668648" lon="14.966836816368968"><ele>388.2</ele><time>2026-04-25T11:50:43.999Z</time></trkpt><trkpt lat="40.69263407977604" lon="14.966941420828329"><ele>386.6</ele><time>2026-04-25T11:50:44.999Z</time></trkpt><trkpt lat="40.692748924893735" lon="14.967072647237485"><ele>385.0</ele><time>2026-04-25T11:50:46.999Z</time></trkpt><trkpt lat="40.69281638425561" lon="14.96719741353943"><ele>385.0</ele><time>2026-04-25T11:50:47.999Z</time></trkpt><trkpt lat="40.692853864623295" lon="14.967294426161788"><ele>385.0</ele><time>2026-04-25T11:50:48.999Z</time></trkpt><trkpt lat="40.69297474354812" lon="14.967315898612277"><ele>385.0</ele><time>2026-04-25T11:50:50.999Z</time></trkpt><trkpt lat="40.69307638249236" lon="14.967341846627024"><ele>385.0</ele><time>2026-04-25T11:50:51.999Z</time></trkpt><trkpt lat="40.693167219602444" lon="14.967363346415294"><ele>385.0</ele><time>2026-04-25T11:50:52.999Z</time></trkpt><trkpt lat="40.69323632538136" lon="14.967372149600616"><ele>385.00000000000006</ele><time>2026-04-25T11:50:53.999Z</time></trkpt><trkpt lat="40.69333433445311" lon="14.967381886633586"><ele>385.0</ele><time>2026-04-25T11:50:55.999Z</time></trkpt><trkpt lat="40.693379279501556" lon="14.967484577860994"><ele>385.0</ele><time>2026-04-25T11:50:57.999Z</time></trkpt><trkpt lat="40.69341240327089" lon="14.967573358494201"><ele>385.0</ele><time>2026-04-25T11:51:09.999Z</time></trkpt><trkpt lat="40.69342509017886" lon="14.9677240605221"><ele>385.00000000000006</ele><time>2026-04-25T11:51:11.999Z</time></trkpt><trkpt lat="40.69342563847414" lon="14.967813903418124"><ele>385.0</ele><time>2026-04-25T11:51:12.999Z</time></trkpt><trkpt lat="40.69342117556123" lon="14.96790884900097"><ele>388.33333333333337</ele><time>2026-04-25T11:51:13.999Z</time></trkpt><trkpt lat="40.69342203242711" lon="14.968008343017727"><ele>391.6666666666667</ele><time>2026-04-25T11:51:14.999Z</time></trkpt><trkpt lat="40.693417676701806" lon="14.968099639883347"><ele>395.0</ele><time>2026-04-25T11:51:15.999Z</time></trkpt><trkpt lat="40.69342649955452" lon="14.968203449532888"><ele>398.33333333333337</ele><time>2026-04-25T11:51:16.999Z</time></trkpt><trkpt lat="40.69344319032728" lon="14.968311694489644"><ele>401.6666666666667</ele><time>2026-04-25T11:51:17.999Z</time></trkpt><trkpt lat="40.69346774914306" lon="14.968407682901704"><ele>405.0</ele><time>2026-04-25T11:51:18.999Z</time></trkpt><trkpt lat="40.69344535327275" lon="14.968561862100117"><ele>404.5</ele><time>2026-04-25T11:51:20.999Z</time></trkpt><trkpt lat="40.69342273962242" lon="14.968643737127593"><ele>404.0</ele><time>2026-04-25T11:51:21.999Z</time></trkpt><trkpt lat="40.69345673792985" lon="14.968780549311342"><ele>403.5</ele><time>2026-04-25T11:51:23.999Z</time></trkpt><trkpt lat="40.69347499168552" lon="14.968886086758234"><ele>403.0</ele><time>2026-04-25T11:51:24.999Z</time></trkpt><trkpt lat="40.693479240852604" lon="14.96902273797989"><ele>402.5</ele><time>2026-04-25T11:51:25.999Z</time></trkpt><trkpt lat="40.6934905243834" lon="14.969124404693122"><ele>402.0</ele><time>2026-04-25T11:51:26.999Z</time></trkpt><trkpt lat="40.69349829286556" lon="14.969223450868078"><ele>402.0</ele><time>2026-04-25T11:51:27.999Z</time></trkpt><trkpt lat="40.693518142437085" lon="14.96932949277429"><ele>402.0</ele><time>2026-04-25T11:51:28.999Z</time></trkpt><trkpt lat="40.69351845329294" lon="14.969425655814394"><ele>402.0</ele><time>2026-04-25T11:51:29.999Z</time></trkpt><trkpt lat="40.69352061827712" lon="14.96952478738709"><ele>402.0</ele><time>2026-04-25T11:51:31.999Z</time></trkpt><trkpt lat="40.69350717484671" lon="14.969613749927156"><ele>402.0</ele><time>2026-04-25T11:52:05.999Z</time></trkpt><trkpt lat="40.69347063879582" lon="14.969701452731437"><ele>402.0</ele><time>2026-04-25T11:52:16.998Z</time></trkpt><trkpt lat="40.693450962551516" lon="14.969786843387421"><ele>402.0</ele><time>2026-04-25T11:52:19.998Z</time></trkpt><trkpt lat="40.69339416744828" lon="14.96985142053168"><ele>402.0</ele><time>2026-04-25T11:52:22.998Z</time></trkpt><trkpt lat="40.69332872210618" lon="14.969910361268422"><ele>402.0</ele><time>2026-04-25T11:52:24.998Z</time></trkpt><trkpt lat="40.69319687282724" lon="14.970003415265213"><ele>402.0</ele><time>2026-04-25T11:52:26.998Z</time></trkpt><trkpt lat="40.6931282205699" lon="14.970081715322479"><ele>402.0</ele><time>2026-04-25T11:52:27.998Z</time></trkpt><trkpt lat="40.69307291693781" lon="14.970152515480299"><ele>402.0</ele><time>2026-04-25T11:52:28.998Z</time></trkpt><trkpt lat="40.69301408625249" lon="14.970208476721146"><ele>399.8333333333333</ele><time>2026-04-25T11:52:29.998Z</time></trkpt><trkpt lat="40.69294851797803" lon="14.97025843747868"><ele>397.66666666666663</ele><time>2026-04-25T11:52:30.998Z</time></trkpt><trkpt lat="40.69289120052449" lon="14.970300288664934"><ele>395.5</ele><time>2026-04-25T11:52:31.998Z</time></trkpt><trkpt lat="40.692801580757376" lon="14.970390242526012"><ele>393.3333333333333</ele><time>2026-04-25T11:52:33.998Z</time></trkpt><trkpt lat="40.69272765656884" lon="14.97045477708785"><ele>391.16666666666663</ele><time>2026-04-25T11:52:36Z</time></trkpt><trkpt lat="40.69265538321645" lon="14.970501838038386"><ele>389.0</ele><time>2026-04-25T11:52:38Z</time></trkpt><trkpt lat="40.69256318480912" lon="14.97057665353233"><ele>389.0</ele><time>2026-04-25T11:52:39.999Z</time></trkpt><trkpt lat="40.69247330118625" lon="14.970627891021907"><ele>389.0</ele><time>2026-04-25T11:52:42Z</time></trkpt><trkpt lat="40.69238928111057" lon="14.970656112951652"><ele>389.0</ele><time>2026-04-25T11:52:43.999Z</time></trkpt><trkpt lat="40.692365071084566" lon="14.970758496235996"><ele>389.0</ele><time>2026-04-25T11:52:45.999Z</time></trkpt><trkpt lat="40.692316603459226" lon="14.970832853814283"><ele>389.0</ele><time>2026-04-25T11:52:48Z</time></trkpt><trkpt lat="40.69214527748128" lon="14.971019479933718"><ele>387.99999999999994</ele><time>2026-04-25T11:52:48.999Z</time></trkpt><trkpt lat="40.69208822587406" lon="14.971086426651736"><ele>387.0</ele><time>2026-04-25T11:52:49.999Z</time></trkpt><trkpt lat="40.692033247846126" lon="14.971155669807256"><ele>386.0</ele><time>2026-04-25T11:52:50.999Z</time></trkpt><trkpt lat="40.69197589647214" lon="14.97123227078171"><ele>385.0</ele><time>2026-04-25T11:52:51.999Z</time></trkpt><trkpt lat="40.69191303559898" lon="14.971306236155176"><ele>384.0</ele><time>2026-04-25T11:52:52.999Z</time></trkpt><trkpt lat="40.69184793079002" lon="14.971370950378638"><ele>383.0</ele><time>2026-04-25T11:52:53.999Z</time></trkpt><trkpt lat="40.69179558838053" lon="14.971450640754085"><ele>383.0</ele><time>2026-04-25T11:52:54.999Z</time></trkpt><trkpt lat="40.6917481300392" lon="14.9715342590352"><ele>383.0</ele><time>2026-04-25T11:52:55.999Z</time></trkpt><trkpt lat="40.69169866014313" lon="14.97159825901207"><ele>383.0</ele><time>2026-04-25T11:52:56.999Z</time></trkpt><trkpt lat="40.69166029350188" lon="14.97167931458196"><ele>383.0</ele><time>2026-04-25T11:52:58.999Z</time></trkpt><trkpt lat="40.69164749184736" lon="14.971762895217376"><ele>383.0</ele><time>2026-04-25T11:52:59.999Z</time></trkpt><trkpt lat="40.691622810620935" lon="14.971841479439426"><ele>383.0</ele><time>2026-04-25T11:53:00.999Z</time></trkpt><trkpt lat="40.69157592786946" lon="14.971923498896995"><ele>383.0</ele><time>2026-04-25T11:53:01.999Z</time></trkpt><trkpt lat="40.69154200572962" lon="14.971995599021277"><ele>380.0</ele><time>2026-04-25T11:53:02.999Z</time></trkpt><trkpt lat="40.69151718931713" lon="14.972138681187861"><ele>377.0</ele><time>2026-04-25T11:53:04.999Z</time></trkpt><trkpt lat="40.6914972422571" lon="14.972251563983425"><ele>374.0</ele><time>2026-04-25T11:53:06.999Z</time></trkpt><trkpt lat="40.69145487711286" lon="14.972367267124593"><ele>371.0</ele><time>2026-04-25T11:53:08.999Z</time></trkpt><trkpt lat="40.69146219040456" lon="14.972503196714696"><ele>368.0</ele><time>2026-04-25T11:53:10.999Z</time></trkpt><trkpt lat="40.69147859441256" lon="14.972590822457201"><ele>365.2</ele><time>2026-04-25T11:53:12.999Z</time></trkpt><trkpt lat="40.691474919079" lon="14.972725053368126"><ele>362.4</ele><time>2026-04-25T11:53:14.999Z</time></trkpt><trkpt lat="40.691462630722306" lon="14.972810339211327"><ele>359.59999999999997</ele><time>2026-04-25T11:53:16.999Z</time></trkpt><trkpt lat="40.69148760455791" lon="14.97291950075584"><ele>356.79999999999995</ele><time>2026-04-25T11:53:18.999Z</time></trkpt><trkpt lat="40.69140503274127" lon="14.973026263578769"><ele>354.0</ele><time>2026-04-25T11:53:20.999Z</time></trkpt><trkpt lat="40.691324554440286" lon="14.973064494264527"><ele>354.0</ele><time>2026-04-25T11:53:21.999Z</time></trkpt><trkpt lat="40.69124443736313" lon="14.973100094285346"><ele>354.0</ele><time>2026-04-25T11:53:22.999Z</time></trkpt><trkpt lat="40.69115576456564" lon="14.973128552619018"><ele>354.0</ele><time>2026-04-25T11:53:23.999Z</time></trkpt><trkpt lat="40.69107463925811" lon="14.973167896229011"><ele>354.0</ele><time>2026-04-25T11:53:24.999Z</time></trkpt><trkpt lat="40.690990713571495" lon="14.973203373239116"><ele>354.0</ele><time>2026-04-25T11:53:25.999Z</time></trkpt><trkpt lat="40.690913042603576" lon="14.97324286896141"><ele>354.0</ele><time>2026-04-25T11:53:26.999Z</time></trkpt><trkpt lat="40.690828182728545" lon="14.973275338384914"><ele>355.1666666666667</ele><time>2026-04-25T11:53:27.999Z</time></trkpt><trkpt lat="40.69075346118352" lon="14.973308253665026"><ele>356.3333333333333</ele><time>2026-04-25T11:53:28.999Z</time></trkpt><trkpt lat="40.69069272516209" lon="14.973339182701936"><ele>357.5</ele><time>2026-04-25T11:53:29.999Z</time></trkpt><trkpt lat="40.690587116059675" lon="14.97335550294881"><ele>358.66666666666663</ele><time>2026-04-25T11:53:31.999Z</time></trkpt><trkpt lat="40.690511274681484" lon="14.97334886931136"><ele>359.8333333333333</ele><time>2026-04-25T11:53:32.999Z</time></trkpt><trkpt lat="40.690412901645175" lon="14.973348406510556"><ele>361.0</ele><time>2026-04-25T11:53:33.999Z</time></trkpt><trkpt lat="40.69031948664186" lon="14.973355169616259"><ele>358.20000000000005</ele><time>2026-04-25T11:53:34.999Z</time></trkpt><trkpt lat="40.69025461438359" lon="14.97336495552688"><ele>355.40000000000003</ele><time>2026-04-25T11:53:35.999Z</time></trkpt><trkpt lat="40.690224964894576" lon="14.97348164394205"><ele>352.6</ele><time>2026-04-25T11:53:38.999Z</time></trkpt><trkpt lat="40.690262478078935" lon="14.97358488620185"><ele>349.8</ele><time>2026-04-25T11:53:39.999Z</time></trkpt><trkpt lat="40.690317789380764" lon="14.973726457998879"><ele>347.0</ele><time>2026-04-25T11:53:40.999Z</time></trkpt><trkpt lat="40.69037693228623" lon="14.973883877537283"><ele>347.0</ele><time>2026-04-25T11:53:41.999Z</time></trkpt><trkpt lat="40.69043355458871" lon="14.974031485555521"><ele>347.0</ele><time>2026-04-25T11:53:42.999Z</time></trkpt><trkpt lat="40.69047991840079" lon="14.974148512908219"><ele>347.0</ele><time>2026-04-25T11:53:43.999Z</time></trkpt><trkpt lat="40.69050704096655" lon="14.974251439525151"><ele>347.0</ele><time>2026-04-25T11:53:44.999Z</time></trkpt><trkpt lat="40.69051837122832" lon="14.974369195956116"><ele>347.0</ele><time>2026-04-25T11:53:45.999Z</time></trkpt><trkpt lat="40.690501670226446" lon="14.974486103180649"><ele>346.8</ele><time>2026-04-25T11:53:46.999Z</time></trkpt><trkpt lat="40.6904869215117" lon="14.974611214777996"><ele>346.6</ele><time>2026-04-25T11:53:47.999Z</time></trkpt><trkpt lat="40.690480764881066" lon="14.974734253211418"><ele>346.40000000000003</ele><time>2026-04-25T11:53:48.999Z</time></trkpt><trkpt lat="40.69050332008515" lon="14.974850776126532"><ele>346.20000000000005</ele><time>2026-04-25T11:53:49.999Z</time></trkpt><trkpt lat="40.69054569623459" lon="14.9749655285616"><ele>346.0</ele><time>2026-04-25T11:53:50.999Z</time></trkpt><trkpt lat="40.69058956421422" lon="14.975058710669606"><ele>346.8</ele><time>2026-04-25T11:53:51.999Z</time></trkpt><trkpt lat="40.69069465398599" lon="14.975150197605272"><ele>347.6</ele><time>2026-04-25T11:53:53.999Z</time></trkpt><trkpt lat="40.690788197223995" lon="14.975162595664491"><ele>348.4</ele><time>2026-04-25T11:53:54.999Z</time></trkpt><trkpt lat="40.69087460626842" lon="14.975161444076804"><ele>349.2</ele><time>2026-04-25T11:53:55.999Z</time></trkpt><trkpt lat="40.69095543843592" lon="14.975181504886464"><ele>350.0</ele><time>2026-04-25T11:53:56.999Z</time></trkpt><trkpt lat="40.691031709639" lon="14.975221226686118"><ele>348.5</ele><time>2026-04-25T11:53:57.999Z</time></trkpt><trkpt lat="40.69110508587662" lon="14.975279004700344"><ele>347.0</ele><time>2026-04-25T11:53:58.999Z</time></trkpt><trkpt lat="40.69117010703637" lon="14.975350866771509"><ele>345.5</ele><time>2026-04-25T11:53:59.999Z</time></trkpt><trkpt lat="40.69123825362948" lon="14.975427361166401"><ele>344.0</ele><time>2026-04-25T11:54:00.999Z</time></trkpt><trkpt lat="40.69130284217304" lon="14.975504915186344"><ele>342.5</ele><time>2026-04-25T11:54:01.999Z</time></trkpt><trkpt lat="40.69136214251546" lon="14.97557905653874"><ele>341.0</ele><time>2026-04-25T11:54:02.999Z</time></trkpt><trkpt lat="40.69142967619752" lon="14.975645457262962"><ele>341.0</ele><time>2026-04-25T11:54:03.999Z</time></trkpt><trkpt lat="40.69150654003346" lon="14.975694888886645"><ele>341.0</ele><time>2026-04-25T11:54:04.999Z</time></trkpt><trkpt lat="40.691583365090594" lon="14.975735177753204"><ele>341.0</ele><time>2026-04-25T11:54:05.999Z</time></trkpt><trkpt lat="40.69165970007347" lon="14.975783434502418"><ele>341.0</ele><time>2026-04-25T11:54:06.999Z</time></trkpt><trkpt lat="40.69173944114836" lon="14.975832404314499"><ele>341.0</ele><time>2026-04-25T11:54:07.999Z</time></trkpt><trkpt lat="40.691814638593605" lon="14.975878663041073"><ele>341.0</ele><time>2026-04-25T11:54:08.999Z</time></trkpt><trkpt lat="40.69186443232336" lon="14.97594186088488"><ele>339.4</ele><time>2026-04-25T11:54:09.999Z</time></trkpt><trkpt lat="40.69191439536478" lon="14.976094341092697"><ele>337.8</ele><time>2026-04-25T11:54:11.999Z</time></trkpt><trkpt lat="40.69192639726454" lon="14.976200533587788"><ele>336.2</ele><time>2026-04-25T11:54:12.998Z</time></trkpt><trkpt lat="40.691921445339986" lon="14.97633911419079"><ele>334.59999999999997</ele><time>2026-04-25T11:54:13.998Z</time></trkpt><trkpt lat="40.69192505012408" lon="14.976468668757686"><ele>333.0</ele><time>2026-04-25T11:54:14.998Z</time></trkpt><trkpt lat="40.691914411171" lon="14.976610724106388"><ele>330.6666666666667</ele><time>2026-04-25T11:54:15.998Z</time></trkpt><trkpt lat="40.691900663022366" lon="14.976741726298364"><ele>328.3333333333333</ele><time>2026-04-25T11:54:16.998Z</time></trkpt><trkpt lat="40.69188440205452" lon="14.976861041224678"><ele>326.0</ele><time>2026-04-25T11:54:17.998Z</time></trkpt><trkpt lat="40.69186175976038" lon="14.976970935897798"><ele>323.66666666666663</ele><time>2026-04-25T11:54:18.998Z</time></trkpt><trkpt lat="40.69180259503468" lon="14.977052664860771"><ele>321.3333333333333</ele><time>2026-04-25T11:54:19.998Z</time></trkpt><trkpt lat="40.691779125666635" lon="14.977153040854043"><ele>319.0</ele><time>2026-04-25T11:54:20.998Z</time></trkpt><trkpt lat="40.691744856695756" lon="14.97723979534601"><ele>319.0</ele><time>2026-04-25T11:54:21.998Z</time></trkpt><trkpt lat="40.69170822926316" lon="14.977327855603136"><ele>319.0</ele><time>2026-04-25T11:54:22.998Z</time></trkpt><trkpt lat="40.69166234484255" lon="14.977394414094832"><ele>319.0</ele><time>2026-04-25T11:54:23.998Z</time></trkpt><trkpt lat="40.6916161519111" lon="14.977519194359907"><ele>319.0</ele><time>2026-04-25T11:54:25.998Z</time></trkpt><trkpt lat="40.69156642439658" lon="14.977588820845241"><ele>319.0</ele><time>2026-04-25T11:54:27.998Z</time></trkpt><trkpt lat="40.69151864765032" lon="14.977654416991534"><ele>319.0</ele><time>2026-04-25T11:54:30.998Z</time></trkpt><trkpt lat="40.69161925968388" lon="14.97786935135034"><ele>317.8</ele><time>2026-04-25T11:54:32.998Z</time></trkpt><trkpt lat="40.69170113288283" lon="14.977964521825957"><ele>316.59999999999997</ele><time>2026-04-25T11:54:33.998Z</time></trkpt><trkpt lat="40.691780313430854" lon="14.978047498567957"><ele>315.4</ele><time>2026-04-25T11:54:34.998Z</time></trkpt><trkpt lat="40.69184726323305" lon="14.978111503904465"><ele>314.2</ele><time>2026-04-25T11:54:35.998Z</time></trkpt><trkpt lat="40.69192584748465" lon="14.978158371277779"><ele>313.0</ele><time>2026-04-25T11:54:36.998Z</time></trkpt><trkpt lat="40.69203066009672" lon="14.978136482760847"><ele>313.0</ele><time>2026-04-25T11:54:37.998Z</time></trkpt><trkpt lat="40.69214093676066" lon="14.978129004952093"><ele>313.0</ele><time>2026-04-25T11:54:38.998Z</time></trkpt><trkpt lat="40.69226608807597" lon="14.978102311377747"><ele>313.0</ele><time>2026-04-25T11:54:39.998Z</time></trkpt><trkpt lat="40.692391311304625" lon="14.97807452926725"><ele>313.0</ele><time>2026-04-25T11:54:40.999Z</time></trkpt><trkpt lat="40.69249175969223" lon="14.978052530772372"><ele>313.0</ele><time>2026-04-25T11:54:41.999Z</time></trkpt><trkpt lat="40.69257553016971" lon="14.97803579889143"><ele>313.0</ele><time>2026-04-25T11:54:42.999Z</time></trkpt><trkpt lat="40.69264228402208" lon="14.978021524730158"><ele>313.0</ele><time>2026-04-25T11:54:46.999Z</time></trkpt><trkpt lat="40.69269665341202" lon="14.978072108850242"><ele>313.0</ele><time>2026-04-25T11:54:51.999Z</time></trkpt><trkpt lat="40.69258793076605" lon="14.978148126476894"><ele>313.0</ele><time>2026-04-25T11:54:53.999Z</time></trkpt><trkpt lat="40.6925068648095" lon="14.978215932973342"><ele>313.0</ele><time>2026-04-25T11:54:54.999Z</time></trkpt><trkpt lat="40.69243565184264" lon="14.978284128218855"><ele>313.0</ele><time>2026-04-25T11:54:55.999Z</time></trkpt><trkpt lat="40.692367992035365" lon="14.978339080663842"><ele>313.0</ele><time>2026-04-25T11:54:56.999Z</time></trkpt><trkpt lat="40.69226094341103" lon="14.978372275555685"><ele>313.0</ele><time>2026-04-25T11:54:58.999Z</time></trkpt><trkpt lat="40.69217020730144" lon="14.978386257477693"><ele>313.0</ele><time>2026-04-25T11:55:00.999Z</time></trkpt><trkpt lat="40.69209604620605" lon="14.978393251164412"><ele>313.0</ele><time>2026-04-25T11:55:02.999Z</time></trkpt><trkpt lat="40.69202264458834" lon="14.978395062108794"><ele>313.0</ele><time>2026-04-25T11:55:04.999Z</time></trkpt><trkpt lat="40.69194624912333" lon="14.978473341724277"><ele>312.5</ele><time>2026-04-25T12:00:24Z</time></trkpt><trkpt lat="40.69186624660035" lon="14.978472558283764"><ele>312.0</ele><time>2026-04-25T12:00:31.999Z</time></trkpt><trkpt lat="40.691769341771575" lon="14.978462437703024"><ele>311.5</ele><time>2026-04-25T12:00:34.999Z</time></trkpt><trkpt lat="40.69169342566762" lon="14.97844928478079"><ele>311.0</ele><time>2026-04-25T12:00:35.999Z</time></trkpt><trkpt lat="40.691612874339555" lon="14.97843283998188"><ele>310.5</ele><time>2026-04-25T12:00:36.999Z</time></trkpt><trkpt lat="40.69153079472577" lon="14.978406683244735"><ele>310.0</ele><time>2026-04-25T12:00:37.999Z</time></trkpt><trkpt lat="40.691456645062694" lon="14.978335060560296"><ele>310.0</ele><time>2026-04-25T12:00:38.999Z</time></trkpt><trkpt lat="40.69138162427861" lon="14.97830089492008"><ele>310.0</ele><time>2026-04-25T12:00:39.999Z</time></trkpt><trkpt lat="40.69131234670629" lon="14.978266256119799"><ele>310.0</ele><time>2026-04-25T12:00:40.999Z</time></trkpt><trkpt lat="40.69125069162428" lon="14.978235428557296"><ele>310.0</ele><time>2026-04-25T12:00:41.999Z</time></trkpt><trkpt lat="40.69118438970464" lon="14.978201427713739"><ele>310.0</ele><time>2026-04-25T12:00:42.999Z</time></trkpt><trkpt lat="40.69109370843839" lon="14.978154495616721"><ele>310.0</ele><time>2026-04-25T12:00:43.999Z</time></trkpt><trkpt lat="40.69097936651521" lon="14.978095317884973"><ele>306.25</ele><time>2026-04-25T12:00:44.999Z</time></trkpt><trkpt lat="40.69086199025705" lon="14.978034569740654"><ele>302.5</ele><time>2026-04-25T12:00:45.999Z</time></trkpt><trkpt lat="40.690744124173186" lon="14.977976872068401"><ele>298.75</ele><time>2026-04-25T12:00:46.999Z</time></trkpt><trkpt lat="40.69063045071821" lon="14.977924774965679"><ele>295.0</ele><time>2026-04-25T12:00:47.999Z</time></trkpt><trkpt lat="40.69052453296111" lon="14.977878204141016"><ele>295.0</ele><time>2026-04-25T12:00:48.999Z</time></trkpt><trkpt lat="40.690421198592354" lon="14.977834197136184"><ele>295.0</ele><time>2026-04-25T12:00:49.999Z</time></trkpt><trkpt lat="40.690317404771235" lon="14.977792832660352"><ele>295.0</ele><time>2026-04-25T12:00:50.999Z</time></trkpt><trkpt lat="40.690208460330226" lon="14.97775192873883"><ele>295.0</ele><time>2026-04-25T12:00:51.999Z</time></trkpt><trkpt lat="40.690107391874335" lon="14.977714376912909"><ele>295.0</ele><time>2026-04-25T12:00:52.999Z</time></trkpt><trkpt lat="40.6900034488538" lon="14.977682954789234"><ele>291.5</ele><time>2026-04-25T12:00:53.999Z</time></trkpt><trkpt lat="40.68988252526962" lon="14.977655800163339"><ele>288.0</ele><time>2026-04-25T12:00:54.999Z</time></trkpt><trkpt lat="40.68975951216644" lon="14.977656367047281"><ele>284.5</ele><time>2026-04-25T12:00:55.999Z</time></trkpt><trkpt lat="40.689639192065385" lon="14.977668636700342"><ele>281.0</ele><time>2026-04-25T12:00:57.001Z</time></trkpt><trkpt lat="40.68952675316489" lon="14.977674758020084"><ele>279.0</ele><time>2026-04-25T12:00:58.001Z</time></trkpt><trkpt lat="40.68940936632882" lon="14.977674450859176"><ele>277.0</ele><time>2026-04-25T12:00:59.001Z</time></trkpt><trkpt lat="40.689291404728415" lon="14.977661458367459"><ele>275.0</ele><time>2026-04-25T12:01:00.001Z</time></trkpt><trkpt lat="40.689166932156766" lon="14.977642286707322"><ele>273.0</ele><time>2026-04-25T12:01:01.001Z</time></trkpt><trkpt lat="40.689042668879296" lon="14.977620401382145"><ele>273.0</ele><time>2026-04-25T12:01:02.001Z</time></trkpt><trkpt lat="40.688927922476765" lon="14.977596563540127"><ele>273.0</ele><time>2026-04-25T12:01:03.001Z</time></trkpt><trkpt lat="40.68882511603106" lon="14.977573131021229"><ele>273.0</ele><time>2026-04-25T12:01:04.001Z</time></trkpt><trkpt lat="40.68873249776377" lon="14.977557710254976"><ele>273.0</ele><time>2026-04-25T12:01:05.001Z</time></trkpt><trkpt lat="40.68864100606069" lon="14.97756380092494"><ele>273.0</ele><time>2026-04-25T12:01:06.001Z</time></trkpt><trkpt lat="40.68853695576375" lon="14.97754868250445"><ele>271.3333333333333</ele><time>2026-04-25T12:01:07.001Z</time></trkpt><trkpt lat="40.6884412708349" lon="14.977544552245723"><ele>269.6666666666667</ele><time>2026-04-25T12:01:08.001Z</time></trkpt><trkpt lat="40.68835755714362" lon="14.977540102276937"><ele>268.0</ele><time>2026-04-25T12:01:09.001Z</time></trkpt><trkpt lat="40.68827890821919" lon="14.977539822023841"><ele>266.33333333333337</ele><time>2026-04-25T12:01:10.001Z</time></trkpt><trkpt lat="40.688212555249414" lon="14.977542521701567"><ele>264.6666666666667</ele><time>2026-04-25T12:01:11.001Z</time></trkpt><trkpt lat="40.68810460941704" lon="14.977532822542884"><ele>263.0</ele><time>2026-04-25T12:01:13.001Z</time></trkpt><trkpt lat="40.688068573961985" lon="14.977732371102547"><ele>263.0</ele><time>2026-04-25T12:01:15Z</time></trkpt><trkpt lat="40.68807989044147" lon="14.97786111578244"><ele>263.0</ele><time>2026-04-25T12:01:16Z</time></trkpt><trkpt lat="40.68807436334696" lon="14.977999960287699"><ele>263.0</ele><time>2026-04-25T12:01:17Z</time></trkpt><trkpt lat="40.68804702548482" lon="14.978139859306436"><ele>263.0</ele><time>2026-04-25T12:01:18Z</time></trkpt><trkpt lat="40.68802787988961" lon="14.978275508873708"><ele>263.0</ele><time>2026-04-25T12:01:19Z</time></trkpt><trkpt lat="40.68802146349285" lon="14.978403524062204"><ele>261.0</ele><time>2026-04-25T12:01:20Z</time></trkpt><trkpt lat="40.68803590480063" lon="14.978529685376197"><ele>259.0</ele><time>2026-04-25T12:01:21Z</time></trkpt><trkpt lat="40.688057462205954" lon="14.978646955442416"><ele>257.0</ele><time>2026-04-25T12:01:23Z</time></trkpt><trkpt lat="40.68808178883665" lon="14.978724404681577"><ele>255.0</ele><time>2026-04-25T12:01:25Z</time></trkpt><trkpt lat="40.68811875011285" lon="14.978817769087817"><ele>253.00000000000003</ele><time>2026-04-25T12:01:30Z</time></trkpt><trkpt lat="40.68814001430019" lon="14.978896587068613"><ele>251.0</ele><time>2026-04-25T12:01:34Z</time></trkpt><trkpt lat="40.68814697499921" lon="14.978996772418311"><ele>251.0</ele><time>2026-04-25T12:01:38Z</time></trkpt><trkpt lat="40.68810898500876" lon="14.979082996687735"><ele>251.00000000000003</ele><time>2026-04-25T12:01:41Z</time></trkpt><trkpt lat="40.68807563321466" lon="14.979202598212986"><ele>251.00000000000003</ele><time>2026-04-25T12:01:44Z</time></trkpt><trkpt lat="40.688037857168375" lon="14.979280876062324"><ele>251.0</ele><time>2026-04-25T12:01:46Z</time></trkpt><trkpt lat="40.68798304105695" lon="14.979418162534781"><ele>251.0</ele><time>2026-04-25T12:01:48Z</time></trkpt><trkpt lat="40.6879294631464" lon="14.979535530684283"><ele>250.16666666666669</ele><time>2026-04-25T12:01:50Z</time></trkpt><trkpt lat="40.687879480657834" lon="14.979632236141661"><ele>249.33333333333334</ele><time>2026-04-25T12:01:52Z</time></trkpt><trkpt lat="40.687822532292564" lon="14.979733206764555"><ele>248.5</ele><time>2026-04-25T12:01:54Z</time></trkpt><trkpt lat="40.68778128492412" lon="14.979832620637078"><ele>247.66666666666669</ele><time>2026-04-25T12:01:56Z</time></trkpt><trkpt lat="40.68774309954509" lon="14.979924705538744"><ele>246.83333333333334</ele><time>2026-04-25T12:01:58Z</time></trkpt><trkpt lat="40.68770400373824" lon="14.980015979919743"><ele>246.0</ele><time>2026-04-25T12:02:00Z</time></trkpt><trkpt lat="40.687670439028416" lon="14.980111414389706"><ele>245.16666666666666</ele><time>2026-04-25T12:02:02Z</time></trkpt><trkpt lat="40.68763262938943" lon="14.980223560922186"><ele>244.33333333333331</ele><time>2026-04-25T12:02:04Z</time></trkpt><trkpt lat="40.687594944783264" lon="14.9803266899316"><ele>243.5</ele><time>2026-04-25T12:02:06Z</time></trkpt><trkpt lat="40.68755326453856" lon="14.980420089868993"><ele>242.66666666666666</ele><time>2026-04-25T12:02:08Z</time></trkpt><trkpt lat="40.68752522486635" lon="14.980495494744748"><ele>241.83333333333331</ele><time>2026-04-25T12:02:10Z</time></trkpt><trkpt lat="40.68753653944466" lon="14.98060144785747"><ele>241.0</ele><time>2026-04-25T12:02:15Z</time></trkpt><trkpt lat="40.68758496102607" lon="14.980677140822145"><ele>240.99999999999997</ele><time>2026-04-25T12:05:34Z</time></trkpt><trkpt lat="40.68763334031577" lon="14.98076755780004"><ele>241.0</ele><time>2026-04-25T12:05:37Z</time></trkpt><trkpt lat="40.6876046812899" lon="14.980894754650679"><ele>241.0</ele><time>2026-04-25T12:05:39Z</time></trkpt><trkpt lat="40.687574112262226" lon="14.980979886346919"><ele>241.0</ele><time>2026-04-25T12:05:41Z</time></trkpt><trkpt lat="40.687559431189435" lon="14.98108790681239"><ele>240.99999999999997</ele><time>2026-04-25T12:05:44Z</time></trkpt><trkpt lat="40.68753927852884" lon="14.981202083237115"><ele>241.0</ele><time>2026-04-25T12:05:46Z</time></trkpt><trkpt lat="40.68752266762168" lon="14.981317191305372"><ele>239.16666666666666</ele><time>2026-04-25T12:05:48Z</time></trkpt><trkpt lat="40.687506567783814" lon="14.981424520111375"><ele>237.33333333333331</ele><time>2026-04-25T12:05:50Z</time></trkpt><trkpt lat="40.68744909707522" lon="14.981490186374154"><ele>235.5</ele><time>2026-04-25T12:05:53Z</time></trkpt><trkpt lat="40.687339520399675" lon="14.981489003506324"><ele>233.66666666666669</ele><time>2026-04-25T12:05:55Z</time></trkpt><trkpt lat="40.68726015466207" lon="14.98147215608735"><ele>231.83333333333334</ele><time>2026-04-25T12:05:56Z</time></trkpt><trkpt lat="40.68717918408476" lon="14.981433715791052"><ele>230.0</ele><time>2026-04-25T12:05:57Z</time></trkpt><trkpt lat="40.68710796005626" lon="14.98139427994175"><ele>230.0</ele><time>2026-04-25T12:05:58Z</time></trkpt><trkpt lat="40.687048287886036" lon="14.981361761223036"><ele>230.0</ele><time>2026-04-25T12:05:59Z</time></trkpt><trkpt lat="40.68694988842524" lon="14.981320394391647"><ele>230.0</ele><time>2026-04-25T12:06:01Z</time></trkpt><trkpt lat="40.6868733580811" lon="14.98123397005537"><ele>230.0</ele><time>2026-04-25T12:06:03Z</time></trkpt><trkpt lat="40.68678358335279" lon="14.98117233954291"><ele>230.0</ele><time>2026-04-25T12:06:05Z</time></trkpt><trkpt lat="40.686677634882415" lon="14.981101431967854"><ele>229.16666666666669</ele><time>2026-04-25T12:06:07Z</time></trkpt><trkpt lat="40.68661517641375" lon="14.981071042446953"><ele>228.33333333333334</ele><time>2026-04-25T12:06:08Z</time></trkpt><trkpt lat="40.686549049606604" lon="14.981049560550236"><ele>227.5</ele><time>2026-04-25T12:06:09Z</time></trkpt><trkpt lat="40.68648041975601" lon="14.981043864130523"><ele>226.66666666666669</ele><time>2026-04-25T12:06:10Z</time></trkpt><trkpt lat="40.68639702598757" lon="14.981097304675378"><ele>225.83333333333334</ele><time>2026-04-25T12:06:11Z</time></trkpt><trkpt lat="40.68630793787884" lon="14.981103979263253"><ele>225.0</ele><time>2026-04-25T12:06:12Z</time></trkpt><trkpt lat="40.68622348582834" lon="14.98114157183436"><ele>225.0</ele><time>2026-04-25T12:06:13Z</time></trkpt><trkpt lat="40.68610589506403" lon="14.981129544958273"><ele>225.0</ele><time>2026-04-25T12:06:15Z</time></trkpt><trkpt lat="40.68605893120262" lon="14.981044095658872"><ele>225.0</ele><time>2026-04-25T12:06:16Z</time></trkpt><trkpt lat="40.685987206601915" lon="14.98098351502845"><ele>225.0</ele><time>2026-04-25T12:06:17Z</time></trkpt><trkpt lat="40.68592204738109" lon="14.98093084302994"><ele>225.0</ele><time>2026-04-25T12:06:18Z</time></trkpt><trkpt lat="40.68584787579959" lon="14.980913911621391"><ele>225.0</ele><time>2026-04-25T12:06:19Z</time></trkpt><trkpt lat="40.685767610981394" lon="14.980917407015713"><ele>224.14285714285717</ele><time>2026-04-25T12:06:20Z</time></trkpt><trkpt lat="40.68569728543975" lon="14.980918412229759"><ele>223.28571428571428</ele><time>2026-04-25T12:06:21Z</time></trkpt><trkpt lat="40.685631995644734" lon="14.98091250047804"><ele>222.42857142857144</ele><time>2026-04-25T12:06:22Z</time></trkpt><trkpt lat="40.685562608297886" lon="14.980900897870894"><ele>221.57142857142858</ele><time>2026-04-25T12:06:23Z</time></trkpt><trkpt lat="40.68549084369855" lon="14.980883139947519"><ele>220.71428571428572</ele><time>2026-04-25T12:06:24Z</time></trkpt><trkpt lat="40.685423062568674" lon="14.980894278182328"><ele>219.85714285714286</ele><time>2026-04-25T12:06:25Z</time></trkpt><trkpt lat="40.68536094939549" lon="14.980879195264793"><ele>219.0</ele><time>2026-04-25T12:06:26Z</time></trkpt><trkpt lat="40.685296809907236" lon="14.980908540722522"><ele>219.33333333333334</ele><time>2026-04-25T12:06:27Z</time></trkpt><trkpt lat="40.68523224163694" lon="14.980923232163809"><ele>219.66666666666669</ele><time>2026-04-25T12:06:28Z</time></trkpt><trkpt lat="40.68515479817433" lon="14.980897303009778"><ele>220.0</ele><time>2026-04-25T12:06:29Z</time></trkpt><trkpt lat="40.68507242378807" lon="14.98085568139421"><ele>220.33333333333334</ele><time>2026-04-25T12:06:30Z</time></trkpt><trkpt lat="40.684990298931844" lon="14.980832176486208"><ele>220.66666666666669</ele><time>2026-04-25T12:06:31Z</time></trkpt><trkpt lat="40.684909445453954" lon="14.980811440039359"><ele>221.0</ele><time>2026-04-25T12:06:32Z</time></trkpt><trkpt lat="40.684831711666725" lon="14.980794932236872"><ele>223.00000000000003</ele><time>2026-04-25T12:06:33Z</time></trkpt><trkpt lat="40.68476417948497" lon="14.980783627544952"><ele>225.0</ele><time>2026-04-25T12:06:34Z</time></trkpt><trkpt lat="40.68469584199711" lon="14.980774245100339"><ele>227.0</ele><time>2026-04-25T12:06:35Z</time></trkpt><trkpt lat="40.68462997804355" lon="14.98076520196942"><ele>229.0</ele><time>2026-04-25T12:06:36Z</time></trkpt><trkpt lat="40.684535020228815" lon="14.980772183965376"><ele>231.00000000000003</ele><time>2026-04-25T12:06:38Z</time></trkpt><trkpt lat="40.68442277606072" lon="14.980798292221094"><ele>233.0</ele><time>2026-04-25T12:06:40Z</time></trkpt><trkpt lat="40.68429754999506" lon="14.980845336773193"><ele>230.0</ele><time>2026-04-25T12:06:41.999Z</time></trkpt><trkpt lat="40.68423254793792" lon="14.980881018763867"><ele>227.0</ele><time>2026-04-25T12:06:42.999Z</time></trkpt><trkpt lat="40.684109353458076" lon="14.980900948740125"><ele>224.0</ele><time>2026-04-25T12:06:44.999Z</time></trkpt><trkpt lat="40.68402689232746" lon="14.980918037962537"><ele>221.0</ele><time>2026-04-25T12:06:45.999Z</time></trkpt><trkpt lat="40.683908493094854" lon="14.980917348611005"><ele>218.0</ele><time>2026-04-25T12:06:47.999Z</time></trkpt><trkpt lat="40.683836499014795" lon="14.980897129113709"><ele>218.00000000000003</ele><time>2026-04-25T12:06:48.999Z</time></trkpt><trkpt lat="40.68373918312761" lon="14.980860515344954"><ele>218.0</ele><time>2026-04-25T12:06:49.999Z</time></trkpt><trkpt lat="40.68365600584227" lon="14.980856973542299"><ele>218.0</ele><time>2026-04-25T12:06:50.999Z</time></trkpt><trkpt lat="40.6835760882382" lon="14.98086758414639"><ele>218.0</ele><time>2026-04-25T12:06:51.999Z</time></trkpt><trkpt lat="40.6835020287711" lon="14.980887434790178"><ele>218.00000000000003</ele><time>2026-04-25T12:06:52.999Z</time></trkpt><trkpt lat="40.683431298798666" lon="14.980912232944743"><ele>218.0</ele><time>2026-04-25T12:06:53.999Z</time></trkpt><trkpt lat="40.68336935458174" lon="14.980930359537137"><ele>218.0</ele><time>2026-04-25T12:06:54.999Z</time></trkpt><trkpt lat="40.68328376081264" lon="14.980997403481291"><ele>218.0</ele><time>2026-04-25T12:06:55.999Z</time></trkpt><trkpt lat="40.68321997732421" lon="14.981087895576326"><ele>218.0</ele><time>2026-04-25T12:06:56.999Z</time></trkpt><trkpt lat="40.68313391786349" lon="14.98113658461081"><ele>218.0</ele><time>2026-04-25T12:06:57.999Z</time></trkpt><trkpt lat="40.68306239275455" lon="14.981189043852753"><ele>218.0</ele><time>2026-04-25T12:06:58.999Z</time></trkpt><trkpt lat="40.68299045117633" lon="14.981248101544821"><ele>218.00000000000003</ele><time>2026-04-25T12:06:59.999Z</time></trkpt><trkpt lat="40.682922925413216" lon="14.981307379933892"><ele>218.0</ele><time>2026-04-25T12:07:00.999Z</time></trkpt><trkpt lat="40.68284888423432" lon="14.98135304263231"><ele>218.0</ele><time>2026-04-25T12:07:01.999Z</time></trkpt><trkpt lat="40.68278016036073" lon="14.981418039214484"><ele>218.0</ele><time>2026-04-25T12:07:02.999Z</time></trkpt><trkpt lat="40.68270241420078" lon="14.981483603639877"><ele>218.00000000000003</ele><time>2026-04-25T12:07:03.999Z</time></trkpt><trkpt lat="40.682621790486294" lon="14.981546445932649"><ele>218.0</ele><time>2026-04-25T12:07:04.999Z</time></trkpt><trkpt lat="40.68254284091364" lon="14.981595580626035"><ele>219.2</ele><time>2026-04-25T12:07:05.999Z</time></trkpt><trkpt lat="40.682458164144585" lon="14.98163301849346"><ele>220.4</ele><time>2026-04-25T12:07:06.999Z</time></trkpt><trkpt lat="40.6823785533118" lon="14.981669237600885"><ele>221.59999999999997</ele><time>2026-04-25T12:07:07.999Z</time></trkpt><trkpt lat="40.68230483893107" lon="14.981722528420718"><ele>222.79999999999998</ele><time>2026-04-25T12:07:08.999Z</time></trkpt><trkpt lat="40.682216223678815" lon="14.981758740548013"><ele>224.0</ele><time>2026-04-25T12:07:09.999Z</time></trkpt><trkpt lat="40.68210147605966" lon="14.981771190858451"><ele>219.79999999999998</ele><time>2026-04-25T12:07:10.999Z</time></trkpt><trkpt lat="40.681987816394695" lon="14.981787334520725"><ele>215.59999999999997</ele><time>2026-04-25T12:07:11.999Z</time></trkpt><trkpt lat="40.68188277152256" lon="14.981799066702859"><ele>211.4</ele><time>2026-04-25T12:07:12.999Z</time></trkpt><trkpt lat="40.68178733074022" lon="14.98184094623329"><ele>207.2</ele><time>2026-04-25T12:07:13.999Z</time></trkpt><trkpt lat="40.68168751507986" lon="14.981842076338776"><ele>203.0</ele><time>2026-04-25T12:07:15Z</time></trkpt><trkpt lat="40.6816031909981" lon="14.98190549462154"><ele>203.0</ele><time>2026-04-25T12:07:16Z</time></trkpt><trkpt lat="40.681514013435304" lon="14.981928545082093"><ele>203.0</ele><time>2026-04-25T12:07:17Z</time></trkpt><trkpt lat="40.68140016353643" lon="14.98193825523502"><ele>203.0</ele><time>2026-04-25T12:07:18Z</time></trkpt><trkpt lat="40.681269407003825" lon="14.981954431022544"><ele>203.0</ele><time>2026-04-25T12:07:19Z</time></trkpt><trkpt lat="40.681137687589036" lon="14.981961545653066"><ele>203.25</ele><time>2026-04-25T12:07:20Z</time></trkpt><trkpt lat="40.680994425165416" lon="14.981969474877669"><ele>203.5</ele><time>2026-04-25T12:07:21Z</time></trkpt><trkpt lat="40.680856434469575" lon="14.981986804448974"><ele>203.75</ele><time>2026-04-25T12:07:22Z</time></trkpt><trkpt lat="40.68071796221136" lon="14.982004157052483"><ele>204.0</ele><time>2026-04-25T12:07:23Z</time></trkpt><trkpt lat="40.680581680138026" lon="14.982021598367306"><ele>204.0</ele><time>2026-04-25T12:07:24Z</time></trkpt><trkpt lat="40.68044589564146" lon="14.982046035348874"><ele>204.0</ele><time>2026-04-25T12:07:25Z</time></trkpt><trkpt lat="40.68030174538391" lon="14.98208013659759"><ele>204.0</ele><time>2026-04-25T12:07:26Z</time></trkpt><trkpt lat="40.68016119615677" lon="14.98211428734223"><ele>204.0</ele><time>2026-04-25T12:07:27Z</time></trkpt><trkpt lat="40.68003016550982" lon="14.98215096214771"><ele>203.66666666666669</ele><time>2026-04-25T12:07:28Z</time></trkpt><trkpt lat="40.67989571164811" lon="14.982191617000382"><ele>203.33333333333334</ele><time>2026-04-25T12:07:29Z</time></trkpt><trkpt lat="40.67975833324578" lon="14.982301714023318"><ele>203.0</ele><time>2026-04-25T12:07:30Z</time></trkpt><trkpt lat="40.679629352758774" lon="14.98244622655966"><ele>198.66666666666669</ele><time>2026-04-25T12:07:31Z</time></trkpt><trkpt lat="40.67948391033416" lon="14.98256302217078"><ele>194.33333333333334</ele><time>2026-04-25T12:07:32Z</time></trkpt><trkpt lat="40.67934559696988" lon="14.982657180126697"><ele>190.0</ele><time>2026-04-25T12:07:33Z</time></trkpt><trkpt lat="40.67920858662362" lon="14.982736907772908"><ele>190.0</ele><time>2026-04-25T12:07:34Z</time></trkpt><trkpt lat="40.67905579688978" lon="14.982808908113155"><ele>190.0</ele><time>2026-04-25T12:07:35Z</time></trkpt><trkpt lat="40.67889175837063" lon="14.982872887663415"><ele>190.0</ele><time>2026-04-25T12:07:36Z</time></trkpt><trkpt lat="40.67873542479013" lon="14.982927885205642"><ele>192.0</ele><time>2026-04-25T12:07:37Z</time></trkpt><trkpt lat="40.67857812941031" lon="14.982992180495055"><ele>194.0</ele><time>2026-04-25T12:07:38Z</time></trkpt><trkpt lat="40.678415966598706" lon="14.983065485061237"><ele>196.0</ele><time>2026-04-25T12:07:39Z</time></trkpt><trkpt lat="40.678246029620404" lon="14.983109292502782"><ele>196.0</ele><time>2026-04-25T12:07:40Z</time></trkpt><trkpt lat="40.678080101066946" lon="14.983193440262838"><ele>196.0</ele><time>2026-04-25T12:07:41Z</time></trkpt><trkpt lat="40.67791236752327" lon="14.983259436874372"><ele>196.0</ele><time>2026-04-25T12:07:42Z</time></trkpt><trkpt lat="40.67775760958379" lon="14.983318392175232"><ele>193.0</ele><time>2026-04-25T12:07:43Z</time></trkpt><trkpt lat="40.677601592537385" lon="14.983377646885378"><ele>190.0</ele><time>2026-04-25T12:07:44Z</time></trkpt><trkpt lat="40.67744778173256" lon="14.983431762491188"><ele>187.0</ele><time>2026-04-25T12:07:45Z</time></trkpt><trkpt lat="40.67730438409034" lon="14.983473263137132"><ele>187.0</ele><time>2026-04-25T12:07:46Z</time></trkpt><trkpt lat="40.677168527649016" lon="14.983502096238132"><ele>187.0</ele><time>2026-04-25T12:07:47Z</time></trkpt><trkpt lat="40.67703935077674" lon="14.983519623258317"><ele>187.0</ele><time>2026-04-25T12:07:48Z</time></trkpt><trkpt lat="40.676922613470666" lon="14.983526754833754"><ele>187.0</ele><time>2026-04-25T12:07:49Z</time></trkpt><trkpt lat="40.67682749165787" lon="14.983525297787107"><ele>188.0</ele><time>2026-04-25T12:07:50Z</time></trkpt><trkpt lat="40.67675573372574" lon="14.983481939988883"><ele>189.0</ele><time>2026-04-25T12:07:51Z</time></trkpt><trkpt lat="40.67666084289961" lon="14.983541308891622"><ele>190.0</ele><time>2026-04-25T12:07:52Z</time></trkpt><trkpt lat="40.67656600016756" lon="14.983589326285024"><ele>191.0</ele><time>2026-04-25T12:07:53Z</time></trkpt><trkpt lat="40.67646004059976" lon="14.983638691673763"><ele>192.0</ele><time>2026-04-25T12:07:54Z</time></trkpt><trkpt lat="40.67635110931978" lon="14.983686222092041"><ele>192.0</ele><time>2026-04-25T12:07:55Z</time></trkpt><trkpt lat="40.67623725346508" lon="14.983752493697997"><ele>192.0</ele><time>2026-04-25T12:07:56Z</time></trkpt><trkpt lat="40.67613901936898" lon="14.98383030805474"><ele>192.0</ele><time>2026-04-25T12:07:57Z</time></trkpt><trkpt lat="40.67605519421518" lon="14.983961218079475"><ele>192.0</ele><time>2026-04-25T12:07:58Z</time></trkpt><trkpt lat="40.67593817090491" lon="14.984033449842768"><ele>192.5</ele><time>2026-04-25T12:07:59Z</time></trkpt><trkpt lat="40.67582601604665" lon="14.984099522806888"><ele>193.0</ele><time>2026-04-25T12:08:00Z</time></trkpt><trkpt lat="40.675720244078285" lon="14.98416857045866"><ele>193.5</ele><time>2026-04-25T12:08:01Z</time></trkpt><trkpt lat="40.67562243522013" lon="14.98423656649431"><ele>194.0</ele><time>2026-04-25T12:08:02Z</time></trkpt><trkpt lat="40.675533983522314" lon="14.984293028708253"><ele>192.2</ele><time>2026-04-25T12:08:03Z</time></trkpt><trkpt lat="40.675450243729706" lon="14.984348809930303"><ele>190.39999999999998</ele><time>2026-04-25T12:08:04Z</time></trkpt><trkpt lat="40.67537312102397" lon="14.984397308158108"><ele>188.6</ele><time>2026-04-25T12:08:05Z</time></trkpt><trkpt lat="40.67530751612078" lon="14.984463111655622"><ele>186.8</ele><time>2026-04-25T12:08:06Z</time></trkpt><trkpt lat="40.67524794542635" lon="14.984560809193843"><ele>185.0</ele><time>2026-04-25T12:08:07Z</time></trkpt><trkpt lat="40.675195700547455" lon="14.984677754419703"><ele>185.0</ele><time>2026-04-25T12:08:08Z</time></trkpt><trkpt lat="40.67515162055493" lon="14.984797525083632"><ele>185.0</ele><time>2026-04-25T12:08:09Z</time></trkpt><trkpt lat="40.675097174335356" lon="14.98491360665055"><ele>185.0</ele><time>2026-04-25T12:08:10Z</time></trkpt><trkpt lat="40.67502713699369" lon="14.985018208002943"><ele>185.0</ele><time>2026-04-25T12:08:11Z</time></trkpt><trkpt lat="40.67494445017197" lon="14.985126443409454"><ele>185.0</ele><time>2026-04-25T12:08:12Z</time></trkpt><trkpt lat="40.674887818718155" lon="14.985232155328445"><ele>183.0</ele><time>2026-04-25T12:08:13Z</time></trkpt><trkpt lat="40.67483970144916" lon="14.985331066702457"><ele>181.0</ele><time>2026-04-25T12:08:14Z</time></trkpt><trkpt lat="40.67479726007728" lon="14.985433858351355"><ele>179.0</ele><time>2026-04-25T12:08:15Z</time></trkpt><trkpt lat="40.67476293878735" lon="14.985536814462192"><ele>177.0</ele><time>2026-04-25T12:08:16Z</time></trkpt><trkpt lat="40.67473366042097" lon="14.985636529768174"><ele>175.0</ele><time>2026-04-25T12:08:17Z</time></trkpt><trkpt lat="40.67471097122865" lon="14.985728934188629"><ele>173.0</ele><time>2026-04-25T12:08:18Z</time></trkpt><trkpt lat="40.674690896508274" lon="14.985808917777753"><ele>172.0</ele><time>2026-04-25T12:08:19Z</time></trkpt><trkpt lat="40.67463834688901" lon="14.9859505048374"><ele>171.0</ele><time>2026-04-25T12:08:21Z</time></trkpt><trkpt lat="40.6745900320118" lon="14.986041849581182"><ele>170.0</ele><time>2026-04-25T12:08:23Z</time></trkpt><trkpt lat="40.67454741487276" lon="14.986116273635563"><ele>169.0</ele><time>2026-04-25T12:08:26Z</time></trkpt><trkpt lat="40.67461186501868" lon="14.98621477656475"><ele>168.0</ele><time>2026-04-25T12:08:27Z</time></trkpt><trkpt lat="40.674685603404136" lon="14.986274522678944"><ele>168.0</ele><time>2026-04-25T12:08:28Z</time></trkpt><trkpt lat="40.67475306400216" lon="14.986340020966054"><ele>168.0</ele><time>2026-04-25T12:08:29Z</time></trkpt><trkpt lat="40.67482601430906" lon="14.986420678550372"><ele>168.0</ele><time>2026-04-25T12:08:30Z</time></trkpt><trkpt lat="40.67488764448699" lon="14.98650479731488"><ele>168.0</ele><time>2026-04-25T12:08:31Z</time></trkpt><trkpt lat="40.67492486059462" lon="14.986602146002916"><ele>168.0</ele><time>2026-04-25T12:08:32Z</time></trkpt><trkpt lat="40.6749373482669" lon="14.986712622983067"><ele>168.0</ele><time>2026-04-25T12:08:33Z</time></trkpt><trkpt lat="40.67491201068301" lon="14.986823229773961"><ele>168.5</ele><time>2026-04-25T12:08:34Z</time></trkpt><trkpt lat="40.67484154801276" lon="14.986926170903539"><ele>169.0</ele><time>2026-04-25T12:08:35Z</time></trkpt><trkpt lat="40.67478800486848" lon="14.987034597038598"><ele>169.5</ele><time>2026-04-25T12:08:36Z</time></trkpt><trkpt lat="40.67475137393609" lon="14.987132648945103"><ele>170.0</ele><time>2026-04-25T12:08:37Z</time></trkpt><trkpt lat="40.674710119439524" lon="14.98720524504831"><ele>170.5</ele><time>2026-04-25T12:08:38Z</time></trkpt><trkpt lat="40.674673547372926" lon="14.987310380654375"><ele>171.0</ele><time>2026-04-25T12:08:40Z</time></trkpt><trkpt lat="40.67468332360814" lon="14.987395060632917"><ele>171.0</ele><time>2026-04-25T12:08:41Z</time></trkpt><trkpt lat="40.674804825085744" lon="14.987476797927263"><ele>171.0</ele><time>2026-04-25T12:08:42Z</time></trkpt><trkpt lat="40.67493154032829" lon="14.987492308164006"><ele>171.0</ele><time>2026-04-25T12:08:42.999Z</time></trkpt><trkpt lat="40.67505513192701" lon="14.987549679874961"><ele>171.0</ele><time>2026-04-25T12:08:43.999Z</time></trkpt><trkpt lat="40.67515048339207" lon="14.987656927138364"><ele>172.25</ele><time>2026-04-25T12:08:44.999Z</time></trkpt><trkpt lat="40.67524597048024" lon="14.987777189352371"><ele>173.5</ele><time>2026-04-25T12:08:45.999Z</time></trkpt><trkpt lat="40.67534821080751" lon="14.98790665735464"><ele>174.75</ele><time>2026-04-25T12:08:46.999Z</time></trkpt><trkpt lat="40.67547337629325" lon="14.987972358448229"><ele>176.0</ele><time>2026-04-25T12:08:47.999Z</time></trkpt><trkpt lat="40.67560245446253" lon="14.988021582798092"><ele>176.8</ele><time>2026-04-25T12:08:48.999Z</time></trkpt><trkpt lat="40.6756917799395" lon="14.988075428612897"><ele>177.60000000000002</ele><time>2026-04-25T12:08:49.999Z</time></trkpt><trkpt lat="40.67575391518493" lon="14.9881490450653"><ele>178.4</ele><time>2026-04-25T12:08:50.999Z</time></trkpt><trkpt lat="40.67577200754882" lon="14.988274089833022"><ele>179.2</ele><time>2026-04-25T12:08:51.999Z</time></trkpt><trkpt lat="40.67578431892982" lon="14.988416086844929"><ele>180.0</ele><time>2026-04-25T12:08:52.999Z</time></trkpt><trkpt lat="40.675811486425985" lon="14.988584449764403"><ele>181.0</ele><time>2026-04-25T12:08:53.999Z</time></trkpt><trkpt lat="40.67585052702273" lon="14.988725213720848"><ele>182.0</ele><time>2026-04-25T12:08:54.999Z</time></trkpt><trkpt lat="40.67584807629884" lon="14.988866899928505"><ele>183.0</ele><time>2026-04-25T12:08:55.999Z</time></trkpt><trkpt lat="40.675840018025575" lon="14.989004729140987"><ele>184.0</ele><time>2026-04-25T12:08:56.999Z</time></trkpt><trkpt lat="40.675793549870455" lon="14.98915921849949"><ele>185.66666666666669</ele><time>2026-04-25T12:08:57.999Z</time></trkpt><trkpt lat="40.67571042017118" lon="14.989321125093433"><ele>187.33333333333334</ele><time>2026-04-25T12:08:58.999Z</time></trkpt><trkpt lat="40.67563043594892" lon="14.989531908270436"><ele>189.0</ele><time>2026-04-25T12:08:59.999Z</time></trkpt><trkpt lat="40.67552820318121" lon="14.989715130513638"><ele>189.0</ele><time>2026-04-25T12:09:00.999Z</time></trkpt><trkpt lat="40.675450318066126" lon="14.989896298294155"><ele>189.0</ele><time>2026-04-25T12:09:01.999Z</time></trkpt><trkpt lat="40.67537631605893" lon="14.990072896836065"><ele>189.0</ele><time>2026-04-25T12:09:02.999Z</time></trkpt><trkpt lat="40.67529686186896" lon="14.990245982205295"><ele>190.5</ele><time>2026-04-25T12:09:03.999Z</time></trkpt><trkpt lat="40.67522386203948" lon="14.990419079447685"><ele>192.0</ele><time>2026-04-25T12:09:04.999Z</time></trkpt><trkpt lat="40.67513839059985" lon="14.990576321333274"><ele>193.5</ele><time>2026-04-25T12:09:05.999Z</time></trkpt><trkpt lat="40.67506946727458" lon="14.99072304181159"><ele>195.0</ele><time>2026-04-25T12:09:06.999Z</time></trkpt><trkpt lat="40.67501158921177" lon="14.990846249463425"><ele>197.6</ele><time>2026-04-25T12:09:07.999Z</time></trkpt><trkpt lat="40.67496780331172" lon="14.990979437439455"><ele>200.2</ele><time>2026-04-25T12:09:08.999Z</time></trkpt><trkpt lat="40.67490755375602" lon="14.991107616746882"><ele>202.8</ele><time>2026-04-25T12:09:09.999Z</time></trkpt><trkpt lat="40.67485255839662" lon="14.99123638492019"><ele>205.4</ele><time>2026-04-25T12:09:10.999Z</time></trkpt><trkpt lat="40.67479802845328" lon="14.991361534228192"><ele>208.0</ele><time>2026-04-25T12:09:11.999Z</time></trkpt><trkpt lat="40.67473976633981" lon="14.991488075770597"><ele>207.99999999999997</ele><time>2026-04-25T12:09:12.999Z</time></trkpt><trkpt lat="40.67468849831329" lon="14.991601962597489"><ele>208.0</ele><time>2026-04-25T12:09:13.999Z</time></trkpt><trkpt lat="40.674646550837906" lon="14.991694139375939"><ele>208.0</ele><time>2026-04-25T12:09:14.999Z</time></trkpt><trkpt lat="40.674632361912515" lon="14.991780679692843"><ele>208.0</ele><time>2026-04-25T12:09:15.999Z</time></trkpt><trkpt lat="40.67465435986292" lon="14.991875071424124"><ele>207.99999999999997</ele><time>2026-04-25T12:09:16.999Z</time></trkpt><trkpt lat="40.674737946810716" lon="14.99194013724113"><ele>208.0</ele><time>2026-04-25T12:09:17.999Z</time></trkpt><trkpt lat="40.67483136246379" lon="14.992002356191218"><ele>209.75</ele><time>2026-04-25T12:09:18.999Z</time></trkpt><trkpt lat="40.67492821215819" lon="14.992092541560828"><ele>211.5</ele><time>2026-04-25T12:09:19.999Z</time></trkpt><trkpt lat="40.675055811521" lon="14.992162165991855"><ele>213.25</ele><time>2026-04-25T12:09:21Z</time></trkpt><trkpt lat="40.67517924114465" lon="14.992277447486755"><ele>215.0</ele><time>2026-04-25T12:09:22Z</time></trkpt><trkpt lat="40.67532273437963" lon="14.992385058644656"><ele>218.66666666666669</ele><time>2026-04-25T12:09:23Z</time></trkpt><trkpt lat="40.67548504313981" lon="14.99250678037513"><ele>222.33333333333331</ele><time>2026-04-25T12:09:24Z</time></trkpt><trkpt lat="40.675662884550796" lon="14.992643037551792"><ele>226.0</ele><time>2026-04-25T12:09:25Z</time></trkpt><trkpt lat="40.675812714243435" lon="14.992758926954307"><ele>226.0</ele><time>2026-04-25T12:09:26Z</time></trkpt><trkpt lat="40.675949928640634" lon="14.992866058423528"><ele>226.0</ele><time>2026-04-25T12:09:27Z</time></trkpt><trkpt lat="40.67608294745937" lon="14.992968251641067"><ele>226.0</ele><time>2026-04-25T12:09:28Z</time></trkpt><trkpt lat="40.67620959021865" lon="14.993063159520368"><ele>228.0</ele><time>2026-04-25T12:09:29Z</time></trkpt><trkpt lat="40.67634271658923" lon="14.993162926259505"><ele>230.0</ele><time>2026-04-25T12:09:30Z</time></trkpt><trkpt lat="40.67647875579818" lon="14.993264875904496"><ele>232.0</ele><time>2026-04-25T12:09:31Z</time></trkpt><trkpt lat="40.67662052900783" lon="14.993372248704013"><ele>233.33333333333331</ele><time>2026-04-25T12:09:32Z</time></trkpt><trkpt lat="40.6767676403142" lon="14.993483858145721"><ele>234.66666666666669</ele><time>2026-04-25T12:09:33Z</time></trkpt><trkpt lat="40.676925291767596" lon="14.993603464891336"><ele>236.0</ele><time>2026-04-25T12:09:34Z</time></trkpt><trkpt lat="40.677084337460535" lon="14.993722992262134"><ele>239.33333333333334</ele><time>2026-04-25T12:09:35Z</time></trkpt><trkpt lat="40.677235998396434" lon="14.993837135727876"><ele>242.66666666666669</ele><time>2026-04-25T12:09:36Z</time></trkpt><trkpt lat="40.677390630554584" lon="14.993952020637556"><ele>246.0</ele><time>2026-04-25T12:09:37Z</time></trkpt><trkpt lat="40.677549695249404" lon="14.994046944466971"><ele>246.0</ele><time>2026-04-25T12:09:38Z</time></trkpt><trkpt lat="40.677675714771105" lon="14.994155455139898"><ele>246.0</ele><time>2026-04-25T12:09:39Z</time></trkpt><trkpt lat="40.67781338648361" lon="14.994242538323702"><ele>246.0</ele><time>2026-04-25T12:09:40Z</time></trkpt><trkpt lat="40.67795435197752" lon="14.994349946165658"><ele>249.66666666666669</ele><time>2026-04-25T12:09:41Z</time></trkpt><trkpt lat="40.6780975273656" lon="14.994483901254181"><ele>253.33333333333334</ele><time>2026-04-25T12:09:42Z</time></trkpt><trkpt lat="40.678256860223385" lon="14.994605186348434"><ele>257.0</ele><time>2026-04-25T12:09:43Z</time></trkpt><trkpt lat="40.67842676050626" lon="14.994715064418893"><ele>257.0</ele><time>2026-04-25T12:09:44Z</time></trkpt><trkpt lat="40.67858351823133" lon="14.994837276275076"><ele>257.0</ele><time>2026-04-25T12:09:45Z</time></trkpt><trkpt lat="40.678738360727095" lon="14.994983590436354"><ele>257.0</ele><time>2026-04-25T12:09:46Z</time></trkpt><trkpt lat="40.678888765276355" lon="14.995102724698501"><ele>259.25</ele><time>2026-04-25T12:09:47Z</time></trkpt><trkpt lat="40.67901353491597" lon="14.995201649609255"><ele>261.5</ele><time>2026-04-25T12:09:48Z</time></trkpt><trkpt lat="40.67913560394698" lon="14.995277212143872"><ele>263.75</ele><time>2026-04-25T12:09:49Z</time></trkpt><trkpt lat="40.679251642074334" lon="14.995372815941217"><ele>266.0</ele><time>2026-04-25T12:09:50Z</time></trkpt><trkpt lat="40.67937488592672" lon="14.995471936189906"><ele>268.0</ele><time>2026-04-25T12:09:51Z</time></trkpt><trkpt lat="40.67950478918697" lon="14.99556955373792"><ele>270.0</ele><time>2026-04-25T12:09:52Z</time></trkpt><trkpt lat="40.67963040103301" lon="14.995681334070797"><ele>272.0</ele><time>2026-04-25T12:09:53Z</time></trkpt><trkpt lat="40.67973934724189" lon="14.995756476421437"><ele>274.0</ele><time>2026-04-25T12:09:54Z</time></trkpt><trkpt lat="40.679832288462876" lon="14.99582074399389"><ele>275.4</ele><time>2026-04-25T12:09:55Z</time></trkpt><trkpt lat="40.679911453552556" lon="14.995875527459015"><ele>276.79999999999995</ele><time>2026-04-25T12:09:56Z</time></trkpt><trkpt lat="40.67997745080824" lon="14.995922228023534"><ele>278.20000000000005</ele><time>2026-04-25T12:09:57Z</time></trkpt><trkpt lat="40.6800607357835" lon="14.995982472214896"><ele>279.6</ele><time>2026-04-25T12:09:59Z</time></trkpt><trkpt lat="40.68001752495649" lon="14.99612689121618"><ele>281.0</ele><time>2026-04-25T12:10:04Z</time></trkpt><trkpt lat="40.67998550620719" lon="14.996227949242709"><ele>281.0</ele><time>2026-04-25T12:10:05Z</time></trkpt><trkpt lat="40.67993802331151" lon="14.99632035917703"><ele>281.0</ele><time>2026-04-25T12:10:06Z</time></trkpt><trkpt lat="40.67989462091905" lon="14.996423077884112"><ele>281.0</ele><time>2026-04-25T12:10:07Z</time></trkpt><trkpt lat="40.67984460371833" lon="14.996541362836192"><ele>281.0</ele><time>2026-04-25T12:10:08Z</time></trkpt><trkpt lat="40.67978772614746" lon="14.996677173361348"><ele>281.0</ele><time>2026-04-25T12:10:09Z</time></trkpt><trkpt lat="40.67972517337797" lon="14.996816121894145"><ele>281.8</ele><time>2026-04-25T12:10:10Z</time></trkpt><trkpt lat="40.67967039655294" lon="14.996940671854908"><ele>282.6</ele><time>2026-04-25T12:10:11Z</time></trkpt><trkpt lat="40.67962947644588" lon="14.997035463561101"><ele>283.4</ele><time>2026-04-25T12:10:12Z</time></trkpt><trkpt lat="40.679576542796426" lon="14.997171374420656"><ele>284.2</ele><time>2026-04-25T12:10:14Z</time></trkpt><trkpt lat="40.67951125744895" lon="14.997309190390293"><ele>285.0</ele><time>2026-04-25T12:10:16Z</time></trkpt><trkpt lat="40.67946531393142" lon="14.997390956998883"><ele>283.0</ele><time>2026-04-25T12:10:17Z</time></trkpt><trkpt lat="40.67942103217059" lon="14.997489435548488"><ele>281.0</ele><time>2026-04-25T12:10:18Z</time></trkpt><trkpt lat="40.67937527203521" lon="14.997591135104933"><ele>279.0</ele><time>2026-04-25T12:10:19Z</time></trkpt><trkpt lat="40.679323583568376" lon="14.997683179054123"><ele>277.0</ele><time>2026-04-25T12:10:20Z</time></trkpt><trkpt lat="40.67927711416775" lon="14.997766211396456"><ele>275.0</ele><time>2026-04-25T12:10:21Z</time></trkpt><trkpt lat="40.679243796865286" lon="14.997841509428996"><ele>273.0</ele><time>2026-04-25T12:10:22Z</time></trkpt><trkpt lat="40.67922432298932" lon="14.997922335492861"><ele>273.0</ele><time>2026-04-25T12:10:23Z</time></trkpt><trkpt lat="40.67922840127562" lon="14.998011661583458"><ele>273.0</ele><time>2026-04-25T12:10:24Z</time></trkpt><trkpt lat="40.679246365003785" lon="14.998106597626057"><ele>273.0</ele><time>2026-04-25T12:10:25Z</time></trkpt><trkpt lat="40.67928223387035" lon="14.998196786127014"><ele>273.0</ele><time>2026-04-25T12:10:26Z</time></trkpt><trkpt lat="40.679274328469276" lon="14.998355480193595"><ele>273.0</ele><time>2026-04-25T12:10:28Z</time></trkpt><trkpt lat="40.6792170465883" lon="14.998439320359436"><ele>273.0</ele><time>2026-04-25T12:10:29Z</time></trkpt><trkpt lat="40.679155598681085" lon="14.998532180893216"><ele>274.2</ele><time>2026-04-25T12:10:30Z</time></trkpt><trkpt lat="40.679094768753565" lon="14.998616533349562"><ele>275.4</ele><time>2026-04-25T12:10:31Z</time></trkpt><trkpt lat="40.6790661075046" lon="14.99873629700187"><ele>276.59999999999997</ele><time>2026-04-25T12:10:32Z</time></trkpt><trkpt lat="40.679021985849786" lon="14.998848701246805"><ele>277.8</ele><time>2026-04-25T12:10:33Z</time></trkpt><trkpt lat="40.67898002761173" lon="14.998957845964071"><ele>279.0</ele><time>2026-04-25T12:10:34Z</time></trkpt><trkpt lat="40.67894075982839" lon="14.999057710754503"><ele>279.0</ele><time>2026-04-25T12:10:35Z</time></trkpt><trkpt lat="40.67890306894729" lon="14.999141719769348"><ele>279.0</ele><time>2026-04-25T12:10:36Z</time></trkpt><trkpt lat="40.67885204409865" lon="14.99924227341215"><ele>279.0</ele><time>2026-04-25T12:10:37Z</time></trkpt><trkpt lat="40.6788028636735" lon="14.999339336809113"><ele>279.0</ele><time>2026-04-25T12:10:38Z</time></trkpt><trkpt lat="40.67875430313245" lon="14.999438862765393"><ele>279.0</ele><time>2026-04-25T12:10:39Z</time></trkpt><trkpt lat="40.67868404815031" lon="14.999517025150368"><ele>279.0</ele><time>2026-04-25T12:10:40Z</time></trkpt><trkpt lat="40.67861450835048" lon="14.99960330193999"><ele>277.8</ele><time>2026-04-25T12:10:41Z</time></trkpt><trkpt lat="40.67856518496189" lon="14.99971814718053"><ele>276.59999999999997</ele><time>2026-04-25T12:10:42Z</time></trkpt><trkpt lat="40.67849386449803" lon="14.999804367064122"><ele>275.4</ele><time>2026-04-25T12:10:43Z</time></trkpt><trkpt lat="40.678474829550645" lon="14.999926010339767"><ele>274.2</ele><time>2026-04-25T12:10:44Z</time></trkpt><trkpt lat="40.678510786325816" lon="15.0000566526196"><ele>273.0</ele><time>2026-04-25T12:10:45Z</time></trkpt><trkpt lat="40.678421284690465" lon="15.00015937723974"><ele>273.0</ele><time>2026-04-25T12:10:45.999Z</time></trkpt><trkpt lat="40.67840750331447" lon="15.00030864315462"><ele>273.0</ele><time>2026-04-25T12:10:46.999Z</time></trkpt><trkpt lat="40.67840334494391" lon="15.000458349954606"><ele>273.0</ele><time>2026-04-25T12:10:47.999Z</time></trkpt><trkpt lat="40.678402687441434" lon="15.000592677002402"><ele>273.0</ele><time>2026-04-25T12:10:48.999Z</time></trkpt><trkpt lat="40.678395559774245" lon="15.000716281361024"><ele>273.0</ele><time>2026-04-25T12:10:49.999Z</time></trkpt><trkpt lat="40.678381402414736" lon="15.000844180893777"><ele>272.8</ele><time>2026-04-25T12:10:50.999Z</time></trkpt><trkpt lat="40.67836337231405" lon="15.000967247442333"><ele>272.6</ele><time>2026-04-25T12:10:51.999Z</time></trkpt><trkpt lat="40.67835116672668" lon="15.001073121426952"><ele>272.4</ele><time>2026-04-25T12:10:52.999Z</time></trkpt><trkpt lat="40.678316949053176" lon="15.001194100295681"><ele>272.2</ele><time>2026-04-25T12:10:54.999Z</time></trkpt><trkpt lat="40.678277141914116" lon="15.001299875894082"><ele>272.0</ele><time>2026-04-25T12:10:56.999Z</time></trkpt><trkpt lat="40.678251793099555" lon="15.00141294831013"><ele>272.0</ele><time>2026-04-25T12:10:58.999Z</time></trkpt><trkpt lat="40.678258026652756" lon="15.00151127281002"><ele>272.0</ele><time>2026-04-25T12:11:00.999Z</time></trkpt><trkpt lat="40.67825932186442" lon="15.001615383558761"><ele>272.0</ele><time>2026-04-25T12:11:01.999Z</time></trkpt><trkpt lat="40.678273157552916" lon="15.001725975311375"><ele>272.0</ele><time>2026-04-25T12:11:03.999Z</time></trkpt><trkpt lat="40.678265011861825" lon="15.001918877338762"><ele>272.0</ele><time>2026-04-25T12:11:06.999Z</time></trkpt><trkpt lat="40.67824165829864" lon="15.002020722804572"><ele>272.1666666666667</ele><time>2026-04-25T12:11:07.999Z</time></trkpt><trkpt lat="40.67821695946241" lon="15.002150993608153"><ele>272.33333333333337</ele><time>2026-04-25T12:11:08.999Z</time></trkpt><trkpt lat="40.678205369124775" lon="15.002240921884821"><ele>272.5</ele><time>2026-04-25T12:11:09.999Z</time></trkpt><trkpt lat="40.67819657542583" lon="15.002323201805392"><ele>272.6666666666667</ele><time>2026-04-25T12:11:10.999Z</time></trkpt><trkpt lat="40.67818517136601" lon="15.002491883393466"><ele>272.8333333333333</ele><time>2026-04-25T12:11:12.999Z</time></trkpt><trkpt lat="40.678176062551266" lon="15.002589078238767"><ele>273.0</ele><time>2026-04-25T12:11:13.999Z</time></trkpt><trkpt lat="40.678162489229734" lon="15.002677110631948"><ele>273.3333333333333</ele><time>2026-04-25T12:11:14.999Z</time></trkpt><trkpt lat="40.678147890164716" lon="15.002760420458781"><ele>273.6666666666667</ele><time>2026-04-25T12:11:15.999Z</time></trkpt><trkpt lat="40.67812780759506" lon="15.00288320689579"><ele>274.0</ele><time>2026-04-25T12:11:17.999Z</time></trkpt><trkpt lat="40.67808449057232" lon="15.00295884442451"><ele>274.33333333333337</ele><time>2026-04-25T12:11:18.999Z</time></trkpt><trkpt lat="40.67804320944119" lon="15.003041037477285"><ele>274.6666666666667</ele><time>2026-04-25T12:11:19.999Z</time></trkpt><trkpt lat="40.677998428506164" lon="15.00311964071331"><ele>275.0</ele><time>2026-04-25T12:11:20.999Z</time></trkpt><trkpt lat="40.677957019546106" lon="15.003200054962958"><ele>274.2</ele><time>2026-04-25T12:11:21.999Z</time></trkpt><trkpt lat="40.67789754626192" lon="15.003341059857897"><ele>273.4</ele><time>2026-04-25T12:11:23.999Z</time></trkpt><trkpt lat="40.67786764926455" lon="15.003468978542553"><ele>272.6</ele><time>2026-04-25T12:11:25.999Z</time></trkpt><trkpt lat="40.677821713599606" lon="15.0035750797352"><ele>271.8</ele><time>2026-04-25T12:11:28Z</time></trkpt><trkpt lat="40.67778133497232" lon="15.003695296498611"><ele>271.0</ele><time>2026-04-25T12:11:30Z</time></trkpt><trkpt lat="40.6777361452999" lon="15.003832627606679"><ele>272.5</ele><time>2026-04-25T12:11:32Z</time></trkpt><trkpt lat="40.677775224428665" lon="15.003939504969"><ele>274.0</ele><time>2026-04-25T12:11:35Z</time></trkpt><trkpt lat="40.67790514362573" lon="15.00399008068538"><ele>275.5</ele><time>2026-04-25T12:11:37Z</time></trkpt><trkpt lat="40.67798772181948" lon="15.003991073196598"><ele>277.0</ele><time>2026-04-25T12:11:38Z</time></trkpt><trkpt lat="40.67806074272018" lon="15.003995689865043"><ele>278.5</ele><time>2026-04-25T12:11:39Z</time></trkpt><trkpt lat="40.67812581167859" lon="15.004020102042587"><ele>280.0</ele><time>2026-04-25T12:11:40Z</time></trkpt><trkpt lat="40.678194463781" lon="15.00404796424466"><ele>280.0</ele><time>2026-04-25T12:11:41Z</time></trkpt><trkpt lat="40.67827688706831" lon="15.004111511777445"><ele>280.0</ele><time>2026-04-25T12:11:42Z</time></trkpt><trkpt lat="40.6783405110178" lon="15.004159302943346"><ele>280.0</ele><time>2026-04-25T12:11:43Z</time></trkpt><trkpt lat="40.67840308056951" lon="15.004191321237139"><ele>280.0</ele><time>2026-04-25T12:11:44Z</time></trkpt><trkpt lat="40.678473402480996" lon="15.004217812352682"><ele>280.0</ele><time>2026-04-25T12:11:45Z</time></trkpt><trkpt lat="40.678544614136875" lon="15.004244929007593"><ele>280.0</ele><time>2026-04-25T12:11:46Z</time></trkpt><trkpt lat="40.67861624763551" lon="15.004271659465184"><ele>283.8</ele><time>2026-04-25T12:11:47Z</time></trkpt><trkpt lat="40.67872264935026" lon="15.004334425359055"><ele>287.6</ele><time>2026-04-25T12:11:49Z</time></trkpt><trkpt lat="40.67882869651209" lon="15.004373742108339"><ele>291.4</ele><time>2026-04-25T12:11:51Z</time></trkpt><trkpt lat="40.67893357107569" lon="15.004373447054473"><ele>295.2</ele><time>2026-04-25T12:11:53Z</time></trkpt><trkpt lat="40.67904786349641" lon="15.00436842382043"><ele>299.0</ele><time>2026-04-25T12:11:55Z</time></trkpt><trkpt lat="40.679154661439036" lon="15.004385566024997"><ele>299.0</ele><time>2026-04-25T12:11:57Z</time></trkpt><trkpt lat="40.67921764252594" lon="15.004433589789851"><ele>299.0</ele><time>2026-04-25T12:11:59Z</time></trkpt><trkpt lat="40.679309339530334" lon="15.004462472042658"><ele>299.0</ele><time>2026-04-25T12:12:01Z</time></trkpt><trkpt lat="40.67941271434769" lon="15.004532483920398"><ele>299.0</ele><time>2026-04-25T12:12:03Z</time></trkpt><trkpt lat="40.679494307251794" lon="15.004555984812354"><ele>299.0</ele><time>2026-04-25T12:12:05Z</time></trkpt><trkpt lat="40.6795984087999" lon="15.004617566769905"><ele>302.25</ele><time>2026-04-25T12:12:07Z</time></trkpt><trkpt lat="40.67969146942926" lon="15.004641371221249"><ele>305.5</ele><time>2026-04-25T12:12:09Z</time></trkpt><trkpt lat="40.67990306409586" lon="15.004708461738446"><ele>308.75</ele><time>2026-04-25T12:12:12Z</time></trkpt><trkpt lat="40.680029429368375" lon="15.004749276725434"><ele>312.0</ele><time>2026-04-25T12:12:14Z</time></trkpt><trkpt lat="40.68009971696575" lon="15.004772853047625"><ele>312.0</ele><time>2026-04-25T12:12:15Z</time></trkpt><trkpt lat="40.680160672121865" lon="15.004804972206838"><ele>312.0</ele><time>2026-04-25T12:12:16Z</time></trkpt><trkpt lat="40.680259837135054" lon="15.004860682846362"><ele>312.0</ele><time>2026-04-25T12:12:18Z</time></trkpt><trkpt lat="40.680360320015076" lon="15.00491535157577"><ele>312.0</ele><time>2026-04-25T12:12:20Z</time></trkpt><trkpt lat="40.68046265084198" lon="15.004994955470794"><ele>312.0</ele><time>2026-04-25T12:12:22Z</time></trkpt><trkpt lat="40.68054799376327" lon="15.005067421865744"><ele>315.6</ele><time>2026-04-25T12:12:24Z</time></trkpt><trkpt lat="40.680636987352926" lon="15.00514478795693"><ele>319.2</ele><time>2026-04-25T12:12:26Z</time></trkpt><trkpt lat="40.680717278271274" lon="15.005207023009783"><ele>322.8</ele><time>2026-04-25T12:12:28Z</time></trkpt><trkpt lat="40.68078551059814" lon="15.00525057319963"><ele>326.4</ele><time>2026-04-25T12:12:30Z</time></trkpt><trkpt lat="40.6808947098073" lon="15.005274046311118"><ele>330.0</ele><time>2026-04-25T12:12:32Z</time></trkpt><trkpt lat="40.6810064150999" lon="15.005240825813017"><ele>332.6</ele><time>2026-04-25T12:12:34Z</time></trkpt><trkpt lat="40.68110582105546" lon="15.005227771096383"><ele>335.2</ele><time>2026-04-25T12:12:36Z</time></trkpt><trkpt lat="40.681213445548096" lon="15.005202907985087"><ele>337.79999999999995</ele><time>2026-04-25T12:12:38Z</time></trkpt><trkpt lat="40.68130569546491" lon="15.005179362418787"><ele>340.4</ele><time>2026-04-25T12:12:40Z</time></trkpt><trkpt lat="40.681437892477994" lon="15.005181912308272"><ele>343.0</ele><time>2026-04-25T12:12:43Z</time></trkpt><trkpt lat="40.6815263150552" lon="15.005181307294501"><ele>343.0</ele><time>2026-04-25T12:12:45Z</time></trkpt><trkpt lat="40.68152697488319" lon="15.005289469735802"><ele>343.0</ele><time>2026-04-25T12:13:01.999Z</time></trkpt><trkpt lat="40.68149344273083" lon="15.005406027079625"><ele>343.0</ele><time>2026-04-25T12:13:03.999Z</time></trkpt><trkpt lat="40.681440772978036" lon="15.005492817770357"><ele>343.0</ele><time>2026-04-25T12:13:05.999Z</time></trkpt><trkpt lat="40.68139499780038" lon="15.005619833513908"><ele>343.0</ele><time>2026-04-25T12:13:08.999Z</time></trkpt><trkpt lat="40.68133482950219" lon="15.005727908062417"><ele>343.79999999999995</ele><time>2026-04-25T12:13:10.999Z</time></trkpt><trkpt lat="40.68127768683164" lon="15.005853103494807"><ele>344.6</ele><time>2026-04-25T12:13:12.999Z</time></trkpt><trkpt lat="40.68126162534172" lon="15.005971288803991"><ele>345.4</ele><time>2026-04-25T12:13:14.999Z</time></trkpt><trkpt lat="40.681269536160876" lon="15.006058052330404"><ele>346.20000000000005</ele><time>2026-04-25T12:13:16.999Z</time></trkpt><trkpt lat="40.68126365555463" lon="15.00621854761608"><ele>347.0</ele><time>2026-04-25T12:13:17.999Z</time></trkpt><trkpt lat="40.68125373980165" lon="15.006326103454809"><ele>347.0</ele><time>2026-04-25T12:13:18.999Z</time></trkpt><trkpt lat="40.681242147759406" lon="15.006441281385307"><ele>347.0</ele><time>2026-04-25T12:13:19.999Z</time></trkpt><trkpt lat="40.681231299722896" lon="15.006528666652722"><ele>347.0</ele><time>2026-04-25T12:13:20.999Z</time></trkpt><trkpt lat="40.681204555593325" lon="15.006648857815446"><ele>347.0</ele><time>2026-04-25T12:13:22.999Z</time></trkpt><trkpt lat="40.681133157311564" lon="15.006751679226005"><ele>347.0</ele><time>2026-04-25T12:13:24.999Z</time></trkpt><trkpt lat="40.681092632976394" lon="15.006826171468262"><ele>347.0</ele><time>2026-04-25T12:13:25.999Z</time></trkpt><trkpt lat="40.68105588363856" lon="15.006897668128286"><ele>344.5</ele><time>2026-04-25T12:13:26.999Z</time></trkpt><trkpt lat="40.68101026994605" lon="15.007012360774159"><ele>342.0</ele><time>2026-04-25T12:13:28.999Z</time></trkpt><trkpt lat="40.68101192947455" lon="15.007119069640796"><ele>339.5</ele><time>2026-04-25T12:13:30.999Z</time></trkpt><trkpt lat="40.68101538510459" lon="15.007223022696067"><ele>337.0</ele><time>2026-04-25T12:13:31.999Z</time></trkpt><trkpt lat="40.681013301943814" lon="15.007324873144727"><ele>334.5</ele><time>2026-04-25T12:13:33Z</time></trkpt><trkpt lat="40.68101967200902" lon="15.007423883153672"><ele>332.0</ele><time>2026-04-25T12:13:34Z</time></trkpt><trkpt lat="40.681042754603624" lon="15.007531669758642"><ele>332.0</ele><time>2026-04-25T12:13:35Z</time></trkpt><trkpt lat="40.681076469657846" lon="15.007649837990407"><ele>332.0</ele><time>2026-04-25T12:13:36Z</time></trkpt><trkpt lat="40.681085233622554" lon="15.00774211380801"><ele>332.0</ele><time>2026-04-25T12:13:37Z</time></trkpt><trkpt lat="40.681049250061264" lon="15.007869794282207"><ele>332.0</ele><time>2026-04-25T12:13:39Z</time></trkpt><trkpt lat="40.681037153735346" lon="15.007995487068497"><ele>332.0</ele><time>2026-04-25T12:13:40Z</time></trkpt><trkpt lat="40.68101801621308" lon="15.008108401486867"><ele>332.0</ele><time>2026-04-25T12:13:41Z</time></trkpt><trkpt lat="40.68096596559946" lon="15.008200656197296"><ele>332.0</ele><time>2026-04-25T12:13:42Z</time></trkpt><trkpt lat="40.6808823584522" lon="15.008305718028286"><ele>332.0</ele><time>2026-04-25T12:13:43Z</time></trkpt><trkpt lat="40.68079242252642" lon="15.00844564228961"><ele>332.0</ele><time>2026-04-25T12:13:44Z</time></trkpt><trkpt lat="40.68072547793139" lon="15.008571602900671"><ele>332.33333333333337</ele><time>2026-04-25T12:13:45Z</time></trkpt><trkpt lat="40.68067451567397" lon="15.008671174522036"><ele>332.6666666666667</ele><time>2026-04-25T12:13:46Z</time></trkpt><trkpt lat="40.68063599192379" lon="15.008744123501046"><ele>333.0</ele><time>2026-04-25T12:13:47Z</time></trkpt><trkpt lat="40.68058512121891" lon="15.008870318340852"><ele>333.3333333333333</ele><time>2026-04-25T12:13:49Z</time></trkpt><trkpt lat="40.6805797772345" lon="15.008965909522058"><ele>333.66666666666663</ele><time>2026-04-25T12:13:50Z</time></trkpt><trkpt lat="40.68057572264059" lon="15.009079387893681"><ele>334.0</ele><time>2026-04-25T12:13:51Z</time></trkpt><trkpt lat="40.68055771480098" lon="15.00919834372918"><ele>334.1428571428571</ele><time>2026-04-25T12:13:52Z</time></trkpt><trkpt lat="40.68053685987704" lon="15.009299194816068"><ele>334.2857142857143</ele><time>2026-04-25T12:13:53Z</time></trkpt><trkpt lat="40.68051341691932" lon="15.009387176246975"><ele>334.42857142857144</ele><time>2026-04-25T12:13:54Z</time></trkpt><trkpt lat="40.680495547351995" lon="15.009485742095967"><ele>334.57142857142856</ele><time>2026-04-25T12:13:55Z</time></trkpt><trkpt lat="40.6804759853061" lon="15.009571072053333"><ele>334.7142857142857</ele><time>2026-04-25T12:13:56Z</time></trkpt><trkpt lat="40.68046210412276" lon="15.009667059620059"><ele>334.85714285714283</ele><time>2026-04-25T12:13:57Z</time></trkpt><trkpt lat="40.68044661570267" lon="15.009765387662465"><ele>335.0</ele><time>2026-04-25T12:13:58Z</time></trkpt><trkpt lat="40.68043180236575" lon="15.009867706020277"><ele>335.0</ele><time>2026-04-25T12:13:59Z</time></trkpt><trkpt lat="40.6804197827377" lon="15.009962179770524"><ele>335.0</ele><time>2026-04-25T12:14:00Z</time></trkpt><trkpt lat="40.68040962615233" lon="15.01006501545292"><ele>335.0</ele><time>2026-04-25T12:14:01Z</time></trkpt><trkpt lat="40.68039641326739" lon="15.010173773978833"><ele>335.0</ele><time>2026-04-25T12:14:02Z</time></trkpt><trkpt lat="40.68038425222022" lon="15.0102796419521"><ele>335.0</ele><time>2026-04-25T12:14:03Z</time></trkpt><trkpt lat="40.68037479887175" lon="15.010367494736782"><ele>335.0</ele><time>2026-04-25T12:14:04Z</time></trkpt><trkpt lat="40.68036157924278" lon="15.010524679593027"><ele>335.0</ele><time>2026-04-25T12:14:06Z</time></trkpt><trkpt lat="40.68035444424324" lon="15.010679494056673"><ele>335.0</ele><time>2026-04-25T12:14:08Z</time></trkpt><trkpt lat="40.680359681698675" lon="15.010834641015899"><ele>335.0</ele><time>2026-04-25T12:14:10Z</time></trkpt><trkpt lat="40.68037591525787" lon="15.011011165054462"><ele>335.0</ele><time>2026-04-25T12:14:12Z</time></trkpt><trkpt lat="40.68037963412075" lon="15.011098557782844"><ele>335.0</ele><time>2026-04-25T12:14:13Z</time></trkpt><trkpt lat="40.68037723288921" lon="15.011250225115937"><ele>333.33333333333337</ele><time>2026-04-25T12:14:15Z</time></trkpt><trkpt lat="40.68037768080327" lon="15.011399232930383"><ele>331.6666666666667</ele><time>2026-04-25T12:14:17Z</time></trkpt><trkpt lat="40.68038201086654" lon="15.011503830250037"><ele>330.0</ele><time>2026-04-25T12:14:19Z</time></trkpt><trkpt lat="40.68040978067533" lon="15.011584023900824"><ele>328.3333333333333</ele><time>2026-04-25T12:14:21Z</time></trkpt><trkpt lat="40.68048943202422" lon="15.011699345986829"><ele>326.66666666666663</ele><time>2026-04-25T12:14:24Z</time></trkpt><trkpt lat="40.68055434630785" lon="15.011739151986514"><ele>325.0</ele><time>2026-04-25T12:14:25Z</time></trkpt><trkpt lat="40.68065059653422" lon="15.011764041972025"><ele>324.66666666666663</ele><time>2026-04-25T12:14:27Z</time></trkpt><trkpt lat="40.68065398946284" lon="15.011847653796895"><ele>324.3333333333333</ele><time>2026-04-25T12:17:49Z</time></trkpt><trkpt lat="40.68063653399541" lon="15.01193050314842"><ele>324.0</ele><time>2026-04-25T12:17:50Z</time></trkpt><trkpt lat="40.68060346798403" lon="15.012036147995854"><ele>323.6666666666667</ele><time>2026-04-25T12:17:51Z</time></trkpt><trkpt lat="40.680576157382816" lon="15.012137732606492"><ele>323.33333333333337</ele><time>2026-04-25T12:17:52Z</time></trkpt><trkpt lat="40.680526890613265" lon="15.012239133761268"><ele>323.0</ele><time>2026-04-25T12:17:53Z</time></trkpt><trkpt lat="40.68049547500155" lon="15.012348050339961"><ele>323.0</ele><time>2026-04-25T12:17:54Z</time></trkpt><trkpt lat="40.68043667019044" lon="15.012423508650413"><ele>323.0</ele><time>2026-04-25T12:17:55Z</time></trkpt><trkpt lat="40.680396465036424" lon="15.01251126654817"><ele>323.0</ele><time>2026-04-25T12:17:56Z</time></trkpt><trkpt lat="40.68038388920065" lon="15.012617262540763"><ele>323.0</ele><time>2026-04-25T12:17:57Z</time></trkpt><trkpt lat="40.68035670585754" lon="15.012732271014007"><ele>323.0</ele><time>2026-04-25T12:17:58Z</time></trkpt><trkpt lat="40.680328950537664" lon="15.012841438757224"><ele>323.0</ele><time>2026-04-25T12:17:59Z</time></trkpt><trkpt lat="40.680283599949334" lon="15.012946881049468"><ele>321.59999999999997</ele><time>2026-04-25T12:18:00Z</time></trkpt><trkpt lat="40.68025600285601" lon="15.013077831237839"><ele>320.2</ele><time>2026-04-25T12:18:01Z</time></trkpt><trkpt lat="40.680221552563246" lon="15.013207200344603"><ele>318.8</ele><time>2026-04-25T12:18:02Z</time></trkpt><trkpt lat="40.68018334754759" lon="15.013352204856902"><ele>317.4</ele><time>2026-04-25T12:18:03Z</time></trkpt><trkpt lat="40.6801434049292" lon="15.013499991206414"><ele>316.0</ele><time>2026-04-25T12:18:04Z</time></trkpt><trkpt lat="40.680108528291214" lon="15.0136249909631"><ele>316.0</ele><time>2026-04-25T12:18:05Z</time></trkpt><trkpt lat="40.68008478122001" lon="15.01373550841718"><ele>316.0</ele><time>2026-04-25T12:18:06Z</time></trkpt><trkpt lat="40.68006116523611" lon="15.013836230530485"><ele>316.0</ele><time>2026-04-25T12:18:07Z</time></trkpt><trkpt lat="40.68001644521398" lon="15.013913273758579"><ele>316.0</ele><time>2026-04-25T12:18:08Z</time></trkpt><trkpt lat="40.67997839860068" lon="15.014012479207423"><ele>316.0</ele><time>2026-04-25T12:18:09Z</time></trkpt><trkpt lat="40.67996023601762" lon="15.014108601693488"><ele>316.0</ele><time>2026-04-25T12:18:10Z</time></trkpt><trkpt lat="40.679908517381236" lon="15.014230767489991"><ele>317.0</ele><time>2026-04-25T12:18:12Z</time></trkpt><trkpt lat="40.67985639012731" lon="15.014282470048046"><ele>318.0</ele><time>2026-04-25T12:18:13Z</time></trkpt><trkpt lat="40.67979146033261" lon="15.01434412674302"><ele>319.0</ele><time>2026-04-25T12:18:14Z</time></trkpt><trkpt lat="40.679739977731415" lon="15.014425805208694"><ele>320.0</ele><time>2026-04-25T12:18:15Z</time></trkpt><trkpt lat="40.679696359736326" lon="15.014521104428242"><ele>321.0</ele><time>2026-04-25T12:18:16Z</time></trkpt><trkpt lat="40.679641829088894" lon="15.014592818158766"><ele>322.0</ele><time>2026-04-25T12:18:17Z</time></trkpt><trkpt lat="40.67958283067536" lon="15.014655661684007"><ele>322.0</ele><time>2026-04-25T12:18:18Z</time></trkpt><trkpt lat="40.67952669943968" lon="15.01470226870224"><ele>322.0</ele><time>2026-04-25T12:18:19Z</time></trkpt><trkpt lat="40.67945240867707" lon="15.014809302219925"><ele>322.0</ele><time>2026-04-25T12:18:21Z</time></trkpt><trkpt lat="40.679435302733076" lon="15.014899195246816"><ele>322.0</ele><time>2026-04-25T12:18:22Z</time></trkpt><trkpt lat="40.67943324376752" lon="15.015025784460684"><ele>322.0</ele><time>2026-04-25T12:18:23Z</time></trkpt><trkpt lat="40.67943239430473" lon="15.015168395581489"><ele>322.0</ele><time>2026-04-25T12:18:24Z</time></trkpt><trkpt lat="40.67943442220921" lon="15.015318183380614"><ele>322.0</ele><time>2026-04-25T12:18:25Z</time></trkpt><trkpt lat="40.67941849139479" lon="15.015436410172889"><ele>322.0</ele><time>2026-04-25T12:18:26Z</time></trkpt><trkpt lat="40.67942489685001" lon="15.015542930447841"><ele>322.0</ele><time>2026-04-25T12:18:27Z</time></trkpt><trkpt lat="40.679425360618396" lon="15.015630903522034"><ele>322.0</ele><time>2026-04-25T12:18:28Z</time></trkpt><trkpt lat="40.67946281289068" lon="15.015788979903181"><ele>322.16666666666663</ele><time>2026-04-25T12:18:30Z</time></trkpt><trkpt lat="40.67950859385315" lon="15.01587602051944"><ele>322.3333333333333</ele><time>2026-04-25T12:18:31Z</time></trkpt><trkpt lat="40.67955838134405" lon="15.01596636395601"><ele>322.5</ele><time>2026-04-25T12:18:32Z</time></trkpt><trkpt lat="40.6796177514366" lon="15.016071319556929"><ele>322.6666666666667</ele><time>2026-04-25T12:18:33Z</time></trkpt><trkpt lat="40.67966522006203" lon="15.016168380708773"><ele>322.83333333333337</ele><time>2026-04-25T12:18:34Z</time></trkpt><trkpt lat="40.67970076977704" lon="15.016262263336625"><ele>323.0</ele><time>2026-04-25T12:18:35Z</time></trkpt><trkpt lat="40.67972678105343" lon="15.016360636103942"><ele>323.0</ele><time>2026-04-25T12:18:36Z</time></trkpt><trkpt lat="40.67974281230628" lon="15.016464636544084"><ele>323.0</ele><time>2026-04-25T12:18:37Z</time></trkpt><trkpt lat="40.67977771774677" lon="15.016553755663972"><ele>323.0</ele><time>2026-04-25T12:18:38Z</time></trkpt><trkpt lat="40.679829884593254" lon="15.016643890672695"><ele>323.0</ele><time>2026-04-25T12:18:39Z</time></trkpt><trkpt lat="40.679897316615076" lon="15.01674535658868"><ele>323.0</ele><time>2026-04-25T12:18:40Z</time></trkpt><trkpt lat="40.67992036294986" lon="15.016875743415133"><ele>323.0</ele><time>2026-04-25T12:18:41Z</time></trkpt><trkpt lat="40.67996078607676" lon="15.016961389700608"><ele>322.0</ele><time>2026-04-25T12:18:42Z</time></trkpt><trkpt lat="40.680014853695255" lon="15.017031143212972"><ele>321.0</ele><time>2026-04-25T12:18:43Z</time></trkpt><trkpt lat="40.68009622312996" lon="15.017069323260136"><ele>320.0</ele><time>2026-04-25T12:18:44Z</time></trkpt><trkpt lat="40.68014023573614" lon="15.017164067009988"><ele>319.0</ele><time>2026-04-25T12:18:45Z</time></trkpt><trkpt lat="40.680164173278165" lon="15.017259756646796"><ele>318.0</ele><time>2026-04-25T12:18:46Z</time></trkpt><trkpt lat="40.68018453624416" lon="15.017390979003407"><ele>317.0</ele><time>2026-04-25T12:18:48Z</time></trkpt><trkpt lat="40.6801449683186" lon="15.017489708592771"><ele>316.0</ele><time>2026-04-25T12:18:50Z</time></trkpt><trkpt lat="40.68007732972196" lon="15.017526854075502"><ele>315.0</ele><time>2026-04-25T12:18:51Z</time></trkpt><trkpt lat="40.679987366908804" lon="15.017565180889067"><ele>314.0</ele><time>2026-04-25T12:18:52Z</time></trkpt><trkpt lat="40.67988139076917" lon="15.01762731890756"><ele>313.0</ele><time>2026-04-25T12:18:53Z</time></trkpt><trkpt lat="40.679788747111196" lon="15.017701820170345"><ele>312.0</ele><time>2026-04-25T12:18:54Z</time></trkpt><trkpt lat="40.679709111723895" lon="15.017809204910964"><ele>312.0</ele><time>2026-04-25T12:18:55Z</time></trkpt><trkpt lat="40.67965504115017" lon="15.017913994580217"><ele>312.0</ele><time>2026-04-25T12:18:56Z</time></trkpt><trkpt lat="40.67963399031797" lon="15.01800716965616"><ele>312.0</ele><time>2026-04-25T12:18:57Z</time></trkpt><trkpt lat="40.67964314363187" lon="15.01810086643975"><ele>312.0</ele><time>2026-04-25T12:18:58Z</time></trkpt><trkpt lat="40.679669981823444" lon="15.018205297907556"><ele>312.0</ele><time>2026-04-25T12:18:59Z</time></trkpt><trkpt lat="40.67966260263883" lon="15.018302378896871"><ele>312.0</ele><time>2026-04-25T12:19:00Z</time></trkpt><trkpt lat="40.67966741352" lon="15.018399627163898"><ele>313.6666666666667</ele><time>2026-04-25T12:19:01Z</time></trkpt><trkpt lat="40.67968733649756" lon="15.018513665161409"><ele>315.3333333333333</ele><time>2026-04-25T12:19:02Z</time></trkpt><trkpt lat="40.67968620612326" lon="15.018627382563947"><ele>317.0</ele><time>2026-04-25T12:19:03Z</time></trkpt><trkpt lat="40.67968431360854" lon="15.018738824707263"><ele>318.66666666666663</ele><time>2026-04-25T12:19:04Z</time></trkpt><trkpt lat="40.67971229896383" lon="15.0188478254482"><ele>320.3333333333333</ele><time>2026-04-25T12:19:05Z</time></trkpt><trkpt lat="40.679747120750676" lon="15.018952082719982"><ele>322.0</ele><time>2026-04-25T12:19:06Z</time></trkpt><trkpt lat="40.67980129029542" lon="15.019032426560475"><ele>322.0</ele><time>2026-04-25T12:19:07Z</time></trkpt><trkpt lat="40.67983062711298" lon="15.01912153874069"><ele>322.0</ele><time>2026-04-25T12:19:08Z</time></trkpt><trkpt lat="40.67984592551489" lon="15.01928963940541"><ele>322.0</ele><time>2026-04-25T12:19:10Z</time></trkpt><trkpt lat="40.67982997964959" lon="15.019396238398471"><ele>322.0</ele><time>2026-04-25T12:19:11Z</time></trkpt><trkpt lat="40.67981712064347" lon="15.019487553442495"><ele>322.0</ele><time>2026-04-25T12:19:12Z</time></trkpt><trkpt lat="40.67980623048327" lon="15.01959866368817"><ele>322.0</ele><time>2026-04-25T12:19:14Z</time></trkpt><trkpt lat="40.679743989325246" lon="15.019690161511267"><ele>324.0</ele><time>2026-04-25T12:19:16Z</time></trkpt><trkpt lat="40.679587341607984" lon="15.019688347244765"><ele>326.0</ele><time>2026-04-25T12:19:18Z</time></trkpt><trkpt lat="40.6794772901769" lon="15.019690384339748"><ele>328.0</ele><time>2026-04-25T12:19:18.999Z</time></trkpt><trkpt lat="40.679378226447234" lon="15.019715011273053"><ele>330.0</ele><time>2026-04-25T12:19:19.999Z</time></trkpt><trkpt lat="40.67928584412679" lon="15.019764948166669"><ele>330.0</ele><time>2026-04-25T12:19:20.999Z</time></trkpt><trkpt lat="40.679182766820766" lon="15.019826811268189"><ele>330.0</ele><time>2026-04-25T12:19:21.999Z</time></trkpt><trkpt lat="40.67909413113253" lon="15.019885340461952"><ele>330.0</ele><time>2026-04-25T12:19:22.999Z</time></trkpt><trkpt lat="40.67901856073549" lon="15.019941438343638"><ele>330.0</ele><time>2026-04-25T12:19:23.999Z</time></trkpt><trkpt lat="40.67893466020432" lon="15.020000474937477"><ele>330.0</ele><time>2026-04-25T12:19:24.999Z</time></trkpt><trkpt lat="40.67885975478995" lon="15.020070621704834"><ele>330.8</ele><time>2026-04-25T12:19:25.999Z</time></trkpt><trkpt lat="40.67878861848993" lon="15.02016316591319"><ele>331.6</ele><time>2026-04-25T12:19:26.999Z</time></trkpt><trkpt lat="40.67872877730823" lon="15.020277401834356"><ele>332.4</ele><time>2026-04-25T12:19:27.999Z</time></trkpt><trkpt lat="40.67868057222484" lon="15.020410452213628"><ele>333.2</ele><time>2026-04-25T12:19:28.999Z</time></trkpt><trkpt lat="40.678637246464724" lon="15.020528711255245"><ele>334.0</ele><time>2026-04-25T12:19:29.999Z</time></trkpt><trkpt lat="40.678591800362014" lon="15.020638078407249"><ele>334.0</ele><time>2026-04-25T12:19:30.999Z</time></trkpt><trkpt lat="40.67853910783996" lon="15.0207484606978"><ele>334.0</ele><time>2026-04-25T12:19:31.999Z</time></trkpt><trkpt lat="40.67847068679575" lon="15.020842775865063"><ele>334.0</ele><time>2026-04-25T12:19:32.999Z</time></trkpt><trkpt lat="40.67838610406629" lon="15.02092463008296"><ele>334.0</ele><time>2026-04-25T12:19:33.999Z</time></trkpt><trkpt lat="40.67829610248711" lon="15.021008100172038"><ele>334.0</ele><time>2026-04-25T12:19:34.999Z</time></trkpt><trkpt lat="40.67821923575973" lon="15.021110922690319"><ele>337.0</ele><time>2026-04-25T12:19:35.999Z</time></trkpt><trkpt lat="40.67816167556937" lon="15.021244217236738"><ele>340.0</ele><time>2026-04-25T12:19:36.999Z</time></trkpt><trkpt lat="40.67811204201546" lon="15.021393656954364"><ele>343.0</ele><time>2026-04-25T12:19:37.999Z</time></trkpt><trkpt lat="40.678053957091315" lon="15.021522571827296"><ele>346.0</ele><time>2026-04-25T12:19:38.999Z</time></trkpt><trkpt lat="40.67797547780248" lon="15.021612634970479"><ele>347.4</ele><time>2026-04-25T12:19:39.999Z</time></trkpt><trkpt lat="40.67791551674318" lon="15.021705746302887"><ele>348.8</ele><time>2026-04-25T12:19:40.999Z</time></trkpt><trkpt lat="40.67783580569048" lon="15.02179281526709"><ele>350.2</ele><time>2026-04-25T12:19:41.999Z</time></trkpt><trkpt lat="40.67775942364414" lon="15.021905706749473"><ele>351.59999999999997</ele><time>2026-04-25T12:19:42.999Z</time></trkpt><trkpt lat="40.677665898647035" lon="15.022029352829186"><ele>353.0</ele><time>2026-04-25T12:19:43.999Z</time></trkpt><trkpt lat="40.67758369529931" lon="15.02216781731792"><ele>353.0</ele><time>2026-04-25T12:19:44.999Z</time></trkpt><trkpt lat="40.677520676791566" lon="15.022307678147275"><ele>353.0</ele><time>2026-04-25T12:19:45.999Z</time></trkpt><trkpt lat="40.67747493823778" lon="15.022426241026547"><ele>353.0</ele><time>2026-04-25T12:19:46.999Z</time></trkpt><trkpt lat="40.67743197809784" lon="15.022514193298864"><ele>353.0</ele><time>2026-04-25T12:19:47.999Z</time></trkpt><trkpt lat="40.67730020190498" lon="15.022555935861323"><ele>353.0</ele><time>2026-04-25T12:19:50Z</time></trkpt><trkpt lat="40.677207252382814" lon="15.022540790460917"><ele>353.0</ele><time>2026-04-25T12:19:51Z</time></trkpt><trkpt lat="40.67709367707388" lon="15.02251412048621"><ele>353.0</ele><time>2026-04-25T12:19:52Z</time></trkpt><trkpt lat="40.676966689696975" lon="15.02245233688887"><ele>353.0</ele><time>2026-04-25T12:19:53Z</time></trkpt><trkpt lat="40.676851146519624" lon="15.022416754053298"><ele>353.0</ele><time>2026-04-25T12:19:54Z</time></trkpt><trkpt lat="40.67676013583536" lon="15.022391567318394"><ele>353.5</ele><time>2026-04-25T12:19:55Z</time></trkpt><trkpt lat="40.67669611207837" lon="15.022367173420678"><ele>354.0</ele><time>2026-04-25T12:19:56Z</time></trkpt><trkpt lat="40.676628695154264" lon="15.022374157314056"><ele>354.5</ele><time>2026-04-25T12:19:58Z</time></trkpt><trkpt lat="40.67657510255166" lon="15.022495171937361"><ele>355.0</ele><time>2026-04-25T12:20:00Z</time></trkpt><trkpt lat="40.676565104466206" lon="15.022603087881013"><ele>355.5</ele><time>2026-04-25T12:20:01Z</time></trkpt><trkpt lat="40.676563391320606" lon="15.022740069229345"><ele>356.0</ele><time>2026-04-25T12:20:02Z</time></trkpt><trkpt lat="40.67656101191587" lon="15.022872024750802"><ele>358.33333333333337</ele><time>2026-04-25T12:20:03Z</time></trkpt><trkpt lat="40.676559619449115" lon="15.022995737963164"><ele>360.6666666666667</ele><time>2026-04-25T12:20:04Z</time></trkpt><trkpt lat="40.67656796843452" lon="15.023110943959612"><ele>363.0</ele><time>2026-04-25T12:20:05Z</time></trkpt><trkpt lat="40.67656218595224" lon="15.023202382753697"><ele>365.3333333333333</ele><time>2026-04-25T12:20:06Z</time></trkpt><trkpt lat="40.67653990359693" lon="15.023282127240591"><ele>367.66666666666663</ele><time>2026-04-25T12:20:07Z</time></trkpt><trkpt lat="40.676506191524005" lon="15.023364687380013"><ele>370.0</ele><time>2026-04-25T12:20:08Z</time></trkpt><trkpt lat="40.67646694338584" lon="15.023449097962818"><ele>371.8333333333333</ele><time>2026-04-25T12:20:09Z</time></trkpt><trkpt lat="40.67641691845337" lon="15.023514237126516"><ele>373.66666666666663</ele><time>2026-04-25T12:20:10Z</time></trkpt><trkpt lat="40.67636274809202" lon="15.023644574803631"><ele>375.5</ele><time>2026-04-25T12:20:12Z</time></trkpt><trkpt lat="40.67632511020702" lon="15.023711695826403"><ele>377.3333333333333</ele><time>2026-04-25T12:20:13Z</time></trkpt><trkpt lat="40.676283410244324" lon="15.023802821452124"><ele>379.1666666666667</ele><time>2026-04-25T12:20:14Z</time></trkpt><trkpt lat="40.67628433408482" lon="15.023924834705841"><ele>381.0</ele><time>2026-04-25T12:20:16Z</time></trkpt><trkpt lat="40.67624777683131" lon="15.024017750915561"><ele>381.0</ele><time>2026-04-25T12:20:47Z</time></trkpt><trkpt lat="40.676161406608806" lon="15.023988688348377"><ele>381.0</ele><time>2026-04-25T12:20:48Z</time></trkpt><trkpt lat="40.67604825661687" lon="15.023904508032683"><ele>381.0</ele><time>2026-04-25T12:20:49Z</time></trkpt><trkpt lat="40.67594529628973" lon="15.023787353046213"><ele>381.0</ele><time>2026-04-25T12:20:50Z</time></trkpt><trkpt lat="40.67587663639952" lon="15.023652628395508"><ele>381.6</ele><time>2026-04-25T12:20:51Z</time></trkpt><trkpt lat="40.67580016088369" lon="15.023546312771895"><ele>382.20000000000005</ele><time>2026-04-25T12:20:52Z</time></trkpt><trkpt lat="40.675713332950295" lon="15.023481877013259"><ele>382.79999999999995</ele><time>2026-04-25T12:20:53Z</time></trkpt><trkpt lat="40.67563907865043" lon="15.023408025801242"><ele>383.4</ele><time>2026-04-25T12:20:54Z</time></trkpt><trkpt lat="40.67556242950897" lon="15.023350333516628"><ele>384.0</ele><time>2026-04-25T12:20:55Z</time></trkpt><trkpt lat="40.67549516768875" lon="15.023296034341222"><ele>382.5</ele><time>2026-04-25T12:20:56Z</time></trkpt><trkpt lat="40.675430131443676" lon="15.023247558278511"><ele>381.0</ele><time>2026-04-25T12:20:57Z</time></trkpt><trkpt lat="40.67536596029079" lon="15.023201449325722"><ele>379.5</ele><time>2026-04-25T12:20:58Z</time></trkpt><trkpt lat="40.67530093509527" lon="15.023164859342106"><ele>378.0</ele><time>2026-04-25T12:20:59Z</time></trkpt><trkpt lat="40.67524349389127" lon="15.02312951929741"><ele>376.5</ele><time>2026-04-25T12:21:00Z</time></trkpt><trkpt lat="40.675176736671084" lon="15.02315251562683"><ele>375.0</ele><time>2026-04-25T12:21:01Z</time></trkpt><trkpt lat="40.67506691186074" lon="15.023180303073037"><ele>374.8333333333333</ele><time>2026-04-25T12:21:03Z</time></trkpt><trkpt lat="40.674951748382426" lon="15.023204906699805"><ele>374.6666666666667</ele><time>2026-04-25T12:21:05Z</time></trkpt><trkpt lat="40.674884433844696" lon="15.023216784576116"><ele>374.5</ele><time>2026-04-25T12:21:06Z</time></trkpt><trkpt lat="40.67482158297814" lon="15.023227311020893"><ele>374.33333333333337</ele><time>2026-04-25T12:21:07Z</time></trkpt><trkpt lat="40.67474194851988" lon="15.023291849867944"><ele>374.1666666666667</ele><time>2026-04-25T12:21:09Z</time></trkpt><trkpt lat="40.67471851258678" lon="15.023401301084236"><ele>374.0</ele><time>2026-04-25T12:21:12Z</time></trkpt><trkpt lat="40.674809580782906" lon="15.023486346027076"><ele>375.5</ele><time>2026-04-25T12:21:15Z</time></trkpt><trkpt lat="40.6748781849117" lon="15.02349891456415"><ele>377.0</ele><time>2026-04-25T12:21:16Z</time></trkpt><trkpt lat="40.67495437690146" lon="15.023520832154803"><ele>378.5</ele><time>2026-04-25T12:21:17Z</time></trkpt><trkpt lat="40.675017026040315" lon="15.023548243323265"><ele>380.0</ele><time>2026-04-25T12:21:18Z</time></trkpt><trkpt lat="40.67507824602918" lon="15.023602708382843"><ele>381.5</ele><time>2026-04-25T12:21:19Z</time></trkpt><trkpt lat="40.67513970981265" lon="15.023667829421829"><ele>383.0</ele><time>2026-04-25T12:21:20Z</time></trkpt><trkpt lat="40.67520949025688" lon="15.023737367663868"><ele>383.1666666666667</ele><time>2026-04-25T12:21:21Z</time></trkpt><trkpt lat="40.675276780124136" lon="15.023811520427481"><ele>383.33333333333337</ele><time>2026-04-25T12:21:22Z</time></trkpt><trkpt lat="40.67533347319858" lon="15.023874749739544"><ele>383.5</ele><time>2026-04-25T12:21:23Z</time></trkpt><trkpt lat="40.67538600283756" lon="15.023922111732682"><ele>383.6666666666667</ele><time>2026-04-25T12:21:24Z</time></trkpt><trkpt lat="40.67543275966642" lon="15.024040345691425"><ele>383.8333333333333</ele><time>2026-04-25T12:21:25.999Z</time></trkpt><trkpt lat="40.67542812866501" lon="15.0241355747566"><ele>384.0</ele><time>2026-04-25T12:21:26.999Z</time></trkpt><trkpt lat="40.67537129598506" lon="15.024259215446499"><ele>385.71428571428567</ele><time>2026-04-25T12:21:28.999Z</time></trkpt><trkpt lat="40.67530692864224" lon="15.02428070968551"><ele>387.42857142857144</ele><time>2026-04-25T12:21:29.999Z</time></trkpt><trkpt lat="40.67524600829721" lon="15.024316495892178"><ele>389.1428571428571</ele><time>2026-04-25T12:21:30.999Z</time></trkpt><trkpt lat="40.67521267737436" lon="15.024403154452127"><ele>390.85714285714283</ele><time>2026-04-25T12:21:31.999Z</time></trkpt><trkpt lat="40.67518673127403" lon="15.024520679555291"><ele>392.57142857142856</ele><time>2026-04-25T12:21:32.999Z</time></trkpt><trkpt lat="40.6751575922231" lon="15.024607817214308"><ele>394.2857142857143</ele><time>2026-04-25T12:21:33.999Z</time></trkpt><trkpt lat="40.67512027766386" lon="15.024676670405116"><ele>396.0</ele><time>2026-04-25T12:21:34.999Z</time></trkpt><trkpt lat="40.67506249503846" lon="15.024736742355108"><ele>396.0</ele><time>2026-04-25T12:21:35.999Z</time></trkpt><trkpt lat="40.67498890181393" lon="15.024791366617148"><ele>396.0</ele><time>2026-04-25T12:21:36.999Z</time></trkpt><trkpt lat="40.67492042565049" lon="15.024834880233081"><ele>396.0</ele><time>2026-04-25T12:21:37.999Z</time></trkpt><trkpt lat="40.67479280867881" lon="15.024820105912214"><ele>396.0</ele><time>2026-04-25T12:21:39.999Z</time></trkpt><trkpt lat="40.674722520197435" lon="15.02478691785994"><ele>396.0</ele><time>2026-04-25T12:21:40.999Z</time></trkpt><trkpt lat="40.67462085028378" lon="15.024754922137717"><ele>396.0</ele><time>2026-04-25T12:21:42.999Z</time></trkpt><trkpt lat="40.67457112411822" lon="15.024700314674249"><ele>396.0</ele><time>2026-04-25T12:21:43.999Z</time></trkpt><trkpt lat="40.67450547411384" lon="15.02467177363651"><ele>396.0</ele><time>2026-04-25T12:21:44.999Z</time></trkpt><trkpt lat="40.67445123349566" lon="15.024563806220169"><ele>396.0</ele><time>2026-04-25T12:21:46.999Z</time></trkpt><trkpt lat="40.67439580855853" lon="15.02464777999028"><ele>396.0</ele><time>2026-04-25T12:21:48.999Z</time></trkpt><trkpt lat="40.67442625060727" lon="15.024758066765925"><ele>396.0</ele><time>2026-04-25T12:21:50.999Z</time></trkpt><trkpt lat="40.67449751714571" lon="15.02480507374839"><ele>396.0</ele><time>2026-04-25T12:21:51.999Z</time></trkpt><trkpt lat="40.67458094409727" lon="15.024883051656717"><ele>396.0</ele><time>2026-04-25T12:21:52.999Z</time></trkpt><trkpt lat="40.67465828809069" lon="15.024972684587551"><ele>396.0</ele><time>2026-04-25T12:21:53.999Z</time></trkpt><trkpt lat="40.674725297370216" lon="15.025041390153778"><ele>396.0</ele><time>2026-04-25T12:21:54.999Z</time></trkpt><trkpt lat="40.674752380993134" lon="15.025154416631686"><ele>396.0</ele><time>2026-04-25T12:21:56Z</time></trkpt><trkpt lat="40.674757489082936" lon="15.02527963234203"><ele>399.20000000000005</ele><time>2026-04-25T12:21:57Z</time></trkpt><trkpt lat="40.674746201874946" lon="15.025401784885045"><ele>402.40000000000003</ele><time>2026-04-25T12:21:58Z</time></trkpt><trkpt lat="40.674745579849855" lon="15.02548916833994"><ele>405.6</ele><time>2026-04-25T12:21:59Z</time></trkpt><trkpt lat="40.674830382867825" lon="15.025613833614528"><ele>408.8</ele><time>2026-04-25T12:22:01Z</time></trkpt><trkpt lat="40.674798049746045" lon="15.02573645091645"><ele>412.0</ele><time>2026-04-25T12:22:03Z</time></trkpt><trkpt lat="40.674702373282585" lon="15.025675212905107"><ele>412.0</ele><time>2026-04-25T12:22:05Z</time></trkpt><trkpt lat="40.67470312584491" lon="15.025586538954188"><ele>412.0</ele><time>2026-04-25T12:22:06Z</time></trkpt><trkpt lat="40.67466994459505" lon="15.025472530324521"><ele>412.0</ele><time>2026-04-25T12:22:07Z</time></trkpt><trkpt lat="40.67460912811042" lon="15.025336024413038"><ele>412.0</ele><time>2026-04-25T12:22:08Z</time></trkpt><trkpt lat="40.67456039427749" lon="15.025213991764698"><ele>412.0</ele><time>2026-04-25T12:22:09Z</time></trkpt><trkpt lat="40.674494774247506" lon="15.025139740826805"><ele>414.50000000000006</ele><time>2026-04-25T12:22:10Z</time></trkpt><trkpt lat="40.67442427738913" lon="15.02509536412199"><ele>417.0</ele><time>2026-04-25T12:22:11Z</time></trkpt><trkpt lat="40.67435867582133" lon="15.025091230706133"><ele>419.5</ele><time>2026-04-25T12:22:12Z</time></trkpt><trkpt lat="40.67429690672032" lon="15.025143116903848"><ele>422.0</ele><time>2026-04-25T12:22:13Z</time></trkpt><trkpt lat="40.67426202306336" lon="15.025239218685936"><ele>424.50000000000006</ele><time>2026-04-25T12:22:14Z</time></trkpt><trkpt lat="40.67426592601236" lon="15.025340147077324"><ele>427.0</ele><time>2026-04-25T12:22:15Z</time></trkpt><trkpt lat="40.67431217389505" lon="15.025420702200522"><ele>427.0</ele><time>2026-04-25T12:22:16Z</time></trkpt><trkpt lat="40.67436899004209" lon="15.025508370912844"><ele>427.0</ele><time>2026-04-25T12:22:17Z</time></trkpt><trkpt lat="40.67439834214456" lon="15.025643535585436"><ele>427.0</ele><time>2026-04-25T12:22:18Z</time></trkpt><trkpt lat="40.674397369916335" lon="15.025812766710986"><ele>427.0</ele><time>2026-04-25T12:22:19Z</time></trkpt><trkpt lat="40.674397392963904" lon="15.025998395716881"><ele>431.6</ele><time>2026-04-25T12:22:20Z</time></trkpt><trkpt lat="40.674403610081356" lon="15.026182291357529"><ele>436.20000000000005</ele><time>2026-04-25T12:22:21Z</time></trkpt><trkpt lat="40.67440563373327" lon="15.026351114402782"><ele>440.8</ele><time>2026-04-25T12:22:22Z</time></trkpt><trkpt lat="40.67440786575314" lon="15.02648594278612"><ele>445.4</ele><time>2026-04-25T12:22:23Z</time></trkpt><trkpt lat="40.674411151882815" lon="15.026580642286408"><ele>450.0</ele><time>2026-04-25T12:22:24Z</time></trkpt><trkpt lat="40.674485254363105" lon="15.026710124363323"><ele>451.75</ele><time>2026-04-25T12:22:26Z</time></trkpt><trkpt lat="40.67457834000397" lon="15.026803282848014"><ele>453.5</ele><time>2026-04-25T12:22:27Z</time></trkpt><trkpt lat="40.6746517920299" lon="15.026938993579238"><ele>455.25</ele><time>2026-04-25T12:22:28Z</time></trkpt><trkpt lat="40.67471883373552" lon="15.027078395121016"><ele>457.0</ele><time>2026-04-25T12:22:29Z</time></trkpt><trkpt lat="40.674805608266624" lon="15.027211146177374"><ele>457.0</ele><time>2026-04-25T12:22:30Z</time></trkpt><trkpt lat="40.67488721359954" lon="15.027335488558768"><ele>457.0</ele><time>2026-04-25T12:22:31Z</time></trkpt><trkpt lat="40.67498647529326" lon="15.027449243331198"><ele>457.0</ele><time>2026-04-25T12:22:32Z</time></trkpt><trkpt lat="40.67506639563273" lon="15.027553908342236"><ele>457.0</ele><time>2026-04-25T12:22:33Z</time></trkpt><trkpt lat="40.67514273356728" lon="15.027645580606277"><ele>460.0</ele><time>2026-04-25T12:22:34Z</time></trkpt><trkpt lat="40.675213768649286" lon="15.027735079597933"><ele>463.00000000000006</ele><time>2026-04-25T12:22:35Z</time></trkpt><trkpt lat="40.67526701324484" lon="15.027835548106518"><ele>466.00000000000006</ele><time>2026-04-25T12:22:36Z</time></trkpt><trkpt lat="40.67529873448327" lon="15.027967949710158"><ele>469.0</ele><time>2026-04-25T12:22:37Z</time></trkpt><trkpt lat="40.675330887616724" lon="15.028092510469776"><ele>472.0</ele><time>2026-04-25T12:22:38Z</time></trkpt><trkpt lat="40.67536654593172" lon="15.028176965210536"><ele>472.50000000000006</ele><time>2026-04-25T12:22:39Z</time></trkpt><trkpt lat="40.67538465202974" lon="15.028303773358328"><ele>473.0</ele><time>2026-04-25T12:22:41Z</time></trkpt><trkpt lat="40.67536789623713" lon="15.02840179394805"><ele>473.5</ele><time>2026-04-25T12:22:43Z</time></trkpt><trkpt lat="40.67529685418145" lon="15.028519930053879"><ele>474.0</ele><time>2026-04-25T12:22:45Z</time></trkpt><trkpt lat="40.6752392970333" lon="15.02857346619332"><ele>474.50000000000006</ele><time>2026-04-25T12:22:46Z</time></trkpt><trkpt lat="40.67517810911403" lon="15.028633067348117"><ele>475.0</ele><time>2026-04-25T12:22:47Z</time></trkpt><trkpt lat="40.675136377797166" lon="15.028705714266003"><ele>474.7142857142857</ele><time>2026-04-25T12:22:48Z</time></trkpt><trkpt lat="40.675085975981254" lon="15.028769203691061"><ele>474.42857142857144</ele><time>2026-04-25T12:22:49Z</time></trkpt><trkpt lat="40.67504277991903" lon="15.028840910573143"><ele>474.14285714285717</ele><time>2026-04-25T12:22:50Z</time></trkpt><trkpt lat="40.6750033017234" lon="15.028916624550506"><ele>473.8571428571429</ele><time>2026-04-25T12:22:51Z</time></trkpt><trkpt lat="40.67497630147003" lon="15.029005694091625"><ele>473.57142857142856</ele><time>2026-04-25T12:22:52Z</time></trkpt><trkpt lat="40.67495471449814" lon="15.029097497786235"><ele>473.28571428571433</ele><time>2026-04-25T12:22:53Z</time></trkpt><trkpt lat="40.67493268636485" lon="15.029184005442094"><ele>473.0</ele><time>2026-04-25T12:22:54Z</time></trkpt><trkpt lat="40.67490261594414" lon="15.0292625151398"><ele>473.0</ele><time>2026-04-25T12:22:55Z</time></trkpt><trkpt lat="40.67486582617912" lon="15.029334845297223"><ele>472.99999999999994</ele><time>2026-04-25T12:22:56Z</time></trkpt><trkpt lat="40.67482326523988" lon="15.029486468133666"><ele>472.99999999999994</ele><time>2026-04-25T12:22:58Z</time></trkpt><trkpt lat="40.67480947786903" lon="15.029651097380118"><ele>473.0</ele><time>2026-04-25T12:23:00Z</time></trkpt><trkpt lat="40.67477477684138" lon="15.02972707638026"><ele>473.0</ele><time>2026-04-25T12:23:01Z</time></trkpt><trkpt lat="40.67475221432999" lon="15.029812301601709"><ele>472.99999999999994</ele><time>2026-04-25T12:23:02Z</time></trkpt><trkpt lat="40.674727446932245" lon="15.029905188472833"><ele>473.0</ele><time>2026-04-25T12:23:03Z</time></trkpt><trkpt lat="40.67470084714704" lon="15.03000451399349"><ele>473.0</ele><time>2026-04-25T12:23:04Z</time></trkpt><trkpt lat="40.67467314390124" lon="15.03010795986535"><ele>473.0</ele><time>2026-04-25T12:23:05Z</time></trkpt><trkpt lat="40.67464087428667" lon="15.03020470738907"><ele>472.99999999999994</ele><time>2026-04-25T12:23:06Z</time></trkpt><trkpt lat="40.67459911328592" lon="15.03030177562372"><ele>473.0</ele><time>2026-04-25T12:23:07Z</time></trkpt><trkpt lat="40.67454681836709" lon="15.030379126368747"><ele>471.49999999999994</ele><time>2026-04-25T12:23:08Z</time></trkpt><trkpt lat="40.67451169142854" lon="15.030464026058326"><ele>470.0</ele><time>2026-04-25T12:23:09Z</time></trkpt><trkpt lat="40.674468459006306" lon="15.030531060946473"><ele>468.5</ele><time>2026-04-25T12:23:10Z</time></trkpt><trkpt lat="40.67443863233239" lon="15.03066609839041"><ele>467.0</ele><time>2026-04-25T12:23:12Z</time></trkpt><trkpt lat="40.674398898019646" lon="15.03080879812241"><ele>465.49999999999994</ele><time>2026-04-25T12:23:14Z</time></trkpt><trkpt lat="40.67436937785382" lon="15.030883410333526"><ele>464.0</ele><time>2026-04-25T12:23:15Z</time></trkpt><trkpt lat="40.674338403719545" lon="15.030963800866557"><ele>463.99999999999994</ele><time>2026-04-25T12:23:16Z</time></trkpt><trkpt lat="40.674286411995276" lon="15.031026148872348"><ele>464.0</ele><time>2026-04-25T12:23:17Z</time></trkpt><trkpt lat="40.6742334822508" lon="15.031095316136364"><ele>464.0</ele><time>2026-04-25T12:23:18Z</time></trkpt><trkpt lat="40.67418114941197" lon="15.03117466156404"><ele>464.0</ele><time>2026-04-25T12:23:19Z</time></trkpt><trkpt lat="40.67413187626572" lon="15.031259328594304"><ele>463.99999999999994</ele><time>2026-04-25T12:23:20Z</time></trkpt><trkpt lat="40.674082156358644" lon="15.031339856203163"><ele>464.0</ele><time>2026-04-25T12:23:21Z</time></trkpt><trkpt lat="40.67402887350967" lon="15.031419090481489"><ele>463.99999999999994</ele><time>2026-04-25T12:23:22Z</time></trkpt><trkpt lat="40.673979959722246" lon="15.031484419570326"><ele>464.0</ele><time>2026-04-25T12:23:23Z</time></trkpt><trkpt lat="40.67393812103783" lon="15.031548506381904"><ele>464.0</ele><time>2026-04-25T12:23:24Z</time></trkpt><trkpt lat="40.67387879652406" lon="15.031604967854555"><ele>464.0</ele><time>2026-04-25T12:23:25Z</time></trkpt><trkpt lat="40.67382911910522" lon="15.031663370506783"><ele>463.99999999999994</ele><time>2026-04-25T12:23:26Z</time></trkpt><trkpt lat="40.67377683975961" lon="15.031713955144816"><ele>464.0</ele><time>2026-04-25T12:23:27Z</time></trkpt><trkpt lat="40.67365400480271" lon="15.03176080805983"><ele>461.8333333333333</ele><time>2026-04-25T12:23:29Z</time></trkpt><trkpt lat="40.67356430341083" lon="15.031799525150046"><ele>459.66666666666663</ele><time>2026-04-25T12:23:30Z</time></trkpt><trkpt lat="40.673464599691556" lon="15.0318039985806"><ele>457.5</ele><time>2026-04-25T12:23:31Z</time></trkpt><trkpt lat="40.67337754116969" lon="15.03180445457308"><ele>455.33333333333337</ele><time>2026-04-25T12:23:31.999Z</time></trkpt><trkpt lat="40.673294401854506" lon="15.031792750047481"><ele>453.1666666666667</ele><time>2026-04-25T12:23:32.999Z</time></trkpt><trkpt lat="40.67321951894952" lon="15.031773555239562"><ele>451.0</ele><time>2026-04-25T12:23:33.999Z</time></trkpt><trkpt lat="40.67315275284189" lon="15.031755884238589"><ele>451.0</ele><time>2026-04-25T12:23:34.999Z</time></trkpt><trkpt lat="40.67303986250475" lon="15.03177590068171"><ele>451.0</ele><time>2026-04-25T12:23:36.999Z</time></trkpt><trkpt lat="40.672959801748206" lon="15.031913780310331"><ele>451.0</ele><time>2026-04-25T12:23:38.999Z</time></trkpt><trkpt lat="40.67293180826753" lon="15.032017559326674"><ele>451.0</ele><time>2026-04-25T12:23:39.999Z</time></trkpt><trkpt lat="40.672907512232115" lon="15.032122491883882"><ele>451.0</ele><time>2026-04-25T12:23:40.999Z</time></trkpt><trkpt lat="40.672881916253374" lon="15.032200211028922"><ele>451.0</ele><time>2026-04-25T12:23:41.999Z</time></trkpt><trkpt lat="40.672808895839594" lon="15.032329522387199"><ele>451.0</ele><time>2026-04-25T12:23:43.999Z</time></trkpt><trkpt lat="40.672754515670185" lon="15.032390972773783"><ele>451.0</ele><time>2026-04-25T12:23:44.999Z</time></trkpt><trkpt lat="40.67270425096633" lon="15.032444590775356"><ele>451.0</ele><time>2026-04-25T12:23:45.999Z</time></trkpt><trkpt lat="40.672585079354725" lon="15.032471036771149"><ele>451.0</ele><time>2026-04-25T12:23:47.999Z</time></trkpt><trkpt lat="40.672516302202865" lon="15.032490728983632"><ele>447.6666666666667</ele><time>2026-04-25T12:23:48.999Z</time></trkpt><trkpt lat="40.67240347576576" lon="15.032501435514872"><ele>444.33333333333337</ele><time>2026-04-25T12:23:50.999Z</time></trkpt><trkpt lat="40.67233460442952" lon="15.032504868714746"><ele>441.0</ele><time>2026-04-25T12:23:51.999Z</time></trkpt><trkpt lat="40.672253890050975" lon="15.032513406934662"><ele>437.66666666666663</ele><time>2026-04-25T12:23:52.999Z</time></trkpt><trkpt lat="40.67219180929746" lon="15.032527710995403"><ele>434.3333333333333</ele><time>2026-04-25T12:23:53.999Z</time></trkpt><trkpt lat="40.67210392280925" lon="15.032526778595201"><ele>431.0</ele><time>2026-04-25T12:23:55.999Z</time></trkpt><trkpt lat="40.67203803000798" lon="15.032569748739704"><ele>430.99999999999994</ele><time>2026-04-25T12:23:57.999Z</time></trkpt><trkpt lat="40.67207756200357" lon="15.032661312576423"><ele>431.0</ele><time>2026-04-25T12:24:00.999Z</time></trkpt><trkpt lat="40.67217783691953" lon="15.032664463582593"><ele>431.0</ele><time>2026-04-25T12:24:03Z</time></trkpt><trkpt lat="40.67224914326633" lon="15.032695780819262"><ele>431.0</ele><time>2026-04-25T12:24:04Z</time></trkpt><trkpt lat="40.67231616188145" lon="15.032722356441806"><ele>430.99999999999994</ele><time>2026-04-25T12:24:05Z</time></trkpt><trkpt lat="40.672376671306175" lon="15.032778781594773"><ele>431.0</ele><time>2026-04-25T12:24:06Z</time></trkpt><trkpt lat="40.672446463548226" lon="15.032822514305975"><ele>430.99999999999994</ele><time>2026-04-25T12:24:07Z</time></trkpt><trkpt lat="40.67251913013933" lon="15.03284037878419"><ele>431.0</ele><time>2026-04-25T12:24:08Z</time></trkpt><trkpt lat="40.67258561885868" lon="15.03288091878184"><ele>431.0</ele><time>2026-04-25T12:24:09Z</time></trkpt><trkpt lat="40.67266463223892" lon="15.032894591629448"><ele>431.0</ele><time>2026-04-25T12:24:10Z</time></trkpt><trkpt lat="40.67275287058102" lon="15.032889207537277"><ele>430.99999999999994</ele><time>2026-04-25T12:24:11Z</time></trkpt><trkpt lat="40.67284402693665" lon="15.032847234480368"><ele>431.0</ele><time>2026-04-25T12:24:12Z</time></trkpt><trkpt lat="40.672929867170005" lon="15.032785118175365"><ele>427.8</ele><time>2026-04-25T12:24:13Z</time></trkpt><trkpt lat="40.67301648945854" lon="15.032699523583295"><ele>424.6</ele><time>2026-04-25T12:24:14Z</time></trkpt><trkpt lat="40.67308903447831" lon="15.032608827004287"><ele>421.4</ele><time>2026-04-25T12:24:15Z</time></trkpt><trkpt lat="40.67314699698145" lon="15.032513652403003"><ele>418.2</ele><time>2026-04-25T12:24:16Z</time></trkpt><trkpt lat="40.67318519353886" lon="15.032446955066467"><ele>415.0</ele><time>2026-04-25T12:24:17Z</time></trkpt><trkpt lat="40.67326143009592" lon="15.032376528522231"><ele>415.0</ele><time>2026-04-25T12:24:19Z</time></trkpt><trkpt lat="40.67333247192187" lon="15.032396416056612"><ele>415.0</ele><time>2026-04-25T12:24:21Z</time></trkpt><trkpt lat="40.67341676777834" lon="15.032469061764015"><ele>415.0</ele><time>2026-04-25T12:24:23Z</time></trkpt><trkpt lat="40.67352049941219" lon="15.032534629688259"><ele>415.0</ele><time>2026-04-25T12:24:25Z</time></trkpt><trkpt lat="40.673625865202794" lon="15.032591911206834"><ele>415.0</ele><time>2026-04-25T12:24:27Z</time></trkpt><trkpt lat="40.673687294410875" lon="15.032618983981834"><ele>415.2</ele><time>2026-04-25T12:24:28Z</time></trkpt><trkpt lat="40.673780093982195" lon="15.032655505361005"><ele>415.4</ele><time>2026-04-25T12:24:30Z</time></trkpt><trkpt lat="40.67387023011107" lon="15.032667143727064"><ele>415.6</ele><time>2026-04-25T12:24:32Z</time></trkpt><trkpt lat="40.67398256898496" lon="15.03268280796263"><ele>415.8</ele><time>2026-04-25T12:24:34Z</time></trkpt><trkpt lat="40.67406792360811" lon="15.032658918919173"><ele>416.0</ele><time>2026-04-25T12:24:36Z</time></trkpt><trkpt lat="40.674137155676505" lon="15.03273154751234"><ele>415.99999999999994</ele><time>2026-04-25T12:24:39Z</time></trkpt><trkpt lat="40.67412533936227" lon="15.032884273791426"><ele>416.0</ele><time>2026-04-25T12:24:41Z</time></trkpt><trkpt lat="40.67412320104355" lon="15.032967528519938"><ele>416.0</ele><time>2026-04-25T12:24:43Z</time></trkpt><trkpt lat="40.67411405010114" lon="15.033050276800862"><ele>416.0</ele><time>2026-04-25T12:24:55Z</time></trkpt><trkpt lat="40.6741067032039" lon="15.033176537195244"><ele>415.99999999999994</ele><time>2026-04-25T12:24:56Z</time></trkpt><trkpt lat="40.67410824752846" lon="15.033292990953154"><ele>416.0</ele><time>2026-04-25T12:24:57Z</time></trkpt><trkpt lat="40.67412685056095" lon="15.033406703804495"><ele>412.99999999999994</ele><time>2026-04-25T12:24:58Z</time></trkpt><trkpt lat="40.674145171871025" lon="15.033511932178621"><ele>410.0</ele><time>2026-04-25T12:24:59Z</time></trkpt><trkpt lat="40.67416618557485" lon="15.033611347621981"><ele>407.0</ele><time>2026-04-25T12:25:00Z</time></trkpt><trkpt lat="40.67419194880047" lon="15.033706987599013"><ele>404.0</ele><time>2026-04-25T12:25:01Z</time></trkpt><trkpt lat="40.674230524208966" lon="15.033799917204632"><ele>400.99999999999994</ele><time>2026-04-25T12:25:02Z</time></trkpt><trkpt lat="40.674263214216104" lon="15.033882720663298"><ele>398.0</ele><time>2026-04-25T12:25:03Z</time></trkpt><trkpt lat="40.67431599956337" lon="15.034016424459988"><ele>395.2</ele><time>2026-04-25T12:25:05Z</time></trkpt><trkpt lat="40.67431895704611" lon="15.034156401834235"><ele>392.4</ele><time>2026-04-25T12:25:07Z</time></trkpt><trkpt lat="40.67429035878833" lon="15.034278366194176"><ele>389.59999999999997</ele><time>2026-04-25T12:25:08Z</time></trkpt><trkpt lat="40.67422684147627" lon="15.03438373244314"><ele>386.79999999999995</ele><time>2026-04-25T12:25:09Z</time></trkpt><trkpt lat="40.67415856247378" lon="15.034492308212169"><ele>384.0</ele><time>2026-04-25T12:25:10Z</time></trkpt><trkpt lat="40.67410713163837" lon="15.03458280520311"><ele>384.0</ele><time>2026-04-25T12:25:11Z</time></trkpt><trkpt lat="40.67401781172849" lon="15.034688726770007"><ele>384.0</ele><time>2026-04-25T12:25:13Z</time></trkpt><trkpt lat="40.673990444051825" lon="15.034826502550493"><ele>384.0</ele><time>2026-04-25T12:25:15Z</time></trkpt><trkpt lat="40.67402628006005" lon="15.034916447145699"><ele>384.0</ele><time>2026-04-25T12:25:16Z</time></trkpt><trkpt lat="40.67409864218551" lon="15.035003524679295"><ele>384.0</ele><time>2026-04-25T12:25:17Z</time></trkpt><trkpt lat="40.67412901144032" lon="15.03510783361993"><ele>381.79999999999995</ele><time>2026-04-25T12:25:18Z</time></trkpt><trkpt lat="40.674178482693975" lon="15.03523640566904"><ele>379.59999999999997</ele><time>2026-04-25T12:25:20Z</time></trkpt><trkpt lat="40.67417700361988" lon="15.0353480347158"><ele>377.4</ele><time>2026-04-25T12:25:22Z</time></trkpt><trkpt lat="40.67418780376183" lon="15.035461301435005"><ele>375.2</ele><time>2026-04-25T12:25:24Z</time></trkpt><trkpt lat="40.67428112707562" lon="15.035581525757433"><ele>373.0</ele><time>2026-04-25T12:25:26Z</time></trkpt><trkpt lat="40.6743761508968" lon="15.035629216081578"><ele>377.2</ele><time>2026-04-25T12:25:27Z</time></trkpt><trkpt lat="40.674454362284045" lon="15.035682714579755"><ele>381.4</ele><time>2026-04-25T12:25:28Z</time></trkpt><trkpt lat="40.674516309762495" lon="15.035730245226304"><ele>385.59999999999997</ele><time>2026-04-25T12:25:29Z</time></trkpt><trkpt lat="40.67459999752629" lon="15.035843712019656"><ele>389.79999999999995</ele><time>2026-04-25T12:25:31Z</time></trkpt><trkpt lat="40.674661113176576" lon="15.035942140569224"><ele>394.0</ele><time>2026-04-25T12:25:32Z</time></trkpt><trkpt lat="40.67472032848302" lon="15.036063048079061"><ele>394.00000000000006</ele><time>2026-04-25T12:25:32.999Z</time></trkpt><trkpt lat="40.67476138091605" lon="15.03617975199673"><ele>394.0</ele><time>2026-04-25T12:25:33.999Z</time></trkpt><trkpt lat="40.67479465272142" lon="15.036281271938249"><ele>394.0</ele><time>2026-04-25T12:25:34.999Z</time></trkpt><trkpt lat="40.67481879247276" lon="15.036363927189736"><ele>394.0</ele><time>2026-04-25T12:25:35.999Z</time></trkpt><trkpt lat="40.67481812897848" lon="15.0365187756928"><ele>394.00000000000006</ele><time>2026-04-25T12:25:37.999Z</time></trkpt><trkpt lat="40.674815208649584" lon="15.036612807857447"><ele>394.0</ele><time>2026-04-25T12:25:38.999Z</time></trkpt><trkpt lat="40.67484993763403" lon="15.036706248228697"><ele>388.0</ele><time>2026-04-25T12:25:39.999Z</time></trkpt><trkpt lat="40.67490608456979" lon="15.036797722562742"><ele>382.0</ele><time>2026-04-25T12:25:40.999Z</time></trkpt><trkpt lat="40.674998853495794" lon="15.03687006524644"><ele>376.0</ele><time>2026-04-25T12:25:41.999Z</time></trkpt><trkpt lat="40.675085693064034" lon="15.036967424867756"><ele>370.0</ele><time>2026-04-25T12:25:42.999Z</time></trkpt><trkpt lat="40.675165888750726" lon="15.037062602267314"><ele>364.0</ele><time>2026-04-25T12:25:43.999Z</time></trkpt><trkpt lat="40.67522675031556" lon="15.037151710685311"><ele>364.0</ele><time>2026-04-25T12:25:44.999Z</time></trkpt><trkpt lat="40.67526800295032" lon="15.037225237255239"><ele>364.0</ele><time>2026-04-25T12:25:45.999Z</time></trkpt><trkpt lat="40.675305498809344" lon="15.037391957371286"><ele>364.0</ele><time>2026-04-25T12:25:47.999Z</time></trkpt><trkpt lat="40.675325890199936" lon="15.03752538458703"><ele>364.0</ele><time>2026-04-25T12:25:48.999Z</time></trkpt><trkpt lat="40.675366246793686" lon="15.037654054381692"><ele>364.0</ele><time>2026-04-25T12:25:49.999Z</time></trkpt><trkpt lat="40.6754140777606" lon="15.037744368195229"><ele>366.16666666666663</ele><time>2026-04-25T12:25:50.999Z</time></trkpt><trkpt lat="40.67546815652329" lon="15.037830069829797"><ele>368.3333333333333</ele><time>2026-04-25T12:25:51.999Z</time></trkpt><trkpt lat="40.67553267461942" lon="15.037914277761756"><ele>370.5</ele><time>2026-04-25T12:25:52.999Z</time></trkpt><trkpt lat="40.67560468177659" lon="15.037992437243952"><ele>372.6666666666667</ele><time>2026-04-25T12:25:53.999Z</time></trkpt><trkpt lat="40.675674517570386" lon="15.038055855864247"><ele>374.83333333333337</ele><time>2026-04-25T12:25:54.999Z</time></trkpt><trkpt lat="40.67575687355758" lon="15.038092507421146"><ele>377.0</ele><time>2026-04-25T12:25:55.999Z</time></trkpt><trkpt lat="40.67584901940015" lon="15.038084034401404"><ele>377.0</ele><time>2026-04-25T12:25:56.999Z</time></trkpt><trkpt lat="40.67594271104887" lon="15.038108412254129"><ele>377.0</ele><time>2026-04-25T12:25:57.999Z</time></trkpt><trkpt lat="40.676007723521124" lon="15.038120249638965"><ele>377.0</ele><time>2026-04-25T12:25:58.999Z</time></trkpt><trkpt lat="40.67609341294691" lon="15.038165813625808"><ele>377.0</ele><time>2026-04-25T12:26:00.999Z</time></trkpt><trkpt lat="40.67620197266386" lon="15.038274228593126"><ele>377.0</ele><time>2026-04-25T12:26:02.999Z</time></trkpt><trkpt lat="40.67625367587211" lon="15.03837519033238"><ele>379.20000000000005</ele><time>2026-04-25T12:26:03.999Z</time></trkpt><trkpt lat="40.67626830617982" lon="15.038461751395792"><ele>381.4</ele><time>2026-04-25T12:26:04.999Z</time></trkpt><trkpt lat="40.676279556981136" lon="15.038594233802478"><ele>383.6</ele><time>2026-04-25T12:26:05.999Z</time></trkpt><trkpt lat="40.67628953903761" lon="15.038768611800185"><ele>385.79999999999995</ele><time>2026-04-25T12:26:06.999Z</time></trkpt><trkpt lat="40.67630149453308" lon="15.038928942471491"><ele>388.0</ele><time>2026-04-25T12:26:08Z</time></trkpt><trkpt lat="40.67632922438356" lon="15.039067457680927"><ele>385.00000000000006</ele><time>2026-04-25T12:26:09Z</time></trkpt><trkpt lat="40.67638107886598" lon="15.039172353088212"><ele>382.0</ele><time>2026-04-25T12:26:10Z</time></trkpt><trkpt lat="40.67639477406743" lon="15.039257559346332"><ele>379.0</ele><time>2026-04-25T12:26:11Z</time></trkpt><trkpt lat="40.676419615589374" lon="15.039346409628259"><ele>376.0</ele><time>2026-04-25T12:26:12Z</time></trkpt><trkpt lat="40.67646107926362" lon="15.039482508236386"><ele>373.0</ele><time>2026-04-25T12:26:14Z</time></trkpt><trkpt lat="40.67644374141634" lon="15.039605525966563"><ele>370.0</ele><time>2026-04-25T12:26:16Z</time></trkpt><trkpt lat="40.676446068721695" lon="15.039694615743716"><ele>370.0</ele><time>2026-04-25T12:26:18Z</time></trkpt><trkpt lat="40.67647037585894" lon="15.039778396021843"><ele>370.0</ele><time>2026-04-25T12:26:22Z</time></trkpt><trkpt lat="40.6765513468457" lon="15.039856726382094"><ele>370.0</ele><time>2026-04-25T12:26:23Z</time></trkpt><trkpt lat="40.67669651645821" lon="15.039989586373776"><ele>370.0</ele><time>2026-04-25T12:26:24Z</time></trkpt><trkpt lat="40.67678379984229" lon="15.040075421280449"><ele>374.2</ele><time>2026-04-25T12:26:25Z</time></trkpt><trkpt lat="40.676856696635184" lon="15.040156032323754"><ele>378.4</ele><time>2026-04-25T12:26:26Z</time></trkpt><trkpt lat="40.67692346635197" lon="15.040240157695806"><ele>382.6</ele><time>2026-04-25T12:26:28Z</time></trkpt><trkpt lat="40.67696609411613" lon="15.040319734167348"><ele>386.8</ele><time>2026-04-25T12:26:29Z</time></trkpt><trkpt lat="40.67700392540932" lon="15.040432645104952"><ele>391.0</ele><time>2026-04-25T12:26:30Z</time></trkpt><trkpt lat="40.67705412578259" lon="15.040563696442122"><ele>391.0</ele><time>2026-04-25T12:26:31Z</time></trkpt><trkpt lat="40.677117692085375" lon="15.040712601419921"><ele>391.0</ele><time>2026-04-25T12:26:32Z</time></trkpt><trkpt lat="40.677190645101646" lon="15.040820751877133"><ele>391.0</ele><time>2026-04-25T12:26:33Z</time></trkpt><trkpt lat="40.67724507180156" lon="15.04096369309609"><ele>391.0</ele><time>2026-04-25T12:26:34Z</time></trkpt><trkpt lat="40.6773166859551" lon="15.041068805538943"><ele>384.6</ele><time>2026-04-25T12:26:35Z</time></trkpt><trkpt lat="40.67737190596562" lon="15.041166001480123"><ele>378.20000000000005</ele><time>2026-04-25T12:26:36Z</time></trkpt><trkpt lat="40.67743825139704" lon="15.041250267667568"><ele>371.79999999999995</ele><time>2026-04-25T12:26:37Z</time></trkpt><trkpt lat="40.677523714054395" lon="15.041330169809866"><ele>365.4</ele><time>2026-04-25T12:26:38Z</time></trkpt><trkpt lat="40.6776236556573" lon="15.041420504297411"><ele>359.0</ele><time>2026-04-25T12:26:39Z</time></trkpt><trkpt lat="40.6777194702665" lon="15.041483711445926"><ele>357.6</ele><time>2026-04-25T12:26:40Z</time></trkpt><trkpt lat="40.67779587708563" lon="15.041534642564807"><ele>356.2</ele><time>2026-04-25T12:26:41Z</time></trkpt><trkpt lat="40.677883781681054" lon="15.041552125295494"><ele>354.8</ele><time>2026-04-25T12:26:42Z</time></trkpt><trkpt lat="40.6779876395707" lon="15.041593215295727"><ele>353.40000000000003</ele><time>2026-04-25T12:26:43Z</time></trkpt><trkpt lat="40.67808281134457" lon="15.0416494109838"><ele>352.0</ele><time>2026-04-25T12:26:44Z</time></trkpt><trkpt lat="40.678181437733784" lon="15.041672742557257"><ele>352.0</ele><time>2026-04-25T12:26:45Z</time></trkpt><trkpt lat="40.67827182637809" lon="15.041691453576533"><ele>352.0</ele><time>2026-04-25T12:26:46Z</time></trkpt><trkpt lat="40.678339238198" lon="15.041730138945777"><ele>352.0</ele><time>2026-04-25T12:26:47Z</time></trkpt><trkpt lat="40.67841960795791" lon="15.041807961546953"><ele>352.0</ele><time>2026-04-25T12:26:49Z</time></trkpt><trkpt lat="40.67847963244862" lon="15.041857736813558"><ele>352.0</ele><time>2026-04-25T12:26:54Z</time></trkpt><trkpt lat="40.678565795898855" lon="15.041914569195086"><ele>352.0</ele><time>2026-04-25T12:27:03Z</time></trkpt><trkpt lat="40.67866494659707" lon="15.0420067632405"><ele>354.8</ele><time>2026-04-25T12:27:05Z</time></trkpt><trkpt lat="40.678749385900915" lon="15.042089861587929"><ele>357.6</ele><time>2026-04-25T12:27:07Z</time></trkpt><trkpt lat="40.67882829696423" lon="15.042168404544588"><ele>360.40000000000003</ele><time>2026-04-25T12:27:09Z</time></trkpt><trkpt lat="40.67890531711944" lon="15.04222907585389"><ele>363.20000000000005</ele><time>2026-04-25T12:27:11Z</time></trkpt><trkpt lat="40.67901038311157" lon="15.042226872502274"><ele>366.0</ele><time>2026-04-25T12:27:13Z</time></trkpt><trkpt lat="40.67909776626478" lon="15.042198950621392"><ele>366.0</ele><time>2026-04-25T12:27:15Z</time></trkpt><trkpt lat="40.67917199200868" lon="15.042176642359168"><ele>366.0</ele><time>2026-04-25T12:27:17Z</time></trkpt><trkpt lat="40.679248653498476" lon="15.042241911769791"><ele>366.0</ele><time>2026-04-25T12:27:19Z</time></trkpt><trkpt lat="40.6793191650038" lon="15.042252765131494"><ele>366.0</ele><time>2026-04-25T12:27:20Z</time></trkpt><trkpt lat="40.67940436199342" lon="15.04225037422323"><ele>366.0</ele><time>2026-04-25T12:27:21Z</time></trkpt><trkpt lat="40.67948612120587" lon="15.042262509361228"><ele>366.0</ele><time>2026-04-25T12:27:22Z</time></trkpt><trkpt lat="40.67954842256056" lon="15.042278559657003"><ele>367.5</ele><time>2026-04-25T12:27:23Z</time></trkpt><trkpt lat="40.67962073555039" lon="15.042319599060102"><ele>369.0</ele><time>2026-04-25T12:27:25Z</time></trkpt><trkpt lat="40.67967579972859" lon="15.04236972975409"><ele>370.5</ele><time>2026-04-25T12:27:26Z</time></trkpt><trkpt lat="40.67973226449659" lon="15.042413551587389"><ele>372.0</ele><time>2026-04-25T12:27:27Z</time></trkpt><trkpt lat="40.67980933867164" lon="15.042420189920355"><ele>373.5</ele><time>2026-04-25T12:27:28Z</time></trkpt><trkpt lat="40.67989524912516" lon="15.04245944691077"><ele>375.0</ele><time>2026-04-25T12:27:29Z</time></trkpt><trkpt lat="40.67999098409613" lon="15.042477314574878"><ele>366.8333333333333</ele><time>2026-04-25T12:27:30Z</time></trkpt><trkpt lat="40.68007823283486" lon="15.042488002516151"><ele>358.6666666666667</ele><time>2026-04-25T12:27:31Z</time></trkpt><trkpt lat="40.68016401724593" lon="15.042497106451359"><ele>350.5</ele><time>2026-04-25T12:27:32Z</time></trkpt><trkpt lat="40.680238545042954" lon="15.04248570658804"><ele>342.33333333333337</ele><time>2026-04-25T12:27:33Z</time></trkpt><trkpt lat="40.68032911859461" lon="15.042493869931876"><ele>334.1666666666667</ele><time>2026-04-25T12:27:34Z</time></trkpt><trkpt lat="40.68042702236421" lon="15.042524918796172"><ele>326.0</ele><time>2026-04-25T12:27:34.999Z</time></trkpt><trkpt lat="40.68053100892222" lon="15.042541400774777"><ele>325.0</ele><time>2026-04-25T12:27:35.999Z</time></trkpt><trkpt lat="40.68065904283948" lon="15.042547798963225"><ele>324.0</ele><time>2026-04-25T12:27:36.999Z</time></trkpt><trkpt lat="40.68075422349373" lon="15.042560477239153"><ele>323.0</ele><time>2026-04-25T12:27:37.999Z</time></trkpt><trkpt lat="40.68084760437839" lon="15.042564148303049"><ele>322.0</ele><time>2026-04-25T12:27:38.999Z</time></trkpt><trkpt lat="40.68095424680661" lon="15.042577009671732"><ele>321.0</ele><time>2026-04-25T12:27:39.999Z</time></trkpt><trkpt lat="40.68105316860099" lon="15.042572015768657"><ele>319.6666666666667</ele><time>2026-04-25T12:27:40.999Z</time></trkpt><trkpt lat="40.68114238615117" lon="15.042569181061769"><ele>318.3333333333333</ele><time>2026-04-25T12:27:41.999Z</time></trkpt><trkpt lat="40.681230025357124" lon="15.04257177534855"><ele>317.0</ele><time>2026-04-25T12:27:42.999Z</time></trkpt><trkpt lat="40.681315588107736" lon="15.042577045925112"><ele>315.66666666666663</ele><time>2026-04-25T12:27:43.999Z</time></trkpt><trkpt lat="40.681400079597935" lon="15.042560576195585"><ele>314.3333333333333</ele><time>2026-04-25T12:27:44.999Z</time></trkpt><trkpt lat="40.68146472099552" lon="15.042558386307691"><ele>313.0</ele><time>2026-04-25T12:27:45.999Z</time></trkpt><trkpt lat="40.68158338025427" lon="15.042545234993442"><ele>313.0</ele><time>2026-04-25T12:27:47.999Z</time></trkpt><trkpt lat="40.681654684703474" lon="15.042532803286633"><ele>313.0</ele><time>2026-04-25T12:27:49.999Z</time></trkpt><trkpt lat="40.68167192046605" lon="15.042639430682025"><ele>313.0</ele><time>2026-04-25T12:27:53.999Z</time></trkpt><trkpt lat="40.68157200914145" lon="15.042707569648709"><ele>313.0</ele><time>2026-04-25T12:27:55.999Z</time></trkpt><trkpt lat="40.68149129113019" lon="15.0427449058686"><ele>313.0</ele><time>2026-04-25T12:27:57.999Z</time></trkpt><trkpt lat="40.681415224126496" lon="15.042783337484611"><ele>313.0</ele><time>2026-04-25T12:27:59.999Z</time></trkpt><trkpt lat="40.681324319465304" lon="15.04280810027732"><ele>313.0</ele><time>2026-04-25T12:28:01.999Z</time></trkpt><trkpt lat="40.68122074594111" lon="15.042830054030665"><ele>313.0</ele><time>2026-04-25T12:28:03.999Z</time></trkpt><trkpt lat="40.68115526927576" lon="15.042858897270829"><ele>313.0</ele><time>2026-04-25T12:28:04.999Z</time></trkpt><trkpt lat="40.681080667155506" lon="15.042889666336931"><ele>313.0</ele><time>2026-04-25T12:28:05.999Z</time></trkpt><trkpt lat="40.6809964550386" lon="15.042896147923646"><ele>313.0</ele><time>2026-04-25T12:28:06.999Z</time></trkpt><trkpt lat="40.6809284024834" lon="15.042912288819135"><ele>313.0</ele><time>2026-04-25T12:28:07.999Z</time></trkpt><trkpt lat="40.68086292067821" lon="15.042926433743634"><ele>314.3333333333333</ele><time>2026-04-25T12:28:08.999Z</time></trkpt><trkpt lat="40.68080074573478" lon="15.042939864303372"><ele>315.66666666666663</ele><time>2026-04-25T12:28:09.999Z</time></trkpt><trkpt lat="40.68066975288233" lon="15.042966678782083"><ele>317.0</ele><time>2026-04-25T12:28:11.999Z</time></trkpt><trkpt lat="40.68059552578227" lon="15.042980089060332"><ele>318.3333333333333</ele><time>2026-04-25T12:28:12.999Z</time></trkpt><trkpt lat="40.68051070414079" lon="15.042993748054448"><ele>319.6666666666667</ele><time>2026-04-25T12:28:14Z</time></trkpt><trkpt lat="40.68042584344864" lon="15.043007413336515"><ele>321.0</ele><time>2026-04-25T12:28:15Z</time></trkpt><trkpt lat="40.680352150698795" lon="15.04302084596839"><ele>321.0</ele><time>2026-04-25T12:28:16Z</time></trkpt><trkpt lat="40.68027771071848" lon="15.043035130606652"><ele>321.0</ele><time>2026-04-25T12:28:17Z</time></trkpt><trkpt lat="40.680183012812535" lon="15.043055869273294"><ele>321.0</ele><time>2026-04-25T12:28:18Z</time></trkpt><trkpt lat="40.68009736301812" lon="15.04307721161457"><ele>321.0</ele><time>2026-04-25T12:28:19Z</time></trkpt><trkpt lat="40.68001908702878" lon="15.04309807689617"><ele>321.0</ele><time>2026-04-25T12:28:20Z</time></trkpt><trkpt lat="40.67993752332622" lon="15.043119818577154"><ele>321.0</ele><time>2026-04-25T12:28:21Z</time></trkpt><trkpt lat="40.67986296695918" lon="15.043139692371486"><ele>320.5</ele><time>2026-04-25T12:28:22Z</time></trkpt><trkpt lat="40.67978635481199" lon="15.043160114134276"><ele>320.0</ele><time>2026-04-25T12:28:23Z</time></trkpt><trkpt lat="40.67970534801921" lon="15.043181040876558"><ele>319.5</ele><time>2026-04-25T12:28:24Z</time></trkpt><trkpt lat="40.67962466153146" lon="15.043201218892689"><ele>319.0</ele><time>2026-04-25T12:28:25Z</time></trkpt><trkpt lat="40.67954598797305" lon="15.043220893492732"><ele>318.5</ele><time>2026-04-25T12:28:26Z</time></trkpt><trkpt lat="40.67944926391774" lon="15.043245082153506"><ele>318.0</ele><time>2026-04-25T12:28:27Z</time></trkpt><trkpt lat="40.67936663962473" lon="15.04326223406772"><ele>318.0</ele><time>2026-04-25T12:28:28Z</time></trkpt><trkpt lat="40.67929296316603" lon="15.043276571581965"><ele>318.0</ele><time>2026-04-25T12:28:29Z</time></trkpt><trkpt lat="40.679227921689915" lon="15.043289228732876"><ele>318.0</ele><time>2026-04-25T12:28:30Z</time></trkpt><trkpt lat="40.67910727312058" lon="15.043315508899466"><ele>318.0</ele><time>2026-04-25T12:28:32Z</time></trkpt><trkpt lat="40.67901390521878" lon="15.043347553274415"><ele>318.0</ele><time>2026-04-25T12:28:34Z</time></trkpt><trkpt lat="40.67895418730139" lon="15.043387077628099"><ele>318.0</ele><time>2026-04-25T12:28:36Z</time></trkpt><trkpt lat="40.678913355419915" lon="15.043451871147653"><ele>311.0</ele><time>2026-04-25T12:28:38Z</time></trkpt><trkpt lat="40.67899035944043" lon="15.043529811476887"><ele>304.0</ele><time>2026-04-25T12:28:40Z</time></trkpt><trkpt lat="40.67908314334366" lon="15.043520084464772"><ele>297.0</ele><time>2026-04-25T12:28:42Z</time></trkpt><trkpt lat="40.679138842727795" lon="15.043587020454812"><ele>290.0</ele><time>2026-04-25T12:28:43Z</time></trkpt><trkpt lat="40.679211993261504" lon="15.043591700734641"><ele>283.0</ele><time>2026-04-25T12:28:44Z</time></trkpt><trkpt lat="40.67928180145905" lon="15.043603263125481"><ele>276.0</ele><time>2026-04-25T12:28:45Z</time></trkpt><trkpt lat="40.67936358525715" lon="15.04365513070662"><ele>276.0</ele><time>2026-04-25T12:28:47Z</time></trkpt><trkpt lat="40.67940827429659" lon="15.043721205531224"><ele>276.0</ele><time>2026-04-25T12:28:49Z</time></trkpt><trkpt lat="40.67937014112744" lon="15.04384455441362"><ele>276.0</ele><time>2026-04-25T12:28:52Z</time></trkpt><trkpt lat="40.67925049767172" lon="15.0438510645833"><ele>276.0</ele><time>2026-04-25T12:28:54Z</time></trkpt><trkpt lat="40.679159933258106" lon="15.043854617404074"><ele>276.0</ele><time>2026-04-25T12:28:55Z</time></trkpt><trkpt lat="40.679076900704665" lon="15.043850500733905"><ele>276.0</ele><time>2026-04-25T12:28:56Z</time></trkpt><trkpt lat="40.678994171072716" lon="15.043838116971214"><ele>276.0</ele><time>2026-04-25T12:28:57Z</time></trkpt><trkpt lat="40.67890895793111" lon="15.043842612544909"><ele>276.0</ele><time>2026-04-25T12:28:58Z</time></trkpt><trkpt lat="40.6787879361357" lon="15.043791257620997"><ele>276.0</ele><time>2026-04-25T12:29:00Z</time></trkpt><trkpt lat="40.67870885615908" lon="15.04376516255054"><ele>276.0</ele><time>2026-04-25T12:29:01Z</time></trkpt><trkpt lat="40.678594084285145" lon="15.043709306566734"><ele>274.5</ele><time>2026-04-25T12:29:03Z</time></trkpt><trkpt lat="40.678515746386786" lon="15.043652551280795"><ele>273.0</ele><time>2026-04-25T12:29:04Z</time></trkpt><trkpt lat="40.6784474723646" lon="15.043602111167155"><ele>271.5</ele><time>2026-04-25T12:29:05Z</time></trkpt><trkpt lat="40.67836603425723" lon="15.043561349998122"><ele>270.0</ele><time>2026-04-25T12:29:06Z</time></trkpt><trkpt lat="40.67830186589844" lon="15.043526796039341"><ele>268.5</ele><time>2026-04-25T12:29:07Z</time></trkpt><trkpt lat="40.678192314950266" lon="15.043542061306999"><ele>267.0</ele><time>2026-04-25T12:29:09Z</time></trkpt><trkpt lat="40.67806634739925" lon="15.043613520784012"><ele>267.0</ele><time>2026-04-25T12:29:11Z</time></trkpt><trkpt lat="40.678028144228136" lon="15.04369509724691"><ele>267.0</ele><time>2026-04-25T12:29:12Z</time></trkpt><trkpt lat="40.67793086733385" lon="15.04376881261468"><ele>267.0</ele><time>2026-04-25T12:29:14Z</time></trkpt><trkpt lat="40.67778966490967" lon="15.043803458894617"><ele>267.0</ele><time>2026-04-25T12:29:16Z</time></trkpt><trkpt lat="40.67771083940453" lon="15.04380606440013"><ele>267.0</ele><time>2026-04-25T12:29:17Z</time></trkpt><trkpt lat="40.67764260530488" lon="15.043816975232382"><ele>265.0</ele><time>2026-04-25T12:29:18Z</time></trkpt><trkpt lat="40.67757456721655" lon="15.043787121591452"><ele>263.0</ele><time>2026-04-25T12:29:19Z</time></trkpt><trkpt lat="40.67747991171881" lon="15.043785761431716"><ele>261.0</ele><time>2026-04-25T12:29:20Z</time></trkpt><trkpt lat="40.6773894655922" lon="15.043751758496633"><ele>259.0</ele><time>2026-04-25T12:29:21Z</time></trkpt><trkpt lat="40.67731381681848" lon="15.043731903686396"><ele>257.0</ele><time>2026-04-25T12:29:22Z</time></trkpt><trkpt lat="40.677242521472934" lon="15.04374469658027"><ele>255.0</ele><time>2026-04-25T12:29:23Z</time></trkpt><trkpt lat="40.67717670451524" lon="15.043727691031581"><ele>255.0</ele><time>2026-04-25T12:29:24Z</time></trkpt><trkpt lat="40.677051002420264" lon="15.04372983329267"><ele>255.0</ele><time>2026-04-25T12:29:26Z</time></trkpt><trkpt lat="40.67698235141381" lon="15.043720850530828"><ele>255.0</ele><time>2026-04-25T12:29:27Z</time></trkpt><trkpt lat="40.67688454621982" lon="15.043696870159234"><ele>255.0</ele><time>2026-04-25T12:29:29Z</time></trkpt><trkpt lat="40.67681433231292" lon="15.043667708771782"><ele>255.0</ele><time>2026-04-25T12:29:32Z</time></trkpt><trkpt lat="40.67683452716108" lon="15.043864999603674"><ele>255.0</ele><time>2026-04-25T12:29:37Z</time></trkpt><trkpt lat="40.676916284090424" lon="15.043891650034391"><ele>255.0</ele><time>2026-04-25T12:29:39Z</time></trkpt><trkpt lat="40.67701187436461" lon="15.043889484430359"><ele>255.0</ele><time>2026-04-25T12:29:40.999Z</time></trkpt><trkpt lat="40.67707747539165" lon="15.043902368871276"><ele>255.0</ele><time>2026-04-25T12:29:41.999Z</time></trkpt><trkpt lat="40.677156350884246" lon="15.043937421243832"><ele>255.0</ele><time>2026-04-25T12:29:43.999Z</time></trkpt><trkpt lat="40.67712973073663" lon="15.044029847052045"><ele>255.0</ele><time>2026-04-25T12:29:47.999Z</time></trkpt><trkpt lat="40.67704114502357" lon="15.044079267348403"><ele>255.16666666666666</ele><time>2026-04-25T12:29:49.999Z</time></trkpt><trkpt lat="40.67693008614974" lon="15.044081945292158"><ele>255.33333333333331</ele><time>2026-04-25T12:29:52.999Z</time></trkpt><trkpt lat="40.67684018786504" lon="15.044074836237959"><ele>255.5</ele><time>2026-04-25T12:29:53.999Z</time></trkpt><trkpt lat="40.67675585364152" lon="15.044049386734182"><ele>255.66666666666666</ele><time>2026-04-25T12:29:54.999Z</time></trkpt><trkpt lat="40.67667907149369" lon="15.04402086750248"><ele>255.83333333333331</ele><time>2026-04-25T12:29:55.999Z</time></trkpt><trkpt lat="40.676616868132484" lon="15.043972451846635"><ele>256.0</ele><time>2026-04-25T12:29:56.999Z</time></trkpt><trkpt lat="40.67654407427358" lon="15.04394538456753"><ele>256.0</ele><time>2026-04-25T12:29:58.999Z</time></trkpt><trkpt lat="40.6764748066801" lon="15.043997652451573"><ele>256.0</ele><time>2026-04-25T12:30:00.999Z</time></trkpt><trkpt lat="40.67652111623336" lon="15.044056578126149"><ele>256.0</ele><time>2026-04-25T12:30:03.999Z</time></trkpt><trkpt lat="40.67662599453233" lon="15.044150037380453"><ele>256.0</ele><time>2026-04-25T12:30:05.999Z</time></trkpt><trkpt lat="40.6767090921943" lon="15.044195495785685"><ele>256.0</ele><time>2026-04-25T12:30:07.999Z</time></trkpt><trkpt lat="40.676782864897824" lon="15.044274370126823"><ele>261.8</ele><time>2026-04-25T12:30:09.999Z</time></trkpt><trkpt lat="40.67686277262806" lon="15.044396934389706"><ele>267.6</ele><time>2026-04-25T12:30:11.999Z</time></trkpt><trkpt lat="40.676902863771154" lon="15.044481462235503"><ele>273.4</ele><time>2026-04-25T12:30:13.999Z</time></trkpt><trkpt lat="40.67684644445461" lon="15.044537331616763"><ele>279.2</ele><time>2026-04-25T12:30:16.999Z</time></trkpt><trkpt lat="40.676767790299" lon="15.044484424445463"><ele>285.0</ele><time>2026-04-25T12:30:18.999Z</time></trkpt><trkpt lat="40.676650228904506" lon="15.044394673850384"><ele>285.0</ele><time>2026-04-25T12:30:21Z</time></trkpt><trkpt lat="40.676594503949566" lon="15.044350792762865"><ele>285.0</ele><time>2026-04-25T12:30:22Z</time></trkpt><trkpt lat="40.676490298123014" lon="15.044297064516758"><ele>285.0</ele><time>2026-04-25T12:30:24Z</time></trkpt><trkpt lat="40.67638910205179" lon="15.044254688286912"><ele>285.0</ele><time>2026-04-25T12:30:25Z</time></trkpt><trkpt lat="40.67629080556327" lon="15.04421470701807"><ele>285.0</ele><time>2026-04-25T12:30:26Z</time></trkpt><trkpt lat="40.67618277522965" lon="15.044182060730783"><ele>283.6666666666667</ele><time>2026-04-25T12:30:27Z</time></trkpt><trkpt lat="40.676089524553056" lon="15.044161818267481"><ele>282.3333333333333</ele><time>2026-04-25T12:30:28Z</time></trkpt><trkpt lat="40.67601051554947" lon="15.044160662149302"><ele>281.0</ele><time>2026-04-25T12:30:29Z</time></trkpt><trkpt lat="40.675920151904315" lon="15.044172575791738"><ele>279.66666666666663</ele><time>2026-04-25T12:30:30Z</time></trkpt><trkpt lat="40.67581011472291" lon="15.044146745910258"><ele>278.3333333333333</ele><time>2026-04-25T12:30:31Z</time></trkpt><trkpt lat="40.67573892669031" lon="15.04414951880927"><ele>277.0</ele><time>2026-04-25T12:30:32Z</time></trkpt><trkpt lat="40.67566145286" lon="15.044129448521952"><ele>277.0</ele><time>2026-04-25T12:30:33Z</time></trkpt><trkpt lat="40.67557691810073" lon="15.044130267622066"><ele>277.0</ele><time>2026-04-25T12:30:34Z</time></trkpt><trkpt lat="40.675483024051246" lon="15.044109885293116"><ele>277.0</ele><time>2026-04-25T12:30:35Z</time></trkpt><trkpt lat="40.67540654276552" lon="15.04410385538158"><ele>277.0</ele><time>2026-04-25T12:30:36Z</time></trkpt><trkpt lat="40.67533152928643" lon="15.044067599970838"><ele>277.0</ele><time>2026-04-25T12:30:37Z</time></trkpt><trkpt lat="40.675260839602856" lon="15.044016902907318"><ele>277.0</ele><time>2026-04-25T12:30:38Z</time></trkpt><trkpt lat="40.67514576876971" lon="15.043990615935046"><ele>282.16666666666663</ele><time>2026-04-25T12:30:40Z</time></trkpt><trkpt lat="40.67506968383274" lon="15.043989636008614"><ele>287.3333333333333</ele><time>2026-04-25T12:30:41Z</time></trkpt><trkpt lat="40.674997624627856" lon="15.04395722149063"><ele>292.5</ele><time>2026-04-25T12:30:42Z</time></trkpt><trkpt lat="40.67492556214208" lon="15.043925563071348"><ele>297.6666666666667</ele><time>2026-04-25T12:30:43Z</time></trkpt><trkpt lat="40.6748663639406" lon="15.043886318542706"><ele>302.83333333333337</ele><time>2026-04-25T12:30:44Z</time></trkpt><trkpt lat="40.67479214894002" lon="15.04382744416835"><ele>308.0</ele><time>2026-04-25T12:30:46Z</time></trkpt><trkpt lat="40.67470120570199" lon="15.043907195840905"><ele>308.0</ele><time>2026-04-25T12:30:48Z</time></trkpt><trkpt lat="40.674595334817035" lon="15.043999376899173"><ele>308.0</ele><time>2026-04-25T12:30:50Z</time></trkpt><trkpt lat="40.67449520512618" lon="15.04402913571267"><ele>308.0</ele><time>2026-04-25T12:30:52Z</time></trkpt><trkpt lat="40.67444527266658" lon="15.043966248910184"><ele>308.0</ele><time>2026-04-25T12:30:56Z</time></trkpt><trkpt lat="40.67439588256118" lon="15.04375067332672"><ele>307.0</ele><time>2026-04-25T12:30:59Z</time></trkpt><trkpt lat="40.674375255535715" lon="15.043620869612711"><ele>306.0</ele><time>2026-04-25T12:31:00Z</time></trkpt><trkpt lat="40.67435084943977" lon="15.04350242407616"><ele>305.0</ele><time>2026-04-25T12:31:01Z</time></trkpt><trkpt lat="40.674333860861005" lon="15.043345877980963"><ele>304.0</ele><time>2026-04-25T12:31:03Z</time></trkpt><trkpt lat="40.67426854269076" lon="15.043301261084112"><ele>303.0</ele><time>2026-04-25T12:31:05Z</time></trkpt><trkpt lat="40.67420293074665" lon="15.043288859795377"><ele>303.0</ele><time>2026-04-25T12:31:06Z</time></trkpt><trkpt lat="40.67408417274034" lon="15.043254358173119"><ele>303.0</ele><time>2026-04-25T12:31:07Z</time></trkpt><trkpt lat="40.67398439559718" lon="15.04320423476765"><ele>303.0</ele><time>2026-04-25T12:31:08Z</time></trkpt><trkpt lat="40.67389980343118" lon="15.04314744537597"><ele>303.0</ele><time>2026-04-25T12:31:09Z</time></trkpt><trkpt lat="40.67381056632766" lon="15.043106256266757"><ele>303.0</ele><time>2026-04-25T12:31:10Z</time></trkpt><trkpt lat="40.67373233853572" lon="15.043089524679367"><ele>303.0</ele><time>2026-04-25T12:31:11Z</time></trkpt><trkpt lat="40.673655604362025" lon="15.043084186110297"><ele>303.0</ele><time>2026-04-25T12:31:12Z</time></trkpt><trkpt lat="40.673580157080785" lon="15.043087672783383"><ele>303.0</ele><time>2026-04-25T12:31:13Z</time></trkpt><trkpt lat="40.673484270937564" lon="15.043046088467213"><ele>303.0</ele><time>2026-04-25T12:31:15Z</time></trkpt><trkpt lat="40.67338647317011" lon="15.042927075249098"><ele>303.0</ele><time>2026-04-25T12:31:17Z</time></trkpt><trkpt lat="40.673360318044416" lon="15.042825331255752"><ele>309.8</ele><time>2026-04-25T12:31:18Z</time></trkpt><trkpt lat="40.67331393387967" lon="15.042745214130317"><ele>316.6</ele><time>2026-04-25T12:31:19Z</time></trkpt><trkpt lat="40.673234850856026" lon="15.042666772066994"><ele>323.40000000000003</ele><time>2026-04-25T12:31:20Z</time></trkpt><trkpt lat="40.67314091131259" lon="15.042614938815392"><ele>330.20000000000005</ele><time>2026-04-25T12:31:21Z</time></trkpt><trkpt lat="40.673060063118704" lon="15.04258760625747"><ele>337.0</ele><time>2026-04-25T12:31:22Z</time></trkpt><trkpt lat="40.67296392094174" lon="15.042557733188936"><ele>337.0</ele><time>2026-04-25T12:31:23Z</time></trkpt><trkpt lat="40.6728577504373" lon="15.042556035297512"><ele>337.0</ele><time>2026-04-25T12:31:24Z</time></trkpt><trkpt lat="40.6727945289213" lon="15.042536148394904"><ele>337.0</ele><time>2026-04-25T12:31:25Z</time></trkpt><trkpt lat="40.67266985174117" lon="15.042558276516502"><ele>337.0</ele><time>2026-04-25T12:31:26Z</time></trkpt><trkpt lat="40.672569196607846" lon="15.042599701674321"><ele>337.0</ele><time>2026-04-25T12:31:27Z</time></trkpt><trkpt lat="40.67250315360837" lon="15.042641949685025"><ele>338.0</ele><time>2026-04-25T12:31:28Z</time></trkpt><trkpt lat="40.67241368124686" lon="15.042624045232573"><ele>339.0</ele><time>2026-04-25T12:31:30Z</time></trkpt><trkpt lat="40.672309667657224" lon="15.042517670087797"><ele>340.0</ele><time>2026-04-25T12:31:32Z</time></trkpt><trkpt lat="40.67228315456584" lon="15.042376764573145"><ele>341.0</ele><time>2026-04-25T12:31:33Z</time></trkpt><trkpt lat="40.672234162851154" lon="15.042253509941041"><ele>342.0</ele><time>2026-04-25T12:31:34Z</time></trkpt><trkpt lat="40.672173946238" lon="15.042139522656356"><ele>342.0</ele><time>2026-04-25T12:31:35Z</time></trkpt><trkpt lat="40.672083433141594" lon="15.042023080455479"><ele>342.0</ele><time>2026-04-25T12:31:36Z</time></trkpt><trkpt lat="40.672011477399195" lon="15.04189727678107"><ele>342.0</ele><time>2026-04-25T12:31:37Z</time></trkpt><trkpt lat="40.6719518840251" lon="15.04180578467067"><ele>342.0</ele><time>2026-04-25T12:31:38Z</time></trkpt><trkpt lat="40.67190598508221" lon="15.041748914134002"><ele>342.0</ele><time>2026-04-25T12:31:39Z</time></trkpt><trkpt lat="40.67179652960105" lon="15.041715436074007"><ele>347.5</ele><time>2026-04-25T12:31:41Z</time></trkpt><trkpt lat="40.671749670049344" lon="15.041782048695591"><ele>353.0</ele><time>2026-04-25T12:31:49.999Z</time></trkpt><trkpt lat="40.67177983333388" lon="15.041873376276373"><ele>358.5</ele><time>2026-04-25T12:31:51.999Z</time></trkpt><trkpt lat="40.6718794638632" lon="15.041939079459773"><ele>364.0</ele><time>2026-04-25T12:31:54.999Z</time></trkpt><trkpt lat="40.67193973073746" lon="15.042192140890402"><ele>364.0</ele><time>2026-04-25T12:31:56.999Z</time></trkpt><trkpt lat="40.67191082970768" lon="15.042103916462153"><ele>364.0</ele><time>2026-04-25T12:31:57.999Z</time></trkpt><trkpt lat="40.6719605689458" lon="15.042213352102724"><ele>364.0</ele><time>2026-04-25T12:31:58.999Z</time></trkpt><trkpt lat="40.672000911777666" lon="15.04231431587158"><ele>364.0</ele><time>2026-04-25T12:31:59.999Z</time></trkpt><trkpt lat="40.67202432908714" lon="15.04240268766859"><ele>364.0</ele><time>2026-04-25T12:32:00.999Z</time></trkpt><trkpt lat="40.6720528361327" lon="15.042481656581677"><ele>364.0</ele><time>2026-04-25T12:32:01.999Z</time></trkpt><trkpt lat="40.67206311047047" lon="15.04265004819481"><ele>365.6</ele><time>2026-04-25T12:32:03.999Z</time></trkpt><trkpt lat="40.67206363824018" lon="15.042756293334245"><ele>367.2</ele><time>2026-04-25T12:32:04.999Z</time></trkpt><trkpt lat="40.672083335494364" lon="15.042858690555967"><ele>368.8</ele><time>2026-04-25T12:32:05.999Z</time></trkpt><trkpt lat="40.67208442152378" lon="15.042979484406997"><ele>370.40000000000003</ele><time>2026-04-25T12:32:07.999Z</time></trkpt><trkpt lat="40.67213233320978" lon="15.043043256852958"><ele>372.0</ele><time>2026-04-25T12:32:09.999Z</time></trkpt><trkpt lat="40.67227749783112" lon="15.043104762892863"><ele>372.0</ele><time>2026-04-25T12:32:11.999Z</time></trkpt><trkpt lat="40.67238552125087" lon="15.043133810705102"><ele>372.0</ele><time>2026-04-25T12:32:12.999Z</time></trkpt><trkpt lat="40.67247657410966" lon="15.043159118396469"><ele>372.0</ele><time>2026-04-25T12:32:13.999Z</time></trkpt><trkpt lat="40.6725672197992" lon="15.043205733169223"><ele>372.0</ele><time>2026-04-25T12:32:14.999Z</time></trkpt><trkpt lat="40.67266197354787" lon="15.043229063480426"><ele>372.0</ele><time>2026-04-25T12:32:15.999Z</time></trkpt><trkpt lat="40.672744406746" lon="15.043265933219416"><ele>373.6</ele><time>2026-04-25T12:32:16.999Z</time></trkpt><trkpt lat="40.67282465678219" lon="15.04331367837965"><ele>375.20000000000005</ele><time>2026-04-25T12:32:18.999Z</time></trkpt><trkpt lat="40.67290105233076" lon="15.043451099773927"><ele>376.8</ele><time>2026-04-25T12:32:20.999Z</time></trkpt><trkpt lat="40.67294363928873" lon="15.043532978612392"><ele>378.4</ele><time>2026-04-25T12:32:21.999Z</time></trkpt><trkpt lat="40.67296630199294" lon="15.04363251506649"><ele>380.0</ele><time>2026-04-25T12:32:22.999Z</time></trkpt><trkpt lat="40.673010321759364" lon="15.043743940664546"><ele>380.0</ele><time>2026-04-25T12:32:23.999Z</time></trkpt><trkpt lat="40.673068640512085" lon="15.043859227015812"><ele>380.0</ele><time>2026-04-25T12:32:24.999Z</time></trkpt><trkpt lat="40.673128821875814" lon="15.043948273870795"><ele>380.0</ele><time>2026-04-25T12:32:26Z</time></trkpt><trkpt lat="40.67319748295245" lon="15.044013560266977"><ele>380.0</ele><time>2026-04-25T12:32:27Z</time></trkpt><trkpt lat="40.67324760394668" lon="15.044087715404695"><ele>380.0</ele><time>2026-04-25T12:32:28Z</time></trkpt><trkpt lat="40.67328846614138" lon="15.044207832350661"><ele>384.33333333333337</ele><time>2026-04-25T12:32:30Z</time></trkpt><trkpt lat="40.67328586815038" lon="15.0443175481217"><ele>388.6666666666667</ele><time>2026-04-25T12:32:31Z</time></trkpt><trkpt lat="40.673280228007734" lon="15.044418634953816"><ele>393.0</ele><time>2026-04-25T12:32:32Z</time></trkpt><trkpt lat="40.67326988934078" lon="15.044504501288865"><ele>397.33333333333337</ele><time>2026-04-25T12:32:33Z</time></trkpt><trkpt lat="40.673249216339876" lon="15.044598378231763"><ele>401.6666666666667</ele><time>2026-04-25T12:32:34Z</time></trkpt><trkpt lat="40.67321775009702" lon="15.04470621211307"><ele>406.0</ele><time>2026-04-25T12:32:35Z</time></trkpt><trkpt lat="40.67319366211311" lon="15.044808961853052"><ele>406.0</ele><time>2026-04-25T12:32:36Z</time></trkpt><trkpt lat="40.673199622446646" lon="15.044903142073114"><ele>406.0</ele><time>2026-04-25T12:32:38Z</time></trkpt><trkpt lat="40.67310982803573" lon="15.044912802575256"><ele>406.0</ele><time>2026-04-25T12:32:41Z</time></trkpt><trkpt lat="40.67312159393321" lon="15.044752742510113"><ele>406.0</ele><time>2026-04-25T12:32:44Z</time></trkpt><trkpt lat="40.6731345758048" lon="15.044636743348809"><ele>406.0</ele><time>2026-04-25T12:32:45Z</time></trkpt><trkpt lat="40.67314694066402" lon="15.044518569380227"><ele>406.00000000000006</ele><time>2026-04-25T12:32:46Z</time></trkpt><trkpt lat="40.673140041768015" lon="15.04441543528953"><ele>406.0</ele><time>2026-04-25T12:32:47Z</time></trkpt><trkpt lat="40.673128953634816" lon="15.04432748285106"><ele>406.0</ele><time>2026-04-25T12:32:48Z</time></trkpt><trkpt lat="40.673098333494906" lon="15.044245922298844"><ele>406.0</ele><time>2026-04-25T12:32:49Z</time></trkpt><trkpt lat="40.67304849552262" lon="15.04418366117051"><ele>406.00000000000006</ele><time>2026-04-25T12:32:50Z</time></trkpt><trkpt lat="40.672982672201755" lon="15.044113687254816"><ele>406.0</ele><time>2026-04-25T12:32:51Z</time></trkpt><trkpt lat="40.672872035221005" lon="15.044030304731137"><ele>407.20000000000005</ele><time>2026-04-25T12:32:52Z</time></trkpt><trkpt lat="40.67278420957197" lon="15.04394027447248"><ele>408.40000000000003</ele><time>2026-04-25T12:32:53Z</time></trkpt><trkpt lat="40.672702746026374" lon="15.043872025861981"><ele>409.6</ele><time>2026-04-25T12:32:54Z</time></trkpt><trkpt lat="40.67258307336013" lon="15.043840999018471"><ele>410.8</ele><time>2026-04-25T12:32:56Z</time></trkpt><trkpt lat="40.67249996147142" lon="15.043849687541734"><ele>412.0</ele><time>2026-04-25T12:32:57Z</time></trkpt><trkpt lat="40.67239282451651" lon="15.043864390837783"><ele>412.0</ele><time>2026-04-25T12:32:58Z</time></trkpt><trkpt lat="40.67226183825585" lon="15.043880731034367"><ele>412.0</ele><time>2026-04-25T12:32:59Z</time></trkpt><trkpt lat="40.672121767581785" lon="15.04388798211226"><ele>412.0</ele><time>2026-04-25T12:33:00Z</time></trkpt><trkpt lat="40.67199628186745" lon="15.043889693141661"><ele>412.0</ele><time>2026-04-25T12:33:01Z</time></trkpt><trkpt lat="40.67189835101599" lon="15.043919975351258"><ele>418.8</ele><time>2026-04-25T12:33:02Z</time></trkpt><trkpt lat="40.67180659929394" lon="15.043935538470153"><ele>425.6</ele><time>2026-04-25T12:33:04Z</time></trkpt><trkpt lat="40.67174616408675" lon="15.043880423410558"><ele>432.40000000000003</ele><time>2026-04-25T12:33:06Z</time></trkpt><trkpt lat="40.67170004891494" lon="15.043803674295457"><ele>439.20000000000005</ele><time>2026-04-25T12:33:07Z</time></trkpt><trkpt lat="40.67165073451233" lon="15.043659075204161"><ele>446.0</ele><time>2026-04-25T12:33:08Z</time></trkpt><trkpt lat="40.671624054022296" lon="15.043545610308241"><ele>446.0</ele><time>2026-04-25T12:33:09Z</time></trkpt><trkpt lat="40.671591637965605" lon="15.043464176082992"><ele>446.0</ele><time>2026-04-25T12:33:10Z</time></trkpt><trkpt lat="40.67154200087745" lon="15.043386353124706"><ele>446.0</ele><time>2026-04-25T12:33:11Z</time></trkpt><trkpt lat="40.67146798524475" lon="15.04330885528707"><ele>446.0</ele><time>2026-04-25T12:33:12Z</time></trkpt><trkpt lat="40.671415869713705" lon="15.043247981310309"><ele>446.0</ele><time>2026-04-25T12:33:13Z</time></trkpt><trkpt lat="40.67136689190812" lon="15.043189379568084"><ele>446.0</ele><time>2026-04-25T12:33:14Z</time></trkpt><trkpt lat="40.671319585891126" lon="15.043130354663436"><ele>446.0</ele><time>2026-04-25T12:33:15Z</time></trkpt><trkpt lat="40.671262637960325" lon="15.043047837391436"><ele>445.99999999999994</ele><time>2026-04-25T12:33:17Z</time></trkpt><trkpt lat="40.67132885646019" lon="15.043140551638405"><ele>446.0</ele><time>2026-04-25T12:35:52Z</time></trkpt><trkpt lat="40.67138741647586" lon="15.043227621294792"><ele>446.0</ele><time>2026-04-25T12:35:53Z</time></trkpt><trkpt lat="40.67144556371934" lon="15.043289839071674"><ele>446.0</ele><time>2026-04-25T12:35:54Z</time></trkpt><trkpt lat="40.6714968079167" lon="15.043345098302234"><ele>445.99999999999994</ele><time>2026-04-25T12:35:55Z</time></trkpt><trkpt lat="40.67157731844211" lon="15.043433937487377"><ele>446.0</ele><time>2026-04-25T12:35:57Z</time></trkpt><trkpt lat="40.67162085934082" lon="15.043496235800733"><ele>445.99999999999994</ele><time>2026-04-25T12:35:59Z</time></trkpt><trkpt lat="40.67165628315553" lon="15.04361349638742"><ele>446.0</ele><time>2026-04-25T12:36:02Z</time></trkpt><trkpt lat="40.671675309156925" lon="15.04370735546869"><ele>446.0</ele><time>2026-04-25T12:36:04Z</time></trkpt><trkpt lat="40.67170790122229" lon="15.043794259250674"><ele>446.0</ele><time>2026-04-25T12:36:06Z</time></trkpt><trkpt lat="40.671744939428706" lon="15.043884086550277"><ele>445.99999999999994</ele><time>2026-04-25T12:36:09Z</time></trkpt><trkpt lat="40.67181408339396" lon="15.043908347434554"><ele>446.0</ele><time>2026-04-25T12:36:19.999Z</time></trkpt><trkpt lat="40.6718907155741" lon="15.043900990139658"><ele>440.3333333333333</ele><time>2026-04-25T12:36:21.999Z</time></trkpt><trkpt lat="40.6719927966808" lon="15.043859091452626"><ele>434.66666666666663</ele><time>2026-04-25T12:36:23.999Z</time></trkpt><trkpt lat="40.672086171371106" lon="15.043835855162106"><ele>429.0</ele><time>2026-04-25T12:36:24.999Z</time></trkpt><trkpt lat="40.67216548866916" lon="15.043831725804772"><ele>423.33333333333337</ele><time>2026-04-25T12:36:25.999Z</time></trkpt><trkpt lat="40.672239956578125" lon="15.043838328656703"><ele>417.6666666666667</ele><time>2026-04-25T12:36:26.999Z</time></trkpt><trkpt lat="40.67232045571183" lon="15.043840627131418"><ele>412.0</ele><time>2026-04-25T12:36:27.999Z</time></trkpt><trkpt lat="40.67241182628789" lon="15.043840664894072"><ele>412.0</ele><time>2026-04-25T12:36:28.999Z</time></trkpt><trkpt lat="40.67248040383445" lon="15.043831158830363"><ele>412.0</ele><time>2026-04-25T12:36:29.999Z</time></trkpt><trkpt lat="40.67258398149275" lon="15.043841762272647"><ele>412.0</ele><time>2026-04-25T12:36:31.999Z</time></trkpt><trkpt lat="40.67269373594561" lon="15.043901738309879"><ele>412.0</ele><time>2026-04-25T12:36:33.999Z</time></trkpt><trkpt lat="40.67275889936211" lon="15.04395902712681"><ele>412.0</ele><time>2026-04-25T12:36:34.999Z</time></trkpt><trkpt lat="40.67283131302924" lon="15.044035454463623"><ele>410.8</ele><time>2026-04-25T12:36:35.999Z</time></trkpt><trkpt lat="40.67289225555049" lon="15.044130348465325"><ele>409.6</ele><time>2026-04-25T12:36:36.999Z</time></trkpt><trkpt lat="40.67297675020519" lon="15.044195876648011"><ele>408.40000000000003</ele><time>2026-04-25T12:36:38Z</time></trkpt><trkpt lat="40.67303529540649" lon="15.044249332513724"><ele>407.20000000000005</ele><time>2026-04-25T12:36:39Z</time></trkpt><trkpt lat="40.67311001297315" lon="15.044383826007632"><ele>406.0</ele><time>2026-04-25T12:36:41Z</time></trkpt><trkpt lat="40.673134118248704" lon="15.044474663448984"><ele>406.00000000000006</ele><time>2026-04-25T12:36:42Z</time></trkpt><trkpt lat="40.67313126870117" lon="15.044577922589069"><ele>406.0</ele><time>2026-04-25T12:36:43Z</time></trkpt><trkpt lat="40.67312162730044" lon="15.044694878799937"><ele>406.0</ele><time>2026-04-25T12:36:44Z</time></trkpt><trkpt lat="40.67310853363297" lon="15.044787152623856"><ele>406.0</ele><time>2026-04-25T12:36:45Z</time></trkpt><trkpt lat="40.67309600934064" lon="15.0449004570171"><ele>406.00000000000006</ele><time>2026-04-25T12:36:47Z</time></trkpt><trkpt lat="40.67316055914765" lon="15.044915217740783"><ele>406.0</ele><time>2026-04-25T12:36:51Z</time></trkpt><trkpt lat="40.67318477872209" lon="15.044762616984737"><ele>406.00000000000006</ele><time>2026-04-25T12:36:53Z</time></trkpt><trkpt lat="40.67319522791372" lon="15.044623409889837"><ele>406.0</ele><time>2026-04-25T12:36:54Z</time></trkpt><trkpt lat="40.67322166882738" lon="15.04451524151241"><ele>406.0</ele><time>2026-04-25T12:36:55Z</time></trkpt><trkpt lat="40.67324734057207" lon="15.044435627009866"><ele>406.0</ele><time>2026-04-25T12:36:56Z</time></trkpt><trkpt lat="40.673264844541976" lon="15.044352758217537"><ele>406.00000000000006</ele><time>2026-04-25T12:36:57Z</time></trkpt><trkpt lat="40.67324317972786" lon="15.044194921485307"><ele>406.0</ele><time>2026-04-25T12:36:59Z</time></trkpt><trkpt lat="40.673222142506084" lon="15.044070899765185"><ele>401.6666666666667</ele><time>2026-04-25T12:37:01Z</time></trkpt><trkpt lat="40.673155900745414" lon="15.04396782550867"><ele>397.33333333333337</ele><time>2026-04-25T12:37:03Z</time></trkpt><trkpt lat="40.673099233760226" lon="15.043899292800923"><ele>393.0</ele><time>2026-04-25T12:37:04Z</time></trkpt><trkpt lat="40.67303092154774" lon="15.043824766463775"><ele>388.6666666666667</ele><time>2026-04-25T12:37:05Z</time></trkpt><trkpt lat="40.67297155297285" lon="15.043735683550459"><ele>384.33333333333337</ele><time>2026-04-25T12:37:06Z</time></trkpt><trkpt lat="40.672932097299885" lon="15.043646457482971"><ele>380.0</ele><time>2026-04-25T12:37:07Z</time></trkpt><trkpt lat="40.67290257018726" lon="15.04356002624312"><ele>380.0</ele><time>2026-04-25T12:37:08Z</time></trkpt><trkpt lat="40.672875052048624" lon="15.043477664727082"><ele>380.0</ele><time>2026-04-25T12:37:09Z</time></trkpt><trkpt lat="40.67281303747839" lon="15.043372896799864"><ele>380.0</ele><time>2026-04-25T12:37:11Z</time></trkpt><trkpt lat="40.672708782682385" lon="15.043332828313421"><ele>380.0</ele><time>2026-04-25T12:37:13Z</time></trkpt><trkpt lat="40.672623773171644" lon="15.043302401339583"><ele>380.0</ele><time>2026-04-25T12:37:14Z</time></trkpt><trkpt lat="40.672506155223026" lon="15.043273856825559"><ele>378.6666666666667</ele><time>2026-04-25T12:37:15Z</time></trkpt><trkpt lat="40.67240545395988" lon="15.043252025688108"><ele>377.33333333333337</ele><time>2026-04-25T12:37:16Z</time></trkpt><trkpt lat="40.672325604802054" lon="15.04323234018211"><ele>376.0</ele><time>2026-04-25T12:37:17Z</time></trkpt><trkpt lat="40.67224834200636" lon="15.04320617761137"><ele>374.6666666666667</ele><time>2026-04-25T12:37:18Z</time></trkpt><trkpt lat="40.67217735935515" lon="15.043167047417628"><ele>373.3333333333333</ele><time>2026-04-25T12:37:19Z</time></trkpt><trkpt lat="40.67210914007107" lon="15.043114862617548"><ele>372.0</ele><time>2026-04-25T12:37:20Z</time></trkpt><trkpt lat="40.67202608641605" lon="15.043032574167164"><ele>372.0</ele><time>2026-04-25T12:37:22Z</time></trkpt><trkpt lat="40.67197591645701" lon="15.042881340007426"><ele>372.0</ele><time>2026-04-25T12:37:25Z</time></trkpt><trkpt lat="40.671982139095135" lon="15.042768375555559"><ele>372.0</ele><time>2026-04-25T12:37:26Z</time></trkpt><trkpt lat="40.672005525754194" lon="15.042678712994904"><ele>372.0</ele><time>2026-04-25T12:37:27Z</time></trkpt><trkpt lat="40.672002420437" lon="15.042594456950205"><ele>372.0</ele><time>2026-04-25T12:37:28Z</time></trkpt><trkpt lat="40.67199379389867" lon="15.042490406979182"><ele>372.0</ele><time>2026-04-25T12:37:29Z</time></trkpt><trkpt lat="40.671988088059706" lon="15.042400326991565"><ele>370.40000000000003</ele><time>2026-04-25T12:37:30Z</time></trkpt><trkpt lat="40.67194044165408" lon="15.042270327191728"><ele>368.8</ele><time>2026-04-25T12:37:32Z</time></trkpt><trkpt lat="40.671902402861654" lon="15.04218401889259"><ele>367.2</ele><time>2026-04-25T12:37:33Z</time></trkpt><trkpt lat="40.67186469997614" lon="15.042050393725734"><ele>365.6</ele><time>2026-04-25T12:37:35Z</time></trkpt><trkpt lat="40.671843427268236" lon="15.041920804909909"><ele>364.0</ele><time>2026-04-25T12:37:37Z</time></trkpt><trkpt lat="40.671776381425055" lon="15.041850102869837"><ele>364.0</ele><time>2026-04-25T12:37:40Z</time></trkpt><trkpt lat="40.67176771733672" lon="15.041763507742132"><ele>364.0</ele><time>2026-04-25T12:37:44Z</time></trkpt><trkpt lat="40.671848335906446" lon="15.041745751438679"><ele>364.0</ele><time>2026-04-25T12:37:47Z</time></trkpt><trkpt lat="40.67192288445704" lon="15.041819865035581"><ele>364.0</ele><time>2026-04-25T12:37:50Z</time></trkpt><trkpt lat="40.67203438954375" lon="15.042017885644285"><ele>364.0</ele><time>2026-04-25T12:37:52Z</time></trkpt><trkpt lat="40.672101036528375" lon="15.042127988832927"><ele>365.3333333333333</ele><time>2026-04-25T12:37:53Z</time></trkpt><trkpt lat="40.67215731281579" lon="15.042213384102517"><ele>366.66666666666663</ele><time>2026-04-25T12:37:54Z</time></trkpt><trkpt lat="40.672222507114114" lon="15.042306944966496"><ele>368.0</ele><time>2026-04-25T12:37:55Z</time></trkpt><trkpt lat="40.67228509085204" lon="15.042384913853907"><ele>369.3333333333333</ele><time>2026-04-25T12:37:56Z</time></trkpt><trkpt lat="40.67234161555847" lon="15.042458756757108"><ele>370.6666666666667</ele><time>2026-04-25T12:37:57Z</time></trkpt><trkpt lat="40.672394942166825" lon="15.042538724507189"><ele>372.0</ele><time>2026-04-25T12:37:58Z</time></trkpt><trkpt lat="40.67244546686534" lon="15.042622280640783"><ele>372.0</ele><time>2026-04-25T12:37:59Z</time></trkpt><trkpt lat="40.672495956570884" lon="15.042695555299687"><ele>372.0</ele><time>2026-04-25T12:37:59.999Z</time></trkpt><trkpt lat="40.67254259015877" lon="15.042753168099926"><ele>372.0</ele><time>2026-04-25T12:38:00.999Z</time></trkpt><trkpt lat="40.67258966712272" lon="15.042809006413028"><ele>372.0</ele><time>2026-04-25T12:38:01.999Z</time></trkpt><trkpt lat="40.6727163081419" lon="15.042842859744788"><ele>372.0</ele><time>2026-04-25T12:38:03.999Z</time></trkpt><trkpt lat="40.6728007149637" lon="15.042836916539688"><ele>372.0</ele><time>2026-04-25T12:38:04.999Z</time></trkpt><trkpt lat="40.672877448584856" lon="15.042770008993818"><ele>366.1666666666667</ele><time>2026-04-25T12:38:05.999Z</time></trkpt><trkpt lat="40.672944387622366" lon="15.042689642666383"><ele>360.3333333333333</ele><time>2026-04-25T12:38:06.999Z</time></trkpt><trkpt lat="40.67302490185996" lon="15.042680711468131"><ele>354.5</ele><time>2026-04-25T12:38:07.999Z</time></trkpt><trkpt lat="40.673101315097696" lon="15.04267508586464"><ele>348.66666666666663</ele><time>2026-04-25T12:38:08.999Z</time></trkpt><trkpt lat="40.673177846043814" lon="15.042679412169045"><ele>342.8333333333333</ele><time>2026-04-25T12:38:09.999Z</time></trkpt><trkpt lat="40.67327104339057" lon="15.042723113175464"><ele>337.0</ele><time>2026-04-25T12:38:11.999Z</time></trkpt><trkpt lat="40.673329401795705" lon="15.042780214392959"><ele>337.0</ele><time>2026-04-25T12:38:12.999Z</time></trkpt><trkpt lat="40.67338465657406" lon="15.042851597867557"><ele>337.0</ele><time>2026-04-25T12:38:13.999Z</time></trkpt><trkpt lat="40.673440311693724" lon="15.042940824957356"><ele>337.0</ele><time>2026-04-25T12:38:14.999Z</time></trkpt><trkpt lat="40.673482200148754" lon="15.043029944552579"><ele>337.0</ele><time>2026-04-25T12:38:15.999Z</time></trkpt><trkpt lat="40.67361480375615" lon="15.043084773890568"><ele>337.0</ele><time>2026-04-25T12:38:17.999Z</time></trkpt><trkpt lat="40.6737030749428" lon="15.043089663596682"><ele>331.3333333333333</ele><time>2026-04-25T12:38:18.999Z</time></trkpt><trkpt lat="40.67379184543533" lon="15.04309079235818"><ele>325.66666666666663</ele><time>2026-04-25T12:38:19.999Z</time></trkpt><trkpt lat="40.67386887179021" lon="15.043094556646063"><ele>320.0</ele><time>2026-04-25T12:38:20.999Z</time></trkpt><trkpt lat="40.67395048420342" lon="15.043148655858207"><ele>314.3333333333333</ele><time>2026-04-25T12:38:21.999Z</time></trkpt><trkpt lat="40.67403463876919" lon="15.043173460243471"><ele>308.6666666666667</ele><time>2026-04-25T12:38:22.999Z</time></trkpt><trkpt lat="40.67410089700189" lon="15.043220374931407"><ele>303.0</ele><time>2026-04-25T12:38:23.999Z</time></trkpt><trkpt lat="40.67417631947688" lon="15.043283278542223"><ele>309.8</ele><time>2026-04-25T12:38:24.999Z</time></trkpt><trkpt lat="40.674243444654955" lon="15.043325343209624"><ele>316.6</ele><time>2026-04-25T12:38:25.999Z</time></trkpt><trkpt lat="40.67431586236858" lon="15.043348171366485"><ele>323.40000000000003</ele><time>2026-04-25T12:38:27.999Z</time></trkpt><trkpt lat="40.67431994612723" lon="15.043487507273754"><ele>330.20000000000005</ele><time>2026-04-25T12:38:29.999Z</time></trkpt><trkpt lat="40.67431428733493" lon="15.043589057887704"><ele>337.0</ele><time>2026-04-25T12:38:30.999Z</time></trkpt><trkpt lat="40.67433601619363" lon="15.043756639110999"><ele>337.0</ele><time>2026-04-25T12:38:32.999Z</time></trkpt><trkpt lat="40.6743750932818" lon="15.043850048957617"><ele>337.0</ele><time>2026-04-25T12:38:33.999Z</time></trkpt><trkpt lat="40.67439438594306" lon="15.043933271077483"><ele>337.0</ele><time>2026-04-25T12:38:34.999Z</time></trkpt><trkpt lat="40.67443245554997" lon="15.04401734313768"><ele>337.0</ele><time>2026-04-25T12:38:36.999Z</time></trkpt><trkpt lat="40.67451665593382" lon="15.04400383294867"><ele>337.0</ele><time>2026-04-25T12:38:38.999Z</time></trkpt><trkpt lat="40.67459798765796" lon="15.04397201079706"><ele>337.0</ele><time>2026-04-25T12:38:40.999Z</time></trkpt><trkpt lat="40.67465734509303" lon="15.043923790671892"><ele>332.16666666666663</ele><time>2026-04-25T12:38:41.999Z</time></trkpt><trkpt lat="40.674730228150565" lon="15.043851115579205"><ele>327.3333333333333</ele><time>2026-04-25T12:38:44Z</time></trkpt><trkpt lat="40.674792693176464" lon="15.04380873729894"><ele>322.5</ele><time>2026-04-25T12:38:46Z</time></trkpt><trkpt lat="40.67486408852962" lon="15.043825070383251"><ele>317.6666666666667</ele><time>2026-04-25T12:38:48Z</time></trkpt><trkpt lat="40.67493658469805" lon="15.04387391005209"><ele>312.83333333333337</ele><time>2026-04-25T12:38:50Z</time></trkpt><trkpt lat="40.67499540885202" lon="15.043919866580213"><ele>308.0</ele><time>2026-04-25T12:38:51Z</time></trkpt><trkpt lat="40.67507590447263" lon="15.043972754098634"><ele>308.0</ele><time>2026-04-25T12:38:52Z</time></trkpt><trkpt lat="40.675167811720854" lon="15.044005549298433"><ele>308.0</ele><time>2026-04-25T12:38:53Z</time></trkpt><trkpt lat="40.675237042415404" lon="15.044025436684992"><ele>308.0</ele><time>2026-04-25T12:38:54Z</time></trkpt><trkpt lat="40.67534074494454" lon="15.044072500744646"><ele>308.0</ele><time>2026-04-25T12:38:56Z</time></trkpt><trkpt lat="40.67540361319699" lon="15.044113013842598"><ele>308.0</ele><time>2026-04-25T12:38:57Z</time></trkpt><trkpt lat="40.67553210652841" lon="15.044168704049701"><ele>310.83333333333337</ele><time>2026-04-25T12:38:59Z</time></trkpt><trkpt lat="40.675605989303826" lon="15.044173023444968"><ele>313.6666666666667</ele><time>2026-04-25T12:39:00Z</time></trkpt><trkpt lat="40.675729462850406" lon="15.044183031853832"><ele>316.5</ele><time>2026-04-25T12:39:02Z</time></trkpt><trkpt lat="40.67582044251309" lon="15.04417510017483"><ele>319.3333333333333</ele><time>2026-04-25T12:39:03Z</time></trkpt><trkpt lat="40.675906349167064" lon="15.044176889900525"><ele>322.16666666666663</ele><time>2026-04-25T12:39:04Z</time></trkpt><trkpt lat="40.67597959951443" lon="15.044181004503557"><ele>325.0</ele><time>2026-04-25T12:39:05Z</time></trkpt><trkpt lat="40.67610367060716" lon="15.04417079720537"><ele>318.3333333333333</ele><time>2026-04-25T12:39:07Z</time></trkpt><trkpt lat="40.676189061489076" lon="15.044175583643979"><ele>311.66666666666663</ele><time>2026-04-25T12:39:08Z</time></trkpt><trkpt lat="40.67627946783954" lon="15.04418868644594"><ele>305.0</ele><time>2026-04-25T12:39:09Z</time></trkpt><trkpt lat="40.67635308447677" lon="15.044193653243326"><ele>298.3333333333333</ele><time>2026-04-25T12:39:10Z</time></trkpt><trkpt lat="40.67642780747096" lon="15.044224140441752"><ele>291.6666666666667</ele><time>2026-04-25T12:39:11Z</time></trkpt><trkpt lat="40.67651775993647" lon="15.044292314870319"><ele>285.0</ele><time>2026-04-25T12:39:12Z</time></trkpt><trkpt lat="40.676582933200336" lon="15.044328457384482"><ele>285.0</ele><time>2026-04-25T12:39:13Z</time></trkpt><trkpt lat="40.676654183062674" lon="15.044373344611857"><ele>285.0</ele><time>2026-04-25T12:39:15Z</time></trkpt><trkpt lat="40.67674916126898" lon="15.044471548218004"><ele>285.0</ele><time>2026-04-25T12:39:17Z</time></trkpt><trkpt lat="40.67682581139505" lon="15.04453963856877"><ele>285.0</ele><time>2026-04-25T12:39:19Z</time></trkpt><trkpt lat="40.67685839136798" lon="15.044458028586561"><ele>285.0</ele><time>2026-04-25T12:39:23Z</time></trkpt><trkpt lat="40.67682442022807" lon="15.044378726987803"><ele>285.0</ele><time>2026-04-25T12:39:26Z</time></trkpt><trkpt lat="40.676759914288205" lon="15.044289583754786"><ele>285.0</ele><time>2026-04-25T12:39:28Z</time></trkpt><trkpt lat="40.676688586650926" lon="15.044212180684568"><ele>285.0</ele><time>2026-04-25T12:39:31Z</time></trkpt><trkpt lat="40.676636932300006" lon="15.04414983087286"><ele>285.0</ele><time>2026-04-25T12:39:33Z</time></trkpt><trkpt lat="40.676595533768946" lon="15.044079899017841"><ele>285.0</ele><time>2026-04-25T12:39:35Z</time></trkpt><trkpt lat="40.6765796650419" lon="15.043990819698367"><ele>285.0</ele><time>2026-04-25T12:39:38Z</time></trkpt><trkpt lat="40.67649845953939" lon="15.043980141951783"><ele>285.0</ele><time>2026-04-25T12:39:42Z</time></trkpt><trkpt lat="40.676572076891574" lon="15.043992236969462"><ele>280.1666666666667</ele><time>2026-04-25T12:40:02Z</time></trkpt><trkpt lat="40.676639493895394" lon="15.04402735584225"><ele>275.3333333333333</ele><time>2026-04-25T12:40:04Z</time></trkpt><trkpt lat="40.67672722817695" lon="15.044072079172654"><ele>270.5</ele><time>2026-04-25T12:40:06Z</time></trkpt><trkpt lat="40.6768054219067" lon="15.044087975649832"><ele>265.66666666666663</ele><time>2026-04-25T12:40:07Z</time></trkpt><trkpt lat="40.676879252185564" lon="15.04409543285641"><ele>260.8333333333333</ele><time>2026-04-25T12:40:07.999Z</time></trkpt><trkpt lat="40.67694708677956" lon="15.044094756411935"><ele>256.0</ele><time>2026-04-25T12:40:08.999Z</time></trkpt><trkpt lat="40.67701250151885" lon="15.044084167853967"><ele>255.75</ele><time>2026-04-25T12:40:09.999Z</time></trkpt><trkpt lat="40.67710976436427" lon="15.044070924387738"><ele>255.5</ele><time>2026-04-25T12:40:11.999Z</time></trkpt><trkpt lat="40.677161422273144" lon="15.043794361799808"><ele>255.25</ele><time>2026-04-25T12:40:13.999Z</time></trkpt><trkpt lat="40.6770974858079" lon="15.043926583089975"><ele>255.0</ele><time>2026-04-25T12:40:18.999Z</time></trkpt><trkpt lat="40.67699135578196" lon="15.043874746725828"><ele>255.16666666666666</ele><time>2026-04-25T12:40:21.999Z</time></trkpt><trkpt lat="40.67688708736192" lon="15.0438139270766"><ele>255.33333333333331</ele><time>2026-04-25T12:40:23.999Z</time></trkpt><trkpt lat="40.67682996618528" lon="15.043745204619091"><ele>255.5</ele><time>2026-04-25T12:40:25.999Z</time></trkpt><trkpt lat="40.67677139257277" lon="15.043666614201776"><ele>255.66666666666666</ele><time>2026-04-25T12:40:28.999Z</time></trkpt><trkpt lat="40.67669838959698" lon="15.043615129024634"><ele>255.83333333333331</ele><time>2026-04-25T12:40:38.999Z</time></trkpt><trkpt lat="40.676630201412856" lon="15.043556078905207"><ele>256.0</ele><time>2026-04-25T12:40:40.999Z</time></trkpt><trkpt lat="40.67656624810022" lon="15.04350335568805"><ele>256.0</ele><time>2026-04-25T12:40:42.999Z</time></trkpt><trkpt lat="40.67647621572984" lon="15.043434959410748"><ele>256.0</ele><time>2026-04-25T12:40:44.999Z</time></trkpt><trkpt lat="40.67638626859462" lon="15.043429403887012"><ele>256.0</ele><time>2026-04-25T12:40:45.999Z</time></trkpt><trkpt lat="40.67629288469027" lon="15.04340943157561"><ele>256.0</ele><time>2026-04-25T12:40:46.999Z</time></trkpt><trkpt lat="40.676207984444666" lon="15.043402466812184"><ele>256.0</ele><time>2026-04-25T12:40:47.999Z</time></trkpt><trkpt lat="40.676131675729124" lon="15.04337619426406"><ele>255.0</ele><time>2026-04-25T12:40:48.999Z</time></trkpt><trkpt lat="40.67607228161064" lon="15.043313425563174"><ele>254.00000000000003</ele><time>2026-04-25T12:40:50Z</time></trkpt><trkpt lat="40.67599504795665" lon="15.043228373225551"><ele>253.00000000000003</ele><time>2026-04-25T12:40:51Z</time></trkpt><trkpt lat="40.67591880328185" lon="15.04313575584005"><ele>252.0</ele><time>2026-04-25T12:40:52Z</time></trkpt><trkpt lat="40.67583863834325" lon="15.043069339431366"><ele>251.0</ele><time>2026-04-25T12:40:53Z</time></trkpt><trkpt lat="40.67575114437798" lon="15.04301311318057"><ele>251.00000000000003</ele><time>2026-04-25T12:40:54Z</time></trkpt><trkpt lat="40.675653248873026" lon="15.042948281267556"><ele>251.0</ele><time>2026-04-25T12:40:55Z</time></trkpt><trkpt lat="40.67557155623624" lon="15.042876024109118"><ele>251.0</ele><time>2026-04-25T12:40:56Z</time></trkpt><trkpt lat="40.67550766357532" lon="15.042795901443741"><ele>251.0</ele><time>2026-04-25T12:40:57Z</time></trkpt><trkpt lat="40.675446016675146" lon="15.042735818726843"><ele>251.00000000000003</ele><time>2026-04-25T12:40:58Z</time></trkpt><trkpt lat="40.675390790622416" lon="15.042678128244122"><ele>251.0</ele><time>2026-04-25T12:40:59Z</time></trkpt><trkpt lat="40.67532904639938" lon="15.042644099969419"><ele>249.00000000000003</ele><time>2026-04-25T12:41:00Z</time></trkpt><trkpt lat="40.67526614600419" lon="15.042637906752152"><ele>247.0</ele><time>2026-04-25T12:41:01Z</time></trkpt><trkpt lat="40.67515546837017" lon="15.042704990459915"><ele>245.0</ele><time>2026-04-25T12:41:03Z</time></trkpt><trkpt lat="40.67506714064927" lon="15.042704031618984"><ele>243.0</ele><time>2026-04-25T12:41:05Z</time></trkpt><trkpt lat="40.675016069884194" lon="15.042591616800673"><ele>241.00000000000003</ele><time>2026-04-25T12:41:07Z</time></trkpt><trkpt lat="40.67503712671628" lon="15.042510439208517"><ele>239.0</ele><time>2026-04-25T12:41:09Z</time></trkpt><trkpt lat="40.67501316785675" lon="15.042345066036429"><ele>239.00000000000003</ele><time>2026-04-25T12:41:11Z</time></trkpt><trkpt lat="40.67497439771438" lon="15.042248953776554"><ele>239.0</ele><time>2026-04-25T12:41:12Z</time></trkpt><trkpt lat="40.67495877775422" lon="15.042162950880117"><ele>239.0</ele><time>2026-04-25T12:41:13Z</time></trkpt><trkpt lat="40.674920078419454" lon="15.0420949539221"><ele>239.0</ele><time>2026-04-25T12:41:14Z</time></trkpt><trkpt lat="40.67484943902755" lon="15.042034048857818"><ele>239.00000000000003</ele><time>2026-04-25T12:41:15Z</time></trkpt><trkpt lat="40.674773759526374" lon="15.04198024785939"><ele>239.0</ele><time>2026-04-25T12:41:16Z</time></trkpt><trkpt lat="40.674700219600346" lon="15.041951171664712"><ele>239.00000000000003</ele><time>2026-04-25T12:41:17Z</time></trkpt><trkpt lat="40.67463935782703" lon="15.041928622881294"><ele>239.0</ele><time>2026-04-25T12:41:18Z</time></trkpt><trkpt lat="40.674573154165415" lon="15.041903015819502"><ele>239.0</ele><time>2026-04-25T12:41:19Z</time></trkpt><trkpt lat="40.67449778738332" lon="15.04184663832051"><ele>239.0</ele><time>2026-04-25T12:41:20Z</time></trkpt><trkpt lat="40.674409072911175" lon="15.041804171358782"><ele>239.00000000000003</ele><time>2026-04-25T12:41:21Z</time></trkpt><trkpt lat="40.67433336872762" lon="15.041759080524177"><ele>239.0</ele><time>2026-04-25T12:41:22Z</time></trkpt><trkpt lat="40.67427384188935" lon="15.0417147930565"><ele>236.0</ele><time>2026-04-25T12:41:23Z</time></trkpt><trkpt lat="40.6741672842488" lon="15.041686503500664"><ele>232.99999999999997</ele><time>2026-04-25T12:41:25Z</time></trkpt><trkpt lat="40.67408512149774" lon="15.041633274490348"><ele>229.99999999999997</ele><time>2026-04-25T12:41:27Z</time></trkpt><trkpt lat="40.674039455529254" lon="15.041541688458139"><ele>227.0</ele><time>2026-04-25T12:41:29Z</time></trkpt><trkpt lat="40.67396012609228" lon="15.041458773905354"><ele>224.0</ele><time>2026-04-25T12:41:31Z</time></trkpt><trkpt lat="40.67386288047276" lon="15.041382205700915"><ele>224.0</ele><time>2026-04-25T12:41:33Z</time></trkpt><trkpt lat="40.673756843042256" lon="15.041340684182067"><ele>223.99999999999997</ele><time>2026-04-25T12:41:35Z</time></trkpt><trkpt lat="40.673715953737656" lon="15.041243520959037"><ele>223.99999999999997</ele><time>2026-04-25T12:41:37Z</time></trkpt><trkpt lat="40.67374483978565" lon="15.041134656552641"><ele>224.0</ele><time>2026-04-25T12:41:39Z</time></trkpt><trkpt lat="40.67375487358005" lon="15.04102378299007"><ele>224.0</ele><time>2026-04-25T12:41:41Z</time></trkpt><trkpt lat="40.67370391850782" lon="15.040918392895392"><ele>225.5</ele><time>2026-04-25T12:41:43Z</time></trkpt><trkpt lat="40.6735900022979" lon="15.040775757374531"><ele>227.0</ele><time>2026-04-25T12:41:45Z</time></trkpt><trkpt lat="40.67353834114667" lon="15.040663952823149"><ele>228.5</ele><time>2026-04-25T12:41:46Z</time></trkpt><trkpt lat="40.67348231146201" lon="15.040554061700474"><ele>230.0</ele><time>2026-04-25T12:41:47Z</time></trkpt><trkpt lat="40.67341407483405" lon="15.04044764670658"><ele>230.00000000000003</ele><time>2026-04-25T12:41:48Z</time></trkpt><trkpt lat="40.673365296718345" lon="15.040331162116944"><ele>230.0</ele><time>2026-04-25T12:41:49Z</time></trkpt><trkpt lat="40.67332057373057" lon="15.040237130393724"><ele>230.0</ele><time>2026-04-25T12:41:50Z</time></trkpt><trkpt lat="40.67326766090643" lon="15.040169697845974"><ele>230.0</ele><time>2026-04-25T12:41:51Z</time></trkpt><trkpt lat="40.67320509917622" lon="15.040113330579993"><ele>230.00000000000003</ele><time>2026-04-25T12:41:52Z</time></trkpt><trkpt lat="40.67314145381739" lon="15.04005851818364"><ele>230.0</ele><time>2026-04-25T12:41:53Z</time></trkpt><trkpt lat="40.67307189784834" lon="15.040017020918388"><ele>230.00000000000003</ele><time>2026-04-25T12:41:54Z</time></trkpt><trkpt lat="40.673016193636464" lon="15.039973827627666"><ele>230.0</ele><time>2026-04-25T12:41:55Z</time></trkpt><trkpt lat="40.67293201312578" lon="15.039855433884181"><ele>230.0</ele><time>2026-04-25T12:41:57Z</time></trkpt><trkpt lat="40.67293708670433" lon="15.03975312380904"><ele>230.0</ele><time>2026-04-25T12:41:58Z</time></trkpt><trkpt lat="40.67289473334996" lon="15.039666851355694"><ele>230.00000000000003</ele><time>2026-04-25T12:42:00Z</time></trkpt><trkpt lat="40.672834421481454" lon="15.039606337031154"><ele>230.0</ele><time>2026-04-25T12:42:03Z</time></trkpt><trkpt lat="40.672735151262664" lon="15.03953177123277"><ele>229.0</ele><time>2026-04-25T12:42:09Z</time></trkpt><trkpt lat="40.672629364278116" lon="15.039469109977427"><ele>228.0</ele><time>2026-04-25T12:42:11Z</time></trkpt><trkpt lat="40.672545755610926" lon="15.039467855388713"><ele>227.0</ele><time>2026-04-25T12:42:12Z</time></trkpt><trkpt lat="40.672472064339495" lon="15.039418521155095"><ele>226.0</ele><time>2026-04-25T12:42:13Z</time></trkpt><trkpt lat="40.67237842652922" lon="15.039347436365782"><ele>225.0</ele><time>2026-04-25T12:42:15Z</time></trkpt><trkpt lat="40.67229235058396" lon="15.039270202621"><ele>225.0</ele><time>2026-04-25T12:42:17Z</time></trkpt><trkpt lat="40.67224089699168" lon="15.039220781107842"><ele>225.0</ele><time>2026-04-25T12:42:18Z</time></trkpt><trkpt lat="40.672177405669274" lon="15.039173288080997"><ele>225.0</ele><time>2026-04-25T12:42:19Z</time></trkpt><trkpt lat="40.67211703126413" lon="15.039138712168855"><ele>225.0</ele><time>2026-04-25T12:42:20Z</time></trkpt><trkpt lat="40.6719958663047" lon="15.039091907125536"><ele>225.0</ele><time>2026-04-25T12:42:22Z</time></trkpt><trkpt lat="40.67190919033793" lon="15.039082484709487"><ele>225.0</ele><time>2026-04-25T12:42:23Z</time></trkpt><trkpt lat="40.67182499720026" lon="15.03906207217524"><ele>222.83333333333334</ele><time>2026-04-25T12:42:24Z</time></trkpt><trkpt lat="40.67174418100316" lon="15.039038587541274"><ele>220.66666666666669</ele><time>2026-04-25T12:42:25Z</time></trkpt><trkpt lat="40.67166594373282" lon="15.039011916436001"><ele>218.5</ele><time>2026-04-25T12:42:26Z</time></trkpt><trkpt lat="40.67158881969477" lon="15.039012257239929"><ele>216.33333333333334</ele><time>2026-04-25T12:42:27Z</time></trkpt><trkpt lat="40.67151143443782" lon="15.039013788799858"><ele>214.16666666666669</ele><time>2026-04-25T12:42:28Z</time></trkpt><trkpt lat="40.67142242062316" lon="15.039021912527186"><ele>212.0</ele><time>2026-04-25T12:42:29Z</time></trkpt><trkpt lat="40.6713286051247" lon="15.0390418355822"><ele>212.0</ele><time>2026-04-25T12:42:30Z</time></trkpt><trkpt lat="40.67123302103528" lon="15.039071064592271"><ele>212.0</ele><time>2026-04-25T12:42:31Z</time></trkpt><trkpt lat="40.67114617497869" lon="15.039126236367276"><ele>212.0</ele><time>2026-04-25T12:42:32Z</time></trkpt><trkpt lat="40.67105923972455" lon="15.039175284403692"><ele>212.0</ele><time>2026-04-25T12:42:33Z</time></trkpt><trkpt lat="40.67095110410311" lon="15.03922189642916"><ele>212.0</ele><time>2026-04-25T12:42:34Z</time></trkpt><trkpt lat="40.67087602530686" lon="15.039249583896064"><ele>216.2</ele><time>2026-04-25T12:42:34.999Z</time></trkpt><trkpt lat="40.6707788236016" lon="15.039270224513889"><ele>220.39999999999998</ele><time>2026-04-25T12:42:35.999Z</time></trkpt><trkpt lat="40.670676327569275" lon="15.039264042118152"><ele>224.60000000000002</ele><time>2026-04-25T12:42:36.999Z</time></trkpt><trkpt lat="40.67057970561593" lon="15.039238814492588"><ele>228.8</ele><time>2026-04-25T12:42:37.999Z</time></trkpt><trkpt lat="40.670497071910226" lon="15.039194487038342"><ele>233.0</ele><time>2026-04-25T12:42:38.999Z</time></trkpt><trkpt lat="40.67044190941777" lon="15.039139926854773"><ele>232.83333333333334</ele><time>2026-04-25T12:42:39.999Z</time></trkpt><trkpt lat="40.67037650899228" lon="15.03912248029042"><ele>232.66666666666669</ele><time>2026-04-25T12:42:40.999Z</time></trkpt><trkpt lat="40.67031673053408" lon="15.039033449125586"><ele>232.5</ele><time>2026-04-25T12:42:42.999Z</time></trkpt><trkpt lat="40.67026089223645" lon="15.038936237077728"><ele>232.33333333333331</ele><time>2026-04-25T12:42:44.999Z</time></trkpt><trkpt lat="40.670221001661616" lon="15.038844540429274"><ele>232.16666666666666</ele><time>2026-04-25T12:42:45.999Z</time></trkpt><trkpt lat="40.67017416830334" lon="15.038762302212819"><ele>232.0</ele><time>2026-04-25T12:42:46.999Z</time></trkpt><trkpt lat="40.670171335180115" lon="15.038676089790476"><ele>232.0</ele><time>2026-04-25T12:42:47.999Z</time></trkpt><trkpt lat="40.670137743880105" lon="15.038600764896648"><ele>232.0</ele><time>2026-04-25T12:42:48.999Z</time></trkpt><trkpt lat="40.670076726159074" lon="15.038504881782833"><ele>232.0</ele><time>2026-04-25T12:42:50.999Z</time></trkpt><trkpt lat="40.67001254167541" lon="15.038435688165144"><ele>232.0</ele><time>2026-04-25T12:42:51.999Z</time></trkpt><trkpt lat="40.669901911510934" lon="15.03837674150779"><ele>232.0</ele><time>2026-04-25T12:42:53.999Z</time></trkpt><trkpt lat="40.66981888249467" lon="15.038346032430685"><ele>232.0</ele><time>2026-04-25T12:42:54.999Z</time></trkpt><trkpt lat="40.66972644440111" lon="15.038328165352135"><ele>232.0</ele><time>2026-04-25T12:42:56Z</time></trkpt><trkpt lat="40.66963319585604" lon="15.038317279247527"><ele>232.0</ele><time>2026-04-25T12:42:57Z</time></trkpt><trkpt lat="40.66954039263886" lon="15.03830456404794"><ele>232.0</ele><time>2026-04-25T12:42:58Z</time></trkpt><trkpt lat="40.669460836302044" lon="15.038290763682987"><ele>232.0</ele><time>2026-04-25T12:42:59Z</time></trkpt><trkpt lat="40.66932745718439" lon="15.038252113415453"><ele>232.49999999999997</ele><time>2026-04-25T12:43:01Z</time></trkpt><trkpt lat="40.66924552259946" lon="15.038251829578787"><ele>233.0</ele><time>2026-04-25T12:43:02Z</time></trkpt><trkpt lat="40.669177455226674" lon="15.03824929435673"><ele>233.5</ele><time>2026-04-25T12:43:03Z</time></trkpt><trkpt lat="40.669080110476166" lon="15.038231851077887"><ele>234.0</ele><time>2026-04-25T12:43:05Z</time></trkpt><trkpt lat="40.66897673331002" lon="15.038229338437901"><ele>234.49999999999997</ele><time>2026-04-25T12:43:07Z</time></trkpt><trkpt lat="40.66890742016257" lon="15.038269891398047"><ele>235.0</ele><time>2026-04-25T12:43:08Z</time></trkpt><trkpt lat="40.668845644605184" lon="15.038315289677268"><ele>235.0</ele><time>2026-04-25T12:43:09Z</time></trkpt><trkpt lat="40.66876838901617" lon="15.038339072211135"><ele>235.0</ele><time>2026-04-25T12:43:11Z</time></trkpt><trkpt lat="40.668735485341124" lon="15.038263906231016"><ele>235.0</ele><time>2026-04-25T12:43:12Z</time></trkpt><trkpt lat="40.6687660499984" lon="15.038126524414073"><ele>235.0</ele><time>2026-04-25T12:43:13Z</time></trkpt><trkpt lat="40.66873257246531" lon="15.038002145182727"><ele>235.0</ele><time>2026-04-25T12:43:14Z</time></trkpt><trkpt lat="40.66867052599608" lon="15.037885511378407"><ele>230.16666666666666</ele><time>2026-04-25T12:43:16Z</time></trkpt><trkpt lat="40.668588830061" lon="15.037849322332564"><ele>225.33333333333331</ele><time>2026-04-25T12:43:17Z</time></trkpt><trkpt lat="40.66853793396521" lon="15.037787676013137"><ele>220.5</ele><time>2026-04-25T12:43:18Z</time></trkpt><trkpt lat="40.66847436416483" lon="15.03774851181909"><ele>215.66666666666669</ele><time>2026-04-25T12:43:19Z</time></trkpt><trkpt lat="40.66841686041183" lon="15.037704447107103"><ele>210.83333333333334</ele><time>2026-04-25T12:43:20Z</time></trkpt><trkpt lat="40.66834330611336" lon="15.037688474900795"><ele>206.0</ele><time>2026-04-25T12:43:21Z</time></trkpt><trkpt lat="40.66826124502407" lon="15.037645177180174"><ele>206.00000000000003</ele><time>2026-04-25T12:43:22Z</time></trkpt><trkpt lat="40.66817371421042" lon="15.037629151648515"><ele>206.0</ele><time>2026-04-25T12:43:23Z</time></trkpt><trkpt lat="40.66807216669488" lon="15.037643148901171"><ele>206.0</ele><time>2026-04-25T12:43:24Z</time></trkpt><trkpt lat="40.66799499118925" lon="15.037616310103873"><ele>206.0</ele><time>2026-04-25T12:43:25Z</time></trkpt><trkpt lat="40.667927282346234" lon="15.037604631235956"><ele>206.00000000000003</ele><time>2026-04-25T12:43:26Z</time></trkpt><trkpt lat="40.66786431215325" lon="15.037600328263718"><ele>206.0</ele><time>2026-04-25T12:43:27Z</time></trkpt><trkpt lat="40.66777333482535" lon="15.037587465787002"><ele>205.50000000000003</ele><time>2026-04-25T12:43:28Z</time></trkpt><trkpt lat="40.667689277858635" lon="15.03759510447757"><ele>205.0</ele><time>2026-04-25T12:43:29Z</time></trkpt><trkpt lat="40.667620024967455" lon="15.037635864169152"><ele>204.5</ele><time>2026-04-25T12:43:30Z</time></trkpt><trkpt lat="40.66754166871957" lon="15.037646454109451"><ele>204.0</ele><time>2026-04-25T12:43:31Z</time></trkpt><trkpt lat="40.667455876463634" lon="15.037634887687494"><ele>203.50000000000003</ele><time>2026-04-25T12:43:33Z</time></trkpt><trkpt lat="40.66739397372979" lon="15.037535807486405"><ele>203.0</ele><time>2026-04-25T12:43:34Z</time></trkpt><trkpt lat="40.667361865581434" lon="15.037396160338984"><ele>203.0</ele><time>2026-04-25T12:43:35Z</time></trkpt><trkpt lat="40.667304263550726" lon="15.03730280146737"><ele>203.0</ele><time>2026-04-25T12:43:36Z</time></trkpt><trkpt lat="40.667247057283554" lon="15.037249132375283"><ele>203.0</ele><time>2026-04-25T12:43:37Z</time></trkpt><trkpt lat="40.667110567099776" lon="15.037273318342155"><ele>203.0</ele><time>2026-04-25T12:43:39Z</time></trkpt><trkpt lat="40.66700677098089" lon="15.037274672019509"><ele>203.0</ele><time>2026-04-25T12:43:40Z</time></trkpt><trkpt lat="40.666887987521136" lon="15.037294420193755"><ele>202.0</ele><time>2026-04-25T12:43:41Z</time></trkpt><trkpt lat="40.66675587615869" lon="15.03731092352767"><ele>201.0</ele><time>2026-04-25T12:43:42Z</time></trkpt><trkpt lat="40.66664584352249" lon="15.03731586603556"><ele>200.0</ele><time>2026-04-25T12:43:43Z</time></trkpt><trkpt lat="40.66658114725367" lon="15.037318772094235"><ele>199.0</ele><time>2026-04-25T12:43:44Z</time></trkpt><trkpt lat="40.666499423846766" lon="15.037327965921927"><ele>198.0</ele><time>2026-04-25T12:43:45Z</time></trkpt><trkpt lat="40.666397952918786" lon="15.037348355387676"><ele>198.0</ele><time>2026-04-25T12:43:46Z</time></trkpt><trkpt lat="40.66626621596672" lon="15.037340475490838"><ele>198.0</ele><time>2026-04-25T12:43:48Z</time></trkpt><trkpt lat="40.666194877609" lon="15.037292711631345"><ele>198.0</ele><time>2026-04-25T12:43:49Z</time></trkpt><trkpt lat="40.666195901187464" lon="15.037127906565527"><ele>198.0</ele><time>2026-04-25T12:43:50Z</time></trkpt><trkpt lat="40.66623702772595" lon="15.03704494747468"><ele>198.0</ele><time>2026-04-25T12:43:51Z</time></trkpt><trkpt lat="40.6662391212495" lon="15.036930815355595"><ele>198.0</ele><time>2026-04-25T12:43:52Z</time></trkpt><trkpt lat="40.66623326574279" lon="15.0368142709378"><ele>198.0</ele><time>2026-04-25T12:43:53Z</time></trkpt><trkpt lat="40.666154723746935" lon="15.036740267354856"><ele>198.0</ele><time>2026-04-25T12:43:55Z</time></trkpt><trkpt lat="40.66607989756593" lon="15.036761251626881"><ele>198.0</ele><time>2026-04-25T12:43:56Z</time></trkpt><trkpt lat="40.66599275713861" lon="15.036806379209418"><ele>198.0</ele><time>2026-04-25T12:43:57Z</time></trkpt><trkpt lat="40.66590497780632" lon="15.036825669299095"><ele>198.0</ele><time>2026-04-25T12:43:58Z</time></trkpt><trkpt lat="40.66581751818688" lon="15.036843059970959"><ele>197.4</ele><time>2026-04-25T12:43:59Z</time></trkpt><trkpt lat="40.665754827827456" lon="15.036692628390021"><ele>196.8</ele><time>2026-04-25T12:44:00Z</time></trkpt><trkpt lat="40.66563288552525" lon="15.03659047922498"><ele>196.2</ele><time>2026-04-25T12:44:02Z</time></trkpt><trkpt lat="40.665566973747715" lon="15.036579701175251"><ele>195.6</ele><time>2026-04-25T12:44:03Z</time></trkpt><trkpt lat="40.66547741341298" lon="15.036547962142526"><ele>195.0</ele><time>2026-04-25T12:44:04Z</time></trkpt><trkpt lat="40.665397572996035" lon="15.036526053584053"><ele>195.0</ele><time>2026-04-25T12:44:05Z</time></trkpt><trkpt lat="40.66531640929812" lon="15.03647359445902"><ele>195.0</ele><time>2026-04-25T12:44:06Z</time></trkpt><trkpt lat="40.6651903255365" lon="15.036468351943794"><ele>195.0</ele><time>2026-04-25T12:44:07Z</time></trkpt><trkpt lat="40.665091159835875" lon="15.036433103987417"><ele>195.0</ele><time>2026-04-25T12:44:08Z</time></trkpt><trkpt lat="40.66500096359193" lon="15.036371917221315"><ele>195.0</ele><time>2026-04-25T12:44:09Z</time></trkpt><trkpt lat="40.66492868154395" lon="15.036347520299742"><ele>196.33333333333334</ele><time>2026-04-25T12:44:10Z</time></trkpt><trkpt lat="40.664866887789465" lon="15.036325576218628"><ele>197.66666666666669</ele><time>2026-04-25T12:44:11Z</time></trkpt><trkpt lat="40.66480283482048" lon="15.03629880075419"><ele>199.0</ele><time>2026-04-25T12:44:12Z</time></trkpt><trkpt lat="40.66470577880425" lon="15.036254535073104"><ele>200.33333333333334</ele><time>2026-04-25T12:44:14Z</time></trkpt><trkpt lat="40.66465125588584" lon="15.036316593220091"><ele>201.66666666666669</ele><time>2026-04-25T12:44:15Z</time></trkpt><trkpt lat="40.66458097916194" lon="15.03641467611655"><ele>203.0</ele><time>2026-04-25T12:44:17Z</time></trkpt><trkpt lat="40.6644884222568" lon="15.036465873574155"><ele>202.00000000000003</ele><time>2026-04-25T12:44:20Z</time></trkpt><trkpt lat="40.664404232052455" lon="15.036491944102854"><ele>201.0</ele><time>2026-04-25T12:44:21Z</time></trkpt><trkpt lat="40.66434440304475" lon="15.036444908156556"><ele>200.0</ele><time>2026-04-25T12:44:22Z</time></trkpt><trkpt lat="40.66428608774794" lon="15.036383192106372"><ele>199.0</ele><time>2026-04-25T12:44:23Z</time></trkpt><trkpt lat="40.66422837730409" lon="15.036308323480124"><ele>198.00000000000003</ele><time>2026-04-25T12:44:24Z</time></trkpt><trkpt lat="40.66416891157668" lon="15.036251694919361"><ele>197.0</ele><time>2026-04-25T12:44:25Z</time></trkpt><trkpt lat="40.664032540544774" lon="15.036181981771861"><ele>197.00000000000003</ele><time>2026-04-25T12:44:27Z</time></trkpt><trkpt lat="40.66395436122725" lon="15.036156400056214"><ele>197.0</ele><time>2026-04-25T12:44:28Z</time></trkpt><trkpt lat="40.663879316295024" lon="15.03611087582121"><ele>197.0</ele><time>2026-04-25T12:44:29Z</time></trkpt><trkpt lat="40.66379832971216" lon="15.036082040046297"><ele>197.0</ele><time>2026-04-25T12:44:30Z</time></trkpt><trkpt lat="40.66373418353816" lon="15.036049266350387"><ele>197.00000000000003</ele><time>2026-04-25T12:44:31Z</time></trkpt><trkpt lat="40.66363153427744" lon="15.036032094319845"><ele>197.0</ele><time>2026-04-25T12:44:33Z</time></trkpt><trkpt lat="40.66355509571563" lon="15.036057875598543"><ele>195.83333333333334</ele><time>2026-04-25T12:44:35Z</time></trkpt><trkpt lat="40.66350426019502" lon="15.036113937512495"><ele>194.66666666666669</ele><time>2026-04-25T12:44:36Z</time></trkpt><trkpt lat="40.663450191767595" lon="15.036211854324641"><ele>193.5</ele><time>2026-04-25T12:44:37Z</time></trkpt><trkpt lat="40.663388575099404" lon="15.036311708009228"><ele>192.33333333333334</ele><time>2026-04-25T12:44:38Z</time></trkpt><trkpt lat="40.663331190415384" lon="15.036412747986986"><ele>191.16666666666669</ele><time>2026-04-25T12:44:39Z</time></trkpt><trkpt lat="40.66328423841007" lon="15.036479571604406"><ele>190.0</ele><time>2026-04-25T12:44:40Z</time></trkpt><trkpt lat="40.663236960687655" lon="15.036556752325161"><ele>190.0</ele><time>2026-04-25T12:44:42Z</time></trkpt><trkpt lat="40.66315987871243" lon="15.036542096010036"><ele>190.0</ele><time>2026-04-25T12:44:44Z</time></trkpt><trkpt lat="40.66310842912294" lon="15.036413979858152"><ele>190.0</ele><time>2026-04-25T12:44:46Z</time></trkpt><trkpt lat="40.66310172333994" lon="15.036320044595797"><ele>190.0</ele><time>2026-04-25T12:44:47Z</time></trkpt><trkpt lat="40.66310058050784" lon="15.03622411464161"><ele>190.0</ele><time>2026-04-25T12:44:48Z</time></trkpt><trkpt lat="40.663107528019616" lon="15.036105723863772"><ele>190.0</ele><time>2026-04-25T12:44:49Z</time></trkpt><trkpt lat="40.66307124243993" lon="15.035997344873627"><ele>190.0</ele><time>2026-04-25T12:44:50Z</time></trkpt><trkpt lat="40.66303882955996" lon="15.035909126219476"><ele>190.0</ele><time>2026-04-25T12:44:51Z</time></trkpt><trkpt lat="40.66297257746319" lon="15.035788700078365"><ele>190.0</ele><time>2026-04-25T12:44:53Z</time></trkpt><trkpt lat="40.662892839953194" lon="15.035739799630678"><ele>190.0</ele><time>2026-04-25T12:44:54Z</time></trkpt><trkpt lat="40.66281581187609" lon="15.035731063711584"><ele>190.0</ele><time>2026-04-25T12:44:55Z</time></trkpt><trkpt lat="40.66274080055363" lon="15.03571936996956"><ele>190.0</ele><time>2026-04-25T12:44:56Z</time></trkpt><trkpt lat="40.66263456241078" lon="15.035712969244162"><ele>187.6</ele><time>2026-04-25T12:44:57Z</time></trkpt><trkpt lat="40.66254963957771" lon="15.035688639186638"><ele>185.2</ele><time>2026-04-25T12:44:57.999Z</time></trkpt><trkpt lat="40.6624240222457" lon="15.03564428263679"><ele>182.8</ele><time>2026-04-25T12:44:59.999Z</time></trkpt><trkpt lat="40.66234660737893" lon="15.03556364076059"><ele>180.4</ele><time>2026-04-25T12:45:00.999Z</time></trkpt><trkpt lat="40.66228499581916" lon="15.035520523615428"><ele>178.0</ele><time>2026-04-25T12:45:02Z</time></trkpt><trkpt lat="40.66220287935287" lon="15.035498408075274"><ele>178.0</ele><time>2026-04-25T12:45:03Z</time></trkpt><trkpt lat="40.66211856185334" lon="15.035497255765582"><ele>178.0</ele><time>2026-04-25T12:45:04Z</time></trkpt><trkpt lat="40.66201519785557" lon="15.035483189308579"><ele>178.0</ele><time>2026-04-25T12:45:05Z</time></trkpt><trkpt lat="40.66191774614575" lon="15.035468554569805"><ele>178.0</ele><time>2026-04-25T12:45:06Z</time></trkpt><trkpt lat="40.661815546760224" lon="15.035458323124256"><ele>178.0</ele><time>2026-04-25T12:45:07Z</time></trkpt><trkpt lat="40.661720442323656" lon="15.035450219771208"><ele>178.5</ele><time>2026-04-25T12:45:08Z</time></trkpt><trkpt lat="40.66162107308645" lon="15.03543739205419"><ele>179.0</ele><time>2026-04-25T12:45:09Z</time></trkpt><trkpt lat="40.66152492781727" lon="15.035405209757574"><ele>179.5</ele><time>2026-04-25T12:45:10Z</time></trkpt><trkpt lat="40.661439412480654" lon="15.035356335320188"><ele>180.0</ele><time>2026-04-25T12:45:11Z</time></trkpt><trkpt lat="40.661366311409715" lon="15.035307828746344"><ele>180.5</ele><time>2026-04-25T12:45:12Z</time></trkpt><trkpt lat="40.66131026303786" lon="15.035258266560056"><ele>181.0</ele><time>2026-04-25T12:45:13Z</time></trkpt><trkpt lat="40.661240013875776" lon="15.035147921434621"><ele>181.0</ele><time>2026-04-25T12:45:15Z</time></trkpt><trkpt lat="40.66119144543255" lon="15.035082059309635"><ele>181.0</ele><time>2026-04-25T12:45:16Z</time></trkpt><trkpt lat="40.66114057284982" lon="15.034988301612074"><ele>181.0</ele><time>2026-04-25T12:45:17Z</time></trkpt><trkpt lat="40.66108280727114" lon="15.034914131927128"><ele>181.0</ele><time>2026-04-25T12:45:18Z</time></trkpt><trkpt lat="40.661057458972614" lon="15.034762149594368"><ele>181.0</ele><time>2026-04-25T12:45:20Z</time></trkpt><trkpt lat="40.66102514590459" lon="15.03467945270258"><ele>181.0</ele><time>2026-04-25T12:45:21Z</time></trkpt><trkpt lat="40.660952435323544" lon="15.03458409020807"><ele>179.20000000000002</ele><time>2026-04-25T12:45:23Z</time></trkpt><trkpt lat="40.660838702360515" lon="15.034679114399072"><ele>177.4</ele><time>2026-04-25T12:45:25Z</time></trkpt><trkpt lat="40.66078042739384" lon="15.034726841824412"><ele>175.6</ele><time>2026-04-25T12:45:26Z</time></trkpt><trkpt lat="40.6607117298589" lon="15.03473298334422"><ele>173.8</ele><time>2026-04-25T12:45:28Z</time></trkpt><trkpt lat="40.66069015409025" lon="15.034596866064685"><ele>172.0</ele><time>2026-04-25T12:45:30Z</time></trkpt><trkpt lat="40.66068212889466" lon="15.034456951196125"><ele>172.0</ele><time>2026-04-25T12:45:31Z</time></trkpt><trkpt lat="40.660675435228605" lon="15.03433595957144"><ele>172.0</ele><time>2026-04-25T12:45:33Z</time></trkpt><trkpt lat="40.66075783510207" lon="15.034271164964927"><ele>172.0</ele><time>2026-04-25T12:45:34Z</time></trkpt><trkpt lat="40.66078944234929" lon="15.03417285493818"><ele>172.0</ele><time>2026-04-25T12:45:36Z</time></trkpt><trkpt lat="40.66075876959487" lon="15.03407728704573"><ele>172.0</ele><time>2026-04-25T12:45:37Z</time></trkpt><trkpt lat="40.660706900746916" lon="15.03401813208656"><ele>172.0</ele><time>2026-04-25T12:45:38Z</time></trkpt><trkpt lat="40.6606485629721" lon="15.033945865531983"><ele>171.2</ele><time>2026-04-25T12:45:39Z</time></trkpt><trkpt lat="40.66056566831324" lon="15.03386313175696"><ele>170.39999999999998</ele><time>2026-04-25T12:45:40Z</time></trkpt><trkpt lat="40.66048753598814" lon="15.03378423085795"><ele>169.60000000000002</ele><time>2026-04-25T12:45:41Z</time></trkpt><trkpt lat="40.6604278332863" lon="15.03368687437356"><ele>168.8</ele><time>2026-04-25T12:45:42Z</time></trkpt><trkpt lat="40.66036501388319" lon="15.033590678961557"><ele>168.0</ele><time>2026-04-25T12:45:43Z</time></trkpt><trkpt lat="40.66030263370636" lon="15.033501134949574"><ele>167.2</ele><time>2026-04-25T12:45:44Z</time></trkpt><trkpt lat="40.66023547146174" lon="15.033416389549858"><ele>166.4</ele><time>2026-04-25T12:45:45Z</time></trkpt><trkpt lat="40.66017122901198" lon="15.033327537360776"><ele>165.6</ele><time>2026-04-25T12:45:46Z</time></trkpt><trkpt lat="40.66009821005177" lon="15.033218341146494"><ele>164.79999999999998</ele><time>2026-04-25T12:45:47Z</time></trkpt><trkpt lat="40.660024812139554" lon="15.033110974677705"><ele>164.0</ele><time>2026-04-25T12:45:48Z</time></trkpt><trkpt lat="40.65994808631897" lon="15.032992292558461"><ele>164.0</ele><time>2026-04-25T12:45:49Z</time></trkpt><trkpt lat="40.659870567324845" lon="15.0328656575513"><ele>164.0</ele><time>2026-04-25T12:45:50Z</time></trkpt><trkpt lat="40.6598077837144" lon="15.032748494814996"><ele>164.0</ele><time>2026-04-25T12:45:51Z</time></trkpt><trkpt lat="40.65973914073865" lon="15.032658573239917"><ele>164.0</ele><time>2026-04-25T12:45:52Z</time></trkpt><trkpt lat="40.65965180573747" lon="15.032564067036331"><ele>164.0</ele><time>2026-04-25T12:45:53Z</time></trkpt><trkpt lat="40.65954555990118" lon="15.032473023954797"><ele>163.5</ele><time>2026-04-25T12:45:54Z</time></trkpt><trkpt lat="40.65942812941301" lon="15.032399634671364"><ele>163.0</ele><time>2026-04-25T12:45:55Z</time></trkpt><trkpt lat="40.65932146624541" lon="15.03232947814278"><ele>162.5</ele><time>2026-04-25T12:45:56Z</time></trkpt><trkpt lat="40.65921644497532" lon="15.032236543986887"><ele>162.0</ele><time>2026-04-25T12:45:57Z</time></trkpt><trkpt lat="40.65908084395383" lon="15.032145178977254"><ele>162.0</ele><time>2026-04-25T12:45:58Z</time></trkpt><trkpt lat="40.65893537381361" lon="15.032064457623461"><ele>162.0</ele><time>2026-04-25T12:45:59Z</time></trkpt><trkpt lat="40.658811018591166" lon="15.031974757077291"><ele>162.0</ele><time>2026-04-25T12:46:00Z</time></trkpt><trkpt lat="40.65869759075787" lon="15.031892931822576"><ele>162.0</ele><time>2026-04-25T12:46:01Z</time></trkpt><trkpt lat="40.65859695639286" lon="15.031803927171511"><ele>163.16666666666666</ele><time>2026-04-25T12:46:02Z</time></trkpt><trkpt lat="40.65852060676952" lon="15.031696308399846"><ele>164.33333333333334</ele><time>2026-04-25T12:46:03Z</time></trkpt><trkpt lat="40.658439976349996" lon="15.031610795702175"><ele>165.5</ele><time>2026-04-25T12:46:04Z</time></trkpt><trkpt lat="40.65837337730582" lon="15.031552674965319"><ele>166.66666666666669</ele><time>2026-04-25T12:46:05Z</time></trkpt><trkpt lat="40.65835938055118" lon="15.031461103681188"><ele>167.83333333333334</ele><time>2026-04-25T12:46:06Z</time></trkpt><trkpt lat="40.65832194900648" lon="15.03137167199575"><ele>169.0</ele><time>2026-04-25T12:46:07Z</time></trkpt><trkpt lat="40.65829258326648" lon="15.031255846360255"><ele>169.0</ele><time>2026-04-25T12:46:08Z</time></trkpt><trkpt lat="40.6582714677153" lon="15.031144458720933"><ele>169.0</ele><time>2026-04-25T12:46:09Z</time></trkpt><trkpt lat="40.65824492540233" lon="15.0310339610137"><ele>169.0</ele><time>2026-04-25T12:46:10Z</time></trkpt><trkpt lat="40.65821418133612" lon="15.030909983216"><ele>169.0</ele><time>2026-04-25T12:46:11Z</time></trkpt><trkpt lat="40.65820358006009" lon="15.030796873337207"><ele>169.0</ele><time>2026-04-25T12:46:12Z</time></trkpt><trkpt lat="40.65818357755889" lon="15.030711813975314"><ele>169.0</ele><time>2026-04-25T12:46:13Z</time></trkpt><trkpt lat="40.65809950242504" lon="15.030588829432991"><ele>168.79999999999998</ele><time>2026-04-25T12:46:15Z</time></trkpt><trkpt lat="40.65801847678323" lon="15.030534294016435"><ele>168.6</ele><time>2026-04-25T12:46:16Z</time></trkpt><trkpt lat="40.65793029210261" lon="15.030488831258197"><ele>168.4</ele><time>2026-04-25T12:46:17Z</time></trkpt><trkpt lat="40.65785244186826" lon="15.03043547663768"><ele>168.2</ele><time>2026-04-25T12:46:18Z</time></trkpt><trkpt lat="40.657778954538244" lon="15.030356748438171"><ele>168.0</ele><time>2026-04-25T12:46:19Z</time></trkpt><trkpt lat="40.65770706129459" lon="15.030269088008268"><ele>168.0</ele><time>2026-04-25T12:46:20Z</time></trkpt><trkpt lat="40.657638602956474" lon="15.030177762909808"><ele>168.0</ele><time>2026-04-25T12:46:21Z</time></trkpt><trkpt lat="40.65757524774895" lon="15.03008392795496"><ele>168.0</ele><time>2026-04-25T12:46:22Z</time></trkpt><trkpt lat="40.65752581500149" lon="15.029984380609076"><ele>168.0</ele><time>2026-04-25T12:46:23Z</time></trkpt><trkpt lat="40.65749815128128" lon="15.029880796352124"><ele>168.0</ele><time>2026-04-25T12:46:24Z</time></trkpt><trkpt lat="40.65752555912379" lon="15.029786513287354"><ele>168.0</ele><time>2026-04-25T12:46:25Z</time></trkpt><trkpt lat="40.657584558614545" lon="15.029674196561587"><ele>165.0</ele><time>2026-04-25T12:46:26Z</time></trkpt><trkpt lat="40.65761738411555" lon="15.029498526739532"><ele>162.0</ele><time>2026-04-25T12:46:27Z</time></trkpt><trkpt lat="40.65766008033686" lon="15.029346477058073"><ele>159.0</ele><time>2026-04-25T12:46:28Z</time></trkpt><trkpt lat="40.65768391674725" lon="15.029213887737559"><ele>156.0</ele><time>2026-04-25T12:46:29Z</time></trkpt><trkpt lat="40.65768395956462" lon="15.029096782429187"><ele>155.4</ele><time>2026-04-25T12:46:30Z</time></trkpt><trkpt lat="40.65764883558067" lon="15.028984482803962"><ele>154.8</ele><time>2026-04-25T12:46:31Z</time></trkpt><trkpt lat="40.65758202914803" lon="15.02887197849875"><ele>154.20000000000002</ele><time>2026-04-25T12:46:32Z</time></trkpt><trkpt lat="40.65750788098345" lon="15.028766521210386"><ele>153.6</ele><time>2026-04-25T12:46:33Z</time></trkpt><trkpt lat="40.65744016085958" lon="15.028662728372822"><ele>153.0</ele><time>2026-04-25T12:46:34Z</time></trkpt><trkpt lat="40.65737377809203" lon="15.02856848086145"><ele>153.0</ele><time>2026-04-25T12:46:35Z</time></trkpt><trkpt lat="40.65730258408449" lon="15.028485087006379"><ele>153.0</ele><time>2026-04-25T12:46:36Z</time></trkpt><trkpt lat="40.65722724331368" lon="15.028423245259567"><ele>153.0</ele><time>2026-04-25T12:46:37Z</time></trkpt><trkpt lat="40.65714875826402" lon="15.028366558838341"><ele>153.0</ele><time>2026-04-25T12:46:38Z</time></trkpt><trkpt lat="40.65708010381109" lon="15.028307957350911"><ele>153.0</ele><time>2026-04-25T12:46:39Z</time></trkpt><trkpt lat="40.657016594368784" lon="15.028250845703807"><ele>153.0</ele><time>2026-04-25T12:46:40Z</time></trkpt><trkpt lat="40.65695632025855" lon="15.028207772624793"><ele>152.6</ele><time>2026-04-25T12:46:41Z</time></trkpt><trkpt lat="40.656893852749505" lon="15.028168498321733"><ele>152.20000000000002</ele><time>2026-04-25T12:46:42Z</time></trkpt><trkpt lat="40.65676939285795" lon="15.028081562412822"><ele>151.8</ele><time>2026-04-25T12:46:44Z</time></trkpt><trkpt lat="40.6566611963332" lon="15.028045519081722"><ele>151.4</ele><time>2026-04-25T12:46:45Z</time></trkpt><trkpt lat="40.656542380193486" lon="15.028013660065175"><ele>151.0</ele><time>2026-04-25T12:46:46Z</time></trkpt><trkpt lat="40.65644572673913" lon="15.027962722372061"><ele>151.0</ele><time>2026-04-25T12:46:47Z</time></trkpt><trkpt lat="40.65635210310858" lon="15.027925870754114"><ele>151.0</ele><time>2026-04-25T12:46:48Z</time></trkpt><trkpt lat="40.656253985757395" lon="15.02787557036939"><ele>151.0</ele><time>2026-04-25T12:46:49Z</time></trkpt><trkpt lat="40.6561444746278" lon="15.027833053392637"><ele>151.0</ele><time>2026-04-25T12:46:50Z</time></trkpt><trkpt lat="40.65602570780832" lon="15.02777377087343"><ele>151.0</ele><time>2026-04-25T12:46:51Z</time></trkpt><trkpt lat="40.65588008669445" lon="15.027720607668872"><ele>150.75</ele><time>2026-04-25T12:46:52Z</time></trkpt><trkpt lat="40.65573539876743" lon="15.027680545764046"><ele>150.5</ele><time>2026-04-25T12:46:53Z</time></trkpt><trkpt lat="40.65560877345885" lon="15.027653800753146"><ele>150.25</ele><time>2026-04-25T12:46:54Z</time></trkpt><trkpt lat="40.65550018059032" lon="15.027601094030437"><ele>150.0</ele><time>2026-04-25T12:46:55Z</time></trkpt><trkpt lat="40.65538178098894" lon="15.027549014199609"><ele>149.75</ele><time>2026-04-25T12:46:56Z</time></trkpt><trkpt lat="40.655269655279525" lon="15.027468341291"><ele>149.5</ele><time>2026-04-25T12:46:57Z</time></trkpt><trkpt lat="40.65517009167379" lon="15.027380636211856"><ele>149.25</ele><time>2026-04-25T12:46:58Z</time></trkpt><trkpt lat="40.655089819344056" lon="15.027274801696725"><ele>149.0</ele><time>2026-04-25T12:46:59Z</time></trkpt><trkpt lat="40.65501193096198" lon="15.027147932002162"><ele>149.0</ele><time>2026-04-25T12:47:00Z</time></trkpt><trkpt lat="40.654945568380306" lon="15.027017940794444"><ele>149.0</ele><time>2026-04-25T12:47:01Z</time></trkpt><trkpt lat="40.65490387125453" lon="15.026883745664477"><ele>149.0</ele><time>2026-04-25T12:47:02Z</time></trkpt><trkpt lat="40.65488541266672" lon="15.026750561416"><ele>149.0</ele><time>2026-04-25T12:47:03Z</time></trkpt><trkpt lat="40.65487620926631" lon="15.026620902488727"><ele>149.0</ele><time>2026-04-25T12:47:04Z</time></trkpt><trkpt lat="40.65488681775152" lon="15.02650100935507"><ele>148.2</ele><time>2026-04-25T12:47:05Z</time></trkpt><trkpt lat="40.65489325916966" lon="15.02636711716217"><ele>147.4</ele><time>2026-04-25T12:47:05.999Z</time></trkpt><trkpt lat="40.654893259170755" lon="15.02625687982048"><ele>146.6</ele><time>2026-04-25T12:47:07Z</time></trkpt><trkpt lat="40.654842879260755" lon="15.026158528474559"><ele>145.8</ele><time>2026-04-25T12:47:08Z</time></trkpt><trkpt lat="40.65479398289621" lon="15.0260584163929"><ele>145.0</ele><time>2026-04-25T12:47:09Z</time></trkpt><trkpt lat="40.6547235183664" lon="15.025946244462437"><ele>145.0</ele><time>2026-04-25T12:47:10Z</time></trkpt><trkpt lat="40.65461774363707" lon="15.025896167465758"><ele>145.0</ele><time>2026-04-25T12:47:11Z</time></trkpt><trkpt lat="40.654517806875226" lon="15.025841914863364"><ele>145.0</ele><time>2026-04-25T12:47:12Z</time></trkpt><trkpt lat="40.6543896439437" lon="15.025803520636376"><ele>145.0</ele><time>2026-04-25T12:47:13Z</time></trkpt><trkpt lat="40.65425961575665" lon="15.025753941713766"><ele>144.8</ele><time>2026-04-25T12:47:14Z</time></trkpt><trkpt lat="40.6541513185191" lon="15.025699363703607"><ele>144.6</ele><time>2026-04-25T12:47:15Z</time></trkpt><trkpt lat="40.654066353933075" lon="15.025647797286227"><ele>144.4</ele><time>2026-04-25T12:47:16Z</time></trkpt><trkpt lat="40.654002974820436" lon="15.025588999543627"><ele>144.2</ele><time>2026-04-25T12:47:17Z</time></trkpt><trkpt lat="40.65396004846082" lon="15.025520655826824"><ele>144.0</ele><time>2026-04-25T12:47:18Z</time></trkpt><trkpt lat="40.6539342356552" lon="15.02538169245543"><ele>144.0</ele><time>2026-04-25T12:47:20Z</time></trkpt><trkpt lat="40.65392979444389" lon="15.02528087630429"><ele>144.0</ele><time>2026-04-25T12:47:22Z</time></trkpt><trkpt lat="40.65388458106667" lon="15.025201537600118"><ele>144.0</ele><time>2026-04-25T12:47:24Z</time></trkpt><trkpt lat="40.65383707789444" lon="15.025127410555308"><ele>144.0</ele><time>2026-04-25T12:47:27Z</time></trkpt><trkpt lat="40.6537583800974" lon="15.025089556778456"><ele>144.0</ele><time>2026-04-25T12:47:39Z</time></trkpt><trkpt lat="40.65385316837714" lon="15.025174229325948"><ele>144.0</ele><time>2026-04-25T12:47:55Z</time></trkpt><trkpt lat="40.653909309159005" lon="15.025280575577616"><ele>144.0</ele><time>2026-04-25T12:47:56Z</time></trkpt><trkpt lat="40.65394055288249" lon="15.025426182690385"><ele>144.0</ele><time>2026-04-25T12:47:57Z</time></trkpt><trkpt lat="40.65396193229452" lon="15.025538354441144"><ele>144.0</ele><time>2026-04-25T12:47:58Z</time></trkpt><trkpt lat="40.65400115250756" lon="15.025622227520598"><ele>144.0</ele><time>2026-04-25T12:47:59Z</time></trkpt><trkpt lat="40.654079163469206" lon="15.025689791695127"><ele>144.0</ele><time>2026-04-25T12:48:00Z</time></trkpt><trkpt lat="40.65419938927555" lon="15.025753680002719"><ele>144.0</ele><time>2026-04-25T12:48:01Z</time></trkpt><trkpt lat="40.65434610462458" lon="15.025804848003174"><ele>144.0</ele><time>2026-04-25T12:48:02Z</time></trkpt><trkpt lat="40.65448890738997" lon="15.025859479669823"><ele>144.0</ele><time>2026-04-25T12:48:03Z</time></trkpt><trkpt lat="40.65459931017999" lon="15.025911688177105"><ele>144.0</ele><time>2026-04-25T12:48:04Z</time></trkpt><trkpt lat="40.65468976930997" lon="15.025966345717805"><ele>144.2</ele><time>2026-04-25T12:48:05Z</time></trkpt><trkpt lat="40.65476506328452" lon="15.02604922682885"><ele>144.4</ele><time>2026-04-25T12:48:06Z</time></trkpt><trkpt lat="40.65481865802396" lon="15.026150986975995"><ele>144.6</ele><time>2026-04-25T12:48:07Z</time></trkpt><trkpt lat="40.65484847345243" lon="15.026236961211435"><ele>144.8</ele><time>2026-04-25T12:48:08Z</time></trkpt><trkpt lat="40.65487341527574" lon="15.026328682603422"><ele>145.0</ele><time>2026-04-25T12:48:09Z</time></trkpt><trkpt lat="40.65485105574121" lon="15.026481443266906"><ele>146.0</ele><time>2026-04-25T12:48:10Z</time></trkpt><trkpt lat="40.654833537653374" lon="15.026653150758756"><ele>147.0</ele><time>2026-04-25T12:48:11Z</time></trkpt><trkpt lat="40.6548526119015" lon="15.026825601559715"><ele>148.0</ele><time>2026-04-25T12:48:12Z</time></trkpt><trkpt lat="40.65490275763056" lon="15.026996270847569"><ele>149.0</ele><time>2026-04-25T12:48:13Z</time></trkpt><trkpt lat="40.65497748225734" lon="15.02716500410113"><ele>149.0</ele><time>2026-04-25T12:48:14Z</time></trkpt><trkpt lat="40.65505931603112" lon="15.02729735053394"><ele>149.0</ele><time>2026-04-25T12:48:15Z</time></trkpt><trkpt lat="40.655142211521685" lon="15.027390164208057"><ele>149.0</ele><time>2026-04-25T12:48:16Z</time></trkpt><trkpt lat="40.65523857855944" lon="15.027478817202011"><ele>149.0</ele><time>2026-04-25T12:48:17Z</time></trkpt><trkpt lat="40.65534374235608" lon="15.027558494426131"><ele>149.25</ele><time>2026-04-25T12:48:18Z</time></trkpt><trkpt lat="40.65545018006564" lon="15.027620071299882"><ele>149.5</ele><time>2026-04-25T12:48:19Z</time></trkpt><trkpt lat="40.65556495116269" lon="15.027662322248773"><ele>149.75</ele><time>2026-04-25T12:48:20Z</time></trkpt><trkpt lat="40.65569662848179" lon="15.027690199652197"><ele>150.0</ele><time>2026-04-25T12:48:21Z</time></trkpt><trkpt lat="40.655829416194265" lon="15.027741200191556"><ele>150.0</ele><time>2026-04-25T12:48:22Z</time></trkpt><trkpt lat="40.65594456319118" lon="15.027784123649683"><ele>150.0</ele><time>2026-04-25T12:48:23Z</time></trkpt><trkpt lat="40.656050358869344" lon="15.027800394452099"><ele>150.0</ele><time>2026-04-25T12:48:24Z</time></trkpt><trkpt lat="40.65612795084819" lon="15.027832444098983"><ele>150.0</ele><time>2026-04-25T12:48:25Z</time></trkpt><trkpt lat="40.656212942902684" lon="15.027894575658042"><ele>150.0</ele><time>2026-04-25T12:48:27Z</time></trkpt><trkpt lat="40.656179989602" lon="15.028054832344832"><ele>150.0</ele><time>2026-04-25T12:48:54Z</time></trkpt><trkpt lat="40.65612814372621" lon="15.028159880790808"><ele>150.0</ele><time>2026-04-25T12:48:55Z</time></trkpt><trkpt lat="40.65605181421208" lon="15.028247272625991"><ele>150.0</ele><time>2026-04-25T12:48:56Z</time></trkpt><trkpt lat="40.65595319804776" lon="15.028323741809691"><ele>150.0</ele><time>2026-04-25T12:48:57Z</time></trkpt><trkpt lat="40.65586004431006" lon="15.02839185210419"><ele>150.0</ele><time>2026-04-25T12:48:58Z</time></trkpt><trkpt lat="40.65579022914316" lon="15.028466510824734"><ele>151.25</ele><time>2026-04-25T12:48:59Z</time></trkpt><trkpt lat="40.6557176361824" lon="15.028566057715869"><ele>152.5</ele><time>2026-04-25T12:49:00Z</time></trkpt><trkpt lat="40.65566250702578" lon="15.0287124260701"><ele>153.75</ele><time>2026-04-25T12:49:01Z</time></trkpt><trkpt lat="40.655597125060766" lon="15.028845168829896"><ele>155.0</ele><time>2026-04-25T12:49:02Z</time></trkpt><trkpt lat="40.65553159049387" lon="15.028967518996373"><ele>155.0</ele><time>2026-04-25T12:49:03Z</time></trkpt><trkpt lat="40.65546624439077" lon="15.029084318978418"><ele>155.0</ele><time>2026-04-25T12:49:04Z</time></trkpt><trkpt lat="40.65540520914231" lon="15.029184392919484"><ele>155.0</ele><time>2026-04-25T12:49:04.999Z</time></trkpt><trkpt lat="40.65534695110156" lon="15.029272921357173"><ele>155.0</ele><time>2026-04-25T12:49:05.999Z</time></trkpt><trkpt lat="40.65529067131648" lon="15.029358666147315"><ele>155.0</ele><time>2026-04-25T12:49:06.999Z</time></trkpt><trkpt lat="40.655252687076526" lon="15.02944142856745"><ele>157.2</ele><time>2026-04-25T12:49:07.999Z</time></trkpt><trkpt lat="40.655264864446956" lon="15.029598541106214"><ele>159.4</ele><time>2026-04-25T12:49:09.999Z</time></trkpt><trkpt lat="40.65532332416003" lon="15.02968199466064"><ele>161.60000000000002</ele><time>2026-04-25T12:49:10.999Z</time></trkpt><trkpt lat="40.655408197957605" lon="15.029783604001521"><ele>163.8</ele><time>2026-04-25T12:49:11.999Z</time></trkpt><trkpt lat="40.65545586451012" lon="15.029876306651312"><ele>166.0</ele><time>2026-04-25T12:49:13Z</time></trkpt><trkpt lat="40.65546830822141" lon="15.029958074621245"><ele>168.8</ele><time>2026-04-25T12:49:14Z</time></trkpt><trkpt lat="40.65545045501425" lon="15.030043101934652"><ele>171.60000000000002</ele><time>2026-04-25T12:49:15Z</time></trkpt><trkpt lat="40.655381268983625" lon="15.030132418200685"><ele>174.4</ele><time>2026-04-25T12:49:16Z</time></trkpt><trkpt lat="40.655305436908776" lon="15.030227069525361"><ele>177.2</ele><time>2026-04-25T12:49:17Z</time></trkpt><trkpt lat="40.65523609618096" lon="15.030337258227616"><ele>180.0</ele><time>2026-04-25T12:49:18Z</time></trkpt><trkpt lat="40.65515855439834" lon="15.030456857831455"><ele>181.5</ele><time>2026-04-25T12:49:19Z</time></trkpt><trkpt lat="40.655088214021355" lon="15.03054979301537"><ele>183.0</ele><time>2026-04-25T12:49:20Z</time></trkpt><trkpt lat="40.65501895267158" lon="15.03061948473359"><ele>184.5</ele><time>2026-04-25T12:49:21Z</time></trkpt><trkpt lat="40.654949059892644" lon="15.030660710715916"><ele>186.0</ele><time>2026-04-25T12:49:22Z</time></trkpt><trkpt lat="40.65487914146362" lon="15.030667242779892"><ele>187.5</ele><time>2026-04-25T12:49:23Z</time></trkpt><trkpt lat="40.654816660047146" lon="15.030556352358861"><ele>189.0</ele><time>2026-04-25T12:49:24Z</time></trkpt><trkpt lat="40.65469324621784" lon="15.030534823142844"><ele>189.0</ele><time>2026-04-25T12:49:26Z</time></trkpt><trkpt lat="40.65458188047032" lon="15.030602015063598"><ele>189.0</ele><time>2026-04-25T12:49:28Z</time></trkpt><trkpt lat="40.65454416171612" lon="15.030701722020703"><ele>189.0</ele><time>2026-04-25T12:49:29Z</time></trkpt><trkpt lat="40.6545333998046" lon="15.03081837206395"><ele>189.0</ele><time>2026-04-25T12:49:30Z</time></trkpt><trkpt lat="40.65451781856364" lon="15.030927331910908"><ele>189.0</ele><time>2026-04-25T12:49:31Z</time></trkpt><trkpt lat="40.65448361921889" lon="15.03100323194833"><ele>189.0</ele><time>2026-04-25T12:49:32Z</time></trkpt><trkpt lat="40.65442554777073" lon="15.03106019168257"><ele>193.83333333333334</ele><time>2026-04-25T12:49:33Z</time></trkpt><trkpt lat="40.6543523052836" lon="15.0311159025321"><ele>198.66666666666669</ele><time>2026-04-25T12:49:34Z</time></trkpt><trkpt lat="40.65426860744921" lon="15.031147080368228"><ele>203.5</ele><time>2026-04-25T12:49:35Z</time></trkpt><trkpt lat="40.65418828644352" lon="15.031213755033047"><ele>208.33333333333334</ele><time>2026-04-25T12:49:36Z</time></trkpt><trkpt lat="40.65410754883265" lon="15.031257701775964"><ele>213.16666666666669</ele><time>2026-04-25T12:49:37Z</time></trkpt><trkpt lat="40.6540218561269" lon="15.031302901387658"><ele>218.0</ele><time>2026-04-25T12:49:38Z</time></trkpt><trkpt lat="40.65393492479592" lon="15.031321760992276"><ele>218.00000000000003</ele><time>2026-04-25T12:49:39Z</time></trkpt><trkpt lat="40.65385756567971" lon="15.031363938290317"><ele>218.0</ele><time>2026-04-25T12:49:40Z</time></trkpt><trkpt lat="40.653777496134886" lon="15.031386584083245"><ele>218.0</ele><time>2026-04-25T12:49:41Z</time></trkpt><trkpt lat="40.65369951701043" lon="15.03141019837864"><ele>218.0</ele><time>2026-04-25T12:49:42Z</time></trkpt><trkpt lat="40.65363272995762" lon="15.031444923243452"><ele>218.00000000000003</ele><time>2026-04-25T12:49:43Z</time></trkpt><trkpt lat="40.65356798152685" lon="15.031501521063634"><ele>218.0</ele><time>2026-04-25T12:49:44Z</time></trkpt><trkpt lat="40.653510972787416" lon="15.031582736456281"><ele>223.0</ele><time>2026-04-25T12:49:45Z</time></trkpt><trkpt lat="40.65347225785495" lon="15.03164874166173"><ele>228.0</ele><time>2026-04-25T12:49:46Z</time></trkpt><trkpt lat="40.65335969265971" lon="15.031679336376126"><ele>233.0</ele><time>2026-04-25T12:49:48Z</time></trkpt><trkpt lat="40.653284129206654" lon="15.031669897267033"><ele>238.0</ele><time>2026-04-25T12:49:49Z</time></trkpt><trkpt lat="40.65318851866757" lon="15.031662920479855"><ele>243.0</ele><time>2026-04-25T12:49:50Z</time></trkpt><trkpt lat="40.65306213449548" lon="15.03165585504587"><ele>243.0</ele><time>2026-04-25T12:49:51Z</time></trkpt><trkpt lat="40.65293760617908" lon="15.031654416098151"><ele>243.0</ele><time>2026-04-25T12:49:52Z</time></trkpt><trkpt lat="40.65283965489737" lon="15.031677517804113"><ele>243.0</ele><time>2026-04-25T12:49:53Z</time></trkpt><trkpt lat="40.65277190860137" lon="15.031748943297167"><ele>243.0</ele><time>2026-04-25T12:49:54Z</time></trkpt><trkpt lat="40.65273824145427" lon="15.031885037907832"><ele>243.0</ele><time>2026-04-25T12:49:55Z</time></trkpt><trkpt lat="40.65267080292232" lon="15.031914168255858"><ele>243.0</ele><time>2026-04-25T12:49:56Z</time></trkpt><trkpt lat="40.65262764549948" lon="15.031992367901898"><ele>243.0</ele><time>2026-04-25T12:49:57Z</time></trkpt><trkpt lat="40.65249438938613" lon="15.032002377696429"><ele>243.0</ele><time>2026-04-25T12:49:59Z</time></trkpt><trkpt lat="40.65238720261685" lon="15.032030029371954"><ele>243.0</ele><time>2026-04-25T12:50:00Z</time></trkpt><trkpt lat="40.652280429758214" lon="15.032025507453598"><ele>243.0</ele><time>2026-04-25T12:50:01Z</time></trkpt><trkpt lat="40.652179039126" lon="15.032054216396114"><ele>243.0</ele><time>2026-04-25T12:50:02Z</time></trkpt><trkpt lat="40.652077095956905" lon="15.032074412972138"><ele>243.0</ele><time>2026-04-25T12:50:03Z</time></trkpt><trkpt lat="40.65199002154511" lon="15.032106653168105"><ele>243.0</ele><time>2026-04-25T12:50:04Z</time></trkpt><trkpt lat="40.65191691873721" lon="15.032176898598143"><ele>243.0</ele><time>2026-04-25T12:50:05Z</time></trkpt><trkpt lat="40.651857476596824" lon="15.032243270753634"><ele>243.0</ele><time>2026-04-25T12:50:06Z</time></trkpt><trkpt lat="40.651808951254786" lon="15.032329681356988"><ele>243.0</ele><time>2026-04-25T12:50:07Z</time></trkpt><trkpt lat="40.65176986362083" lon="15.032454985046561"><ele>246.0</ele><time>2026-04-25T12:50:08Z</time></trkpt><trkpt lat="40.65172738179601" lon="15.032602520187083"><ele>249.0</ele><time>2026-04-25T12:50:09Z</time></trkpt><trkpt lat="40.65168680334866" lon="15.032727935617293"><ele>252.0</ele><time>2026-04-25T12:50:10Z</time></trkpt><trkpt lat="40.65165095648451" lon="15.032840164662813"><ele>255.0</ele><time>2026-04-25T12:50:11Z</time></trkpt><trkpt lat="40.65160138473172" lon="15.032947771194118"><ele>258.0</ele><time>2026-04-25T12:50:12Z</time></trkpt><trkpt lat="40.65154860562452" lon="15.033049424025588"><ele>258.0</ele><time>2026-04-25T12:50:13Z</time></trkpt><trkpt lat="40.65146830405505" lon="15.033157313699787"><ele>258.0</ele><time>2026-04-25T12:50:14Z</time></trkpt><trkpt lat="40.65141480746099" lon="15.033248045580548"><ele>258.0</ele><time>2026-04-25T12:50:15Z</time></trkpt><trkpt lat="40.65138917503419" lon="15.03335612424231"><ele>258.0</ele><time>2026-04-25T12:50:16Z</time></trkpt><trkpt lat="40.651395982588454" lon="15.03349905879731"><ele>258.0</ele><time>2026-04-25T12:50:17Z</time></trkpt><trkpt lat="40.65136816747648" lon="15.033655273275036"><ele>260.0</ele><time>2026-04-25T12:50:18Z</time></trkpt><trkpt lat="40.65135290045893" lon="15.033808286132075"><ele>262.0</ele><time>2026-04-25T12:50:19Z</time></trkpt><trkpt lat="40.65133530802018" lon="15.033957918238551"><ele>264.0</ele><time>2026-04-25T12:50:20Z</time></trkpt><trkpt lat="40.651335682296214" lon="15.034082326700448"><ele>266.0</ele><time>2026-04-25T12:50:21Z</time></trkpt><trkpt lat="40.6513426548208" lon="15.03421231587325"><ele>268.0</ele><time>2026-04-25T12:50:22Z</time></trkpt><trkpt lat="40.6513451758644" lon="15.034351504092543"><ele>271.25</ele><time>2026-04-25T12:50:23Z</time></trkpt><trkpt lat="40.651373475609425" lon="15.03449835073011"><ele>274.5</ele><time>2026-04-25T12:50:24Z</time></trkpt><trkpt lat="40.651398052329796" lon="15.034641036349464"><ele>277.75</ele><time>2026-04-25T12:50:25Z</time></trkpt><trkpt lat="40.65142830393455" lon="15.03478441512235"><ele>281.0</ele><time>2026-04-25T12:50:26Z</time></trkpt><trkpt lat="40.65145107258416" lon="15.034938023782328"><ele>283.6</ele><time>2026-04-25T12:50:27Z</time></trkpt><trkpt lat="40.65147762823011" lon="15.035079785230725"><ele>286.20000000000005</ele><time>2026-04-25T12:50:28Z</time></trkpt><trkpt lat="40.651499690888606" lon="15.03520520484132"><ele>288.79999999999995</ele><time>2026-04-25T12:50:29Z</time></trkpt><trkpt lat="40.651523126631794" lon="15.035339489967068"><ele>291.4</ele><time>2026-04-25T12:50:30Z</time></trkpt><trkpt lat="40.651533226253164" lon="15.035476333639469"><ele>294.0</ele><time>2026-04-25T12:50:31Z</time></trkpt><trkpt lat="40.65155054804762" lon="15.035613746292277"><ele>294.0</ele><time>2026-04-25T12:50:32Z</time></trkpt><trkpt lat="40.651563229052165" lon="15.035743399082152"><ele>294.0</ele><time>2026-04-25T12:50:33Z</time></trkpt><trkpt lat="40.65156178412867" lon="15.035881493112546"><ele>294.0</ele><time>2026-04-25T12:50:34Z</time></trkpt><trkpt lat="40.6515687466639" lon="15.036010428998242"><ele>294.0</ele><time>2026-04-25T12:50:35Z</time></trkpt><trkpt lat="40.6515976687482" lon="15.0361015425499"><ele>294.0</ele><time>2026-04-25T12:50:36Z</time></trkpt><trkpt lat="40.6516399632891" lon="15.036178393273829"><ele>294.0</ele><time>2026-04-25T12:50:37Z</time></trkpt><trkpt lat="40.65170637141995" lon="15.036278589662636"><ele>295.8</ele><time>2026-04-25T12:50:38Z</time></trkpt><trkpt lat="40.651786992536984" lon="15.036379432591607"><ele>297.59999999999997</ele><time>2026-04-25T12:50:39Z</time></trkpt><trkpt lat="40.65186672366127" lon="15.036467143973328"><ele>299.4</ele><time>2026-04-25T12:50:40Z</time></trkpt><trkpt lat="40.65193629699383" lon="15.036547425478036"><ele>301.2</ele><time>2026-04-25T12:50:41Z</time></trkpt><trkpt lat="40.65200928701145" lon="15.036609403913332"><ele>303.0</ele><time>2026-04-25T12:50:42Z</time></trkpt><trkpt lat="40.6520796211837" lon="15.036682373940915"><ele>306.8</ele><time>2026-04-25T12:50:43Z</time></trkpt><trkpt lat="40.65217113099952" lon="15.03668759776227"><ele>310.6</ele><time>2026-04-25T12:50:44Z</time></trkpt><trkpt lat="40.65225797466845" lon="15.036722848800785"><ele>314.40000000000003</ele><time>2026-04-25T12:50:45Z</time></trkpt><trkpt lat="40.65232774378189" lon="15.036819818133763"><ele>318.20000000000005</ele><time>2026-04-25T12:50:46Z</time></trkpt><trkpt lat="40.652417076122696" lon="15.036878806011588"><ele>322.0</ele><time>2026-04-25T12:50:47Z</time></trkpt><trkpt lat="40.6524945444197" lon="15.036921766589334"><ele>322.0</ele><time>2026-04-25T12:50:48Z</time></trkpt><trkpt lat="40.6525459668324" lon="15.036990809706403"><ele>322.0</ele><time>2026-04-25T12:50:49Z</time></trkpt><trkpt lat="40.65257569268734" lon="15.037088072888803"><ele>322.0</ele><time>2026-04-25T12:50:50Z</time></trkpt><trkpt lat="40.65257881818832" lon="15.037225513257406"><ele>322.0</ele><time>2026-04-25T12:50:51Z</time></trkpt><trkpt lat="40.65259159700624" lon="15.037372444888943"><ele>322.0</ele><time>2026-04-25T12:50:52Z</time></trkpt><trkpt lat="40.65260488666632" lon="15.037529145676816"><ele>322.0</ele><time>2026-04-25T12:50:53Z</time></trkpt><trkpt lat="40.65261398916266" lon="15.037666879567471"><ele>322.0</ele><time>2026-04-25T12:50:54Z</time></trkpt><trkpt lat="40.652619255710036" lon="15.037787960794212"><ele>322.0</ele><time>2026-04-25T12:50:55Z</time></trkpt><trkpt lat="40.65261686362889" lon="15.037892514200024"><ele>322.0</ele><time>2026-04-25T12:50:56Z</time></trkpt><trkpt lat="40.65260774471909" lon="15.037974618930232"><ele>322.0</ele><time>2026-04-25T12:50:57Z</time></trkpt><trkpt lat="40.652588464353144" lon="15.03805967200759"><ele>322.0</ele><time>2026-04-25T12:50:58Z</time></trkpt><trkpt lat="40.65254231014707" lon="15.038157544046037"><ele>322.0</ele><time>2026-04-25T12:50:59Z</time></trkpt><trkpt lat="40.65245765735712" lon="15.03822217672227"><ele>322.0</ele><time>2026-04-25T12:51:00Z</time></trkpt><trkpt lat="40.652378858657" lon="15.03831880464712"><ele>322.0</ele><time>2026-04-25T12:51:01Z</time></trkpt><trkpt lat="40.65230543690319" lon="15.038433463206651"><ele>322.0</ele><time>2026-04-25T12:51:02Z</time></trkpt><trkpt lat="40.6522277689892" lon="15.038550116624807"><ele>322.0</ele><time>2026-04-25T12:51:03Z</time></trkpt><trkpt lat="40.652156043874484" lon="15.038639196515108"><ele>323.0</ele><time>2026-04-25T12:51:04Z</time></trkpt><trkpt lat="40.65210704491599" lon="15.038701707775807"><ele>324.0</ele><time>2026-04-25T12:51:05Z</time></trkpt><trkpt lat="40.651999687111044" lon="15.038771942961818"><ele>325.0</ele><time>2026-04-25T12:51:07Z</time></trkpt><trkpt lat="40.65187747586917" lon="15.038823215229712"><ele>326.0</ele><time>2026-04-25T12:51:09Z</time></trkpt><trkpt lat="40.65181614541054" lon="15.038847017793204"><ele>327.0</ele><time>2026-04-25T12:51:10Z</time></trkpt><trkpt lat="40.6517056299748" lon="15.03891355036456"><ele>327.0</ele><time>2026-04-25T12:51:12Z</time></trkpt><trkpt lat="40.65164571547447" lon="15.038958999235048"><ele>327.0</ele><time>2026-04-25T12:51:13Z</time></trkpt><trkpt lat="40.65157501606164" lon="15.038994669665847"><ele>327.0</ele><time>2026-04-25T12:51:14Z</time></trkpt><trkpt lat="40.651494858435555" lon="15.039027056351427"><ele>327.0</ele><time>2026-04-25T12:51:15Z</time></trkpt><trkpt lat="40.651425221034025" lon="15.039071089938506"><ele>327.0</ele><time>2026-04-25T12:51:15.999Z</time></trkpt><trkpt lat="40.65135636794045" lon="15.039151240485634"><ele>327.0</ele><time>2026-04-25T12:51:17.999Z</time></trkpt><trkpt lat="40.65130025907141" lon="15.039199880296492"><ele>329.0</ele><time>2026-04-25T12:51:21Z</time></trkpt><trkpt lat="40.651220290611654" lon="15.03932170969053"><ele>331.0</ele><time>2026-04-25T12:51:23Z</time></trkpt><trkpt lat="40.65117996436748" lon="15.039426775168073"><ele>333.0</ele><time>2026-04-25T12:51:24Z</time></trkpt><trkpt lat="40.65115288360251" lon="15.039530415495484"><ele>335.0</ele><time>2026-04-25T12:51:25Z</time></trkpt><trkpt lat="40.65113092498722" lon="15.039640866226339"><ele>337.0</ele><time>2026-04-25T12:51:26Z</time></trkpt><trkpt lat="40.65110163316791" lon="15.039769804761612"><ele>337.0</ele><time>2026-04-25T12:51:27Z</time></trkpt><trkpt lat="40.65107636065626" lon="15.039897744957306"><ele>337.0</ele><time>2026-04-25T12:51:28Z</time></trkpt><trkpt lat="40.6510610654051" lon="15.040015418523414"><ele>337.0</ele><time>2026-04-25T12:51:29Z</time></trkpt><trkpt lat="40.651042658225315" lon="15.040104222130477"><ele>337.0</ele><time>2026-04-25T12:51:30Z</time></trkpt><trkpt lat="40.65097239814717" lon="15.04022697508335"><ele>337.0</ele><time>2026-04-25T12:51:32Z</time></trkpt><trkpt lat="40.65090235766709" lon="15.040238301557727"><ele>337.0</ele><time>2026-04-25T12:51:33Z</time></trkpt><trkpt lat="40.65082242364992" lon="15.04028937848422"><ele>339.6</ele><time>2026-04-25T12:51:34Z</time></trkpt><trkpt lat="40.650717756195355" lon="15.040329012533745"><ele>342.20000000000005</ele><time>2026-04-25T12:51:35Z</time></trkpt><trkpt lat="40.650618366917634" lon="15.040380681361398"><ele>344.8</ele><time>2026-04-25T12:51:36Z</time></trkpt><trkpt lat="40.650537109742196" lon="15.040436227591835"><ele>347.4</ele><time>2026-04-25T12:51:37Z</time></trkpt><trkpt lat="40.650450559701675" lon="15.04050926516323"><ele>350.0</ele><time>2026-04-25T12:51:39Z</time></trkpt><trkpt lat="40.65042285381971" lon="15.040610773472357"><ele>350.0</ele><time>2026-04-25T12:51:41Z</time></trkpt><trkpt lat="40.65044880273256" lon="15.040699568303301"><ele>350.0</ele><time>2026-04-25T12:51:42Z</time></trkpt><trkpt lat="40.650504652310445" lon="15.040793617671763"><ele>350.0</ele><time>2026-04-25T12:51:43Z</time></trkpt><trkpt lat="40.65051120409829" lon="15.040918624003409"><ele>350.0</ele><time>2026-04-25T12:51:44Z</time></trkpt><trkpt lat="40.65048996670523" lon="15.04106441996943"><ele>350.0</ele><time>2026-04-25T12:51:45Z</time></trkpt><trkpt lat="40.65047889212393" lon="15.04123659586982"><ele>352.0</ele><time>2026-04-25T12:51:46Z</time></trkpt><trkpt lat="40.65046152652327" lon="15.041364142246666"><ele>354.0</ele><time>2026-04-25T12:51:47Z</time></trkpt><trkpt lat="40.65043836877866" lon="15.041463285391648"><ele>356.0</ele><time>2026-04-25T12:51:48Z</time></trkpt><trkpt lat="40.65033897547118" lon="15.041538494974525"><ele>358.0</ele><time>2026-04-25T12:51:50Z</time></trkpt><trkpt lat="40.65026845910134" lon="15.041530108173667"><ele>360.0</ele><time>2026-04-25T12:51:51Z</time></trkpt><trkpt lat="40.65018973385821" lon="15.041497073956966"><ele>362.0</ele><time>2026-04-25T12:51:52Z</time></trkpt><trkpt lat="40.65011796513725" lon="15.041411299004983"><ele>365.0</ele><time>2026-04-25T12:51:53Z</time></trkpt><trkpt lat="40.6500436333964" lon="15.04131803376372"><ele>368.0</ele><time>2026-04-25T12:51:54Z</time></trkpt><trkpt lat="40.64998018366887" lon="15.041199201214123"><ele>371.0</ele><time>2026-04-25T12:51:55Z</time></trkpt><trkpt lat="40.649906540888885" lon="15.041074114034256"><ele>374.0</ele><time>2026-04-25T12:51:56Z</time></trkpt><trkpt lat="40.64984499280409" lon="15.040973250431342"><ele>377.0</ele><time>2026-04-25T12:51:57Z</time></trkpt><trkpt lat="40.649780519169184" lon="15.04086371947724"><ele>376.20000000000005</ele><time>2026-04-25T12:51:58Z</time></trkpt><trkpt lat="40.64972041854795" lon="15.040754803549365"><ele>375.4</ele><time>2026-04-25T12:51:59Z</time></trkpt><trkpt lat="40.64965888939372" lon="15.040669918504053"><ele>374.6</ele><time>2026-04-25T12:52:00Z</time></trkpt><trkpt lat="40.64956412621457" lon="15.040635250435601"><ele>373.79999999999995</ele><time>2026-04-25T12:52:02Z</time></trkpt><trkpt lat="40.649456962375716" lon="15.04067429758042"><ele>373.0</ele><time>2026-04-25T12:52:04Z</time></trkpt><trkpt lat="40.649395776124145" lon="15.040730711564999"><ele>374.4</ele><time>2026-04-25T12:52:05Z</time></trkpt><trkpt lat="40.6493448240499" lon="15.040810003244255"><ele>375.79999999999995</ele><time>2026-04-25T12:52:06Z</time></trkpt><trkpt lat="40.64928529797213" lon="15.040919961594623"><ele>377.2</ele><time>2026-04-25T12:52:07Z</time></trkpt><trkpt lat="40.649207559157716" lon="15.041015061630747"><ele>378.6</ele><time>2026-04-25T12:52:08Z</time></trkpt><trkpt lat="40.64911394067165" lon="15.041101056783354"><ele>380.0</ele><time>2026-04-25T12:52:09Z</time></trkpt><trkpt lat="40.64901156024046" lon="15.041193690420815"><ele>380.0</ele><time>2026-04-25T12:52:10Z</time></trkpt><trkpt lat="40.64895148684228" lon="15.041322633632296"><ele>380.0</ele><time>2026-04-25T12:52:11Z</time></trkpt><trkpt lat="40.648889199029554" lon="15.041454109421922"><ele>380.0</ele><time>2026-04-25T12:52:12Z</time></trkpt><trkpt lat="40.64881583093451" lon="15.041559880381921"><ele>380.0</ele><time>2026-04-25T12:52:13Z</time></trkpt><trkpt lat="40.64874787192993" lon="15.041658690246553"><ele>380.0</ele><time>2026-04-25T12:52:14Z</time></trkpt><trkpt lat="40.648681683783074" lon="15.041765959977681"><ele>382.83333333333337</ele><time>2026-04-25T12:52:15Z</time></trkpt><trkpt lat="40.648601834872885" lon="15.041829841452332"><ele>385.6666666666667</ele><time>2026-04-25T12:52:16Z</time></trkpt><trkpt lat="40.64858203925855" lon="15.041920849733938"><ele>388.5</ele><time>2026-04-25T12:52:17Z</time></trkpt><trkpt lat="40.64855438723289" lon="15.042010003232466"><ele>391.33333333333337</ele><time>2026-04-25T12:52:18Z</time></trkpt><trkpt lat="40.64858044230281" lon="15.04214566213528"><ele>394.1666666666667</ele><time>2026-04-25T12:52:19Z</time></trkpt><trkpt lat="40.64859647727298" lon="15.042277900614911"><ele>397.0</ele><time>2026-04-25T12:52:20Z</time></trkpt><trkpt lat="40.64858713370017" lon="15.042366094112301"><ele>397.00000000000006</ele><time>2026-04-25T12:52:21Z</time></trkpt><trkpt lat="40.64851056504476" lon="15.042393006015802"><ele>397.0</ele><time>2026-04-25T12:52:23Z</time></trkpt><trkpt lat="40.64845259783413" lon="15.042329774063587"><ele>397.0</ele><time>2026-04-25T12:52:24Z</time></trkpt><trkpt lat="40.64838984479705" lon="15.04226014690916"><ele>397.0</ele><time>2026-04-25T12:52:25Z</time></trkpt><trkpt lat="40.648334499171874" lon="15.042219338724717"><ele>397.00000000000006</ele><time>2026-04-25T12:52:26Z</time></trkpt><trkpt lat="40.648286559913466" lon="15.042288278671558"><ele>397.0</ele><time>2026-04-25T12:52:29Z</time></trkpt><trkpt lat="40.648280825029325" lon="15.042393310573102"><ele>400.0</ele><time>2026-04-25T12:52:30Z</time></trkpt><trkpt lat="40.64829465672643" lon="15.042530875701344"><ele>403.0</ele><time>2026-04-25T12:52:31Z</time></trkpt><trkpt lat="40.64830548115441" lon="15.042664469460497"><ele>406.0</ele><time>2026-04-25T12:52:32Z</time></trkpt><trkpt lat="40.64828760530655" lon="15.042783551532041"><ele>409.0</ele><time>2026-04-25T12:52:33Z</time></trkpt><trkpt lat="40.648188167597716" lon="15.042883337767382"><ele>412.0</ele><time>2026-04-25T12:52:35Z</time></trkpt><trkpt lat="40.64811136877441" lon="15.04292309288036"><ele>412.00000000000006</ele><time>2026-04-25T12:52:36Z</time></trkpt><trkpt lat="40.64804260468458" lon="15.042988629055742"><ele>412.0</ele><time>2026-04-25T12:52:37Z</time></trkpt><trkpt lat="40.648003081195064" lon="15.04306569476982"><ele>412.0</ele><time>2026-04-25T12:52:38Z</time></trkpt><trkpt lat="40.648016340627194" lon="15.043168145086039"><ele>412.0</ele><time>2026-04-25T12:52:40Z</time></trkpt><trkpt lat="40.64802063303617" lon="15.043327961758107"><ele>412.00000000000006</ele><time>2026-04-25T12:52:42Z</time></trkpt><trkpt lat="40.64797633357185" lon="15.043430181486254"><ele>412.0</ele><time>2026-04-25T12:52:44Z</time></trkpt><trkpt lat="40.64792647895353" lon="15.043486354895844"><ele>413.1666666666667</ele><time>2026-04-25T12:52:46Z</time></trkpt><trkpt lat="40.64787883311986" lon="15.043541271253053"><ele>414.33333333333337</ele><time>2026-04-25T12:52:48Z</time></trkpt><trkpt lat="40.64780383822735" lon="15.043563024245369"><ele>415.5</ele><time>2026-04-25T12:52:50Z</time></trkpt><trkpt lat="40.64768998805013" lon="15.043555253790823"><ele>416.66666666666663</ele><time>2026-04-25T12:52:52Z</time></trkpt><trkpt lat="40.64761302443294" lon="15.043528021605638"><ele>417.8333333333333</ele><time>2026-04-25T12:52:53Z</time></trkpt><trkpt lat="40.64753640587926" lon="15.043502299810164"><ele>419.0</ele><time>2026-04-25T12:52:54Z</time></trkpt><trkpt lat="40.647449612595295" lon="15.04347186071125"><ele>418.99999999999994</ele><time>2026-04-25T12:52:55Z</time></trkpt><trkpt lat="40.647369812280225" lon="15.04348843046427"><ele>419.0</ele><time>2026-04-25T12:52:56Z</time></trkpt><trkpt lat="40.64730144435474" lon="15.043538424789428"><ele>419.0</ele><time>2026-04-25T12:52:57Z</time></trkpt><trkpt lat="40.647200671626806" lon="15.043556935573331"><ele>419.0</ele><time>2026-04-25T12:52:59Z</time></trkpt><trkpt lat="40.647144305479436" lon="15.043496488381948"><ele>418.99999999999994</ele><time>2026-04-25T12:53:01Z</time></trkpt><trkpt lat="40.64712994098821" lon="15.043411167881004"><ele>419.0</ele><time>2026-04-25T12:53:02Z</time></trkpt><trkpt lat="40.64710366478751" lon="15.04331952763284"><ele>417.99999999999994</ele><time>2026-04-25T12:53:03Z</time></trkpt><trkpt lat="40.64708025806668" lon="15.043197528728685"><ele>417.0</ele><time>2026-04-25T12:53:04Z</time></trkpt><trkpt lat="40.64704928943018" lon="15.043065229520186"><ele>416.0</ele><time>2026-04-25T12:53:05Z</time></trkpt><trkpt lat="40.647003702893606" lon="15.042961557429777"><ele>415.0</ele><time>2026-04-25T12:53:06Z</time></trkpt><trkpt lat="40.64697308193022" lon="15.042870401858972"><ele>413.99999999999994</ele><time>2026-04-25T12:53:07Z</time></trkpt><trkpt lat="40.646935950594575" lon="15.042797905308145"><ele>413.0</ele><time>2026-04-25T12:53:08Z</time></trkpt><trkpt lat="40.64687791195225" lon="15.042721181827433"><ele>414.2</ele><time>2026-04-25T12:53:09Z</time></trkpt><trkpt lat="40.64681846221122" lon="15.042637777393345"><ele>415.4</ele><time>2026-04-25T12:53:10Z</time></trkpt><trkpt lat="40.64676085578753" lon="15.042566242183923"><ele>416.59999999999997</ele><time>2026-04-25T12:53:11Z</time></trkpt><trkpt lat="40.64669584248028" lon="15.04250287347392"><ele>417.79999999999995</ele><time>2026-04-25T12:53:12Z</time></trkpt><trkpt lat="40.6466069920243" lon="15.042445150196492"><ele>419.0</ele><time>2026-04-25T12:53:13Z</time></trkpt><trkpt lat="40.646504655807796" lon="15.042360220870004"><ele>419.0</ele><time>2026-04-25T12:53:14Z</time></trkpt><trkpt lat="40.64640910844712" lon="15.04229213399798"><ele>419.0</ele><time>2026-04-25T12:53:15Z</time></trkpt><trkpt lat="40.64629910269832" lon="15.042234298566092"><ele>419.0</ele><time>2026-04-25T12:53:15.999Z</time></trkpt><trkpt lat="40.64618343827083" lon="15.042167477576646"><ele>419.0</ele><time>2026-04-25T12:53:16.999Z</time></trkpt><trkpt lat="40.64609431114271" lon="15.042129544308546"><ele>419.0</ele><time>2026-04-25T12:53:17.999Z</time></trkpt><trkpt lat="40.646008850361646" lon="15.042093372127104"><ele>420.0</ele><time>2026-04-25T12:53:18.999Z</time></trkpt><trkpt lat="40.64592025210668" lon="15.042068135325051"><ele>421.0</ele><time>2026-04-25T12:53:19.999Z</time></trkpt><trkpt lat="40.64582226634967" lon="15.042054389147193"><ele>422.0</ele><time>2026-04-25T12:53:20.999Z</time></trkpt><trkpt lat="40.64572061674603" lon="15.04202978941942"><ele>423.0</ele><time>2026-04-25T12:53:21.999Z</time></trkpt><trkpt lat="40.64562658162377" lon="15.042001400455502"><ele>424.0</ele><time>2026-04-25T12:53:22.999Z</time></trkpt><trkpt lat="40.64554300868706" lon="15.041975860719644"><ele>424.0</ele><time>2026-04-25T12:53:23.999Z</time></trkpt><trkpt lat="40.64544643662248" lon="15.04196480843975"><ele>424.0</ele><time>2026-04-25T12:53:25Z</time></trkpt><trkpt lat="40.645329619736806" lon="15.041959815928523"><ele>424.0</ele><time>2026-04-25T12:53:26Z</time></trkpt><trkpt lat="40.64523273968881" lon="15.042002868159225"><ele>424.0</ele><time>2026-04-25T12:53:27Z</time></trkpt><trkpt lat="40.645150819253956" lon="15.042067283759847"><ele>424.0</ele><time>2026-04-25T12:53:28Z</time></trkpt><trkpt lat="40.64506126969276" lon="15.042159929560901"><ele>426.75</ele><time>2026-04-25T12:53:29Z</time></trkpt><trkpt lat="40.644954663212886" lon="15.042271697245912"><ele>429.5</ele><time>2026-04-25T12:53:30Z</time></trkpt><trkpt lat="40.64485929552992" lon="15.042376219173361"><ele>432.25</ele><time>2026-04-25T12:53:31Z</time></trkpt><trkpt lat="40.644770571576835" lon="15.042468270331032"><ele>435.0</ele><time>2026-04-25T12:53:32Z</time></trkpt><trkpt lat="40.64467156100815" lon="15.042575130381236"><ele>439.75</ele><time>2026-04-25T12:53:33Z</time></trkpt><trkpt lat="40.6445686574696" lon="15.042683583019809"><ele>444.5</ele><time>2026-04-25T12:53:34Z</time></trkpt><trkpt lat="40.644470027956594" lon="15.042780634697476"><ele>449.25</ele><time>2026-04-25T12:53:35Z</time></trkpt><trkpt lat="40.644383688143414" lon="15.042873320177678"><ele>454.0</ele><time>2026-04-25T12:53:36Z</time></trkpt><trkpt lat="40.644309074785824" lon="15.042947448878943"><ele>457.0</ele><time>2026-04-25T12:53:37Z</time></trkpt><trkpt lat="40.64423693642113" lon="15.043026786090891"><ele>460.0</ele><time>2026-04-25T12:53:38Z</time></trkpt><trkpt lat="40.64414788836121" lon="15.043132531510176"><ele>463.0</ele><time>2026-04-25T12:53:39Z</time></trkpt><trkpt lat="40.64407655513809" lon="15.043216960266337"><ele>466.0</ele><time>2026-04-25T12:53:40Z</time></trkpt><trkpt lat="40.64398422377738" lon="15.043296905632245"><ele>469.0</ele><time>2026-04-25T12:53:42Z</time></trkpt><trkpt lat="40.643909172454094" lon="15.043348223552764"><ele>469.6</ele><time>2026-04-25T12:53:44Z</time></trkpt><trkpt lat="40.643813504512494" lon="15.043378075511852"><ele>470.2</ele><time>2026-04-25T12:53:46Z</time></trkpt><trkpt lat="40.64369637462655" lon="15.043437741821117"><ele>470.80000000000007</ele><time>2026-04-25T12:53:49Z</time></trkpt><trkpt lat="40.643617877066696" lon="15.043475196602374"><ele>471.40000000000003</ele><time>2026-04-25T12:53:50Z</time></trkpt><trkpt lat="40.64355964188843" lon="15.04353443112915"><ele>472.0</ele><time>2026-04-25T12:53:51Z</time></trkpt><trkpt lat="40.64350467760696" lon="15.043594708067856"><ele>468.8</ele><time>2026-04-25T12:53:52Z</time></trkpt><trkpt lat="40.64344005386863" lon="15.043658076640787"><ele>465.6</ele><time>2026-04-25T12:53:53Z</time></trkpt><trkpt lat="40.64338926708521" lon="15.043729003208968"><ele>462.40000000000003</ele><time>2026-04-25T12:53:54Z</time></trkpt><trkpt lat="40.64331842328575" lon="15.043862187678457"><ele>459.20000000000005</ele><time>2026-04-25T12:53:56Z</time></trkpt><trkpt lat="40.643278766949244" lon="15.043986214397794"><ele>456.0</ele><time>2026-04-25T12:53:58Z</time></trkpt><trkpt lat="40.64327329003215" lon="15.044114718522586"><ele>456.1666666666667</ele><time>2026-04-25T12:54:00Z</time></trkpt><trkpt lat="40.64327681146013" lon="15.044241490899644"><ele>456.33333333333337</ele><time>2026-04-25T12:54:01Z</time></trkpt><trkpt lat="40.64327296451751" lon="15.044344961114508"><ele>456.5</ele><time>2026-04-25T12:54:02Z</time></trkpt><trkpt lat="40.64326789759012" lon="15.044436525500082"><ele>456.6666666666667</ele><time>2026-04-25T12:54:03Z</time></trkpt><trkpt lat="40.64318172962508" lon="15.044548276349719"><ele>456.83333333333337</ele><time>2026-04-25T12:54:05Z</time></trkpt><trkpt lat="40.64313295372353" lon="15.044620468260842"><ele>457.0</ele><time>2026-04-25T12:54:06Z</time></trkpt><trkpt lat="40.643081893409416" lon="15.044704771191666"><ele>457.0</ele><time>2026-04-25T12:54:07Z</time></trkpt><trkpt lat="40.64303550221702" lon="15.044781365144878"><ele>457.00000000000006</ele><time>2026-04-25T12:54:08Z</time></trkpt><trkpt lat="40.64300494668404" lon="15.044899643428812"><ele>457.00000000000006</ele><time>2026-04-25T12:54:10Z</time></trkpt><trkpt lat="40.64300602629954" lon="15.045074710849308"><ele>457.0</ele><time>2026-04-25T12:54:12Z</time></trkpt><trkpt lat="40.64299091600163" lon="15.04518709743357"><ele>457.0</ele><time>2026-04-25T12:54:13Z</time></trkpt><trkpt lat="40.64297783550283" lon="15.045282957327181"><ele>457.33333333333337</ele><time>2026-04-25T12:54:14Z</time></trkpt><trkpt lat="40.64296523035005" lon="15.045372121773067"><ele>457.6666666666667</ele><time>2026-04-25T12:54:15Z</time></trkpt><trkpt lat="40.6429492457471" lon="15.045465290117315"><ele>458.0</ele><time>2026-04-25T12:54:16Z</time></trkpt><trkpt lat="40.64294271497103" lon="15.045559667121985"><ele>458.33333333333337</ele><time>2026-04-25T12:54:17Z</time></trkpt><trkpt lat="40.64290824095508" lon="15.045642236989325"><ele>458.6666666666667</ele><time>2026-04-25T12:54:18Z</time></trkpt><trkpt lat="40.64285082479985" lon="15.045794790698839"><ele>459.0</ele><time>2026-04-25T12:54:20Z</time></trkpt><trkpt lat="40.64281324815722" lon="15.045883171308141"><ele>453.2</ele><time>2026-04-25T12:54:21Z</time></trkpt><trkpt lat="40.642771178556806" lon="15.045951468254284"><ele>447.4</ele><time>2026-04-25T12:54:22Z</time></trkpt><trkpt lat="40.642717100459464" lon="15.046106465268672"><ele>441.6</ele><time>2026-04-25T12:54:24Z</time></trkpt><trkpt lat="40.6427012917832" lon="15.046201076943781"><ele>435.8</ele><time>2026-04-25T12:54:25Z</time></trkpt><trkpt lat="40.64269251506146" lon="15.046285302637603"><ele>430.0</ele><time>2026-04-25T12:54:26Z</time></trkpt><trkpt lat="40.64269138904314" lon="15.046458132476516"><ele>430.0</ele><time>2026-04-25T12:54:28Z</time></trkpt><trkpt lat="40.642702986488686" lon="15.046554036752717"><ele>430.0</ele><time>2026-04-25T12:54:29Z</time></trkpt><trkpt lat="40.64272466315327" lon="15.046656029155567"><ele>430.0</ele><time>2026-04-25T12:54:30Z</time></trkpt><trkpt lat="40.64275300959476" lon="15.046773674762928"><ele>430.0</ele><time>2026-04-25T12:54:31Z</time></trkpt><trkpt lat="40.64278755576325" lon="15.046911144852878"><ele>430.0</ele><time>2026-04-25T12:54:32Z</time></trkpt><trkpt lat="40.64282120014495" lon="15.047036030424241"><ele>434.50000000000006</ele><time>2026-04-25T12:54:33Z</time></trkpt><trkpt lat="40.64285096152771" lon="15.047156796948778"><ele>439.0</ele><time>2026-04-25T12:54:34Z</time></trkpt><trkpt lat="40.64287383394379" lon="15.047262155433456"><ele>443.5</ele><time>2026-04-25T12:54:35Z</time></trkpt><trkpt lat="40.64290446390125" lon="15.047357213085707"><ele>448.0</ele><time>2026-04-25T12:54:36Z</time></trkpt><trkpt lat="40.64293286417858" lon="15.047436882092985"><ele>452.50000000000006</ele><time>2026-04-25T12:54:37Z</time></trkpt><trkpt lat="40.64292768226124" lon="15.047546268046016"><ele>457.0</ele><time>2026-04-25T12:54:39Z</time></trkpt><trkpt lat="40.64285867295148" lon="15.047559635117608"><ele>453.00000000000006</ele><time>2026-04-25T12:54:40Z</time></trkpt><trkpt lat="40.642796912882694" lon="15.047596092314178"><ele>449.0</ele><time>2026-04-25T12:54:41Z</time></trkpt><trkpt lat="40.64271452584905" lon="15.0476452402609"><ele>445.0</ele><time>2026-04-25T12:54:42Z</time></trkpt><trkpt lat="40.64260899164981" lon="15.047695661482276"><ele>441.0</ele><time>2026-04-25T12:54:43Z</time></trkpt><trkpt lat="40.64252355049591" lon="15.047751016577212"><ele>437.00000000000006</ele><time>2026-04-25T12:54:44Z</time></trkpt><trkpt lat="40.64245413327698" lon="15.047803707577676"><ele>433.0</ele><time>2026-04-25T12:54:45Z</time></trkpt><trkpt lat="40.642377047393666" lon="15.047864096593358"><ele>433.0</ele><time>2026-04-25T12:54:46Z</time></trkpt><trkpt lat="40.642297157752616" lon="15.047941587402693"><ele>433.0</ele><time>2026-04-25T12:54:47Z</time></trkpt><trkpt lat="40.642208803942545" lon="15.048022860643583"><ele>433.0</ele><time>2026-04-25T12:54:48Z</time></trkpt><trkpt lat="40.64211466482819" lon="15.048113676483345"><ele>433.0</ele><time>2026-04-25T12:54:49Z</time></trkpt><trkpt lat="40.64200957753001" lon="15.048205594562859"><ele>431.33333333333337</ele><time>2026-04-25T12:54:50Z</time></trkpt><trkpt lat="40.64188730696633" lon="15.048301527934314"><ele>429.66666666666663</ele><time>2026-04-25T12:54:51Z</time></trkpt><trkpt lat="40.64173236849617" lon="15.0484241214873"><ele>428.0</ele><time>2026-04-25T12:54:52Z</time></trkpt><trkpt lat="40.64158957500234" lon="15.048528157002213"><ele>428.0</ele><time>2026-04-25T12:54:53Z</time></trkpt><trkpt lat="40.641473076356405" lon="15.04858059229865"><ele>427.99999999999994</ele><time>2026-04-25T12:54:54Z</time></trkpt><trkpt lat="40.64138505559296" lon="15.04864182053737"><ele>427.99999999999994</ele><time>2026-04-25T12:54:55Z</time></trkpt><trkpt lat="40.641302191991194" lon="15.048682219359819"><ele>428.0</ele><time>2026-04-25T12:54:56Z</time></trkpt><trkpt lat="40.641206568043984" lon="15.048710767223017"><ele>428.0</ele><time>2026-04-25T12:54:57Z</time></trkpt><trkpt lat="40.64112158296628" lon="15.048722725195697"><ele>426.0</ele><time>2026-04-25T12:54:58Z</time></trkpt><trkpt lat="40.64100322378095" lon="15.048593893773036"><ele>424.0</ele><time>2026-04-25T12:55:00Z</time></trkpt><trkpt lat="40.640877749663595" lon="15.048498203202085"><ele>422.0</ele><time>2026-04-25T12:55:01Z</time></trkpt><trkpt lat="40.64071944358365" lon="15.048321757797462"><ele>419.5</ele><time>2026-04-25T12:55:02Z</time></trkpt><trkpt lat="40.64052545535124" lon="15.048110283460508"><ele>417.0</ele><time>2026-04-25T12:55:03Z</time></trkpt><trkpt lat="40.64033302820264" lon="15.04789646884949"><ele>416.66666666666663</ele><time>2026-04-25T12:55:04Z</time></trkpt><trkpt lat="40.64017471704757" lon="15.047725211934045"><ele>416.3333333333333</ele><time>2026-04-25T12:55:05Z</time></trkpt><trkpt lat="40.6400587531614" lon="15.047568097299651"><ele>416.0</ele><time>2026-04-25T12:55:06Z</time></trkpt><trkpt lat="40.63994011250347" lon="15.047471016204435"><ele>416.4</ele><time>2026-04-25T12:55:07Z</time></trkpt><trkpt lat="40.63986177670272" lon="15.047391568987477"><ele>416.8</ele><time>2026-04-25T12:55:08Z</time></trkpt><trkpt lat="40.639782805873296" lon="15.047344188260297"><ele>417.2</ele><time>2026-04-25T12:55:09Z</time></trkpt><trkpt lat="40.63968643124509" lon="15.047358634361464"><ele>417.59999999999997</ele><time>2026-04-25T12:55:10Z</time></trkpt><trkpt lat="40.6395704020301" lon="15.047421557609088"><ele>418.0</ele><time>2026-04-25T12:55:11Z</time></trkpt><trkpt lat="40.63942186355837" lon="15.047494355257848"><ele>418.0</ele><time>2026-04-25T12:55:12Z</time></trkpt><trkpt lat="40.63929087462297" lon="15.047543179331377"><ele>418.0</ele><time>2026-04-25T12:55:12.999Z</time></trkpt><trkpt lat="40.639179714866074" lon="15.047568127773683"><ele>418.0</ele><time>2026-04-25T12:55:13.999Z</time></trkpt><trkpt lat="40.63906997524703" lon="15.047610088845532"><ele>418.0</ele><time>2026-04-25T12:55:14.999Z</time></trkpt><trkpt lat="40.63895398658048" lon="15.047672735878711"><ele>418.0</ele><time>2026-04-25T12:55:15.999Z</time></trkpt><trkpt lat="40.638838063881394" lon="15.047719015540967"><ele>418.0</ele><time>2026-04-25T12:55:16.999Z</time></trkpt><trkpt lat="40.638698176083686" lon="15.047716361129524"><ele>418.0</ele><time>2026-04-25T12:55:17.999Z</time></trkpt><trkpt lat="40.638529984268445" lon="15.047704768673283"><ele>418.0</ele><time>2026-04-25T12:55:18.999Z</time></trkpt><trkpt lat="40.63834079760041" lon="15.047712693542893"><ele>417.0</ele><time>2026-04-25T12:55:19.999Z</time></trkpt><trkpt lat="40.63818469376117" lon="15.047721117398769"><ele>416.0</ele><time>2026-04-25T12:55:20.999Z</time></trkpt><trkpt lat="40.638053262198966" lon="15.047682683041321"><ele>415.0</ele><time>2026-04-25T12:55:21.999Z</time></trkpt><trkpt lat="40.637925648794976" lon="15.047642405148144"><ele>414.0</ele><time>2026-04-25T12:55:22.999Z</time></trkpt><trkpt lat="40.63780801072084" lon="15.047573874264684"><ele>414.25</ele><time>2026-04-25T12:55:23.999Z</time></trkpt><trkpt lat="40.637695538535965" lon="15.047496046867863"><ele>414.5</ele><time>2026-04-25T12:55:24.999Z</time></trkpt><trkpt lat="40.6376191242854" lon="15.047425075545146"><ele>414.75</ele><time>2026-04-25T12:55:25.999Z</time></trkpt><trkpt lat="40.6375464220523" lon="15.04731851745719"><ele>415.0</ele><time>2026-04-25T12:55:27.999Z</time></trkpt><trkpt lat="40.63741950371028" lon="15.0473259004921"><ele>415.00000000000006</ele><time>2026-04-25T12:55:31Z</time></trkpt><trkpt lat="40.637361951521996" lon="15.047370579825879"><ele>415.0</ele><time>2026-04-25T12:55:33Z</time></trkpt><trkpt lat="40.6372942451254" lon="15.047375454564488"><ele>415.0</ele><time>2026-04-25T12:55:35Z</time></trkpt><trkpt lat="40.637215517639" lon="15.047428387769202"><ele>415.0</ele><time>2026-04-25T12:55:37Z</time></trkpt><trkpt lat="40.637142055013555" lon="15.047466240713794"><ele>415.00000000000006</ele><time>2026-04-25T12:56:03Z</time></trkpt><trkpt lat="40.63706782580687" lon="15.047445655503278"><ele>415.0</ele><time>2026-04-25T12:56:05Z</time></trkpt><trkpt lat="40.63699680751739" lon="15.04737950309855"><ele>411.6666666666667</ele><time>2026-04-25T12:56:07Z</time></trkpt><trkpt lat="40.63693785691036" lon="15.047333702527833"><ele>408.33333333333337</ele><time>2026-04-25T12:56:08Z</time></trkpt><trkpt lat="40.63687078974036" lon="15.047289828031943"><ele>405.0</ele><time>2026-04-25T12:56:09Z</time></trkpt><trkpt lat="40.63681841153584" lon="15.04719218605695"><ele>401.66666666666663</ele><time>2026-04-25T12:56:10Z</time></trkpt><trkpt lat="40.63674990343047" lon="15.04714427167906"><ele>398.3333333333333</ele><time>2026-04-25T12:56:11Z</time></trkpt><trkpt lat="40.63666159400894" lon="15.047127076513659"><ele>395.0</ele><time>2026-04-25T12:56:12Z</time></trkpt><trkpt lat="40.63657515848032" lon="15.047095469892128"><ele>394.99999999999994</ele><time>2026-04-25T12:56:13Z</time></trkpt><trkpt lat="40.636511308623504" lon="15.04707034420528"><ele>395.0</ele><time>2026-04-25T12:56:14Z</time></trkpt><trkpt lat="40.6364629542182" lon="15.04701718059789"><ele>395.0</ele><time>2026-04-25T12:56:15Z</time></trkpt><trkpt lat="40.636413188723544" lon="15.0469470232503"><ele>395.0</ele><time>2026-04-25T12:56:16Z</time></trkpt><trkpt lat="40.63633915707495" lon="15.046841976133202"><ele>394.99999999999994</ele><time>2026-04-25T12:56:17Z</time></trkpt><trkpt lat="40.63624700078" lon="15.04672545244496"><ele>395.0</ele><time>2026-04-25T12:56:18Z</time></trkpt><trkpt lat="40.6361643059614" lon="15.046578933575022"><ele>391.75</ele><time>2026-04-25T12:56:19Z</time></trkpt><trkpt lat="40.636060120233275" lon="15.04646192397915"><ele>388.5</ele><time>2026-04-25T12:56:20Z</time></trkpt><trkpt lat="40.635977999186615" lon="15.046338701255545"><ele>385.25</ele><time>2026-04-25T12:56:21Z</time></trkpt><trkpt lat="40.63589973020716" lon="15.046243924643665"><ele>382.0</ele><time>2026-04-25T12:56:22Z</time></trkpt><trkpt lat="40.635824825100336" lon="15.046169221458928"><ele>382.0</ele><time>2026-04-25T12:56:23Z</time></trkpt><trkpt lat="40.63576495269314" lon="15.046093014187788"><ele>382.0</ele><time>2026-04-25T12:56:24Z</time></trkpt><trkpt lat="40.635703091165624" lon="15.046036877220997"><ele>382.0</ele><time>2026-04-25T12:56:25Z</time></trkpt><trkpt lat="40.635596095536215" lon="15.045958235882829"><ele>382.0</ele><time>2026-04-25T12:56:27Z</time></trkpt><trkpt lat="40.635534109494074" lon="15.045927070009796"><ele>382.0</ele><time>2026-04-25T12:56:28Z</time></trkpt><trkpt lat="40.635394540168704" lon="15.045928786407655"><ele>382.0</ele><time>2026-04-25T12:56:30Z</time></trkpt><trkpt lat="40.63532551448994" lon="15.045984545420955"><ele>382.0</ele><time>2026-04-25T12:56:31Z</time></trkpt><trkpt lat="40.63526142275163" lon="15.046074870499028"><ele>382.0</ele><time>2026-04-25T12:56:32Z</time></trkpt><trkpt lat="40.63517898644189" lon="15.04616778701981"><ele>382.0</ele><time>2026-04-25T12:56:33Z</time></trkpt><trkpt lat="40.63510311913016" lon="15.046278495269126"><ele>382.0</ele><time>2026-04-25T12:56:34Z</time></trkpt><trkpt lat="40.63503213472829" lon="15.046381905938977"><ele>381.6</ele><time>2026-04-25T12:56:35Z</time></trkpt><trkpt lat="40.6349734571453" lon="15.046476811060252"><ele>381.20000000000005</ele><time>2026-04-25T12:56:36Z</time></trkpt><trkpt lat="40.63491787793347" lon="15.046567455599426"><ele>380.8</ele><time>2026-04-25T12:56:37Z</time></trkpt><trkpt lat="40.634871366700445" lon="15.046649285122601"><ele>380.4</ele><time>2026-04-25T12:56:38Z</time></trkpt><trkpt lat="40.63482992630302" lon="15.046717369835768"><ele>380.0</ele><time>2026-04-25T12:56:39Z</time></trkpt><trkpt lat="40.63471871508637" lon="15.046858084336185"><ele>381.0</ele><time>2026-04-25T12:56:41Z</time></trkpt><trkpt lat="40.63462820126767" lon="15.046939416797724"><ele>382.0</ele><time>2026-04-25T12:56:42Z</time></trkpt><trkpt lat="40.63453724528938" lon="15.047008118679914"><ele>383.0</ele><time>2026-04-25T12:56:43Z</time></trkpt><trkpt lat="40.63446042348927" lon="15.04705995308077"><ele>384.0</ele><time>2026-04-25T12:56:44Z</time></trkpt><trkpt lat="40.634397450165515" lon="15.047082278075937"><ele>385.0</ele><time>2026-04-25T12:56:45Z</time></trkpt><trkpt lat="40.63428306907682" lon="15.047131056658841"><ele>382.50000000000006</ele><time>2026-04-25T12:56:47Z</time></trkpt><trkpt lat="40.634228081325105" lon="15.047182449304694"><ele>380.0</ele><time>2026-04-25T12:56:48Z</time></trkpt><trkpt lat="40.63414559216858" lon="15.047228807925901"><ele>377.5</ele><time>2026-04-25T12:56:49Z</time></trkpt><trkpt lat="40.63405781858662" lon="15.047288358060305"><ele>375.0</ele><time>2026-04-25T12:56:50Z</time></trkpt><trkpt lat="40.63397414781092" lon="15.047355135294586"><ele>372.5</ele><time>2026-04-25T12:56:51Z</time></trkpt><trkpt lat="40.63391123880496" lon="15.047411611367528"><ele>370.0</ele><time>2026-04-25T12:56:52Z</time></trkpt><trkpt lat="40.633858857220815" lon="15.047463986031353"><ele>370.0</ele><time>2026-04-25T12:56:53Z</time></trkpt><trkpt lat="40.63380180990443" lon="15.047523075923145"><ele>370.0</ele><time>2026-04-25T12:56:54Z</time></trkpt><trkpt lat="40.63370291444755" lon="15.047613504144975"><ele>370.0</ele><time>2026-04-25T12:56:56Z</time></trkpt><trkpt lat="40.63364308751373" lon="15.047662176838186"><ele>370.0</ele><time>2026-04-25T12:56:57Z</time></trkpt><trkpt lat="40.63359236862175" lon="15.04772024858503"><ele>370.0</ele><time>2026-04-25T12:56:58Z</time></trkpt><trkpt lat="40.6335405819023" lon="15.047851099404841"><ele>370.0</ele><time>2026-04-25T12:57:00Z</time></trkpt><trkpt lat="40.633517235088284" lon="15.04795046471881"><ele>370.0</ele><time>2026-04-25T12:57:02Z</time></trkpt><trkpt lat="40.63357292794553" lon="15.04810096927531"><ele>370.0</ele><time>2026-04-25T12:57:04Z</time></trkpt><trkpt lat="40.63363026142192" lon="15.048194672192565"><ele>370.0</ele><time>2026-04-25T12:57:05Z</time></trkpt><trkpt lat="40.63368195034581" lon="15.048273322245413"><ele>370.0</ele><time>2026-04-25T12:57:06Z</time></trkpt><trkpt lat="40.63372189104091" lon="15.048339370804445"><ele>370.0</ele><time>2026-04-25T12:57:07Z</time></trkpt><trkpt lat="40.63376120342049" lon="15.048453797916409"><ele>370.0</ele><time>2026-04-25T12:57:08.999Z</time></trkpt><trkpt lat="40.6337301404078" lon="15.048540566195213"><ele>370.0</ele><time>2026-04-25T12:57:10.999Z</time></trkpt><trkpt lat="40.63368651598898" lon="15.048624171520453"><ele>370.0</ele><time>2026-04-25T12:57:11.999Z</time></trkpt><trkpt lat="40.63359568758316" lon="15.048682217014603"><ele>370.0</ele><time>2026-04-25T12:57:12.999Z</time></trkpt><trkpt lat="40.6334894807147" lon="15.0487710526175"><ele>370.0</ele><time>2026-04-25T12:57:13.999Z</time></trkpt><trkpt lat="40.6333727412503" lon="15.048881871663031"><ele>368.0</ele><time>2026-04-25T12:57:14.999Z</time></trkpt><trkpt lat="40.63326893492234" lon="15.04897637389772"><ele>366.0</ele><time>2026-04-25T12:57:15.999Z</time></trkpt><trkpt lat="40.633164963922134" lon="15.049060968560877"><ele>364.0</ele><time>2026-04-25T12:57:16.999Z</time></trkpt><trkpt lat="40.63307047660862" lon="15.049130330684834"><ele>362.0</ele><time>2026-04-25T12:57:17.999Z</time></trkpt><trkpt lat="40.63298510718814" lon="15.049189745952132"><ele>362.0</ele><time>2026-04-25T12:57:18.999Z</time></trkpt><trkpt lat="40.63290950440544" lon="15.049247132456475"><ele>362.0</ele><time>2026-04-25T12:57:19.999Z</time></trkpt><trkpt lat="40.63283592450599" lon="15.049315440226257"><ele>362.0</ele><time>2026-04-25T12:57:20.999Z</time></trkpt><trkpt lat="40.632757427108515" lon="15.049392271989316"><ele>362.0</ele><time>2026-04-25T12:57:21.999Z</time></trkpt><trkpt lat="40.632685440543554" lon="15.049472208017615"><ele>362.0</ele><time>2026-04-25T12:57:22.999Z</time></trkpt><trkpt lat="40.63262680898776" lon="15.049547330657614"><ele>360.33333333333337</ele><time>2026-04-25T12:57:23.999Z</time></trkpt><trkpt lat="40.632575208592264" lon="15.049612889536807"><ele>358.6666666666667</ele><time>2026-04-25T12:57:24.999Z</time></trkpt><trkpt lat="40.63251617750507" lon="15.049669076262184"><ele>357.0</ele><time>2026-04-25T12:57:25.999Z</time></trkpt><trkpt lat="40.63244031836486" lon="15.049714057157148"><ele>355.3333333333333</ele><time>2026-04-25T12:57:26.999Z</time></trkpt><trkpt lat="40.63237998267695" lon="15.049766924962539"><ele>353.66666666666663</ele><time>2026-04-25T12:57:27.999Z</time></trkpt><trkpt lat="40.632322802966954" lon="15.049865484198895"><ele>352.0</ele><time>2026-04-25T12:57:28.999Z</time></trkpt><trkpt lat="40.63226737361161" lon="15.049988981087637"><ele>352.0</ele><time>2026-04-25T12:57:29.999Z</time></trkpt><trkpt lat="40.63221076886188" lon="15.050121471064537"><ele>352.0</ele><time>2026-04-25T12:57:30.999Z</time></trkpt><trkpt lat="40.63215536192418" lon="15.05023431530491"><ele>352.0</ele><time>2026-04-25T12:57:31.999Z</time></trkpt><trkpt lat="40.63211455365647" lon="15.050326377890544"><ele>352.0</ele><time>2026-04-25T12:57:32.999Z</time></trkpt><trkpt lat="40.632061217389094" lon="15.050469790159678"><ele>352.0</ele><time>2026-04-25T12:57:34.999Z</time></trkpt><trkpt lat="40.632022301015226" lon="15.050576609686301"><ele>349.0</ele><time>2026-04-25T12:57:35.999Z</time></trkpt><trkpt lat="40.631903169599774" lon="15.0506448153165"><ele>346.0</ele><time>2026-04-25T12:57:37Z</time></trkpt><trkpt lat="40.63183864988503" lon="15.050739402755985"><ele>343.0</ele><time>2026-04-25T12:57:38Z</time></trkpt><trkpt lat="40.63178650247575" lon="15.050836424284782"><ele>340.0</ele><time>2026-04-25T12:57:39Z</time></trkpt><trkpt lat="40.63173780390107" lon="15.050930591185473"><ele>337.0</ele><time>2026-04-25T12:57:40Z</time></trkpt><trkpt lat="40.63168977040194" lon="15.051022544104411"><ele>337.0</ele><time>2026-04-25T12:57:41Z</time></trkpt><trkpt lat="40.631641082957465" lon="15.051111119430347"><ele>337.0</ele><time>2026-04-25T12:57:42Z</time></trkpt><trkpt lat="40.63158746831435" lon="15.05120003648631"><ele>337.0</ele><time>2026-04-25T12:57:43Z</time></trkpt><trkpt lat="40.631537429836825" lon="15.051290041584545"><ele>337.0</ele><time>2026-04-25T12:57:44Z</time></trkpt><trkpt lat="40.63147161470211" lon="15.051371033820063"><ele>337.0</ele><time>2026-04-25T12:57:45Z</time></trkpt><trkpt lat="40.63138272772717" lon="15.051430856190125"><ele>337.0</ele><time>2026-04-25T12:57:46Z</time></trkpt><trkpt lat="40.6312781289456" lon="15.051465871460266"><ele>337.0</ele><time>2026-04-25T12:57:47Z</time></trkpt><trkpt lat="40.63116955344192" lon="15.051485891085582"><ele>337.0</ele><time>2026-04-25T12:57:48Z</time></trkpt><trkpt lat="40.631057844050986" lon="15.051497673204594"><ele>337.0</ele><time>2026-04-25T12:57:49Z</time></trkpt><trkpt lat="40.630945499390016" lon="15.051509764273753"><ele>337.0</ele><time>2026-04-25T12:57:50Z</time></trkpt><trkpt lat="40.63083425348819" lon="15.051529682260433"><ele>337.0</ele><time>2026-04-25T12:57:51Z</time></trkpt><trkpt lat="40.63072110702062" lon="15.051559890913117"><ele>334.0</ele><time>2026-04-25T12:57:52Z</time></trkpt><trkpt lat="40.630591077124244" lon="15.051597786557709"><ele>331.0</ele><time>2026-04-25T12:57:53Z</time></trkpt><trkpt lat="40.63045139256731" lon="15.051647609432473"><ele>328.0</ele><time>2026-04-25T12:57:54Z</time></trkpt><trkpt lat="40.63031844328707" lon="15.051704783215115"><ele>325.0</ele><time>2026-04-25T12:57:55Z</time></trkpt><trkpt lat="40.630191927579666" lon="15.05175394991725"><ele>322.0</ele><time>2026-04-25T12:57:56Z</time></trkpt><trkpt lat="40.63006626980777" lon="15.051798560514102"><ele>319.0</ele><time>2026-04-25T12:57:57Z</time></trkpt><trkpt lat="40.62994447706808" lon="15.051840535609324"><ele>316.0</ele><time>2026-04-25T12:57:58Z</time></trkpt><trkpt lat="40.629825359710885" lon="15.0518789316606"><ele>313.0</ele><time>2026-04-25T12:57:59Z</time></trkpt><trkpt lat="40.62970739147872" lon="15.051908312850054"><ele>313.0</ele><time>2026-04-25T12:58:00Z</time></trkpt><trkpt lat="40.62958264582618" lon="15.051919193144744"><ele>313.0</ele><time>2026-04-25T12:58:01Z</time></trkpt><trkpt lat="40.62945689634075" lon="15.051910284203226"><ele>313.0</ele><time>2026-04-25T12:58:02Z</time></trkpt><trkpt lat="40.629336968120874" lon="15.051904225513551"><ele>313.0</ele><time>2026-04-25T12:58:03Z</time></trkpt><trkpt lat="40.62922929763767" lon="15.051897193622105"><ele>311.2</ele><time>2026-04-25T12:58:04Z</time></trkpt><trkpt lat="40.62913138966233" lon="15.051872305400108"><ele>309.4</ele><time>2026-04-25T12:58:05Z</time></trkpt><trkpt lat="40.62904821751057" lon="15.0517892177917"><ele>307.59999999999997</ele><time>2026-04-25T12:58:06Z</time></trkpt><trkpt lat="40.62897015499459" lon="15.051702050968476"><ele>305.8</ele><time>2026-04-25T12:58:07Z</time></trkpt><trkpt lat="40.62889718906641" lon="15.051600777823852"><ele>304.0</ele><time>2026-04-25T12:58:08Z</time></trkpt><trkpt lat="40.6288337152508" lon="15.051476271451268"><ele>303.2</ele><time>2026-04-25T12:58:09Z</time></trkpt><trkpt lat="40.628780283718584" lon="15.051336717108603"><ele>302.4</ele><time>2026-04-25T12:58:10Z</time></trkpt><trkpt lat="40.628736254823075" lon="15.05119880352495"><ele>301.6</ele><time>2026-04-25T12:58:11Z</time></trkpt><trkpt lat="40.62868862891742" lon="15.051075233388545"><ele>300.8</ele><time>2026-04-25T12:58:12Z</time></trkpt><trkpt lat="40.62862673805574" lon="15.050999240888217"><ele>300.0</ele><time>2026-04-25T12:58:13Z</time></trkpt><trkpt lat="40.628547918505234" lon="15.050947283913027"><ele>297.0</ele><time>2026-04-25T12:58:15Z</time></trkpt><trkpt lat="40.62850796018508" lon="15.051098017504707"><ele>294.0</ele><time>2026-04-25T12:58:17Z</time></trkpt><trkpt lat="40.628531106816624" lon="15.051192591396381"><ele>291.0</ele><time>2026-04-25T12:58:18Z</time></trkpt><trkpt lat="40.628571364884756" lon="15.051290002145006"><ele>288.0</ele><time>2026-04-25T12:58:19Z</time></trkpt><trkpt lat="40.628562198578734" lon="15.051394041241625"><ele>285.0</ele><time>2026-04-25T12:58:21Z</time></trkpt><trkpt lat="40.6284673739946" lon="15.05131328620518"><ele>285.0</ele><time>2026-04-25T12:58:23Z</time></trkpt><trkpt lat="40.628398492735776" lon="15.051199240470709"><ele>285.0</ele><time>2026-04-25T12:58:24Z</time></trkpt><trkpt lat="40.62832222985086" lon="15.051059529182279"><ele>285.0</ele><time>2026-04-25T12:58:25Z</time></trkpt><trkpt lat="40.628254881728935" lon="15.050926939012754"><ele>285.0</ele><time>2026-04-25T12:58:26Z</time></trkpt><trkpt lat="40.62818704131775" lon="15.05079385016295"><ele>284.8</ele><time>2026-04-25T12:58:27Z</time></trkpt><trkpt lat="40.62812052924175" lon="15.050669702712666"><ele>284.6</ele><time>2026-04-25T12:58:28Z</time></trkpt><trkpt lat="40.62806230681289" lon="15.050563905589557"><ele>284.4</ele><time>2026-04-25T12:58:29Z</time></trkpt><trkpt lat="40.62801248427288" lon="15.050476842520954"><ele>284.2</ele><time>2026-04-25T12:58:30Z</time></trkpt><trkpt lat="40.627939411443805" lon="15.050381029127841"><ele>284.0</ele><time>2026-04-25T12:58:32Z</time></trkpt><trkpt lat="40.627888199501584" lon="15.050442428324253"><ele>284.0</ele><time>2026-04-25T12:58:34Z</time></trkpt><trkpt lat="40.627896600465846" lon="15.050660436012713"><ele>284.0</ele><time>2026-04-25T12:58:36Z</time></trkpt><trkpt lat="40.62789947157021" lon="15.05083638660762"><ele>284.0</ele><time>2026-04-25T12:58:37Z</time></trkpt><trkpt lat="40.6279265106164" lon="15.051028844960733"><ele>284.0</ele><time>2026-04-25T12:58:38Z</time></trkpt><trkpt lat="40.62797201040603" lon="15.051197232887967"><ele>284.2</ele><time>2026-04-25T12:58:39Z</time></trkpt><trkpt lat="40.62800616166751" lon="15.051350080582116"><ele>284.4</ele><time>2026-04-25T12:58:40Z</time></trkpt><trkpt lat="40.62804382364781" lon="15.051486672980023"><ele>284.6</ele><time>2026-04-25T12:58:41Z</time></trkpt><trkpt lat="40.62805664299896" lon="15.051603220861564"><ele>284.8</ele><time>2026-04-25T12:58:42Z</time></trkpt><trkpt lat="40.62807457382339" lon="15.051684692146521"><ele>285.0</ele><time>2026-04-25T12:58:43Z</time></trkpt><trkpt lat="40.62804261623618" lon="15.051774222222255"><ele>283.0</ele><time>2026-04-25T12:58:45Z</time></trkpt><trkpt lat="40.62796349014816" lon="15.05182338778873"><ele>281.0</ele><time>2026-04-25T12:58:46Z</time></trkpt><trkpt lat="40.627823695903096" lon="15.051752067571124"><ele>279.0</ele><time>2026-04-25T12:58:47Z</time></trkpt><trkpt lat="40.62767802978297" lon="15.051671602651695"><ele>277.0</ele><time>2026-04-25T12:58:48Z</time></trkpt><trkpt lat="40.62753628457417" lon="15.051581856402532"><ele>269.25</ele><time>2026-04-25T12:58:49Z</time></trkpt><trkpt lat="40.62743694194856" lon="15.05147002693822"><ele>261.5</ele><time>2026-04-25T12:58:50Z</time></trkpt><trkpt lat="40.62733161825079" lon="15.0513746412022"><ele>253.75</ele><time>2026-04-25T12:58:51Z</time></trkpt><trkpt lat="40.627238295475365" lon="15.051299362232497"><ele>246.0</ele><time>2026-04-25T12:58:52Z</time></trkpt><trkpt lat="40.62715002866367" lon="15.051248764484265"><ele>246.0</ele><time>2026-04-25T12:58:53Z</time></trkpt><trkpt lat="40.627061124400036" lon="15.051202859657629"><ele>246.00000000000003</ele><time>2026-04-25T12:58:54Z</time></trkpt><trkpt lat="40.62695902659969" lon="15.051246180298872"><ele>246.00000000000003</ele><time>2026-04-25T12:58:55Z</time></trkpt><trkpt lat="40.6268472428143" lon="15.05128550136823"><ele>246.0</ele><time>2026-04-25T12:58:56Z</time></trkpt><trkpt lat="40.62673169946227" lon="15.051326114159846"><ele>246.0</ele><time>2026-04-25T12:58:57Z</time></trkpt><trkpt lat="40.6266253484356" lon="15.051323514099199"><ele>239.20000000000002</ele><time>2026-04-25T12:58:58Z</time></trkpt><trkpt lat="40.626521920449555" lon="15.051314937843896"><ele>232.40000000000003</ele><time>2026-04-25T12:58:59Z</time></trkpt><trkpt lat="40.62640470572716" lon="15.051273640182142"><ele>225.6</ele><time>2026-04-25T12:59:00Z</time></trkpt><trkpt lat="40.62630112556231" lon="15.05123078127467"><ele>218.8</ele><time>2026-04-25T12:59:01Z</time></trkpt><trkpt lat="40.62621223815534" lon="15.051195918978259"><ele>212.0</ele><time>2026-04-25T12:59:02Z</time></trkpt><trkpt lat="40.62611820825332" lon="15.051198150663696"><ele>207.5</ele><time>2026-04-25T12:59:03Z</time></trkpt><trkpt lat="40.62600717562248" lon="15.051259271343298"><ele>203.0</ele><time>2026-04-25T12:59:04Z</time></trkpt><trkpt lat="40.625887859700065" lon="15.051346761952573"><ele>198.5</ele><time>2026-04-25T12:59:05Z</time></trkpt><trkpt lat="40.62578247584981" lon="15.051452665705991"><ele>194.0</ele><time>2026-04-25T12:59:06Z</time></trkpt><trkpt lat="40.625682236787085" lon="15.051561613772321"><ele>200.5</ele><time>2026-04-25T12:59:07Z</time></trkpt><trkpt lat="40.62558047569003" lon="15.05165713298869"><ele>207.0</ele><time>2026-04-25T12:59:08Z</time></trkpt><trkpt lat="40.62548985699964" lon="15.05176767589664"><ele>213.5</ele><time>2026-04-25T12:59:09Z</time></trkpt><trkpt lat="40.625414868928196" lon="15.051905973123947"><ele>220.0</ele><time>2026-04-25T12:59:09.999Z</time></trkpt><trkpt lat="40.62534023501493" lon="15.052038989342332"><ele>211.25</ele><time>2026-04-25T12:59:10.999Z</time></trkpt><trkpt lat="40.62525017921456" lon="15.052155173227332"><ele>202.5</ele><time>2026-04-25T12:59:11.999Z</time></trkpt><trkpt lat="40.62515110851579" lon="15.052262317764688"><ele>193.75</ele><time>2026-04-25T12:59:12.999Z</time></trkpt><trkpt lat="40.62504564170656" lon="15.05235748190177"><ele>185.0</ele><time>2026-04-25T12:59:13.999Z</time></trkpt><trkpt lat="40.624934888354986" lon="15.052442847171621"><ele>189.5</ele><time>2026-04-25T12:59:14.999Z</time></trkpt><trkpt lat="40.624826513038656" lon="15.05253280545635"><ele>194.0</ele><time>2026-04-25T12:59:15.999Z</time></trkpt><trkpt lat="40.624717927707756" lon="15.052619425139637"><ele>198.5</ele><time>2026-04-25T12:59:16.999Z</time></trkpt><trkpt lat="40.6246129446661" lon="15.052712851662267"><ele>203.0</ele><time>2026-04-25T12:59:17.999Z</time></trkpt><trkpt lat="40.62452162125295" lon="15.052828337037601"><ele>198.4</ele><time>2026-04-25T12:59:18.999Z</time></trkpt><trkpt lat="40.62443877722024" lon="15.052956603299677"><ele>193.8</ele><time>2026-04-25T12:59:19.999Z</time></trkpt><trkpt lat="40.62436305187267" lon="15.053057704856135"><ele>189.2</ele><time>2026-04-25T12:59:20.999Z</time></trkpt><trkpt lat="40.624285194299404" lon="15.053124299674083"><ele>184.6</ele><time>2026-04-25T12:59:21.999Z</time></trkpt><trkpt lat="40.62421661797" lon="15.053183095679582"><ele>180.0</ele><time>2026-04-25T12:59:22.999Z</time></trkpt><trkpt lat="40.62417220284949" lon="15.053280103062743"><ele>180.66666666666666</ele><time>2026-04-25T12:59:23.999Z</time></trkpt><trkpt lat="40.62412946305762" lon="15.053394589666791"><ele>181.33333333333334</ele><time>2026-04-25T12:59:24.999Z</time></trkpt><trkpt lat="40.624065627707004" lon="15.053489379406626"><ele>182.0</ele><time>2026-04-25T12:59:25.999Z</time></trkpt><trkpt lat="40.623981172601596" lon="15.053565193567678"><ele>182.66666666666669</ele><time>2026-04-25T12:59:26.999Z</time></trkpt><trkpt lat="40.62391058476365" lon="15.053627727674515"><ele>183.33333333333334</ele><time>2026-04-25T12:59:27.999Z</time></trkpt><trkpt lat="40.62385938913222" lon="15.053683867302773"><ele>184.0</ele><time>2026-04-25T12:59:28.999Z</time></trkpt><trkpt lat="40.62381274105206" lon="15.053744855977405"><ele>184.0</ele><time>2026-04-25T12:59:29.999Z</time></trkpt><trkpt lat="40.623728380345995" lon="15.053840239684334"><ele>184.0</ele><time>2026-04-25T12:59:31.999Z</time></trkpt><trkpt lat="40.623640392407594" lon="15.053932745080779"><ele>184.0</ele><time>2026-04-25T12:59:33.999Z</time></trkpt><trkpt lat="40.623530758291736" lon="15.053861020351661"><ele>184.0</ele><time>2026-04-25T12:59:34.999Z</time></trkpt><trkpt lat="40.623436393417194" lon="15.053845136438673"><ele>184.0</ele><time>2026-04-25T12:59:35.999Z</time></trkpt><trkpt lat="40.62335687542896" lon="15.053831751518652"><ele>182.66666666666669</ele><time>2026-04-25T12:59:36.999Z</time></trkpt><trkpt lat="40.623280884067924" lon="15.05381896031123"><ele>181.33333333333334</ele><time>2026-04-25T12:59:37.999Z</time></trkpt><trkpt lat="40.62319573667935" lon="15.053831187555167"><ele>180.0</ele><time>2026-04-25T12:59:38.999Z</time></trkpt><trkpt lat="40.62310882396568" lon="15.053800316137515"><ele>178.66666666666666</ele><time>2026-04-25T12:59:39.999Z</time></trkpt><trkpt lat="40.62302447440579" lon="15.053792378102052"><ele>177.33333333333331</ele><time>2026-04-25T12:59:40.999Z</time></trkpt><trkpt lat="40.62294885191773" lon="15.053789351042449"><ele>176.0</ele><time>2026-04-25T12:59:41.999Z</time></trkpt><trkpt lat="40.62287250086697" lon="15.053788036125068"><ele>173.33333333333331</ele><time>2026-04-25T12:59:43Z</time></trkpt><trkpt lat="40.6227935902178" lon="15.053788036122938"><ele>170.66666666666666</ele><time>2026-04-25T12:59:44Z</time></trkpt><trkpt lat="40.622713524964155" lon="15.053791272858849"><ele>168.0</ele><time>2026-04-25T12:59:45Z</time></trkpt><trkpt lat="40.62264007741005" lon="15.053814980910003"><ele>165.33333333333334</ele><time>2026-04-25T12:59:46Z</time></trkpt><trkpt lat="40.622558753033566" lon="15.053810048854952"><ele>162.66666666666669</ele><time>2026-04-25T12:59:47Z</time></trkpt><trkpt lat="40.62248250230688" lon="15.053815823218567"><ele>160.0</ele><time>2026-04-25T12:59:48Z</time></trkpt><trkpt lat="40.622395267978824" lon="15.053820357214414"><ele>160.0</ele><time>2026-04-25T12:59:49Z</time></trkpt><trkpt lat="40.62228295194687" lon="15.053820143260477"><ele>160.0</ele><time>2026-04-25T12:59:50Z</time></trkpt><trkpt lat="40.622173676851794" lon="15.053836616219348"><ele>160.0</ele><time>2026-04-25T12:59:51Z</time></trkpt><trkpt lat="40.62207557280229" lon="15.053818450829226"><ele>160.0</ele><time>2026-04-25T12:59:52Z</time></trkpt><trkpt lat="40.62198150611911" lon="15.053821592900931"><ele>160.0</ele><time>2026-04-25T12:59:53Z</time></trkpt><trkpt lat="40.621898549329856" lon="15.053831585240713"><ele>160.0</ele><time>2026-04-25T12:59:54Z</time></trkpt><trkpt lat="40.621821585304936" lon="15.053868181799738"><ele>160.0</ele><time>2026-04-25T12:59:55Z</time></trkpt><trkpt lat="40.62175883461671" lon="15.0538928918511"><ele>160.0</ele><time>2026-04-25T12:59:56Z</time></trkpt><trkpt lat="40.62168784185701" lon="15.053915194567093"><ele>160.0</ele><time>2026-04-25T12:59:57Z</time></trkpt><trkpt lat="40.62166006859496" lon="15.054004092934052"><ele>160.0</ele><time>2026-04-25T12:59:58Z</time></trkpt><trkpt lat="40.62162669658489" lon="15.054079025632387"><ele>160.0</ele><time>2026-04-25T12:59:59Z</time></trkpt><trkpt lat="40.621578549121985" lon="15.054135708522482"><ele>160.0</ele><time>2026-04-25T13:00:00Z</time></trkpt><trkpt lat="40.62153747568892" lon="15.054244328941222"><ele>160.0</ele><time>2026-04-25T13:00:02Z</time></trkpt><trkpt lat="40.62149821353622" lon="15.054356260674918"><ele>160.0</ele><time>2026-04-25T13:00:04Z</time></trkpt><trkpt lat="40.621459740163225" lon="15.054519810062331"><ele>160.0</ele><time>2026-04-25T13:00:06Z</time></trkpt><trkpt lat="40.62141861458362" lon="15.05460602005427"><ele>160.0</ele><time>2026-04-25T13:00:07Z</time></trkpt><trkpt lat="40.621389667652984" lon="15.054694532825174"><ele>160.0</ele><time>2026-04-25T13:00:08Z</time></trkpt><trkpt lat="40.62135107242125" lon="15.054815219072443"><ele>160.0</ele><time>2026-04-25T13:00:09Z</time></trkpt><trkpt lat="40.621316459654636" lon="15.05494534533145"><ele>160.0</ele><time>2026-04-25T13:00:10Z</time></trkpt><trkpt lat="40.62126698154081" lon="15.05504702010635"><ele>160.0</ele><time>2026-04-25T13:00:11Z</time></trkpt><trkpt lat="40.62122333114285" lon="15.055146169494956"><ele>160.0</ele><time>2026-04-25T13:00:12Z</time></trkpt><trkpt lat="40.621174970335716" lon="15.055222670024422"><ele>160.0</ele><time>2026-04-25T13:00:13Z</time></trkpt><trkpt lat="40.62113274586309" lon="15.055287298508066"><ele>160.0</ele><time>2026-04-25T13:00:14Z</time></trkpt><trkpt lat="40.6210554260928" lon="15.055336554010838"><ele>160.66666666666669</ele><time>2026-04-25T13:00:16Z</time></trkpt><trkpt lat="40.62101447849165" lon="15.055413778193675"><ele>161.33333333333334</ele><time>2026-04-25T13:00:19Z</time></trkpt><trkpt lat="40.62093429462564" lon="15.055448223004014"><ele>162.0</ele><time>2026-04-25T13:00:22Z</time></trkpt><trkpt lat="40.62087984772232" lon="15.0554982963056"><ele>162.66666666666666</ele><time>2026-04-25T13:00:24Z</time></trkpt><trkpt lat="40.620805114999875" lon="15.055523725748026"><ele>163.33333333333331</ele><time>2026-04-25T13:00:27Z</time></trkpt><trkpt lat="40.62073339393205" lon="15.055553506998752"><ele>164.0</ele><time>2026-04-25T13:00:29Z</time></trkpt><trkpt lat="40.620632787094266" lon="15.055608706364604"><ele>164.0</ele><time>2026-04-25T13:00:31Z</time></trkpt><trkpt lat="40.62052026491796" lon="15.055644388875944"><ele>164.0</ele><time>2026-04-25T13:00:33Z</time></trkpt><trkpt lat="40.62040015250682" lon="15.055699152826058"><ele>164.0</ele><time>2026-04-25T13:00:35Z</time></trkpt><trkpt lat="40.62033019266941" lon="15.055703252709247"><ele>164.0</ele><time>2026-04-25T13:00:36Z</time></trkpt><trkpt lat="40.620236634978745" lon="15.055710551142116"><ele>164.0</ele><time>2026-04-25T13:00:38Z</time></trkpt><trkpt lat="40.62014113097843" lon="15.055711164343336"><ele>162.16666666666666</ele><time>2026-04-25T13:00:40Z</time></trkpt><trkpt lat="40.62002389474946" lon="15.055705105372287"><ele>160.33333333333331</ele><time>2026-04-25T13:00:42Z</time></trkpt><trkpt lat="40.61995763907259" lon="15.055773809641906"><ele>158.5</ele><time>2026-04-25T13:00:43Z</time></trkpt><trkpt lat="40.61988776425145" lon="15.055818845328337"><ele>156.66666666666666</ele><time>2026-04-25T13:00:44Z</time></trkpt><trkpt lat="40.61984013058553" lon="15.055890595772158"><ele>154.83333333333334</ele><time>2026-04-25T13:00:45Z</time></trkpt><trkpt lat="40.619790865088916" lon="15.055948388831846"><ele>153.0</ele><time>2026-04-25T13:00:46Z</time></trkpt><trkpt lat="40.61974827668742" lon="15.056015672236457"><ele>151.0</ele><time>2026-04-25T13:00:47Z</time></trkpt><trkpt lat="40.61965331303938" lon="15.056106078261548"><ele>149.0</ele><time>2026-04-25T13:00:49Z</time></trkpt><trkpt lat="40.61953850360508" lon="15.056028845502405"><ele>147.0</ele><time>2026-04-25T13:00:50Z</time></trkpt><trkpt lat="40.6194372628392" lon="15.056137792696552"><ele>145.0</ele><time>2026-04-25T13:00:52Z</time></trkpt><trkpt lat="40.61933760848296" lon="15.056210276876635"><ele>144.25</ele><time>2026-04-25T13:00:54Z</time></trkpt><trkpt lat="40.619428528895384" lon="15.056470944168277"><ele>143.5</ele><time>2026-04-25T13:00:56Z</time></trkpt><trkpt lat="40.619454873790936" lon="15.056565663700239"><ele>142.75</ele><time>2026-04-25T13:00:57Z</time></trkpt><trkpt lat="40.619445389603975" lon="15.056690110485977"><ele>142.0</ele><time>2026-04-25T13:00:59Z</time></trkpt><trkpt lat="40.61950375728192" lon="15.056832092403091"><ele>141.79999999999998</ele><time>2026-04-25T13:01:01Z</time></trkpt><trkpt lat="40.61950983564026" lon="15.056966700405832"><ele>141.6</ele><time>2026-04-25T13:01:03Z</time></trkpt><trkpt lat="40.61956575354501" lon="15.05713218969047"><ele>141.39999999999998</ele><time>2026-04-25T13:01:05Z</time></trkpt><trkpt lat="40.619461164238345" lon="15.057061858486426"><ele>141.2</ele><time>2026-04-25T13:01:06Z</time></trkpt><trkpt lat="40.61943453381179" lon="15.057146933517096"><ele>141.0</ele><time>2026-04-25T13:01:10Z</time></trkpt><trkpt lat="40.61944989425119" lon="15.057300327343395"><ele>141.0</ele><time>2026-04-25T13:01:14Z</time></trkpt><trkpt lat="40.61938548756661" lon="15.05732248073706"><ele>141.0</ele><time>2026-04-25T13:01:24.999Z</time></trkpt><trkpt lat="40.61931890312716" lon="15.057422615903558"><ele>141.0</ele><time>2026-04-25T13:01:30.999Z</time></trkpt><trkpt lat="40.619235068532674" lon="15.05746454867931"><ele>141.0</ele><time>2026-04-25T13:01:31.999Z</time></trkpt><trkpt lat="40.61914550343524" lon="15.057494752680553"><ele>141.0</ele><time>2026-04-25T13:01:32.999Z</time></trkpt><trkpt lat="40.61909354571869" lon="15.057553097975404"><ele>141.0</ele><time>2026-04-25T13:01:33.999Z</time></trkpt><trkpt lat="40.619001060468115" lon="15.057617310131672"><ele>139.33333333333334</ele><time>2026-04-25T13:01:35.999Z</time></trkpt><trkpt lat="40.6189264833512" lon="15.057617644718178"><ele>137.66666666666666</ele><time>2026-04-25T13:01:36.999Z</time></trkpt><trkpt lat="40.61885390077929" lon="15.057652592016638"><ele>136.0</ele><time>2026-04-25T13:01:37.999Z</time></trkpt><trkpt lat="40.618770037248055" lon="15.057683755527194"><ele>134.33333333333331</ele><time>2026-04-25T13:01:38.999Z</time></trkpt><trkpt lat="40.61868836608475" lon="15.057702761753054"><ele>132.66666666666666</ele><time>2026-04-25T13:01:39.999Z</time></trkpt><trkpt lat="40.61858323873337" lon="15.0577709274015"><ele>131.0</ele><time>2026-04-25T13:01:41.999Z</time></trkpt><trkpt lat="40.61846952190448" lon="15.057829197027354"><ele>130.16666666666666</ele><time>2026-04-25T13:01:43.999Z</time></trkpt><trkpt lat="40.618386932386656" lon="15.057822985029642"><ele>129.33333333333331</ele><time>2026-04-25T13:01:44.999Z</time></trkpt><trkpt lat="40.61831897630784" lon="15.057808829353831"><ele>128.5</ele><time>2026-04-25T13:01:47.999Z</time></trkpt><trkpt lat="40.61828386499506" lon="15.057720083620923"><ele>127.66666666666666</ele><time>2026-04-25T13:01:50Z</time></trkpt><trkpt lat="40.618259128174344" lon="15.057622033295893"><ele>126.83333333333333</ele><time>2026-04-25T13:01:51Z</time></trkpt><trkpt lat="40.61817889536156" lon="15.057516153767082"><ele>126.0</ele><time>2026-04-25T13:01:53Z</time></trkpt><trkpt lat="40.618053117395355" lon="15.057485470881884"><ele>126.0</ele><time>2026-04-25T13:01:55Z</time></trkpt><trkpt lat="40.61799337036594" lon="15.057515372857198"><ele>126.0</ele><time>2026-04-25T13:01:56Z</time></trkpt><trkpt lat="40.61790204793809" lon="15.05753763050429"><ele>126.0</ele><time>2026-04-25T13:01:58Z</time></trkpt><trkpt lat="40.61779510473013" lon="15.057551764220145"><ele>126.0</ele><time>2026-04-25T13:02:00Z</time></trkpt><trkpt lat="40.617730928332" lon="15.057567432349455"><ele>126.0</ele><time>2026-04-25T13:02:01Z</time></trkpt><trkpt lat="40.61765880504814" lon="15.057592882575582"><ele>126.0</ele><time>2026-04-25T13:02:02Z</time></trkpt><trkpt lat="40.6175799274938" lon="15.057620426609942"><ele>124.5</ele><time>2026-04-25T13:02:03Z</time></trkpt><trkpt lat="40.617508941482534" lon="15.05764864979197"><ele>123.0</ele><time>2026-04-25T13:02:04Z</time></trkpt><trkpt lat="40.61743766863327" lon="15.05767219763104"><ele>121.5</ele><time>2026-04-25T13:02:05Z</time></trkpt><trkpt lat="40.61736257123135" lon="15.057700747378203"><ele>120.0</ele><time>2026-04-25T13:02:06Z</time></trkpt><trkpt lat="40.617278662039524" lon="15.057721883709291"><ele>118.5</ele><time>2026-04-25T13:02:07Z</time></trkpt><trkpt lat="40.6172095908802" lon="15.057755027872322"><ele>117.0</ele><time>2026-04-25T13:02:08Z</time></trkpt><trkpt lat="40.61713803181783" lon="15.057777717194343"><ele>117.0</ele><time>2026-04-25T13:02:09Z</time></trkpt><trkpt lat="40.61702926780562" lon="15.057818496429686"><ele>117.0</ele><time>2026-04-25T13:02:11Z</time></trkpt><trkpt lat="40.61691987356773" lon="15.057832486044111"><ele>117.0</ele><time>2026-04-25T13:02:13Z</time></trkpt><trkpt lat="40.61680967727167" lon="15.057877504225974"><ele>117.0</ele><time>2026-04-25T13:02:15Z</time></trkpt><trkpt lat="40.61668839844924" lon="15.057915263376575"><ele>116.0</ele><time>2026-04-25T13:02:17Z</time></trkpt><trkpt lat="40.616565846253174" lon="15.05795400083863"><ele>115.0</ele><time>2026-04-25T13:02:19Z</time></trkpt><trkpt lat="40.61650283407059" lon="15.05796855577952"><ele>114.0</ele><time>2026-04-25T13:02:20Z</time></trkpt><trkpt lat="40.61643364456313" lon="15.057977213233894"><ele>113.0</ele><time>2026-04-25T13:02:21Z</time></trkpt><trkpt lat="40.61637441341352" lon="15.058007979067186"><ele>112.0</ele><time>2026-04-25T13:02:22Z</time></trkpt><trkpt lat="40.61631350597503" lon="15.058030877483805"><ele>111.0</ele><time>2026-04-25T13:02:23Z</time></trkpt><trkpt lat="40.616247005786015" lon="15.058053375742556"><ele>111.0</ele><time>2026-04-25T13:02:24Z</time></trkpt><trkpt lat="40.616180737467154" lon="15.058080011075575"><ele>111.0</ele><time>2026-04-25T13:02:25Z</time></trkpt><trkpt lat="40.616113347221834" lon="15.05809611749736"><ele>111.0</ele><time>2026-04-25T13:02:26Z</time></trkpt><trkpt lat="40.61604385310964" lon="15.058104451212994"><ele>111.0</ele><time>2026-04-25T13:02:27Z</time></trkpt><trkpt lat="40.61596921540289" lon="15.05811317340313"><ele>111.0</ele><time>2026-04-25T13:02:28Z</time></trkpt><trkpt lat="40.615896238953184" lon="15.058120719010098"><ele>111.0</ele><time>2026-04-25T13:02:29Z</time></trkpt><trkpt lat="40.61578943999952" lon="15.058158998551098"><ele>110.83333333333333</ele><time>2026-04-25T13:02:31Z</time></trkpt><trkpt lat="40.615722067463274" lon="15.058191048751508"><ele>110.66666666666666</ele><time>2026-04-25T13:02:33Z</time></trkpt><trkpt lat="40.61564209835465" lon="15.058209303027589"><ele>110.5</ele><time>2026-04-25T13:02:35Z</time></trkpt><trkpt lat="40.61553701016479" lon="15.058241299756085"><ele>110.33333333333333</ele><time>2026-04-25T13:02:37Z</time></trkpt><trkpt lat="40.61544931332872" lon="15.058246695570782"><ele>110.16666666666666</ele><time>2026-04-25T13:02:39Z</time></trkpt><trkpt lat="40.615382867402836" lon="15.05829588764793"><ele>110.0</ele><time>2026-04-25T13:02:42Z</time></trkpt><trkpt lat="40.6153174517559" lon="15.058288996578662"><ele>109.33333333333333</ele><time>2026-04-25T13:02:44Z</time></trkpt><trkpt lat="40.61525800495335" lon="15.05822939232694"><ele>108.66666666666666</ele><time>2026-04-25T13:02:45Z</time></trkpt><trkpt lat="40.615179341663264" lon="15.058170380413753"><ele>108.0</ele><time>2026-04-25T13:02:46Z</time></trkpt><trkpt lat="40.61511752805708" lon="15.058083173208438"><ele>107.33333333333334</ele><time>2026-04-25T13:02:47Z</time></trkpt><trkpt lat="40.615056389870915" lon="15.058002761949082"><ele>106.66666666666667</ele><time>2026-04-25T13:02:48Z</time></trkpt><trkpt lat="40.61499054879432" lon="15.057919961705744"><ele>106.0</ele><time>2026-04-25T13:02:49Z</time></trkpt><trkpt lat="40.61491790199809" lon="15.057833067398226"><ele>106.0</ele><time>2026-04-25T13:02:50Z</time></trkpt><trkpt lat="40.61485968144612" lon="15.057730822955774"><ele>106.0</ele><time>2026-04-25T13:02:51Z</time></trkpt><trkpt lat="40.614799888149875" lon="15.057621930901053"><ele>106.0</ele><time>2026-04-25T13:02:52Z</time></trkpt><trkpt lat="40.61473906119149" lon="15.057499704992031"><ele>106.0</ele><time>2026-04-25T13:02:53Z</time></trkpt><trkpt lat="40.61467976736208" lon="15.057372318728863"><ele>106.0</ele><time>2026-04-25T13:02:54Z</time></trkpt><trkpt lat="40.61462618487619" lon="15.057234993641845"><ele>105.75</ele><time>2026-04-25T13:02:55Z</time></trkpt><trkpt lat="40.61457869095001" lon="15.057092395616705"><ele>105.5</ele><time>2026-04-25T13:02:56Z</time></trkpt><trkpt lat="40.61453885188013" lon="15.056934079484417"><ele>105.25</ele><time>2026-04-25T13:02:57Z</time></trkpt><trkpt lat="40.614497006746596" lon="15.056749592919143"><ele>105.0</ele><time>2026-04-25T13:02:58Z</time></trkpt><trkpt lat="40.61445732684095" lon="15.056561069712348"><ele>103.75</ele><time>2026-04-25T13:02:59Z</time></trkpt><trkpt lat="40.61441415669434" lon="15.056382666646353"><ele>102.5</ele><time>2026-04-25T13:03:00Z</time></trkpt><trkpt lat="40.61437055583016" lon="15.056201198006875"><ele>101.25</ele><time>2026-04-25T13:03:01Z</time></trkpt><trkpt lat="40.61432506414973" lon="15.056009653666306"><ele>100.0</ele><time>2026-04-25T13:03:02Z</time></trkpt><trkpt lat="40.614267251067126" lon="15.05581727667794"><ele>99.5</ele><time>2026-04-25T13:03:03Z</time></trkpt><trkpt lat="40.61419719580376" lon="15.055632908132218"><ele>99.0</ele><time>2026-04-25T13:03:04Z</time></trkpt><trkpt lat="40.61412643643288" lon="15.055463935734998"><ele>98.5</ele><time>2026-04-25T13:03:05Z</time></trkpt><trkpt lat="40.61406346920542" lon="15.05529852825896"><ele>98.0</ele><time>2026-04-25T13:03:06Z</time></trkpt><trkpt lat="40.61400525926766" lon="15.055137360925125"><ele>98.0</ele><time>2026-04-25T13:03:07Z</time></trkpt><trkpt lat="40.613941437129036" lon="15.054980786800021"><ele>98.0</ele><time>2026-04-25T13:03:08Z</time></trkpt><trkpt lat="40.613881871426244" lon="15.054823611284421"><ele>98.0</ele><time>2026-04-25T13:03:09Z</time></trkpt><trkpt lat="40.61382440313331" lon="15.05466322548271"><ele>98.0</ele><time>2026-04-25T13:03:10Z</time></trkpt><trkpt lat="40.61376118841486" lon="15.054507520268814"><ele>97.75</ele><time>2026-04-25T13:03:11Z</time></trkpt><trkpt lat="40.61370159861632" lon="15.054358439620284"><ele>97.5</ele><time>2026-04-25T13:03:12Z</time></trkpt><trkpt lat="40.61364065863208" lon="15.054220233715103"><ele>97.25</ele><time>2026-04-25T13:03:13Z</time></trkpt><trkpt lat="40.61358724260119" lon="15.054082720542613"><ele>97.0</ele><time>2026-04-25T13:03:14Z</time></trkpt><trkpt lat="40.61353423970122" lon="15.053951470871924"><ele>97.6</ele><time>2026-04-25T13:03:15Z</time></trkpt><trkpt lat="40.613485268573854" lon="15.053826784255598"><ele>98.19999999999999</ele><time>2026-04-25T13:03:16Z</time></trkpt><trkpt lat="40.61343502267084" lon="15.053702626283947"><ele>98.8</ele><time>2026-04-25T13:03:17Z</time></trkpt><trkpt lat="40.61338275942343" lon="15.053568909832082"><ele>99.4</ele><time>2026-04-25T13:03:18Z</time></trkpt><trkpt lat="40.6133306213267" lon="15.053440865450744"><ele>100.0</ele><time>2026-04-25T13:03:19Z</time></trkpt><trkpt lat="40.6132866648488" lon="15.053321384303354"><ele>100.0</ele><time>2026-04-25T13:03:20Z</time></trkpt><trkpt lat="40.61325283462286" lon="15.05319178878567"><ele>100.0</ele><time>2026-04-25T13:03:21Z</time></trkpt><trkpt lat="40.61323741298988" lon="15.053033956000501"><ele>100.0</ele><time>2026-04-25T13:03:22Z</time></trkpt><trkpt lat="40.61323864340684" lon="15.05284432189887"><ele>100.0</ele><time>2026-04-25T13:03:22.999Z</time></trkpt><trkpt lat="40.613254257300724" lon="15.052645862810792"><ele>99.5</ele><time>2026-04-25T13:03:23.999Z</time></trkpt><trkpt lat="40.6132769507887" lon="15.05245531709588"><ele>99.0</ele><time>2026-04-25T13:03:24.999Z</time></trkpt><trkpt lat="40.61329598909083" lon="15.052281814933805"><ele>98.5</ele><time>2026-04-25T13:03:25.999Z</time></trkpt><trkpt lat="40.61331204982402" lon="15.052128631646777"><ele>98.0</ele><time>2026-04-25T13:03:26.999Z</time></trkpt><trkpt lat="40.61332573302087" lon="15.052001211740887"><ele>97.99999999999999</ele><time>2026-04-25T13:03:27.999Z</time></trkpt><trkpt lat="40.61333740850056" lon="15.05188845726371"><ele>98.0</ele><time>2026-04-25T13:03:28.999Z</time></trkpt><trkpt lat="40.613348809222394" lon="15.051789068642584"><ele>98.0</ele><time>2026-04-25T13:03:29.999Z</time></trkpt><trkpt lat="40.61336238825698" lon="15.051690949013256"><ele>98.0</ele><time>2026-04-25T13:03:30.999Z</time></trkpt><trkpt lat="40.613381950394604" lon="15.051609423722015"><ele>97.99999999999999</ele><time>2026-04-25T13:03:31.999Z</time></trkpt><trkpt lat="40.61344800338842" lon="15.051532021448379"><ele>98.0</ele><time>2026-04-25T13:03:34.999Z</time></trkpt><trkpt lat="40.613514534824795" lon="15.051486609951514"><ele>97.83333333333333</ele><time>2026-04-25T13:03:36.999Z</time></trkpt><trkpt lat="40.613579921917314" lon="15.051433048967077"><ele>97.66666666666666</ele><time>2026-04-25T13:03:38.999Z</time></trkpt><trkpt lat="40.613593193880696" lon="15.051337169472596"><ele>97.5</ele><time>2026-04-25T13:03:40.999Z</time></trkpt><trkpt lat="40.613522733175564" lon="15.051250862900195"><ele>97.33333333333334</ele><time>2026-04-25T13:03:42.999Z</time></trkpt><trkpt lat="40.61346423431139" lon="15.051155668146919"><ele>97.16666666666667</ele><time>2026-04-25T13:03:44.999Z</time></trkpt><trkpt lat="40.61340606981247" lon="15.051061349406755"><ele>97.0</ele><time>2026-04-25T13:03:46.999Z</time></trkpt><trkpt lat="40.613305367770366" lon="15.050915422721916"><ele>96.66666666666667</ele><time>2026-04-25T13:03:48.999Z</time></trkpt><trkpt lat="40.613219583818726" lon="15.050765672142468"><ele>96.33333333333334</ele><time>2026-04-25T13:03:49.999Z</time></trkpt><trkpt lat="40.613095432156484" lon="15.050608716142373"><ele>96.0</ele><time>2026-04-25T13:03:50.999Z</time></trkpt><trkpt lat="40.6129521462468" lon="15.050457706333226"><ele>95.33333333333333</ele><time>2026-04-25T13:03:51.999Z</time></trkpt><trkpt lat="40.61280375134075" lon="15.050284060592244"><ele>94.66666666666666</ele><time>2026-04-25T13:03:52.999Z</time></trkpt><trkpt lat="40.61266521250669" lon="15.050106842860856"><ele>94.0</ele><time>2026-04-25T13:03:54Z</time></trkpt><trkpt lat="40.612543889373605" lon="15.049960467300815"><ele>93.5</ele><time>2026-04-25T13:03:55Z</time></trkpt><trkpt lat="40.612439976879756" lon="15.049832671578853"><ele>93.0</ele><time>2026-04-25T13:03:56Z</time></trkpt><trkpt lat="40.612343492882765" lon="15.049713892806109"><ele>92.5</ele><time>2026-04-25T13:03:57Z</time></trkpt><trkpt lat="40.61225106454506" lon="15.04959888992884"><ele>92.0</ele><time>2026-04-25T13:03:58Z</time></trkpt><trkpt lat="40.61216441001301" lon="15.04948990377515"><ele>92.0</ele><time>2026-04-25T13:03:59Z</time></trkpt><trkpt lat="40.61207549264096" lon="15.049392794854615"><ele>92.0</ele><time>2026-04-25T13:04:00Z</time></trkpt><trkpt lat="40.61199914288895" lon="15.049291056431796"><ele>92.0</ele><time>2026-04-25T13:04:01Z</time></trkpt><trkpt lat="40.61192526557384" lon="15.049201635437232"><ele>92.0</ele><time>2026-04-25T13:04:02Z</time></trkpt><trkpt lat="40.611857112528156" lon="15.04911145497111"><ele>92.0</ele><time>2026-04-25T13:04:03Z</time></trkpt><trkpt lat="40.61181025517068" lon="15.049029641269172"><ele>90.8</ele><time>2026-04-25T13:04:04Z</time></trkpt><trkpt lat="40.611783323927476" lon="15.048948526488077"><ele>89.6</ele><time>2026-04-25T13:04:05Z</time></trkpt><trkpt lat="40.611775464851014" lon="15.048784515600966"><ele>88.39999999999999</ele><time>2026-04-25T13:04:07Z</time></trkpt><trkpt lat="40.61179308078333" lon="15.048696039577145"><ele>87.19999999999999</ele><time>2026-04-25T13:04:08Z</time></trkpt><trkpt lat="40.61180059203114" lon="15.048540541931924"><ele>86.0</ele><time>2026-04-25T13:04:10Z</time></trkpt><trkpt lat="40.611768499469484" lon="15.048420424048437"><ele>86.0</ele><time>2026-04-25T13:04:12Z</time></trkpt><trkpt lat="40.611694169382595" lon="15.048383334873002"><ele>86.0</ele><time>2026-04-25T13:04:13Z</time></trkpt><trkpt lat="40.611579191940876" lon="15.048355115449375"><ele>86.0</ele><time>2026-04-25T13:04:15Z</time></trkpt><trkpt lat="40.61151589986199" lon="15.04838330936122"><ele>86.0</ele><time>2026-04-25T13:04:16Z</time></trkpt><trkpt lat="40.611460446068975" lon="15.048458728097337"><ele>86.0</ele><time>2026-04-25T13:04:17Z</time></trkpt><trkpt lat="40.61142559246388" lon="15.048560233695271"><ele>86.0</ele><time>2026-04-25T13:04:18Z</time></trkpt><trkpt lat="40.61140998388505" lon="15.048672950867589"><ele>86.0</ele><time>2026-04-25T13:04:19Z</time></trkpt><trkpt lat="40.611389302743135" lon="15.048775620856802"><ele>86.0</ele><time>2026-04-25T13:04:20Z</time></trkpt><trkpt lat="40.61135169987888" lon="15.048870653541801"><ele>86.0</ele><time>2026-04-25T13:04:21Z</time></trkpt><trkpt lat="40.61129964744061" lon="15.048941494253482"><ele>86.0</ele><time>2026-04-25T13:04:22Z</time></trkpt><trkpt lat="40.61125247526864" lon="15.049029722421519"><ele>86.0</ele><time>2026-04-25T13:04:23Z</time></trkpt><trkpt lat="40.61112602239653" lon="15.049039804926691"><ele>86.0</ele><time>2026-04-25T13:04:24Z</time></trkpt><trkpt lat="40.61104323138619" lon="15.049095076581525"><ele>86.33333333333334</ele><time>2026-04-25T13:04:25Z</time></trkpt><trkpt lat="40.6109741490177" lon="15.049159857115615"><ele>86.66666666666667</ele><time>2026-04-25T13:04:26Z</time></trkpt><trkpt lat="40.61090913620939" lon="15.049227398083389"><ele>87.0</ele><time>2026-04-25T13:04:27Z</time></trkpt><trkpt lat="40.610850307645066" lon="15.049292842127983"><ele>87.33333333333333</ele><time>2026-04-25T13:04:28Z</time></trkpt><trkpt lat="40.61078301844639" lon="15.049331504545602"><ele>87.66666666666666</ele><time>2026-04-25T13:04:29Z</time></trkpt><trkpt lat="40.61071217166617" lon="15.049369897210314"><ele>88.0</ele><time>2026-04-25T13:04:30Z</time></trkpt><trkpt lat="40.610628643138725" lon="15.049343774900754"><ele>88.0</ele><time>2026-04-25T13:04:31Z</time></trkpt><trkpt lat="40.61056981993855" lon="15.049224092875003"><ele>88.0</ele><time>2026-04-25T13:04:32Z</time></trkpt><trkpt lat="40.61051568576487" lon="15.049108344373526"><ele>88.0</ele><time>2026-04-25T13:04:33Z</time></trkpt><trkpt lat="40.61048734080693" lon="15.048922033045049"><ele>88.0</ele><time>2026-04-25T13:04:34Z</time></trkpt><trkpt lat="40.610460166833654" lon="15.048754997949327"><ele>87.60000000000001</ele><time>2026-04-25T13:04:35Z</time></trkpt><trkpt lat="40.6104550261172" lon="15.0485962443284"><ele>87.2</ele><time>2026-04-25T13:04:36Z</time></trkpt><trkpt lat="40.61046921805488" lon="15.048443933677484"><ele>86.8</ele><time>2026-04-25T13:04:37Z</time></trkpt><trkpt lat="40.610497243209046" lon="15.048301544459964"><ele>86.4</ele><time>2026-04-25T13:04:38Z</time></trkpt><trkpt lat="40.61052115008877" lon="15.048181650262213"><ele>86.0</ele><time>2026-04-25T13:04:39Z</time></trkpt><trkpt lat="40.610526932098956" lon="15.048089665680356"><ele>85.83333333333334</ele><time>2026-04-25T13:04:40Z</time></trkpt><trkpt lat="40.61050867188397" lon="15.048002158317217"><ele>85.66666666666667</ele><time>2026-04-25T13:04:41Z</time></trkpt><trkpt lat="40.61046704829868" lon="15.047921191530408"><ele>85.5</ele><time>2026-04-25T13:04:42Z</time></trkpt><trkpt lat="40.610401544132344" lon="15.04785689110451"><ele>85.33333333333333</ele><time>2026-04-25T13:04:43Z</time></trkpt><trkpt lat="40.610318186135274" lon="15.047810505591116"><ele>85.16666666666666</ele><time>2026-04-25T13:04:44Z</time></trkpt><trkpt lat="40.61022267956506" lon="15.04775532848"><ele>85.0</ele><time>2026-04-25T13:04:45Z</time></trkpt><trkpt lat="40.61013299343017" lon="15.047689728946956"><ele>84.5</ele><time>2026-04-25T13:04:46Z</time></trkpt><trkpt lat="40.61004026280735" lon="15.047614148018067"><ele>84.0</ele><time>2026-04-25T13:04:47Z</time></trkpt><trkpt lat="40.60994391300326" lon="15.047555773044655"><ele>83.5</ele><time>2026-04-25T13:04:48Z</time></trkpt><trkpt lat="40.609833075847625" lon="15.047511756128484"><ele>83.0</ele><time>2026-04-25T13:04:49Z</time></trkpt><trkpt lat="40.60970946416123" lon="15.047485022487768"><ele>83.0</ele><time>2026-04-25T13:04:50Z</time></trkpt><trkpt lat="40.60958370061821" lon="15.047479863239198"><ele>83.0</ele><time>2026-04-25T13:04:51Z</time></trkpt><trkpt lat="40.60946535734261" lon="15.047490351691266"><ele>83.0</ele><time>2026-04-25T13:04:52Z</time></trkpt><trkpt lat="40.60935306938632" lon="15.047513111501182"><ele>83.0</ele><time>2026-04-25T13:04:53Z</time></trkpt><trkpt lat="40.60923529163674" lon="15.04754012913827"><ele>83.0</ele><time>2026-04-25T13:04:54Z</time></trkpt><trkpt lat="40.6091097643308" lon="15.047550005282607"><ele>83.0</ele><time>2026-04-25T13:04:55Z</time></trkpt><trkpt lat="40.608994067032285" lon="15.047571272561697"><ele>83.0</ele><time>2026-04-25T13:04:56Z</time></trkpt><trkpt lat="40.608883300738945" lon="15.047584946931563"><ele>83.0</ele><time>2026-04-25T13:04:57Z</time></trkpt><trkpt lat="40.608775458524185" lon="15.047598460201755"><ele>83.0</ele><time>2026-04-25T13:04:58Z</time></trkpt><trkpt lat="40.608667930987274" lon="15.047619718306866"><ele>83.0</ele><time>2026-04-25T13:04:59Z</time></trkpt><trkpt lat="40.60856433952082" lon="15.047640473412262"><ele>83.0</ele><time>2026-04-25T13:05:00Z</time></trkpt><trkpt lat="40.60846240381632" lon="15.047664339893693"><ele>83.0</ele><time>2026-04-25T13:05:01Z</time></trkpt><trkpt lat="40.608359584029984" lon="15.047687426453441"><ele>83.0</ele><time>2026-04-25T13:05:02Z</time></trkpt><trkpt lat="40.60824518555812" lon="15.047713320132232"><ele>81.5</ele><time>2026-04-25T13:05:03Z</time></trkpt><trkpt lat="40.60811641487952" lon="15.047742700226996"><ele>80.0</ele><time>2026-04-25T13:05:04Z</time></trkpt><trkpt lat="40.60797477315244" lon="15.047773567743114"><ele>78.5</ele><time>2026-04-25T13:05:05Z</time></trkpt><trkpt lat="40.6078147323615" lon="15.047803852574848"><ele>77.0</ele><time>2026-04-25T13:05:06Z</time></trkpt><trkpt lat="40.60763523252753" lon="15.047830093474488"><ele>77.0</ele><time>2026-04-25T13:05:07Z</time></trkpt><trkpt lat="40.60744878018161" lon="15.0478490027784"><ele>77.0</ele><time>2026-04-25T13:05:08Z</time></trkpt><trkpt lat="40.60728101293126" lon="15.04786009327736"><ele>77.0</ele><time>2026-04-25T13:05:09Z</time></trkpt><trkpt lat="40.607107502804126" lon="15.047921116402446"><ele>76.25</ele><time>2026-04-25T13:05:10Z</time></trkpt><trkpt lat="40.60694895238058" lon="15.047922353524122"><ele>75.5</ele><time>2026-04-25T13:05:11Z</time></trkpt><trkpt lat="40.606807176285955" lon="15.047945045599358"><ele>74.75</ele><time>2026-04-25T13:05:12Z</time></trkpt><trkpt lat="40.60667280889861" lon="15.047963109167387"><ele>74.0</ele><time>2026-04-25T13:05:13Z</time></trkpt><trkpt lat="40.6065364377476" lon="15.047984276588581"><ele>74.0</ele><time>2026-04-25T13:05:14Z</time></trkpt><trkpt lat="40.6064023732754" lon="15.048012113833591"><ele>74.0</ele><time>2026-04-25T13:05:15Z</time></trkpt><trkpt lat="40.60627049927364" lon="15.048039817531107"><ele>74.0</ele><time>2026-04-25T13:05:16Z</time></trkpt><trkpt lat="40.606144079817426" lon="15.048062546834409"><ele>74.0</ele><time>2026-04-25T13:05:17Z</time></trkpt><trkpt lat="40.60602984834314" lon="15.048082591423416"><ele>73.8</ele><time>2026-04-25T13:05:18Z</time></trkpt><trkpt lat="40.60592207861821" lon="15.048102338789747"><ele>73.60000000000001</ele><time>2026-04-25T13:05:19Z</time></trkpt><trkpt lat="40.605811640250224" lon="15.04812703490079"><ele>73.4</ele><time>2026-04-25T13:05:20Z</time></trkpt><trkpt lat="40.605697333203516" lon="15.048159168415806"><ele>73.2</ele><time>2026-04-25T13:05:21Z</time></trkpt><trkpt lat="40.605588597402644" lon="15.048187308772834"><ele>73.0</ele><time>2026-04-25T13:05:22Z</time></trkpt><trkpt lat="40.60549412696596" lon="15.048199901959135"><ele>73.0</ele><time>2026-04-25T13:05:23Z</time></trkpt><trkpt lat="40.60541008239819" lon="15.048216727797499"><ele>73.0</ele><time>2026-04-25T13:05:24Z</time></trkpt><trkpt lat="40.60532626130971" lon="15.04823147121556"><ele>73.0</ele><time>2026-04-25T13:05:25Z</time></trkpt><trkpt lat="40.605247024416215" lon="15.048239543167293"><ele>73.0</ele><time>2026-04-25T13:05:26Z</time></trkpt><trkpt lat="40.60517179287075" lon="15.048246047309545"><ele>73.0</ele><time>2026-04-25T13:05:27Z</time></trkpt><trkpt lat="40.60509417935812" lon="15.048264406409746"><ele>73.0</ele><time>2026-04-25T13:05:28Z</time></trkpt><trkpt lat="40.60500837090525" lon="15.048285985882007"><ele>72.83333333333333</ele><time>2026-04-25T13:05:28.999Z</time></trkpt><trkpt lat="40.60493214435384" lon="15.04829724213008"><ele>72.66666666666666</ele><time>2026-04-25T13:05:29.999Z</time></trkpt><trkpt lat="40.6048603643101" lon="15.048305926722517"><ele>72.5</ele><time>2026-04-25T13:05:30.999Z</time></trkpt><trkpt lat="40.60478457480662" lon="15.04831204053311"><ele>72.33333333333333</ele><time>2026-04-25T13:05:31.999Z</time></trkpt><trkpt lat="40.60471624931671" lon="15.048322659447518"><ele>72.16666666666667</ele><time>2026-04-25T13:05:32.999Z</time></trkpt><trkpt lat="40.60465168129337" lon="15.048340654421704"><ele>72.0</ele><time>2026-04-25T13:05:33.999Z</time></trkpt><trkpt lat="40.604546780345686" lon="15.048365030015315"><ele>72.0</ele><time>2026-04-25T13:05:35.999Z</time></trkpt><trkpt lat="40.60440866190604" lon="15.048386365978343"><ele>72.0</ele><time>2026-04-25T13:05:37.999Z</time></trkpt><trkpt lat="40.60431954635491" lon="15.04840164217559"><ele>72.0</ele><time>2026-04-25T13:05:38.999Z</time></trkpt><trkpt lat="40.60422867448829" lon="15.048419676474234"><ele>72.0</ele><time>2026-04-25T13:05:39.999Z</time></trkpt><trkpt lat="40.604138927762634" lon="15.048435735497726"><ele>72.0</ele><time>2026-04-25T13:05:40.999Z</time></trkpt><trkpt lat="40.604058485317694" lon="15.048448588095397"><ele>72.0</ele><time>2026-04-25T13:05:41.999Z</time></trkpt><trkpt lat="40.60399326873297" lon="15.048462827293292"><ele>72.0</ele><time>2026-04-25T13:05:42.999Z</time></trkpt><trkpt lat="40.603927970069265" lon="15.048474847914942"><ele>72.0</ele><time>2026-04-25T13:05:43.999Z</time></trkpt><trkpt lat="40.603851600862555" lon="15.048494727067798"><ele>72.0</ele><time>2026-04-25T13:05:44.999Z</time></trkpt><trkpt lat="40.60376357571023" lon="15.048512736408973"><ele>72.0</ele><time>2026-04-25T13:05:45.999Z</time></trkpt><trkpt lat="40.60367021180719" lon="15.048528171949933"><ele>72.0</ele><time>2026-04-25T13:05:46.999Z</time></trkpt><trkpt lat="40.60356599151905" lon="15.048540890911733"><ele>71.75</ele><time>2026-04-25T13:05:47.999Z</time></trkpt><trkpt lat="40.603454515239754" lon="15.048558538378202"><ele>71.5</ele><time>2026-04-25T13:05:48.999Z</time></trkpt><trkpt lat="40.60333188102259" lon="15.048581494092772"><ele>71.25</ele><time>2026-04-25T13:05:49.999Z</time></trkpt><trkpt lat="40.60320004978649" lon="15.048602366736054"><ele>71.0</ele><time>2026-04-25T13:05:50.999Z</time></trkpt><trkpt lat="40.60304244340517" lon="15.048621362168761"><ele>71.0</ele><time>2026-04-25T13:05:51.999Z</time></trkpt><trkpt lat="40.60288359385793" lon="15.048637009680524"><ele>71.0</ele><time>2026-04-25T13:05:52.999Z</time></trkpt><trkpt lat="40.602730132904014" lon="15.0486556425073"><ele>71.0</ele><time>2026-04-25T13:05:53.999Z</time></trkpt><trkpt lat="40.602581534926465" lon="15.048670065659966"><ele>69.66666666666667</ele><time>2026-04-25T13:05:54.999Z</time></trkpt><trkpt lat="40.602433499034284" lon="15.048681218579285"><ele>68.33333333333333</ele><time>2026-04-25T13:05:55.999Z</time></trkpt><trkpt lat="40.60227567968827" lon="15.048685931237499"><ele>67.0</ele><time>2026-04-25T13:05:56.999Z</time></trkpt><trkpt lat="40.60210641577228" lon="15.048673526552879"><ele>66.66666666666666</ele><time>2026-04-25T13:05:57.999Z</time></trkpt><trkpt lat="40.601929442963176" lon="15.04864614843458"><ele>66.33333333333333</ele><time>2026-04-25T13:05:58.999Z</time></trkpt><trkpt lat="40.601748232944985" lon="15.04862304151259"><ele>66.0</ele><time>2026-04-25T13:06:00Z</time></trkpt><trkpt lat="40.60156956147829" lon="15.04861127238961"><ele>66.0</ele><time>2026-04-25T13:06:01Z</time></trkpt><trkpt lat="40.60138314082842" lon="15.048600882071394"><ele>66.0</ele><time>2026-04-25T13:06:02Z</time></trkpt><trkpt lat="40.60119674836996" lon="15.048595887061754"><ele>66.0</ele><time>2026-04-25T13:06:03Z</time></trkpt><trkpt lat="40.601018229652105" lon="15.04860156239327"><ele>66.0</ele><time>2026-04-25T13:06:04Z</time></trkpt><trkpt lat="40.60084799962452" lon="15.048610219913728"><ele>66.0</ele><time>2026-04-25T13:06:05Z</time></trkpt><trkpt lat="40.600675567899025" lon="15.048618008594143"><ele>66.0</ele><time>2026-04-25T13:06:06Z</time></trkpt><trkpt lat="40.600505285282786" lon="15.048627326844338"><ele>65.33333333333333</ele><time>2026-04-25T13:06:07Z</time></trkpt><trkpt lat="40.60033260153315" lon="15.048641453456582"><ele>64.66666666666666</ele><time>2026-04-25T13:06:08Z</time></trkpt><trkpt lat="40.600160074523785" lon="15.04865566076918"><ele>64.0</ele><time>2026-04-25T13:06:09Z</time></trkpt><trkpt lat="40.59999150115688" lon="15.048664755307623"><ele>64.0</ele><time>2026-04-25T13:06:10Z</time></trkpt><trkpt lat="40.59982319094397" lon="15.048676022573236"><ele>64.0</ele><time>2026-04-25T13:06:11Z</time></trkpt><trkpt lat="40.59966012107919" lon="15.048691289545403"><ele>64.0</ele><time>2026-04-25T13:06:12Z</time></trkpt><trkpt lat="40.59949402817488" lon="15.048707117119138"><ele>63.0</ele><time>2026-04-25T13:06:13Z</time></trkpt><trkpt lat="40.59932367039989" lon="15.048717683345568"><ele>62.0</ele><time>2026-04-25T13:06:14Z</time></trkpt><trkpt lat="40.59915420733797" lon="15.048726012205684"><ele>61.0</ele><time>2026-04-25T13:06:15Z</time></trkpt><trkpt lat="40.59898738863539" lon="15.048740355714816"><ele>61.0</ele><time>2026-04-25T13:06:16Z</time></trkpt><trkpt lat="40.598826904577734" lon="15.048750344235211"><ele>61.0</ele><time>2026-04-25T13:06:17Z</time></trkpt><trkpt lat="40.598672437598644" lon="15.04875447268543"><ele>61.0</ele><time>2026-04-25T13:06:18Z</time></trkpt><trkpt lat="40.5985283584842" lon="15.04875137880126"><ele>60.5</ele><time>2026-04-25T13:06:19Z</time></trkpt><trkpt lat="40.59838572680158" lon="15.048757170912564"><ele>60.0</ele><time>2026-04-25T13:06:20Z</time></trkpt><trkpt lat="40.59823799054971" lon="15.048776847167355"><ele>59.5</ele><time>2026-04-25T13:06:21Z</time></trkpt><trkpt lat="40.5980947101367" lon="15.048816838680619"><ele>59.0</ele><time>2026-04-25T13:06:22Z</time></trkpt><trkpt lat="40.59794966377932" lon="15.0488649725794"><ele>58.333333333333336</ele><time>2026-04-25T13:06:23Z</time></trkpt><trkpt lat="40.597805072189026" lon="15.048907379669663"><ele>57.66666666666667</ele><time>2026-04-25T13:06:24Z</time></trkpt><trkpt lat="40.59765825775551" lon="15.048952867124816"><ele>57.0</ele><time>2026-04-25T13:06:25Z</time></trkpt><trkpt lat="40.59750772665923" lon="15.04900743359406"><ele>57.0</ele><time>2026-04-25T13:06:26Z</time></trkpt><trkpt lat="40.59735572185949" lon="15.049050346549627"><ele>57.0</ele><time>2026-04-25T13:06:27Z</time></trkpt><trkpt lat="40.597195140945864" lon="15.049088463475107"><ele>57.0</ele><time>2026-04-25T13:06:28Z</time></trkpt><trkpt lat="40.59703963351178" lon="15.049133681402646"><ele>56.66666666666667</ele><time>2026-04-25T13:06:29Z</time></trkpt><trkpt lat="40.596883603239924" lon="15.049186532774002"><ele>56.333333333333336</ele><time>2026-04-25T13:06:30Z</time></trkpt><trkpt lat="40.5967241425271" lon="15.049233993293049"><ele>56.0</ele><time>2026-04-25T13:06:31Z</time></trkpt><trkpt lat="40.59655943608339" lon="15.049279939267244"><ele>56.0</ele><time>2026-04-25T13:06:32Z</time></trkpt><trkpt lat="40.596399707012246" lon="15.049334890478473"><ele>56.0</ele><time>2026-04-25T13:06:33Z</time></trkpt><trkpt lat="40.59623974432507" lon="15.049398181938779"><ele>56.0</ele><time>2026-04-25T13:06:34Z</time></trkpt><trkpt lat="40.59607766730232" lon="15.049466432509064"><ele>55.66666666666667</ele><time>2026-04-25T13:06:35Z</time></trkpt><trkpt lat="40.595918209067925" lon="15.049538039753646"><ele>55.33333333333333</ele><time>2026-04-25T13:06:36Z</time></trkpt><trkpt lat="40.59576378673867" lon="15.049614820434511"><ele>55.0</ele><time>2026-04-25T13:06:37Z</time></trkpt><trkpt lat="40.59560431307738" lon="15.049689925930188"><ele>55.0</ele><time>2026-04-25T13:06:38Z</time></trkpt><trkpt lat="40.59544072685636" lon="15.04976327812097"><ele>55.0</ele><time>2026-04-25T13:06:39Z</time></trkpt><trkpt lat="40.595269842280956" lon="15.04983693565067"><ele>55.0</ele><time>2026-04-25T13:06:40Z</time></trkpt><trkpt lat="40.59509746546074" lon="15.049909660067776"><ele>54.33333333333333</ele><time>2026-04-25T13:06:41Z</time></trkpt><trkpt lat="40.59492229542261" lon="15.049968560876962"><ele>53.66666666666667</ele><time>2026-04-25T13:06:42Z</time></trkpt><trkpt lat="40.59473407824615" lon="15.050003886451293"><ele>53.0</ele><time>2026-04-25T13:06:43Z</time></trkpt><trkpt lat="40.59454034734083" lon="15.0500142867969"><ele>52.66666666666667</ele><time>2026-04-25T13:06:44Z</time></trkpt><trkpt lat="40.59435165925539" lon="15.050004569551483"><ele>52.33333333333333</ele><time>2026-04-25T13:06:45Z</time></trkpt><trkpt lat="40.594167837843" lon="15.04998222600207"><ele>52.0</ele><time>2026-04-25T13:06:46Z</time></trkpt><trkpt lat="40.59399053590745" lon="15.04994848021081"><ele>52.0</ele><time>2026-04-25T13:06:47Z</time></trkpt><trkpt lat="40.593821360642664" lon="15.049913309598743"><ele>52.0</ele><time>2026-04-25T13:06:48Z</time></trkpt><trkpt lat="40.593653308981914" lon="15.04987517783951"><ele>52.0</ele><time>2026-04-25T13:06:49Z</time></trkpt><trkpt lat="40.59348822449202" lon="15.049821920939976"><ele>51.666666666666664</ele><time>2026-04-25T13:06:50Z</time></trkpt><trkpt lat="40.593325389257245" lon="15.049750898508577"><ele>51.33333333333333</ele><time>2026-04-25T13:06:51Z</time></trkpt><trkpt lat="40.59316794887272" lon="15.0496585678691"><ele>51.0</ele><time>2026-04-25T13:06:52Z</time></trkpt><trkpt lat="40.59300675695456" lon="15.049543514916213"><ele>51.0</ele><time>2026-04-25T13:06:53Z</time></trkpt><trkpt lat="40.592845490309465" lon="15.049423588170086"><ele>51.0</ele><time>2026-04-25T13:06:54Z</time></trkpt><trkpt lat="40.592676582052356" lon="15.049309339222663"><ele>51.0</ele><time>2026-04-25T13:06:55Z</time></trkpt><trkpt lat="40.59250255276566" lon="15.049205572876835"><ele>50.66666666666667</ele><time>2026-04-25T13:06:56Z</time></trkpt><trkpt lat="40.59232718772052" lon="15.049108861648381"><ele>50.333333333333336</ele><time>2026-04-25T13:06:57Z</time></trkpt><trkpt lat="40.59214400639204" lon="15.049028901676545"><ele>50.0</ele><time>2026-04-25T13:06:58Z</time></trkpt><trkpt lat="40.59195082196109" lon="15.048970258679987"><ele>49.66666666666667</ele><time>2026-04-25T13:06:59Z</time></trkpt><trkpt lat="40.59175209459981" lon="15.048927477951974"><ele>49.33333333333333</ele><time>2026-04-25T13:07:00Z</time></trkpt><trkpt lat="40.59156545962251" lon="15.048892108604601"><ele>49.0</ele><time>2026-04-25T13:07:01Z</time></trkpt><trkpt lat="40.59139404074876" lon="15.048853903820856"><ele>49.0</ele><time>2026-04-25T13:07:02Z</time></trkpt><trkpt lat="40.591220729068276" lon="15.048812488610558"><ele>49.0</ele><time>2026-04-25T13:07:03Z</time></trkpt><trkpt lat="40.59103644604711" lon="15.048772213376983"><ele>49.0</ele><time>2026-04-25T13:07:04Z</time></trkpt><trkpt lat="40.59085002301656" lon="15.048732601862334"><ele>48.666666666666664</ele><time>2026-04-25T13:07:05Z</time></trkpt><trkpt lat="40.590660415657965" lon="15.048692931382945"><ele>48.33333333333333</ele><time>2026-04-25T13:07:06Z</time></trkpt><trkpt lat="40.590469348084675" lon="15.048651317357955"><ele>48.0</ele><time>2026-04-25T13:07:07Z</time></trkpt><trkpt lat="40.59027592714775" lon="15.048607501702492"><ele>47.333333333333336</ele><time>2026-04-25T13:07:08Z</time></trkpt><trkpt lat="40.590081072086136" lon="15.048556845022775"><ele>46.66666666666667</ele><time>2026-04-25T13:07:09Z</time></trkpt><trkpt lat="40.58988721150463" lon="15.048501458269989"><ele>46.0</ele><time>2026-04-25T13:07:10Z</time></trkpt><trkpt lat="40.58969073346274" lon="15.048443936932575"><ele>45.66666666666667</ele><time>2026-04-25T13:07:11Z</time></trkpt><trkpt lat="40.58949059338832" lon="15.04838951995278"><ele>45.333333333333336</ele><time>2026-04-25T13:07:12Z</time></trkpt><trkpt lat="40.58928743161117" lon="15.048336385061667"><ele>45.0</ele><time>2026-04-25T13:07:13Z</time></trkpt><trkpt lat="40.589084743363415" lon="15.048281413667025"><ele>45.0</ele><time>2026-04-25T13:07:14Z</time></trkpt><trkpt lat="40.588880888198446" lon="15.048224630652244"><ele>45.0</ele><time>2026-04-25T13:07:15Z</time></trkpt><trkpt lat="40.58867654460129" lon="15.048165191161262"><ele>45.0</ele><time>2026-04-25T13:07:16Z</time></trkpt><trkpt lat="40.58847262551181" lon="15.048107581814051"><ele>44.333333333333336</ele><time>2026-04-25T13:07:17Z</time></trkpt><trkpt lat="40.588276963464686" lon="15.048053131619772"><ele>43.66666666666667</ele><time>2026-04-25T13:07:18Z</time></trkpt><trkpt lat="40.58809011328872" lon="15.048000465015075"><ele>43.0</ele><time>2026-04-25T13:07:19Z</time></trkpt><trkpt lat="40.587911129037856" lon="15.047954041769774"><ele>43.333333333333336</ele><time>2026-04-25T13:07:20Z</time></trkpt><trkpt lat="40.58773197224416" lon="15.047908888141686"><ele>43.666666666666664</ele><time>2026-04-25T13:07:21Z</time></trkpt><trkpt lat="40.587553621616784" lon="15.047859378083041"><ele>44.0</ele><time>2026-04-25T13:07:22Z</time></trkpt><trkpt lat="40.5873745959902" lon="15.047804323664337"><ele>44.0</ele><time>2026-04-25T13:07:23Z</time></trkpt><trkpt lat="40.587198093094706" lon="15.04774206366177"><ele>44.0</ele><time>2026-04-25T13:07:24Z</time></trkpt><trkpt lat="40.58702415368924" lon="15.047677584421534"><ele>44.0</ele><time>2026-04-25T13:07:25Z</time></trkpt><trkpt lat="40.586850532213994" lon="15.047620735788865"><ele>43.666666666666664</ele><time>2026-04-25T13:07:26Z</time></trkpt><trkpt lat="40.586673976906965" lon="15.047577939587399"><ele>43.333333333333336</ele><time>2026-04-25T13:07:27Z</time></trkpt><trkpt lat="40.586501841476455" lon="15.047559569885697"><ele>43.0</ele><time>2026-04-25T13:07:28Z</time></trkpt><trkpt lat="40.586319513788666" lon="15.047554517690838"><ele>43.0</ele><time>2026-04-25T13:07:29Z</time></trkpt><trkpt lat="40.586131152993254" lon="15.047572071735837"><ele>43.0</ele><time>2026-04-25T13:07:29.999Z</time></trkpt><trkpt lat="40.58594180970193" lon="15.04760770397375"><ele>43.0</ele><time>2026-04-25T13:07:30.999Z</time></trkpt><trkpt lat="40.58575351591959" lon="15.04765181305604"><ele>43.0</ele><time>2026-04-25T13:07:31.999Z</time></trkpt><trkpt lat="40.58557220994647" lon="15.047702563889542"><ele>43.0</ele><time>2026-04-25T13:07:32.999Z</time></trkpt><trkpt lat="40.585394724241986" lon="15.047751119278548"><ele>43.0</ele><time>2026-04-25T13:07:33.999Z</time></trkpt><trkpt lat="40.585230444844555" lon="15.047796253547085"><ele>42.66666666666667</ele><time>2026-04-25T13:07:34.999Z</time></trkpt><trkpt lat="40.58507757278726" lon="15.047838898943786"><ele>42.333333333333336</ele><time>2026-04-25T13:07:35.999Z</time></trkpt><trkpt lat="40.58493182043431" lon="15.047882988387196"><ele>42.0</ele><time>2026-04-25T13:07:36.999Z</time></trkpt><trkpt lat="40.584786733630246" lon="15.047937193491347"><ele>42.0</ele><time>2026-04-25T13:07:37.999Z</time></trkpt><trkpt lat="40.58463799939754" lon="15.048002053395406"><ele>42.0</ele><time>2026-04-25T13:07:38.999Z</time></trkpt><trkpt lat="40.58448359015475" lon="15.048066769889154"><ele>42.0</ele><time>2026-04-25T13:07:39.999Z</time></trkpt><trkpt lat="40.58432696861875" lon="15.048132989393823"><ele>42.0</ele><time>2026-04-25T13:07:40.999Z</time></trkpt><trkpt lat="40.58416655105074" lon="15.048203563142453"><ele>42.0</ele><time>2026-04-25T13:07:41.999Z</time></trkpt><trkpt lat="40.583996235019" lon="15.048273736190746"><ele>42.0</ele><time>2026-04-25T13:07:42.999Z</time></trkpt><trkpt lat="40.58381610334586" lon="15.048345166365552"><ele>41.333333333333336</ele><time>2026-04-25T13:07:43.999Z</time></trkpt><trkpt lat="40.58362804255759" lon="15.048422897440338"><ele>40.66666666666667</ele><time>2026-04-25T13:07:44.999Z</time></trkpt><trkpt lat="40.58343806590023" lon="15.048501286569412"><ele>40.0</ele><time>2026-04-25T13:07:45.999Z</time></trkpt><trkpt lat="40.58324894412251" lon="15.048580439935938"><ele>40.0</ele><time>2026-04-25T13:07:46.999Z</time></trkpt><trkpt lat="40.58305927954077" lon="15.048658163179471"><ele>40.0</ele><time>2026-04-25T13:07:47.999Z</time></trkpt><trkpt lat="40.582870342963204" lon="15.04873736505801"><ele>40.0</ele><time>2026-04-25T13:07:48.999Z</time></trkpt><trkpt lat="40.582686602816764" lon="15.048814941762789"><ele>39.66666666666667</ele><time>2026-04-25T13:07:49.999Z</time></trkpt><trkpt lat="40.58251076744386" lon="15.048883708502641"><ele>39.333333333333336</ele><time>2026-04-25T13:07:50.999Z</time></trkpt><trkpt lat="40.58234442727454" lon="15.048947654675457"><ele>39.0</ele><time>2026-04-25T13:07:51.999Z</time></trkpt><trkpt lat="40.58219770030523" lon="15.049003514207671"><ele>39.0</ele><time>2026-04-25T13:07:52.999Z</time></trkpt><trkpt lat="40.58206491863757" lon="15.049052931820107"><ele>39.0</ele><time>2026-04-25T13:07:53.999Z</time></trkpt><trkpt lat="40.58193996727149" lon="15.04909460451089"><ele>39.0</ele><time>2026-04-25T13:07:54.999Z</time></trkpt><trkpt lat="40.581822946875995" lon="15.049126168013355"><ele>39.0</ele><time>2026-04-25T13:07:55.999Z</time></trkpt><trkpt lat="40.581708125132145" lon="15.049151072595544"><ele>38.5</ele><time>2026-04-25T13:07:56.999Z</time></trkpt><trkpt lat="40.58159133490633" lon="15.049166751765178"><ele>38.0</ele><time>2026-04-25T13:07:57.999Z</time></trkpt><trkpt lat="40.58147570591495" lon="15.049178220271054"><ele>37.5</ele><time>2026-04-25T13:07:58.999Z</time></trkpt><trkpt lat="40.581359930983446" lon="15.049182481139496"><ele>37.0</ele><time>2026-04-25T13:07:59.999Z</time></trkpt><trkpt lat="40.58122896010542" lon="15.04919859984659"><ele>37.5</ele><time>2026-04-25T13:08:00.999Z</time></trkpt><trkpt lat="40.58109158870085" lon="15.049226078544713"><ele>38.0</ele><time>2026-04-25T13:08:01.999Z</time></trkpt><trkpt lat="40.58094419134949" lon="15.049245188121878"><ele>38.5</ele><time>2026-04-25T13:08:02.999Z</time></trkpt><trkpt lat="40.58078780396034" lon="15.049249262401636"><ele>39.0</ele><time>2026-04-25T13:08:03.999Z</time></trkpt><trkpt lat="40.58062385832618" lon="15.049245820568132"><ele>39.0</ele><time>2026-04-25T13:08:04.999Z</time></trkpt><trkpt lat="40.58046141375776" lon="15.049242431659367"><ele>39.0</ele><time>2026-04-25T13:08:06Z</time></trkpt><trkpt lat="40.580301233014154" lon="15.049232067540157"><ele>39.0</ele><time>2026-04-25T13:08:07Z</time></trkpt><trkpt lat="40.580140759007776" lon="15.049215179445794"><ele>39.333333333333336</ele><time>2026-04-25T13:08:08Z</time></trkpt><trkpt lat="40.57998440066429" lon="15.049197491882087"><ele>39.66666666666667</ele><time>2026-04-25T13:08:09Z</time></trkpt><trkpt lat="40.57983353065178" lon="15.049172602923477"><ele>40.0</ele><time>2026-04-25T13:08:10Z</time></trkpt><trkpt lat="40.57968893566663" lon="15.049130360563073"><ele>40.25</ele><time>2026-04-25T13:08:11Z</time></trkpt><trkpt lat="40.57955206203056" lon="15.049071967739456"><ele>40.5</ele><time>2026-04-25T13:08:12Z</time></trkpt><trkpt lat="40.57942320991957" lon="15.048997299761838"><ele>40.75</ele><time>2026-04-25T13:08:13Z</time></trkpt><trkpt lat="40.57930189763317" lon="15.04890897001622"><ele>41.0</ele><time>2026-04-25T13:08:14Z</time></trkpt><trkpt lat="40.579191363899334" lon="15.048797721595516"><ele>41.75</ele><time>2026-04-25T13:08:15Z</time></trkpt><trkpt lat="40.57909185246862" lon="15.048668211068284"><ele>42.5</ele><time>2026-04-25T13:08:16Z</time></trkpt><trkpt lat="40.57898885285874" lon="15.048537975022068"><ele>43.25</ele><time>2026-04-25T13:08:17Z</time></trkpt><trkpt lat="40.57887402273888" lon="15.048406227790053"><ele>44.0</ele><time>2026-04-25T13:08:18Z</time></trkpt><trkpt lat="40.578753542957365" lon="15.048265992386993"><ele>44.0</ele><time>2026-04-25T13:08:19Z</time></trkpt><trkpt lat="40.57863503768014" lon="15.048117224170614"><ele>44.0</ele><time>2026-04-25T13:08:20Z</time></trkpt><trkpt lat="40.57851931811836" lon="15.047958888459968"><ele>44.0</ele><time>2026-04-25T13:08:21Z</time></trkpt><trkpt lat="40.578399639322676" lon="15.047802280966005"><ele>44.0</ele><time>2026-04-25T13:08:22Z</time></trkpt><trkpt lat="40.57827499664458" lon="15.047655665127396"><ele>44.0</ele><time>2026-04-25T13:08:23Z</time></trkpt><trkpt lat="40.57813952260117" lon="15.047518019286782"><ele>44.0</ele><time>2026-04-25T13:08:24Z</time></trkpt><trkpt lat="40.57798705462027" lon="15.047392615294424"><ele>44.0</ele><time>2026-04-25T13:08:25Z</time></trkpt><trkpt lat="40.57781025193149" lon="15.047289040084735"><ele>44.0</ele><time>2026-04-25T13:08:26Z</time></trkpt><trkpt lat="40.5776164649427" lon="15.047207118380317"><ele>44.0</ele><time>2026-04-25T13:08:27Z</time></trkpt><trkpt lat="40.57741399115905" lon="15.047137934688367"><ele>44.0</ele><time>2026-04-25T13:08:28Z</time></trkpt><trkpt lat="40.577212480457156" lon="15.047069432779093"><ele>44.0</ele><time>2026-04-25T13:08:29Z</time></trkpt><trkpt lat="40.57701569670429" lon="15.046996901605302"><ele>44.0</ele><time>2026-04-25T13:08:30Z</time></trkpt><trkpt lat="40.576821145051916" lon="15.046929569108785"><ele>44.0</ele><time>2026-04-25T13:08:31Z</time></trkpt><trkpt lat="40.576630283089905" lon="15.046862229730948"><ele>44.0</ele><time>2026-04-25T13:08:32Z</time></trkpt><trkpt lat="40.57644144887681" lon="15.046797185858273"><ele>44.0</ele><time>2026-04-25T13:08:33Z</time></trkpt><trkpt lat="40.576261649630666" lon="15.046734007442563"><ele>43.666666666666664</ele><time>2026-04-25T13:08:34Z</time></trkpt><trkpt lat="40.576091331896826" lon="15.04666777340566"><ele>43.333333333333336</ele><time>2026-04-25T13:08:35Z</time></trkpt><trkpt lat="40.575921990273564" lon="15.046598023118404"><ele>43.0</ele><time>2026-04-25T13:08:36Z</time></trkpt><trkpt lat="40.57577115182127" lon="15.046510832500019"><ele>43.0</ele><time>2026-04-25T13:08:37Z</time></trkpt><trkpt lat="40.57563416981239" lon="15.04640906258925"><ele>43.0</ele><time>2026-04-25T13:08:38Z</time></trkpt><trkpt lat="40.57550164300012" lon="15.046307382781956"><ele>43.0</ele><time>2026-04-25T13:08:39Z</time></trkpt><trkpt lat="40.575356354752806" lon="15.046208135606038"><ele>43.333333333333336</ele><time>2026-04-25T13:08:40Z</time></trkpt><trkpt lat="40.57519640531482" lon="15.046113746112402"><ele>43.666666666666664</ele><time>2026-04-25T13:08:41Z</time></trkpt><trkpt lat="40.575026285526675" lon="15.046026662725891"><ele>44.0</ele><time>2026-04-25T13:08:42Z</time></trkpt><trkpt lat="40.57484704024677" lon="15.0459477235685"><ele>44.0</ele><time>2026-04-25T13:08:43Z</time></trkpt><trkpt lat="40.5746609911093" lon="15.045884638970028"><ele>44.0</ele><time>2026-04-25T13:08:44Z</time></trkpt><trkpt lat="40.57447323607052" lon="15.045829281363414"><ele>44.0</ele><time>2026-04-25T13:08:45Z</time></trkpt><trkpt lat="40.57428301593453" lon="15.045769856580005"><ele>44.0</ele><time>2026-04-25T13:08:46Z</time></trkpt><trkpt lat="40.574090006175126" lon="15.045706576669843"><ele>44.0</ele><time>2026-04-25T13:08:47Z</time></trkpt><trkpt lat="40.573892008377875" lon="15.045643756584376"><ele>44.0</ele><time>2026-04-25T13:08:48Z</time></trkpt><trkpt lat="40.5736944167363" lon="15.04558327343075"><ele>43.666666666666664</ele><time>2026-04-25T13:08:49Z</time></trkpt><trkpt lat="40.57350037563333" lon="15.045522675011657"><ele>43.333333333333336</ele><time>2026-04-25T13:08:50Z</time></trkpt><trkpt lat="40.57331125291803" lon="15.045460266326941"><ele>43.0</ele><time>2026-04-25T13:08:51Z</time></trkpt><trkpt lat="40.57313603796116" lon="15.045398460788212"><ele>43.0</ele><time>2026-04-25T13:08:52Z</time></trkpt><trkpt lat="40.5729711799888" lon="15.045345197911226"><ele>43.0</ele><time>2026-04-25T13:08:53Z</time></trkpt><trkpt lat="40.57281263499014" lon="15.045289133294897"><ele>43.0</ele><time>2026-04-25T13:08:54Z</time></trkpt><trkpt lat="40.572660967037905" lon="15.045237099682248"><ele>43.333333333333336</ele><time>2026-04-25T13:08:55Z</time></trkpt><trkpt lat="40.57250992078925" lon="15.045186232313544"><ele>43.666666666666664</ele><time>2026-04-25T13:08:56Z</time></trkpt><trkpt lat="40.57235203128461" lon="15.04514001588175"><ele>44.0</ele><time>2026-04-25T13:08:57Z</time></trkpt><trkpt lat="40.57219199138012" lon="15.04509680508715"><ele>44.0</ele><time>2026-04-25T13:08:58Z</time></trkpt><trkpt lat="40.572028520629914" lon="15.045055781987145"><ele>44.0</ele><time>2026-04-25T13:08:59Z</time></trkpt><trkpt lat="40.57186590894062" lon="15.04501215374074"><ele>44.0</ele><time>2026-04-25T13:09:00Z</time></trkpt><trkpt lat="40.5717015563912" lon="15.044980067166673"><ele>43.666666666666664</ele><time>2026-04-25T13:09:01Z</time></trkpt><trkpt lat="40.57153459750991" lon="15.044963458997652"><ele>43.333333333333336</ele><time>2026-04-25T13:09:02Z</time></trkpt><trkpt lat="40.57137138729296" lon="15.044944250887694"><ele>43.0</ele><time>2026-04-25T13:09:03Z</time></trkpt><trkpt lat="40.57120852182323" lon="15.044924340078895"><ele>42.333333333333336</ele><time>2026-04-25T13:09:04Z</time></trkpt><trkpt lat="40.57104352028607" lon="15.044907295406965"><ele>41.666666666666664</ele><time>2026-04-25T13:09:05Z</time></trkpt><trkpt lat="40.57087190534649" lon="15.04489172169412"><ele>41.0</ele><time>2026-04-25T13:09:06Z</time></trkpt><trkpt lat="40.57069352887949" lon="15.044852964414556"><ele>41.0</ele><time>2026-04-25T13:09:07Z</time></trkpt><trkpt lat="40.57050119181205" lon="15.044825674518437"><ele>41.0</ele><time>2026-04-25T13:09:08Z</time></trkpt><trkpt lat="40.57029221664081" lon="15.044796023998982"><ele>41.0</ele><time>2026-04-25T13:09:09Z</time></trkpt><trkpt lat="40.5700713098011" lon="15.04476468052936"><ele>41.33333333333333</ele><time>2026-04-25T13:09:10Z</time></trkpt><trkpt lat="40.56985057854648" lon="15.044753070300654"><ele>41.666666666666664</ele><time>2026-04-25T13:09:11Z</time></trkpt><trkpt lat="40.56964713926953" lon="15.04472075731718"><ele>42.0</ele><time>2026-04-25T13:09:12Z</time></trkpt><trkpt lat="40.569443826115865" lon="15.044688520390986"><ele>42.333333333333336</ele><time>2026-04-25T13:09:13Z</time></trkpt><trkpt lat="40.56924817308482" lon="15.044659117911134"><ele>42.66666666666667</ele><time>2026-04-25T13:09:14Z</time></trkpt><trkpt lat="40.56905649836326" lon="15.04463665816065"><ele>43.0</ele><time>2026-04-25T13:09:15Z</time></trkpt><trkpt lat="40.56885817151288" lon="15.044618695377876"><ele>43.333333333333336</ele><time>2026-04-25T13:09:16Z</time></trkpt><trkpt lat="40.568656114057134" lon="15.04460782363538"><ele>43.666666666666664</ele><time>2026-04-25T13:09:17Z</time></trkpt><trkpt lat="40.56845658462665" lon="15.044598530407777"><ele>44.0</ele><time>2026-04-25T13:09:18Z</time></trkpt><trkpt lat="40.568270287237446" lon="15.04458958164619"><ele>44.0</ele><time>2026-04-25T13:09:19Z</time></trkpt><trkpt lat="40.56809548320245" lon="15.044582853183119"><ele>44.0</ele><time>2026-04-25T13:09:20Z</time></trkpt><trkpt lat="40.56792757245758" lon="15.044573579459506"><ele>44.0</ele><time>2026-04-25T13:09:21Z</time></trkpt><trkpt lat="40.567765506652506" lon="15.044570340509065"><ele>43.666666666666664</ele><time>2026-04-25T13:09:22Z</time></trkpt><trkpt lat="40.56759801957416" lon="15.044572339448642"><ele>43.333333333333336</ele><time>2026-04-25T13:09:23Z</time></trkpt><trkpt lat="40.567430912377084" lon="15.044566135803382"><ele>43.0</ele><time>2026-04-25T13:09:24Z</time></trkpt><trkpt lat="40.56727071324159" lon="15.044550622932627"><ele>43.0</ele><time>2026-04-25T13:09:25Z</time></trkpt><trkpt lat="40.56711783657155" lon="15.044538732066993"><ele>43.0</ele><time>2026-04-25T13:09:26Z</time></trkpt><trkpt lat="40.5669716789199" lon="15.044531832205497"><ele>43.0</ele><time>2026-04-25T13:09:27Z</time></trkpt><trkpt lat="40.56683271335242" lon="15.044523258201716"><ele>43.0</ele><time>2026-04-25T13:09:28Z</time></trkpt><trkpt lat="40.56669924510027" lon="15.044513547400987"><ele>43.0</ele><time>2026-04-25T13:09:29Z</time></trkpt><trkpt lat="40.56656163884743" lon="15.044504585888147"><ele>43.0</ele><time>2026-04-25T13:09:30Z</time></trkpt><trkpt lat="40.566417076883454" lon="15.044502774995841"><ele>43.0</ele><time>2026-04-25T13:09:30.999Z</time></trkpt><trkpt lat="40.56626844613728" lon="15.044502035969419"><ele>43.0</ele><time>2026-04-25T13:09:31.999Z</time></trkpt><trkpt lat="40.56612156717765" lon="15.044503659737378"><ele>43.0</ele><time>2026-04-25T13:09:32.999Z</time></trkpt><trkpt lat="40.565977368542406" lon="15.044510294871179"><ele>43.0</ele><time>2026-04-25T13:09:33.999Z</time></trkpt><trkpt lat="40.56582592197942" lon="15.044519214364925"><ele>43.0</ele><time>2026-04-25T13:09:34.999Z</time></trkpt><trkpt lat="40.56566534182628" lon="15.044526312863491"><ele>43.0</ele><time>2026-04-25T13:09:35.999Z</time></trkpt><trkpt lat="40.565503051771856" lon="15.04453896049251"><ele>43.0</ele><time>2026-04-25T13:09:36.999Z</time></trkpt><trkpt lat="40.565347832667506" lon="15.044551173698185"><ele>43.0</ele><time>2026-04-25T13:09:37.999Z</time></trkpt><trkpt lat="40.56519608107525" lon="15.044559676832934"><ele>42.5</ele><time>2026-04-25T13:09:38.999Z</time></trkpt><trkpt lat="40.56505438066147" lon="15.044568253743074"><ele>42.0</ele><time>2026-04-25T13:09:39.999Z</time></trkpt><trkpt lat="40.564926977380956" lon="15.044583302158665"><ele>41.5</ele><time>2026-04-25T13:09:40.999Z</time></trkpt><trkpt lat="40.56480736523647" lon="15.044592913139477"><ele>41.0</ele><time>2026-04-25T13:09:41.999Z</time></trkpt><trkpt lat="40.56469009790387" lon="15.04459898772357"><ele>41.0</ele><time>2026-04-25T13:09:42.999Z</time></trkpt><trkpt lat="40.564569565934846" lon="15.044608264288597"><ele>41.0</ele><time>2026-04-25T13:09:43.999Z</time></trkpt><trkpt lat="40.56444520399972" lon="15.044618835896836"><ele>41.0</ele><time>2026-04-25T13:09:44.999Z</time></trkpt><trkpt lat="40.564311043467924" lon="15.044629213656444"><ele>41.0</ele><time>2026-04-25T13:09:45.999Z</time></trkpt><trkpt lat="40.56417567787558" lon="15.0446383749064"><ele>41.25</ele><time>2026-04-25T13:09:46.999Z</time></trkpt><trkpt lat="40.564036540369536" lon="15.04465060051026"><ele>41.5</ele><time>2026-04-25T13:09:47.999Z</time></trkpt><trkpt lat="40.56389255180867" lon="15.044662753534766"><ele>41.75</ele><time>2026-04-25T13:09:48.999Z</time></trkpt><trkpt lat="40.56374910505348" lon="15.044681643211268"><ele>42.0</ele><time>2026-04-25T13:09:49.999Z</time></trkpt><trkpt lat="40.563611995326006" lon="15.044690560873462"><ele>42.25</ele><time>2026-04-25T13:09:50.999Z</time></trkpt><trkpt lat="40.563481940911046" lon="15.044700513566733"><ele>42.5</ele><time>2026-04-25T13:09:51.999Z</time></trkpt><trkpt lat="40.563350340841744" lon="15.044712008650688"><ele>42.75</ele><time>2026-04-25T13:09:52.999Z</time></trkpt><trkpt lat="40.56321485418956" lon="15.04472239832584"><ele>43.0</ele><time>2026-04-25T13:09:53.999Z</time></trkpt><trkpt lat="40.56307841316989" lon="15.044726576648515"><ele>43.0</ele><time>2026-04-25T13:09:54.999Z</time></trkpt><trkpt lat="40.56293978202602" lon="15.044720698229439"><ele>43.0</ele><time>2026-04-25T13:09:55.999Z</time></trkpt><trkpt lat="40.56280370875189" lon="15.044705974305725"><ele>43.0</ele><time>2026-04-25T13:09:56.999Z</time></trkpt><trkpt lat="40.562674290482306" lon="15.044672178839813"><ele>43.0</ele><time>2026-04-25T13:09:57.999Z</time></trkpt><trkpt lat="40.56254835036094" lon="15.04463115431292"><ele>42.75</ele><time>2026-04-25T13:09:58.999Z</time></trkpt><trkpt lat="40.56242431971888" lon="15.044585725737475"><ele>42.5</ele><time>2026-04-25T13:09:59.999Z</time></trkpt><trkpt lat="40.56230249225873" lon="15.04453457225459"><ele>42.25</ele><time>2026-04-25T13:10:00.999Z</time></trkpt><trkpt lat="40.56218322449448" lon="15.044485410929784"><ele>42.0</ele><time>2026-04-25T13:10:01.999Z</time></trkpt><trkpt lat="40.56206640162551" lon="15.044437995420289"><ele>42.0</ele><time>2026-04-25T13:10:02.999Z</time></trkpt><trkpt lat="40.56194113636708" lon="15.044391650283526"><ele>42.0</ele><time>2026-04-25T13:10:03.999Z</time></trkpt><trkpt lat="40.56180825826426" lon="15.04434058781007"><ele>42.0</ele><time>2026-04-25T13:10:04.999Z</time></trkpt><trkpt lat="40.56167279429533" lon="15.04428534940083"><ele>42.0</ele><time>2026-04-25T13:10:05.999Z</time></trkpt><trkpt lat="40.561538110077144" lon="15.044228871684746"><ele>42.0</ele><time>2026-04-25T13:10:06.999Z</time></trkpt><trkpt lat="40.56140712833367" lon="15.044175216833635"><ele>42.0</ele><time>2026-04-25T13:10:07.999Z</time></trkpt><trkpt lat="40.56128263863726" lon="15.044119721251063"><ele>42.0</ele><time>2026-04-25T13:10:08.999Z</time></trkpt><trkpt lat="40.561159727563485" lon="15.04407022822841"><ele>42.0</ele><time>2026-04-25T13:10:09.999Z</time></trkpt><trkpt lat="40.561041168228094" lon="15.044024669510067"><ele>41.25</ele><time>2026-04-25T13:10:10.999Z</time></trkpt><trkpt lat="40.560921813638544" lon="15.043975232209316"><ele>40.5</ele><time>2026-04-25T13:10:12Z</time></trkpt><trkpt lat="40.56079735473878" lon="15.043918309573366"><ele>39.75</ele><time>2026-04-25T13:10:13Z</time></trkpt><trkpt lat="40.56067225667875" lon="15.043849662887068"><ele>39.0</ele><time>2026-04-25T13:10:14Z</time></trkpt><trkpt lat="40.560554583716744" lon="15.043775777165767"><ele>39.0</ele><time>2026-04-25T13:10:15Z</time></trkpt><trkpt lat="40.56044021355625" lon="15.043704156169012"><ele>39.0</ele><time>2026-04-25T13:10:16Z</time></trkpt><trkpt lat="40.5603282213578" lon="15.043627501369354"><ele>39.0</ele><time>2026-04-25T13:10:17Z</time></trkpt><trkpt lat="40.56021078892002" lon="15.043547674226728"><ele>39.0</ele><time>2026-04-25T13:10:18Z</time></trkpt><trkpt lat="40.56009444084756" lon="15.043463261518086"><ele>38.5</ele><time>2026-04-25T13:10:19Z</time></trkpt><trkpt lat="40.55998219937564" lon="15.043367182187826"><ele>38.0</ele><time>2026-04-25T13:10:20Z</time></trkpt><trkpt lat="40.559872423743556" lon="15.043266753363067"><ele>37.5</ele><time>2026-04-25T13:10:21Z</time></trkpt><trkpt lat="40.559759281314165" lon="15.043163182627026"><ele>37.0</ele><time>2026-04-25T13:10:22Z</time></trkpt><trkpt lat="40.559642222556874" lon="15.043057602612302"><ele>35.333333333333336</ele><time>2026-04-25T13:10:23Z</time></trkpt><trkpt lat="40.55951815118624" lon="15.042953798901909"><ele>33.666666666666664</ele><time>2026-04-25T13:10:24Z</time></trkpt><trkpt lat="40.55938748660079" lon="15.042850910962995"><ele>32.0</ele><time>2026-04-25T13:10:25Z</time></trkpt><trkpt lat="40.559253646592985" lon="15.042753283822329"><ele>32.0</ele><time>2026-04-25T13:10:26Z</time></trkpt><trkpt lat="40.55912140681635" lon="15.042664618292632"><ele>32.0</ele><time>2026-04-25T13:10:27Z</time></trkpt><trkpt lat="40.55897369529357" lon="15.042579150090868"><ele>32.0</ele><time>2026-04-25T13:10:28Z</time></trkpt><trkpt lat="40.558811879659075" lon="15.042485855061651"><ele>32.0</ele><time>2026-04-25T13:10:29Z</time></trkpt><trkpt lat="40.55865597629928" lon="15.042389212347132"><ele>32.0</ele><time>2026-04-25T13:10:30Z</time></trkpt><trkpt lat="40.55850739214212" lon="15.042291611152615"><ele>32.0</ele><time>2026-04-25T13:10:31Z</time></trkpt><trkpt lat="40.558365596271436" lon="15.042194964698192"><ele>32.0</ele><time>2026-04-25T13:10:32Z</time></trkpt><trkpt lat="40.558229410372576" lon="15.042093885293438"><ele>32.0</ele><time>2026-04-25T13:10:33Z</time></trkpt><trkpt lat="40.55809543528278" lon="15.041992006381431"><ele>32.0</ele><time>2026-04-25T13:10:34Z</time></trkpt><trkpt lat="40.55796647823121" lon="15.041882502485146"><ele>31.0</ele><time>2026-04-25T13:10:35Z</time></trkpt><trkpt lat="40.55782775547303" lon="15.041777364361739"><ele>30.0</ele><time>2026-04-25T13:10:36Z</time></trkpt><trkpt lat="40.55770861809968" lon="15.041645655248008"><ele>29.0</ele><time>2026-04-25T13:10:37Z</time></trkpt><trkpt lat="40.55757233415789" lon="15.041529051321268"><ele>29.0</ele><time>2026-04-25T13:10:38Z</time></trkpt><trkpt lat="40.55745557913704" lon="15.041386197803062"><ele>29.0</ele><time>2026-04-25T13:10:39Z</time></trkpt><trkpt lat="40.55734407591177" lon="15.041240755200729"><ele>29.0</ele><time>2026-04-25T13:10:40Z</time></trkpt><trkpt lat="40.557240264180315" lon="15.04109779539744"><ele>29.0</ele><time>2026-04-25T13:10:41Z</time></trkpt><trkpt lat="40.55714128088474" lon="15.040948203431036"><ele>29.0</ele><time>2026-04-25T13:10:42Z</time></trkpt><trkpt lat="40.55704462217989" lon="15.040796005267788"><ele>29.0</ele><time>2026-04-25T13:10:43Z</time></trkpt><trkpt lat="40.55694251096313" lon="15.040649017474202"><ele>28.25</ele><time>2026-04-25T13:10:44Z</time></trkpt><trkpt lat="40.55683650182751" lon="15.040513292880794"><ele>27.5</ele><time>2026-04-25T13:10:45Z</time></trkpt><trkpt lat="40.556729056842855" lon="15.040386012021528"><ele>26.75</ele><time>2026-04-25T13:10:46Z</time></trkpt><trkpt lat="40.556631520263025" lon="15.040257100864887"><ele>26.0</ele><time>2026-04-25T13:10:47Z</time></trkpt><trkpt lat="40.55654225780829" lon="15.04013500944427"><ele>26.0</ele><time>2026-04-25T13:10:48Z</time></trkpt><trkpt lat="40.55646363972951" lon="15.040020600740496"><ele>26.0</ele><time>2026-04-25T13:10:49Z</time></trkpt><trkpt lat="40.556394113590784" lon="15.03990512126865"><ele>26.0</ele><time>2026-04-25T13:10:50Z</time></trkpt><trkpt lat="40.55632732106353" lon="15.039786114979458"><ele>26.0</ele><time>2026-04-25T13:10:51Z</time></trkpt><trkpt lat="40.55626083687437" lon="15.039655311669087"><ele>25.5</ele><time>2026-04-25T13:10:52Z</time></trkpt><trkpt lat="40.556195090788215" lon="15.03950938873297"><ele>25.0</ele><time>2026-04-25T13:10:53Z</time></trkpt><trkpt lat="40.5561298157075" lon="15.039352263866343"><ele>24.5</ele><time>2026-04-25T13:10:54Z</time></trkpt><trkpt lat="40.556063765912725" lon="15.039188371755168"><ele>24.0</ele><time>2026-04-25T13:10:55Z</time></trkpt><trkpt lat="40.556000029233815" lon="15.039022811553195"><ele>24.0</ele><time>2026-04-25T13:10:56Z</time></trkpt><trkpt lat="40.55594551707457" lon="15.038862287263937"><ele>24.0</ele><time>2026-04-25T13:10:57Z</time></trkpt><trkpt lat="40.55589906360849" lon="15.03870860114199"><ele>24.0</ele><time>2026-04-25T13:10:58Z</time></trkpt><trkpt lat="40.55586204893829" lon="15.038549289319633"><ele>24.0</ele><time>2026-04-25T13:10:59Z</time></trkpt><trkpt lat="40.55582770502024" lon="15.038378683918163"><ele>23.75</ele><time>2026-04-25T13:11:00Z</time></trkpt><trkpt lat="40.55579498844081" lon="15.038202778803416"><ele>23.5</ele><time>2026-04-25T13:11:01Z</time></trkpt><trkpt lat="40.55576352502339" lon="15.038031610356846"><ele>23.25</ele><time>2026-04-25T13:11:02Z</time></trkpt><trkpt lat="40.555730693470885" lon="15.037872154325353"><ele>23.0</ele><time>2026-04-25T13:11:03Z</time></trkpt><trkpt lat="40.555697736366426" lon="15.0377247597886"><ele>23.0</ele><time>2026-04-25T13:11:04Z</time></trkpt><trkpt lat="40.55566323258774" lon="15.03758637411984"><ele>23.0</ele><time>2026-04-25T13:11:05Z</time></trkpt><trkpt lat="40.5556255563136" lon="15.037458387360052"><ele>23.0</ele><time>2026-04-25T13:11:06Z</time></trkpt><trkpt lat="40.555575298261985" lon="15.037347257122267"><ele>23.0</ele><time>2026-04-25T13:11:07Z</time></trkpt><trkpt lat="40.55551591135443" lon="15.037257567737292"><ele>23.0</ele><time>2026-04-25T13:11:08Z</time></trkpt><trkpt lat="40.55544850822066" lon="15.03719052273283"><ele>23.4</ele><time>2026-04-25T13:11:09Z</time></trkpt><trkpt lat="40.55536710881317" lon="15.037143598179183"><ele>23.799999999999997</ele><time>2026-04-25T13:11:10Z</time></trkpt><trkpt lat="40.55526872188579" lon="15.03712205574405"><ele>24.2</ele><time>2026-04-25T13:11:11Z</time></trkpt><trkpt lat="40.55516114900962" lon="15.03712552317551"><ele>24.6</ele><time>2026-04-25T13:11:12Z</time></trkpt><trkpt lat="40.555048111271844" lon="15.037140428010654"><ele>25.0</ele><time>2026-04-25T13:11:13Z</time></trkpt><trkpt lat="40.55493525530324" lon="15.037161183888239"><ele>25.0</ele><time>2026-04-25T13:11:14Z</time></trkpt><trkpt lat="40.55481826824116" lon="15.037181324492867"><ele>25.0</ele><time>2026-04-25T13:11:15Z</time></trkpt><trkpt lat="40.554695469037" lon="15.037206506317734"><ele>25.0</ele><time>2026-04-25T13:11:16Z</time></trkpt><trkpt lat="40.5545592450336" lon="15.037207366777277"><ele>25.0</ele><time>2026-04-25T13:11:17Z</time></trkpt><trkpt lat="40.554406025090564" lon="15.037232441020311"><ele>28.0</ele><time>2026-04-25T13:11:18Z</time></trkpt><trkpt lat="40.554233595524195" lon="15.037261020514752"><ele>31.0</ele><time>2026-04-25T13:11:19Z</time></trkpt><trkpt lat="40.55406212698147" lon="15.037287539440012"><ele>34.0</ele><time>2026-04-25T13:11:20Z</time></trkpt><trkpt lat="40.55389299102754" lon="15.037314314541812"><ele>34.0</ele><time>2026-04-25T13:11:21Z</time></trkpt><trkpt lat="40.55371273243491" lon="15.037347276279174"><ele>34.0</ele><time>2026-04-25T13:11:22Z</time></trkpt><trkpt lat="40.55353415721863" lon="15.03739427166961"><ele>34.0</ele><time>2026-04-25T13:11:23Z</time></trkpt><trkpt lat="40.55338111563272" lon="15.037441702297684"><ele>34.5</ele><time>2026-04-25T13:11:24Z</time></trkpt><trkpt lat="40.55324749939679" lon="15.037479826282588"><ele>35.0</ele><time>2026-04-25T13:11:25Z</time></trkpt><trkpt lat="40.55312433166097" lon="15.037504216306674"><ele>35.5</ele><time>2026-04-25T13:11:26Z</time></trkpt><trkpt lat="40.55301031454368" lon="15.037505923859058"><ele>36.0</ele><time>2026-04-25T13:11:27Z</time></trkpt><trkpt lat="40.552903240840955" lon="15.037419874071906"><ele>34.666666666666664</ele><time>2026-04-25T13:11:28Z</time></trkpt><trkpt lat="40.552821087275184" lon="15.037262561552652"><ele>33.33333333333333</ele><time>2026-04-25T13:11:29Z</time></trkpt><trkpt lat="40.55272558343098" lon="15.037085249902615"><ele>32.0</ele><time>2026-04-25T13:11:30Z</time></trkpt><trkpt lat="40.55263629085827" lon="15.036889363295291"><ele>32.0</ele><time>2026-04-25T13:11:30.999Z</time></trkpt><trkpt lat="40.55256167477888" lon="15.03670783040954"><ele>32.0</ele><time>2026-04-25T13:11:31.999Z</time></trkpt><trkpt lat="40.55249397541023" lon="15.036542623550446"><ele>32.0</ele><time>2026-04-25T13:11:32.999Z</time></trkpt><trkpt lat="40.55240038145453" lon="15.036392351002636"><ele>32.0</ele><time>2026-04-25T13:11:33.999Z</time></trkpt><trkpt lat="40.552292986930816" lon="15.03626140350487"><ele>32.666666666666664</ele><time>2026-04-25T13:11:34.999Z</time></trkpt><trkpt lat="40.55217563940362" lon="15.036145446205898"><ele>33.333333333333336</ele><time>2026-04-25T13:11:35.999Z</time></trkpt><trkpt lat="40.55205462498565" lon="15.036031381609709"><ele>34.0</ele><time>2026-04-25T13:11:36.999Z</time></trkpt><trkpt lat="40.55191902253693" lon="15.035907641620032"><ele>33.66666666666667</ele><time>2026-04-25T13:11:37.999Z</time></trkpt><trkpt lat="40.551772322215406" lon="15.035769758244967"><ele>33.333333333333336</ele><time>2026-04-25T13:11:38.999Z</time></trkpt><trkpt lat="40.55162525977796" lon="15.03561746151782"><ele>33.0</ele><time>2026-04-25T13:11:39.999Z</time></trkpt><trkpt lat="40.55147027538344" lon="15.035463299327025"><ele>33.0</ele><time>2026-04-25T13:11:40.999Z</time></trkpt><trkpt lat="40.551318936740806" lon="15.03531405100988"><ele>33.0</ele><time>2026-04-25T13:11:41.999Z</time></trkpt><trkpt lat="40.55116038076585" lon="15.03515819828073"><ele>33.0</ele><time>2026-04-25T13:11:42.999Z</time></trkpt><trkpt lat="40.55098953954944" lon="15.034985380592124"><ele>33.666666666666664</ele><time>2026-04-25T13:11:43.999Z</time></trkpt><trkpt lat="40.550818629762176" lon="15.03481744682853"><ele>34.33333333333333</ele><time>2026-04-25T13:11:44.999Z</time></trkpt><trkpt lat="40.55065155864976" lon="15.034656952502152"><ele>35.0</ele><time>2026-04-25T13:11:45.999Z</time></trkpt><trkpt lat="40.55048433305059" lon="15.034497226502902"><ele>34.666666666666664</ele><time>2026-04-25T13:11:46.999Z</time></trkpt><trkpt lat="40.550324427400646" lon="15.03434178878879"><ele>34.333333333333336</ele><time>2026-04-25T13:11:47.999Z</time></trkpt><trkpt lat="40.55016727327479" lon="15.034194650060568"><ele>34.0</ele><time>2026-04-25T13:11:48.999Z</time></trkpt><trkpt lat="40.550007002244776" lon="15.034047820928526"><ele>34.0</ele><time>2026-04-25T13:11:49.999Z</time></trkpt><trkpt lat="40.549845386606464" lon="15.033895160849337"><ele>34.0</ele><time>2026-04-25T13:11:50.999Z</time></trkpt><trkpt lat="40.54968679227456" lon="15.033741952161787"><ele>34.0</ele><time>2026-04-25T13:11:51.999Z</time></trkpt><trkpt lat="40.549527612043065" lon="15.03358874149063"><ele>34.0</ele><time>2026-04-25T13:11:52.999Z</time></trkpt><trkpt lat="40.54936742466323" lon="15.033436399598044"><ele>34.0</ele><time>2026-04-25T13:11:53.999Z</time></trkpt><trkpt lat="40.549203825324334" lon="15.033288118488523"><ele>34.0</ele><time>2026-04-25T13:11:54.999Z</time></trkpt><trkpt lat="40.54904328566851" lon="15.033138342849718"><ele>33.66666666666667</ele><time>2026-04-25T13:11:55.999Z</time></trkpt><trkpt lat="40.54888536065603" lon="15.03298776332721"><ele>33.333333333333336</ele><time>2026-04-25T13:11:56.999Z</time></trkpt><trkpt lat="40.548725707057" lon="15.032834119033609"><ele>33.0</ele><time>2026-04-25T13:11:57.999Z</time></trkpt><trkpt lat="40.54856687184523" lon="15.032684435262071"><ele>33.666666666666664</ele><time>2026-04-25T13:11:58.999Z</time></trkpt><trkpt lat="40.54840802726484" lon="15.032529414485598"><ele>34.33333333333333</ele><time>2026-04-25T13:11:59.999Z</time></trkpt><trkpt lat="40.54824850285158" lon="15.032376527284752"><ele>35.0</ele><time>2026-04-25T13:12:00.999Z</time></trkpt><trkpt lat="40.548091373358176" lon="15.032229287274305"><ele>35.0</ele><time>2026-04-25T13:12:01.999Z</time></trkpt><trkpt lat="40.547939134817824" lon="15.03208684662655"><ele>35.0</ele><time>2026-04-25T13:12:02.999Z</time></trkpt><trkpt lat="40.547789965326686" lon="15.03193857815625"><ele>35.0</ele><time>2026-04-25T13:12:03.999Z</time></trkpt><trkpt lat="40.54763574762705" lon="15.031793084677203"><ele>35.0</ele><time>2026-04-25T13:12:04.999Z</time></trkpt><trkpt lat="40.54748280097599" lon="15.031647267553211"><ele>35.0</ele><time>2026-04-25T13:12:05.999Z</time></trkpt><trkpt lat="40.54732767799926" lon="15.031502380347145"><ele>35.0</ele><time>2026-04-25T13:12:06.999Z</time></trkpt><trkpt lat="40.54716997979462" lon="15.031357619575436"><ele>35.0</ele><time>2026-04-25T13:12:07.999Z</time></trkpt><trkpt lat="40.5470214028307" lon="15.03121429791656"><ele>35.0</ele><time>2026-04-25T13:12:08.999Z</time></trkpt><trkpt lat="40.546873988293974" lon="15.031069488100758"><ele>35.0</ele><time>2026-04-25T13:12:09.999Z</time></trkpt><trkpt lat="40.546726771594" lon="15.030927669727156"><ele>35.33333333333333</ele><time>2026-04-25T13:12:10.999Z</time></trkpt><trkpt lat="40.54657750545915" lon="15.0307903376281"><ele>35.666666666666664</ele><time>2026-04-25T13:12:11.999Z</time></trkpt><trkpt lat="40.54643664276589" lon="15.030658912065027"><ele>36.0</ele><time>2026-04-25T13:12:12.999Z</time></trkpt><trkpt lat="40.54630253335701" lon="15.030532122201285"><ele>35.333333333333336</ele><time>2026-04-25T13:12:13.999Z</time></trkpt><trkpt lat="40.54617540024281" lon="15.030408061123506"><ele>34.66666666666667</ele><time>2026-04-25T13:12:14.999Z</time></trkpt><trkpt lat="40.54604940054226" lon="15.030292310774986"><ele>34.0</ele><time>2026-04-25T13:12:15.999Z</time></trkpt><trkpt lat="40.54592749707505" lon="15.030181122880496"><ele>34.0</ele><time>2026-04-25T13:12:16.999Z</time></trkpt><trkpt lat="40.54581468839044" lon="15.030076063583678"><ele>34.0</ele><time>2026-04-25T13:12:18Z</time></trkpt><trkpt lat="40.545709981387574" lon="15.029971725794125"><ele>34.0</ele><time>2026-04-25T13:12:19Z</time></trkpt><trkpt lat="40.5456170645596" lon="15.0298766378726"><ele>34.0</ele><time>2026-04-25T13:12:20Z</time></trkpt><trkpt lat="40.54554003726639" lon="15.02979627252355"><ele>34.25</ele><time>2026-04-25T13:12:21Z</time></trkpt><trkpt lat="40.5454633686684" lon="15.02971269521727"><ele>34.5</ele><time>2026-04-25T13:12:22Z</time></trkpt><trkpt lat="40.54537690154538" lon="15.029603079722895"><ele>34.75</ele><time>2026-04-25T13:12:23Z</time></trkpt><trkpt lat="40.54526929130548" lon="15.029501443232148"><ele>35.0</ele><time>2026-04-25T13:12:24Z</time></trkpt><trkpt lat="40.54514271766365" lon="15.0294136561979"><ele>35.0</ele><time>2026-04-25T13:12:25Z</time></trkpt><trkpt lat="40.54501286215841" lon="15.02931690618244"><ele>35.0</ele><time>2026-04-25T13:12:26Z</time></trkpt><trkpt lat="40.54489382617887" lon="15.029206633926055"><ele>35.0</ele><time>2026-04-25T13:12:27Z</time></trkpt><trkpt lat="40.544782791399264" lon="15.029098113714515"><ele>35.0</ele><time>2026-04-25T13:12:28Z</time></trkpt><trkpt lat="40.5446745508503" lon="15.028997004966948"><ele>35.0</ele><time>2026-04-25T13:12:29Z</time></trkpt><trkpt lat="40.5445564370286" lon="15.028891345081972"><ele>35.0</ele><time>2026-04-25T13:12:30Z</time></trkpt><trkpt lat="40.54443471684705" lon="15.028768194596477"><ele>35.0</ele><time>2026-04-25T13:12:31Z</time></trkpt><trkpt lat="40.5443042630797" lon="15.02863397004413"><ele>34.0</ele><time>2026-04-25T13:12:32Z</time></trkpt><trkpt lat="40.544169705939936" lon="15.028509587813458"><ele>33.0</ele><time>2026-04-25T13:12:33Z</time></trkpt><trkpt lat="40.544036727191695" lon="15.02838307569923"><ele>32.0</ele><time>2026-04-25T13:12:34Z</time></trkpt><trkpt lat="40.5439026458675" lon="15.028251394738733"><ele>31.666666666666664</ele><time>2026-04-25T13:12:35Z</time></trkpt><trkpt lat="40.54377233390663" lon="15.028115079581914"><ele>31.333333333333336</ele><time>2026-04-25T13:12:36Z</time></trkpt><trkpt lat="40.543637854139824" lon="15.02797809053669"><ele>31.0</ele><time>2026-04-25T13:12:37Z</time></trkpt><trkpt lat="40.5435035240347" lon="15.027842705547144"><ele>29.666666666666668</ele><time>2026-04-25T13:12:38Z</time></trkpt><trkpt lat="40.54336074543553" lon="15.027694636202474"><ele>28.333333333333336</ele><time>2026-04-25T13:12:39Z</time></trkpt><trkpt lat="40.54320285141537" lon="15.027525550037385"><ele>27.0</ele><time>2026-04-25T13:12:40Z</time></trkpt><trkpt lat="40.54302570977964" lon="15.027340555886814"><ele>26.0</ele><time>2026-04-25T13:12:41Z</time></trkpt><trkpt lat="40.54283776660266" lon="15.027148604702242"><ele>25.0</ele><time>2026-04-25T13:12:42Z</time></trkpt><trkpt lat="40.54264309332398" lon="15.026950356705207"><ele>25.0</ele><time>2026-04-25T13:12:43Z</time></trkpt><trkpt lat="40.542445544441875" lon="15.026753895672783"><ele>25.0</ele><time>2026-04-25T13:12:44Z</time></trkpt><trkpt lat="40.542251041398906" lon="15.026557910145147"><ele>25.0</ele><time>2026-04-25T13:12:45Z</time></trkpt><trkpt lat="40.54206487156149" lon="15.026365109168085"><ele>25.0</ele><time>2026-04-25T13:12:46Z</time></trkpt><trkpt lat="40.541886765020706" lon="15.026181993149985"><ele>25.0</ele><time>2026-04-25T13:12:47Z</time></trkpt><trkpt lat="40.54171400442982" lon="15.026004311876958"><ele>25.0</ele><time>2026-04-25T13:12:48Z</time></trkpt><trkpt lat="40.54154682448026" lon="15.025835481142666"><ele>25.0</ele><time>2026-04-25T13:12:49Z</time></trkpt><trkpt lat="40.54138920719797" lon="15.025675424745376"><ele>25.333333333333336</ele><time>2026-04-25T13:12:50Z</time></trkpt><trkpt lat="40.54124384210953" lon="15.025528069330099"><ele>25.666666666666664</ele><time>2026-04-25T13:12:51Z</time></trkpt><trkpt lat="40.54110462811891" lon="15.025385568349984"><ele>26.0</ele><time>2026-04-25T13:12:52Z</time></trkpt><trkpt lat="40.540965407508345" lon="15.025243179642644"><ele>25.0</ele><time>2026-04-25T13:12:53Z</time></trkpt><trkpt lat="40.540825865770266" lon="15.025103050293874"><ele>24.0</ele><time>2026-04-25T13:12:54Z</time></trkpt><trkpt lat="40.54068312621371" lon="15.024965030947765"><ele>23.0</ele><time>2026-04-25T13:12:55Z</time></trkpt><trkpt lat="40.54054430898176" lon="15.024823990260533"><ele>23.0</ele><time>2026-04-25T13:12:56Z</time></trkpt><trkpt lat="40.54040755800234" lon="15.024681660717567"><ele>23.0</ele><time>2026-04-25T13:12:57Z</time></trkpt><trkpt lat="40.54026736620749" lon="15.024536476328468"><ele>23.0</ele><time>2026-04-25T13:12:58Z</time></trkpt><trkpt lat="40.54012505808794" lon="15.024394381021828"><ele>23.666666666666668</ele><time>2026-04-25T13:12:59Z</time></trkpt><trkpt lat="40.53998145530879" lon="15.024251267534726"><ele>24.333333333333336</ele><time>2026-04-25T13:13:00Z</time></trkpt><trkpt lat="40.539839291947" lon="15.024102563008501"><ele>25.0</ele><time>2026-04-25T13:13:01Z</time></trkpt><trkpt lat="40.53969594654344" lon="15.023951363438297"><ele>25.333333333333336</ele><time>2026-04-25T13:13:02Z</time></trkpt><trkpt lat="40.539553305368436" lon="15.023802266446133"><ele>25.666666666666664</ele><time>2026-04-25T13:13:03Z</time></trkpt><trkpt lat="40.53940614801042" lon="15.02365164564062"><ele>26.0</ele><time>2026-04-25T13:13:04Z</time></trkpt><trkpt lat="40.539256221188076" lon="15.023502732132158"><ele>26.0</ele><time>2026-04-25T13:13:05Z</time></trkpt><trkpt lat="40.539108619239094" lon="15.023350018298427"><ele>26.0</ele><time>2026-04-25T13:13:06Z</time></trkpt><trkpt lat="40.53897529128161" lon="15.023202448812803"><ele>26.0</ele><time>2026-04-25T13:13:07Z</time></trkpt><trkpt lat="40.538847471410605" lon="15.023049165578353"><ele>25.666666666666664</ele><time>2026-04-25T13:13:08Z</time></trkpt><trkpt lat="40.53872848865343" lon="15.022892466091598"><ele>25.333333333333336</ele><time>2026-04-25T13:13:09Z</time></trkpt><trkpt lat="40.53861467090274" lon="15.022728820517667"><ele>25.0</ele><time>2026-04-25T13:13:10Z</time></trkpt><trkpt lat="40.538504431921474" lon="15.022566379720788"><ele>24.333333333333336</ele><time>2026-04-25T13:13:11Z</time></trkpt><trkpt lat="40.53838914240574" lon="15.022406281329328"><ele>23.666666666666668</ele><time>2026-04-25T13:13:12Z</time></trkpt><trkpt lat="40.538269803207825" lon="15.022242606555096"><ele>23.0</ele><time>2026-04-25T13:13:13Z</time></trkpt><trkpt lat="40.53814897670245" lon="15.022078825266785"><ele>23.0</ele><time>2026-04-25T13:13:14Z</time></trkpt><trkpt lat="40.53802783694819" lon="15.021913506293096"><ele>23.0</ele><time>2026-04-25T13:13:15Z</time></trkpt><trkpt lat="40.53790880608537" lon="15.02174045921501"><ele>23.0</ele><time>2026-04-25T13:13:16Z</time></trkpt><trkpt lat="40.537788233162765" lon="15.021570152936949"><ele>23.333333333333336</ele><time>2026-04-25T13:13:17Z</time></trkpt><trkpt lat="40.537668771450996" lon="15.021401275725285"><ele>23.666666666666668</ele><time>2026-04-25T13:13:18Z</time></trkpt><trkpt lat="40.53755137229598" lon="15.021236429873818"><ele>24.0</ele><time>2026-04-25T13:13:19Z</time></trkpt><trkpt lat="40.53743476061083" lon="15.021073268668303"><ele>24.0</ele><time>2026-04-25T13:13:20Z</time></trkpt><trkpt lat="40.537319140721216" lon="15.020909338661859"><ele>24.0</ele><time>2026-04-25T13:13:21Z</time></trkpt><trkpt lat="40.537207620567514" lon="15.020744543664229"><ele>24.0</ele><time>2026-04-25T13:13:22Z</time></trkpt><trkpt lat="40.53709644479687" lon="15.020583490357854"><ele>25.0</ele><time>2026-04-25T13:13:23Z</time></trkpt><trkpt lat="40.53698490488349" lon="15.02042581081828"><ele>26.0</ele><time>2026-04-25T13:13:24Z</time></trkpt><trkpt lat="40.53687578198518" lon="15.020275844270389"><ele>27.0</ele><time>2026-04-25T13:13:25Z</time></trkpt><trkpt lat="40.536779375275074" lon="15.020134597021572"><ele>27.0</ele><time>2026-04-25T13:13:26Z</time></trkpt><trkpt lat="40.53668204067473" lon="15.019989300582441"><ele>27.0</ele><time>2026-04-25T13:13:27Z</time></trkpt><trkpt lat="40.53657828139774" lon="15.019845593458612"><ele>27.0</ele><time>2026-04-25T13:13:28Z</time></trkpt><trkpt lat="40.536468986768234" lon="15.019697965391067"><ele>26.0</ele><time>2026-04-25T13:13:29Z</time></trkpt><trkpt lat="40.53635695871987" lon="15.019544970653927"><ele>25.0</ele><time>2026-04-25T13:13:30Z</time></trkpt><trkpt lat="40.53624680451102" lon="15.019389512320169"><ele>24.0</ele><time>2026-04-25T13:13:31Z</time></trkpt><trkpt lat="40.53613776916803" lon="15.019232500957022"><ele>23.0</ele><time>2026-04-25T13:13:32Z</time></trkpt><trkpt lat="40.53602865216239" lon="15.019075072704227"><ele>22.0</ele><time>2026-04-25T13:13:33Z</time></trkpt><trkpt lat="40.53591313641507" lon="15.018920771797813"><ele>21.0</ele><time>2026-04-25T13:13:34Z</time></trkpt><trkpt lat="40.5358011338905" lon="15.018770345385565"><ele>21.0</ele><time>2026-04-25T13:13:35Z</time></trkpt><trkpt lat="40.53569361656316" lon="15.018625542763514"><ele>21.0</ele><time>2026-04-25T13:13:36Z</time></trkpt><trkpt lat="40.53558723741748" lon="15.018481317355365"><ele>21.0</ele><time>2026-04-25T13:13:37Z</time></trkpt><trkpt lat="40.53548295035431" lon="15.018335325616484"><ele>21.5</ele><time>2026-04-25T13:13:37.999Z</time></trkpt><trkpt lat="40.535384876121974" lon="15.018186995868184"><ele>22.0</ele><time>2026-04-25T13:13:38.999Z</time></trkpt><trkpt lat="40.535288277226385" lon="15.018040569690566"><ele>22.5</ele><time>2026-04-25T13:13:39.999Z</time></trkpt><trkpt lat="40.53518951563362" lon="15.01789620363837"><ele>23.0</ele><time>2026-04-25T13:13:40.999Z</time></trkpt><trkpt lat="40.535085572632674" lon="15.01774978197965"><ele>23.0</ele><time>2026-04-25T13:13:41.999Z</time></trkpt><trkpt lat="40.534976182706075" lon="15.017596968852265"><ele>23.0</ele><time>2026-04-25T13:13:42.999Z</time></trkpt><trkpt lat="40.534857595324205" lon="15.017439192238315"><ele>23.0</ele><time>2026-04-25T13:13:43.999Z</time></trkpt><trkpt lat="40.53473689880866" lon="15.017275278278296"><ele>22.666666666666668</ele><time>2026-04-25T13:13:44.999Z</time></trkpt><trkpt lat="40.53461529586836" lon="15.0171001064221"><ele>22.333333333333332</ele><time>2026-04-25T13:13:45.999Z</time></trkpt><trkpt lat="40.53449075281233" lon="15.016920735769435"><ele>22.0</ele><time>2026-04-25T13:13:46.999Z</time></trkpt><trkpt lat="40.53436059232906" lon="15.016743488333312"><ele>21.333333333333332</ele><time>2026-04-25T13:13:47.999Z</time></trkpt><trkpt lat="40.53422647588535" lon="15.016557929772384"><ele>20.666666666666668</ele><time>2026-04-25T13:13:48.999Z</time></trkpt><trkpt lat="40.53408833646632" lon="15.01636640450585"><ele>20.0</ele><time>2026-04-25T13:13:49.999Z</time></trkpt><trkpt lat="40.53394821719305" lon="15.016173971110103"><ele>20.0</ele><time>2026-04-25T13:13:50.999Z</time></trkpt><trkpt lat="40.53380965673179" lon="15.01598038966535"><ele>20.0</ele><time>2026-04-25T13:13:51.999Z</time></trkpt><trkpt lat="40.53366968121715" lon="15.015783691148215"><ele>20.0</ele><time>2026-04-25T13:13:52.999Z</time></trkpt><trkpt lat="40.53352773055226" lon="15.015583852634187"><ele>19.666666666666668</ele><time>2026-04-25T13:13:53.999Z</time></trkpt><trkpt lat="40.53338461584629" lon="15.015385233433795"><ele>19.333333333333332</ele><time>2026-04-25T13:13:54.999Z</time></trkpt><trkpt lat="40.53324301440317" lon="15.015189262376158"><ele>19.0</ele><time>2026-04-25T13:13:55.999Z</time></trkpt><trkpt lat="40.53310464865729" lon="15.014995177143916"><ele>19.0</ele><time>2026-04-25T13:13:56.999Z</time></trkpt><trkpt lat="40.53297802477234" lon="15.014813268367535"><ele>19.0</ele><time>2026-04-25T13:13:57.999Z</time></trkpt><trkpt lat="40.53285679257621" lon="15.014644690939447"><ele>19.0</ele><time>2026-04-25T13:13:58.999Z</time></trkpt><trkpt lat="40.53274048286107" lon="15.014482416275262"><ele>19.0</ele><time>2026-04-25T13:13:59.999Z</time></trkpt><trkpt lat="40.53262512364372" lon="15.01431789374598"><ele>19.0</ele><time>2026-04-25T13:14:00.999Z</time></trkpt><trkpt lat="40.53250632089697" lon="15.014154068369763"><ele>19.0</ele><time>2026-04-25T13:14:01.999Z</time></trkpt><trkpt lat="40.53239063545436" lon="15.013992525266342"><ele>19.0</ele><time>2026-04-25T13:14:02.999Z</time></trkpt><trkpt lat="40.53227507064231" lon="15.013825951393938"><ele>19.0</ele><time>2026-04-25T13:14:03.999Z</time></trkpt><trkpt lat="40.532157437224114" lon="15.013663139672587"><ele>19.0</ele><time>2026-04-25T13:14:04.999Z</time></trkpt><trkpt lat="40.53204086997401" lon="15.01350110633569"><ele>19.0</ele><time>2026-04-25T13:14:05.999Z</time></trkpt><trkpt lat="40.53192068259073" lon="15.013336138459891"><ele>19.0</ele><time>2026-04-25T13:14:06.999Z</time></trkpt><trkpt lat="40.53179892175205" lon="15.013163244607792"><ele>19.0</ele><time>2026-04-25T13:14:07.999Z</time></trkpt><trkpt lat="40.53167477266891" lon="15.012983144570121"><ele>19.0</ele><time>2026-04-25T13:14:08.999Z</time></trkpt><trkpt lat="40.53154824524483" lon="15.012798092159136"><ele>19.0</ele><time>2026-04-25T13:14:09.999Z</time></trkpt><trkpt lat="40.53141764413733" lon="15.012614578762397"><ele>19.0</ele><time>2026-04-25T13:14:10.999Z</time></trkpt><trkpt lat="40.531283140211386" lon="15.012434713863072"><ele>18.666666666666664</ele><time>2026-04-25T13:14:11.999Z</time></trkpt><trkpt lat="40.531149740072664" lon="15.012249110884195"><ele>18.333333333333332</ele><time>2026-04-25T13:14:12.999Z</time></trkpt><trkpt lat="40.53101917866231" lon="15.01205873728655"><ele>18.0</ele><time>2026-04-25T13:14:13.999Z</time></trkpt><trkpt lat="40.53088895143314" lon="15.011874982452264"><ele>18.0</ele><time>2026-04-25T13:14:14.999Z</time></trkpt><trkpt lat="40.53075493907766" lon="15.01169223005802"><ele>18.0</ele><time>2026-04-25T13:14:15.999Z</time></trkpt><trkpt lat="40.53062293968684" lon="15.011511149226422"><ele>18.0</ele><time>2026-04-25T13:14:16.999Z</time></trkpt><trkpt lat="40.53049156204338" lon="15.011330146332153"><ele>18.0</ele><time>2026-04-25T13:14:17.999Z</time></trkpt><trkpt lat="40.53035904808007" lon="15.011149487696061"><ele>18.0</ele><time>2026-04-25T13:14:18.999Z</time></trkpt><trkpt lat="40.5302241709203" lon="15.010964126477289"><ele>18.0</ele><time>2026-04-25T13:14:19.999Z</time></trkpt><trkpt lat="40.5300877243001" lon="15.010771690941176"><ele>17.333333333333332</ele><time>2026-04-25T13:14:20.999Z</time></trkpt><trkpt lat="40.52995199633186" lon="15.010576265007339"><ele>16.666666666666664</ele><time>2026-04-25T13:14:21.999Z</time></trkpt><trkpt lat="40.52981029650127" lon="15.010374835631099"><ele>16.0</ele><time>2026-04-25T13:14:22.999Z</time></trkpt><trkpt lat="40.529670076074964" lon="15.010178476774847"><ele>16.333333333333332</ele><time>2026-04-25T13:14:24Z</time></trkpt><trkpt lat="40.529546642299835" lon="15.010001863366462"><ele>16.666666666666668</ele><time>2026-04-25T13:14:25Z</time></trkpt><trkpt lat="40.52943170220683" lon="15.009832830643214"><ele>17.0</ele><time>2026-04-25T13:14:26Z</time></trkpt><trkpt lat="40.52932330045633" lon="15.009681848795056"><ele>17.0</ele><time>2026-04-25T13:14:27Z</time></trkpt><trkpt lat="40.52922951717569" lon="15.009552184109879"><ele>17.0</ele><time>2026-04-25T13:14:28Z</time></trkpt><trkpt lat="40.52914592254571" lon="15.009430689945109"><ele>17.0</ele><time>2026-04-25T13:14:29Z</time></trkpt><trkpt lat="40.52907239178199" lon="15.009318522154683"><ele>17.0</ele><time>2026-04-25T13:14:30Z</time></trkpt><trkpt lat="40.529004048310654" lon="15.009216986764033"><ele>16.8</ele><time>2026-04-25T13:14:31Z</time></trkpt><trkpt lat="40.52894781626589" lon="15.009137147319771"><ele>16.6</ele><time>2026-04-25T13:14:32Z</time></trkpt><trkpt lat="40.52888416363382" lon="15.009044794943174"><ele>16.400000000000002</ele><time>2026-04-25T13:14:34Z</time></trkpt><trkpt lat="40.5287779009692" lon="15.008890917332002"><ele>16.2</ele><time>2026-04-25T13:16:45Z</time></trkpt><trkpt lat="40.52872275348687" lon="15.008820051839415"><ele>16.0</ele><time>2026-04-25T13:16:46Z</time></trkpt><trkpt lat="40.528658074084156" lon="15.008736028789567"><ele>16.25</ele><time>2026-04-25T13:16:47Z</time></trkpt><trkpt lat="40.52857783181474" lon="15.008630102386267"><ele>16.5</ele><time>2026-04-25T13:16:48Z</time></trkpt><trkpt lat="40.528487723638115" lon="15.008508518247702"><ele>16.75</ele><time>2026-04-25T13:16:49Z</time></trkpt><trkpt lat="40.52839261024635" lon="15.008372015825042"><ele>17.0</ele><time>2026-04-25T13:16:50Z</time></trkpt><trkpt lat="40.52828921179587" lon="15.008228639182768"><ele>17.0</ele><time>2026-04-25T13:16:51Z</time></trkpt><trkpt lat="40.5281710283701" lon="15.008064657486464"><ele>17.0</ele><time>2026-04-25T13:16:52Z</time></trkpt><trkpt lat="40.528044294752284" lon="15.007884526233637"><ele>17.0</ele><time>2026-04-25T13:16:53Z</time></trkpt><trkpt lat="40.527900247867144" lon="15.007670027001332"><ele>16.333333333333336</ele><time>2026-04-25T13:16:54Z</time></trkpt><trkpt lat="40.52776201090746" lon="15.007454793988353"><ele>15.666666666666668</ele><time>2026-04-25T13:16:55Z</time></trkpt><trkpt lat="40.52763729723511" lon="15.007250798527526"><ele>15.0</ele><time>2026-04-25T13:16:56Z</time></trkpt><trkpt lat="40.527515129715724" lon="15.007056324145177"><ele>15.0</ele><time>2026-04-25T13:16:57Z</time></trkpt><trkpt lat="40.527411418819995" lon="15.006855661498218"><ele>15.0</ele><time>2026-04-25T13:16:58Z</time></trkpt><trkpt lat="40.52728086469534" lon="15.006666729995102"><ele>15.0</ele><time>2026-04-25T13:16:59Z</time></trkpt><trkpt lat="40.527157424878475" lon="15.006453308551853"><ele>15.333333333333332</ele><time>2026-04-25T13:17:00Z</time></trkpt><trkpt lat="40.5270330940657" lon="15.006229669079671"><ele>15.666666666666666</ele><time>2026-04-25T13:17:01Z</time></trkpt><trkpt lat="40.52691760299507" lon="15.006019775318993"><ele>16.0</ele><time>2026-04-25T13:17:02Z</time></trkpt><trkpt lat="40.52681090417984" lon="15.005830079532245"><ele>16.333333333333332</ele><time>2026-04-25T13:17:03Z</time></trkpt><trkpt lat="40.526720963459304" lon="15.005632445147679"><ele>16.666666666666668</ele><time>2026-04-25T13:17:04Z</time></trkpt><trkpt lat="40.526612426875765" lon="15.005445936878353"><ele>17.0</ele><time>2026-04-25T13:17:05Z</time></trkpt><trkpt lat="40.52650078815355" lon="15.005262873886117"><ele>17.0</ele><time>2026-04-25T13:17:06Z</time></trkpt><trkpt lat="40.526375671922494" lon="15.005106205933672"><ele>17.0</ele><time>2026-04-25T13:17:07Z</time></trkpt><trkpt lat="40.52625743118393" lon="15.004950854504"><ele>17.0</ele><time>2026-04-25T13:17:08Z</time></trkpt><trkpt lat="40.526156645044196" lon="15.00478368063123"><ele>16.666666666666668</ele><time>2026-04-25T13:17:09Z</time></trkpt><trkpt lat="40.52604878368882" lon="15.004635787734495"><ele>16.333333333333332</ele><time>2026-04-25T13:17:10Z</time></trkpt><trkpt lat="40.52593947197357" lon="15.00449572492254"><ele>16.0</ele><time>2026-04-25T13:17:11Z</time></trkpt><trkpt lat="40.525812361791466" lon="15.004378425403107"><ele>16.0</ele><time>2026-04-25T13:17:12Z</time></trkpt><trkpt lat="40.52568551751718" lon="15.00424695121381"><ele>16.0</ele><time>2026-04-25T13:17:13Z</time></trkpt><trkpt lat="40.525558924836325" lon="15.004132679770322"><ele>16.0</ele><time>2026-04-25T13:17:14Z</time></trkpt><trkpt lat="40.52545020753302" lon="15.004003825250622"><ele>16.0</ele><time>2026-04-25T13:17:15Z</time></trkpt><trkpt lat="40.5253412141558" lon="15.003898064999513"><ele>16.0</ele><time>2026-04-25T13:17:16Z</time></trkpt><trkpt lat="40.52524092941669" lon="15.003800050863953"><ele>16.0</ele><time>2026-04-25T13:17:17Z</time></trkpt><trkpt lat="40.52513135064217" lon="15.003712082706016"><ele>16.0</ele><time>2026-04-25T13:17:18Z</time></trkpt><trkpt lat="40.52502947029421" lon="15.003594203077569"><ele>16.0</ele><time>2026-04-25T13:17:19Z</time></trkpt><trkpt lat="40.52492830724065" lon="15.003485856276066"><ele>16.0</ele><time>2026-04-25T13:17:20Z</time></trkpt><trkpt lat="40.52482777820786" lon="15.003368226599116"><ele>16.0</ele><time>2026-04-25T13:17:21Z</time></trkpt><trkpt lat="40.52473041000784" lon="15.003235041992387"><ele>16.0</ele><time>2026-04-25T13:17:22Z</time></trkpt><trkpt lat="40.52463769945399" lon="15.0030998234974"><ele>16.5</ele><time>2026-04-25T13:17:23Z</time></trkpt><trkpt lat="40.52455180872674" lon="15.002971590807341"><ele>17.0</ele><time>2026-04-25T13:17:24Z</time></trkpt><trkpt lat="40.52447214012323" lon="15.002851986418262"><ele>17.5</ele><time>2026-04-25T13:17:25Z</time></trkpt><trkpt lat="40.52439782458817" lon="15.002738516356727"><ele>18.0</ele><time>2026-04-25T13:17:26Z</time></trkpt><trkpt lat="40.524328839042234" lon="15.002630545795697"><ele>18.0</ele><time>2026-04-25T13:17:27Z</time></trkpt><trkpt lat="40.524265528050684" lon="15.002525935084828"><ele>18.0</ele><time>2026-04-25T13:17:28Z</time></trkpt><trkpt lat="40.52420862919428" lon="15.002427540530402"><ele>18.0</ele><time>2026-04-25T13:17:29Z</time></trkpt><trkpt lat="40.52415344432151" lon="15.002342629826058"><ele>18.0</ele><time>2026-04-25T13:17:30Z</time></trkpt><trkpt lat="40.524125044604254" lon="15.002260317421163"><ele>18.0</ele><time>2026-04-25T13:17:31Z</time></trkpt><trkpt lat="40.52407364152651" lon="15.002179235602144"><ele>18.0</ele><time>2026-04-25T13:17:33Z</time></trkpt><trkpt lat="40.5240581714103" lon="15.002074273913959"><ele>18.0</ele><time>2026-04-25T13:17:36Z</time></trkpt><trkpt lat="40.52405682266525" lon="15.00198288205139"><ele>18.0</ele><time>2026-04-25T13:17:41Z</time></trkpt><trkpt lat="40.52405982081601" lon="15.001882928561942"><ele>18.0</ele><time>2026-04-25T13:17:43Z</time></trkpt><trkpt lat="40.52404436042591" lon="15.001704459607842"><ele>18.0</ele><time>2026-04-25T13:17:45Z</time></trkpt><trkpt lat="40.52402631746328" lon="15.001616334765318"><ele>18.0</ele><time>2026-04-25T13:17:46Z</time></trkpt><trkpt lat="40.523968371115394" lon="15.001509569885588"><ele>18.0</ele><time>2026-04-25T13:17:48Z</time></trkpt><trkpt lat="40.52385768445487" lon="15.001442907315292"><ele>18.0</ele><time>2026-04-25T13:17:50Z</time></trkpt><trkpt lat="40.52379354528237" lon="15.001427443758697"><ele>18.0</ele><time>2026-04-25T13:17:51Z</time></trkpt><trkpt lat="40.52372401024901" lon="15.001436449164645"><ele>18.0</ele><time>2026-04-25T13:17:52Z</time></trkpt><trkpt lat="40.52366295178689" lon="15.001481609759987"><ele>18.0</ele><time>2026-04-25T13:17:53Z</time></trkpt><trkpt lat="40.52361878872972" lon="15.00155115284442"><ele>18.0</ele><time>2026-04-25T13:17:54Z</time></trkpt><trkpt lat="40.52358595925078" lon="15.00164677839685"><ele>17.8</ele><time>2026-04-25T13:17:54.999Z</time></trkpt><trkpt lat="40.5235659791129" lon="15.001759515352855"><ele>17.6</ele><time>2026-04-25T13:17:55.999Z</time></trkpt><trkpt lat="40.52356057137694" lon="15.00187925220759"><ele>17.4</ele><time>2026-04-25T13:17:56.999Z</time></trkpt><trkpt lat="40.52354268614011" lon="15.001991438332071"><ele>17.2</ele><time>2026-04-25T13:17:57.999Z</time></trkpt><trkpt lat="40.52350454585267" lon="15.002103146604892"><ele>17.0</ele><time>2026-04-25T13:17:58.999Z</time></trkpt><trkpt lat="40.523448752530655" lon="15.002212586418988"><ele>17.0</ele><time>2026-04-25T13:17:59.999Z</time></trkpt><trkpt lat="40.523375780354435" lon="15.002309076958804"><ele>17.0</ele><time>2026-04-25T13:18:00.999Z</time></trkpt><trkpt lat="40.523276793837454" lon="15.002360253325946"><ele>17.0</ele><time>2026-04-25T13:18:01.999Z</time></trkpt><trkpt lat="40.52319781971349" lon="15.002433801349268"><ele>17.0</ele><time>2026-04-25T13:18:02.999Z</time></trkpt><trkpt lat="40.52313738409813" lon="15.002487898584738"><ele>17.0</ele><time>2026-04-25T13:18:03.999Z</time></trkpt><trkpt lat="40.52308093374488" lon="15.00256463667178"><ele>17.0</ele><time>2026-04-25T13:18:05.999Z</time></trkpt><trkpt lat="40.523025469464564" lon="15.002609405574601"><ele>17.0</ele><time>2026-04-25T13:18:07.999Z</time></trkpt><trkpt lat="40.52294989767501" lon="15.002668532365648"><ele>17.0</ele><time>2026-04-25T13:18:09.999Z</time></trkpt><trkpt lat="40.52288855768141" lon="15.002722790783285"><ele>17.0</ele><time>2026-04-25T13:18:10.999Z</time></trkpt><trkpt lat="40.52282464809103" lon="15.0027757916886"><ele>17.0</ele><time>2026-04-25T13:18:11.999Z</time></trkpt><trkpt lat="40.522753531459934" lon="15.002837668041728"><ele>17.0</ele><time>2026-04-25T13:18:12.999Z</time></trkpt><trkpt lat="40.52268276018097" lon="15.002897487697725"><ele>17.0</ele><time>2026-04-25T13:18:13.999Z</time></trkpt><trkpt lat="40.52261843367747" lon="15.002953514464105"><ele>17.0</ele><time>2026-04-25T13:18:14.999Z</time></trkpt><trkpt lat="40.52255883100331" lon="15.003008981490257"><ele>17.0</ele><time>2026-04-25T13:18:15.999Z</time></trkpt><trkpt lat="40.52248986994368" lon="15.003082145766177"><ele>17.0</ele><time>2026-04-25T13:18:16.999Z</time></trkpt><trkpt lat="40.52239840369214" lon="15.00314504933772"><ele>17.0</ele><time>2026-04-25T13:18:17.999Z</time></trkpt><trkpt lat="40.522331695066526" lon="15.003241302565472"><ele>17.0</ele><time>2026-04-25T13:18:18.999Z</time></trkpt><trkpt lat="40.52225285645085" lon="15.003298053625493"><ele>17.0</ele><time>2026-04-25T13:18:19.999Z</time></trkpt><trkpt lat="40.52217439655811" lon="15.003339265262692"><ele>17.0</ele><time>2026-04-25T13:18:20.999Z</time></trkpt><trkpt lat="40.522087834774595" lon="15.00339508901712"><ele>17.0</ele><time>2026-04-25T13:18:21.999Z</time></trkpt><trkpt lat="40.52198700296385" lon="15.003494854397767"><ele>17.0</ele><time>2026-04-25T13:18:22.999Z</time></trkpt><trkpt lat="40.52185879877817" lon="15.003633706383317"><ele>17.0</ele><time>2026-04-25T13:18:23.999Z</time></trkpt><trkpt lat="40.521725382500996" lon="15.003753375657643"><ele>17.0</ele><time>2026-04-25T13:18:24.999Z</time></trkpt><trkpt lat="40.521591327112105" lon="15.003867486036436"><ele>17.0</ele><time>2026-04-25T13:18:25.999Z</time></trkpt><trkpt lat="40.521467615107056" lon="15.0039784964627"><ele>17.0</ele><time>2026-04-25T13:18:26.999Z</time></trkpt><trkpt lat="40.52134329924168" lon="15.004084554056"><ele>17.0</ele><time>2026-04-25T13:18:27.999Z</time></trkpt><trkpt lat="40.52121627184953" lon="15.00419177334876"><ele>17.0</ele><time>2026-04-25T13:18:28.999Z</time></trkpt><trkpt lat="40.52108431230903" lon="15.004302496116944"><ele>17.333333333333336</ele><time>2026-04-25T13:18:29.999Z</time></trkpt><trkpt lat="40.52094134755102" lon="15.004428405952298"><ele>17.666666666666668</ele><time>2026-04-25T13:18:30.999Z</time></trkpt><trkpt lat="40.52078715851507" lon="15.00456549154243"><ele>18.0</ele><time>2026-04-25T13:18:31.999Z</time></trkpt><trkpt lat="40.52064797625544" lon="15.004693068375119"><ele>18.0</ele><time>2026-04-25T13:18:32.999Z</time></trkpt><trkpt lat="40.520520695583286" lon="15.004807456733332"><ele>18.0</ele><time>2026-04-25T13:18:33.999Z</time></trkpt><trkpt lat="40.5203890668086" lon="15.004917965888474"><ele>18.0</ele><time>2026-04-25T13:18:34.999Z</time></trkpt><trkpt lat="40.520257658061865" lon="15.005036038914287"><ele>16.666666666666668</ele><time>2026-04-25T13:18:36Z</time></trkpt><trkpt lat="40.52012376019506" lon="15.005165422252476"><ele>15.333333333333334</ele><time>2026-04-25T13:18:37Z</time></trkpt><trkpt lat="40.519992979732685" lon="15.005299787739581"><ele>14.0</ele><time>2026-04-25T13:18:38Z</time></trkpt><trkpt lat="40.519874035474245" lon="15.005427627849345"><ele>14.0</ele><time>2026-04-25T13:18:39Z</time></trkpt><trkpt lat="40.51976729648121" lon="15.005557648701869"><ele>14.0</ele><time>2026-04-25T13:18:40Z</time></trkpt><trkpt lat="40.5196674298157" lon="15.00569299231147"><ele>14.0</ele><time>2026-04-25T13:18:41Z</time></trkpt><trkpt lat="40.51957017230932" lon="15.005836699547036"><ele>14.0</ele><time>2026-04-25T13:18:42Z</time></trkpt><trkpt lat="40.51947799644514" lon="15.005995140608144"><ele>13.75</ele><time>2026-04-25T13:18:43Z</time></trkpt><trkpt lat="40.51939487046591" lon="15.006154300183368"><ele>13.5</ele><time>2026-04-25T13:18:44Z</time></trkpt><trkpt lat="40.51931946290445" lon="15.006305355362507"><ele>13.25</ele><time>2026-04-25T13:18:45Z</time></trkpt><trkpt lat="40.51924121156213" lon="15.006444056560687"><ele>13.0</ele><time>2026-04-25T13:18:46Z</time></trkpt><trkpt lat="40.51915695982548" lon="15.006585206814709"><ele>13.5</ele><time>2026-04-25T13:18:47Z</time></trkpt><trkpt lat="40.519070221609795" lon="15.006730126196043"><ele>14.0</ele><time>2026-04-25T13:18:48Z</time></trkpt><trkpt lat="40.518976403708244" lon="15.006874050317315"><ele>14.5</ele><time>2026-04-25T13:18:49Z</time></trkpt><trkpt lat="40.518874746752374" lon="15.00701642853414"><ele>15.0</ele><time>2026-04-25T13:18:50Z</time></trkpt><trkpt lat="40.518764581228076" lon="15.007160209006932"><ele>14.666666666666668</ele><time>2026-04-25T13:18:51Z</time></trkpt><trkpt lat="40.518649734239865" lon="15.007304377570764"><ele>14.333333333333334</ele><time>2026-04-25T13:18:52Z</time></trkpt><trkpt lat="40.51852773204469" lon="15.007449669835303"><ele>14.0</ele><time>2026-04-25T13:18:53Z</time></trkpt><trkpt lat="40.51840081804722" lon="15.007591244394867"><ele>14.0</ele><time>2026-04-25T13:18:54Z</time></trkpt><trkpt lat="40.51826733947321" lon="15.007729233315013"><ele>14.0</ele><time>2026-04-25T13:18:55Z</time></trkpt><trkpt lat="40.518124641609965" lon="15.007854747143536"><ele>14.0</ele><time>2026-04-25T13:18:56Z</time></trkpt><trkpt lat="40.51797906178754" lon="15.007970127997224"><ele>12.666666666666668</ele><time>2026-04-25T13:18:57Z</time></trkpt><trkpt lat="40.51783650891025" lon="15.008077100315473"><ele>11.333333333333334</ele><time>2026-04-25T13:18:58Z</time></trkpt><trkpt lat="40.51769778235371" lon="15.008171398866768"><ele>10.0</ele><time>2026-04-25T13:18:59Z</time></trkpt><trkpt lat="40.51755949563037" lon="15.00826877916772"><ele>10.333333333333334</ele><time>2026-04-25T13:19:00Z</time></trkpt><trkpt lat="40.51741900040087" lon="15.00836274389081"><ele>10.666666666666666</ele><time>2026-04-25T13:19:01Z</time></trkpt><trkpt lat="40.51727232852927" lon="15.008446422056606"><ele>11.0</ele><time>2026-04-25T13:19:02Z</time></trkpt><trkpt lat="40.51712312953311" lon="15.008519940090803"><ele>10.333333333333332</ele><time>2026-04-25T13:19:03Z</time></trkpt><trkpt lat="40.516970691948835" lon="15.008587362097636"><ele>9.666666666666666</ele><time>2026-04-25T13:19:04Z</time></trkpt><trkpt lat="40.51681667044481" lon="15.00864821917382"><ele>9.0</ele><time>2026-04-25T13:19:05Z</time></trkpt><trkpt lat="40.5166595949465" lon="15.008702639856978"><ele>9.0</ele><time>2026-04-25T13:19:06Z</time></trkpt><trkpt lat="40.51649992343147" lon="15.008755329443614"><ele>9.0</ele><time>2026-04-25T13:19:07Z</time></trkpt><trkpt lat="40.5163418435511" lon="15.008809901067625"><ele>9.0</ele><time>2026-04-25T13:19:08Z</time></trkpt><trkpt lat="40.51618613470067" lon="15.008866446182042"><ele>8.666666666666666</ele><time>2026-04-25T13:19:09Z</time></trkpt><trkpt lat="40.51603012628926" lon="15.008925863039064"><ele>8.333333333333332</ele><time>2026-04-25T13:19:10Z</time></trkpt><trkpt lat="40.51586983721325" lon="15.008985587647876"><ele>8.0</ele><time>2026-04-25T13:19:11Z</time></trkpt><trkpt lat="40.51570811788122" lon="15.009043548652485"><ele>8.0</ele><time>2026-04-25T13:19:12Z</time></trkpt><trkpt lat="40.515545999925465" lon="15.009103171890713"><ele>8.0</ele><time>2026-04-25T13:19:13Z</time></trkpt><trkpt lat="40.51538442572843" lon="15.009163612801451"><ele>8.0</ele><time>2026-04-25T13:19:14Z</time></trkpt><trkpt lat="40.51522146190717" lon="15.009225919246932"><ele>7.666666666666666</ele><time>2026-04-25T13:19:15Z</time></trkpt><trkpt lat="40.51505320646334" lon="15.009281802045976"><ele>7.333333333333334</ele><time>2026-04-25T13:19:16Z</time></trkpt><trkpt lat="40.51488000228057" lon="15.0093372137891"><ele>7.0</ele><time>2026-04-25T13:19:17Z</time></trkpt><trkpt lat="40.514704430329765" lon="15.00939523901024"><ele>7.0</ele><time>2026-04-25T13:19:18Z</time></trkpt><trkpt lat="40.514528949812664" lon="15.009458668458095"><ele>7.0</ele><time>2026-04-25T13:19:19Z</time></trkpt><trkpt lat="40.51435150517912" lon="15.009523068800046"><ele>7.0</ele><time>2026-04-25T13:19:20Z</time></trkpt><trkpt lat="40.51416489625915" lon="15.009591117286023"><ele>7.0</ele><time>2026-04-25T13:19:21Z</time></trkpt><trkpt lat="40.51399117668434" lon="15.009654147769929"><ele>7.0</ele><time>2026-04-25T13:19:22Z</time></trkpt><trkpt lat="40.513822079782756" lon="15.009719713149877"><ele>7.0</ele><time>2026-04-25T13:19:23Z</time></trkpt><trkpt lat="40.51365066773864" lon="15.009781336898337"><ele>7.333333333333334</ele><time>2026-04-25T13:19:24Z</time></trkpt><trkpt lat="40.51347409424344" lon="15.009844811443646"><ele>7.666666666666666</ele><time>2026-04-25T13:19:25Z</time></trkpt><trkpt lat="40.513299063714946" lon="15.009907697564525"><ele>8.0</ele><time>2026-04-25T13:19:26Z</time></trkpt><trkpt lat="40.51312306860604" lon="15.009968987631531"><ele>7.666666666666666</ele><time>2026-04-25T13:19:27Z</time></trkpt><trkpt lat="40.51294677574232" lon="15.010033234190454"><ele>7.333333333333334</ele><time>2026-04-25T13:19:28Z</time></trkpt><trkpt lat="40.512771542519104" lon="15.010105319919594"><ele>7.0</ele><time>2026-04-25T13:19:29Z</time></trkpt><trkpt lat="40.51259546759801" lon="15.010166354935539"><ele>7.666666666666667</ele><time>2026-04-25T13:19:30Z</time></trkpt><trkpt lat="40.51242232859053" lon="15.010228989599991"><ele>8.333333333333334</ele><time>2026-04-25T13:19:31Z</time></trkpt><trkpt lat="40.51224468851814" lon="15.01028994590295"><ele>9.0</ele><time>2026-04-25T13:19:32Z</time></trkpt><trkpt lat="40.51206938123954" lon="15.010352136196348"><ele>9.0</ele><time>2026-04-25T13:19:33Z</time></trkpt><trkpt lat="40.511893537037714" lon="15.010412086841756"><ele>9.0</ele><time>2026-04-25T13:19:34Z</time></trkpt><trkpt lat="40.51172242325395" lon="15.010472483380005"><ele>9.0</ele><time>2026-04-25T13:19:35Z</time></trkpt><trkpt lat="40.51155475011461" lon="15.01052975608409"><ele>9.0</ele><time>2026-04-25T13:19:36Z</time></trkpt><trkpt lat="40.511387752439845" lon="15.010591596527856"><ele>9.0</ele><time>2026-04-25T13:19:37Z</time></trkpt><trkpt lat="40.511220721261914" lon="15.010653758071841"><ele>9.0</ele><time>2026-04-25T13:19:38Z</time></trkpt><trkpt lat="40.511049893941575" lon="15.010721564038418"><ele>9.0</ele><time>2026-04-25T13:19:39Z</time></trkpt><trkpt lat="40.51087319885586" lon="15.010788054786962"><ele>9.0</ele><time>2026-04-25T13:19:40Z</time></trkpt><trkpt lat="40.51069237339171" lon="15.010852558668901"><ele>9.0</ele><time>2026-04-25T13:19:41Z</time></trkpt><trkpt lat="40.510515539041" lon="15.010914077093942"><ele>8.0</ele><time>2026-04-25T13:19:42Z</time></trkpt><trkpt lat="40.51034572495242" lon="15.010973162598216"><ele>7.0</ele><time>2026-04-25T13:19:43Z</time></trkpt><trkpt lat="40.51018272143943" lon="15.011031013317922"><ele>6.0</ele><time>2026-04-25T13:19:44Z</time></trkpt><trkpt lat="40.51002611291159" lon="15.011088179209075"><ele>6.0</ele><time>2026-04-25T13:19:45Z</time></trkpt><trkpt lat="40.5098747661109" lon="15.011141430992724"><ele>6.0</ele><time>2026-04-25T13:19:46Z</time></trkpt><trkpt lat="40.509723179946576" lon="15.011194231462943"><ele>6.0</ele><time>2026-04-25T13:19:47Z</time></trkpt><trkpt lat="40.50957409470111" lon="15.011250306428984"><ele>5.666666666666667</ele><time>2026-04-25T13:19:48Z</time></trkpt><trkpt lat="40.509422887611656" lon="15.011304483551346"><ele>5.333333333333334</ele><time>2026-04-25T13:19:49Z</time></trkpt><trkpt lat="40.50927582263268" lon="15.011355851859152"><ele>5.0</ele><time>2026-04-25T13:19:50Z</time></trkpt><trkpt lat="40.509132990759426" lon="15.011405400352"><ele>5.0</ele><time>2026-04-25T13:19:51Z</time></trkpt><trkpt lat="40.50899025033846" lon="15.011458380320173"><ele>5.0</ele><time>2026-04-25T13:19:52Z</time></trkpt><trkpt lat="40.50884462189196" lon="15.011514089138176"><ele>5.0</ele><time>2026-04-25T13:19:53Z</time></trkpt><trkpt lat="40.50869617011604" lon="15.011572227354609"><ele>5.333333333333334</ele><time>2026-04-25T13:19:54Z</time></trkpt><trkpt lat="40.50854388828673" lon="15.011629090545291"><ele>5.666666666666667</ele><time>2026-04-25T13:19:55Z</time></trkpt><trkpt lat="40.50838994141249" lon="15.011685659999173"><ele>6.0</ele><time>2026-04-25T13:19:56Z</time></trkpt><trkpt lat="40.508232325185936" lon="15.011745037363237"><ele>6.0</ele><time>2026-04-25T13:19:57Z</time></trkpt><trkpt lat="40.508069925910945" lon="15.011807421112863"><ele>6.0</ele><time>2026-04-25T13:19:58Z</time></trkpt><trkpt lat="40.507906123305865" lon="15.011868684818396"><ele>6.0</ele><time>2026-04-25T13:19:59Z</time></trkpt><trkpt lat="40.50773908707286" lon="15.011929401095415"><ele>6.0</ele><time>2026-04-25T13:20:00Z</time></trkpt><trkpt lat="40.50756380693715" lon="15.011989910971371"><ele>6.0</ele><time>2026-04-25T13:20:00.999Z</time></trkpt><trkpt lat="40.507385884987535" lon="15.01205195050525"><ele>6.0</ele><time>2026-04-25T13:20:01.999Z</time></trkpt><trkpt lat="40.507202454537065" lon="15.012106393855085"><ele>6.333333333333334</ele><time>2026-04-25T13:20:02.999Z</time></trkpt><trkpt lat="40.50701725627788" lon="15.01213949404104"><ele>6.666666666666667</ele><time>2026-04-25T13:20:03.999Z</time></trkpt><trkpt lat="40.5068294581111" lon="15.012155134951541"><ele>7.0</ele><time>2026-04-25T13:20:04.999Z</time></trkpt><trkpt lat="40.5066426371921" lon="15.012154015315717"><ele>7.0</ele><time>2026-04-25T13:20:05.999Z</time></trkpt><trkpt lat="40.50646282579229" lon="15.012135046852155"><ele>7.0</ele><time>2026-04-25T13:20:06.999Z</time></trkpt><trkpt lat="40.5062907756475" lon="15.012105567384895"><ele>7.0</ele><time>2026-04-25T13:20:07.999Z</time></trkpt><trkpt lat="40.50612076584868" lon="15.012066077035811"><ele>7.0</ele><time>2026-04-25T13:20:08.999Z</time></trkpt><trkpt lat="40.505953399348904" lon="15.012019388163724"><ele>7.0</ele><time>2026-04-25T13:20:09.999Z</time></trkpt><trkpt lat="40.50579636076056" lon="15.011972203341983"><ele>7.0</ele><time>2026-04-25T13:20:10.999Z</time></trkpt><trkpt lat="40.505647257324185" lon="15.011926414536484"><ele>7.0</ele><time>2026-04-25T13:20:11.999Z</time></trkpt><trkpt lat="40.505505930568994" lon="15.011888842358669"><ele>7.0</ele><time>2026-04-25T13:20:12.999Z</time></trkpt><trkpt lat="40.505371509605204" lon="15.011853327109192"><ele>7.0</ele><time>2026-04-25T13:20:13.999Z</time></trkpt><trkpt lat="40.50524193640165" lon="15.011821770023074"><ele>7.0</ele><time>2026-04-25T13:20:14.999Z</time></trkpt><trkpt lat="40.505118667056294" lon="15.011792737550998"><ele>6.75</ele><time>2026-04-25T13:20:15.999Z</time></trkpt><trkpt lat="40.50499943130681" lon="15.011761897080182"><ele>6.5</ele><time>2026-04-25T13:20:16.999Z</time></trkpt><trkpt lat="40.50487991674511" lon="15.01173192432682"><ele>6.25</ele><time>2026-04-25T13:20:17.999Z</time></trkpt><trkpt lat="40.50476082178407" lon="15.011707129295479"><ele>6.0</ele><time>2026-04-25T13:20:18.999Z</time></trkpt><trkpt lat="40.5046499728145" lon="15.011679021224333"><ele>6.0</ele><time>2026-04-25T13:20:19.999Z</time></trkpt><trkpt lat="40.50454828449123" lon="15.011647015917498"><ele>6.0</ele><time>2026-04-25T13:20:20.999Z</time></trkpt><trkpt lat="40.50445022985605" lon="15.01161522037467"><ele>6.0</ele><time>2026-04-25T13:20:21.999Z</time></trkpt><trkpt lat="40.50434487502052" lon="15.011586968759817"><ele>6.0</ele><time>2026-04-25T13:20:22.999Z</time></trkpt><trkpt lat="40.50423042101259" lon="15.011557918283014"><ele>6.0</ele><time>2026-04-25T13:20:23.999Z</time></trkpt><trkpt lat="40.504117349928016" lon="15.011532133896152"><ele>6.0</ele><time>2026-04-25T13:20:24.999Z</time></trkpt><trkpt lat="40.504007278716344" lon="15.011506477246103"><ele>6.0</ele><time>2026-04-25T13:20:25.999Z</time></trkpt><trkpt lat="40.50389292911298" lon="15.011477963167147"><ele>6.0</ele><time>2026-04-25T13:20:26.999Z</time></trkpt><trkpt lat="40.50377552016821" lon="15.011448492845041"><ele>6.0</ele><time>2026-04-25T13:20:27.999Z</time></trkpt><trkpt lat="40.50365684204735" lon="15.011421840255611"><ele>5.75</ele><time>2026-04-25T13:20:28.999Z</time></trkpt><trkpt lat="40.50353078113522" lon="15.011388446473449"><ele>5.5</ele><time>2026-04-25T13:20:29.999Z</time></trkpt><trkpt lat="40.503390358028746" lon="15.01134722920293"><ele>5.25</ele><time>2026-04-25T13:20:30.999Z</time></trkpt><trkpt lat="40.50325008530661" lon="15.011306846325448"><ele>5.0</ele><time>2026-04-25T13:20:31.999Z</time></trkpt><trkpt lat="40.50310644468138" lon="15.011267641227967"><ele>5.0</ele><time>2026-04-25T13:20:32.999Z</time></trkpt><trkpt lat="40.50295673969786" lon="15.011234330862921"><ele>5.0</ele><time>2026-04-25T13:20:33.999Z</time></trkpt><trkpt lat="40.50280384062473" lon="15.011201379649545"><ele>5.0</ele><time>2026-04-25T13:20:34.999Z</time></trkpt><trkpt lat="40.502635090911944" lon="15.011171744679057"><ele>5.333333333333334</ele><time>2026-04-25T13:20:35.999Z</time></trkpt><trkpt lat="40.50246634321363" lon="15.011174725197566"><ele>5.666666666666667</ele><time>2026-04-25T13:20:36.999Z</time></trkpt><trkpt lat="40.50230055202154" lon="15.01120642268435"><ele>6.0</ele><time>2026-04-25T13:20:37.999Z</time></trkpt><trkpt lat="40.502140898659" lon="15.011254844888809"><ele>6.0</ele><time>2026-04-25T13:20:38.999Z</time></trkpt><trkpt lat="40.501983929911646" lon="15.011305040252495"><ele>6.0</ele><time>2026-04-25T13:20:39.999Z</time></trkpt><trkpt lat="40.501816422189044" lon="15.011375144861768"><ele>6.0</ele><time>2026-04-25T13:20:40.999Z</time></trkpt><trkpt lat="40.5016587063039" lon="15.011455692618751"><ele>6.0</ele><time>2026-04-25T13:20:42Z</time></trkpt><trkpt lat="40.50153093099217" lon="15.011524571826147"><ele>6.0</ele><time>2026-04-25T13:20:43Z</time></trkpt><trkpt lat="40.501422056645715" lon="15.011592115906673"><ele>6.0</ele><time>2026-04-25T13:20:44Z</time></trkpt><trkpt lat="40.50131834655172" lon="15.01165667076635"><ele>6.0</ele><time>2026-04-25T13:20:45Z</time></trkpt><trkpt lat="40.50121664477835" lon="15.011715794840011"><ele>5.8</ele><time>2026-04-25T13:20:46Z</time></trkpt><trkpt lat="40.501119182673534" lon="15.011769176049517"><ele>5.6</ele><time>2026-04-25T13:20:47Z</time></trkpt><trkpt lat="40.50102663629732" lon="15.011818133965805"><ele>5.4</ele><time>2026-04-25T13:20:48Z</time></trkpt><trkpt lat="40.500941519878815" lon="15.011871496958964"><ele>5.2</ele><time>2026-04-25T13:20:49Z</time></trkpt><trkpt lat="40.50084581188849" lon="15.011927206880388"><ele>5.0</ele><time>2026-04-25T13:20:50Z</time></trkpt><trkpt lat="40.50074401458975" lon="15.011984794861352"><ele>5.0</ele><time>2026-04-25T13:20:51Z</time></trkpt><trkpt lat="40.50064070537678" lon="15.012040841194647"><ele>5.0</ele><time>2026-04-25T13:20:52Z</time></trkpt><trkpt lat="40.50053750217935" lon="15.012102447001158"><ele>5.0</ele><time>2026-04-25T13:20:53Z</time></trkpt><trkpt lat="40.500428929473365" lon="15.012168839691997"><ele>5.0</ele><time>2026-04-25T13:20:54Z</time></trkpt><trkpt lat="40.50031153999598" lon="15.012240522855455"><ele>5.0</ele><time>2026-04-25T13:20:55Z</time></trkpt><trkpt lat="40.50019949849173" lon="15.01230483288719"><ele>5.0</ele><time>2026-04-25T13:20:56Z</time></trkpt><trkpt lat="40.500093230043234" lon="15.012365188926646"><ele>5.0</ele><time>2026-04-25T13:20:57Z</time></trkpt><trkpt lat="40.49998650429914" lon="15.012426832999008"><ele>5.0</ele><time>2026-04-25T13:20:58Z</time></trkpt><trkpt lat="40.49986863209291" lon="15.01249359280637"><ele>5.25</ele><time>2026-04-25T13:20:59Z</time></trkpt><trkpt lat="40.49974681548482" lon="15.012567809658265"><ele>5.5</ele><time>2026-04-25T13:21:00Z</time></trkpt><trkpt lat="40.49962671977097" lon="15.012638060633599"><ele>5.75</ele><time>2026-04-25T13:21:01Z</time></trkpt><trkpt lat="40.49950751297808" lon="15.012704765760091"><ele>6.0</ele><time>2026-04-25T13:21:02Z</time></trkpt><trkpt lat="40.499391108523234" lon="15.012770142604536"><ele>5.5</ele><time>2026-04-25T13:21:03Z</time></trkpt><trkpt lat="40.49927659005669" lon="15.012837289034056"><ele>5.0</ele><time>2026-04-25T13:21:04Z</time></trkpt><trkpt lat="40.499161348701826" lon="15.012906991585336"><ele>4.5</ele><time>2026-04-25T13:21:05Z</time></trkpt><trkpt lat="40.49904355887899" lon="15.012976806927874"><ele>4.0</ele><time>2026-04-25T13:21:06Z</time></trkpt><trkpt lat="40.498925635025316" lon="15.013047129570806"><ele>4.0</ele><time>2026-04-25T13:21:07Z</time></trkpt><trkpt lat="40.49881215238643" lon="15.01311101902333"><ele>4.0</ele><time>2026-04-25T13:21:08Z</time></trkpt><trkpt lat="40.49869545870577" lon="15.01317325469998"><ele>4.0</ele><time>2026-04-25T13:21:09Z</time></trkpt><trkpt lat="40.49857555171088" lon="15.013245014479102"><ele>4.0</ele><time>2026-04-25T13:21:10Z</time></trkpt><trkpt lat="40.49845041960387" lon="15.013318137764779"><ele>4.75</ele><time>2026-04-25T13:21:11Z</time></trkpt><trkpt lat="40.498322059111466" lon="15.013390303050434"><ele>5.5</ele><time>2026-04-25T13:21:12Z</time></trkpt><trkpt lat="40.498188137532786" lon="15.013462052935118"><ele>6.25</ele><time>2026-04-25T13:21:13Z</time></trkpt><trkpt lat="40.49805479282579" lon="15.01354012050923"><ele>7.0</ele><time>2026-04-25T13:21:14Z</time></trkpt><trkpt lat="40.4979172307773" lon="15.013619574389743"><ele>7.0</ele><time>2026-04-25T13:21:15Z</time></trkpt><trkpt lat="40.497778147683114" lon="15.013699165484518"><ele>7.0</ele><time>2026-04-25T13:21:16Z</time></trkpt><trkpt lat="40.497638661375504" lon="15.013777753162097"><ele>7.0</ele><time>2026-04-25T13:21:17Z</time></trkpt><trkpt lat="40.497503839218005" lon="15.013853269942198"><ele>7.0</ele><time>2026-04-25T13:21:18Z</time></trkpt><trkpt lat="40.49737518381002" lon="15.013923615639749"><ele>7.0</ele><time>2026-04-25T13:21:19Z</time></trkpt><trkpt lat="40.497247776984366" lon="15.013995750328748"><ele>7.0</ele><time>2026-04-25T13:21:20Z</time></trkpt><trkpt lat="40.49712018045536" lon="15.014072132405708"><ele>7.0</ele><time>2026-04-25T13:21:21Z</time></trkpt><trkpt lat="40.49700144624196" lon="15.014138627458275"><ele>6.75</ele><time>2026-04-25T13:21:22Z</time></trkpt><trkpt lat="40.4968857126196" lon="15.014203738227712"><ele>6.5</ele><time>2026-04-25T13:21:23Z</time></trkpt><trkpt lat="40.4967783281016" lon="15.014265783602225"><ele>6.25</ele><time>2026-04-25T13:21:24Z</time></trkpt><trkpt lat="40.49666982987923" lon="15.0143301325314"><ele>6.0</ele><time>2026-04-25T13:21:25Z</time></trkpt><trkpt lat="40.49655795322092" lon="15.014397763634715"><ele>6.0</ele><time>2026-04-25T13:21:26Z</time></trkpt><trkpt lat="40.496441914588615" lon="15.01446340731297"><ele>6.0</ele><time>2026-04-25T13:21:27Z</time></trkpt><trkpt lat="40.49632248645391" lon="15.014532993823627"><ele>6.0</ele><time>2026-04-25T13:21:28Z</time></trkpt><trkpt lat="40.49620684540065" lon="15.014597591473768"><ele>6.0</ele><time>2026-04-25T13:21:29Z</time></trkpt><trkpt lat="40.496097672938255" lon="15.014654022121812"><ele>6.666666666666667</ele><time>2026-04-25T13:21:30Z</time></trkpt><trkpt lat="40.495996653375336" lon="15.014707774044139"><ele>7.333333333333334</ele><time>2026-04-25T13:21:31Z</time></trkpt><trkpt lat="40.495911865150916" lon="15.014755850216474"><ele>8.0</ele><time>2026-04-25T13:21:32Z</time></trkpt><trkpt lat="40.49584035393144" lon="15.014797673294826"><ele>8.666666666666668</ele><time>2026-04-25T13:21:33Z</time></trkpt><trkpt lat="40.4957708489463" lon="15.014839405202492"><ele>9.333333333333334</ele><time>2026-04-25T13:21:34Z</time></trkpt><trkpt lat="40.49570354298585" lon="15.014879794940276"><ele>10.0</ele><time>2026-04-25T13:21:35Z</time></trkpt><trkpt lat="40.49563598157178" lon="15.014920485379507"><ele>10.0</ele><time>2026-04-25T13:21:36Z</time></trkpt><trkpt lat="40.495526787947895" lon="15.014978934619597"><ele>10.0</ele><time>2026-04-25T13:21:38Z</time></trkpt><trkpt lat="40.495423072900095" lon="15.015041145675083"><ele>10.0</ele><time>2026-04-25T13:21:40Z</time></trkpt><trkpt lat="40.49535506525765" lon="15.015078353119492"><ele>10.0</ele><time>2026-04-25T13:21:41Z</time></trkpt><trkpt lat="40.49528296820414" lon="15.015120322071288"><ele>10.0</ele><time>2026-04-25T13:21:42Z</time></trkpt><trkpt lat="40.495208048966795" lon="15.015162627792176"><ele>10.833333333333334</ele><time>2026-04-25T13:21:43Z</time></trkpt><trkpt lat="40.49513078779882" lon="15.015211293106487"><ele>11.666666666666668</ele><time>2026-04-25T13:21:44Z</time></trkpt><trkpt lat="40.495061741857086" lon="15.0152506441184"><ele>12.5</ele><time>2026-04-25T13:21:45Z</time></trkpt><trkpt lat="40.49499980523597" lon="15.015284031584537"><ele>13.333333333333334</ele><time>2026-04-25T13:21:46Z</time></trkpt><trkpt lat="40.494941212489785" lon="15.015315406031869"><ele>14.166666666666666</ele><time>2026-04-25T13:21:47Z</time></trkpt><trkpt lat="40.494834652352765" lon="15.01537883789941"><ele>15.0</ele><time>2026-04-25T13:21:49Z</time></trkpt><trkpt lat="40.49476952411687" lon="15.01541605868685"><ele>15.0</ele><time>2026-04-25T13:21:50Z</time></trkpt><trkpt lat="40.49469475913161" lon="15.015458946474045"><ele>15.0</ele><time>2026-04-25T13:21:51Z</time></trkpt><trkpt lat="40.49461574741865" lon="15.015504344780078"><ele>15.0</ele><time>2026-04-25T13:21:52Z</time></trkpt><trkpt lat="40.49453754156557" lon="15.015534632552615"><ele>15.0</ele><time>2026-04-25T13:21:53Z</time></trkpt><trkpt lat="40.49446617305097" lon="15.015572424887203"><ele>15.0</ele><time>2026-04-25T13:21:54Z</time></trkpt><trkpt lat="40.49440504087439" lon="15.015628533426808"><ele>15.0</ele><time>2026-04-25T13:21:55Z</time></trkpt><trkpt lat="40.494351370178464" lon="15.015703978069661"><ele>15.333333333333332</ele><time>2026-04-25T13:21:56Z</time></trkpt><trkpt lat="40.49430465357037" lon="15.015778696710044"><ele>15.666666666666666</ele><time>2026-04-25T13:21:57Z</time></trkpt><trkpt lat="40.494160669294494" lon="15.015612821657482"><ele>16.0</ele><time>2026-04-25T13:21:58Z</time></trkpt><trkpt lat="40.4941509395235" lon="15.015904927633448"><ele>16.0</ele><time>2026-04-25T13:21:59Z</time></trkpt><trkpt lat="40.49404300103763" lon="15.015941490325696"><ele>16.0</ele><time>2026-04-25T13:22:00Z</time></trkpt><trkpt lat="40.493938914594544" lon="15.015976850942698"><ele>16.0</ele><time>2026-04-25T13:22:01Z</time></trkpt><trkpt lat="40.493864107485955" lon="15.016000558131257"><ele>16.0</ele><time>2026-04-25T13:22:02Z</time></trkpt><trkpt lat="40.4937583697805" lon="15.015997192220187"><ele>16.0</ele><time>2026-04-25T13:22:04Z</time></trkpt><trkpt lat="40.493538511118025" lon="15.016135372768014"><ele>16.0</ele><time>2026-04-25T13:22:50Z</time></trkpt><trkpt lat="40.49342976042907" lon="15.016170381378364"><ele>16.0</ele><time>2026-04-25T13:22:51Z</time></trkpt><trkpt lat="40.49329272412953" lon="15.01621554514813"><ele>16.0</ele><time>2026-04-25T13:22:52Z</time></trkpt><trkpt lat="40.49313369914509" lon="15.016266411419783"><ele>16.0</ele><time>2026-04-25T13:22:53Z</time></trkpt><trkpt lat="40.49297132472555" lon="15.016298791810039"><ele>16.333333333333332</ele><time>2026-04-25T13:22:54Z</time></trkpt><trkpt lat="40.4928135081935" lon="15.016308193803377"><ele>16.666666666666668</ele><time>2026-04-25T13:22:55Z</time></trkpt><trkpt lat="40.49265666087862" lon="15.01630707463284"><ele>17.0</ele><time>2026-04-25T13:22:56Z</time></trkpt><trkpt lat="40.49250863867996" lon="15.016292043804315"><ele>17.0</ele><time>2026-04-25T13:22:57Z</time></trkpt><trkpt lat="40.49236745395159" lon="15.016278898164515"><ele>17.0</ele><time>2026-04-25T13:22:58Z</time></trkpt><trkpt lat="40.49222490070036" lon="15.016266997727673"><ele>17.0</ele><time>2026-04-25T13:22:59Z</time></trkpt><trkpt lat="40.49208550308491" lon="15.016250637185813"><ele>17.0</ele><time>2026-04-25T13:23:00Z</time></trkpt><trkpt lat="40.49194799228812" lon="15.01622913175867"><ele>17.333333333333336</ele><time>2026-04-25T13:23:01Z</time></trkpt><trkpt lat="40.491803009134074" lon="15.016212634893893"><ele>17.666666666666668</ele><time>2026-04-25T13:23:02Z</time></trkpt><trkpt lat="40.49164767230241" lon="15.016195780981052"><ele>18.0</ele><time>2026-04-25T13:23:03Z</time></trkpt><trkpt lat="40.491492104207076" lon="15.016175980604682"><ele>18.0</ele><time>2026-04-25T13:23:04Z</time></trkpt><trkpt lat="40.491344246682644" lon="15.016159591329776"><ele>18.0</ele><time>2026-04-25T13:23:05Z</time></trkpt><trkpt lat="40.49119885577728" lon="15.016139808667504"><ele>18.0</ele><time>2026-04-25T13:23:06Z</time></trkpt><trkpt lat="40.49105857758844" lon="15.016119822471534"><ele>18.0</ele><time>2026-04-25T13:23:07Z</time></trkpt><trkpt lat="40.49092969661967" lon="15.016104489500488"><ele>17.75</ele><time>2026-04-25T13:23:08Z</time></trkpt><trkpt lat="40.490804120430695" lon="15.016089269024718"><ele>17.5</ele><time>2026-04-25T13:23:09Z</time></trkpt><trkpt lat="40.49067280418796" lon="15.016077066261515"><ele>17.25</ele><time>2026-04-25T13:23:10Z</time></trkpt><trkpt lat="40.490536321494226" lon="15.016058519612137"><ele>17.0</ele><time>2026-04-25T13:23:11Z</time></trkpt><trkpt lat="40.49039690207645" lon="15.016032788840622"><ele>16.75</ele><time>2026-04-25T13:23:12Z</time></trkpt><trkpt lat="40.49026011348151" lon="15.01600984236916"><ele>16.5</ele><time>2026-04-25T13:23:13Z</time></trkpt><trkpt lat="40.49012680201263" lon="15.01599939509797"><ele>16.25</ele><time>2026-04-25T13:23:14Z</time></trkpt><trkpt lat="40.49000352533774" lon="15.015987705238222"><ele>16.0</ele><time>2026-04-25T13:23:15Z</time></trkpt><trkpt lat="40.48987897849362" lon="15.01596948528745"><ele>16.0</ele><time>2026-04-25T13:23:16Z</time></trkpt><trkpt lat="40.48974884263725" lon="15.015955549867336"><ele>16.0</ele><time>2026-04-25T13:23:17Z</time></trkpt><trkpt lat="40.48961611444883" lon="15.01593933266234"><ele>16.0</ele><time>2026-04-25T13:23:18Z</time></trkpt><trkpt lat="40.48948167444548" lon="15.015922690551045"><ele>16.0</ele><time>2026-04-25T13:23:19Z</time></trkpt><trkpt lat="40.489339003729214" lon="15.01590758172188"><ele>16.666666666666664</ele><time>2026-04-25T13:23:20Z</time></trkpt><trkpt lat="40.489188274044" lon="15.015895098052383"><ele>17.333333333333332</ele><time>2026-04-25T13:23:21Z</time></trkpt><trkpt lat="40.489034958465346" lon="15.015880861310983"><ele>18.0</ele><time>2026-04-25T13:23:22Z</time></trkpt><trkpt lat="40.48888045499565" lon="15.015866208123011"><ele>16.666666666666668</ele><time>2026-04-25T13:23:23Z</time></trkpt><trkpt lat="40.48872225700493" lon="15.015852132898939"><ele>15.333333333333334</ele><time>2026-04-25T13:23:24Z</time></trkpt><trkpt lat="40.488565198132335" lon="15.015839177536591"><ele>14.0</ele><time>2026-04-25T13:23:25Z</time></trkpt><trkpt lat="40.48841181600814" lon="15.015821523448803"><ele>14.25</ele><time>2026-04-25T13:23:26Z</time></trkpt><trkpt lat="40.48826650237286" lon="15.015802627436127"><ele>14.5</ele><time>2026-04-25T13:23:27Z</time></trkpt><trkpt lat="40.488123728477476" lon="15.015789081692889"><ele>14.75</ele><time>2026-04-25T13:23:28Z</time></trkpt><trkpt lat="40.48798369969005" lon="15.015775632148191"><ele>15.0</ele><time>2026-04-25T13:23:29Z</time></trkpt><trkpt lat="40.487847466804325" lon="15.015760736565534"><ele>14.0</ele><time>2026-04-25T13:23:30Z</time></trkpt><trkpt lat="40.48770729874352" lon="15.015748802900468"><ele>13.0</ele><time>2026-04-25T13:23:31Z</time></trkpt><trkpt lat="40.487563880375454" lon="15.01573647989836"><ele>12.0</ele><time>2026-04-25T13:23:32Z</time></trkpt><trkpt lat="40.48742307313819" lon="15.015715144304766"><ele>11.0</ele><time>2026-04-25T13:23:33Z</time></trkpt><trkpt lat="40.48727926482318" lon="15.015690141528383"><ele>11.0</ele><time>2026-04-25T13:23:34Z</time></trkpt><trkpt lat="40.48712611592684" lon="15.0156694734062"><ele>11.0</ele><time>2026-04-25T13:23:35Z</time></trkpt><trkpt lat="40.48696673484108" lon="15.015648550260313"><ele>11.0</ele><time>2026-04-25T13:23:36Z</time></trkpt><trkpt lat="40.48680600759494" lon="15.015625440951448"><ele>10.333333333333332</ele><time>2026-04-25T13:23:37Z</time></trkpt><trkpt lat="40.48664642157555" lon="15.015604201714956"><ele>9.666666666666666</ele><time>2026-04-25T13:23:38Z</time></trkpt><trkpt lat="40.48648903102759" lon="15.015583508454664"><ele>9.0</ele><time>2026-04-25T13:23:39Z</time></trkpt><trkpt lat="40.48633281273486" lon="15.015562290715675"><ele>9.666666666666666</ele><time>2026-04-25T13:23:40Z</time></trkpt><trkpt lat="40.48617729151552" lon="15.01554347304638"><ele>10.333333333333332</ele><time>2026-04-25T13:23:41Z</time></trkpt><trkpt lat="40.48602095093965" lon="15.015527956300215"><ele>11.0</ele><time>2026-04-25T13:23:42Z</time></trkpt><trkpt lat="40.48585717481257" lon="15.015514652733877"><ele>11.0</ele><time>2026-04-25T13:23:43Z</time></trkpt><trkpt lat="40.48568648281836" lon="15.015503254718999"><ele>11.0</ele><time>2026-04-25T13:23:44Z</time></trkpt><trkpt lat="40.48551798933969" lon="15.015491726993934"><ele>11.0</ele><time>2026-04-25T13:23:45Z</time></trkpt><trkpt lat="40.48535796463728" lon="15.01547589512005"><ele>11.333333333333332</ele><time>2026-04-25T13:23:46Z</time></trkpt><trkpt lat="40.48519951718066" lon="15.015459509306467"><ele>11.666666666666666</ele><time>2026-04-25T13:23:47Z</time></trkpt><trkpt lat="40.48503596221017" lon="15.015436622297496"><ele>12.0</ele><time>2026-04-25T13:23:48Z</time></trkpt><trkpt lat="40.484868799393006" lon="15.01540808107453"><ele>12.0</ele><time>2026-04-25T13:23:49Z</time></trkpt><trkpt lat="40.48470096471115" lon="15.015381246388234"><ele>12.0</ele><time>2026-04-25T13:23:50Z</time></trkpt><trkpt lat="40.48454219276616" lon="15.015354632056246"><ele>12.0</ele><time>2026-04-25T13:23:51Z</time></trkpt><trkpt lat="40.48438942779572" lon="15.015326931832051"><ele>12.333333333333332</ele><time>2026-04-25T13:23:52Z</time></trkpt><trkpt lat="40.48423423258669" lon="15.01530428121406"><ele>12.666666666666666</ele><time>2026-04-25T13:23:53Z</time></trkpt><trkpt lat="40.48407721386456" lon="15.015284022826728"><ele>13.0</ele><time>2026-04-25T13:23:54Z</time></trkpt><trkpt lat="40.48391749520494" lon="15.01526066236126"><ele>12.5</ele><time>2026-04-25T13:23:55Z</time></trkpt><trkpt lat="40.48376149123304" lon="15.015237377656112"><ele>12.0</ele><time>2026-04-25T13:23:56Z</time></trkpt><trkpt lat="40.48361408444729" lon="15.015217331430208"><ele>11.5</ele><time>2026-04-25T13:23:57Z</time></trkpt><trkpt lat="40.48347817255951" lon="15.015202041708704"><ele>11.0</ele><time>2026-04-25T13:23:58Z</time></trkpt><trkpt lat="40.48335957652305" lon="15.015189525723375"><ele>11.0</ele><time>2026-04-25T13:23:59Z</time></trkpt><trkpt lat="40.48324359279347" lon="15.015175472866362"><ele>11.0</ele><time>2026-04-25T13:24:00Z</time></trkpt><trkpt lat="40.483114069049556" lon="15.015154398255387"><ele>11.0</ele><time>2026-04-25T13:24:01Z</time></trkpt><trkpt lat="40.48296382671683" lon="15.015135696159923"><ele>11.0</ele><time>2026-04-25T13:24:02Z</time></trkpt><trkpt lat="40.48281685853164" lon="15.015122481546506"><ele>11.25</ele><time>2026-04-25T13:24:03Z</time></trkpt><trkpt lat="40.48268531646429" lon="15.015113137529303"><ele>11.5</ele><time>2026-04-25T13:24:04Z</time></trkpt><trkpt lat="40.48255383998926" lon="15.015103688674978"><ele>11.75</ele><time>2026-04-25T13:24:05Z</time></trkpt><trkpt lat="40.482411351220144" lon="15.015092295876483"><ele>12.0</ele><time>2026-04-25T13:24:06Z</time></trkpt><trkpt lat="40.48225842767221" lon="15.015073532428747"><ele>12.0</ele><time>2026-04-25T13:24:07Z</time></trkpt><trkpt lat="40.48209858043671" lon="15.015044437369639"><ele>12.0</ele><time>2026-04-25T13:24:08Z</time></trkpt><trkpt lat="40.481930991337876" lon="15.015020191963014"><ele>12.0</ele><time>2026-04-25T13:24:09Z</time></trkpt><trkpt lat="40.48176910449391" lon="15.015003324828788"><ele>13.0</ele><time>2026-04-25T13:24:10Z</time></trkpt><trkpt lat="40.481604521638054" lon="15.01498685469372"><ele>14.0</ele><time>2026-04-25T13:24:10.999Z</time></trkpt><trkpt lat="40.48143772908851" lon="15.014969859739985"><ele>15.0</ele><time>2026-04-25T13:24:11.999Z</time></trkpt><trkpt lat="40.48127188990591" lon="15.014948805421609"><ele>15.25</ele><time>2026-04-25T13:24:12.999Z</time></trkpt><trkpt lat="40.48111329799873" lon="15.014925818775577"><ele>15.5</ele><time>2026-04-25T13:24:13.999Z</time></trkpt><trkpt lat="40.480968024661856" lon="15.014908093336558"><ele>15.75</ele><time>2026-04-25T13:24:14.999Z</time></trkpt><trkpt lat="40.48082774344071" lon="15.014894231797786"><ele>16.0</ele><time>2026-04-25T13:24:15.999Z</time></trkpt><trkpt lat="40.4806744624151" lon="15.014877151737373"><ele>16.0</ele><time>2026-04-25T13:24:16.999Z</time></trkpt><trkpt lat="40.480517703884" lon="15.014852386451414"><ele>16.0</ele><time>2026-04-25T13:24:17.999Z</time></trkpt><trkpt lat="40.480374083319774" lon="15.014823773258838"><ele>16.0</ele><time>2026-04-25T13:24:18.999Z</time></trkpt><trkpt lat="40.48024716103159" lon="15.01480435875928"><ele>16.0</ele><time>2026-04-25T13:24:19.999Z</time></trkpt><trkpt lat="40.48014889267238" lon="15.014792442019278"><ele>16.166666666666664</ele><time>2026-04-25T13:24:20.999Z</time></trkpt><trkpt lat="40.48006710099064" lon="15.014778492205924"><ele>16.333333333333332</ele><time>2026-04-25T13:24:21.999Z</time></trkpt><trkpt lat="40.4799909422795" lon="15.014763196651952"><ele>16.5</ele><time>2026-04-25T13:24:22.999Z</time></trkpt><trkpt lat="40.47991817837265" lon="15.014752566547594"><ele>16.666666666666668</ele><time>2026-04-25T13:24:23.999Z</time></trkpt><trkpt lat="40.479840452528926" lon="15.014745023068965"><ele>16.833333333333336</ele><time>2026-04-25T13:24:24.999Z</time></trkpt><trkpt lat="40.479749478645196" lon="15.014734046178745"><ele>17.0</ele><time>2026-04-25T13:24:25.999Z</time></trkpt><trkpt lat="40.479657892626975" lon="15.01472234555549"><ele>17.2</ele><time>2026-04-25T13:24:26.999Z</time></trkpt><trkpt lat="40.47956418356487" lon="15.014711947566465"><ele>17.4</ele><time>2026-04-25T13:24:27.999Z</time></trkpt><trkpt lat="40.47946176118192" lon="15.014700438091825"><ele>17.6</ele><time>2026-04-25T13:24:28.999Z</time></trkpt><trkpt lat="40.479349265189015" lon="15.01469380846829"><ele>17.8</ele><time>2026-04-25T13:24:29.999Z</time></trkpt><trkpt lat="40.47922257882883" lon="15.014681909329873"><ele>18.0</ele><time>2026-04-25T13:24:30.999Z</time></trkpt><trkpt lat="40.479089539843855" lon="15.014663457122357"><ele>18.0</ele><time>2026-04-25T13:24:31.999Z</time></trkpt><trkpt lat="40.47896643342369" lon="15.014651320137897"><ele>18.0</ele><time>2026-04-25T13:24:32.999Z</time></trkpt><trkpt lat="40.47885252251073" lon="15.014641054298096"><ele>18.0</ele><time>2026-04-25T13:24:33.999Z</time></trkpt><trkpt lat="40.478735346762406" lon="15.01462482166058"><ele>18.0</ele><time>2026-04-25T13:24:34.999Z</time></trkpt><trkpt lat="40.47861208287844" lon="15.014606765101606"><ele>18.25</ele><time>2026-04-25T13:24:35.999Z</time></trkpt><trkpt lat="40.478483172142234" lon="15.014589086186762"><ele>18.5</ele><time>2026-04-25T13:24:36.999Z</time></trkpt><trkpt lat="40.478352839629196" lon="15.014576554408855"><ele>18.75</ele><time>2026-04-25T13:24:37.999Z</time></trkpt><trkpt lat="40.47823187603296" lon="15.014565242323483"><ele>19.0</ele><time>2026-04-25T13:24:38.999Z</time></trkpt><trkpt lat="40.47812069883244" lon="15.014551346322394"><ele>19.0</ele><time>2026-04-25T13:24:39.999Z</time></trkpt><trkpt lat="40.4780160588265" lon="15.014537152126069"><ele>19.0</ele><time>2026-04-25T13:24:40.999Z</time></trkpt><trkpt lat="40.47791710161659" lon="15.014525666090488"><ele>19.0</ele><time>2026-04-25T13:24:41.999Z</time></trkpt><trkpt lat="40.47781894803268" lon="15.01451782029751"><ele>19.0</ele><time>2026-04-25T13:24:42.999Z</time></trkpt><trkpt lat="40.47771882396749" lon="15.014507600079487"><ele>19.0</ele><time>2026-04-25T13:24:43.999Z</time></trkpt><trkpt lat="40.477623838300694" lon="15.014497882188907"><ele>19.0</ele><time>2026-04-25T13:24:44.999Z</time></trkpt><trkpt lat="40.47753845295717" lon="15.014490804665037"><ele>19.0</ele><time>2026-04-25T13:24:45.999Z</time></trkpt><trkpt lat="40.47747109650003" lon="15.0144881707063"><ele>19.0</ele><time>2026-04-25T13:24:46.999Z</time></trkpt><trkpt lat="40.47737962042631" lon="15.014479902216934"><ele>19.0</ele><time>2026-04-25T13:24:48.999Z</time></trkpt><trkpt lat="40.477316844928815" lon="15.014472699363292"><ele>19.0</ele><time>2026-04-25T13:24:50.999Z</time></trkpt><trkpt lat="40.47724307143208" lon="15.014477630025114"><ele>19.0</ele><time>2026-04-25T13:24:52.999Z</time></trkpt><trkpt lat="40.477171811368834" lon="15.014463096795465"><ele>19.25</ele><time>2026-04-25T13:24:54Z</time></trkpt><trkpt lat="40.47707110533347" lon="15.014448202008914"><ele>19.5</ele><time>2026-04-25T13:24:55Z</time></trkpt><trkpt lat="40.47692739341189" lon="15.014427173234457"><ele>19.75</ele><time>2026-04-25T13:24:56Z</time></trkpt><trkpt lat="40.47677508239141" lon="15.014409102281759"><ele>20.0</ele><time>2026-04-25T13:24:57Z</time></trkpt><trkpt lat="40.476634427810005" lon="15.014395949711052"><ele>20.0</ele><time>2026-04-25T13:24:58Z</time></trkpt><trkpt lat="40.47651153110827" lon="15.014377805708747"><ele>20.0</ele><time>2026-04-25T13:24:59Z</time></trkpt><trkpt lat="40.476396910134824" lon="15.014362239723376"><ele>20.0</ele><time>2026-04-25T13:25:00Z</time></trkpt><trkpt lat="40.47629316066282" lon="15.014352244576582"><ele>20.0</ele><time>2026-04-25T13:25:01Z</time></trkpt><trkpt lat="40.47620469302027" lon="15.014345679048189"><ele>20.0</ele><time>2026-04-25T13:25:02Z</time></trkpt><trkpt lat="40.476131992977386" lon="15.014339675861804"><ele>20.4</ele><time>2026-04-25T13:25:03Z</time></trkpt><trkpt lat="40.476059722905035" lon="15.014333200562401"><ele>20.8</ele><time>2026-04-25T13:25:05Z</time></trkpt><trkpt lat="40.47599446943069" lon="15.014320344401654"><ele>21.200000000000003</ele><time>2026-04-25T13:25:08Z</time></trkpt><trkpt lat="40.47590919937352" lon="15.014321272833469"><ele>21.6</ele><time>2026-04-25T13:25:12Z</time></trkpt><trkpt lat="40.475806043502594" lon="15.014287446213375"><ele>22.0</ele><time>2026-04-25T13:25:14Z</time></trkpt><trkpt lat="40.47567185817492" lon="15.014427523017286"><ele>22.0</ele><time>2026-04-25T13:25:16Z</time></trkpt><trkpt lat="40.47563112033247" lon="15.014523619983215"><ele>22.0</ele><time>2026-04-25T13:25:18Z</time></trkpt><trkpt lat="40.47586252606178" lon="15.014549502443392"><ele>22.0</ele><time>2026-04-25T13:25:19Z</time></trkpt><trkpt lat="40.47594313464099" lon="15.014565298022209"><ele>22.0</ele><time>2026-04-25T13:25:22Z</time></trkpt><trkpt lat="40.47590818583386" lon="15.014635338719346"><ele>22.0</ele><time>2026-04-25T13:26:01Z</time></trkpt><trkpt lat="40.47585081703111" lon="15.014670670063177"><ele>22.0</ele><time>2026-04-25T13:26:24.999Z</time></trkpt><trkpt lat="40.47593495576956" lon="15.014733084414795"><ele>22.0</ele><time>2026-04-25T13:34:13Z</time></trkpt><trkpt lat="40.47592802880132" lon="15.014649239774041"><ele>22.0</ele><time>2026-04-25T13:58:20.998Z</time></trkpt><trkpt lat="40.47598067712256" lon="15.014601447520361"><ele>22.0</ele><time>2026-04-25T14:01:07Z</time></trkpt><trkpt lat="40.476069350781195" lon="15.014545345357025"><ele>22.0</ele><time>2026-04-25T14:01:10Z</time></trkpt><trkpt lat="40.47613698796449" lon="15.014477869571275"><ele>22.0</ele><time>2026-04-25T14:01:12Z</time></trkpt><trkpt lat="40.47621467665345" lon="15.014427450016138"><ele>22.0</ele><time>2026-04-25T14:01:14Z</time></trkpt><trkpt lat="40.47632178131869" lon="15.014451708383097"><ele>22.0</ele><time>2026-04-25T14:01:16Z</time></trkpt><trkpt lat="40.47640864579539" lon="15.01446420634083"><ele>22.0</ele><time>2026-04-25T14:01:17Z</time></trkpt><trkpt lat="40.4765082459796" lon="15.014471689515126"><ele>22.0</ele><time>2026-04-25T14:01:18Z</time></trkpt><trkpt lat="40.47660886739954" lon="15.01448575084662"><ele>21.6</ele><time>2026-04-25T14:01:19Z</time></trkpt><trkpt lat="40.47671181917626" lon="15.014498785805575"><ele>21.200000000000003</ele><time>2026-04-25T14:01:20Z</time></trkpt><trkpt lat="40.476821774924325" lon="15.01451059177238"><ele>20.8</ele><time>2026-04-25T14:01:20.999Z</time></trkpt><trkpt lat="40.47693489753543" lon="15.01452247313935"><ele>20.4</ele><time>2026-04-25T14:01:21.999Z</time></trkpt><trkpt lat="40.4770399177402" lon="15.014535179555967"><ele>20.0</ele><time>2026-04-25T14:01:22.999Z</time></trkpt><trkpt lat="40.4771422622428" lon="15.014554004773297"><ele>19.8</ele><time>2026-04-25T14:01:23.999Z</time></trkpt><trkpt lat="40.47723046982908" lon="15.014568906130599"><ele>19.6</ele><time>2026-04-25T14:01:24.999Z</time></trkpt><trkpt lat="40.477308923728806" lon="15.014581122066337"><ele>19.4</ele><time>2026-04-25T14:01:25.999Z</time></trkpt><trkpt lat="40.47738174671148" lon="15.014592230068544"><ele>19.2</ele><time>2026-04-25T14:01:26.999Z</time></trkpt><trkpt lat="40.47748346865577" lon="15.014639359517082"><ele>19.0</ele><time>2026-04-25T14:01:28.999Z</time></trkpt><trkpt lat="40.47752909996504" lon="15.014757670051406"><ele>19.0</ele><time>2026-04-25T14:01:30.999Z</time></trkpt><trkpt lat="40.47754960278836" lon="15.0148541272594"><ele>19.0</ele><time>2026-04-25T14:01:32.999Z</time></trkpt><trkpt lat="40.47761403672332" lon="15.014866605601435"><ele>19.0</ele><time>2026-04-25T14:01:35.999Z</time></trkpt><trkpt lat="40.47769824801994" lon="15.0148407742217"><ele>19.0</ele><time>2026-04-25T14:08:55.999Z</time></trkpt><trkpt lat="40.477781024242596" lon="15.014817147057249"><ele>19.0</ele><time>2026-04-25T14:08:58.999Z</time></trkpt><trkpt lat="40.47784083065747" lon="15.01475913163764"><ele>19.0</ele><time>2026-04-25T14:09:12Z</time></trkpt><trkpt lat="40.47788659707612" lon="15.014684071629206"><ele>19.0</ele><time>2026-04-25T14:09:14Z</time></trkpt><trkpt lat="40.477868636900226" lon="15.014584592921812"><ele>19.0</ele><time>2026-04-25T14:09:23Z</time></trkpt><trkpt lat="40.47780216375056" lon="15.014531109176911"><ele>19.0</ele><time>2026-04-25T14:09:25Z</time></trkpt><trkpt lat="40.477711492279184" lon="15.014522253453102"><ele>19.0</ele><time>2026-04-25T14:09:26Z</time></trkpt><trkpt lat="40.477607870959844" lon="15.014516371842868"><ele>19.0</ele><time>2026-04-25T14:09:27Z</time></trkpt><trkpt lat="40.47748571051968" lon="15.014501891374017"><ele>19.0</ele><time>2026-04-25T14:09:28Z</time></trkpt><trkpt lat="40.477357823969996" lon="15.014485253150232"><ele>19.0</ele><time>2026-04-25T14:09:29Z</time></trkpt><trkpt lat="40.4772281325127" lon="15.014467019141469"><ele>19.0</ele><time>2026-04-25T14:09:30Z</time></trkpt><trkpt lat="40.47709143157534" lon="15.014450841074709"><ele>19.0</ele><time>2026-04-25T14:09:31Z</time></trkpt><trkpt lat="40.476947570268614" lon="15.014433005718027"><ele>19.333333333333332</ele><time>2026-04-25T14:09:32Z</time></trkpt><trkpt lat="40.476803502206515" lon="15.014412961785704"><ele>19.666666666666668</ele><time>2026-04-25T14:09:33Z</time></trkpt><trkpt lat="40.4766477679171" lon="15.014393017800801"><ele>20.0</ele><time>2026-04-25T14:09:34Z</time></trkpt><trkpt lat="40.47648901320678" lon="15.014374795384079"><ele>20.0</ele><time>2026-04-25T14:09:35Z</time></trkpt><trkpt lat="40.47632718956302" lon="15.01435666734244"><ele>20.0</ele><time>2026-04-25T14:09:36Z</time></trkpt><trkpt lat="40.47619488301378" lon="15.014341488724666"><ele>20.0</ele><time>2026-04-25T14:09:37Z</time></trkpt><trkpt lat="40.47608531204047" lon="15.014330190220926"><ele>20.0</ele><time>2026-04-25T14:09:38Z</time></trkpt><trkpt lat="40.475989973074746" lon="15.014319265523584"><ele>20.4</ele><time>2026-04-25T14:09:39Z</time></trkpt><trkpt lat="40.47590478043153" lon="15.014311019113775"><ele>20.8</ele><time>2026-04-25T14:09:40Z</time></trkpt><trkpt lat="40.47581380213112" lon="15.014302912732102"><ele>21.200000000000003</ele><time>2026-04-25T14:09:41Z</time></trkpt><trkpt lat="40.4757099182787" lon="15.01429190873305"><ele>21.6</ele><time>2026-04-25T14:09:42Z</time></trkpt><trkpt lat="40.475608260373335" lon="15.01428000357628"><ele>22.0</ele><time>2026-04-25T14:09:43Z</time></trkpt><trkpt lat="40.47551593355439" lon="15.014269267615203"><ele>21.6</ele><time>2026-04-25T14:09:44Z</time></trkpt><trkpt lat="40.475427974687385" lon="15.014255820566758"><ele>21.200000000000003</ele><time>2026-04-25T14:09:45Z</time></trkpt><trkpt lat="40.475348149730216" lon="15.014247253220622"><ele>20.8</ele><time>2026-04-25T14:09:46Z</time></trkpt><trkpt lat="40.47526122607424" lon="15.014236165262867"><ele>20.4</ele><time>2026-04-25T14:09:47Z</time></trkpt><trkpt lat="40.47515866808082" lon="15.014228952443986"><ele>20.0</ele><time>2026-04-25T14:09:48Z</time></trkpt><trkpt lat="40.47505609985498" lon="15.01421186303512"><ele>20.0</ele><time>2026-04-25T14:09:49Z</time></trkpt><trkpt lat="40.47495565653263" lon="15.014191194239631"><ele>20.0</ele><time>2026-04-25T14:09:50Z</time></trkpt><trkpt lat="40.47487473772925" lon="15.014161656183587"><ele>20.0</ele><time>2026-04-25T14:09:50.999Z</time></trkpt><trkpt lat="40.47482078404863" lon="15.014111328410547"><ele>20.0</ele><time>2026-04-25T14:09:51.999Z</time></trkpt><trkpt lat="40.47475618650619" lon="15.014038076034902"><ele>20.0</ele><time>2026-04-25T14:09:53.999Z</time></trkpt><trkpt lat="40.47480346757887" lon="15.013950612059785"><ele>20.0</ele><time>2026-04-25T14:09:56.999Z</time></trkpt><trkpt lat="40.474877618732464" lon="15.013958026449394"><ele>20.2</ele><time>2026-04-25T14:09:58.999Z</time></trkpt><trkpt lat="40.4749363834967" lon="15.014018220160965"><ele>20.4</ele><time>2026-04-25T14:10:01.999Z</time></trkpt><trkpt lat="40.47480155978371" lon="15.014150025485264"><ele>20.6</ele><time>2026-04-25T14:10:25.999Z</time></trkpt><trkpt lat="40.47471816769068" lon="15.014137373452243"><ele>20.8</ele><time>2026-04-25T14:10:26.999Z</time></trkpt><trkpt lat="40.474624131357906" lon="15.014127836318423"><ele>21.0</ele><time>2026-04-25T14:10:27.999Z</time></trkpt><trkpt lat="40.474512701418966" lon="15.014122171910834"><ele>21.5</ele><time>2026-04-25T14:10:28.999Z</time></trkpt><trkpt lat="40.474375169640915" lon="15.01411552379228"><ele>22.0</ele><time>2026-04-25T14:10:29.999Z</time></trkpt><trkpt lat="40.47423498288312" lon="15.014107321596068"><ele>22.5</ele><time>2026-04-25T14:10:30.999Z</time></trkpt><trkpt lat="40.47410830435824" lon="15.014095364199227"><ele>23.0</ele><time>2026-04-25T14:10:31.999Z</time></trkpt><trkpt lat="40.47399547071566" lon="15.014073751042671"><ele>23.0</ele><time>2026-04-25T14:10:32.999Z</time></trkpt><trkpt lat="40.473881549453544" lon="15.014054653380557"><ele>23.0</ele><time>2026-04-25T14:10:33.999Z</time></trkpt><trkpt lat="40.473775360144266" lon="15.01404465198282"><ele>23.0</ele><time>2026-04-25T14:10:34.999Z</time></trkpt><trkpt lat="40.473665854228315" lon="15.014031530212131"><ele>23.0</ele><time>2026-04-25T14:10:35.999Z</time></trkpt><trkpt lat="40.47355762438205" lon="15.014019504092952"><ele>23.0</ele><time>2026-04-25T14:10:36.999Z</time></trkpt><trkpt lat="40.47344341533286" lon="15.014006275946866"><ele>23.0</ele><time>2026-04-25T14:10:37.999Z</time></trkpt><trkpt lat="40.473320241941444" lon="15.01399298067788"><ele>23.0</ele><time>2026-04-25T14:10:38.999Z</time></trkpt><trkpt lat="40.47318998716651" lon="15.013979043194583"><ele>23.0</ele><time>2026-04-25T14:10:39.999Z</time></trkpt><trkpt lat="40.47306152202819" lon="15.01396161580296"><ele>23.0</ele><time>2026-04-25T14:10:40.999Z</time></trkpt><trkpt lat="40.47293256610634" lon="15.013947326401995"><ele>23.25</ele><time>2026-04-25T14:10:41.999Z</time></trkpt><trkpt lat="40.47280206823793" lon="15.013931177825151"><ele>23.5</ele><time>2026-04-25T14:10:42.999Z</time></trkpt><trkpt lat="40.47267338254393" lon="15.01391541537738"><ele>23.75</ele><time>2026-04-25T14:10:43.999Z</time></trkpt><trkpt lat="40.472543401097965" lon="15.013899563131947"><ele>24.0</ele><time>2026-04-25T14:10:44.999Z</time></trkpt><trkpt lat="40.47241136484318" lon="15.013881134609688"><ele>24.0</ele><time>2026-04-25T14:10:45.999Z</time></trkpt><trkpt lat="40.472274822592304" lon="15.013862427596916"><ele>24.0</ele><time>2026-04-25T14:10:46.999Z</time></trkpt><trkpt lat="40.47213952329974" lon="15.01384213782528"><ele>24.0</ele><time>2026-04-25T14:10:47.999Z</time></trkpt><trkpt lat="40.47200840574613" lon="15.013820525848521"><ele>24.0</ele><time>2026-04-25T14:10:48.999Z</time></trkpt><trkpt lat="40.47187855191329" lon="15.013803403956379"><ele>24.25</ele><time>2026-04-25T14:10:49.999Z</time></trkpt><trkpt lat="40.471748732227475" lon="15.01378955182603"><ele>24.5</ele><time>2026-04-25T14:10:50.999Z</time></trkpt><trkpt lat="40.47161479311135" lon="15.013774476943242"><ele>24.75</ele><time>2026-04-25T14:10:51.999Z</time></trkpt><trkpt lat="40.47149241739979" lon="15.013760483766701"><ele>25.0</ele><time>2026-04-25T14:10:52.999Z</time></trkpt><trkpt lat="40.471384396831915" lon="15.013751202707999"><ele>25.0</ele><time>2026-04-25T14:10:53.999Z</time></trkpt><trkpt lat="40.47128066397417" lon="15.013747933275235"><ele>25.0</ele><time>2026-04-25T14:10:54.999Z</time></trkpt><trkpt lat="40.471179951423075" lon="15.01374479015733"><ele>25.0</ele><time>2026-04-25T14:10:55.999Z</time></trkpt><trkpt lat="40.47108718552605" lon="15.01374391951445"><ele>25.0</ele><time>2026-04-25T14:10:56.999Z</time></trkpt><trkpt lat="40.4709988899645" lon="15.013738152223178"><ele>25.0</ele><time>2026-04-25T14:10:57.999Z</time></trkpt><trkpt lat="40.47090774029301" lon="15.013736630037416"><ele>24.8</ele><time>2026-04-25T14:10:58.999Z</time></trkpt><trkpt lat="40.470824352348615" lon="15.013735254265022"><ele>24.6</ele><time>2026-04-25T14:10:59.999Z</time></trkpt><trkpt lat="40.470748702369484" lon="15.013737929559179"><ele>24.4</ele><time>2026-04-25T14:11:00.999Z</time></trkpt><trkpt lat="40.47062860087949" lon="15.013752269491212"><ele>24.2</ele><time>2026-04-25T14:11:02.999Z</time></trkpt><trkpt lat="40.470511627046164" lon="15.013757805824772"><ele>24.0</ele><time>2026-04-25T14:11:04.999Z</time></trkpt><trkpt lat="40.470394404375185" lon="15.013717540638186"><ele>24.333333333333332</ele><time>2026-04-25T14:11:07Z</time></trkpt><trkpt lat="40.47032484548188" lon="15.013663683918713"><ele>24.666666666666664</ele><time>2026-04-25T14:11:08Z</time></trkpt><trkpt lat="40.47025947169468" lon="15.013616953919271"><ele>25.0</ele><time>2026-04-25T14:11:09Z</time></trkpt><trkpt lat="40.470199101757665" lon="15.013582328966452"><ele>25.333333333333332</ele><time>2026-04-25T14:11:10Z</time></trkpt><trkpt lat="40.470134421047796" lon="15.013572001650218"><ele>25.666666666666664</ele><time>2026-04-25T14:11:11Z</time></trkpt><trkpt lat="40.47006268892003" lon="15.013601099015307"><ele>26.0</ele><time>2026-04-25T14:11:12Z</time></trkpt><trkpt lat="40.46995729190878" lon="15.013657755050371"><ele>26.0</ele><time>2026-04-25T14:11:14Z</time></trkpt><trkpt lat="40.46994256973326" lon="15.013811426778194"><ele>26.0</ele><time>2026-04-25T14:11:15Z</time></trkpt><trkpt lat="40.46996552748107" lon="15.013920839547605"><ele>26.0</ele><time>2026-04-25T14:11:16Z</time></trkpt><trkpt lat="40.469979003461866" lon="15.014013528637708"><ele>26.0</ele><time>2026-04-25T14:11:17Z</time></trkpt><trkpt lat="40.470090496347396" lon="15.014071479003219"><ele>26.0</ele><time>2026-04-25T14:11:18Z</time></trkpt><trkpt lat="40.470156563735294" lon="15.014125256696069"><ele>26.0</ele><time>2026-04-25T14:11:19Z</time></trkpt><trkpt lat="40.470220115624876" lon="15.014189424427284"><ele>26.0</ele><time>2026-04-25T14:11:20Z</time></trkpt><trkpt lat="40.470273003765605" lon="15.014274732791863"><ele>26.0</ele><time>2026-04-25T14:11:21Z</time></trkpt><trkpt lat="40.47026775518991" lon="15.014405275553608"><ele>26.0</ele><time>2026-04-25T14:11:22Z</time></trkpt><trkpt lat="40.47028631686526" lon="15.014530417238722"><ele>26.0</ele><time>2026-04-25T14:11:23Z</time></trkpt><trkpt lat="40.470293778719586" lon="15.014665496726083"><ele>26.0</ele><time>2026-04-25T14:11:24Z</time></trkpt><trkpt lat="40.470301928624416" lon="15.01481051239708"><ele>26.0</ele><time>2026-04-25T14:11:25Z</time></trkpt><trkpt lat="40.4702990514401" lon="15.014953598468319"><ele>26.0</ele><time>2026-04-25T14:11:26Z</time></trkpt><trkpt lat="40.470294304608196" lon="15.015107267843538"><ele>26.0</ele><time>2026-04-25T14:11:27Z</time></trkpt><trkpt lat="40.47028602631875" lon="15.015266627596507"><ele>25.75</ele><time>2026-04-25T14:11:28Z</time></trkpt><trkpt lat="40.47027761521474" lon="15.015421449612857"><ele>25.5</ele><time>2026-04-25T14:11:29Z</time></trkpt><trkpt lat="40.47026843421845" lon="15.015572934800854"><ele>25.25</ele><time>2026-04-25T14:11:30Z</time></trkpt><trkpt lat="40.47025787349986" lon="15.015728465390017"><ele>25.0</ele><time>2026-04-25T14:11:31Z</time></trkpt><trkpt lat="40.47024652883288" lon="15.015895541392492"><ele>25.0</ele><time>2026-04-25T14:11:32Z</time></trkpt><trkpt lat="40.47023189922751" lon="15.016073337827178"><ele>25.0</ele><time>2026-04-25T14:11:33Z</time></trkpt><trkpt lat="40.47021721417945" lon="15.016258056018406"><ele>25.0</ele><time>2026-04-25T14:11:34Z</time></trkpt><trkpt lat="40.470213485302935" lon="15.016438579657999"><ele>25.0</ele><time>2026-04-25T14:11:35Z</time></trkpt><trkpt lat="40.47022905942705" lon="15.016616161908011"><ele>25.0</ele><time>2026-04-25T14:11:36Z</time></trkpt><trkpt lat="40.470278632965396" lon="15.016805128449052"><ele>25.0</ele><time>2026-04-25T14:11:37Z</time></trkpt><trkpt lat="40.47034477153956" lon="15.016993695478323"><ele>25.0</ele><time>2026-04-25T14:11:38Z</time></trkpt><trkpt lat="40.470419115072474" lon="15.017197518713633"><ele>25.0</ele><time>2026-04-25T14:11:39Z</time></trkpt><trkpt lat="40.47049575140109" lon="15.01739866895752"><ele>25.0</ele><time>2026-04-25T14:11:40Z</time></trkpt><trkpt lat="40.47057243076242" lon="15.017594070380394"><ele>25.0</ele><time>2026-04-25T14:11:41Z</time></trkpt><trkpt lat="40.47065347356991" lon="15.017795978887488"><ele>25.0</ele><time>2026-04-25T14:11:42Z</time></trkpt><trkpt lat="40.470732254439184" lon="15.01798974161615"><ele>25.0</ele><time>2026-04-25T14:11:43Z</time></trkpt><trkpt lat="40.4708117896675" lon="15.018189164412158"><ele>25.0</ele><time>2026-04-25T14:11:44Z</time></trkpt><trkpt lat="40.4708864476541" lon="15.018390685768946"><ele>25.0</ele><time>2026-04-25T14:11:45Z</time></trkpt><trkpt lat="40.470962195868665" lon="15.018594113049298"><ele>25.0</ele><time>2026-04-25T14:11:46Z</time></trkpt><trkpt lat="40.471039354048315" lon="15.01879465188415"><ele>25.0</ele><time>2026-04-25T14:11:47Z</time></trkpt><trkpt lat="40.47111781054529" lon="15.01899419732203"><ele>25.0</ele><time>2026-04-25T14:11:48Z</time></trkpt><trkpt lat="40.47119568884716" lon="15.01919227217512"><ele>25.0</ele><time>2026-04-25T14:11:49Z</time></trkpt><trkpt lat="40.47127192644022" lon="15.019386174060617"><ele>25.0</ele><time>2026-04-25T14:11:50Z</time></trkpt><trkpt lat="40.47134918361027" lon="15.019582669148638"><ele>25.0</ele><time>2026-04-25T14:11:51Z</time></trkpt><trkpt lat="40.47142603385797" lon="15.019778129676695"><ele>25.0</ele><time>2026-04-25T14:11:52Z</time></trkpt><trkpt lat="40.47150171887888" lon="15.019971826928584"><ele>25.0</ele><time>2026-04-25T14:11:53Z</time></trkpt><trkpt lat="40.47158009155223" lon="15.020172117456932"><ele>24.666666666666668</ele><time>2026-04-25T14:11:54Z</time></trkpt><trkpt lat="40.47165864281852" lon="15.02037127727036"><ele>24.333333333333336</ele><time>2026-04-25T14:11:54.999Z</time></trkpt><trkpt lat="40.471733079034586" lon="15.020559901636553"><ele>24.0</ele><time>2026-04-25T14:11:55.999Z</time></trkpt><trkpt lat="40.471802926703916" lon="15.020736898421612"><ele>24.25</ele><time>2026-04-25T14:11:56.999Z</time></trkpt><trkpt lat="40.47186750260693" lon="15.020900536323346"><ele>24.5</ele><time>2026-04-25T14:11:57.999Z</time></trkpt><trkpt lat="40.47192629389791" lon="15.021049515838682"><ele>24.75</ele><time>2026-04-25T14:11:58.999Z</time></trkpt><trkpt lat="40.47197877530609" lon="15.02118250582957"><ele>25.0</ele><time>2026-04-25T14:11:59.999Z</time></trkpt><trkpt lat="40.47202476401043" lon="15.021299254838409"><ele>25.0</ele><time>2026-04-25T14:12:00.999Z</time></trkpt><trkpt lat="40.47206404860718" lon="15.021399352031283"><ele>25.0</ele><time>2026-04-25T14:12:01.999Z</time></trkpt><trkpt lat="40.472110045074544" lon="15.021516551056"><ele>25.0</ele><time>2026-04-25T14:12:03.999Z</time></trkpt><trkpt lat="40.47204455734527" lon="15.02156349559911"><ele>25.0</ele><time>2026-04-25T14:12:05.999Z</time></trkpt><trkpt lat="40.47196361243466" lon="15.021635335734018"><ele>25.0</ele><time>2026-04-25T14:12:06.999Z</time></trkpt><trkpt lat="40.47188018484135" lon="15.021710670276295"><ele>25.0</ele><time>2026-04-25T14:12:07.999Z</time></trkpt><trkpt lat="40.47177747493961" lon="15.021803676321873"><ele>25.0</ele><time>2026-04-25T14:12:08.999Z</time></trkpt><trkpt lat="40.471660317620305" lon="15.0219047487096"><ele>25.0</ele><time>2026-04-25T14:12:09.999Z</time></trkpt><trkpt lat="40.471545345562504" lon="15.021998439408877"><ele>25.0</ele><time>2026-04-25T14:12:10.999Z</time></trkpt><trkpt lat="40.47142131910472" lon="15.022094494581731"><ele>25.0</ele><time>2026-04-25T14:12:11.999Z</time></trkpt><trkpt lat="40.47130324076556" lon="15.022182368720706"><ele>25.0</ele><time>2026-04-25T14:12:12.999Z</time></trkpt><trkpt lat="40.47119041659794" lon="15.022285296208212"><ele>25.0</ele><time>2026-04-25T14:12:13.999Z</time></trkpt><trkpt lat="40.471058525965105" lon="15.022370344017556"><ele>25.0</ele><time>2026-04-25T14:12:14.999Z</time></trkpt><trkpt lat="40.47092234130979" lon="15.022461805542191"><ele>25.0</ele><time>2026-04-25T14:12:15.999Z</time></trkpt><trkpt lat="40.47078389190472" lon="15.022559484658197"><ele>25.0</ele><time>2026-04-25T14:12:16.999Z</time></trkpt><trkpt lat="40.47063855522168" lon="15.02266054146179"><ele>25.0</ele><time>2026-04-25T14:12:17.999Z</time></trkpt><trkpt lat="40.47048708374894" lon="15.02276290824496"><ele>24.666666666666668</ele><time>2026-04-25T14:12:18.999Z</time></trkpt><trkpt lat="40.470333331825586" lon="15.022864483696885"><ele>24.333333333333336</ele><time>2026-04-25T14:12:19.999Z</time></trkpt><trkpt lat="40.47018227134548" lon="15.022965843832118"><ele>24.0</ele><time>2026-04-25T14:12:20.999Z</time></trkpt><trkpt lat="40.47003069185206" lon="15.023068726267237"><ele>24.0</ele><time>2026-04-25T14:12:21.999Z</time></trkpt><trkpt lat="40.469874568561394" lon="15.02317592511131"><ele>24.0</ele><time>2026-04-25T14:12:22.999Z</time></trkpt><trkpt lat="40.46971280079902" lon="15.02328624667075"><ele>24.0</ele><time>2026-04-25T14:12:23.999Z</time></trkpt><trkpt lat="40.4695429960676" lon="15.02340096272519"><ele>24.0</ele><time>2026-04-25T14:12:24.999Z</time></trkpt><trkpt lat="40.469373576954304" lon="15.023514364954165"><ele>24.0</ele><time>2026-04-25T14:12:25.999Z</time></trkpt><trkpt lat="40.46921056292969" lon="15.023620107026236"><ele>24.0</ele><time>2026-04-25T14:12:26.999Z</time></trkpt><trkpt lat="40.469053590445185" lon="15.023710744976846"><ele>24.0</ele><time>2026-04-25T14:12:27.999Z</time></trkpt><trkpt lat="40.46888897945485" lon="15.02378247904469"><ele>24.0</ele><time>2026-04-25T14:12:28.999Z</time></trkpt><trkpt lat="40.46872582761282" lon="15.023832728761963"><ele>24.0</ele><time>2026-04-25T14:12:29.999Z</time></trkpt><trkpt lat="40.468558040590175" lon="15.02388666301407"><ele>24.666666666666664</ele><time>2026-04-25T14:12:30.999Z</time></trkpt><trkpt lat="40.46838670822558" lon="15.023945104693563"><ele>25.333333333333332</ele><time>2026-04-25T14:12:31.999Z</time></trkpt><trkpt lat="40.46821986636816" lon="15.024002049926985"><ele>26.0</ele><time>2026-04-25T14:12:32.999Z</time></trkpt><trkpt lat="40.468061668604534" lon="15.024060346452973"><ele>26.0</ele><time>2026-04-25T14:12:33.999Z</time></trkpt><trkpt lat="40.46790434226733" lon="15.024119891609653"><ele>26.0</ele><time>2026-04-25T14:12:34.999Z</time></trkpt><trkpt lat="40.46774818043332" lon="15.024176097455179"><ele>26.0</ele><time>2026-04-25T14:12:35.999Z</time></trkpt><trkpt lat="40.46758995470056" lon="15.024231174947905"><ele>25.333333333333332</ele><time>2026-04-25T14:12:36.999Z</time></trkpt><trkpt lat="40.46743223732402" lon="15.024284705271326"><ele>24.666666666666664</ele><time>2026-04-25T14:12:37.999Z</time></trkpt><trkpt lat="40.46727307680101" lon="15.024340584376777"><ele>24.0</ele><time>2026-04-25T14:12:38.999Z</time></trkpt><trkpt lat="40.467112013668334" lon="15.02440053380569"><ele>24.333333333333336</ele><time>2026-04-25T14:12:39.999Z</time></trkpt><trkpt lat="40.466956142296446" lon="15.024454373525476"><ele>24.666666666666668</ele><time>2026-04-25T14:12:40.999Z</time></trkpt><trkpt lat="40.46679875971766" lon="15.024509991488124"><ele>25.0</ele><time>2026-04-25T14:12:41.999Z</time></trkpt><trkpt lat="40.46663529153021" lon="15.02456726154316"><ele>25.0</ele><time>2026-04-25T14:12:42.999Z</time></trkpt><trkpt lat="40.46648660919868" lon="15.024622581487197"><ele>25.0</ele><time>2026-04-25T14:12:43.999Z</time></trkpt><trkpt lat="40.46635247181064" lon="15.024673255257623"><ele>25.0</ele><time>2026-04-25T14:12:44.999Z</time></trkpt><trkpt lat="40.46621706600998" lon="15.024720168411557"><ele>25.0</ele><time>2026-04-25T14:12:45.999Z</time></trkpt><trkpt lat="40.46607587045301" lon="15.02476820733833"><ele>25.333333333333336</ele><time>2026-04-25T14:12:46.999Z</time></trkpt><trkpt lat="40.46593085430894" lon="15.024819244500616"><ele>25.666666666666664</ele><time>2026-04-25T14:12:47.999Z</time></trkpt><trkpt lat="40.4657841180064" lon="15.024872675002317"><ele>26.0</ele><time>2026-04-25T14:12:48.999Z</time></trkpt><trkpt lat="40.465633154670975" lon="15.024927719000775"><ele>26.0</ele><time>2026-04-25T14:12:49.999Z</time></trkpt><trkpt lat="40.46548406558534" lon="15.024978870546107"><ele>26.0</ele><time>2026-04-25T14:12:50.999Z</time></trkpt><trkpt lat="40.46533766194032" lon="15.025030139799714"><ele>26.0</ele><time>2026-04-25T14:12:51.999Z</time></trkpt><trkpt lat="40.465202107125926" lon="15.02508229623272"><ele>26.0</ele><time>2026-04-25T14:12:52.999Z</time></trkpt><trkpt lat="40.46507573323463" lon="15.02512830883289"><ele>26.25</ele><time>2026-04-25T14:12:53.999Z</time></trkpt><trkpt lat="40.4649494621478" lon="15.025168307488062"><ele>26.5</ele><time>2026-04-25T14:12:54.999Z</time></trkpt><trkpt lat="40.464817804251645" lon="15.025205205917068"><ele>26.75</ele><time>2026-04-25T14:12:55.999Z</time></trkpt><trkpt lat="40.464687875358756" lon="15.025235285177"><ele>27.0</ele><time>2026-04-25T14:12:56.999Z</time></trkpt><trkpt lat="40.464554353130076" lon="15.025246127249597"><ele>27.333333333333336</ele><time>2026-04-25T14:12:57.999Z</time></trkpt><trkpt lat="40.46440864307454" lon="15.025242814413525"><ele>27.666666666666668</ele><time>2026-04-25T14:12:58.999Z</time></trkpt><trkpt lat="40.4642560184434" lon="15.02523396623313"><ele>28.0</ele><time>2026-04-25T14:12:59.999Z</time></trkpt><trkpt lat="40.464096067806175" lon="15.02522611177292"><ele>28.0</ele><time>2026-04-25T14:13:00.999Z</time></trkpt><trkpt lat="40.463929658449565" lon="15.025214935885385"><ele>28.0</ele><time>2026-04-25T14:13:01.999Z</time></trkpt><trkpt lat="40.463768492484384" lon="15.025205482083965"><ele>28.0</ele><time>2026-04-25T14:13:02.999Z</time></trkpt><trkpt lat="40.463615598626475" lon="15.025195949602232"><ele>28.0</ele><time>2026-04-25T14:13:03.999Z</time></trkpt><trkpt lat="40.463460057915505" lon="15.025178937402819"><ele>28.0</ele><time>2026-04-25T14:13:04.999Z</time></trkpt><trkpt lat="40.46331480246495" lon="15.025160916730153"><ele>28.0</ele><time>2026-04-25T14:13:05.999Z</time></trkpt><trkpt lat="40.463165837008745" lon="15.02514870141265"><ele>28.0</ele><time>2026-04-25T14:13:06.999Z</time></trkpt><trkpt lat="40.463020470353456" lon="15.025133907686788"><ele>28.0</ele><time>2026-04-25T14:13:07.999Z</time></trkpt><trkpt lat="40.46288037439645" lon="15.025117900047341"><ele>28.0</ele><time>2026-04-25T14:13:08.999Z</time></trkpt><trkpt lat="40.462739720767786" lon="15.025102553671578"><ele>28.0</ele><time>2026-04-25T14:13:09.999Z</time></trkpt><trkpt lat="40.46259256525051" lon="15.025085742258923"><ele>28.5</ele><time>2026-04-25T14:13:11Z</time></trkpt><trkpt lat="40.46244179712272" lon="15.025068585490445"><ele>29.0</ele><time>2026-04-25T14:13:12Z</time></trkpt><trkpt lat="40.462297103926666" lon="15.025053575381511"><ele>29.5</ele><time>2026-04-25T14:13:13Z</time></trkpt><trkpt lat="40.462162981626626" lon="15.025042769560692"><ele>30.0</ele><time>2026-04-25T14:13:14Z</time></trkpt><trkpt lat="40.46203764335892" lon="15.025031218119853"><ele>30.25</ele><time>2026-04-25T14:13:15Z</time></trkpt><trkpt lat="40.46191352399414" lon="15.025014665587696"><ele>30.5</ele><time>2026-04-25T14:13:16Z</time></trkpt><trkpt lat="40.46177695913459" lon="15.025025291831621"><ele>30.75</ele><time>2026-04-25T14:13:17Z</time></trkpt><trkpt lat="40.4616402903821" lon="15.024994018737349"><ele>31.0</ele><time>2026-04-25T14:13:18Z</time></trkpt><trkpt lat="40.46149905765313" lon="15.02500704178307"><ele>31.0</ele><time>2026-04-25T14:13:19Z</time></trkpt><trkpt lat="40.461365298562114" lon="15.024999540588446"><ele>31.0</ele><time>2026-04-25T14:13:20Z</time></trkpt><trkpt lat="40.461241044142085" lon="15.024996459262914"><ele>31.0</ele><time>2026-04-25T14:13:21Z</time></trkpt><trkpt lat="40.461130921251396" lon="15.024963757783231"><ele>31.0</ele><time>2026-04-25T14:13:22Z</time></trkpt><trkpt lat="40.46103227004654" lon="15.024961132102446"><ele>30.8</ele><time>2026-04-25T14:13:23Z</time></trkpt><trkpt lat="40.46094692911618" lon="15.024969466677351"><ele>30.6</ele><time>2026-04-25T14:13:24Z</time></trkpt><trkpt lat="40.460877093036096" lon="15.024927467411514"><ele>30.4</ele><time>2026-04-25T14:13:25Z</time></trkpt><trkpt lat="40.460774335605336" lon="15.025010811509471"><ele>30.2</ele><time>2026-04-25T14:13:26Z</time></trkpt><trkpt lat="40.460683577531185" lon="15.025037208468802"><ele>30.0</ele><time>2026-04-25T14:13:27Z</time></trkpt><trkpt lat="40.460592735909515" lon="15.025065418467424"><ele>30.0</ele><time>2026-04-25T14:13:28Z</time></trkpt><trkpt lat="40.460495325286146" lon="15.025124812426384"><ele>30.0</ele><time>2026-04-25T14:13:29Z</time></trkpt><trkpt lat="40.46038403762578" lon="15.025145459030659"><ele>30.0</ele><time>2026-04-25T14:13:30Z</time></trkpt><trkpt lat="40.46027038165479" lon="15.025195963471862"><ele>30.0</ele><time>2026-04-25T14:13:31Z</time></trkpt><trkpt lat="40.460160522001644" lon="15.02524280481087"><ele>29.8</ele><time>2026-04-25T14:13:32Z</time></trkpt><trkpt lat="40.46004552604998" lon="15.025288124593914"><ele>29.6</ele><time>2026-04-25T14:13:33Z</time></trkpt><trkpt lat="40.4599343834177" lon="15.025333958320466"><ele>29.4</ele><time>2026-04-25T14:13:34Z</time></trkpt><trkpt lat="40.459836264548755" lon="15.025372416032084"><ele>29.2</ele><time>2026-04-25T14:13:35Z</time></trkpt><trkpt lat="40.45975626124221" lon="15.025400715495454"><ele>29.0</ele><time>2026-04-25T14:13:36Z</time></trkpt><trkpt lat="40.4596887957035" lon="15.025420952269016"><ele>29.0</ele><time>2026-04-25T14:13:37Z</time></trkpt><trkpt lat="40.45962762473528" lon="15.02544062480367"><ele>29.0</ele><time>2026-04-25T14:13:38Z</time></trkpt><trkpt lat="40.459547634661924" lon="15.025479635406105"><ele>29.0</ele><time>2026-04-25T14:13:39Z</time></trkpt><trkpt lat="40.45944757325427" lon="15.025542684176315"><ele>29.0</ele><time>2026-04-25T14:13:40Z</time></trkpt><trkpt lat="40.45932050106299" lon="15.025622139710116"><ele>29.0</ele><time>2026-04-25T14:13:41Z</time></trkpt><trkpt lat="40.45917627102993" lon="15.025708886747106"><ele>29.0</ele><time>2026-04-25T14:13:42Z</time></trkpt><trkpt lat="40.45903024801496" lon="15.02579944817825"><ele>29.0</ele><time>2026-04-25T14:13:43Z</time></trkpt><trkpt lat="40.458885395089695" lon="15.025891307246026"><ele>29.0</ele><time>2026-04-25T14:13:44Z</time></trkpt><trkpt lat="40.45873569613296" lon="15.025983960550619"><ele>29.0</ele><time>2026-04-25T14:13:45Z</time></trkpt><trkpt lat="40.45858542021944" lon="15.026072798509466"><ele>29.0</ele><time>2026-04-25T14:13:46Z</time></trkpt><trkpt lat="40.4584351916349" lon="15.026150643905721"><ele>29.0</ele><time>2026-04-25T14:13:47Z</time></trkpt><trkpt lat="40.458281960847586" lon="15.026221015890373"><ele>29.0</ele><time>2026-04-25T14:13:48Z</time></trkpt><trkpt lat="40.45813762465778" lon="15.026283346182666"><ele>29.0</ele><time>2026-04-25T14:13:49Z</time></trkpt><trkpt lat="40.457993901384725" lon="15.026347488119294"><ele>29.0</ele><time>2026-04-25T14:13:50Z</time></trkpt><trkpt lat="40.4578431199431" lon="15.026422793934884"><ele>29.333333333333332</ele><time>2026-04-25T14:13:51Z</time></trkpt><trkpt lat="40.45768983257871" lon="15.026517161810197"><ele>29.666666666666664</ele><time>2026-04-25T14:13:52Z</time></trkpt><trkpt lat="40.457533031440896" lon="15.02662211737201"><ele>30.0</ele><time>2026-04-25T14:13:53Z</time></trkpt><trkpt lat="40.45737884177498" lon="15.02672915184366"><ele>30.666666666666664</ele><time>2026-04-25T14:13:53.999Z</time></trkpt><trkpt lat="40.45723254230327" lon="15.026844127651628"><ele>31.333333333333332</ele><time>2026-04-25T14:13:54.999Z</time></trkpt><trkpt lat="40.457078246588516" lon="15.026948881272942"><ele>32.0</ele><time>2026-04-25T14:13:55.999Z</time></trkpt><trkpt lat="40.456925746875264" lon="15.02705318411481"><ele>32.0</ele><time>2026-04-25T14:13:56.999Z</time></trkpt><trkpt lat="40.45677065925405" lon="15.027164720446676"><ele>32.0</ele><time>2026-04-25T14:13:57.999Z</time></trkpt><trkpt lat="40.45661525878237" lon="15.027277989007365"><ele>32.0</ele><time>2026-04-25T14:13:58.999Z</time></trkpt><trkpt lat="40.45646409230158" lon="15.027394497308407"><ele>32.0</ele><time>2026-04-25T14:13:59.999Z</time></trkpt><trkpt lat="40.45631418752549" lon="15.027480576202226"><ele>32.0</ele><time>2026-04-25T14:14:00.999Z</time></trkpt><trkpt lat="40.45619580630711" lon="15.027588867738451"><ele>32.0</ele><time>2026-04-25T14:14:01.999Z</time></trkpt><trkpt lat="40.45605272156891" lon="15.027698370743403"><ele>31.666666666666664</ele><time>2026-04-25T14:14:02.999Z</time></trkpt><trkpt lat="40.45591819646372" lon="15.0278211746803"><ele>31.333333333333336</ele><time>2026-04-25T14:14:03.999Z</time></trkpt><trkpt lat="40.455771084947635" lon="15.027938958497918"><ele>31.0</ele><time>2026-04-25T14:14:04.999Z</time></trkpt><trkpt lat="40.455632272339834" lon="15.028084077273489"><ele>31.0</ele><time>2026-04-25T14:14:05.999Z</time></trkpt><trkpt lat="40.45549888948531" lon="15.028244794289247"><ele>31.0</ele><time>2026-04-25T14:14:06.999Z</time></trkpt><trkpt lat="40.455367140514596" lon="15.028411450060483"><ele>31.0</ele><time>2026-04-25T14:14:07.999Z</time></trkpt><trkpt lat="40.455235142433374" lon="15.028576369254715"><ele>31.333333333333336</ele><time>2026-04-25T14:14:08.999Z</time></trkpt><trkpt lat="40.455114491477374" lon="15.028724899270772"><ele>31.666666666666664</ele><time>2026-04-25T14:14:09.999Z</time></trkpt><trkpt lat="40.45499094351242" lon="15.028876995657564"><ele>32.0</ele><time>2026-04-25T14:14:10.999Z</time></trkpt><trkpt lat="40.454854757161684" lon="15.029029168919962"><ele>32.0</ele><time>2026-04-25T14:14:11.999Z</time></trkpt><trkpt lat="40.454705674413404" lon="15.029167946678486"><ele>32.0</ele><time>2026-04-25T14:14:12.999Z</time></trkpt><trkpt lat="40.45456662373146" lon="15.029305044800816"><ele>32.0</ele><time>2026-04-25T14:14:13.999Z</time></trkpt><trkpt lat="40.45444761842828" lon="15.029438417109612"><ele>32.0</ele><time>2026-04-25T14:14:14.999Z</time></trkpt><trkpt lat="40.45436110503781" lon="15.02953947500373"><ele>32.0</ele><time>2026-04-25T14:14:15.999Z</time></trkpt><trkpt lat="40.454290429599" lon="15.029622101578186"><ele>32.0</ele><time>2026-04-25T14:14:16.999Z</time></trkpt><trkpt lat="40.45423040978764" lon="15.029717332150415"><ele>32.0</ele><time>2026-04-25T14:14:17.999Z</time></trkpt><trkpt lat="40.454171961784354" lon="15.029775787583183"><ele>32.0</ele><time>2026-04-25T14:14:18.999Z</time></trkpt><trkpt lat="40.45408763324505" lon="15.02984960955998"><ele>32.25</ele><time>2026-04-25T14:14:20.999Z</time></trkpt><trkpt lat="40.454082426449496" lon="15.0301017708143"><ele>32.5</ele><time>2026-04-25T14:14:22.999Z</time></trkpt><trkpt lat="40.454150991087374" lon="15.03018198693502"><ele>32.75</ele><time>2026-04-25T14:14:23.999Z</time></trkpt><trkpt lat="40.45415141358256" lon="15.030293503799674"><ele>33.0</ele><time>2026-04-25T14:14:24.999Z</time></trkpt><trkpt lat="40.454141889886685" lon="15.030401858023064"><ele>33.0</ele><time>2026-04-25T14:14:25.999Z</time></trkpt><trkpt lat="40.45412060897817" lon="15.030510701589337"><ele>33.0</ele><time>2026-04-25T14:14:26.999Z</time></trkpt><trkpt lat="40.45404281133626" lon="15.030629020957461"><ele>33.0</ele><time>2026-04-25T14:14:27.999Z</time></trkpt><trkpt lat="40.45403600736109" lon="15.030746156195445"><ele>33.0</ele><time>2026-04-25T14:14:28.999Z</time></trkpt><trkpt lat="40.454056063391995" lon="15.030830245194203"><ele>33.0</ele><time>2026-04-25T14:14:31.999Z</time></trkpt><trkpt lat="40.4540225368468" lon="15.030926816920111"><ele>33.0</ele><time>2026-04-25T14:14:34.999Z</time></trkpt><trkpt lat="40.45408366424401" lon="15.031046415018979"><ele>33.0</ele><time>2026-04-25T14:14:36.999Z</time></trkpt><trkpt lat="40.454095596007235" lon="15.031139864548653"><ele>33.0</ele><time>2026-04-25T14:14:37.999Z</time></trkpt><trkpt lat="40.45410675313495" lon="15.03122724595299"><ele>33.0</ele><time>2026-04-25T14:14:38.999Z</time></trkpt><trkpt lat="40.45411924989927" lon="15.031325119247976"><ele>33.0</ele><time>2026-04-25T14:14:39.999Z</time></trkpt><trkpt lat="40.45413138473449" lon="15.031420157952404"><ele>33.0</ele><time>2026-04-25T14:14:40.999Z</time></trkpt><trkpt lat="40.454145996187926" lon="15.031534593261997"><ele>33.0</ele><time>2026-04-25T14:14:41.999Z</time></trkpt><trkpt lat="40.45403181025156" lon="15.031686161248894"><ele>33.0</ele><time>2026-04-25T14:14:42.999Z</time></trkpt><trkpt lat="40.454086157672705" lon="15.031801056894817"><ele>33.0</ele><time>2026-04-25T14:14:43.999Z</time></trkpt><trkpt lat="40.454142271458124" lon="15.031903155678549"><ele>33.0</ele><time>2026-04-25T14:14:44.999Z</time></trkpt><trkpt lat="40.45419189586939" lon="15.03200688711465"><ele>33.0</ele><time>2026-04-25T14:14:45.999Z</time></trkpt><trkpt lat="40.45423420431154" lon="15.032122375200794"><ele>33.0</ele><time>2026-04-25T14:14:46.999Z</time></trkpt><trkpt lat="40.454281026404836" lon="15.0322482719505"><ele>33.0</ele><time>2026-04-25T14:14:47.999Z</time></trkpt><trkpt lat="40.45433830707512" lon="15.032387598143446"><ele>33.0</ele><time>2026-04-25T14:14:48.999Z</time></trkpt><trkpt lat="40.45439825217007" lon="15.032535378320308"><ele>33.0</ele><time>2026-04-25T14:14:49.999Z</time></trkpt><trkpt lat="40.4544579514833" lon="15.03269731891488"><ele>33.0</ele><time>2026-04-25T14:14:50.999Z</time></trkpt><trkpt lat="40.45452084320362" lon="15.032863340656096"><ele>33.0</ele><time>2026-04-25T14:14:51.999Z</time></trkpt><trkpt lat="40.45458522081849" lon="15.033021099067984"><ele>33.0</ele><time>2026-04-25T14:14:52.999Z</time></trkpt><trkpt lat="40.45465301495836" lon="15.033195315520508"><ele>33.0</ele><time>2026-04-25T14:14:53.999Z</time></trkpt><trkpt lat="40.454719518423126" lon="15.033381293500286"><ele>33.0</ele><time>2026-04-25T14:14:54.999Z</time></trkpt><trkpt lat="40.45478461030365" lon="15.03357276192294"><ele>33.5</ele><time>2026-04-25T14:14:55.999Z</time></trkpt><trkpt lat="40.45484936700867" lon="15.033756843976578"><ele>34.0</ele><time>2026-04-25T14:14:56.999Z</time></trkpt><trkpt lat="40.45491413805499" lon="15.033918732062663"><ele>34.5</ele><time>2026-04-25T14:14:57.999Z</time></trkpt><trkpt lat="40.45497677137901" lon="15.034063012742365"><ele>35.0</ele><time>2026-04-25T14:14:58.999Z</time></trkpt><trkpt lat="40.45503357174997" lon="15.034198041175285"><ele>35.5</ele><time>2026-04-25T14:14:59.999Z</time></trkpt><trkpt lat="40.45508166647755" lon="15.03431900898873"><ele>36.0</ele><time>2026-04-25T14:15:00.999Z</time></trkpt><trkpt lat="40.455126243132035" lon="15.034419150020403"><ele>36.5</ele><time>2026-04-25T14:15:01.999Z</time></trkpt><trkpt lat="40.455161232294564" lon="15.03449171439086"><ele>37.0</ele><time>2026-04-25T14:15:02.999Z</time></trkpt><trkpt lat="40.455186685428096" lon="15.034576233730382"><ele>37.5</ele><time>2026-04-25T14:15:04.999Z</time></trkpt><trkpt lat="40.455137343273115" lon="15.03468472006816"><ele>38.0</ele><time>2026-04-25T14:15:06.999Z</time></trkpt><trkpt lat="40.455015951391765" lon="15.034713950000151"><ele>38.0</ele><time>2026-04-25T14:15:07.999Z</time></trkpt><trkpt lat="40.45488412459429" lon="15.034812080262276"><ele>38.0</ele><time>2026-04-25T14:15:08.999Z</time></trkpt><trkpt lat="40.45472816297897" lon="15.0349055110057"><ele>38.0</ele><time>2026-04-25T14:15:09.999Z</time></trkpt><trkpt lat="40.45456841825686" lon="15.034979467437424"><ele>37.0</ele><time>2026-04-25T14:15:10.999Z</time></trkpt><trkpt lat="40.45442027506469" lon="15.035035186505281"><ele>36.0</ele><time>2026-04-25T14:15:11.999Z</time></trkpt><trkpt lat="40.45424527505659" lon="15.03509651651755"><ele>35.0</ele><time>2026-04-25T14:15:12.999Z</time></trkpt><trkpt lat="40.45404579315793" lon="15.03517919830387"><ele>35.0</ele><time>2026-04-25T14:15:13.999Z</time></trkpt><trkpt lat="40.45384655122155" lon="15.035236649314323"><ele>35.0</ele><time>2026-04-25T14:15:14.999Z</time></trkpt><trkpt lat="40.45365004684905" lon="15.035301475032616"><ele>35.0</ele><time>2026-04-25T14:15:16Z</time></trkpt><trkpt lat="40.45345867723964" lon="15.035371307528894"><ele>35.33333333333333</ele><time>2026-04-25T14:15:17Z</time></trkpt><trkpt lat="40.453271906810144" lon="15.035440048920748"><ele>35.666666666666664</ele><time>2026-04-25T14:15:18Z</time></trkpt><trkpt lat="40.45308155167722" lon="15.03550296358009"><ele>36.0</ele><time>2026-04-25T14:15:19Z</time></trkpt><trkpt lat="40.45288401252541" lon="15.035568207738171"><ele>35.333333333333336</ele><time>2026-04-25T14:15:20Z</time></trkpt><trkpt lat="40.45269014528546" lon="15.03563703988027"><ele>34.66666666666667</ele><time>2026-04-25T14:15:21Z</time></trkpt><trkpt lat="40.45251062603457" lon="15.035702206403888"><ele>34.0</ele><time>2026-04-25T14:15:22Z</time></trkpt><trkpt lat="40.452346309274525" lon="15.03576162758079"><ele>34.0</ele><time>2026-04-25T14:15:23Z</time></trkpt><trkpt lat="40.45220226051016" lon="15.035812479209083"><ele>34.0</ele><time>2026-04-25T14:15:24Z</time></trkpt><trkpt lat="40.45208503031783" lon="15.035843559626716"><ele>34.0</ele><time>2026-04-25T14:15:25Z</time></trkpt><trkpt lat="40.451988901185956" lon="15.035862643377673"><ele>34.0</ele><time>2026-04-25T14:15:26Z</time></trkpt><trkpt lat="40.45190647591538" lon="15.035877953502006"><ele>34.0</ele><time>2026-04-25T14:15:27Z</time></trkpt><trkpt lat="40.45182253829251" lon="15.035885711455387"><ele>34.0</ele><time>2026-04-25T14:15:28Z</time></trkpt><trkpt lat="40.45171688727908" lon="15.036078432304372"><ele>34.0</ele><time>2026-04-25T14:15:29Z</time></trkpt><trkpt lat="40.45161292969116" lon="15.036198097909203"><ele>34.0</ele><time>2026-04-25T14:15:30Z</time></trkpt><trkpt lat="40.45152364754145" lon="15.036306569328133"><ele>34.0</ele><time>2026-04-25T14:15:31Z</time></trkpt><trkpt lat="40.45144671496332" lon="15.03644839289354"><ele>34.0</ele><time>2026-04-25T14:15:32Z</time></trkpt><trkpt lat="40.451375238646015" lon="15.036617938634206"><ele>34.0</ele><time>2026-04-25T14:15:33Z</time></trkpt><trkpt lat="40.45131023007842" lon="15.036785390936336"><ele>34.0</ele><time>2026-04-25T14:15:34Z</time></trkpt><trkpt lat="40.451248477855835" lon="15.036953270090615"><ele>34.0</ele><time>2026-04-25T14:15:35Z</time></trkpt><trkpt lat="40.45117981802136" lon="15.037137317557562"><ele>34.0</ele><time>2026-04-25T14:15:36Z</time></trkpt><trkpt lat="40.45110588081936" lon="15.037331648034554"><ele>34.0</ele><time>2026-04-25T14:15:37Z</time></trkpt><trkpt lat="40.45103730556196" lon="15.037512630290369"><ele>34.0</ele><time>2026-04-25T14:15:38Z</time></trkpt><trkpt lat="40.4509776185715" lon="15.037672860829293"><ele>34.0</ele><time>2026-04-25T14:15:39Z</time></trkpt><trkpt lat="40.45091974242453" lon="15.037826176915393"><ele>34.0</ele><time>2026-04-25T14:15:40Z</time></trkpt><trkpt lat="40.45084612588699" lon="15.038004683377741"><ele>34.0</ele><time>2026-04-25T14:15:41Z</time></trkpt><trkpt lat="40.45077489988494" lon="15.038168785255802"><ele>34.0</ele><time>2026-04-25T14:15:42Z</time></trkpt><trkpt lat="40.4507021742247" lon="15.038333820722693"><ele>34.0</ele><time>2026-04-25T14:15:43Z</time></trkpt><trkpt lat="40.450631646682965" lon="15.038488316472217"><ele>34.0</ele><time>2026-04-25T14:15:44Z</time></trkpt><trkpt lat="40.4505717861307" lon="15.038619133320276"><ele>34.0</ele><time>2026-04-25T14:15:45Z</time></trkpt><trkpt lat="40.45051891436806" lon="15.038741667166212"><ele>34.0</ele><time>2026-04-25T14:15:46Z</time></trkpt><trkpt lat="40.45047743722205" lon="15.038840640147729"><ele>34.0</ele><time>2026-04-25T14:15:47Z</time></trkpt><trkpt lat="40.450447767023434" lon="15.038919986489425"><ele>34.0</ele><time>2026-04-25T14:15:48Z</time></trkpt><trkpt lat="40.4504144548995" lon="15.039001312314117"><ele>34.0</ele><time>2026-04-25T14:15:50Z</time></trkpt><trkpt lat="40.450347422505054" lon="15.039073997457747"><ele>34.0</ele><time>2026-04-25T14:15:55Z</time></trkpt><trkpt lat="40.450279504162154" lon="15.039169563519783"><ele>34.0</ele><time>2026-04-25T14:15:56Z</time></trkpt><trkpt lat="40.45025451930769" lon="15.039287263989316"><ele>34.0</ele><time>2026-04-25T14:15:57Z</time></trkpt><trkpt lat="40.450225207794055" lon="15.039425346750756"><ele>34.0</ele><time>2026-04-25T14:15:58Z</time></trkpt><trkpt lat="40.4501899284849" lon="15.039591786666628"><ele>34.0</ele><time>2026-04-25T14:15:58.999Z</time></trkpt><trkpt lat="40.45015800207555" lon="15.039763450725998"><ele>34.0</ele><time>2026-04-25T14:15:59.999Z</time></trkpt><trkpt lat="40.45014224579667" lon="15.039948023149588"><ele>34.0</ele><time>2026-04-25T14:16:00.999Z</time></trkpt><trkpt lat="40.450134354601346" lon="15.040084590798044"><ele>34.0</ele><time>2026-04-25T14:16:01.999Z</time></trkpt><trkpt lat="40.45013472944802" lon="15.040217121163058"><ele>34.0</ele><time>2026-04-25T14:16:02.999Z</time></trkpt><trkpt lat="40.45019375923348" lon="15.040331419417297"><ele>34.0</ele><time>2026-04-25T14:16:03.999Z</time></trkpt><trkpt lat="40.45020237344685" lon="15.040446614779835"><ele>34.0</ele><time>2026-04-25T14:16:04.999Z</time></trkpt><trkpt lat="40.450222949276736" lon="15.040583351196759"><ele>34.0</ele><time>2026-04-25T14:16:05.999Z</time></trkpt><trkpt lat="40.450258027203716" lon="15.040738678466159"><ele>34.2</ele><time>2026-04-25T14:16:06.999Z</time></trkpt><trkpt lat="40.45027568169835" lon="15.040885124694967"><ele>34.4</ele><time>2026-04-25T14:16:07.999Z</time></trkpt><trkpt lat="40.45031824739832" lon="15.040989759705209"><ele>34.6</ele><time>2026-04-25T14:16:08.999Z</time></trkpt><trkpt lat="40.450334918354166" lon="15.041091267159583"><ele>34.8</ele><time>2026-04-25T14:16:09.999Z</time></trkpt><trkpt lat="40.45033156883231" lon="15.041198261867937"><ele>35.0</ele><time>2026-04-25T14:16:10.999Z</time></trkpt><trkpt lat="40.450264184847526" lon="15.041295466689174"><ele>35.0</ele><time>2026-04-25T14:16:11.999Z</time></trkpt><trkpt lat="40.45018632866151" lon="15.04145238299265"><ele>35.0</ele><time>2026-04-25T14:16:12.999Z</time></trkpt><trkpt lat="40.45010665149091" lon="15.04163103911753"><ele>35.0</ele><time>2026-04-25T14:16:13.999Z</time></trkpt><trkpt lat="40.450021557433864" lon="15.041822975227463"><ele>34.666666666666664</ele><time>2026-04-25T14:16:14.999Z</time></trkpt><trkpt lat="40.44994403375573" lon="15.041997835688905"><ele>34.333333333333336</ele><time>2026-04-25T14:16:15.999Z</time></trkpt><trkpt lat="40.44986772405197" lon="15.042169958110753"><ele>34.0</ele><time>2026-04-25T14:16:16.999Z</time></trkpt><trkpt lat="40.449818073974555" lon="15.042364456858687"><ele>33.66666666666667</ele><time>2026-04-25T14:16:17.999Z</time></trkpt><trkpt lat="40.44973874532166" lon="15.042538164755506"><ele>33.333333333333336</ele><time>2026-04-25T14:16:18.999Z</time></trkpt><trkpt lat="40.449659990340706" lon="15.042725404502558"><ele>33.0</ele><time>2026-04-25T14:16:19.999Z</time></trkpt><trkpt lat="40.44958093777424" lon="15.04291196103123"><ele>33.0</ele><time>2026-04-25T14:16:20.999Z</time></trkpt><trkpt lat="40.44946647345774" lon="15.043064862734052"><ele>33.0</ele><time>2026-04-25T14:16:21.999Z</time></trkpt><trkpt lat="40.44938829047841" lon="15.043240973386816"><ele>33.0</ele><time>2026-04-25T14:16:22.999Z</time></trkpt><trkpt lat="40.44931077396758" lon="15.043415582764391"><ele>33.0</ele><time>2026-04-25T14:16:23.999Z</time></trkpt><trkpt lat="40.449241386474" lon="15.04357188094506"><ele>33.0</ele><time>2026-04-25T14:16:24.999Z</time></trkpt><trkpt lat="40.449174632663464" lon="15.043715697843004"><ele>33.0</ele><time>2026-04-25T14:16:25.999Z</time></trkpt><trkpt lat="40.4491009823542" lon="15.043875083219293"><ele>33.0</ele><time>2026-04-25T14:16:26.999Z</time></trkpt><trkpt lat="40.44902763184182" lon="15.044033819846105"><ele>33.0</ele><time>2026-04-25T14:16:27.999Z</time></trkpt><trkpt lat="40.44895640269967" lon="15.044185451501825"><ele>33.0</ele><time>2026-04-25T14:16:28.999Z</time></trkpt><trkpt lat="40.44888812808896" lon="15.044325882069792"><ele>33.0</ele><time>2026-04-25T14:16:29.999Z</time></trkpt><trkpt lat="40.44881794782298" lon="15.044457531956787"><ele>33.0</ele><time>2026-04-25T14:16:30.999Z</time></trkpt><trkpt lat="40.4487319668062" lon="15.044587142326696"><ele>33.0</ele><time>2026-04-25T14:16:31.999Z</time></trkpt><trkpt lat="40.44862791384067" lon="15.044696593766346"><ele>33.0</ele><time>2026-04-25T14:16:32.999Z</time></trkpt><trkpt lat="40.44849822443464" lon="15.044791308839576"><ele>33.0</ele><time>2026-04-25T14:16:33.999Z</time></trkpt><trkpt lat="40.4483546278618" lon="15.044876446557355"><ele>33.0</ele><time>2026-04-25T14:16:34.999Z</time></trkpt><trkpt lat="40.44821344341045" lon="15.044979306905413"><ele>33.0</ele><time>2026-04-25T14:16:35.999Z</time></trkpt><trkpt lat="40.44805829606755" lon="15.04505439470683"><ele>33.0</ele><time>2026-04-25T14:16:36.999Z</time></trkpt><trkpt lat="40.44790430691948" lon="15.045134239019035"><ele>33.0</ele><time>2026-04-25T14:16:37.999Z</time></trkpt><trkpt lat="40.44775702879112" lon="15.045218274177104"><ele>32.333333333333336</ele><time>2026-04-25T14:16:38.999Z</time></trkpt><trkpt lat="40.44760192857782" lon="15.045299484441086"><ele>31.666666666666668</ele><time>2026-04-25T14:16:39.999Z</time></trkpt><trkpt lat="40.44743118869408" lon="15.04538232527066"><ele>31.0</ele><time>2026-04-25T14:16:40.999Z</time></trkpt><trkpt lat="40.447263276476825" lon="15.045474513485697"><ele>31.0</ele><time>2026-04-25T14:16:41.999Z</time></trkpt><trkpt lat="40.447094431628564" lon="15.045573057854414"><ele>31.0</ele><time>2026-04-25T14:16:42.999Z</time></trkpt><trkpt lat="40.446926007827436" lon="15.045640225825819"><ele>31.0</ele><time>2026-04-25T14:16:43.999Z</time></trkpt><trkpt lat="40.446770372809574" lon="15.045743476126118"><ele>31.0</ele><time>2026-04-25T14:16:44.999Z</time></trkpt><trkpt lat="40.44660825276747" lon="15.045822163483955"><ele>31.0</ele><time>2026-04-25T14:16:45.999Z</time></trkpt><trkpt lat="40.44644380448946" lon="15.04589816124113"><ele>31.0</ele><time>2026-04-25T14:16:46.999Z</time></trkpt><trkpt lat="40.446284151738375" lon="15.045958950154995"><ele>31.333333333333336</ele><time>2026-04-25T14:16:47.999Z</time></trkpt><trkpt lat="40.44613127176383" lon="15.046006330305465"><ele>31.666666666666664</ele><time>2026-04-25T14:16:48.999Z</time></trkpt><trkpt lat="40.44598189083183" lon="15.046050605785359"><ele>32.0</ele><time>2026-04-25T14:16:49.999Z</time></trkpt><trkpt lat="40.445844691205345" lon="15.046095378051145"><ele>32.0</ele><time>2026-04-25T14:16:50.999Z</time></trkpt><trkpt lat="40.44572189684744" lon="15.046130522872954"><ele>32.0</ele><time>2026-04-25T14:16:51.999Z</time></trkpt><trkpt lat="40.445610949106076" lon="15.046157434483877"><ele>32.0</ele><time>2026-04-25T14:16:52.999Z</time></trkpt><trkpt lat="40.445507890400734" lon="15.046187794397722"><ele>32.0</ele><time>2026-04-25T14:16:53.999Z</time></trkpt><trkpt lat="40.44541315583211" lon="15.046217927528893"><ele>32.0</ele><time>2026-04-25T14:16:54.999Z</time></trkpt><trkpt lat="40.44531620055356" lon="15.046241600276856"><ele>32.2</ele><time>2026-04-25T14:16:55.999Z</time></trkpt><trkpt lat="40.44520888604371" lon="15.046259523326727"><ele>32.400000000000006</ele><time>2026-04-25T14:16:56.999Z</time></trkpt><trkpt lat="40.44509556526427" lon="15.046265292604426"><ele>32.599999999999994</ele><time>2026-04-25T14:16:57.999Z</time></trkpt><trkpt lat="40.444984934113414" lon="15.046257495073991"><ele>32.8</ele><time>2026-04-25T14:16:58.999Z</time></trkpt><trkpt lat="40.444896120243705" lon="15.046242483582857"><ele>33.0</ele><time>2026-04-25T14:16:59.999Z</time></trkpt><trkpt lat="40.444785006440696" lon="15.046218719008703"><ele>33.0</ele><time>2026-04-25T14:17:01.999Z</time></trkpt><trkpt lat="40.44471180358701" lon="15.046195288239455"><ele>33.0</ele><time>2026-04-25T14:17:04.999Z</time></trkpt><trkpt lat="40.4446443416918" lon="15.04628251502722"><ele>33.0</ele><time>2026-04-25T14:17:06.999Z</time></trkpt><trkpt lat="40.44456475778914" lon="15.04636001220052"><ele>33.0</ele><time>2026-04-25T14:17:08.999Z</time></trkpt><trkpt lat="40.444494718798566" lon="15.046364313396476"><ele>33.0</ele><time>2026-04-25T14:17:09.999Z</time></trkpt><trkpt lat="40.44440567603772" lon="15.046356792397244"><ele>33.0</ele><time>2026-04-25T14:17:10.999Z</time></trkpt><trkpt lat="40.444297979916996" lon="15.04635181319825"><ele>33.6</ele><time>2026-04-25T14:17:11.999Z</time></trkpt><trkpt lat="40.44419003688798" lon="15.046356572707184"><ele>34.199999999999996</ele><time>2026-04-25T14:17:12.999Z</time></trkpt><trkpt lat="40.444081737489086" lon="15.046372883469418"><ele>34.8</ele><time>2026-04-25T14:17:13.999Z</time></trkpt><trkpt lat="40.443991121893" lon="15.046394535092935"><ele>35.4</ele><time>2026-04-25T14:17:14.999Z</time></trkpt><trkpt lat="40.44390440040705" lon="15.046418423627497"><ele>36.0</ele><time>2026-04-25T14:17:15.999Z</time></trkpt><trkpt lat="40.44382605253529" lon="15.04643661603819"><ele>36.8</ele><time>2026-04-25T14:17:16.999Z</time></trkpt><trkpt lat="40.44375944105238" lon="15.04644908674371"><ele>37.6</ele><time>2026-04-25T14:17:17.999Z</time></trkpt><trkpt lat="40.44364180638571" lon="15.04647461990366"><ele>38.4</ele><time>2026-04-25T14:17:19.999Z</time></trkpt><trkpt lat="40.4435696177587" lon="15.046494252175716"><ele>39.2</ele><time>2026-04-25T14:17:20.999Z</time></trkpt><trkpt lat="40.44350236879991" lon="15.04663552030286"><ele>40.0</ele><time>2026-04-25T14:17:22Z</time></trkpt><trkpt lat="40.443447055744656" lon="15.046717366820442"><ele>41.2</ele><time>2026-04-25T14:17:23Z</time></trkpt><trkpt lat="40.44340304650822" lon="15.04678396426171"><ele>42.4</ele><time>2026-04-25T14:17:24Z</time></trkpt><trkpt lat="40.44332639117027" lon="15.046904811231263"><ele>43.599999999999994</ele><time>2026-04-25T14:17:26Z</time></trkpt><trkpt lat="40.44329245975546" lon="15.047041571864924"><ele>44.8</ele><time>2026-04-25T14:17:27Z</time></trkpt><trkpt lat="40.443273497176655" lon="15.047178251340382"><ele>46.0</ele><time>2026-04-25T14:17:28Z</time></trkpt><trkpt lat="40.44326675204059" lon="15.047323261445712"><ele>47.25</ele><time>2026-04-25T14:17:29Z</time></trkpt><trkpt lat="40.44325472509374" lon="15.047475762917049"><ele>48.5</ele><time>2026-04-25T14:17:30Z</time></trkpt><trkpt lat="40.443239039705915" lon="15.047617146951994"><ele>49.75</ele><time>2026-04-25T14:17:31Z</time></trkpt><trkpt lat="40.44321682047957" lon="15.047773727982129"><ele>51.0</ele><time>2026-04-25T14:17:32Z</time></trkpt><trkpt lat="40.44318919135365" lon="15.047947155316187"><ele>51.0</ele><time>2026-04-25T14:17:33Z</time></trkpt><trkpt lat="40.44316448912387" lon="15.048103748376201"><ele>51.0</ele><time>2026-04-25T14:17:34Z</time></trkpt><trkpt lat="40.443144265773306" lon="15.048228919970564"><ele>51.0</ele><time>2026-04-25T14:17:35Z</time></trkpt><trkpt lat="40.44312544950343" lon="15.048343758983636"><ele>51.0</ele><time>2026-04-25T14:17:36Z</time></trkpt><trkpt lat="40.44311212881351" lon="15.048432295978989"><ele>51.0</ele><time>2026-04-25T14:17:37Z</time></trkpt><trkpt lat="40.44310046334032" lon="15.048515335144918"><ele>51.0</ele><time>2026-04-25T14:17:38Z</time></trkpt><trkpt lat="40.44308190760992" lon="15.048647421091182"><ele>53.0</ele><time>2026-04-25T14:17:40Z</time></trkpt><trkpt lat="40.443067544534365" lon="15.048749662122365"><ele>55.0</ele><time>2026-04-25T14:17:41Z</time></trkpt><trkpt lat="40.44326096991542" lon="15.04890909472243"><ele>57.0</ele><time>2026-04-25T14:17:42Z</time></trkpt><trkpt lat="40.44334012169654" lon="15.049014352353243"><ele>59.0</ele><time>2026-04-25T14:17:43Z</time></trkpt><trkpt lat="40.44339653858361" lon="15.049094403971042"><ele>60.800000000000004</ele><time>2026-04-25T14:17:44Z</time></trkpt><trkpt lat="40.443464178570984" lon="15.04922759952267"><ele>62.60000000000001</ele><time>2026-04-25T14:17:46Z</time></trkpt><trkpt lat="40.44357693969587" lon="15.049272838103835"><ele>64.4</ele><time>2026-04-25T14:17:48Z</time></trkpt><trkpt lat="40.443677964209144" lon="15.049277898291278"><ele>66.2</ele><time>2026-04-25T14:17:49Z</time></trkpt><trkpt lat="40.443782397551345" lon="15.04930445195596"><ele>68.0</ele><time>2026-04-25T14:17:50Z</time></trkpt><trkpt lat="40.44385164810649" lon="15.049334752949044"><ele>68.0</ele><time>2026-04-25T14:17:51Z</time></trkpt><trkpt lat="40.44390361064868" lon="15.049387118671127"><ele>68.0</ele><time>2026-04-25T14:17:53Z</time></trkpt><trkpt lat="40.44389207215302" lon="15.04947981689647"><ele>68.0</ele><time>2026-04-25T14:17:55Z</time></trkpt><trkpt lat="40.443766450059506" lon="15.049580451413195"><ele>68.0</ele><time>2026-04-25T14:17:57Z</time></trkpt><trkpt lat="40.443695065131514" lon="15.049611066733785"><ele>68.0</ele><time>2026-04-25T14:17:58Z</time></trkpt><trkpt lat="40.44359443845594" lon="15.049639707998994"><ele>68.16666666666667</ele><time>2026-04-25T14:18:00Z</time></trkpt><trkpt lat="40.44351733160767" lon="15.049655730775905"><ele>68.33333333333334</ele><time>2026-04-25T14:18:01Z</time></trkpt><trkpt lat="40.443449288981846" lon="15.049673444579057"><ele>68.5</ele><time>2026-04-25T14:18:02Z</time></trkpt><trkpt lat="40.44338486650256" lon="15.049679587464377"><ele>68.66666666666667</ele><time>2026-04-25T14:18:03Z</time></trkpt><trkpt lat="40.44328630201578" lon="15.049680075539115"><ele>68.83333333333333</ele><time>2026-04-25T14:18:04Z</time></trkpt><trkpt lat="40.44319158282893" lon="15.049681127535758"><ele>69.0</ele><time>2026-04-25T14:18:05Z</time></trkpt><trkpt lat="40.443112623796374" lon="15.04971036523662"><ele>69.0</ele><time>2026-04-25T14:18:05.999Z</time></trkpt><trkpt lat="40.44303718216202" lon="15.049738569685621"><ele>69.0</ele><time>2026-04-25T14:18:06.999Z</time></trkpt><trkpt lat="40.442976689146825" lon="15.049766830847148"><ele>69.0</ele><time>2026-04-25T14:18:07.999Z</time></trkpt><trkpt lat="40.442918867749974" lon="15.049871496516996"><ele>69.0</ele><time>2026-04-25T14:18:09.999Z</time></trkpt><trkpt lat="40.44298029350294" lon="15.04992191471088"><ele>69.0</ele><time>2026-04-25T14:18:10.999Z</time></trkpt><trkpt lat="40.44304950864144" lon="15.049936780057868"><ele>69.0</ele><time>2026-04-25T14:18:12.999Z</time></trkpt><trkpt lat="40.44314298528226" lon="15.049928371972534"><ele>72.4</ele><time>2026-04-25T14:18:14.999Z</time></trkpt><trkpt lat="40.44310691603717" lon="15.050030454544993"><ele>75.80000000000001</ele><time>2026-04-25T14:18:17.999Z</time></trkpt><trkpt lat="40.44303128249992" lon="15.050131819223864"><ele>79.19999999999999</ele><time>2026-04-25T14:18:19.999Z</time></trkpt><trkpt lat="40.44292169701347" lon="15.050214116799467"><ele>82.6</ele><time>2026-04-25T14:18:21.999Z</time></trkpt><trkpt lat="40.442862539689315" lon="15.05029899662132"><ele>86.0</ele><time>2026-04-25T14:18:22.999Z</time></trkpt><trkpt lat="40.44280476195216" lon="15.050405694318156"><ele>86.0</ele><time>2026-04-25T14:18:23.999Z</time></trkpt><trkpt lat="40.4427459637742" lon="15.050474592088204"><ele>86.0</ele><time>2026-04-25T14:18:24.999Z</time></trkpt><trkpt lat="40.44268854390769" lon="15.050540473589235"><ele>86.0</ele><time>2026-04-25T14:18:25.999Z</time></trkpt><trkpt lat="40.44261469241941" lon="15.050604943296483"><ele>86.0</ele><time>2026-04-25T14:18:26.999Z</time></trkpt><trkpt lat="40.44255238576382" lon="15.050682665264471"><ele>86.0</ele><time>2026-04-25T14:18:27.999Z</time></trkpt><trkpt lat="40.44248925186413" lon="15.050752008037588"><ele>86.0</ele><time>2026-04-25T14:18:28.999Z</time></trkpt><trkpt lat="40.44241731865315" lon="15.05083987849228"><ele>87.85714285714286</ele><time>2026-04-25T14:18:29.999Z</time></trkpt><trkpt lat="40.442355846875195" lon="15.050929143764648"><ele>89.71428571428572</ele><time>2026-04-25T14:18:30.999Z</time></trkpt><trkpt lat="40.44231612280275" lon="15.051011922017718"><ele>91.57142857142858</ele><time>2026-04-25T14:18:31.999Z</time></trkpt><trkpt lat="40.44227054127547" lon="15.051084541060572"><ele>93.42857142857143</ele><time>2026-04-25T14:18:32.999Z</time></trkpt><trkpt lat="40.442225173912696" lon="15.051145190257495"><ele>95.28571428571428</ele><time>2026-04-25T14:18:33.999Z</time></trkpt><trkpt lat="40.44217305174516" lon="15.05119743330602"><ele>97.14285714285715</ele><time>2026-04-25T14:18:34.999Z</time></trkpt><trkpt lat="40.442116138252594" lon="15.051257069716348"><ele>99.0</ele><time>2026-04-25T14:18:35.999Z</time></trkpt><trkpt lat="40.44199879032037" lon="15.051338895202512"><ele>99.0</ele><time>2026-04-25T14:18:37.999Z</time></trkpt><trkpt lat="40.44193783247188" lon="15.051361879764432"><ele>99.0</ele><time>2026-04-25T14:18:38.999Z</time></trkpt><trkpt lat="40.44185362434709" lon="15.051392445407652"><ele>99.0</ele><time>2026-04-25T14:18:39.999Z</time></trkpt><trkpt lat="40.441776090637376" lon="15.051426340832997"><ele>99.0</ele><time>2026-04-25T14:18:40.999Z</time></trkpt><trkpt lat="40.44167672887131" lon="15.051464222508693"><ele>99.0</ele><time>2026-04-25T14:18:41.999Z</time></trkpt><trkpt lat="40.44157415460304" lon="15.051501049459699"><ele>99.0</ele><time>2026-04-25T14:18:42.999Z</time></trkpt><trkpt lat="40.44147429705146" lon="15.051529259656297"><ele>99.0</ele><time>2026-04-25T14:18:43.999Z</time></trkpt><trkpt lat="40.441363241143755" lon="15.051543676905188"><ele>99.0</ele><time>2026-04-25T14:18:44.999Z</time></trkpt><trkpt lat="40.441246330561725" lon="15.051545204686843"><ele>99.0</ele><time>2026-04-25T14:18:45.999Z</time></trkpt><trkpt lat="40.44115577153531" lon="15.051550590701046"><ele>99.0</ele><time>2026-04-25T14:18:46.999Z</time></trkpt><trkpt lat="40.441070498156606" lon="15.051551936399052"><ele>99.0</ele><time>2026-04-25T14:18:47.999Z</time></trkpt><trkpt lat="40.44098742683501" lon="15.051544011100646"><ele>99.80000000000001</ele><time>2026-04-25T14:18:48.999Z</time></trkpt><trkpt lat="40.440909061310755" lon="15.051550419820126"><ele>100.60000000000001</ele><time>2026-04-25T14:18:49.999Z</time></trkpt><trkpt lat="40.440839795628435" lon="15.051583350948773"><ele>101.4</ele><time>2026-04-25T14:18:50.999Z</time></trkpt><trkpt lat="40.44078184938004" lon="15.051631031466272"><ele>102.2</ele><time>2026-04-25T14:18:51.999Z</time></trkpt><trkpt lat="40.440665402026575" lon="15.05170727768759"><ele>103.0</ele><time>2026-04-25T14:18:53.999Z</time></trkpt><trkpt lat="40.440555171071026" lon="15.051767187189304"><ele>105.16666666666667</ele><time>2026-04-25T14:18:55.999Z</time></trkpt><trkpt lat="40.44049171574514" lon="15.051786881531145"><ele>107.33333333333334</ele><time>2026-04-25T14:18:56.999Z</time></trkpt><trkpt lat="40.44041984172821" lon="15.051799474631094"><ele>109.5</ele><time>2026-04-25T14:18:57.999Z</time></trkpt><trkpt lat="40.44033035032151" lon="15.051800479014497"><ele>111.66666666666666</ele><time>2026-04-25T14:18:58.999Z</time></trkpt><trkpt lat="40.44025095814368" lon="15.051807075431947"><ele>113.83333333333333</ele><time>2026-04-25T14:18:59.999Z</time></trkpt><trkpt lat="40.44016930277627" lon="15.051803561064"><ele>116.0</ele><time>2026-04-25T14:19:00.999Z</time></trkpt><trkpt lat="40.44007912875616" lon="15.05179536831881"><ele>116.8</ele><time>2026-04-25T14:19:01.999Z</time></trkpt><trkpt lat="40.439981644733116" lon="15.051768529414286"><ele>117.6</ele><time>2026-04-25T14:19:02.999Z</time></trkpt><trkpt lat="40.43988549607106" lon="15.051718108413661"><ele>118.4</ele><time>2026-04-25T14:19:03.999Z</time></trkpt><trkpt lat="40.43978287613488" lon="15.051680238872411"><ele>119.2</ele><time>2026-04-25T14:19:04.999Z</time></trkpt><trkpt lat="40.439695846464765" lon="15.051660425921513"><ele>120.0</ele><time>2026-04-25T14:19:05.999Z</time></trkpt><trkpt lat="40.43959231574674" lon="15.051665596256209"><ele>119.83333333333333</ele><time>2026-04-25T14:19:07.999Z</time></trkpt><trkpt lat="40.439526827822135" lon="15.051678996404723"><ele>119.66666666666666</ele><time>2026-04-25T14:19:10.999Z</time></trkpt><trkpt lat="40.43945280276761" lon="15.051665261950017"><ele>119.5</ele><time>2026-04-25T14:19:11.999Z</time></trkpt><trkpt lat="40.439345650862535" lon="15.051707831107159"><ele>119.33333333333333</ele><time>2026-04-25T14:19:12.999Z</time></trkpt><trkpt lat="40.43927493007183" lon="15.05166662620427"><ele>119.16666666666666</ele><time>2026-04-25T14:19:13.999Z</time></trkpt><trkpt lat="40.439202242811795" lon="15.051625636578775"><ele>119.0</ele><time>2026-04-25T14:19:14.999Z</time></trkpt><trkpt lat="40.43914912607359" lon="15.051578534041127"><ele>118.99999999999999</ele><time>2026-04-25T14:19:15.999Z</time></trkpt><trkpt lat="40.43906701440949" lon="15.05156521384409"><ele>119.0</ele><time>2026-04-25T14:19:17.999Z</time></trkpt><trkpt lat="40.43900823986477" lon="15.051599218968644"><ele>119.0</ele><time>2026-04-25T14:19:22.999Z</time></trkpt><trkpt lat="40.43894376913807" lon="15.051619295161693"><ele>119.0</ele><time>2026-04-25T14:19:31Z</time></trkpt><trkpt lat="40.4388801775945" lon="15.051630276181887"><ele>118.99999999999999</ele><time>2026-04-25T14:19:32Z</time></trkpt><trkpt lat="40.438779428773245" lon="15.051735938051511"><ele>119.0</ele><time>2026-04-25T14:19:33Z</time></trkpt><trkpt lat="40.43869358115533" lon="15.051861630685051"><ele>121.0</ele><time>2026-04-25T14:19:34Z</time></trkpt><trkpt lat="40.43860636546633" lon="15.0520027853473"><ele>123.0</ele><time>2026-04-25T14:19:35Z</time></trkpt><trkpt lat="40.43851996548327" lon="15.052158777670197"><ele>125.0</ele><time>2026-04-25T14:19:36Z</time></trkpt><trkpt lat="40.438430574181986" lon="15.05231818565515"><ele>127.0</ele><time>2026-04-25T14:19:37Z</time></trkpt><trkpt lat="40.43834080590132" lon="15.052470982674837"><ele>131.0</ele><time>2026-04-25T14:19:38Z</time></trkpt><trkpt lat="40.43824598394133" lon="15.052620969198589"><ele>135.0</ele><time>2026-04-25T14:19:39Z</time></trkpt><trkpt lat="40.438143835755156" lon="15.052749555827704"><ele>139.0</ele><time>2026-04-25T14:19:40Z</time></trkpt><trkpt lat="40.43801709191909" lon="15.052880059352768"><ele>137.0</ele><time>2026-04-25T14:19:41Z</time></trkpt><trkpt lat="40.437888818252546" lon="15.053002438894161"><ele>135.0</ele><time>2026-04-25T14:19:42Z</time></trkpt><trkpt lat="40.43777667111451" lon="15.053103490212056"><ele>133.0</ele><time>2026-04-25T14:19:43Z</time></trkpt><trkpt lat="40.43766629613629" lon="15.053199448469714"><ele>131.0</ele><time>2026-04-25T14:19:44Z</time></trkpt><trkpt lat="40.43756394785056" lon="15.05328308850754"><ele>135.25</ele><time>2026-04-25T14:19:45Z</time></trkpt><trkpt lat="40.43746858406651" lon="15.053346198002078"><ele>139.5</ele><time>2026-04-25T14:19:46Z</time></trkpt><trkpt lat="40.43735265700906" lon="15.053387473926497"><ele>143.75</ele><time>2026-04-25T14:19:47Z</time></trkpt><trkpt lat="40.43722836956421" lon="15.053383910908329"><ele>148.0</ele><time>2026-04-25T14:19:48Z</time></trkpt><trkpt lat="40.43709906739549" lon="15.053378465663107"><ele>148.0</ele><time>2026-04-25T14:19:49Z</time></trkpt><trkpt lat="40.436943858616864" lon="15.05332333527287"><ele>148.0</ele><time>2026-04-25T14:19:50Z</time></trkpt><trkpt lat="40.43681683194468" lon="15.05327553426104"><ele>148.0</ele><time>2026-04-25T14:19:51Z</time></trkpt><trkpt lat="40.43671033129996" lon="15.053244128211755"><ele>148.0</ele><time>2026-04-25T14:19:52Z</time></trkpt><trkpt lat="40.436617344832385" lon="15.05322337784041"><ele>148.0</ele><time>2026-04-25T14:19:53Z</time></trkpt><trkpt lat="40.436520933844164" lon="15.05321736359818"><ele>148.0</ele><time>2026-04-25T14:19:54Z</time></trkpt><trkpt lat="40.43641078019499" lon="15.053273141761785"><ele>148.0</ele><time>2026-04-25T14:19:55Z</time></trkpt><trkpt lat="40.43633114990737" lon="15.05344007661485"><ele>148.0</ele><time>2026-04-25T14:19:56Z</time></trkpt><trkpt lat="40.43634723294944" lon="15.05362605046716"><ele>148.0</ele><time>2026-04-25T14:19:57Z</time></trkpt><trkpt lat="40.436443521484016" lon="15.053767206753431"><ele>148.0</ele><time>2026-04-25T14:19:58Z</time></trkpt><trkpt lat="40.436581139664185" lon="15.053787301586135"><ele>148.0</ele><time>2026-04-25T14:19:59Z</time></trkpt><trkpt lat="40.43669956504473" lon="15.053834865055729"><ele>148.0</ele><time>2026-04-25T14:20:00Z</time></trkpt><trkpt lat="40.436837687328975" lon="15.05387643563453"><ele>148.0</ele><time>2026-04-25T14:20:01Z</time></trkpt><trkpt lat="40.43699217635556" lon="15.053925884678069"><ele>148.0</ele><time>2026-04-25T14:20:02Z</time></trkpt><trkpt lat="40.43714360550514" lon="15.053981570717227"><ele>148.0</ele><time>2026-04-25T14:20:03Z</time></trkpt><trkpt lat="40.437290021653055" lon="15.054032317077155"><ele>148.0</ele><time>2026-04-25T14:20:04Z</time></trkpt><trkpt lat="40.437439969651834" lon="15.0540844324965"><ele>148.0</ele><time>2026-04-25T14:20:05Z</time></trkpt><trkpt lat="40.43757875452123" lon="15.054162174712543"><ele>148.0</ele><time>2026-04-25T14:20:06Z</time></trkpt><trkpt lat="40.43771082884959" lon="15.054234724275224"><ele>148.0</ele><time>2026-04-25T14:20:07Z</time></trkpt><trkpt lat="40.43784866811966" lon="15.054336495187295"><ele>152.33333333333334</ele><time>2026-04-25T14:20:08Z</time></trkpt><trkpt lat="40.43799154295866" lon="15.054461164278468"><ele>156.66666666666666</ele><time>2026-04-25T14:20:09Z</time></trkpt><trkpt lat="40.43814418228972" lon="15.054595133751944"><ele>161.0</ele><time>2026-04-25T14:20:09.999Z</time></trkpt><trkpt lat="40.43829729117972" lon="15.054712118843804"><ele>161.0</ele><time>2026-04-25T14:20:10.999Z</time></trkpt><trkpt lat="40.438436729564295" lon="15.054775178844338"><ele>161.0</ele><time>2026-04-25T14:20:11.999Z</time></trkpt><trkpt lat="40.4385676183499" lon="15.054824800767937"><ele>161.0</ele><time>2026-04-25T14:20:12.999Z</time></trkpt><trkpt lat="40.43871599797649" lon="15.054813827397385"><ele>161.0</ele><time>2026-04-25T14:20:13.999Z</time></trkpt><trkpt lat="40.4388774552875" lon="15.054758029936341"><ele>162.0</ele><time>2026-04-25T14:20:14.999Z</time></trkpt><trkpt lat="40.43903851956486" lon="15.054670244016606"><ele>163.0</ele><time>2026-04-25T14:20:15.999Z</time></trkpt><trkpt lat="40.439180552684995" lon="15.054601971111836"><ele>164.0</ele><time>2026-04-25T14:20:16.999Z</time></trkpt><trkpt lat="40.43931702933196" lon="15.054546798851295"><ele>164.0</ele><time>2026-04-25T14:20:17.999Z</time></trkpt><trkpt lat="40.43947301172376" lon="15.054512281960536"><ele>164.0</ele><time>2026-04-25T14:20:18.999Z</time></trkpt><trkpt lat="40.439650290409936" lon="15.054506471486464"><ele>164.0</ele><time>2026-04-25T14:20:19.999Z</time></trkpt><trkpt lat="40.43985075726633" lon="15.054522478929856"><ele>165.0</ele><time>2026-04-25T14:20:20.999Z</time></trkpt><trkpt lat="40.44005838841947" lon="15.054531115299408"><ele>166.0</ele><time>2026-04-25T14:20:21.999Z</time></trkpt><trkpt lat="40.440272617208535" lon="15.054532442752905"><ele>167.0</ele><time>2026-04-25T14:20:22.999Z</time></trkpt><trkpt lat="40.440490955454415" lon="15.054545543203218"><ele>167.33333333333331</ele><time>2026-04-25T14:20:23.999Z</time></trkpt><trkpt lat="40.440690002524335" lon="15.054560219682331"><ele>167.66666666666666</ele><time>2026-04-25T14:20:24.999Z</time></trkpt><trkpt lat="40.44088213794651" lon="15.05457246573808"><ele>168.0</ele><time>2026-04-25T14:20:25.999Z</time></trkpt><trkpt lat="40.441086763527515" lon="15.05458306258512"><ele>168.0</ele><time>2026-04-25T14:20:26.999Z</time></trkpt><trkpt lat="40.441287266441364" lon="15.054588116596038"><ele>168.0</ele><time>2026-04-25T14:20:27.999Z</time></trkpt><trkpt lat="40.441466698003204" lon="15.054604113703647"><ele>168.0</ele><time>2026-04-25T14:20:28.999Z</time></trkpt><trkpt lat="40.44161568030032" lon="15.054609726585076"><ele>168.8</ele><time>2026-04-25T14:20:29.999Z</time></trkpt><trkpt lat="40.44173189476262" lon="15.054609218858548"><ele>169.60000000000002</ele><time>2026-04-25T14:20:30.999Z</time></trkpt><trkpt lat="40.44181073885693" lon="15.05461636253673"><ele>170.39999999999998</ele><time>2026-04-25T14:20:31.999Z</time></trkpt><trkpt lat="40.44186482772753" lon="15.054715707930054"><ele>171.2</ele><time>2026-04-25T14:20:33.999Z</time></trkpt><trkpt lat="40.44182528918915" lon="15.054840044908294"><ele>172.0</ele><time>2026-04-25T14:20:35.999Z</time></trkpt><trkpt lat="40.44166446328759" lon="15.054828638809296"><ele>172.0</ele><time>2026-04-25T14:20:37.999Z</time></trkpt><trkpt lat="40.44150734386066" lon="15.054858864341236"><ele>172.0</ele><time>2026-04-25T14:20:38.999Z</time></trkpt><trkpt lat="40.44134335201179" lon="15.05490072071712"><ele>172.0</ele><time>2026-04-25T14:20:39.999Z</time></trkpt><trkpt lat="40.441180152327945" lon="15.054944266702545"><ele>177.33333333333334</ele><time>2026-04-25T14:20:40.999Z</time></trkpt><trkpt lat="40.44101181781812" lon="15.054989182787862"><ele>182.66666666666666</ele><time>2026-04-25T14:20:41.999Z</time></trkpt><trkpt lat="40.44085358566066" lon="15.055029695675326"><ele>188.0</ele><time>2026-04-25T14:20:42.999Z</time></trkpt><trkpt lat="40.440699191724384" lon="15.055090530690094"><ele>188.0</ele><time>2026-04-25T14:20:43.999Z</time></trkpt><trkpt lat="40.440548592916656" lon="15.055204706551153"><ele>188.0</ele><time>2026-04-25T14:20:44.999Z</time></trkpt><trkpt lat="40.44038688958111" lon="15.05536920349017"><ele>188.0</ele><time>2026-04-25T14:20:45.999Z</time></trkpt><trkpt lat="40.44022581505048" lon="15.055547041527557"><ele>186.0</ele><time>2026-04-25T14:20:46.999Z</time></trkpt><trkpt lat="40.440052152480995" lon="15.05570396128439"><ele>184.0</ele><time>2026-04-25T14:20:47.999Z</time></trkpt><trkpt lat="40.439867421810646" lon="15.055843668068498"><ele>182.0</ele><time>2026-04-25T14:20:48.999Z</time></trkpt><trkpt lat="40.43967717171303" lon="15.055963921226326"><ele>184.66666666666666</ele><time>2026-04-25T14:20:49.999Z</time></trkpt><trkpt lat="40.439510855931786" lon="15.056063443938422"><ele>187.33333333333334</ele><time>2026-04-25T14:20:50.999Z</time></trkpt><trkpt lat="40.439357323124646" lon="15.056160004278835"><ele>190.0</ele><time>2026-04-25T14:20:51.999Z</time></trkpt><trkpt lat="40.43921760069162" lon="15.056257457209197"><ele>190.0</ele><time>2026-04-25T14:20:52.999Z</time></trkpt><trkpt lat="40.439077033000366" lon="15.056365237136939"><ele>190.0</ele><time>2026-04-25T14:20:53.999Z</time></trkpt><trkpt lat="40.43893557012647" lon="15.056467953272723"><ele>190.0</ele><time>2026-04-25T14:20:54.999Z</time></trkpt><trkpt lat="40.438784564790325" lon="15.05652315355778"><ele>188.0</ele><time>2026-04-25T14:20:55.999Z</time></trkpt><trkpt lat="40.438618551428924" lon="15.05653104819373"><ele>186.0</ele><time>2026-04-25T14:20:56.999Z</time></trkpt><trkpt lat="40.43846078020631" lon="15.056555750748219"><ele>184.0</ele><time>2026-04-25T14:20:57.999Z</time></trkpt><trkpt lat="40.43830807611704" lon="15.056565511940832"><ele>184.0</ele><time>2026-04-25T14:20:58.999Z</time></trkpt><trkpt lat="40.438150755572195" lon="15.056608038908585"><ele>184.0</ele><time>2026-04-25T14:20:59.999Z</time></trkpt><trkpt lat="40.43802014651385" lon="15.056747124379322"><ele>184.0</ele><time>2026-04-25T14:21:00.999Z</time></trkpt><trkpt lat="40.43790315583626" lon="15.05682148962004"><ele>188.0</ele><time>2026-04-25T14:21:01.999Z</time></trkpt><trkpt lat="40.43778362336028" lon="15.056844768002703"><ele>192.0</ele><time>2026-04-25T14:21:02.999Z</time></trkpt><trkpt lat="40.4376661200245" lon="15.05680540491007"><ele>196.0</ele><time>2026-04-25T14:21:03.999Z</time></trkpt><trkpt lat="40.437567249086385" lon="15.056762261222499"><ele>200.0</ele><time>2026-04-25T14:21:04.999Z</time></trkpt><trkpt lat="40.437478115431944" lon="15.056735709443581"><ele>204.0</ele><time>2026-04-25T14:21:05.999Z</time></trkpt><trkpt lat="40.43739119140239" lon="15.056729317959228"><ele>204.0</ele><time>2026-04-25T14:21:06.999Z</time></trkpt><trkpt lat="40.437302228569806" lon="15.056746733309627"><ele>204.0</ele><time>2026-04-25T14:21:07.999Z</time></trkpt><trkpt lat="40.43721976413234" lon="15.05675585839613"><ele>204.0</ele><time>2026-04-25T14:21:08.999Z</time></trkpt><trkpt lat="40.43714237951599" lon="15.05681755310643"><ele>204.0</ele><time>2026-04-25T14:21:09.999Z</time></trkpt><trkpt lat="40.43709062555601" lon="15.05689899902578"><ele>204.0</ele><time>2026-04-25T14:21:10.999Z</time></trkpt><trkpt lat="40.43702581548353" lon="15.056994874372979"><ele>204.0</ele><time>2026-04-25T14:21:12.999Z</time></trkpt><trkpt lat="40.43704995430977" lon="15.057195614804815"><ele>203.79999999999998</ele><time>2026-04-25T14:21:13.999Z</time></trkpt><trkpt lat="40.43705233978211" lon="15.057297840852007"><ele>203.6</ele><time>2026-04-25T14:21:14.999Z</time></trkpt><trkpt lat="40.437057830085536" lon="15.057420131088245"><ele>203.4</ele><time>2026-04-25T14:21:15.999Z</time></trkpt><trkpt lat="40.43707103465463" lon="15.05754950821299"><ele>203.2</ele><time>2026-04-25T14:21:16.999Z</time></trkpt><trkpt lat="40.437082829408496" lon="15.05763870495985"><ele>203.0</ele><time>2026-04-25T14:21:17.999Z</time></trkpt><trkpt lat="40.437090040342085" lon="15.057803854419806"><ele>205.2</ele><time>2026-04-25T14:21:19.999Z</time></trkpt><trkpt lat="40.43709004034597" lon="15.057892472902926"><ele>207.4</ele><time>2026-04-25T14:21:20.999Z</time></trkpt><trkpt lat="40.437010771889646" lon="15.058016861416258"><ele>209.59999999999997</ele><time>2026-04-25T14:21:22.999Z</time></trkpt><trkpt lat="40.436940922602176" lon="15.058096288145835"><ele>211.79999999999998</ele><time>2026-04-25T14:21:23.999Z</time></trkpt><trkpt lat="40.43685107745184" lon="15.05818145045855"><ele>214.0</ele><time>2026-04-25T14:21:24.999Z</time></trkpt><trkpt lat="40.43675301625251" lon="15.05826489039753"><ele>215.83333333333331</ele><time>2026-04-25T14:21:25.999Z</time></trkpt><trkpt lat="40.4366731533355" lon="15.058327852145958"><ele>217.66666666666666</ele><time>2026-04-25T14:21:26.999Z</time></trkpt><trkpt lat="40.43660437565998" lon="15.05836680113914"><ele>219.5</ele><time>2026-04-25T14:21:27.999Z</time></trkpt><trkpt lat="40.43653799429375" lon="15.058412246998675"><ele>221.33333333333331</ele><time>2026-04-25T14:21:28.999Z</time></trkpt><trkpt lat="40.436470598075374" lon="15.058474286253336"><ele>223.16666666666666</ele><time>2026-04-25T14:21:29.999Z</time></trkpt><trkpt lat="40.436411528874395" lon="15.05853015756357"><ele>225.0</ele><time>2026-04-25T14:21:30.999Z</time></trkpt><trkpt lat="40.43635071790319" lon="15.058593015897141"><ele>224.5</ele><time>2026-04-25T14:21:31.999Z</time></trkpt><trkpt lat="40.43629076199983" lon="15.05866375312639"><ele>224.0</ele><time>2026-04-25T14:21:32.998Z</time></trkpt><trkpt lat="40.436232158873736" lon="15.058736413613486"><ele>223.5</ele><time>2026-04-25T14:21:34Z</time></trkpt><trkpt lat="40.43618101192451" lon="15.058812084702165"><ele>223.0</ele><time>2026-04-25T14:21:35Z</time></trkpt><trkpt lat="40.43614056604232" lon="15.058902514859552"><ele>222.5</ele><time>2026-04-25T14:21:36Z</time></trkpt><trkpt lat="40.43611815640119" lon="15.058983628610159"><ele>222.0</ele><time>2026-04-25T14:21:37Z</time></trkpt><trkpt lat="40.43609659806937" lon="15.05906749059923"><ele>224.39999999999998</ele><time>2026-04-25T14:21:38Z</time></trkpt><trkpt lat="40.4360666798253" lon="15.059169455111824"><ele>226.79999999999998</ele><time>2026-04-25T14:21:39Z</time></trkpt><trkpt lat="40.43602217003566" lon="15.05927586066289"><ele>229.2</ele><time>2026-04-25T14:21:40Z</time></trkpt><trkpt lat="40.435971549367466" lon="15.059384534280111"><ele>231.6</ele><time>2026-04-25T14:21:41Z</time></trkpt><trkpt lat="40.43591211859064" lon="15.059495669838299"><ele>234.0</ele><time>2026-04-25T14:21:42Z</time></trkpt><trkpt lat="40.435843142203346" lon="15.059610087109686"><ele>234.0</ele><time>2026-04-25T14:21:43Z</time></trkpt><trkpt lat="40.43577575982721" lon="15.059716134439459"><ele>233.99999999999997</ele><time>2026-04-25T14:21:44Z</time></trkpt><trkpt lat="40.43570737609401" lon="15.059817940869918"><ele>233.99999999999997</ele><time>2026-04-25T14:21:45Z</time></trkpt><trkpt lat="40.435640464699894" lon="15.059912494327255"><ele>234.0</ele><time>2026-04-25T14:21:46Z</time></trkpt><trkpt lat="40.43558072682577" lon="15.059993573069109"><ele>234.0</ele><time>2026-04-25T14:21:47Z</time></trkpt><trkpt lat="40.43552675596757" lon="15.060061771215409"><ele>236.5</ele><time>2026-04-25T14:21:48Z</time></trkpt><trkpt lat="40.43546526297757" lon="15.060130582755441"><ele>239.0</ele><time>2026-04-25T14:21:49Z</time></trkpt><trkpt lat="40.435400320473576" lon="15.060188349485713"><ele>241.5</ele><time>2026-04-25T14:21:50Z</time></trkpt><trkpt lat="40.435337046726616" lon="15.060245777404043"><ele>244.0</ele><time>2026-04-25T14:21:51Z</time></trkpt><trkpt lat="40.43526012501556" lon="15.060273697552576"><ele>246.5</ele><time>2026-04-25T14:21:52Z</time></trkpt><trkpt lat="40.43517895706315" lon="15.060281722709437"><ele>249.0</ele><time>2026-04-25T14:21:53Z</time></trkpt><trkpt lat="40.43509139504052" lon="15.060287855796133"><ele>249.0</ele><time>2026-04-25T14:21:54Z</time></trkpt><trkpt lat="40.43501032436231" lon="15.060294079968784"><ele>249.0</ele><time>2026-04-25T14:21:55Z</time></trkpt><trkpt lat="40.434922641919506" lon="15.060309157200326"><ele>249.0</ele><time>2026-04-25T14:21:56Z</time></trkpt><trkpt lat="40.43484580322635" lon="15.060298256853875"><ele>249.0</ele><time>2026-04-25T14:21:57Z</time></trkpt><trkpt lat="40.43477522560914" lon="15.060302704014005"><ele>249.0</ele><time>2026-04-25T14:21:58Z</time></trkpt><trkpt lat="40.43470014148997" lon="15.060368487745524"><ele>249.0</ele><time>2026-04-25T14:21:59Z</time></trkpt><trkpt lat="40.43461845743093" lon="15.060425806396363"><ele>249.0</ele><time>2026-04-25T14:22:00Z</time></trkpt><trkpt lat="40.434522750874535" lon="15.060498243100088"><ele>248.99999999999997</ele><time>2026-04-25T14:22:01Z</time></trkpt><trkpt lat="40.434451029913845" lon="15.060579705801423"><ele>248.99999999999997</ele><time>2026-04-25T14:22:02Z</time></trkpt><trkpt lat="40.434398762295956" lon="15.060648542009302"><ele>249.0</ele><time>2026-04-25T14:22:03Z</time></trkpt><trkpt lat="40.434364882232614" lon="15.060751173446127"><ele>249.0</ele><time>2026-04-25T14:22:05Z</time></trkpt><trkpt lat="40.4343826593751" lon="15.060912263604175"><ele>251.6</ele><time>2026-04-25T14:22:07Z</time></trkpt><trkpt lat="40.43431534478247" lon="15.061051258187907"><ele>254.2</ele><time>2026-04-25T14:22:09Z</time></trkpt><trkpt lat="40.43426837845888" lon="15.061142490407105"><ele>256.79999999999995</ele><time>2026-04-25T14:22:10Z</time></trkpt><trkpt lat="40.43418274016221" lon="15.061248201013807"><ele>259.4</ele><time>2026-04-25T14:22:11Z</time></trkpt><trkpt lat="40.43409604724698" lon="15.061328754125006"><ele>262.0</ele><time>2026-04-25T14:22:11.999Z</time></trkpt><trkpt lat="40.43403203196714" lon="15.061402618050883"><ele>262.0</ele><time>2026-04-25T14:22:12.999Z</time></trkpt><trkpt lat="40.433971876665815" lon="15.061477878563247"><ele>262.0</ele><time>2026-04-25T14:22:13.999Z</time></trkpt><trkpt lat="40.43392594625435" lon="15.061550057980982"><ele>262.0</ele><time>2026-04-25T14:22:14.999Z</time></trkpt><trkpt lat="40.43382650795055" lon="15.06165999769259"><ele>262.0</ele><time>2026-04-25T14:22:16.999Z</time></trkpt><trkpt lat="40.433782181939165" lon="15.061726399034159"><ele>262.0</ele><time>2026-04-25T14:22:17.999Z</time></trkpt><trkpt lat="40.433719148588615" lon="15.061781030557537"><ele>262.0</ele><time>2026-04-25T14:22:18.999Z</time></trkpt><trkpt lat="40.433662025988475" lon="15.061838518346216"><ele>263.5</ele><time>2026-04-25T14:22:19.999Z</time></trkpt><trkpt lat="40.433607750127024" lon="15.061882819291084"><ele>265.0</ele><time>2026-04-25T14:22:20.999Z</time></trkpt><trkpt lat="40.43354811667288" lon="15.06192912882961"><ele>266.5</ele><time>2026-04-25T14:22:21.999Z</time></trkpt><trkpt lat="40.43349280313041" lon="15.061999825788297"><ele>268.0</ele><time>2026-04-25T14:22:22.999Z</time></trkpt><trkpt lat="40.43343148237156" lon="15.062086503067789"><ele>269.5</ele><time>2026-04-25T14:22:23.999Z</time></trkpt><trkpt lat="40.43337462170718" lon="15.062155583453233"><ele>271.0</ele><time>2026-04-25T14:22:24.999Z</time></trkpt><trkpt lat="40.43331617983359" lon="15.062231260294551"><ele>271.0</ele><time>2026-04-25T14:22:25.999Z</time></trkpt><trkpt lat="40.43325202793518" lon="15.062311416047077"><ele>271.0</ele><time>2026-04-25T14:22:26.999Z</time></trkpt><trkpt lat="40.43317126131774" lon="15.062372782119573"><ele>271.0</ele><time>2026-04-25T14:22:27.999Z</time></trkpt><trkpt lat="40.43309848976453" lon="15.062403020106085"><ele>271.0</ele><time>2026-04-25T14:22:28.999Z</time></trkpt><trkpt lat="40.43298157526816" lon="15.062455944448578"><ele>271.0</ele><time>2026-04-25T14:22:30.999Z</time></trkpt><trkpt lat="40.43293740798701" lon="15.062525086975306"><ele>272.6</ele><time>2026-04-25T14:22:31.999Z</time></trkpt><trkpt lat="40.43286086212398" lon="15.062620527153506"><ele>274.20000000000005</ele><time>2026-04-25T14:22:32.999Z</time></trkpt><trkpt lat="40.43280259787769" lon="15.062690175900158"><ele>275.79999999999995</ele><time>2026-04-25T14:22:33.999Z</time></trkpt><trkpt lat="40.43274189375839" lon="15.062749112322596"><ele>277.4</ele><time>2026-04-25T14:22:34.999Z</time></trkpt><trkpt lat="40.43264382218499" lon="15.062803135184566"><ele>279.0</ele><time>2026-04-25T14:22:35.999Z</time></trkpt><trkpt lat="40.43256121599077" lon="15.062845903381579"><ele>279.0</ele><time>2026-04-25T14:22:36.999Z</time></trkpt><trkpt lat="40.43250055146836" lon="15.062885011175826"><ele>279.0</ele><time>2026-04-25T14:22:37.999Z</time></trkpt><trkpt lat="40.43245933682173" lon="15.06299351590818"><ele>279.0</ele><time>2026-04-25T14:22:39.999Z</time></trkpt><trkpt lat="40.43245731607211" lon="15.063145540799797"><ele>279.0</ele><time>2026-04-25T14:22:41.999Z</time></trkpt><trkpt lat="40.43244527821452" lon="15.063309483115424"><ele>279.0</ele><time>2026-04-25T14:22:43.999Z</time></trkpt><trkpt lat="40.432439467933435" lon="15.063401041653865"><ele>282.3333333333333</ele><time>2026-04-25T14:22:44.999Z</time></trkpt><trkpt lat="40.43242719390081" lon="15.063487183300866"><ele>285.6666666666667</ele><time>2026-04-25T14:22:45.999Z</time></trkpt><trkpt lat="40.432412240971956" lon="15.063581360819633"><ele>289.0</ele><time>2026-04-25T14:22:46.999Z</time></trkpt><trkpt lat="40.43240549736796" lon="15.063685251488286"><ele>292.33333333333337</ele><time>2026-04-25T14:22:47.999Z</time></trkpt><trkpt lat="40.43239591042593" lon="15.063782900534738"><ele>295.6666666666667</ele><time>2026-04-25T14:22:48.999Z</time></trkpt><trkpt lat="40.43238351699424" lon="15.063933641242391"><ele>299.0</ele><time>2026-04-25T14:22:50.999Z</time></trkpt><trkpt lat="40.432284386353395" lon="15.064030012196039"><ele>299.6666666666667</ele><time>2026-04-25T14:22:51.999Z</time></trkpt><trkpt lat="40.43226885142002" lon="15.064148500202732"><ele>300.33333333333337</ele><time>2026-04-25T14:22:52.999Z</time></trkpt><trkpt lat="40.43224708104377" lon="15.06422896687705"><ele>301.0</ele><time>2026-04-25T14:22:53.999Z</time></trkpt><trkpt lat="40.43221821081211" lon="15.064317678099913"><ele>301.6666666666667</ele><time>2026-04-25T14:22:54.999Z</time></trkpt><trkpt lat="40.43218195142165" lon="15.064404306940693"><ele>302.3333333333333</ele><time>2026-04-25T14:22:55.999Z</time></trkpt><trkpt lat="40.43212816595442" lon="15.064511791819582"><ele>303.0</ele><time>2026-04-25T14:22:56.999Z</time></trkpt><trkpt lat="40.432063565747605" lon="15.064639066723347"><ele>303.0</ele><time>2026-04-25T14:22:57.999Z</time></trkpt><trkpt lat="40.432012686016655" lon="15.064744772439521"><ele>303.0</ele><time>2026-04-25T14:22:58.999Z</time></trkpt><trkpt lat="40.43197311343373" lon="15.064850949060537"><ele>303.0</ele><time>2026-04-25T14:22:59.999Z</time></trkpt><trkpt lat="40.431950246846895" lon="15.064940171824635"><ele>303.0</ele><time>2026-04-25T14:23:00.999Z</time></trkpt><trkpt lat="40.43192983563432" lon="15.065036354952104"><ele>303.0</ele><time>2026-04-25T14:23:01.999Z</time></trkpt><trkpt lat="40.43191401505694" lon="15.065144605192675"><ele>303.0</ele><time>2026-04-25T14:23:02.999Z</time></trkpt><trkpt lat="40.43189636543034" lon="15.065253993779637"><ele>304.6</ele><time>2026-04-25T14:23:03.999Z</time></trkpt><trkpt lat="40.43187955859491" lon="15.06535815912465"><ele>306.20000000000005</ele><time>2026-04-25T14:23:04.999Z</time></trkpt><trkpt lat="40.431858979338884" lon="15.06549709410899"><ele>307.8</ele><time>2026-04-25T14:23:05.999Z</time></trkpt><trkpt lat="40.4318410875165" lon="15.06566195231532"><ele>309.40000000000003</ele><time>2026-04-25T14:23:06.999Z</time></trkpt><trkpt lat="40.43182884554991" lon="15.065806447784889"><ele>311.0</ele><time>2026-04-25T14:23:07.999Z</time></trkpt><trkpt lat="40.43181750685461" lon="15.065930053488158"><ele>312.1666666666667</ele><time>2026-04-25T14:23:08.999Z</time></trkpt><trkpt lat="40.43180536853444" lon="15.066024723241998"><ele>313.33333333333337</ele><time>2026-04-25T14:23:09.999Z</time></trkpt><trkpt lat="40.43179042735389" lon="15.066126256859228"><ele>314.5</ele><time>2026-04-25T14:23:10.999Z</time></trkpt><trkpt lat="40.43177458059472" lon="15.066233303954377"><ele>315.6666666666667</ele><time>2026-04-25T14:23:11.999Z</time></trkpt><trkpt lat="40.431759964689824" lon="15.06633283522759"><ele>316.8333333333333</ele><time>2026-04-25T14:23:12.999Z</time></trkpt><trkpt lat="40.43174404774359" lon="15.066469862022075"><ele>318.0</ele><time>2026-04-25T14:23:13.999Z</time></trkpt><trkpt lat="40.43173452967234" lon="15.066613063726063"><ele>320.6666666666667</ele><time>2026-04-25T14:23:14.999Z</time></trkpt><trkpt lat="40.43173671341915" lon="15.066712630541117"><ele>323.3333333333333</ele><time>2026-04-25T14:23:15.999Z</time></trkpt><trkpt lat="40.431735186955336" lon="15.066822190357284"><ele>326.0</ele><time>2026-04-25T14:23:16.999Z</time></trkpt><trkpt lat="40.4317272105221" lon="15.06692623531131"><ele>328.66666666666663</ele><time>2026-04-25T14:23:17.999Z</time></trkpt><trkpt lat="40.43171479286313" lon="15.067028565302198"><ele>331.3333333333333</ele><time>2026-04-25T14:23:18.999Z</time></trkpt><trkpt lat="40.431698281639505" lon="15.067118134677473"><ele>334.0</ele><time>2026-04-25T14:23:19.999Z</time></trkpt><trkpt lat="40.43167699100369" lon="15.067237877064912"><ele>334.0</ele><time>2026-04-25T14:23:20.999Z</time></trkpt><trkpt lat="40.431656383794504" lon="15.067351302629843"><ele>334.0</ele><time>2026-04-25T14:23:21.999Z</time></trkpt><trkpt lat="40.43163108251788" lon="15.067480059652228"><ele>334.0</ele><time>2026-04-25T14:23:22.999Z</time></trkpt><trkpt lat="40.43160902727909" lon="15.067601741897901"><ele>334.0</ele><time>2026-04-25T14:23:23.999Z</time></trkpt><trkpt lat="40.43159483703558" lon="15.067708772291173"><ele>334.0</ele><time>2026-04-25T14:23:24.999Z</time></trkpt><trkpt lat="40.43157021630616" lon="15.067807708888873"><ele>334.0</ele><time>2026-04-25T14:23:25.999Z</time></trkpt><trkpt lat="40.431537526571105" lon="15.067917206814993"><ele>335.0</ele><time>2026-04-25T14:23:26.999Z</time></trkpt><trkpt lat="40.431506924559926" lon="15.068011516683883"><ele>336.0</ele><time>2026-04-25T14:23:27.999Z</time></trkpt><trkpt lat="40.431477359326024" lon="15.068094286935812"><ele>337.0</ele><time>2026-04-25T14:23:28.999Z</time></trkpt><trkpt lat="40.43144481924328" lon="15.0681743275593"><ele>338.0</ele><time>2026-04-25T14:23:29.999Z</time></trkpt><trkpt lat="40.43141853578887" lon="15.068272994114746"><ele>339.0</ele><time>2026-04-25T14:23:30.999Z</time></trkpt><trkpt lat="40.43135522771495" lon="15.06840708362484"><ele>340.0</ele><time>2026-04-25T14:23:32.999Z</time></trkpt><trkpt lat="40.43130695319699" lon="15.068475113795726"><ele>340.0</ele><time>2026-04-25T14:23:33.999Z</time></trkpt><trkpt lat="40.43127515240249" lon="15.068581031028884"><ele>340.0</ele><time>2026-04-25T14:23:34.999Z</time></trkpt><trkpt lat="40.43126011886762" lon="15.068690432459116"><ele>340.0</ele><time>2026-04-25T14:23:35.999Z</time></trkpt><trkpt lat="40.431234319608464" lon="15.068841200443883"><ele>340.0</ele><time>2026-04-25T14:23:37.998Z</time></trkpt><trkpt lat="40.43121419515053" lon="15.068922503219978"><ele>340.0</ele><time>2026-04-25T14:23:38.998Z</time></trkpt><trkpt lat="40.43119202211948" lon="15.069007154786066"><ele>340.0</ele><time>2026-04-25T14:23:40Z</time></trkpt><trkpt lat="40.4311702646988" lon="15.069090219509572"><ele>342.6</ele><time>2026-04-25T14:23:41Z</time></trkpt><trkpt lat="40.43114956046703" lon="15.069169263590162"><ele>345.2</ele><time>2026-04-25T14:23:42Z</time></trkpt><trkpt lat="40.43111104484609" lon="15.069315254724643"><ele>347.79999999999995</ele><time>2026-04-25T14:23:44Z</time></trkpt><trkpt lat="40.43108084124625" lon="15.069470353611198"><ele>350.4</ele><time>2026-04-25T14:23:46Z</time></trkpt><trkpt lat="40.431082021476705" lon="15.06957643413774"><ele>353.0</ele><time>2026-04-25T14:23:47Z</time></trkpt><trkpt lat="40.43109169104795" lon="15.06972878135092"><ele>353.0</ele><time>2026-04-25T14:23:49Z</time></trkpt><trkpt lat="40.431068572169" lon="15.069847404541335"><ele>353.0</ele><time>2026-04-25T14:23:51Z</time></trkpt><trkpt lat="40.4310474425786" lon="15.069931128087168"><ele>353.0</ele><time>2026-04-25T14:23:52Z</time></trkpt><trkpt lat="40.43102179523102" lon="15.07001597944861"><ele>353.0</ele><time>2026-04-25T14:23:53Z</time></trkpt><trkpt lat="40.430993328538" lon="15.070097247939874"><ele>353.0</ele><time>2026-04-25T14:23:54Z</time></trkpt><trkpt lat="40.43096315540273" lon="15.070175580799233"><ele>353.0</ele><time>2026-04-25T14:23:55Z</time></trkpt><trkpt lat="40.430927392449014" lon="15.070248419253865"><ele>353.0</ele><time>2026-04-25T14:23:56Z</time></trkpt><trkpt lat="40.43088161154607" lon="15.070333519068026"><ele>355.4</ele><time>2026-04-25T14:23:57Z</time></trkpt><trkpt lat="40.430831367893774" lon="15.070420536913232"><ele>357.79999999999995</ele><time>2026-04-25T14:23:58Z</time></trkpt><trkpt lat="40.430764842207" lon="15.070531778109736"><ele>360.2</ele><time>2026-04-25T14:24:00Z</time></trkpt><trkpt lat="40.43069302738193" lon="15.070636069266156"><ele>362.6</ele><time>2026-04-25T14:24:02Z</time></trkpt><trkpt lat="40.43061337242648" lon="15.070756060292727"><ele>365.0</ele><time>2026-04-25T14:24:04Z</time></trkpt><trkpt lat="40.43057662773046" lon="15.070829311657853"><ele>366.0</ele><time>2026-04-25T14:24:05Z</time></trkpt><trkpt lat="40.43052582154658" lon="15.070940105992596"><ele>367.0</ele><time>2026-04-25T14:24:06Z</time></trkpt><trkpt lat="40.43047130347816" lon="15.071043012282157"><ele>368.0</ele><time>2026-04-25T14:24:07Z</time></trkpt><trkpt lat="40.43042804317394" lon="15.071109051086582"><ele>369.0</ele><time>2026-04-25T14:24:08Z</time></trkpt><trkpt lat="40.43036312557219" lon="15.07120496585965"><ele>370.0</ele><time>2026-04-25T14:24:10Z</time></trkpt><trkpt lat="40.430290516642636" lon="15.071294153130037"><ele>370.0</ele><time>2026-04-25T14:24:12Z</time></trkpt><trkpt lat="40.43019375844278" lon="15.071343512213986"><ele>370.0</ele><time>2026-04-25T14:24:14Z</time></trkpt><trkpt lat="40.43010131331068" lon="15.071408299161364"><ele>370.0</ele><time>2026-04-25T14:24:16Z</time></trkpt><trkpt lat="40.43000350492683" lon="15.071491123876212"><ele>370.0</ele><time>2026-04-25T14:24:17.999Z</time></trkpt><trkpt lat="40.429954990765744" lon="15.071556442731877"><ele>370.0</ele><time>2026-04-25T14:24:18.999Z</time></trkpt><trkpt lat="40.42991643760101" lon="15.071637277658303"><ele>372.2</ele><time>2026-04-25T14:24:19.999Z</time></trkpt><trkpt lat="40.42985836830706" lon="15.07178374502909"><ele>374.4</ele><time>2026-04-25T14:24:21.999Z</time></trkpt><trkpt lat="40.4298122557232" lon="15.071919737118073"><ele>376.6</ele><time>2026-04-25T14:24:23.999Z</time></trkpt><trkpt lat="40.429759394586625" lon="15.072057802328162"><ele>378.8</ele><time>2026-04-25T14:24:25.999Z</time></trkpt><trkpt lat="40.4297264424134" lon="15.072138241023326"><ele>381.0</ele><time>2026-04-25T14:24:26.999Z</time></trkpt><trkpt lat="40.429690759356475" lon="15.072225346017945"><ele>381.0</ele><time>2026-04-25T14:24:27.999Z</time></trkpt><trkpt lat="40.429657463897286" lon="15.072306623332894"><ele>381.0</ele><time>2026-04-25T14:24:28.999Z</time></trkpt><trkpt lat="40.42962457555987" lon="15.072386907308154"><ele>381.0</ele><time>2026-04-25T14:24:29.999Z</time></trkpt><trkpt lat="40.429594636762744" lon="15.072476467606604"><ele>381.0</ele><time>2026-04-25T14:24:30.999Z</time></trkpt><trkpt lat="40.42956248359037" lon="15.072566920557882"><ele>381.0</ele><time>2026-04-25T14:24:31.999Z</time></trkpt><trkpt lat="40.42953093925043" lon="15.072655660624832"><ele>381.0</ele><time>2026-04-25T14:24:32.999Z</time></trkpt><trkpt lat="40.42950382032658" lon="15.072731951577579"><ele>381.0</ele><time>2026-04-25T14:24:33.999Z</time></trkpt><trkpt lat="40.4294508609282" lon="15.072886339718313"><ele>380.3333333333333</ele><time>2026-04-25T14:24:35.999Z</time></trkpt><trkpt lat="40.42940886409874" lon="15.073010140795928"><ele>379.6666666666667</ele><time>2026-04-25T14:24:37.999Z</time></trkpt><trkpt lat="40.429377938936064" lon="15.073100877825459"><ele>379.0</ele><time>2026-04-25T14:24:40.999Z</time></trkpt><trkpt lat="40.42931988915876" lon="15.07306050913652"><ele>378.33333333333337</ele><time>2026-04-25T14:24:42.999Z</time></trkpt><trkpt lat="40.42924285047271" lon="15.07301419329436"><ele>377.6666666666667</ele><time>2026-04-25T14:24:45.999Z</time></trkpt><trkpt lat="40.4291963755007" lon="15.07295356269929"><ele>377.0</ele><time>2026-04-25T14:24:47.999Z</time></trkpt><trkpt lat="40.42913128947335" lon="15.07293044659523"><ele>376.99999999999994</ele><time>2026-04-25T14:24:49.999Z</time></trkpt><trkpt lat="40.429076320824315" lon="15.072887246566735"><ele>377.0</ele><time>2026-04-25T14:24:51.999Z</time></trkpt><trkpt lat="40.4290170941573" lon="15.072840935764724"><ele>377.0</ele><time>2026-04-25T14:24:54.999Z</time></trkpt><trkpt lat="40.428987112847494" lon="15.072766654387628"><ele>377.0</ele><time>2026-04-25T14:25:26.999Z</time></trkpt><trkpt lat="40.42892929952537" lon="15.072728261159984"><ele>377.0</ele><time>2026-04-25T14:25:29.999Z</time></trkpt><trkpt lat="40.4288628709369" lon="15.072706555714673"><ele>376.99999999999994</ele><time>2026-04-25T14:25:31.999Z</time></trkpt><trkpt lat="40.42877568914018" lon="15.072675541272545"><ele>377.0</ele><time>2026-04-25T14:25:33.999Z</time></trkpt><trkpt lat="40.42868702150946" lon="15.072658238713492"><ele>374.25</ele><time>2026-04-25T14:25:34.999Z</time></trkpt><trkpt lat="40.428579327778344" lon="15.072663634005144"><ele>371.5</ele><time>2026-04-25T14:25:35.999Z</time></trkpt><trkpt lat="40.42846245987165" lon="15.072693582157868"><ele>368.75</ele><time>2026-04-25T14:25:36.999Z</time></trkpt><trkpt lat="40.428347641699226" lon="15.072739685860668"><ele>366.0</ele><time>2026-04-25T14:25:37.999Z</time></trkpt><trkpt lat="40.428236090036194" lon="15.072766386642625"><ele>366.0</ele><time>2026-04-25T14:25:38.999Z</time></trkpt><trkpt lat="40.4281320745044" lon="15.072812785057215"><ele>366.0</ele><time>2026-04-25T14:25:39.999Z</time></trkpt><trkpt lat="40.42803273323368" lon="15.072859727670554"><ele>366.0</ele><time>2026-04-25T14:25:40.999Z</time></trkpt><trkpt lat="40.427946479633356" lon="15.072900485838726"><ele>366.0</ele><time>2026-04-25T14:25:41.999Z</time></trkpt><trkpt lat="40.427882144199245" lon="15.072930886836836"><ele>366.0</ele><time>2026-04-25T14:25:42.999Z</time></trkpt><trkpt lat="40.427822126797324" lon="15.072959247375833"><ele>366.0</ele><time>2026-04-25T14:25:44.998Z</time></trkpt><trkpt lat="40.427756088401956" lon="15.07299045309814"><ele>365.5</ele><time>2026-04-25T14:25:47Z</time></trkpt><trkpt lat="40.427703387138195" lon="15.073228624826429"><ele>365.0</ele><time>2026-04-25T14:25:48Z</time></trkpt><trkpt lat="40.427679261420636" lon="15.073367270238077"><ele>364.5</ele><time>2026-04-25T14:25:49Z</time></trkpt><trkpt lat="40.42764041478744" lon="15.073524411673636"><ele>364.0</ele><time>2026-04-25T14:25:50Z</time></trkpt><trkpt lat="40.42759053153265" lon="15.073672013984467"><ele>364.0</ele><time>2026-04-25T14:25:51Z</time></trkpt><trkpt lat="40.427527482061926" lon="15.073829818519364"><ele>364.0</ele><time>2026-04-25T14:25:52Z</time></trkpt><trkpt lat="40.42745102853279" lon="15.073978361118913"><ele>364.0</ele><time>2026-04-25T14:25:53Z</time></trkpt><trkpt lat="40.427353899435694" lon="15.074115016206363"><ele>364.0</ele><time>2026-04-25T14:25:54Z</time></trkpt><trkpt lat="40.427245615292485" lon="15.074222647167973"><ele>364.75</ele><time>2026-04-25T14:25:55Z</time></trkpt><trkpt lat="40.42713046556872" lon="15.07432496843546"><ele>365.5</ele><time>2026-04-25T14:25:56Z</time></trkpt><trkpt lat="40.427019428715404" lon="15.074423305729606"><ele>366.25</ele><time>2026-04-25T14:25:57Z</time></trkpt><trkpt lat="40.4269182792975" lon="15.07451725952084"><ele>367.0</ele><time>2026-04-25T14:25:58Z</time></trkpt><trkpt lat="40.42681782942694" lon="15.074617365355598"><ele>367.0</ele><time>2026-04-25T14:25:59Z</time></trkpt><trkpt lat="40.426726989098704" lon="15.074763220791166"><ele>367.0</ele><time>2026-04-25T14:26:00Z</time></trkpt><trkpt lat="40.42666468302595" lon="15.074941375976055"><ele>367.0</ele><time>2026-04-25T14:26:01Z</time></trkpt><trkpt lat="40.42661685679815" lon="15.075156285737044"><ele>369.66666666666663</ele><time>2026-04-25T14:26:02Z</time></trkpt><trkpt lat="40.4265721861909" lon="15.075353169236253"><ele>372.3333333333333</ele><time>2026-04-25T14:26:03Z</time></trkpt><trkpt lat="40.42653020493254" lon="15.075538268365047"><ele>375.0</ele><time>2026-04-25T14:26:04Z</time></trkpt><trkpt lat="40.42648362708939" lon="15.07572809087961"><ele>375.25</ele><time>2026-04-25T14:26:05Z</time></trkpt><trkpt lat="40.42642691430793" lon="15.075897748149751"><ele>375.5</ele><time>2026-04-25T14:26:06Z</time></trkpt><trkpt lat="40.426361146592726" lon="15.076021586196587"><ele>375.75</ele><time>2026-04-25T14:26:07Z</time></trkpt><trkpt lat="40.42629163621334" lon="15.076102992956438"><ele>376.0</ele><time>2026-04-25T14:26:08Z</time></trkpt><trkpt lat="40.426185156772355" lon="15.076189360102036"><ele>376.0</ele><time>2026-04-25T14:26:09Z</time></trkpt><trkpt lat="40.42606784413519" lon="15.07627781977503"><ele>376.0</ele><time>2026-04-25T14:26:10Z</time></trkpt><trkpt lat="40.425952180423" lon="15.076358435016415"><ele>376.0</ele><time>2026-04-25T14:26:11Z</time></trkpt><trkpt lat="40.425828304532885" lon="15.076441106456318"><ele>376.0</ele><time>2026-04-25T14:26:12Z</time></trkpt><trkpt lat="40.425704739054694" lon="15.076525113345662"><ele>376.75</ele><time>2026-04-25T14:26:13Z</time></trkpt><trkpt lat="40.42558472611865" lon="15.076607303061673"><ele>377.5</ele><time>2026-04-25T14:26:14Z</time></trkpt><trkpt lat="40.425477277608756" lon="15.07668088816389"><ele>378.25</ele><time>2026-04-25T14:26:15Z</time></trkpt><trkpt lat="40.42537410825149" lon="15.076751542749179"><ele>379.0</ele><time>2026-04-25T14:26:16Z</time></trkpt><trkpt lat="40.425261554449605" lon="15.076828624179093"><ele>379.0</ele><time>2026-04-25T14:26:17Z</time></trkpt><trkpt lat="40.42514232712678" lon="15.076910275888059"><ele>379.0</ele><time>2026-04-25T14:26:18Z</time></trkpt><trkpt lat="40.42504645034811" lon="15.076975251159123"><ele>379.0</ele><time>2026-04-25T14:26:19Z</time></trkpt><trkpt lat="40.424965295293106" lon="15.077041759795692"><ele>379.0</ele><time>2026-04-25T14:26:20Z</time></trkpt><trkpt lat="40.42488972503902" lon="15.077110971132566"><ele>379.0</ele><time>2026-04-25T14:26:21Z</time></trkpt><trkpt lat="40.42481469331152" lon="15.077181737759867"><ele>379.0</ele><time>2026-04-25T14:26:22Z</time></trkpt><trkpt lat="40.424743139481826" lon="15.077252986868704"><ele>379.0</ele><time>2026-04-25T14:26:23Z</time></trkpt><trkpt lat="40.42466962529102" lon="15.077350058165262"><ele>379.0</ele><time>2026-04-25T14:26:24Z</time></trkpt><trkpt lat="40.424626754248536" lon="15.077501004950182"><ele>379.0</ele><time>2026-04-25T14:26:24.999Z</time></trkpt><trkpt lat="40.424604674873386" lon="15.077627939791261"><ele>379.0</ele><time>2026-04-25T14:26:25.999Z</time></trkpt><trkpt lat="40.42459186412538" lon="15.077726943944368"><ele>378.79999999999995</ele><time>2026-04-25T14:26:26.999Z</time></trkpt><trkpt lat="40.424547849709995" lon="15.077848579694965"><ele>378.59999999999997</ele><time>2026-04-25T14:26:28.999Z</time></trkpt><trkpt lat="40.4244631838771" lon="15.077820365363975"><ele>378.4</ele><time>2026-04-25T14:26:29.999Z</time></trkpt><trkpt lat="40.42435151019053" lon="15.077866676557523"><ele>378.2</ele><time>2026-04-25T14:26:30.999Z</time></trkpt><trkpt lat="40.42423988917877" lon="15.077928554714383"><ele>378.0</ele><time>2026-04-25T14:26:31.999Z</time></trkpt><trkpt lat="40.424130903868594" lon="15.07798574870688"><ele>378.0</ele><time>2026-04-25T14:26:32.999Z</time></trkpt><trkpt lat="40.42402317561953" lon="15.078039100293728"><ele>378.0</ele><time>2026-04-25T14:26:33.999Z</time></trkpt><trkpt lat="40.42391469824743" lon="15.078092807613626"><ele>378.0</ele><time>2026-04-25T14:26:34.999Z</time></trkpt><trkpt lat="40.42381150227095" lon="15.078144391636624"><ele>378.0</ele><time>2026-04-25T14:26:35.999Z</time></trkpt><trkpt lat="40.423721728232195" lon="15.078189664311203"><ele>378.0</ele><time>2026-04-25T14:26:36.999Z</time></trkpt><trkpt lat="40.42364126680573" lon="15.07823024078859"><ele>377.7142857142857</ele><time>2026-04-25T14:26:37.999Z</time></trkpt><trkpt lat="40.42357173703772" lon="15.078265304384548"><ele>377.42857142857144</ele><time>2026-04-25T14:26:38.999Z</time></trkpt><trkpt lat="40.42350620535461" lon="15.078298351748968"><ele>377.1428571428571</ele><time>2026-04-25T14:26:39.999Z</time></trkpt><trkpt lat="40.42344236399253" lon="15.078336009965957"><ele>376.8571428571429</ele><time>2026-04-25T14:26:40.999Z</time></trkpt><trkpt lat="40.42336375943298" lon="15.078335818772752"><ele>376.57142857142856</ele><time>2026-04-25T14:26:41.999Z</time></trkpt><trkpt lat="40.423294580908845" lon="15.078326360922047"><ele>376.2857142857143</ele><time>2026-04-25T14:26:42.999Z</time></trkpt><trkpt lat="40.42322825574633" lon="15.07828074654804"><ele>376.0</ele><time>2026-04-25T14:26:43.999Z</time></trkpt><trkpt lat="40.42316119905329" lon="15.078167910376182"><ele>374.25</ele><time>2026-04-25T14:26:44.999Z</time></trkpt><trkpt lat="40.42310965934919" lon="15.078011763452816"><ele>372.5</ele><time>2026-04-25T14:26:45.999Z</time></trkpt><trkpt lat="40.42307175252528" lon="15.077855500927715"><ele>370.75</ele><time>2026-04-25T14:26:46.999Z</time></trkpt><trkpt lat="40.42303222211734" lon="15.07770861232523"><ele>369.0</ele><time>2026-04-25T14:26:47.999Z</time></trkpt><trkpt lat="40.42299454404208" lon="15.077560221674162"><ele>365.0</ele><time>2026-04-25T14:26:48.999Z</time></trkpt><trkpt lat="40.42296307683214" lon="15.077415264495006"><ele>361.0</ele><time>2026-04-25T14:26:49.999Z</time></trkpt><trkpt lat="40.42292595344899" lon="15.077273097260797"><ele>357.0</ele><time>2026-04-25T14:26:50.999Z</time></trkpt><trkpt lat="40.42286983280485" lon="15.077138818091287"><ele>353.0</ele><time>2026-04-25T14:26:51.999Z</time></trkpt><trkpt lat="40.422802575537766" lon="15.077013512375858"><ele>353.0</ele><time>2026-04-25T14:26:52.999Z</time></trkpt><trkpt lat="40.42272036424714" lon="15.076918655640114"><ele>353.0</ele><time>2026-04-25T14:26:53.999Z</time></trkpt><trkpt lat="40.422642961973246" lon="15.076850833730163"><ele>353.0</ele><time>2026-04-25T14:26:54.999Z</time></trkpt><trkpt lat="40.422550388774184" lon="15.076785218213479"><ele>353.0</ele><time>2026-04-25T14:26:56.999Z</time></trkpt><trkpt lat="40.42246887585081" lon="15.076712799501168"><ele>353.0</ele><time>2026-04-25T14:26:58.999Z</time></trkpt><trkpt lat="40.42242577813475" lon="15.076641275188694"><ele>351.2</ele><time>2026-04-25T14:26:59.999Z</time></trkpt><trkpt lat="40.42239679973331" lon="15.076529680937064"><ele>349.4</ele><time>2026-04-25T14:27:00.999Z</time></trkpt><trkpt lat="40.42237226891076" lon="15.076407627428853"><ele>347.59999999999997</ele><time>2026-04-25T14:27:01.999Z</time></trkpt><trkpt lat="40.42234090246167" lon="15.076286887288425"><ele>345.79999999999995</ele><time>2026-04-25T14:27:02.999Z</time></trkpt><trkpt lat="40.42229847876489" lon="15.076149994784348"><ele>344.0</ele><time>2026-04-25T14:27:03.999Z</time></trkpt><trkpt lat="40.42225146142062" lon="15.075991373138246"><ele>344.0</ele><time>2026-04-25T14:27:04.999Z</time></trkpt><trkpt lat="40.42220721803757" lon="15.07582640663961"><ele>344.0</ele><time>2026-04-25T14:27:05.999Z</time></trkpt><trkpt lat="40.42216567586061" lon="15.075657340936035"><ele>344.0</ele><time>2026-04-25T14:27:06.999Z</time></trkpt><trkpt lat="40.42212939478923" lon="15.075485261939361"><ele>344.0</ele><time>2026-04-25T14:27:07.999Z</time></trkpt><trkpt lat="40.42208790279268" lon="15.07531414522249"><ele>339.5</ele><time>2026-04-25T14:27:08.999Z</time></trkpt><trkpt lat="40.42204545917153" lon="15.075141821952265"><ele>335.0</ele><time>2026-04-25T14:27:09.999Z</time></trkpt><trkpt lat="40.42200340453266" lon="15.074980359985625"><ele>330.5</ele><time>2026-04-25T14:27:10.999Z</time></trkpt><trkpt lat="40.4219511686709" lon="15.07483150515092"><ele>326.0</ele><time>2026-04-25T14:27:11.999Z</time></trkpt><trkpt lat="40.42188101926938" lon="15.074698991228844"><ele>324.5</ele><time>2026-04-25T14:27:12.999Z</time></trkpt><trkpt lat="40.421788390779895" lon="15.074582506331458"><ele>323.0</ele><time>2026-04-25T14:27:13.999Z</time></trkpt><trkpt lat="40.42166627229148" lon="15.074481762389377"><ele>321.5</ele><time>2026-04-25T14:27:14.999Z</time></trkpt><trkpt lat="40.42151582105223" lon="15.074371709001168"><ele>320.0</ele><time>2026-04-25T14:27:15.999Z</time></trkpt><trkpt lat="40.42137277994241" lon="15.074256841464713"><ele>317.0</ele><time>2026-04-25T14:27:16.999Z</time></trkpt><trkpt lat="40.421246228678754" lon="15.074149017801998"><ele>314.0</ele><time>2026-04-25T14:27:17.999Z</time></trkpt><trkpt lat="40.42113578704222" lon="15.074052079770727"><ele>311.0</ele><time>2026-04-25T14:27:18.999Z</time></trkpt><trkpt lat="40.42103122969329" lon="15.073952667492609"><ele>308.0</ele><time>2026-04-25T14:27:19.999Z</time></trkpt><trkpt lat="40.42092596751995" lon="15.073827429316554"><ele>307.0</ele><time>2026-04-25T14:27:20.999Z</time></trkpt><trkpt lat="40.4208378895168" lon="15.073651837945127"><ele>306.0</ele><time>2026-04-25T14:27:21.999Z</time></trkpt><trkpt lat="40.42076403311505" lon="15.073429790674018"><ele>305.0</ele><time>2026-04-25T14:27:22.999Z</time></trkpt><trkpt lat="40.42068590314859" lon="15.073209772159194"><ele>304.0</ele><time>2026-04-25T14:27:23.999Z</time></trkpt><trkpt lat="40.42060432546185" lon="15.073024456739041"><ele>303.0</ele><time>2026-04-25T14:27:24.999Z</time></trkpt><trkpt lat="40.42053104078458" lon="15.072851009819573"><ele>302.0</ele><time>2026-04-25T14:27:25.999Z</time></trkpt><trkpt lat="40.42047214157801" lon="15.072704368007825"><ele>301.0</ele><time>2026-04-25T14:27:26.999Z</time></trkpt><trkpt lat="40.42042314374711" lon="15.072581077600622"><ele>299.0</ele><time>2026-04-25T14:27:27.999Z</time></trkpt><trkpt lat="40.42037608332994" lon="15.072468605292995"><ele>297.0</ele><time>2026-04-25T14:27:28.999Z</time></trkpt><trkpt lat="40.420320533171626" lon="15.072373619656112"><ele>295.0</ele><time>2026-04-25T14:27:29.999Z</time></trkpt><trkpt lat="40.42024379024718" lon="15.072317805498866"><ele>293.0</ele><time>2026-04-25T14:27:30.999Z</time></trkpt><trkpt lat="40.420144149717494" lon="15.072312169228958"><ele>291.0</ele><time>2026-04-25T14:27:31.999Z</time></trkpt><trkpt lat="40.42002707857859" lon="15.072342961393229"><ele>289.8</ele><time>2026-04-25T14:27:32.999Z</time></trkpt><trkpt lat="40.41989586514149" lon="15.072367083561163"><ele>288.6</ele><time>2026-04-25T14:27:33.999Z</time></trkpt><trkpt lat="40.41978468871769" lon="15.07240604737262"><ele>287.4</ele><time>2026-04-25T14:27:34.999Z</time></trkpt><trkpt lat="40.41969310493036" lon="15.07243661065453"><ele>286.2</ele><time>2026-04-25T14:27:35.999Z</time></trkpt><trkpt lat="40.41960990280448" lon="15.072460201707951"><ele>285.0</ele><time>2026-04-25T14:27:36.999Z</time></trkpt><trkpt lat="40.419533643537505" lon="15.072464248993064"><ele>281.0</ele><time>2026-04-25T14:27:37.999Z</time></trkpt><trkpt lat="40.41946507845268" lon="15.072386663583627"><ele>277.0</ele><time>2026-04-25T14:27:38.999Z</time></trkpt><trkpt lat="40.41940404476219" lon="15.072248745630645"><ele>273.0</ele><time>2026-04-25T14:27:39.999Z</time></trkpt><trkpt lat="40.41935754561378" lon="15.072054975942487"><ele>269.0</ele><time>2026-04-25T14:27:40.999Z</time></trkpt><trkpt lat="40.419329804337025" lon="15.071828646881563"><ele>269.0</ele><time>2026-04-25T14:27:41.999Z</time></trkpt><trkpt lat="40.419311890379674" lon="15.071608548607689"><ele>269.0</ele><time>2026-04-25T14:27:42.999Z</time></trkpt><trkpt lat="40.41929138864428" lon="15.071413723431949"><ele>269.0</ele><time>2026-04-25T14:27:43.999Z</time></trkpt><trkpt lat="40.41926479283886" lon="15.071230979522396"><ele>267.5</ele><time>2026-04-25T14:27:44.999Z</time></trkpt><trkpt lat="40.41923758009476" lon="15.071054740562946"><ele>266.0</ele><time>2026-04-25T14:27:45.999Z</time></trkpt><trkpt lat="40.419215258613825" lon="15.070880026312606"><ele>264.5</ele><time>2026-04-25T14:27:46.999Z</time></trkpt><trkpt lat="40.41919993210711" lon="15.07070164400025"><ele>263.0</ele><time>2026-04-25T14:27:47.999Z</time></trkpt><trkpt lat="40.419192602617024" lon="15.07051587414215"><ele>261.75</ele><time>2026-04-25T14:27:48.999Z</time></trkpt><trkpt lat="40.41919480701244" lon="15.070332836402978"><ele>260.5</ele><time>2026-04-25T14:27:49.999Z</time></trkpt><trkpt lat="40.41918941694402" lon="15.070140612344948"><ele>259.25</ele><time>2026-04-25T14:27:50.999Z</time></trkpt><trkpt lat="40.41917265084677" lon="15.069927002223565"><ele>258.0</ele><time>2026-04-25T14:27:52Z</time></trkpt><trkpt lat="40.41915393588575" lon="15.069700453913207"><ele>256.3333333333333</ele><time>2026-04-25T14:27:53Z</time></trkpt><trkpt lat="40.419133479415386" lon="15.069488213264759"><ele>254.66666666666666</ele><time>2026-04-25T14:27:54Z</time></trkpt><trkpt lat="40.41909949159673" lon="15.06929192672351"><ele>253.0</ele><time>2026-04-25T14:27:55Z</time></trkpt><trkpt lat="40.41906774742" lon="15.069095226289285"><ele>251.33333333333331</ele><time>2026-04-25T14:27:56Z</time></trkpt><trkpt lat="40.41905524025055" lon="15.068894032269839"><ele>249.66666666666669</ele><time>2026-04-25T14:27:57Z</time></trkpt><trkpt lat="40.419071433590766" lon="15.068694742624853"><ele>248.0</ele><time>2026-04-25T14:27:58Z</time></trkpt><trkpt lat="40.419080827920695" lon="15.068503829967705"><ele>248.0</ele><time>2026-04-25T14:27:59Z</time></trkpt><trkpt lat="40.41908295310029" lon="15.068320426483945"><ele>248.0</ele><time>2026-04-25T14:28:00Z</time></trkpt><trkpt lat="40.41907332029966" lon="15.068135076938518"><ele>248.0</ele><time>2026-04-25T14:28:01Z</time></trkpt><trkpt lat="40.41904458433425" lon="15.067958301229233"><ele>248.0</ele><time>2026-04-25T14:28:02Z</time></trkpt><trkpt lat="40.41900414841651" lon="15.06777544002069"><ele>246.5</ele><time>2026-04-25T14:28:03Z</time></trkpt><trkpt lat="40.41895936147958" lon="15.067590030393285"><ele>245.0</ele><time>2026-04-25T14:28:04Z</time></trkpt><trkpt lat="40.41892188648382" lon="15.067407983269868"><ele>243.5</ele><time>2026-04-25T14:28:05Z</time></trkpt><trkpt lat="40.41889024407954" lon="15.06722311513828"><ele>242.0</ele><time>2026-04-25T14:28:06Z</time></trkpt><trkpt lat="40.41886126672816" lon="15.067038820114618"><ele>239.66666666666669</ele><time>2026-04-25T14:28:07Z</time></trkpt><trkpt lat="40.418833088917" lon="15.066846001313992"><ele>237.33333333333331</ele><time>2026-04-25T14:28:08Z</time></trkpt><trkpt lat="40.418818391317814" lon="15.066635722755256"><ele>235.0</ele><time>2026-04-25T14:28:09Z</time></trkpt><trkpt lat="40.41881100387324" lon="15.066420252824104"><ele>231.0</ele><time>2026-04-25T14:28:10Z</time></trkpt><trkpt lat="40.418801468847384" lon="15.066198303337629"><ele>227.0</ele><time>2026-04-25T14:28:11Z</time></trkpt><trkpt lat="40.4187883003998" lon="15.065972030018045"><ele>223.0</ele><time>2026-04-25T14:28:12Z</time></trkpt><trkpt lat="40.41877385147779" lon="15.065745349828232"><ele>220.0</ele><time>2026-04-25T14:28:13Z</time></trkpt><trkpt lat="40.41876114512867" lon="15.065518177045389"><ele>217.0</ele><time>2026-04-25T14:28:14Z</time></trkpt><trkpt lat="40.418750353235446" lon="15.065292609027363"><ele>214.0</ele><time>2026-04-25T14:28:15Z</time></trkpt><trkpt lat="40.4187350475181" lon="15.065070748414444"><ele>211.33333333333331</ele><time>2026-04-25T14:28:16Z</time></trkpt><trkpt lat="40.418701632284105" lon="15.064851164062256"><ele>208.66666666666669</ele><time>2026-04-25T14:28:17Z</time></trkpt><trkpt lat="40.41863068066679" lon="15.064630996591431"><ele>206.0</ele><time>2026-04-25T14:28:18Z</time></trkpt><trkpt lat="40.41852828731279" lon="15.064409803962317"><ele>206.0</ele><time>2026-04-25T14:28:19Z</time></trkpt><trkpt lat="40.418400432571566" lon="15.064179795597115"><ele>206.0</ele><time>2026-04-25T14:28:20Z</time></trkpt><trkpt lat="40.41828014471553" lon="15.063961071160842"><ele>206.0</ele><time>2026-04-25T14:28:21Z</time></trkpt><trkpt lat="40.41816490388306" lon="15.06375892110174"><ele>203.66666666666669</ele><time>2026-04-25T14:28:22Z</time></trkpt><trkpt lat="40.41805791605892" lon="15.063593441927683"><ele>201.33333333333331</ele><time>2026-04-25T14:28:23Z</time></trkpt><trkpt lat="40.41794929293949" lon="15.063459641478646"><ele>199.0</ele><time>2026-04-25T14:28:24Z</time></trkpt><trkpt lat="40.417807752937485" lon="15.063331890164683"><ele>196.0</ele><time>2026-04-25T14:28:25Z</time></trkpt><trkpt lat="40.41762024673323" lon="15.063211311095875"><ele>193.0</ele><time>2026-04-25T14:28:26Z</time></trkpt><trkpt lat="40.417398446003844" lon="15.063082622731102"><ele>190.0</ele><time>2026-04-25T14:28:27Z</time></trkpt><trkpt lat="40.41714821639285" lon="15.062940565310988"><ele>187.0</ele><time>2026-04-25T14:28:28Z</time></trkpt><trkpt lat="40.41689048001571" lon="15.062790184344873"><ele>187.0</ele><time>2026-04-25T14:28:29Z</time></trkpt><trkpt lat="40.41665895520071" lon="15.062653219043712"><ele>187.0</ele><time>2026-04-25T14:28:30Z</time></trkpt><trkpt lat="40.41644247961125" lon="15.062519732477615"><ele>185.0</ele><time>2026-04-25T14:28:31Z</time></trkpt><trkpt lat="40.41624307990528" lon="15.062394414141723"><ele>183.0</ele><time>2026-04-25T14:28:31.999Z</time></trkpt><trkpt lat="40.41604682488181" lon="15.062265393912547"><ele>181.0</ele><time>2026-04-25T14:28:32.999Z</time></trkpt><trkpt lat="40.41584747060196" lon="15.062137609600539"><ele>181.0</ele><time>2026-04-25T14:28:33.999Z</time></trkpt><trkpt lat="40.41564295960862" lon="15.062013530803576"><ele>181.0</ele><time>2026-04-25T14:28:34.999Z</time></trkpt><trkpt lat="40.415428536983384" lon="15.061890114374801"><ele>179.33333333333334</ele><time>2026-04-25T14:28:35.999Z</time></trkpt><trkpt lat="40.41522667577371" lon="15.061767982005664"><ele>177.66666666666666</ele><time>2026-04-25T14:28:36.999Z</time></trkpt><trkpt lat="40.4150302696482" lon="15.061641050001537"><ele>176.0</ele><time>2026-04-25T14:28:37.999Z</time></trkpt><trkpt lat="40.41483514295767" lon="15.061516049709084"><ele>175.0</ele><time>2026-04-25T14:28:38.999Z</time></trkpt><trkpt lat="40.414663182657314" lon="15.061398579028982"><ele>174.0</ele><time>2026-04-25T14:28:39.999Z</time></trkpt><trkpt lat="40.41451478874623" lon="15.061287734287044"><ele>173.0</ele><time>2026-04-25T14:28:40.999Z</time></trkpt><trkpt lat="40.414397264074736" lon="15.061171302236774"><ele>171.33333333333331</ele><time>2026-04-25T14:28:41.999Z</time></trkpt><trkpt lat="40.414304705721676" lon="15.061013225808313"><ele>169.66666666666666</ele><time>2026-04-25T14:28:42.999Z</time></trkpt><trkpt lat="40.41422822258572" lon="15.060799437066745"><ele>168.0</ele><time>2026-04-25T14:28:43.999Z</time></trkpt><trkpt lat="40.414157378515426" lon="15.060545048879222"><ele>166.33333333333334</ele><time>2026-04-25T14:28:44.999Z</time></trkpt><trkpt lat="40.414098779421465" lon="15.060301831039935"><ele>164.66666666666669</ele><time>2026-04-25T14:28:45.999Z</time></trkpt><trkpt lat="40.414049372325216" lon="15.060083500613642"><ele>163.0</ele><time>2026-04-25T14:28:46.999Z</time></trkpt><trkpt lat="40.413995800760965" lon="15.059881593964215"><ele>161.75</ele><time>2026-04-25T14:28:47.999Z</time></trkpt><trkpt lat="40.413948042858664" lon="15.059694117807538"><ele>160.5</ele><time>2026-04-25T14:28:48.999Z</time></trkpt><trkpt lat="40.41390518121661" lon="15.059529937567707"><ele>159.25</ele><time>2026-04-25T14:28:49.999Z</time></trkpt><trkpt lat="40.413866752128826" lon="15.059384354756219"><ele>158.0</ele><time>2026-04-25T14:28:50.999Z</time></trkpt><trkpt lat="40.413832334896625" lon="15.05925483970029"><ele>157.6</ele><time>2026-04-25T14:28:51.999Z</time></trkpt><trkpt lat="40.41380286462262" lon="15.059140846634651"><ele>157.20000000000002</ele><time>2026-04-25T14:28:52.999Z</time></trkpt><trkpt lat="40.413780166471405" lon="15.059053388042328"><ele>156.8</ele><time>2026-04-25T14:28:53.999Z</time></trkpt><trkpt lat="40.413762272494246" lon="15.058933622613925"><ele>156.4</ele><time>2026-04-25T14:28:55.999Z</time></trkpt><trkpt lat="40.413750874671585" lon="15.05883464032352"><ele>156.0</ele><time>2026-04-25T14:28:57.999Z</time></trkpt><trkpt lat="40.41364813247228" lon="15.058717110100197"><ele>155.57142857142858</ele><time>2026-04-25T14:29:00.999Z</time></trkpt><trkpt lat="40.41360666157338" lon="15.058639441665989"><ele>155.14285714285714</ele><time>2026-04-25T14:29:01.999Z</time></trkpt><trkpt lat="40.413564259884915" lon="15.058567702619499"><ele>154.71428571428572</ele><time>2026-04-25T14:29:02.999Z</time></trkpt><trkpt lat="40.41351465840479" lon="15.058491093231764"><ele>154.28571428571428</ele><time>2026-04-25T14:29:03.999Z</time></trkpt><trkpt lat="40.413466186139914" lon="15.058416866497463"><ele>153.85714285714286</ele><time>2026-04-25T14:29:04.999Z</time></trkpt><trkpt lat="40.41341891605996" lon="15.058342960345524"><ele>153.42857142857142</ele><time>2026-04-25T14:29:05.999Z</time></trkpt><trkpt lat="40.41337512292808" lon="15.058268362941238"><ele>153.0</ele><time>2026-04-25T14:29:06.999Z</time></trkpt><trkpt lat="40.41332810612718" lon="15.058187915801494"><ele>151.5</ele><time>2026-04-25T14:29:07.999Z</time></trkpt><trkpt lat="40.41327572035013" lon="15.05810359265488"><ele>150.0</ele><time>2026-04-25T14:29:08.999Z</time></trkpt><trkpt lat="40.41322470261507" lon="15.058016830241666"><ele>148.5</ele><time>2026-04-25T14:29:09.999Z</time></trkpt><trkpt lat="40.41317790866625" lon="15.05792948226211"><ele>147.0</ele><time>2026-04-25T14:29:10.999Z</time></trkpt><trkpt lat="40.41313290270075" lon="15.057840260207495"><ele>145.5</ele><time>2026-04-25T14:29:11.999Z</time></trkpt><trkpt lat="40.413076713345795" lon="15.0577514906951"><ele>144.0</ele><time>2026-04-25T14:29:12.999Z</time></trkpt><trkpt lat="40.413020405488766" lon="15.057658317496422"><ele>143.6</ele><time>2026-04-25T14:29:13.999Z</time></trkpt><trkpt lat="40.41296022637323" lon="15.057553193034996"><ele>143.2</ele><time>2026-04-25T14:29:14.999Z</time></trkpt><trkpt lat="40.41289392527055" lon="15.05746619335652"><ele>142.79999999999998</ele><time>2026-04-25T14:29:15.999Z</time></trkpt><trkpt lat="40.412807902087145" lon="15.057394598206923"><ele>142.4</ele><time>2026-04-25T14:29:16.999Z</time></trkpt><trkpt lat="40.4127005487374" lon="15.057316045935739"><ele>142.0</ele><time>2026-04-25T14:29:17.999Z</time></trkpt><trkpt lat="40.41260430067439" lon="15.057247407779062"><ele>141.4</ele><time>2026-04-25T14:29:18.999Z</time></trkpt><trkpt lat="40.41252855964477" lon="15.057174649682679"><ele>140.79999999999998</ele><time>2026-04-25T14:29:19.999Z</time></trkpt><trkpt lat="40.41246799420724" lon="15.057113820363625"><ele>140.2</ele><time>2026-04-25T14:29:20.999Z</time></trkpt><trkpt lat="40.41237032610199" lon="15.057085221657442"><ele>139.6</ele><time>2026-04-25T14:29:22.999Z</time></trkpt><trkpt lat="40.41227219221855" lon="15.057075504241093"><ele>139.0</ele><time>2026-04-25T14:29:24.999Z</time></trkpt><trkpt lat="40.41221119551183" lon="15.057196794094477"><ele>139.33333333333334</ele><time>2026-04-25T14:29:26.999Z</time></trkpt><trkpt lat="40.41215157328299" lon="15.057287652976026"><ele>139.66666666666669</ele><time>2026-04-25T14:29:28.999Z</time></trkpt><trkpt lat="40.41210404540476" lon="15.057361193828175"><ele>140.0</ele><time>2026-04-25T14:29:29.999Z</time></trkpt><trkpt lat="40.412049908091994" lon="15.05744054773135"><ele>140.33333333333334</ele><time>2026-04-25T14:29:30.999Z</time></trkpt><trkpt lat="40.41200004718425" lon="15.057511596738475"><ele>140.66666666666666</ele><time>2026-04-25T14:29:31.999Z</time></trkpt><trkpt lat="40.41190783915336" lon="15.057619330827656"><ele>141.0</ele><time>2026-04-25T14:29:33.999Z</time></trkpt><trkpt lat="40.41184681940722" lon="15.057686465610276"><ele>141.0</ele><time>2026-04-25T14:29:34.999Z</time></trkpt><trkpt lat="40.411786379659716" lon="15.057769060124933"><ele>141.0</ele><time>2026-04-25T14:29:35.999Z</time></trkpt><trkpt lat="40.411734125462715" lon="15.057849710059813"><ele>141.0</ele><time>2026-04-25T14:29:36.999Z</time></trkpt><trkpt lat="40.411691272952375" lon="15.057940762193754"><ele>141.0</ele><time>2026-04-25T14:29:37.999Z</time></trkpt><trkpt lat="40.41167116940605" lon="15.058053546884187"><ele>141.0</ele><time>2026-04-25T14:29:38.999Z</time></trkpt><trkpt lat="40.41167060040731" lon="15.058166006341887"><ele>141.0</ele><time>2026-04-25T14:29:39.999Z</time></trkpt><trkpt lat="40.41166037202385" lon="15.0582862892472"><ele>140.4</ele><time>2026-04-25T14:29:40.999Z</time></trkpt><trkpt lat="40.411651522273516" lon="15.058409323885137"><ele>139.8</ele><time>2026-04-25T14:29:41.999Z</time></trkpt><trkpt lat="40.41162613192429" lon="15.058531576806251"><ele>139.20000000000002</ele><time>2026-04-25T14:29:42.999Z</time></trkpt><trkpt lat="40.411602075500674" lon="15.058647341848546"><ele>138.6</ele><time>2026-04-25T14:29:43.999Z</time></trkpt><trkpt lat="40.41157252993981" lon="15.058763109945081"><ele>138.0</ele><time>2026-04-25T14:29:44.999Z</time></trkpt><trkpt lat="40.41154918961783" lon="15.058903605168322"><ele>138.0</ele><time>2026-04-25T14:29:45.999Z</time></trkpt><trkpt lat="40.41149687105489" lon="15.059048737316349"><ele>138.0</ele><time>2026-04-25T14:29:46.999Z</time></trkpt><trkpt lat="40.41144961811762" lon="15.059192904344354"><ele>138.0</ele><time>2026-04-25T14:29:47.999Z</time></trkpt><trkpt lat="40.41140853226193" lon="15.059332012454826"><ele>138.0</ele><time>2026-04-25T14:29:48.999Z</time></trkpt><trkpt lat="40.411372026628065" lon="15.059467887999963"><ele>138.75</ele><time>2026-04-25T14:29:49.999Z</time></trkpt><trkpt lat="40.41134036815854" lon="15.05959630052832"><ele>139.5</ele><time>2026-04-25T14:29:50.999Z</time></trkpt><trkpt lat="40.41129807900171" lon="15.05974004404193"><ele>140.25</ele><time>2026-04-25T14:29:51.999Z</time></trkpt><trkpt lat="40.41124898506605" lon="15.059895732126654"><ele>141.0</ele><time>2026-04-25T14:29:52.999Z</time></trkpt><trkpt lat="40.41119664305439" lon="15.060057978844055"><ele>139.0</ele><time>2026-04-25T14:29:53.999Z</time></trkpt><trkpt lat="40.41114391437053" lon="15.060221383059684"><ele>137.0</ele><time>2026-04-25T14:29:54.999Z</time></trkpt><trkpt lat="40.411097395184555" lon="15.060377502330613"><ele>135.0</ele><time>2026-04-25T14:29:55.999Z</time></trkpt><trkpt lat="40.41105907942629" lon="15.060521857706247"><ele>133.0</ele><time>2026-04-25T14:29:56.999Z</time></trkpt><trkpt lat="40.41102813260007" lon="15.060646673158068"><ele>133.0</ele><time>2026-04-25T14:29:58Z</time></trkpt><trkpt lat="40.41099870923393" lon="15.060758015429572"><ele>133.0</ele><time>2026-04-25T14:29:59Z</time></trkpt><trkpt lat="40.410969147765115" lon="15.060865221680405"><ele>133.0</ele><time>2026-04-25T14:30:00Z</time></trkpt><trkpt lat="40.41094344887981" lon="15.060976531368102"><ele>133.0</ele><time>2026-04-25T14:30:01Z</time></trkpt><trkpt lat="40.41092114013275" lon="15.06109073021948"><ele>133.0</ele><time>2026-04-25T14:30:02Z</time></trkpt><trkpt lat="40.41089284105148" lon="15.061217288893957"><ele>132.75</ele><time>2026-04-25T14:30:03Z</time></trkpt><trkpt lat="40.410855828778175" lon="15.061358723618106"><ele>132.5</ele><time>2026-04-25T14:30:04Z</time></trkpt><trkpt lat="40.410817267256895" lon="15.061510899674202"><ele>132.25</ele><time>2026-04-25T14:30:05Z</time></trkpt><trkpt lat="40.41076602969794" lon="15.0616504676241"><ele>132.0</ele><time>2026-04-25T14:30:06Z</time></trkpt><trkpt lat="40.41072919508723" lon="15.061791796486258"><ele>131.66666666666666</ele><time>2026-04-25T14:30:07Z</time></trkpt><trkpt lat="40.410696475838506" lon="15.061911925115085"><ele>131.33333333333334</ele><time>2026-04-25T14:30:08Z</time></trkpt><trkpt lat="40.41066790438796" lon="15.062011045047656"><ele>131.0</ele><time>2026-04-25T14:30:09Z</time></trkpt><trkpt lat="40.41064311009282" lon="15.062091197823623"><ele>130.66666666666669</ele><time>2026-04-25T14:30:10Z</time></trkpt><trkpt lat="40.41059294628265" lon="15.062210949594391"><ele>130.33333333333334</ele><time>2026-04-25T14:30:12Z</time></trkpt><trkpt lat="40.41051183559403" lon="15.062230273292917"><ele>130.0</ele><time>2026-04-25T14:30:13Z</time></trkpt><trkpt lat="40.41040504262332" lon="15.062248039162581"><ele>127.33333333333334</ele><time>2026-04-25T14:30:14Z</time></trkpt><trkpt lat="40.41027000301259" lon="15.062263999224928"><ele>124.66666666666666</ele><time>2026-04-25T14:30:15Z</time></trkpt><trkpt lat="40.410109356174495" lon="15.062278604261696"><ele>122.0</ele><time>2026-04-25T14:30:16Z</time></trkpt><trkpt lat="40.409933822372665" lon="15.062295207790585"><ele>122.0</ele><time>2026-04-25T14:30:17Z</time></trkpt><trkpt lat="40.40973242337927" lon="15.062312692618956"><ele>122.0</ele><time>2026-04-25T14:30:18Z</time></trkpt><trkpt lat="40.40956258568024" lon="15.062326787783956"><ele>122.0</ele><time>2026-04-25T14:30:19Z</time></trkpt><trkpt lat="40.409413233928205" lon="15.062346447976795"><ele>120.33333333333333</ele><time>2026-04-25T14:30:20Z</time></trkpt><trkpt lat="40.40925790323411" lon="15.062366358729651"><ele>118.66666666666666</ele><time>2026-04-25T14:30:21Z</time></trkpt><trkpt lat="40.409102297443255" lon="15.062386589520873"><ele>117.0</ele><time>2026-04-25T14:30:22Z</time></trkpt><trkpt lat="40.40893432171699" lon="15.06240846831164"><ele>115.66666666666666</ele><time>2026-04-25T14:30:23Z</time></trkpt><trkpt lat="40.408754190184894" lon="15.062423891126246"><ele>114.33333333333333</ele><time>2026-04-25T14:30:24Z</time></trkpt><trkpt lat="40.408576393771575" lon="15.062448204279972"><ele>113.0</ele><time>2026-04-25T14:30:25Z</time></trkpt><trkpt lat="40.40840394455823" lon="15.062470357778144"><ele>113.0</ele><time>2026-04-25T14:30:26Z</time></trkpt><trkpt lat="40.40823957139725" lon="15.06248582284321"><ele>113.0</ele><time>2026-04-25T14:30:27Z</time></trkpt><trkpt lat="40.40808320230338" lon="15.062495497660953"><ele>113.0</ele><time>2026-04-25T14:30:28Z</time></trkpt><trkpt lat="40.4079110114049" lon="15.062518816575771"><ele>111.33333333333333</ele><time>2026-04-25T14:30:29Z</time></trkpt><trkpt lat="40.40774386786451" lon="15.06254016901612"><ele>109.66666666666666</ele><time>2026-04-25T14:30:30Z</time></trkpt><trkpt lat="40.407589943013086" lon="15.062561319581604"><ele>108.0</ele><time>2026-04-25T14:30:31Z</time></trkpt><trkpt lat="40.40743471214192" lon="15.062579100026758"><ele>108.0</ele><time>2026-04-25T14:30:32Z</time></trkpt><trkpt lat="40.40728822972046" lon="15.062589294551863"><ele>108.0</ele><time>2026-04-25T14:30:33Z</time></trkpt><trkpt lat="40.4071463851599" lon="15.062595186450901"><ele>108.0</ele><time>2026-04-25T14:30:34Z</time></trkpt><trkpt lat="40.40701574599612" lon="15.062596675391442"><ele>108.0</ele><time>2026-04-25T14:30:34.999Z</time></trkpt><trkpt lat="40.40687388287464" lon="15.062599001861072"><ele>106.5</ele><time>2026-04-25T14:30:35.999Z</time></trkpt><trkpt lat="40.40673749673363" lon="15.062604181965765"><ele>105.0</ele><time>2026-04-25T14:30:36.999Z</time></trkpt><trkpt lat="40.40660697203608" lon="15.062635481834"><ele>103.5</ele><time>2026-04-25T14:30:37.999Z</time></trkpt><trkpt lat="40.406476402995914" lon="15.062694770021912"><ele>102.0</ele><time>2026-04-25T14:30:38.999Z</time></trkpt><trkpt lat="40.406331118387804" lon="15.062728051326218"><ele>101.25</ele><time>2026-04-25T14:30:39.999Z</time></trkpt><trkpt lat="40.40620015318371" lon="15.062788193217425"><ele>100.5</ele><time>2026-04-25T14:30:40.999Z</time></trkpt><trkpt lat="40.40607381895958" lon="15.062821827940594"><ele>99.75</ele><time>2026-04-25T14:30:41.999Z</time></trkpt><trkpt lat="40.40594653811943" lon="15.062860543998758"><ele>99.0</ele><time>2026-04-25T14:30:42.999Z</time></trkpt><trkpt lat="40.405824582107606" lon="15.06290138331904"><ele>99.0</ele><time>2026-04-25T14:30:43.999Z</time></trkpt><trkpt lat="40.405709817222224" lon="15.06294124865064"><ele>99.0</ele><time>2026-04-25T14:30:44.999Z</time></trkpt><trkpt lat="40.405595489920884" lon="15.062979362117105"><ele>99.0</ele><time>2026-04-25T14:30:45.999Z</time></trkpt><trkpt lat="40.405473589963925" lon="15.063016451710988"><ele>99.0</ele><time>2026-04-25T14:30:46.999Z</time></trkpt><trkpt lat="40.405347158529636" lon="15.063056754982286"><ele>98.25</ele><time>2026-04-25T14:30:47.999Z</time></trkpt><trkpt lat="40.40522428818479" lon="15.063099204829715"><ele>97.5</ele><time>2026-04-25T14:30:48.999Z</time></trkpt><trkpt lat="40.40510243833187" lon="15.063117024268003"><ele>96.75</ele><time>2026-04-25T14:30:49.999Z</time></trkpt><trkpt lat="40.40498548211466" lon="15.06317650136091"><ele>96.0</ele><time>2026-04-25T14:30:50.999Z</time></trkpt><trkpt lat="40.40485655293208" lon="15.063215078302115"><ele>96.0</ele><time>2026-04-25T14:30:51.999Z</time></trkpt><trkpt lat="40.40473269374755" lon="15.063256475568492"><ele>96.0</ele><time>2026-04-25T14:30:52.999Z</time></trkpt><trkpt lat="40.40460110222053" lon="15.06330069342192"><ele>96.0</ele><time>2026-04-25T14:30:53.999Z</time></trkpt><trkpt lat="40.40446702824218" lon="15.063346201835678"><ele>96.0</ele><time>2026-04-25T14:30:54.999Z</time></trkpt><trkpt lat="40.40433424813488" lon="15.06339376188402"><ele>94.75</ele><time>2026-04-25T14:30:55.999Z</time></trkpt><trkpt lat="40.40420651962949" lon="15.063408607641364"><ele>93.5</ele><time>2026-04-25T14:30:56.999Z</time></trkpt><trkpt lat="40.40408206057058" lon="15.063465154939847"><ele>92.25</ele><time>2026-04-25T14:30:57.999Z</time></trkpt><trkpt lat="40.403941432999275" lon="15.063503327555601"><ele>91.0</ele><time>2026-04-25T14:30:58.999Z</time></trkpt><trkpt lat="40.403790246592315" lon="15.063549751278028"><ele>90.25</ele><time>2026-04-25T14:30:59.999Z</time></trkpt><trkpt lat="40.4036416697477" lon="15.063594124496214"><ele>89.5</ele><time>2026-04-25T14:31:00.999Z</time></trkpt><trkpt lat="40.40350483897036" lon="15.063637864867436"><ele>88.75</ele><time>2026-04-25T14:31:01.999Z</time></trkpt><trkpt lat="40.40336927859681" lon="15.06368642260788"><ele>88.0</ele><time>2026-04-25T14:31:02.999Z</time></trkpt><trkpt lat="40.40323870437133" lon="15.063735808055458"><ele>88.0</ele><time>2026-04-25T14:31:03.999Z</time></trkpt><trkpt lat="40.403098249547945" lon="15.063759885232338"><ele>88.0</ele><time>2026-04-25T14:31:04.999Z</time></trkpt><trkpt lat="40.40295989356464" lon="15.063802463937627"><ele>88.0</ele><time>2026-04-25T14:31:05.999Z</time></trkpt><trkpt lat="40.402825734003606" lon="15.063848228167581"><ele>88.0</ele><time>2026-04-25T14:31:06.999Z</time></trkpt><trkpt lat="40.40272441194029" lon="15.063894223535318"><ele>87.60000000000001</ele><time>2026-04-25T14:31:07.999Z</time></trkpt><trkpt lat="40.40265671459524" lon="15.063955775716144"><ele>87.2</ele><time>2026-04-25T14:31:08.999Z</time></trkpt><trkpt lat="40.4025917307295" lon="15.063961478959305"><ele>86.8</ele><time>2026-04-25T14:31:09.999Z</time></trkpt><trkpt lat="40.402494158068826" lon="15.063982485952586"><ele>86.4</ele><time>2026-04-25T14:31:11.999Z</time></trkpt><trkpt lat="40.40239978858245" lon="15.063998596531745"><ele>86.0</ele><time>2026-04-25T14:31:12.999Z</time></trkpt><trkpt lat="40.40227519983496" lon="15.06395194405646"><ele>85.75</ele><time>2026-04-25T14:31:13.999Z</time></trkpt><trkpt lat="40.402147725357636" lon="15.063964695890688"><ele>85.5</ele><time>2026-04-25T14:31:14.999Z</time></trkpt><trkpt lat="40.402011378718946" lon="15.063981657511471"><ele>85.25</ele><time>2026-04-25T14:31:15.999Z</time></trkpt><trkpt lat="40.401872397099105" lon="15.064005807419337"><ele>85.0</ele><time>2026-04-25T14:31:16.999Z</time></trkpt><trkpt lat="40.401742110356395" lon="15.064065144970904"><ele>84.0</ele><time>2026-04-25T14:31:17.999Z</time></trkpt><trkpt lat="40.40162701018297" lon="15.064130750327637"><ele>83.0</ele><time>2026-04-25T14:31:18.999Z</time></trkpt><trkpt lat="40.40151896569303" lon="15.064181919055645"><ele>82.0</ele><time>2026-04-25T14:31:19.999Z</time></trkpt><trkpt lat="40.401414047319605" lon="15.064214055194586"><ele>81.0</ele><time>2026-04-25T14:31:20.999Z</time></trkpt><trkpt lat="40.40131009121041" lon="15.064247200983214"><ele>80.39999999999999</ele><time>2026-04-25T14:31:21.999Z</time></trkpt><trkpt lat="40.4012097964047" lon="15.064306285245832"><ele>79.8</ele><time>2026-04-25T14:31:22.999Z</time></trkpt><trkpt lat="40.401124565513555" lon="15.064383988741415"><ele>79.19999999999999</ele><time>2026-04-25T14:31:23.999Z</time></trkpt><trkpt lat="40.401047598277714" lon="15.064464463862425"><ele>78.6</ele><time>2026-04-25T14:31:24.999Z</time></trkpt><trkpt lat="40.40097777412039" lon="15.064538813645576"><ele>78.0</ele><time>2026-04-25T14:31:25.999Z</time></trkpt><trkpt lat="40.40091211401404" lon="15.064625182231872"><ele>78.0</ele><time>2026-04-25T14:31:26.999Z</time></trkpt><trkpt lat="40.40085137176422" lon="15.06472490022962"><ele>78.0</ele><time>2026-04-25T14:31:27.999Z</time></trkpt><trkpt lat="40.4007837466145" lon="15.064840461643088"><ele>78.0</ele><time>2026-04-25T14:31:28.999Z</time></trkpt><trkpt lat="40.400689949926985" lon="15.064968897097769"><ele>78.0</ele><time>2026-04-25T14:31:29.999Z</time></trkpt><trkpt lat="40.40057654111259" lon="15.065079597803637"><ele>77.25</ele><time>2026-04-25T14:31:30.999Z</time></trkpt><trkpt lat="40.400461362600915" lon="15.065179173322772"><ele>76.5</ele><time>2026-04-25T14:31:31.999Z</time></trkpt><trkpt lat="40.40034308296461" lon="15.06527098489774"><ele>75.75</ele><time>2026-04-25T14:31:32.999Z</time></trkpt><trkpt lat="40.40022065544845" lon="15.06535109626564"><ele>75.0</ele><time>2026-04-25T14:31:33.999Z</time></trkpt><trkpt lat="40.40010162826916" lon="15.065409244784844"><ele>75.0</ele><time>2026-04-25T14:31:34.999Z</time></trkpt><trkpt lat="40.399974640515325" lon="15.06546652407862"><ele>75.0</ele><time>2026-04-25T14:31:35.999Z</time></trkpt><trkpt lat="40.399839237054636" lon="15.065521027184102"><ele>75.0</ele><time>2026-04-25T14:31:36.999Z</time></trkpt><trkpt lat="40.39970384305275" lon="15.0655710753293"><ele>75.0</ele><time>2026-04-25T14:31:37.999Z</time></trkpt><trkpt lat="40.39956873823315" lon="15.065624625444949"><ele>74.0</ele><time>2026-04-25T14:31:38.999Z</time></trkpt><trkpt lat="40.39941656527677" lon="15.065677092565345"><ele>73.0</ele><time>2026-04-25T14:31:39.999Z</time></trkpt><trkpt lat="40.39926066517986" lon="15.065700775277653"><ele>72.0</ele><time>2026-04-25T14:31:40.999Z</time></trkpt><trkpt lat="40.39910497093571" lon="15.065712263180124"><ele>72.0</ele><time>2026-04-25T14:31:41.999Z</time></trkpt><trkpt lat="40.39895433266175" lon="15.065723378027476"><ele>72.0</ele><time>2026-04-25T14:31:42.999Z</time></trkpt><trkpt lat="40.39880817242663" lon="15.065734162463997"><ele>72.0</ele><time>2026-04-25T14:31:43.999Z</time></trkpt><trkpt lat="40.39866470447647" lon="15.065742398294889"><ele>72.0</ele><time>2026-04-25T14:31:44.999Z</time></trkpt><trkpt lat="40.3985260155971" lon="15.065769366868505"><ele>72.0</ele><time>2026-04-25T14:31:45.999Z</time></trkpt><trkpt lat="40.39838896694604" lon="15.06576135958877"><ele>72.0</ele><time>2026-04-25T14:31:46.999Z</time></trkpt><trkpt lat="40.39822792179446" lon="15.065782570983377"><ele>72.0</ele><time>2026-04-25T14:31:47.999Z</time></trkpt><trkpt lat="40.3980738319353" lon="15.065845119651277"><ele>70.0</ele><time>2026-04-25T14:31:48.999Z</time></trkpt><trkpt lat="40.397909479654714" lon="15.06594888693173"><ele>68.0</ele><time>2026-04-25T14:31:49.999Z</time></trkpt><trkpt lat="40.3977274079541" lon="15.06608032390638"><ele>66.0</ele><time>2026-04-25T14:31:50.999Z</time></trkpt><trkpt lat="40.39755640244076" lon="15.066201511102879"><ele>66.0</ele><time>2026-04-25T14:31:51.999Z</time></trkpt><trkpt lat="40.3974027064938" lon="15.066296377292854"><ele>66.0</ele><time>2026-04-25T14:31:52.999Z</time></trkpt><trkpt lat="40.39725623001094" lon="15.066385628347977"><ele>66.0</ele><time>2026-04-25T14:31:53.999Z</time></trkpt><trkpt lat="40.39711481534984" lon="15.066466493136918"><ele>66.0</ele><time>2026-04-25T14:31:54.999Z</time></trkpt><trkpt lat="40.39698225742874" lon="15.06653886971851"><ele>66.0</ele><time>2026-04-25T14:31:55.999Z</time></trkpt><trkpt lat="40.396869474239004" lon="15.066609431218726"><ele>66.0</ele><time>2026-04-25T14:31:56.999Z</time></trkpt><trkpt lat="40.3967604021702" lon="15.066691874865809"><ele>66.0</ele><time>2026-04-25T14:31:57.999Z</time></trkpt><trkpt lat="40.39663774562575" lon="15.066787667512333"><ele>65.0</ele><time>2026-04-25T14:31:58.999Z</time></trkpt><trkpt lat="40.396503966749044" lon="15.066920058398555"><ele>64.0</ele><time>2026-04-25T14:31:59.999Z</time></trkpt><trkpt lat="40.396373593785306" lon="15.067070783445741"><ele>63.0</ele><time>2026-04-25T14:32:00.999Z</time></trkpt><trkpt lat="40.396259939354486" lon="15.067209393594608"><ele>62.25</ele><time>2026-04-25T14:32:01.999Z</time></trkpt><trkpt lat="40.3961542189102" lon="15.067337868165666"><ele>61.5</ele><time>2026-04-25T14:32:02.999Z</time></trkpt><trkpt lat="40.396052773763024" lon="15.067458137769544"><ele>60.75</ele><time>2026-04-25T14:32:04Z</time></trkpt><trkpt lat="40.39595587179212" lon="15.067573019969208"><ele>60.0</ele><time>2026-04-25T14:32:05Z</time></trkpt><trkpt lat="40.395868148966834" lon="15.067678944284062"><ele>59.75</ele><time>2026-04-25T14:32:06Z</time></trkpt><trkpt lat="40.395784746090804" lon="15.06778381513657"><ele>59.5</ele><time>2026-04-25T14:32:07Z</time></trkpt><trkpt lat="40.39569844328874" lon="15.067877839961422"><ele>59.25</ele><time>2026-04-25T14:32:08Z</time></trkpt><trkpt lat="40.395597384327694" lon="15.067950301943918"><ele>59.0</ele><time>2026-04-25T14:32:09Z</time></trkpt><trkpt lat="40.3954859921595" lon="15.068014765197063"><ele>58.5</ele><time>2026-04-25T14:32:10Z</time></trkpt><trkpt lat="40.39536352406249" lon="15.068084661347179"><ele>58.0</ele><time>2026-04-25T14:32:11Z</time></trkpt><trkpt lat="40.39523091737652" lon="15.068156793755552"><ele>57.5</ele><time>2026-04-25T14:32:12Z</time></trkpt><trkpt lat="40.39509677221576" lon="15.0682286639156"><ele>57.0</ele><time>2026-04-25T14:32:13Z</time></trkpt><trkpt lat="40.39496054875683" lon="15.068301283323521"><ele>57.0</ele><time>2026-04-25T14:32:14Z</time></trkpt><trkpt lat="40.394820775710436" lon="15.068375794956756"><ele>57.0</ele><time>2026-04-25T14:32:15Z</time></trkpt><trkpt lat="40.39468853440658" lon="15.068446291506708"><ele>57.0</ele><time>2026-04-25T14:32:16Z</time></trkpt><trkpt lat="40.39455428691348" lon="15.068515982742431"><ele>57.0</ele><time>2026-04-25T14:32:17Z</time></trkpt><trkpt lat="40.39441455350405" lon="15.068583503125216"><ele>56.66666666666667</ele><time>2026-04-25T14:32:18Z</time></trkpt><trkpt lat="40.39427355458097" lon="15.068641668105084"><ele>56.333333333333336</ele><time>2026-04-25T14:32:19Z</time></trkpt><trkpt lat="40.394133150680645" lon="15.068696919671059"><ele>56.0</ele><time>2026-04-25T14:32:20Z</time></trkpt><trkpt lat="40.39398076259414" lon="15.068755366047474"><ele>55.333333333333336</ele><time>2026-04-25T14:32:21Z</time></trkpt><trkpt lat="40.393830065991" lon="15.068811919414523"><ele>54.66666666666667</ele><time>2026-04-25T14:32:22Z</time></trkpt><trkpt lat="40.39368238711111" lon="15.068866734528529"><ele>54.0</ele><time>2026-04-25T14:32:23Z</time></trkpt><trkpt lat="40.39352597932733" lon="15.068917372169732"><ele>54.0</ele><time>2026-04-25T14:32:24Z</time></trkpt><trkpt lat="40.39335927959345" lon="15.0689718952357"><ele>54.0</ele><time>2026-04-25T14:32:25Z</time></trkpt><trkpt lat="40.393195467251886" lon="15.06903246144556"><ele>54.0</ele><time>2026-04-25T14:32:26Z</time></trkpt><trkpt lat="40.39304708092271" lon="15.06908821636299"><ele>53.0</ele><time>2026-04-25T14:32:27Z</time></trkpt><trkpt lat="40.39290793718014" lon="15.069141494289775"><ele>52.0</ele><time>2026-04-25T14:32:28Z</time></trkpt><trkpt lat="40.392776728272416" lon="15.069191994642386"><ele>51.0</ele><time>2026-04-25T14:32:29Z</time></trkpt><trkpt lat="40.39265796058239" lon="15.069236817890305"><ele>50.0</ele><time>2026-04-25T14:32:30Z</time></trkpt><trkpt lat="40.39254947879533" lon="15.069278287760458"><ele>50.00000000000001</ele><time>2026-04-25T14:32:31Z</time></trkpt><trkpt lat="40.39244965738683" lon="15.06932207934877"><ele>50.0</ele><time>2026-04-25T14:32:32Z</time></trkpt><trkpt lat="40.39236429991704" lon="15.069360098033275"><ele>50.0</ele><time>2026-04-25T14:32:33Z</time></trkpt><trkpt lat="40.39229330597865" lon="15.069387873827047"><ele>50.0</ele><time>2026-04-25T14:32:34Z</time></trkpt><trkpt lat="40.392203149735174" lon="15.069413232604001"><ele>50.00000000000001</ele><time>2026-04-25T14:32:36Z</time></trkpt><trkpt lat="40.39214829088104" lon="15.069349982069964"><ele>50.0</ele><time>2026-04-25T14:32:40Z</time></trkpt><trkpt lat="40.39213743042084" lon="15.06920545839009"><ele>49.6</ele><time>2026-04-25T14:32:42.999Z</time></trkpt><trkpt lat="40.39215291783417" lon="15.069090397067804"><ele>49.2</ele><time>2026-04-25T14:32:44.999Z</time></trkpt><trkpt lat="40.39215961857247" lon="15.068943082819962"><ele>48.8</ele><time>2026-04-25T14:32:46.999Z</time></trkpt><trkpt lat="40.392170519426095" lon="15.068788565261249"><ele>48.4</ele><time>2026-04-25T14:32:48.999Z</time></trkpt><trkpt lat="40.39217820952452" lon="15.068696000328746"><ele>48.0</ele><time>2026-04-25T14:32:49.999Z</time></trkpt><trkpt lat="40.39218183859449" lon="15.06859529446405"><ele>48.333333333333336</ele><time>2026-04-25T14:32:50.999Z</time></trkpt><trkpt lat="40.39218343584957" lon="15.068480978584835"><ele>48.66666666666667</ele><time>2026-04-25T14:32:51.999Z</time></trkpt><trkpt lat="40.392182789760255" lon="15.06836968373111"><ele>49.0</ele><time>2026-04-25T14:32:52.999Z</time></trkpt><trkpt lat="40.39218097566922" lon="15.06826562504775"><ele>49.333333333333336</ele><time>2026-04-25T14:32:53.999Z</time></trkpt><trkpt lat="40.39217337960744" lon="15.068159635833673"><ele>49.66666666666667</ele><time>2026-04-25T14:32:54.999Z</time></trkpt><trkpt lat="40.39215537504356" lon="15.068043910623919"><ele>50.0</ele><time>2026-04-25T14:32:55.999Z</time></trkpt><trkpt lat="40.392123353542445" lon="15.06791356410191"><ele>50.0</ele><time>2026-04-25T14:32:56.999Z</time></trkpt><trkpt lat="40.39207652253819" lon="15.06776276503328"><ele>50.0</ele><time>2026-04-25T14:32:57.999Z</time></trkpt><trkpt lat="40.392018004090026" lon="15.067613197081327"><ele>50.0</ele><time>2026-04-25T14:32:58.999Z</time></trkpt><trkpt lat="40.39194552539132" lon="15.067467172887609"><ele>50.0</ele><time>2026-04-25T14:32:59.999Z</time></trkpt><trkpt lat="40.39186322673728" lon="15.067316285076636"><ele>52.0</ele><time>2026-04-25T14:33:00.999Z</time></trkpt><trkpt lat="40.39177391332186" lon="15.06717210570082"><ele>54.0</ele><time>2026-04-25T14:33:01.999Z</time></trkpt><trkpt lat="40.391660996773844" lon="15.067030788587529"><ele>56.0</ele><time>2026-04-25T14:33:02.999Z</time></trkpt><trkpt lat="40.39151688860045" lon="15.066897796227055"><ele>56.0</ele><time>2026-04-25T14:33:03.999Z</time></trkpt><trkpt lat="40.39137943820147" lon="15.066757737350805"><ele>56.0</ele><time>2026-04-25T14:33:04.999Z</time></trkpt><trkpt lat="40.391266377373135" lon="15.06662967037981"><ele>56.0</ele><time>2026-04-25T14:33:05.999Z</time></trkpt><trkpt lat="40.391157696190675" lon="15.06650621120421"><ele>53.66666666666667</ele><time>2026-04-25T14:33:06.999Z</time></trkpt><trkpt lat="40.39107161174823" lon="15.066366362805436"><ele>51.33333333333333</ele><time>2026-04-25T14:33:07.999Z</time></trkpt><trkpt lat="40.39100278684388" lon="15.066179828060516"><ele>49.0</ele><time>2026-04-25T14:33:08.999Z</time></trkpt><trkpt lat="40.3909357697191" lon="15.065971968489363"><ele>49.0</ele><time>2026-04-25T14:33:09.999Z</time></trkpt><trkpt lat="40.390870864018915" lon="15.065781276754787"><ele>49.0</ele><time>2026-04-25T14:33:10.999Z</time></trkpt><trkpt lat="40.39080828613042" lon="15.065602960622336"><ele>49.0</ele><time>2026-04-25T14:33:11.999Z</time></trkpt><trkpt lat="40.39074770454617" lon="15.065429761058445"><ele>49.0</ele><time>2026-04-25T14:33:12.999Z</time></trkpt><trkpt lat="40.39068852442681" lon="15.06526570729724"><ele>49.0</ele><time>2026-04-25T14:33:13.999Z</time></trkpt><trkpt lat="40.39061782828135" lon="15.065119830526747"><ele>49.0</ele><time>2026-04-25T14:33:14.999Z</time></trkpt><trkpt lat="40.390515776534265" lon="15.065003847358643"><ele>49.0</ele><time>2026-04-25T14:33:15.999Z</time></trkpt><trkpt lat="40.39039466641713" lon="15.06493643634756"><ele>48.75</ele><time>2026-04-25T14:33:16.999Z</time></trkpt><trkpt lat="40.390249211990856" lon="15.06490684883459"><ele>48.5</ele><time>2026-04-25T14:33:17.999Z</time></trkpt><trkpt lat="40.39009533854172" lon="15.0648898976861"><ele>48.25</ele><time>2026-04-25T14:33:18.999Z</time></trkpt><trkpt lat="40.38996306042113" lon="15.064857389095916"><ele>48.0</ele><time>2026-04-25T14:33:19.999Z</time></trkpt><trkpt lat="40.38985350634387" lon="15.0647979627818"><ele>48.0</ele><time>2026-04-25T14:33:20.999Z</time></trkpt><trkpt lat="40.389764409398005" lon="15.064705202295725"><ele>48.0</ele><time>2026-04-25T14:33:21.999Z</time></trkpt><trkpt lat="40.389703991653874" lon="15.06456288557065"><ele>48.0</ele><time>2026-04-25T14:33:22.999Z</time></trkpt><trkpt lat="40.38965654044459" lon="15.064364346685723"><ele>48.0</ele><time>2026-04-25T14:33:23.999Z</time></trkpt><trkpt lat="40.38961610254648" lon="15.064128230020897"><ele>44.666666666666664</ele><time>2026-04-25T14:33:24.999Z</time></trkpt><trkpt lat="40.38957893541505" lon="15.06391922111131"><ele>41.33333333333333</ele><time>2026-04-25T14:33:25.999Z</time></trkpt><trkpt lat="40.389548773404236" lon="15.063718713620885"><ele>38.0</ele><time>2026-04-25T14:33:26.999Z</time></trkpt><trkpt lat="40.38954731917962" lon="15.063490507896319"><ele>37.666666666666664</ele><time>2026-04-25T14:33:27.999Z</time></trkpt><trkpt lat="40.389578787880296" lon="15.063232549811055"><ele>37.333333333333336</ele><time>2026-04-25T14:33:28.999Z</time></trkpt><trkpt lat="40.38962790237541" lon="15.062964621322351"><ele>37.0</ele><time>2026-04-25T14:33:29.999Z</time></trkpt><trkpt lat="40.38967069733479" lon="15.062725947214702"><ele>37.333333333333336</ele><time>2026-04-25T14:33:30.999Z</time></trkpt><trkpt lat="40.38971128940535" lon="15.062485103911294"><ele>37.666666666666664</ele><time>2026-04-25T14:33:31.999Z</time></trkpt><trkpt lat="40.389756061755634" lon="15.062244186908982"><ele>38.0</ele><time>2026-04-25T14:33:32.999Z</time></trkpt><trkpt lat="40.3897970980519" lon="15.062020679531907"><ele>38.0</ele><time>2026-04-25T14:33:33.999Z</time></trkpt><trkpt lat="40.38983656941995" lon="15.061814915497687"><ele>38.0</ele><time>2026-04-25T14:33:34.999Z</time></trkpt><trkpt lat="40.38986916698696" lon="15.06162578912392"><ele>38.0</ele><time>2026-04-25T14:33:35.999Z</time></trkpt><trkpt lat="40.389894162034764" lon="15.061438582843778"><ele>37.33333333333333</ele><time>2026-04-25T14:33:36.999Z</time></trkpt><trkpt lat="40.38990497678009" lon="15.061240469509647"><ele>36.666666666666664</ele><time>2026-04-25T14:33:37.999Z</time></trkpt><trkpt lat="40.38989345109761" lon="15.061035768923231"><ele>36.0</ele><time>2026-04-25T14:33:38.999Z</time></trkpt><trkpt lat="40.3898597064695" lon="15.060826912507526"><ele>35.5</ele><time>2026-04-25T14:33:39.999Z</time></trkpt><trkpt lat="40.389805544307656" lon="15.06063742565685"><ele>35.0</ele><time>2026-04-25T14:33:40.999Z</time></trkpt><trkpt lat="40.38974726205396" lon="15.06046442381556"><ele>34.5</ele><time>2026-04-25T14:33:41.999Z</time></trkpt><trkpt lat="40.38970119561646" lon="15.060293830081859"><ele>34.0</ele><time>2026-04-25T14:33:42.999Z</time></trkpt><trkpt lat="40.38966093239166" lon="15.060111961431378"><ele>33.0</ele><time>2026-04-25T14:33:43.999Z</time></trkpt><trkpt lat="40.38962056290301" lon="15.059921395923771"><ele>32.0</ele><time>2026-04-25T14:33:44.999Z</time></trkpt><trkpt lat="40.389573879480494" lon="15.059724694035276"><ele>31.0</ele><time>2026-04-25T14:33:45.999Z</time></trkpt><trkpt lat="40.38952590909059" lon="15.059527638955457"><ele>31.0</ele><time>2026-04-25T14:33:46.999Z</time></trkpt><trkpt lat="40.389479489011414" lon="15.059326256175565"><ele>31.0</ele><time>2026-04-25T14:33:47.999Z</time></trkpt><trkpt lat="40.3894322452224" lon="15.05912472152232"><ele>31.0</ele><time>2026-04-25T14:33:48.999Z</time></trkpt><trkpt lat="40.389385132857946" lon="15.058922257749241"><ele>31.333333333333336</ele><time>2026-04-25T14:33:49.999Z</time></trkpt><trkpt lat="40.3893398285771" lon="15.058715091221549"><ele>31.666666666666664</ele><time>2026-04-25T14:33:50.999Z</time></trkpt><trkpt lat="40.38928855228319" lon="15.058502441445686"><ele>32.0</ele><time>2026-04-25T14:33:51.999Z</time></trkpt><trkpt lat="40.38923829166398" lon="15.058292573806536"><ele>31.333333333333332</ele><time>2026-04-25T14:33:52.999Z</time></trkpt><trkpt lat="40.389188851706145" lon="15.05808258095697"><ele>30.666666666666664</ele><time>2026-04-25T14:33:53.999Z</time></trkpt><trkpt lat="40.38913990853033" lon="15.057868365925819"><ele>30.0</ele><time>2026-04-25T14:33:54.999Z</time></trkpt><trkpt lat="40.38908932584138" lon="15.057648966766548"><ele>29.333333333333336</ele><time>2026-04-25T14:33:55.999Z</time></trkpt><trkpt lat="40.389036090979424" lon="15.057428595188329"><ele>28.666666666666668</ele><time>2026-04-25T14:33:56.999Z</time></trkpt><trkpt lat="40.388983771285744" lon="15.0572049992953"><ele>28.0</ele><time>2026-04-25T14:33:57.999Z</time></trkpt><trkpt lat="40.38893564991992" lon="15.05697663233947"><ele>28.0</ele><time>2026-04-25T14:33:58.999Z</time></trkpt><trkpt lat="40.388886803290646" lon="15.056746447989518"><ele>28.0</ele><time>2026-04-25T14:33:59.999Z</time></trkpt><trkpt lat="40.388830324128456" lon="15.056512614150959"><ele>28.0</ele><time>2026-04-25T14:34:00.999Z</time></trkpt><trkpt lat="40.38877285160407" lon="15.056282792686975"><ele>28.333333333333336</ele><time>2026-04-25T14:34:01.999Z</time></trkpt><trkpt lat="40.38871967214145" lon="15.056048944293357"><ele>28.666666666666664</ele><time>2026-04-25T14:34:02.999Z</time></trkpt><trkpt lat="40.38866488057996" lon="15.055810579783909"><ele>29.0</ele><time>2026-04-25T14:34:03.999Z</time></trkpt><trkpt lat="40.38860824189846" lon="15.055570174081433"><ele>28.666666666666664</ele><time>2026-04-25T14:34:04.999Z</time></trkpt><trkpt lat="40.38855156860532" lon="15.05533246225726"><ele>28.333333333333336</ele><time>2026-04-25T14:34:05.999Z</time></trkpt><trkpt lat="40.38849426905238" lon="15.055101208136099"><ele>28.0</ele><time>2026-04-25T14:34:06.999Z</time></trkpt><trkpt lat="40.388439037086265" lon="15.054870892267466"><ele>28.0</ele><time>2026-04-25T14:34:07.999Z</time></trkpt><trkpt lat="40.38838958924074" lon="15.05464057891894"><ele>28.0</ele><time>2026-04-25T14:34:08.999Z</time></trkpt><trkpt lat="40.38833474224532" lon="15.054403394569505"><ele>28.0</ele><time>2026-04-25T14:34:10Z</time></trkpt><trkpt lat="40.38827598095673" lon="15.054163852627253"><ele>28.0</ele><time>2026-04-25T14:34:11Z</time></trkpt><trkpt lat="40.38821672080192" lon="15.053908323519073"><ele>28.0</ele><time>2026-04-25T14:34:12Z</time></trkpt><trkpt lat="40.3881543856457" lon="15.053637783646852"><ele>28.0</ele><time>2026-04-25T14:34:13Z</time></trkpt><trkpt lat="40.38809114835332" lon="15.05335399244012"><ele>27.0</ele><time>2026-04-25T14:34:14Z</time></trkpt><trkpt lat="40.38802596698824" lon="15.053065519663587"><ele>26.0</ele><time>2026-04-25T14:34:15Z</time></trkpt><trkpt lat="40.38796006104614" lon="15.052783346287747"><ele>26.0</ele><time>2026-04-25T14:34:16Z</time></trkpt><trkpt lat="40.38790173161398" lon="15.052534434561963"><ele>26.0</ele><time>2026-04-25T14:34:17Z</time></trkpt><trkpt lat="40.387843097161266" lon="15.052287297034539"><ele>26.0</ele><time>2026-04-25T14:34:18Z</time></trkpt><trkpt lat="40.38778124964778" lon="15.052031604704748"><ele>26.0</ele><time>2026-04-25T14:34:19Z</time></trkpt><trkpt lat="40.38771820711477" lon="15.051775244441885"><ele>26.0</ele><time>2026-04-25T14:34:20Z</time></trkpt><trkpt lat="40.387658428968805" lon="15.051511370137083"><ele>26.0</ele><time>2026-04-25T14:34:21Z</time></trkpt><trkpt lat="40.38760122574924" lon="15.051239378851978"><ele>26.0</ele><time>2026-04-25T14:34:22Z</time></trkpt><trkpt lat="40.38755234650991" lon="15.050959975176344"><ele>26.0</ele><time>2026-04-25T14:34:23Z</time></trkpt><trkpt lat="40.38751836992918" lon="15.050674322265444"><ele>26.0</ele><time>2026-04-25T14:34:24Z</time></trkpt><trkpt lat="40.387500200161746" lon="15.050377744621814"><ele>26.5</ele><time>2026-04-25T14:34:25Z</time></trkpt><trkpt lat="40.38749457693993" lon="15.050071724438617"><ele>27.0</ele><time>2026-04-25T14:34:26Z</time></trkpt><trkpt lat="40.387496967224806" lon="15.049767551310147"><ele>27.5</ele><time>2026-04-25T14:34:27Z</time></trkpt><trkpt lat="40.387505940840185" lon="15.049473845571312"><ele>28.0</ele><time>2026-04-25T14:34:28Z</time></trkpt><trkpt lat="40.38751715635943" lon="15.049177027727744"><ele>27.0</ele><time>2026-04-25T14:34:29Z</time></trkpt><trkpt lat="40.38752943315776" lon="15.048872542286484"><ele>26.0</ele><time>2026-04-25T14:34:30Z</time></trkpt><trkpt lat="40.38754694854551" lon="15.048550612607448"><ele>24.0</ele><time>2026-04-25T14:34:31Z</time></trkpt><trkpt lat="40.38757375149382" lon="15.048228322532301"><ele>22.0</ele><time>2026-04-25T14:34:32Z</time></trkpt><trkpt lat="40.38760648327214" lon="15.047908298276168"><ele>22.0</ele><time>2026-04-25T14:34:33Z</time></trkpt><trkpt lat="40.38763971943795" lon="15.047601285006472"><ele>22.0</ele><time>2026-04-25T14:34:34Z</time></trkpt><trkpt lat="40.38766962086049" lon="15.04730508295998"><ele>21.5</ele><time>2026-04-25T14:34:35Z</time></trkpt><trkpt lat="40.3876971718524" lon="15.04700582244832"><ele>21.0</ele><time>2026-04-25T14:34:36Z</time></trkpt><trkpt lat="40.38772427719154" lon="15.04670994247873"><ele>21.0</ele><time>2026-04-25T14:34:37Z</time></trkpt><trkpt lat="40.38775280766238" lon="15.046426490327043"><ele>21.0</ele><time>2026-04-25T14:34:38Z</time></trkpt><trkpt lat="40.38778162278851" lon="15.04615282130441"><ele>21.0</ele><time>2026-04-25T14:34:39Z</time></trkpt><trkpt lat="40.38780518960799" lon="15.045880521226245"><ele>21.0</ele><time>2026-04-25T14:34:40Z</time></trkpt><trkpt lat="40.387828848929594" lon="15.045602191612819"><ele>21.0</ele><time>2026-04-25T14:34:41Z</time></trkpt><trkpt lat="40.387857568352686" lon="15.045335143101257"><ele>21.0</ele><time>2026-04-25T14:34:42Z</time></trkpt><trkpt lat="40.38788870137261" lon="15.045069320465466"><ele>20.666666666666668</ele><time>2026-04-25T14:34:43Z</time></trkpt><trkpt lat="40.38791606790635" lon="15.044804699059911"><ele>20.333333333333336</ele><time>2026-04-25T14:34:44Z</time></trkpt><trkpt lat="40.38794139135988" lon="15.04453735538554"><ele>20.0</ele><time>2026-04-25T14:34:45Z</time></trkpt><trkpt lat="40.38796874070509" lon="15.044267790542023"><ele>20.0</ele><time>2026-04-25T14:34:46Z</time></trkpt><trkpt lat="40.3879969496942" lon="15.043996973632257"><ele>20.0</ele><time>2026-04-25T14:34:47Z</time></trkpt><trkpt lat="40.388024341795116" lon="15.043727465766366"><ele>20.0</ele><time>2026-04-25T14:34:48Z</time></trkpt><trkpt lat="40.38805231700654" lon="15.043451994941112"><ele>19.333333333333336</ele><time>2026-04-25T14:34:49Z</time></trkpt><trkpt lat="40.38807902757854" lon="15.043167399897092"><ele>18.666666666666668</ele><time>2026-04-25T14:34:49.999Z</time></trkpt><trkpt lat="40.38810354961373" lon="15.042873619915152"><ele>18.0</ele><time>2026-04-25T14:34:50.999Z</time></trkpt><trkpt lat="40.3881294825827" lon="15.042577785608538"><ele>18.666666666666668</ele><time>2026-04-25T14:34:51.999Z</time></trkpt><trkpt lat="40.388154545885826" lon="15.042289748631736"><ele>19.333333333333336</ele><time>2026-04-25T14:34:52.999Z</time></trkpt><trkpt lat="40.38818159006493" lon="15.0420127185264"><ele>20.0</ele><time>2026-04-25T14:34:53.999Z</time></trkpt><trkpt lat="40.388212860665895" lon="15.041737904514344"><ele>19.666666666666668</ele><time>2026-04-25T14:34:54.999Z</time></trkpt><trkpt lat="40.38824317404756" lon="15.041459175140591"><ele>19.333333333333332</ele><time>2026-04-25T14:34:55.999Z</time></trkpt><trkpt lat="40.3882689423883" lon="15.041174356272986"><ele>19.0</ele><time>2026-04-25T14:34:56.999Z</time></trkpt><trkpt lat="40.38829649176658" lon="15.04089088914581"><ele>19.333333333333332</ele><time>2026-04-25T14:34:57.999Z</time></trkpt><trkpt lat="40.38832401310923" lon="15.040602800166454"><ele>19.666666666666668</ele><time>2026-04-25T14:34:58.999Z</time></trkpt><trkpt lat="40.38835077537761" lon="15.040323132124685"><ele>20.0</ele><time>2026-04-25T14:34:59.999Z</time></trkpt><trkpt lat="40.38838125212014" lon="15.040037148564672"><ele>19.333333333333336</ele><time>2026-04-25T14:35:00.999Z</time></trkpt><trkpt lat="40.388407481265574" lon="15.039751341846896"><ele>18.666666666666668</ele><time>2026-04-25T14:35:01.999Z</time></trkpt><trkpt lat="40.388432732368926" lon="15.039468849406619"><ele>18.0</ele><time>2026-04-25T14:35:02.999Z</time></trkpt><trkpt lat="40.38845888998734" lon="15.0391875315021"><ele>18.333333333333332</ele><time>2026-04-25T14:35:03.999Z</time></trkpt><trkpt lat="40.38848345951155" lon="15.038904013542577"><ele>18.666666666666664</ele><time>2026-04-25T14:35:04.999Z</time></trkpt><trkpt lat="40.38851193339798" lon="15.038620818622546"><ele>19.0</ele><time>2026-04-25T14:35:05.999Z</time></trkpt><trkpt lat="40.38854084659317" lon="15.0383335302324"><ele>18.666666666666664</ele><time>2026-04-25T14:35:06.999Z</time></trkpt><trkpt lat="40.388570023332726" lon="15.03804139969404"><ele>18.333333333333332</ele><time>2026-04-25T14:35:07.999Z</time></trkpt><trkpt lat="40.388597426935455" lon="15.037749214129974"><ele>18.0</ele><time>2026-04-25T14:35:08.999Z</time></trkpt><trkpt lat="40.388621672155594" lon="15.037452664776522"><ele>18.0</ele><time>2026-04-25T14:35:09.999Z</time></trkpt><trkpt lat="40.388648603504585" lon="15.037153675605987"><ele>18.0</ele><time>2026-04-25T14:35:10.999Z</time></trkpt><trkpt lat="40.38868035903901" lon="15.036861545052727"><ele>18.0</ele><time>2026-04-25T14:35:11.999Z</time></trkpt><trkpt lat="40.38871206612201" lon="15.03657165415409"><ele>18.0</ele><time>2026-04-25T14:35:12.999Z</time></trkpt><trkpt lat="40.38874170857398" lon="15.036288348881879"><ele>18.0</ele><time>2026-04-25T14:35:13.999Z</time></trkpt><trkpt lat="40.38876942148202" lon="15.036003586544123"><ele>17.333333333333332</ele><time>2026-04-25T14:35:14.999Z</time></trkpt><trkpt lat="40.38879925661184" lon="15.035716939285317"><ele>16.666666666666664</ele><time>2026-04-25T14:35:15.999Z</time></trkpt><trkpt lat="40.38882852049888" lon="15.035430364508267"><ele>16.0</ele><time>2026-04-25T14:35:16.999Z</time></trkpt><trkpt lat="40.38885465568842" lon="15.035155375952208"><ele>16.0</ele><time>2026-04-25T14:35:17.999Z</time></trkpt><trkpt lat="40.38888059907976" lon="15.034891671324669"><ele>16.0</ele><time>2026-04-25T14:35:18.999Z</time></trkpt><trkpt lat="40.388905981010346" lon="15.034629991521054"><ele>16.0</ele><time>2026-04-25T14:35:19.999Z</time></trkpt><trkpt lat="40.38892945601263" lon="15.034365491714375"><ele>15.333333333333332</ele><time>2026-04-25T14:35:20.999Z</time></trkpt><trkpt lat="40.388952828715986" lon="15.034102808125681"><ele>14.666666666666668</ele><time>2026-04-25T14:35:21.999Z</time></trkpt><trkpt lat="40.38897454424755" lon="15.033836421527432"><ele>14.0</ele><time>2026-04-25T14:35:22.999Z</time></trkpt><trkpt lat="40.38900123003431" lon="15.033565142501251"><ele>13.666666666666668</ele><time>2026-04-25T14:35:23.999Z</time></trkpt><trkpt lat="40.38903342752125" lon="15.033285689419577"><ele>13.333333333333332</ele><time>2026-04-25T14:35:24.999Z</time></trkpt><trkpt lat="40.389063386086995" lon="15.032998393414838"><ele>13.0</ele><time>2026-04-25T14:35:25.999Z</time></trkpt><trkpt lat="40.38909314722889" lon="15.032706094622924"><ele>13.0</ele><time>2026-04-25T14:35:26.999Z</time></trkpt><trkpt lat="40.389122243958084" lon="15.03241979707477"><ele>13.0</ele><time>2026-04-25T14:35:27.999Z</time></trkpt><trkpt lat="40.389147349404794" lon="15.032142678245318"><ele>13.0</ele><time>2026-04-25T14:35:28.999Z</time></trkpt><trkpt lat="40.389173263325155" lon="15.031857161767386"><ele>13.5</ele><time>2026-04-25T14:35:29.999Z</time></trkpt><trkpt lat="40.389198492206695" lon="15.031562850931365"><ele>14.0</ele><time>2026-04-25T14:35:30.999Z</time></trkpt><trkpt lat="40.389229042433804" lon="15.031261681603286"><ele>14.0</ele><time>2026-04-25T14:35:31.999Z</time></trkpt><trkpt lat="40.38926085798913" lon="15.030967504695004"><ele>14.0</ele><time>2026-04-25T14:35:32.999Z</time></trkpt><trkpt lat="40.38928783956439" lon="15.030686120778434"><ele>14.0</ele><time>2026-04-25T14:35:33.999Z</time></trkpt><trkpt lat="40.38931367528877" lon="15.030416465511735"><ele>13.666666666666668</ele><time>2026-04-25T14:35:34.999Z</time></trkpt><trkpt lat="40.38933984646964" lon="15.03016021306664"><ele>13.333333333333332</ele><time>2026-04-25T14:35:35.999Z</time></trkpt><trkpt lat="40.389363658206804" lon="15.02991621232062"><ele>13.0</ele><time>2026-04-25T14:35:36.999Z</time></trkpt><trkpt lat="40.389384314225275" lon="15.02968558192772"><ele>12.666666666666666</ele><time>2026-04-25T14:35:37.999Z</time></trkpt><trkpt lat="40.38940656301895" lon="15.029452850510289"><ele>12.333333333333332</ele><time>2026-04-25T14:35:38.999Z</time></trkpt><trkpt lat="40.38942875888119" lon="15.029220268982542"><ele>12.0</ele><time>2026-04-25T14:35:39.999Z</time></trkpt><trkpt lat="40.3894521135005" lon="15.028988456287"><ele>12.0</ele><time>2026-04-25T14:35:40.999Z</time></trkpt><trkpt lat="40.389476065784386" lon="15.028755884760328"><ele>12.0</ele><time>2026-04-25T14:35:41.999Z</time></trkpt><trkpt lat="40.3894976740114" lon="15.028536936532472"><ele>12.0</ele><time>2026-04-25T14:35:42.999Z</time></trkpt><trkpt lat="40.389518354650114" lon="15.028336952296586"><ele>12.75</ele><time>2026-04-25T14:35:43.999Z</time></trkpt><trkpt lat="40.38953729549085" lon="15.028149861127439"><ele>13.5</ele><time>2026-04-25T14:35:44.999Z</time></trkpt><trkpt lat="40.38955761001664" lon="15.02797295624483"><ele>14.25</ele><time>2026-04-25T14:35:45.999Z</time></trkpt><trkpt lat="40.38957538268532" lon="15.027798977586844"><ele>15.0</ele><time>2026-04-25T14:35:46.999Z</time></trkpt><trkpt lat="40.38959095187246" lon="15.027626436358577"><ele>14.5</ele><time>2026-04-25T14:35:47.999Z</time></trkpt><trkpt lat="40.38960836703662" lon="15.027453920897525"><ele>14.0</ele><time>2026-04-25T14:35:48.999Z</time></trkpt><trkpt lat="40.38962737746981" lon="15.027284325425862"><ele>13.5</ele><time>2026-04-25T14:35:49.999Z</time></trkpt><trkpt lat="40.389646574472934" lon="15.027123256529965"><ele>13.0</ele><time>2026-04-25T14:35:50.999Z</time></trkpt><trkpt lat="40.389660075934344" lon="15.026976634253469"><ele>12.999999999999998</ele><time>2026-04-25T14:35:51.999Z</time></trkpt><trkpt lat="40.389669857717685" lon="15.026839395921488"><ele>13.0</ele><time>2026-04-25T14:35:52.999Z</time></trkpt><trkpt lat="40.3896809724937" lon="15.026712883475076"><ele>13.0</ele><time>2026-04-25T14:35:53.999Z</time></trkpt><trkpt lat="40.38969022724448" lon="15.026599023710482"><ele>13.0</ele><time>2026-04-25T14:35:54.999Z</time></trkpt><trkpt lat="40.38970028445671" lon="15.026495355756971"><ele>12.999999999999998</ele><time>2026-04-25T14:35:55.999Z</time></trkpt><trkpt lat="40.38970997835" lon="15.026406818404658"><ele>13.0</ele><time>2026-04-25T14:35:56.999Z</time></trkpt><trkpt lat="40.38972640212509" lon="15.026295448606001"><ele>12.8</ele><time>2026-04-25T14:35:58.999Z</time></trkpt><trkpt lat="40.389723198385475" lon="15.026209169583137"><ele>12.600000000000001</ele><time>2026-04-25T14:36:02.999Z</time></trkpt><trkpt lat="40.38967868390947" lon="15.026142667502384"><ele>12.399999999999999</ele><time>2026-04-25T14:36:04.999Z</time></trkpt><trkpt lat="40.389534232170256" lon="15.026229599701995"><ele>12.2</ele><time>2026-04-25T14:36:06.999Z</time></trkpt><trkpt lat="40.389458083893835" lon="15.026290312649982"><ele>12.0</ele><time>2026-04-25T14:36:07.999Z</time></trkpt><trkpt lat="40.38934298669151" lon="15.026342226924148"><ele>12.25</ele><time>2026-04-25T14:36:08.999Z</time></trkpt><trkpt lat="40.389239563118196" lon="15.02643736742652"><ele>12.5</ele><time>2026-04-25T14:36:09.999Z</time></trkpt><trkpt lat="40.38910667473168" lon="15.026506167979278"><ele>12.75</ele><time>2026-04-25T14:36:10.999Z</time></trkpt><trkpt lat="40.388987646826166" lon="15.026588820086877"><ele>13.0</ele><time>2026-04-25T14:36:11.999Z</time></trkpt><trkpt lat="40.388868280323265" lon="15.026671605096212"><ele>13.25</ele><time>2026-04-25T14:36:12.999Z</time></trkpt><trkpt lat="40.38875938916947" lon="15.026760520947393"><ele>13.5</ele><time>2026-04-25T14:36:13.999Z</time></trkpt><trkpt lat="40.38863665308287" lon="15.026817990550665"><ele>13.75</ele><time>2026-04-25T14:36:14.999Z</time></trkpt><trkpt lat="40.38849436085136" lon="15.026868695160296"><ele>14.0</ele><time>2026-04-25T14:36:16Z</time></trkpt><trkpt lat="40.38833899095905" lon="15.02691438217404"><ele>14.0</ele><time>2026-04-25T14:36:17Z</time></trkpt><trkpt lat="40.38816471352779" lon="15.026946031533738"><ele>14.0</ele><time>2026-04-25T14:36:18Z</time></trkpt><trkpt lat="40.38797708066975" lon="15.02696793014974"><ele>14.0</ele><time>2026-04-25T14:36:19Z</time></trkpt><trkpt lat="40.387793210290205" lon="15.026991917751356"><ele>14.0</ele><time>2026-04-25T14:36:20Z</time></trkpt><trkpt lat="40.38760513962284" lon="15.027017132721188"><ele>14.0</ele><time>2026-04-25T14:36:21Z</time></trkpt><trkpt lat="40.387429597942884" lon="15.02703838658221"><ele>14.0</ele><time>2026-04-25T14:36:22Z</time></trkpt><trkpt lat="40.387265507627426" lon="15.027056917582545"><ele>13.666666666666668</ele><time>2026-04-25T14:36:23Z</time></trkpt><trkpt lat="40.38710188134937" lon="15.027074761632003"><ele>13.333333333333332</ele><time>2026-04-25T14:36:24Z</time></trkpt><trkpt lat="40.38693772571585" lon="15.02709556039173"><ele>13.0</ele><time>2026-04-25T14:36:25Z</time></trkpt><trkpt lat="40.38676973984575" lon="15.027120004067607"><ele>13.0</ele><time>2026-04-25T14:36:26Z</time></trkpt><trkpt lat="40.38660000726275" lon="15.027151003311731"><ele>13.0</ele><time>2026-04-25T14:36:27Z</time></trkpt><trkpt lat="40.38641346894007" lon="15.027181109475928"><ele>13.0</ele><time>2026-04-25T14:36:28Z</time></trkpt><trkpt lat="40.386223817805416" lon="15.027203865056098"><ele>13.0</ele><time>2026-04-25T14:36:29Z</time></trkpt><trkpt lat="40.38605382714908" lon="15.027221476044968"><ele>13.0</ele><time>2026-04-25T14:36:30Z</time></trkpt><trkpt lat="40.38589610096429" lon="15.027237364690405"><ele>13.0</ele><time>2026-04-25T14:36:31Z</time></trkpt><trkpt lat="40.38573781118151" lon="15.02725157303706"><ele>13.0</ele><time>2026-04-25T14:36:32Z</time></trkpt><trkpt lat="40.38558912835582" lon="15.027256855147886"><ele>13.0</ele><time>2026-04-25T14:36:33Z</time></trkpt><trkpt lat="40.385466629926604" lon="15.027248526290094"><ele>13.0</ele><time>2026-04-25T14:36:34Z</time></trkpt><trkpt lat="40.38535099896068" lon="15.027233066973773"><ele>13.0</ele><time>2026-04-25T14:36:35Z</time></trkpt><trkpt lat="40.385246945463045" lon="15.0271936457731"><ele>13.333333333333332</ele><time>2026-04-25T14:36:36Z</time></trkpt><trkpt lat="40.38516016071422" lon="15.027120058311917"><ele>13.666666666666666</ele><time>2026-04-25T14:36:37Z</time></trkpt><trkpt lat="40.385085736614336" lon="15.02703476243441"><ele>14.0</ele><time>2026-04-25T14:36:38Z</time></trkpt><trkpt lat="40.38502038214489" lon="15.026996637672418"><ele>14.333333333333332</ele><time>2026-04-25T14:36:39Z</time></trkpt><trkpt lat="40.384948295253864" lon="15.027010453400903"><ele>14.666666666666666</ele><time>2026-04-25T14:36:40Z</time></trkpt><trkpt lat="40.38487397983509" lon="15.027077280942088"><ele>15.0</ele><time>2026-04-25T14:36:41Z</time></trkpt><trkpt lat="40.384801512029505" lon="15.027183102659645"><ele>15.0</ele><time>2026-04-25T14:36:42Z</time></trkpt><trkpt lat="40.38471625446108" lon="15.027291737220619"><ele>15.0</ele><time>2026-04-25T14:36:43Z</time></trkpt><trkpt lat="40.38460837303358" lon="15.02737026065084"><ele>15.0</ele><time>2026-04-25T14:36:44Z</time></trkpt><trkpt lat="40.38448181787366" lon="15.027415056398148"><ele>15.0</ele><time>2026-04-25T14:36:45Z</time></trkpt><trkpt lat="40.38434211510086" lon="15.027437710858344"><ele>15.666666666666668</ele><time>2026-04-25T14:36:46Z</time></trkpt><trkpt lat="40.38419666225578" lon="15.02744823854682"><ele>16.333333333333336</ele><time>2026-04-25T14:36:47Z</time></trkpt><trkpt lat="40.38404738789558" lon="15.027461998643293"><ele>17.0</ele><time>2026-04-25T14:36:48Z</time></trkpt><trkpt lat="40.38389360243033" lon="15.027480351317903"><ele>17.333333333333336</ele><time>2026-04-25T14:36:49Z</time></trkpt><trkpt lat="40.38373436341545" lon="15.027504016046636"><ele>17.666666666666668</ele><time>2026-04-25T14:36:50Z</time></trkpt><trkpt lat="40.3835713383818" lon="15.02752886916861"><ele>18.0</ele><time>2026-04-25T14:36:51Z</time></trkpt><trkpt lat="40.38340011092362" lon="15.027549246390338"><ele>18.0</ele><time>2026-04-25T14:36:52Z</time></trkpt><trkpt lat="40.38320731285397" lon="15.02757565506172"><ele>18.0</ele><time>2026-04-25T14:36:53Z</time></trkpt><trkpt lat="40.38300510749507" lon="15.027605867042551"><ele>18.0</ele><time>2026-04-25T14:36:54Z</time></trkpt><trkpt lat="40.38282702854886" lon="15.027614191142924"><ele>18.75</ele><time>2026-04-25T14:36:55Z</time></trkpt><trkpt lat="40.38268495700241" lon="15.027632500483643"><ele>19.5</ele><time>2026-04-25T14:36:55.999Z</time></trkpt><trkpt lat="40.38255393865123" lon="15.02764938535566"><ele>20.25</ele><time>2026-04-25T14:36:56.999Z</time></trkpt><trkpt lat="40.38241654019297" lon="15.027667092456406"><ele>21.0</ele><time>2026-04-25T14:36:57.999Z</time></trkpt><trkpt lat="40.38226059627672" lon="15.027687189572308"><ele>21.333333333333332</ele><time>2026-04-25T14:36:58.999Z</time></trkpt><trkpt lat="40.38208973560732" lon="15.027730446453745"><ele>21.666666666666664</ele><time>2026-04-25T14:36:59.999Z</time></trkpt><trkpt lat="40.381910195203986" lon="15.027750360497079"><ele>22.0</ele><time>2026-04-25T14:37:00.999Z</time></trkpt><trkpt lat="40.381731416052524" lon="15.027773192689908"><ele>22.0</ele><time>2026-04-25T14:37:01.999Z</time></trkpt><trkpt lat="40.38155532836133" lon="15.027794516593817"><ele>22.0</ele><time>2026-04-25T14:37:02.999Z</time></trkpt><trkpt lat="40.38138203841583" lon="15.027819186502978"><ele>22.0</ele><time>2026-04-25T14:37:03.999Z</time></trkpt><trkpt lat="40.381207335274475" lon="15.027837603666654"><ele>23.333333333333332</ele><time>2026-04-25T14:37:04.999Z</time></trkpt><trkpt lat="40.381030613283905" lon="15.02786218519475"><ele>24.666666666666664</ele><time>2026-04-25T14:37:05.999Z</time></trkpt><trkpt lat="40.38086092025092" lon="15.027875034252746"><ele>26.0</ele><time>2026-04-25T14:37:06.999Z</time></trkpt><trkpt lat="40.380686809906514" lon="15.027892864637707"><ele>27.0</ele><time>2026-04-25T14:37:07.999Z</time></trkpt><trkpt lat="40.38050793943326" lon="15.027910426546693"><ele>28.0</ele><time>2026-04-25T14:37:08.999Z</time></trkpt><trkpt lat="40.38032841406577" lon="15.027920943305007"><ele>29.0</ele><time>2026-04-25T14:37:09.999Z</time></trkpt><trkpt lat="40.380150365571936" lon="15.027918019666396"><ele>29.0</ele><time>2026-04-25T14:37:10.999Z</time></trkpt><trkpt lat="40.37997738933109" lon="15.027901650294297"><ele>29.0</ele><time>2026-04-25T14:37:11.999Z</time></trkpt><trkpt lat="40.37980385232301" lon="15.027875027569602"><ele>29.0</ele><time>2026-04-25T14:37:12.999Z</time></trkpt><trkpt lat="40.379629535149775" lon="15.027834285482738"><ele>30.666666666666664</ele><time>2026-04-25T14:37:13.999Z</time></trkpt><trkpt lat="40.37945588100779" lon="15.02777252193848"><ele>32.333333333333336</ele><time>2026-04-25T14:37:14.999Z</time></trkpt><trkpt lat="40.3792863215054" lon="15.027695637345873"><ele>34.0</ele><time>2026-04-25T14:37:15.999Z</time></trkpt><trkpt lat="40.37912033491631" lon="15.027614429637099"><ele>34.0</ele><time>2026-04-25T14:37:16.999Z</time></trkpt><trkpt lat="40.37896550574712" lon="15.027527503542347"><ele>34.0</ele><time>2026-04-25T14:37:17.999Z</time></trkpt><trkpt lat="40.378815429844586" lon="15.027420840405414"><ele>34.0</ele><time>2026-04-25T14:37:18.999Z</time></trkpt><trkpt lat="40.37866656444956" lon="15.027289298919257"><ele>34.66666666666667</ele><time>2026-04-25T14:37:19.999Z</time></trkpt><trkpt lat="40.378530882827945" lon="15.027143983773744"><ele>35.333333333333336</ele><time>2026-04-25T14:37:20.999Z</time></trkpt><trkpt lat="40.37840024810461" lon="15.027008832914607"><ele>36.0</ele><time>2026-04-25T14:37:21.999Z</time></trkpt><trkpt lat="40.37827289189592" lon="15.02689124995589"><ele>36.0</ele><time>2026-04-25T14:37:22.999Z</time></trkpt><trkpt lat="40.37815292532756" lon="15.02678716592446"><ele>36.0</ele><time>2026-04-25T14:37:23.999Z</time></trkpt><trkpt lat="40.378040201000516" lon="15.026708682173249"><ele>36.0</ele><time>2026-04-25T14:37:24.999Z</time></trkpt><trkpt lat="40.377946844099284" lon="15.02666488085964"><ele>36.0</ele><time>2026-04-25T14:37:25.999Z</time></trkpt><trkpt lat="40.37786974314633" lon="15.026648773927624"><ele>36.0</ele><time>2026-04-25T14:37:26.999Z</time></trkpt><trkpt lat="40.37780115615315" lon="15.026664814496185"><ele>37.333333333333336</ele><time>2026-04-25T14:37:27.999Z</time></trkpt><trkpt lat="40.37773752301272" lon="15.026675008931585"><ele>38.666666666666664</ele><time>2026-04-25T14:37:28.999Z</time></trkpt><trkpt lat="40.37766096315629" lon="15.026715239253562"><ele>40.0</ele><time>2026-04-25T14:37:30.999Z</time></trkpt><trkpt lat="40.377593993839255" lon="15.026653019969373"><ele>41.33333333333333</ele><time>2026-04-25T14:37:31.999Z</time></trkpt><trkpt lat="40.37750952679833" lon="15.026581195088"><ele>42.666666666666664</ele><time>2026-04-25T14:37:32.999Z</time></trkpt><trkpt lat="40.37743856780661" lon="15.02649663272453"><ele>44.0</ele><time>2026-04-25T14:37:33.999Z</time></trkpt><trkpt lat="40.37738136631098" lon="15.02640697860134"><ele>44.0</ele><time>2026-04-25T14:37:34.999Z</time></trkpt><trkpt lat="40.377334266337954" lon="15.026307038765914"><ele>44.0</ele><time>2026-04-25T14:37:36.999Z</time></trkpt><trkpt lat="40.37727572679379" lon="15.026253821573519"><ele>44.0</ele><time>2026-04-25T14:37:41.999Z</time></trkpt><trkpt lat="40.377370691273704" lon="15.026053738532253"><ele>44.0</ele><time>2026-04-25T14:37:44.999Z</time></trkpt><trkpt lat="40.37738708556855" lon="15.025957856715147"><ele>44.0</ele><time>2026-04-25T14:37:46.999Z</time></trkpt><trkpt lat="40.377418357438444" lon="15.025842674130406"><ele>43.6</ele><time>2026-04-25T14:37:49.999Z</time></trkpt><trkpt lat="40.377445391436844" lon="15.025705927125236"><ele>43.2</ele><time>2026-04-25T14:37:51.999Z</time></trkpt><trkpt lat="40.3774418684381" lon="15.02559655301214"><ele>42.800000000000004</ele><time>2026-04-25T14:37:53.999Z</time></trkpt><trkpt lat="40.377467530070284" lon="15.02546222153964"><ele>42.400000000000006</ele><time>2026-04-25T14:37:55.999Z</time></trkpt><trkpt lat="40.3774914429808" lon="15.025367362554963"><ele>42.0</ele><time>2026-04-25T14:37:56.999Z</time></trkpt><trkpt lat="40.377568475474085" lon="15.025237070327169"><ele>42.0</ele><time>2026-04-25T14:37:58.999Z</time></trkpt><trkpt lat="40.3776482833462" lon="15.025172695565859"><ele>42.0</ele><time>2026-04-25T14:37:59.999Z</time></trkpt><trkpt lat="40.37774141076188" lon="15.025066024512848"><ele>42.0</ele><time>2026-04-25T14:38:00.999Z</time></trkpt><trkpt lat="40.37782792848623" lon="15.024984263264903"><ele>42.0</ele><time>2026-04-25T14:38:01.999Z</time></trkpt><trkpt lat="40.377919860235906" lon="15.024917013968834"><ele>42.0</ele><time>2026-04-25T14:38:02.999Z</time></trkpt><trkpt lat="40.378014847128554" lon="15.024826568976474"><ele>41.0</ele><time>2026-04-25T14:38:03.999Z</time></trkpt><trkpt lat="40.37810018283512" lon="15.02474696286612"><ele>40.0</ele><time>2026-04-25T14:38:04.999Z</time></trkpt><trkpt lat="40.37816290359526" lon="15.0246869880317"><ele>39.0</ele><time>2026-04-25T14:38:05.999Z</time></trkpt><trkpt lat="40.37823040459051" lon="15.024604031414409"><ele>38.0</ele><time>2026-04-25T14:38:07.999Z</time></trkpt><trkpt lat="40.37845611470648" lon="15.024611799824283"><ele>38.0</ele><time>2026-04-25T14:38:09.999Z</time></trkpt><trkpt lat="40.37843045345748" lon="15.024533375400305"><ele>38.0</ele><time>2026-04-25T14:38:10.999Z</time></trkpt><trkpt lat="40.37851168066029" lon="15.024414854988828"><ele>38.0</ele><time>2026-04-25T14:38:11.999Z</time></trkpt><trkpt lat="40.37855242865552" lon="15.0243073049923"><ele>38.0</ele><time>2026-04-25T14:38:12.999Z</time></trkpt><trkpt lat="40.37860956292928" lon="15.023908438798976"><ele>38.199999999999996</ele><time>2026-04-25T14:38:15.999Z</time></trkpt><trkpt lat="40.378683565544996" lon="15.02379146439774"><ele>38.4</ele><time>2026-04-25T14:38:16.999Z</time></trkpt><trkpt lat="40.37876371442826" lon="15.023668389317466"><ele>38.599999999999994</ele><time>2026-04-25T14:38:17.999Z</time></trkpt><trkpt lat="40.37882623391088" lon="15.023565002546684"><ele>38.8</ele><time>2026-04-25T14:38:18.999Z</time></trkpt><trkpt lat="40.3788739908493" lon="15.023482562508079"><ele>39.0</ele><time>2026-04-25T14:38:19.999Z</time></trkpt><trkpt lat="40.37891952348044" lon="15.023405307886982"><ele>38.666666666666664</ele><time>2026-04-25T14:38:21Z</time></trkpt><trkpt lat="40.378986499555786" lon="15.023291866973665"><ele>38.333333333333336</ele><time>2026-04-25T14:38:23Z</time></trkpt><trkpt lat="40.37903651856852" lon="15.02322809178522"><ele>38.0</ele><time>2026-04-25T14:38:31Z</time></trkpt><trkpt lat="40.379118042451395" lon="15.02319710097478"><ele>37.66666666666667</ele><time>2026-04-25T14:38:33Z</time></trkpt><trkpt lat="40.37918025279374" lon="15.023179351348018"><ele>37.333333333333336</ele><time>2026-04-25T14:38:34Z</time></trkpt><trkpt lat="40.37923645881396" lon="15.023135752382629"><ele>37.0</ele><time>2026-04-25T14:38:35Z</time></trkpt><trkpt lat="40.37930695593339" lon="15.02308223905691"><ele>37.0</ele><time>2026-04-25T14:38:36Z</time></trkpt><trkpt lat="40.37939389675705" lon="15.022982031826256"><ele>37.0</ele><time>2026-04-25T14:38:37Z</time></trkpt><trkpt lat="40.379479285597405" lon="15.022877442404695"><ele>37.0</ele><time>2026-04-25T14:38:38Z</time></trkpt><trkpt lat="40.379540489907306" lon="15.022780079985955"><ele>37.0</ele><time>2026-04-25T14:38:39Z</time></trkpt><trkpt lat="40.379573800791675" lon="15.022656871924397"><ele>37.0</ele><time>2026-04-25T14:38:40Z</time></trkpt><trkpt lat="40.37961477985107" lon="15.022536033839069"><ele>37.8</ele><time>2026-04-25T14:38:41Z</time></trkpt><trkpt lat="40.37968014960185" lon="15.022389050450888"><ele>38.6</ele><time>2026-04-25T14:38:42Z</time></trkpt><trkpt lat="40.3797109242707" lon="15.022244388945518"><ele>39.4</ele><time>2026-04-25T14:38:43Z</time></trkpt><trkpt lat="40.37976777619525" lon="15.022147128185823"><ele>40.199999999999996</ele><time>2026-04-25T14:38:44Z</time></trkpt><trkpt lat="40.37985093637418" lon="15.022078482364979"><ele>41.0</ele><time>2026-04-25T14:38:46Z</time></trkpt><trkpt lat="40.37995682576435" lon="15.021971605245582"><ele>41.0</ele><time>2026-04-25T14:38:48Z</time></trkpt><trkpt lat="40.38001215569735" lon="15.021913770350515"><ele>41.0</ele><time>2026-04-25T14:38:49Z</time></trkpt><trkpt lat="40.3800708879383" lon="15.021853224459491"><ele>41.0</ele><time>2026-04-25T14:38:50Z</time></trkpt><trkpt lat="40.38012743195537" lon="15.021795606596438"><ele>41.0</ele><time>2026-04-25T14:38:51Z</time></trkpt><trkpt lat="40.38022275837764" lon="15.021697280939204"><ele>41.0</ele><time>2026-04-25T14:38:53Z</time></trkpt><trkpt lat="40.38028721950128" lon="15.021629103514567"><ele>41.0</ele><time>2026-04-25T14:38:55Z</time></trkpt><trkpt lat="40.38033622657716" lon="15.021575335327315"><ele>41.0</ele><time>2026-04-25T14:38:56Z</time></trkpt><trkpt lat="40.38038580834431" lon="15.021494698381062"><ele>41.0</ele><time>2026-04-25T14:38:56.999Z</time></trkpt><trkpt lat="40.38046527718455" lon="15.021427420458112"><ele>41.0</ele><time>2026-04-25T14:38:58.999Z</time></trkpt><trkpt lat="40.38037030541784" lon="15.021537086133593"><ele>41.0</ele><time>2026-04-25T14:39:06.999Z</time></trkpt><trkpt lat="40.38027863145971" lon="15.021629019817064"><ele>41.0</ele><time>2026-04-25T14:39:07.999Z</time></trkpt><trkpt lat="40.38017669313643" lon="15.021726052002862"><ele>41.0</ele><time>2026-04-25T14:39:08.999Z</time></trkpt><trkpt lat="40.38007933999789" lon="15.021816298247755"><ele>41.0</ele><time>2026-04-25T14:39:09.999Z</time></trkpt><trkpt lat="40.379987864680515" lon="15.021905646244873"><ele>41.0</ele><time>2026-04-25T14:39:10.999Z</time></trkpt><trkpt lat="40.37989697248361" lon="15.02199680718661"><ele>41.0</ele><time>2026-04-25T14:39:11.999Z</time></trkpt><trkpt lat="40.379824156937396" lon="15.022075579125797"><ele>41.0</ele><time>2026-04-25T14:39:12.999Z</time></trkpt><trkpt lat="40.379766747866206" lon="15.022144294223901"><ele>41.0</ele><time>2026-04-25T14:39:13.999Z</time></trkpt><trkpt lat="40.37972149208395" lon="15.022222377216297"><ele>41.0</ele><time>2026-04-25T14:39:14.999Z</time></trkpt><trkpt lat="40.37967757159094" lon="15.022339058738481"><ele>41.0</ele><time>2026-04-25T14:39:15.999Z</time></trkpt><trkpt lat="40.379631088830195" lon="15.02248920186621"><ele>41.0</ele><time>2026-04-25T14:39:16.999Z</time></trkpt><trkpt lat="40.37958381523926" lon="15.022626897373202"><ele>41.0</ele><time>2026-04-25T14:39:17.999Z</time></trkpt><trkpt lat="40.379539238564334" lon="15.022733793995448"><ele>40.33333333333333</ele><time>2026-04-25T14:39:18.999Z</time></trkpt><trkpt lat="40.37949438373717" lon="15.022823993052445"><ele>39.666666666666664</ele><time>2026-04-25T14:39:19.999Z</time></trkpt><trkpt lat="40.379413141922804" lon="15.022903691837376"><ele>39.0</ele><time>2026-04-25T14:39:20.999Z</time></trkpt><trkpt lat="40.37934049005153" lon="15.02300187308471"><ele>38.333333333333336</ele><time>2026-04-25T14:39:21.999Z</time></trkpt><trkpt lat="40.379288752516125" lon="15.02309100105477"><ele>37.66666666666667</ele><time>2026-04-25T14:39:22.999Z</time></trkpt><trkpt lat="40.37922765633034" lon="15.023146410803612"><ele>37.0</ele><time>2026-04-25T14:39:23.999Z</time></trkpt><trkpt lat="40.37916866164938" lon="15.023190412857575"><ele>37.0</ele><time>2026-04-25T14:39:24.999Z</time></trkpt><trkpt lat="40.3790862405971" lon="15.02322731135328"><ele>37.0</ele><time>2026-04-25T14:39:26.999Z</time></trkpt><trkpt lat="40.37899916789951" lon="15.023255508135078"><ele>37.0</ele><time>2026-04-25T14:39:31.999Z</time></trkpt><trkpt lat="40.37891308544746" lon="15.023285439661368"><ele>37.0</ele><time>2026-04-25T14:39:34.999Z</time></trkpt><trkpt lat="40.37885929391767" lon="15.023165016194444"><ele>37.0</ele><time>2026-04-25T14:39:36.999Z</time></trkpt><trkpt lat="40.378799965448565" lon="15.023133516559136"><ele>37.0</ele><time>2026-04-25T14:39:37.999Z</time></trkpt><trkpt lat="40.378740093146185" lon="15.023097499973511"><ele>37.8</ele><time>2026-04-25T14:39:38.999Z</time></trkpt><trkpt lat="40.37862794944749" lon="15.023015371675573"><ele>38.6</ele><time>2026-04-25T14:39:40.999Z</time></trkpt><trkpt lat="40.37859853459466" lon="15.022931753032667"><ele>39.4</ele><time>2026-04-25T14:39:42.999Z</time></trkpt><trkpt lat="40.37856969887273" lon="15.022800336800257"><ele>40.199999999999996</ele><time>2026-04-25T14:39:45.999Z</time></trkpt><trkpt lat="40.378504100024195" lon="15.022642526112207"><ele>41.0</ele><time>2026-04-25T14:39:47.999Z</time></trkpt><trkpt lat="40.3784296144726" lon="15.022533590423524"><ele>41.599999999999994</ele><time>2026-04-25T14:39:49.999Z</time></trkpt><trkpt lat="40.37838424797451" lon="15.022472205410853"><ele>42.2</ele><time>2026-04-25T14:39:50.999Z</time></trkpt><trkpt lat="40.378283008075" lon="15.022364788484843"><ele>42.8</ele><time>2026-04-25T14:39:52.999Z</time></trkpt><trkpt lat="40.37821374766368" lon="15.022295023247242"><ele>43.400000000000006</ele><time>2026-04-25T14:39:53.999Z</time></trkpt><trkpt lat="40.3781812580207" lon="15.02221217855596"><ele>44.0</ele><time>2026-04-25T14:39:54.999Z</time></trkpt><trkpt lat="40.377720884342274" lon="15.022505080693428"><ele>45.0</ele><time>2026-04-25T14:39:55.999Z</time></trkpt><trkpt lat="40.37764033501988" lon="15.02246156276622"><ele>46.0</ele><time>2026-04-25T14:39:56.999Z</time></trkpt><trkpt lat="40.377546513581244" lon="15.022391805217707"><ele>47.0</ele><time>2026-04-25T14:39:57.999Z</time></trkpt><trkpt lat="40.37744996222515" lon="15.0223323152799"><ele>48.0</ele><time>2026-04-25T14:39:58.999Z</time></trkpt><trkpt lat="40.37736308506851" lon="15.022304664266821"><ele>49.0</ele><time>2026-04-25T14:39:59.999Z</time></trkpt><trkpt lat="40.377279837629324" lon="15.022288553118482"><ele>48.99999999999999</ele><time>2026-04-25T14:40:00.999Z</time></trkpt><trkpt lat="40.37721456282572" lon="15.022279838839015"><ele>49.0</ele><time>2026-04-25T14:40:01.999Z</time></trkpt><trkpt lat="40.37710640239395" lon="15.022282453591982"><ele>49.0</ele><time>2026-04-25T14:40:03.999Z</time></trkpt><trkpt lat="40.37698378959022" lon="15.022225617786836"><ele>49.0</ele><time>2026-04-25T14:40:05.999Z</time></trkpt><trkpt lat="40.37692269874777" lon="15.022175430654448"><ele>48.99999999999999</ele><time>2026-04-25T14:40:06.999Z</time></trkpt><trkpt lat="40.37686407194609" lon="15.022132756521609"><ele>49.0</ele><time>2026-04-25T14:40:07.999Z</time></trkpt><trkpt lat="40.376789938203224" lon="15.022118832626518"><ele>50.800000000000004</ele><time>2026-04-25T14:40:09.999Z</time></trkpt><trkpt lat="40.37671672883454" lon="15.022088131091284"><ele>52.6</ele><time>2026-04-25T14:40:13.999Z</time></trkpt><trkpt lat="40.376640535884476" lon="15.022109065855698"><ele>54.4</ele><time>2026-04-25T14:40:15.999Z</time></trkpt><trkpt lat="40.37654836783852" lon="15.022083412230474"><ele>56.2</ele><time>2026-04-25T14:40:17.999Z</time></trkpt><trkpt lat="40.376422753762306" lon="15.02204973097705"><ele>58.0</ele><time>2026-04-25T14:40:19.999Z</time></trkpt><trkpt lat="40.376337305745416" lon="15.022056023401806"><ele>59.599999999999994</ele><time>2026-04-25T14:40:20.999Z</time></trkpt><trkpt lat="40.37624498632262" lon="15.022068044903383"><ele>61.199999999999996</ele><time>2026-04-25T14:40:21.999Z</time></trkpt><trkpt lat="40.37615298079653" lon="15.022078604876237"><ele>62.8</ele><time>2026-04-25T14:40:22.999Z</time></trkpt><trkpt lat="40.37606324293964" lon="15.02208793562689"><ele>64.39999999999999</ele><time>2026-04-25T14:40:23.999Z</time></trkpt><trkpt lat="40.37597265595647" lon="15.022101090925338"><ele>66.0</ele><time>2026-04-25T14:40:24.999Z</time></trkpt><trkpt lat="40.37587456244855" lon="15.022114396515711"><ele>66.0</ele><time>2026-04-25T14:40:25.998Z</time></trkpt><trkpt lat="40.37577863628634" lon="15.0221286410043"><ele>66.0</ele><time>2026-04-25T14:40:27Z</time></trkpt><trkpt lat="40.37567719231718" lon="15.022136545588179"><ele>66.0</ele><time>2026-04-25T14:40:28Z</time></trkpt><trkpt lat="40.37560095606856" lon="15.022143356238566"><ele>66.0</ele><time>2026-04-25T14:40:29Z</time></trkpt><trkpt lat="40.37553391481241" lon="15.02214465125451"><ele>66.0</ele><time>2026-04-25T14:40:30Z</time></trkpt><trkpt lat="40.37546117216461" lon="15.022136656721296"><ele>66.0</ele><time>2026-04-25T14:40:31Z</time></trkpt><trkpt lat="40.37538194214386" lon="15.022132797750524"><ele>67.33333333333333</ele><time>2026-04-25T14:40:32Z</time></trkpt><trkpt lat="40.37531662941596" lon="15.022140017351328"><ele>68.66666666666667</ele><time>2026-04-25T14:40:33Z</time></trkpt><trkpt lat="40.37521159007417" lon="15.022240892525172"><ele>70.0</ele><time>2026-04-25T14:40:35Z</time></trkpt><trkpt lat="40.37515932838252" lon="15.022307242217753"><ele>71.33333333333334</ele><time>2026-04-25T14:40:36Z</time></trkpt><trkpt lat="40.37510093200779" lon="15.022347850180994"><ele>72.66666666666667</ele><time>2026-04-25T14:40:37Z</time></trkpt><trkpt lat="40.37502671834984" lon="15.02237516972135"><ele>74.0</ele><time>2026-04-25T14:40:38Z</time></trkpt><trkpt lat="40.374953633200825" lon="15.022401764786828"><ele>74.0</ele><time>2026-04-25T14:40:39Z</time></trkpt><trkpt lat="40.37487600130214" lon="15.0224478958487"><ele>74.0</ele><time>2026-04-25T14:40:41Z</time></trkpt><trkpt lat="40.37481632987216" lon="15.022495745394265"><ele>74.0</ele><time>2026-04-25T14:40:48Z</time></trkpt><trkpt lat="40.37471926338914" lon="15.022532428871575"><ele>74.0</ele><time>2026-04-25T14:40:51Z</time></trkpt><trkpt lat="40.374657728433235" lon="15.022563925677156"><ele>74.0</ele><time>2026-04-25T14:40:52Z</time></trkpt><trkpt lat="40.37459402449034" lon="15.022598381506471"><ele>74.0</ele><time>2026-04-25T14:40:53Z</time></trkpt><trkpt lat="40.37452618027603" lon="15.022650064313993"><ele>76.16666666666667</ele><time>2026-04-25T14:40:55Z</time></trkpt><trkpt lat="40.37445069007618" lon="15.022596958406583"><ele>78.33333333333334</ele><time>2026-04-25T14:40:58Z</time></trkpt><trkpt lat="40.374379175570034" lon="15.022631022148635"><ele>80.5</ele><time>2026-04-25T14:41:01Z</time></trkpt><trkpt lat="40.37430364533765" lon="15.022684122685193"><ele>82.66666666666667</ele><time>2026-04-25T14:41:03Z</time></trkpt><trkpt lat="40.37422783587068" lon="15.022718839444002"><ele>84.83333333333333</ele><time>2026-04-25T14:41:04.999Z</time></trkpt><trkpt lat="40.37411199111388" lon="15.022766740180556"><ele>87.0</ele><time>2026-04-25T14:41:07.999Z</time></trkpt><trkpt lat="40.37404058504721" lon="15.022804697812296"><ele>87.0</ele><time>2026-04-25T14:41:08.999Z</time></trkpt><trkpt lat="40.373976197612684" lon="15.022845304499967"><ele>87.0</ele><time>2026-04-25T14:41:10.999Z</time></trkpt><trkpt lat="40.37388856530158" lon="15.022859524325124"><ele>87.0</ele><time>2026-04-25T14:41:26.999Z</time></trkpt><trkpt lat="40.373798179417086" lon="15.022803408824064"><ele>87.0</ele><time>2026-04-25T14:41:28.999Z</time></trkpt><trkpt lat="40.37374875747177" lon="15.022653278505711"><ele>87.0</ele><time>2026-04-25T14:41:30.999Z</time></trkpt><trkpt lat="40.3736594939926" lon="15.022633342105669"><ele>90.28571428571428</ele><time>2026-04-25T14:41:34.999Z</time></trkpt><trkpt lat="40.37358412566691" lon="15.022616873130803"><ele>93.57142857142857</ele><time>2026-04-25T14:41:40.999Z</time></trkpt><trkpt lat="40.37357061439371" lon="15.022536046368197"><ele>96.85714285714286</ele><time>2026-04-25T14:41:43.999Z</time></trkpt><trkpt lat="40.373520842774255" lon="15.02246017806133"><ele>100.14285714285714</ele><time>2026-04-25T14:41:45.999Z</time></trkpt><trkpt lat="40.37345821577982" lon="15.022412421833957"><ele>103.42857142857143</ele><time>2026-04-25T14:41:47.999Z</time></trkpt><trkpt lat="40.373393847794425" lon="15.022415041871769"><ele>106.71428571428571</ele><time>2026-04-25T14:41:50.999Z</time></trkpt><trkpt lat="40.37332528456247" lon="15.022467747016703"><ele>110.0</ele><time>2026-04-25T14:41:54.999Z</time></trkpt><trkpt lat="40.37322983518485" lon="15.022601718689575"><ele>110.0</ele><time>2026-04-25T14:41:56.999Z</time></trkpt><trkpt lat="40.37317074861144" lon="15.022699872592735"><ele>110.0</ele><time>2026-04-25T14:41:58.999Z</time></trkpt><trkpt lat="40.37315209350109" lon="15.022837532524969"><ele>110.0</ele><time>2026-04-25T14:42:01.999Z</time></trkpt><trkpt lat="40.37310073413246" lon="15.02293213384939"><ele>110.0</ele><time>2026-04-25T14:42:03.999Z</time></trkpt><trkpt lat="40.37304941235815" lon="15.023033296922371"><ele>110.0</ele><time>2026-04-25T14:42:06.999Z</time></trkpt><trkpt lat="40.372924619141095" lon="15.023254108533266"><ele>114.6</ele><time>2026-04-25T14:42:09.999Z</time></trkpt><trkpt lat="40.372842841292716" lon="15.023297295978926"><ele>119.2</ele><time>2026-04-25T14:42:11.999Z</time></trkpt><trkpt lat="40.372765491261546" lon="15.02328218164456"><ele>123.80000000000001</ele><time>2026-04-25T14:42:13.999Z</time></trkpt><trkpt lat="40.37263284844851" lon="15.02320908489807"><ele>128.4</ele><time>2026-04-25T14:42:15.999Z</time></trkpt><trkpt lat="40.37256254580404" lon="15.023162843081353"><ele>133.0</ele><time>2026-04-25T14:42:16.999Z</time></trkpt><trkpt lat="40.372471413507476" lon="15.02317039565222"><ele>133.0</ele><time>2026-04-25T14:42:18.999Z</time></trkpt><trkpt lat="40.37238906700238" lon="15.02326983952224"><ele>133.0</ele><time>2026-04-25T14:42:20.999Z</time></trkpt><trkpt lat="40.37234380588458" lon="15.02342446053016"><ele>133.0</ele><time>2026-04-25T14:42:22.999Z</time></trkpt><trkpt lat="40.372300372556914" lon="15.023665235300067"><ele>133.0</ele><time>2026-04-25T14:42:24.999Z</time></trkpt><trkpt lat="40.37224496437256" lon="15.023807842327056"><ele>134.20000000000002</ele><time>2026-04-25T14:42:25.999Z</time></trkpt><trkpt lat="40.37223468409037" lon="15.023944268022676"><ele>135.4</ele><time>2026-04-25T14:42:26.999Z</time></trkpt><trkpt lat="40.37225351270843" lon="15.024054494857058"><ele>136.60000000000002</ele><time>2026-04-25T14:42:27.999Z</time></trkpt><trkpt lat="40.37222613110074" lon="15.024175863553177"><ele>137.8</ele><time>2026-04-25T14:42:29.999Z</time></trkpt><trkpt lat="40.37214133507127" lon="15.024223682617027"><ele>139.0</ele><time>2026-04-25T14:42:31.999Z</time></trkpt><trkpt lat="40.37204200228676" lon="15.02424259015096"><ele>139.0</ele><time>2026-04-25T14:42:33Z</time></trkpt><trkpt lat="40.371978816050365" lon="15.024304081339327"><ele>139.0</ele><time>2026-04-25T14:42:34Z</time></trkpt><trkpt lat="40.37189207631658" lon="15.02438732345231"><ele>139.0</ele><time>2026-04-25T14:42:35Z</time></trkpt><trkpt lat="40.371776327387416" lon="15.024477007349114"><ele>139.0</ele><time>2026-04-25T14:42:36Z</time></trkpt><trkpt lat="40.371673335288214" lon="15.02455570993393"><ele>139.0</ele><time>2026-04-25T14:42:37Z</time></trkpt><trkpt lat="40.37156577889098" lon="15.024625372594958"><ele>139.0</ele><time>2026-04-25T14:42:38Z</time></trkpt><trkpt lat="40.37147462823453" lon="15.024683992763505"><ele>139.0</ele><time>2026-04-25T14:42:39Z</time></trkpt><trkpt lat="40.371380669632075" lon="15.024737316262648"><ele>139.0</ele><time>2026-04-25T14:42:41Z</time></trkpt><trkpt lat="40.371304687346004" lon="15.024634907320262"><ele>139.0</ele><time>2026-04-25T14:42:43Z</time></trkpt><trkpt lat="40.371279504350866" lon="15.024521161525747"><ele>139.0</ele><time>2026-04-25T14:42:44Z</time></trkpt><trkpt lat="40.37127680688854" lon="15.024378072259289"><ele>147.5</ele><time>2026-04-25T14:42:45Z</time></trkpt><trkpt lat="40.37126623808127" lon="15.024213572765584"><ele>156.0</ele><time>2026-04-25T14:42:46Z</time></trkpt><trkpt lat="40.37126431749049" lon="15.024050460235904"><ele>164.5</ele><time>2026-04-25T14:42:47Z</time></trkpt><trkpt lat="40.37127800413457" lon="15.023893973066256"><ele>173.0</ele><time>2026-04-25T14:42:48Z</time></trkpt><trkpt lat="40.371296514535636" lon="15.023774451519207"><ele>173.0</ele><time>2026-04-25T14:42:49Z</time></trkpt><trkpt lat="40.37130477796102" lon="15.023650039846848"><ele>173.0</ele><time>2026-04-25T14:42:50Z</time></trkpt><trkpt lat="40.37127330860265" lon="15.023544619739171"><ele>173.0</ele><time>2026-04-25T14:42:51Z</time></trkpt><trkpt lat="40.37122380109884" lon="15.023432750942064"><ele>173.0</ele><time>2026-04-25T14:42:52Z</time></trkpt><trkpt lat="40.37116154269727" lon="15.023334790759302"><ele>173.0</ele><time>2026-04-25T14:42:53Z</time></trkpt><trkpt lat="40.37109352976496" lon="15.02328640916623"><ele>173.0</ele><time>2026-04-25T14:42:55Z</time></trkpt><trkpt lat="40.37106120999871" lon="15.023383041436336"><ele>173.0</ele><time>2026-04-25T14:42:57Z</time></trkpt><trkpt lat="40.37108041199063" lon="15.02353086918148"><ele>173.0</ele><time>2026-04-25T14:42:58Z</time></trkpt><trkpt lat="40.37107487492292" lon="15.023636075607225"><ele>173.0</ele><time>2026-04-25T14:42:59Z</time></trkpt><trkpt lat="40.371090590148114" lon="15.023752374221038"><ele>173.0</ele><time>2026-04-25T14:43:00Z</time></trkpt><trkpt lat="40.37107632380641" lon="15.023878354482639"><ele>173.0</ele><time>2026-04-25T14:43:01Z</time></trkpt><trkpt lat="40.37103441103329" lon="15.023987957826916"><ele>173.0</ele><time>2026-04-25T14:43:02Z</time></trkpt><trkpt lat="40.37100197937052" lon="15.024068372911982"><ele>173.0</ele><time>2026-04-25T14:43:03Z</time></trkpt><trkpt lat="40.37092376433045" lon="15.024150754412728"><ele>173.0</ele><time>2026-04-25T14:43:04Z</time></trkpt><trkpt lat="40.370845653994614" lon="15.024222214923222"><ele>173.0</ele><time>2026-04-25T14:43:05Z</time></trkpt><trkpt lat="40.370758688096224" lon="15.024305190711832"><ele>173.2</ele><time>2026-04-25T14:43:06Z</time></trkpt><trkpt lat="40.370657261969995" lon="15.024397854697751"><ele>173.4</ele><time>2026-04-25T14:43:07Z</time></trkpt><trkpt lat="40.37057063556801" lon="15.024502434357228"><ele>173.6</ele><time>2026-04-25T14:43:07.999Z</time></trkpt><trkpt lat="40.370505914933815" lon="15.024587433689026"><ele>173.79999999999998</ele><time>2026-04-25T14:43:08.999Z</time></trkpt><trkpt lat="40.37045384205947" lon="15.024665987111153"><ele>174.0</ele><time>2026-04-25T14:43:09.999Z</time></trkpt><trkpt lat="40.37041993398802" lon="15.024751127291388"><ele>180.2</ele><time>2026-04-25T14:43:10.999Z</time></trkpt><trkpt lat="40.37039409914042" lon="15.024865021040265"><ele>186.39999999999998</ele><time>2026-04-25T14:43:12.999Z</time></trkpt><trkpt lat="40.3703471057907" lon="15.024772230121794"><ele>192.6</ele><time>2026-04-25T14:43:16.999Z</time></trkpt><trkpt lat="40.37036293468931" lon="15.024621519381125"><ele>198.8</ele><time>2026-04-25T14:43:18.999Z</time></trkpt><trkpt lat="40.37035613439323" lon="15.024779764789113"><ele>205.0</ele><time>2026-04-25T14:43:19.999Z</time></trkpt><trkpt lat="40.37045875107481" lon="15.02443977064372"><ele>204.99999999999997</ele><time>2026-04-25T14:43:21.999Z</time></trkpt><trkpt lat="40.37048744260899" lon="15.024343417989403"><ele>205.0</ele><time>2026-04-25T14:43:22.999Z</time></trkpt><trkpt lat="40.37051432542348" lon="15.02425143837097"><ele>205.0</ele><time>2026-04-25T14:43:23.999Z</time></trkpt><trkpt lat="40.37053705615396" lon="15.024144133630257"><ele>205.0</ele><time>2026-04-25T14:43:24.999Z</time></trkpt><trkpt lat="40.370544509993394" lon="15.024019987198136"><ele>204.99999999999997</ele><time>2026-04-25T14:43:26.999Z</time></trkpt><trkpt lat="40.37047510326363" lon="15.024038832440159"><ele>205.0</ele><time>2026-04-25T14:43:31.999Z</time></trkpt><trkpt lat="40.37040471519513" lon="15.024139496349331"><ele>205.0</ele><time>2026-04-25T14:43:32.999Z</time></trkpt><trkpt lat="40.37035717212146" lon="15.024197522143819"><ele>205.0</ele><time>2026-04-25T14:43:33.999Z</time></trkpt><trkpt lat="40.3703050855395" lon="15.0242576973421"><ele>205.0</ele><time>2026-04-25T14:43:34.999Z</time></trkpt><trkpt lat="40.37022568505619" lon="15.024377832066474"><ele>205.0</ele><time>2026-04-25T14:43:35.999Z</time></trkpt><trkpt lat="40.370155400446464" lon="15.024468050861056"><ele>205.0</ele><time>2026-04-25T14:43:36.999Z</time></trkpt><trkpt lat="40.370083264960336" lon="15.02457719893709"><ele>205.0</ele><time>2026-04-25T14:43:37.999Z</time></trkpt><trkpt lat="40.37002385878099" lon="15.024647298596381"><ele>205.0</ele><time>2026-04-25T14:43:38.999Z</time></trkpt><trkpt lat="40.369966058362635" lon="15.024715104087017"><ele>205.0</ele><time>2026-04-25T14:43:39.999Z</time></trkpt><trkpt lat="40.36969659741466" lon="15.02484678106709"><ele>205.0</ele><time>2026-04-25T14:43:40.999Z</time></trkpt><trkpt lat="40.36962871612951" lon="15.024832893683117"><ele>204.99999999999997</ele><time>2026-04-25T14:43:41.999Z</time></trkpt><trkpt lat="40.36956405587316" lon="15.024762815092148"><ele>205.0</ele><time>2026-04-25T14:43:43.999Z</time></trkpt><trkpt lat="40.36955892314936" lon="15.024649364358622"><ele>205.0</ele><time>2026-04-25T14:43:45.999Z</time></trkpt><trkpt lat="40.36958217836824" lon="15.024561505390706"><ele>205.0</ele><time>2026-04-25T14:43:46.999Z</time></trkpt><trkpt lat="40.36961293953428" lon="15.02448857687168"><ele>204.99999999999997</ele><time>2026-04-25T14:43:47.999Z</time></trkpt><trkpt lat="40.3696769134807" lon="15.024372245635009"><ele>205.0</ele><time>2026-04-25T14:43:50.999Z</time></trkpt><trkpt lat="40.36974870992759" lon="15.024308000199579"><ele>205.0</ele><time>2026-04-25T14:43:51.999Z</time></trkpt><trkpt lat="40.36977862317055" lon="15.02419519860333"><ele>205.0</ele><time>2026-04-25T14:43:53.999Z</time></trkpt><trkpt lat="40.36980870365833" lon="15.024096992245685"><ele>205.0</ele><time>2026-04-25T14:43:55.999Z</time></trkpt><trkpt lat="40.3697717459005" lon="15.02394595120139"><ele>205.0</ele><time>2026-04-25T14:43:57.999Z</time></trkpt><trkpt lat="40.36971560569438" lon="15.023838725061756"><ele>205.0</ele><time>2026-04-25T14:43:58.999Z</time></trkpt><trkpt lat="40.36963611188651" lon="15.02371551016876"><ele>208.5</ele><time>2026-04-25T14:43:59.999Z</time></trkpt><trkpt lat="40.369566428572476" lon="15.023594019968133"><ele>212.0</ele><time>2026-04-25T14:44:00.999Z</time></trkpt><trkpt lat="40.369508951757034" lon="15.023449665167247"><ele>215.5</ele><time>2026-04-25T14:44:01.999Z</time></trkpt><trkpt lat="40.36946165562635" lon="15.023306690753344"><ele>219.0</ele><time>2026-04-25T14:44:02.999Z</time></trkpt><trkpt lat="40.36942320153112" lon="15.023182865684618"><ele>219.0</ele><time>2026-04-25T14:44:03.999Z</time></trkpt><trkpt lat="40.369362326006495" lon="15.023069071028857"><ele>218.99999999999997</ele><time>2026-04-25T14:44:04.999Z</time></trkpt><trkpt lat="40.36934630327361" lon="15.022938764379052"><ele>218.99999999999997</ele><time>2026-04-25T14:44:05.999Z</time></trkpt><trkpt lat="40.36933864874943" lon="15.022838823552132"><ele>219.0</ele><time>2026-04-25T14:44:06.999Z</time></trkpt><trkpt lat="40.36927669158695" lon="15.022732740905242"><ele>219.0</ele><time>2026-04-25T14:44:07.999Z</time></trkpt><trkpt lat="40.36925531918402" lon="15.022617436915613"><ele>219.0</ele><time>2026-04-25T14:44:08.999Z</time></trkpt><trkpt lat="40.36926523512827" lon="15.02252629732353"><ele>219.0</ele><time>2026-04-25T14:44:09.999Z</time></trkpt><trkpt lat="40.36926206341398" lon="15.022436576526172"><ele>219.0</ele><time>2026-04-25T14:44:10.999Z</time></trkpt><trkpt lat="40.369257559675155" lon="15.02233541298903"><ele>219.0</ele><time>2026-04-25T14:44:11.999Z</time></trkpt><trkpt lat="40.36925223175274" lon="15.022215736626276"><ele>219.0</ele><time>2026-04-25T14:44:12.999Z</time></trkpt><trkpt lat="40.36925027214279" lon="15.022072540615227"><ele>219.0</ele><time>2026-04-25T14:44:13.999Z</time></trkpt><trkpt lat="40.369276052758266" lon="15.021857425491492"><ele>219.75</ele><time>2026-04-25T14:44:14.999Z</time></trkpt><trkpt lat="40.36931396076614" lon="15.02165661021688"><ele>220.5</ele><time>2026-04-25T14:44:15.999Z</time></trkpt><trkpt lat="40.369345897128866" lon="15.021480539912373"><ele>221.25</ele><time>2026-04-25T14:44:16.999Z</time></trkpt><trkpt lat="40.369360580613176" lon="15.021356470701152"><ele>222.0</ele><time>2026-04-25T14:44:17.999Z</time></trkpt><trkpt lat="40.369369326960594" lon="15.021240840668263"><ele>223.0</ele><time>2026-04-25T14:44:18.999Z</time></trkpt><trkpt lat="40.36940596630278" lon="15.021156614284475"><ele>224.0</ele><time>2026-04-25T14:44:19.999Z</time></trkpt><trkpt lat="40.36943353710972" lon="15.02105956540602"><ele>225.0</ele><time>2026-04-25T14:44:21.999Z</time></trkpt><trkpt lat="40.369289580176854" lon="15.021026611521476"><ele>226.0</ele><time>2026-04-25T14:44:28.999Z</time></trkpt><trkpt lat="40.369244838234565" lon="15.021111613944154"><ele>227.0</ele><time>2026-04-25T14:44:32.999Z</time></trkpt><trkpt lat="40.36920200836762" lon="15.02121689278525"><ele>227.00000000000003</ele><time>2026-04-25T14:44:34.999Z</time></trkpt><trkpt lat="40.36914704344002" lon="15.021281746113234"><ele>227.0</ele><time>2026-04-25T14:44:36.998Z</time></trkpt><trkpt lat="40.36909354983719" lon="15.021379638215498"><ele>227.0</ele><time>2026-04-25T14:44:40Z</time></trkpt><trkpt lat="40.36904933087374" lon="15.021478507770828"><ele>227.0</ele><time>2026-04-25T14:44:43Z</time></trkpt><trkpt lat="40.368998409596166" lon="15.021579079333724"><ele>227.00000000000003</ele><time>2026-04-25T14:44:46Z</time></trkpt><trkpt lat="40.368960945532564" lon="15.021676919659606"><ele>227.0</ele><time>2026-04-25T14:44:49Z</time></trkpt><trkpt lat="40.36893116573897" lon="15.021767080701045"><ele>225.75</ele><time>2026-04-25T14:44:52Z</time></trkpt><trkpt lat="40.368892261826936" lon="15.021837484644388"><ele>224.5</ele><time>2026-04-25T14:44:55Z</time></trkpt><trkpt lat="40.36876820251407" lon="15.022024582639274"><ele>223.25</ele><time>2026-04-25T14:45:11.999Z</time></trkpt><trkpt lat="40.36872407945026" lon="15.022179887272772"><ele>222.0</ele><time>2026-04-25T14:45:13.999Z</time></trkpt><trkpt lat="40.36858356857" lon="15.022187572422318"><ele>226.5</ele><time>2026-04-25T14:45:14.999Z</time></trkpt><trkpt lat="40.3685230417017" lon="15.022329407534636"><ele>231.0</ele><time>2026-04-25T14:45:16.999Z</time></trkpt><trkpt lat="40.36848412592682" lon="15.022400258845167"><ele>235.5</ele><time>2026-04-25T14:45:17.999Z</time></trkpt><trkpt lat="40.36844011690634" lon="15.022471795301625"><ele>240.0</ele><time>2026-04-25T14:45:18.999Z</time></trkpt><trkpt lat="40.36837877745967" lon="15.022547838314045"><ele>244.5</ele><time>2026-04-25T14:45:19.999Z</time></trkpt><trkpt lat="40.36831150725168" lon="15.022626292552767"><ele>249.0</ele><time>2026-04-25T14:45:20.999Z</time></trkpt><trkpt lat="40.368247170715435" lon="15.022714945898558"><ele>249.0</ele><time>2026-04-25T14:45:21.999Z</time></trkpt><trkpt lat="40.368184031389866" lon="15.022832161323509"><ele>249.0</ele><time>2026-04-25T14:45:22.999Z</time></trkpt><trkpt lat="40.36813505573463" lon="15.022947716394954"><ele>249.0</ele><time>2026-04-25T14:45:23.999Z</time></trkpt><trkpt lat="40.36810037167876" lon="15.023039767496739"><ele>249.0</ele><time>2026-04-25T14:45:24.999Z</time></trkpt><trkpt lat="40.36806801458112" lon="15.023132833287288"><ele>249.0</ele><time>2026-04-25T14:45:25.999Z</time></trkpt><trkpt lat="40.368041943794424" lon="15.023208711625982"><ele>249.0</ele><time>2026-04-25T14:45:26.999Z</time></trkpt><trkpt lat="40.36797391212904" lon="15.02321709275147"><ele>250.5</ele><time>2026-04-25T14:45:34.999Z</time></trkpt><trkpt lat="40.367943945509225" lon="15.023068323541212"><ele>252.0</ele><time>2026-04-25T14:45:36.999Z</time></trkpt><trkpt lat="40.36791275184278" lon="15.02286321467396"><ele>253.5</ele><time>2026-04-25T14:45:46.999Z</time></trkpt><trkpt lat="40.36790543733515" lon="15.022739690621766"><ele>255.0</ele><time>2026-04-25T14:45:47.999Z</time></trkpt><trkpt lat="40.36791776553541" lon="15.022579898096014"><ele>255.0</ele><time>2026-04-25T14:45:48.999Z</time></trkpt><trkpt lat="40.3679493913948" lon="15.022397722668678"><ele>255.0</ele><time>2026-04-25T14:45:49.999Z</time></trkpt><trkpt lat="40.367999692615854" lon="15.022244527861906"><ele>255.0</ele><time>2026-04-25T14:45:50.999Z</time></trkpt><trkpt lat="40.368035257248195" lon="15.022075833821654"><ele>255.0</ele><time>2026-04-25T14:45:51.999Z</time></trkpt><trkpt lat="40.368072978526556" lon="15.021914629451903"><ele>255.8</ele><time>2026-04-25T14:45:52.999Z</time></trkpt><trkpt lat="40.36811432262216" lon="15.021781815128461"><ele>256.6</ele><time>2026-04-25T14:45:53.999Z</time></trkpt><trkpt lat="40.368170870341714" lon="15.021660038626637"><ele>257.4</ele><time>2026-04-25T14:45:54.999Z</time></trkpt><trkpt lat="40.368235975957184" lon="15.021527489028626"><ele>258.2</ele><time>2026-04-25T14:45:55.999Z</time></trkpt><trkpt lat="40.36828997408758" lon="15.021432304017628"><ele>259.0</ele><time>2026-04-25T14:45:56.999Z</time></trkpt><trkpt lat="40.36830866038238" lon="15.021339794861337"><ele>259.25</ele><time>2026-04-25T14:45:57.999Z</time></trkpt><trkpt lat="40.368316313049625" lon="15.021241906230296"><ele>259.5</ele><time>2026-04-25T14:45:58.999Z</time></trkpt><trkpt lat="40.36827906750077" lon="15.021102785257035"><ele>259.75</ele><time>2026-04-25T14:45:59.999Z</time></trkpt><trkpt lat="40.368274747580955" lon="15.02091281243374"><ele>260.0</ele><time>2026-04-25T14:46:00.999Z</time></trkpt><trkpt lat="40.368259098411336" lon="15.020741365946051"><ele>260.8</ele><time>2026-04-25T14:46:01.999Z</time></trkpt><trkpt lat="40.368259298045984" lon="15.020596104688098"><ele>261.6</ele><time>2026-04-25T14:46:02.999Z</time></trkpt><trkpt lat="40.36825008658226" lon="15.020474831138248"><ele>262.4</ele><time>2026-04-25T14:46:03.999Z</time></trkpt><trkpt lat="40.3682223750491" lon="15.020355981210024"><ele>263.2</ele><time>2026-04-25T14:46:04.999Z</time></trkpt><trkpt lat="40.36817282692044" lon="15.020243034725775"><ele>264.0</ele><time>2026-04-25T14:46:05.999Z</time></trkpt><trkpt lat="40.368101190083884" lon="15.020127563275796"><ele>264.25</ele><time>2026-04-25T14:46:06.999Z</time></trkpt><trkpt lat="40.36800942746803" lon="15.020005361280267"><ele>264.5</ele><time>2026-04-25T14:46:07.999Z</time></trkpt><trkpt lat="40.3679149307214" lon="15.019884374609807"><ele>264.75</ele><time>2026-04-25T14:46:08.999Z</time></trkpt><trkpt lat="40.36782198263549" lon="15.019767709460991"><ele>265.0</ele><time>2026-04-25T14:46:09.999Z</time></trkpt><trkpt lat="40.36772950376789" lon="15.019667571026671"><ele>265.0</ele><time>2026-04-25T14:46:10.999Z</time></trkpt><trkpt lat="40.36764096674902" lon="15.019570917042918"><ele>265.0</ele><time>2026-04-25T14:46:11.999Z</time></trkpt><trkpt lat="40.367554018859366" lon="15.01947470271396"><ele>265.0</ele><time>2026-04-25T14:46:12.999Z</time></trkpt><trkpt lat="40.367475723600435" lon="15.019368799372474"><ele>265.0</ele><time>2026-04-25T14:46:13.999Z</time></trkpt><trkpt lat="40.367414067128415" lon="15.019247598105757"><ele>267.75</ele><time>2026-04-25T14:46:14.999Z</time></trkpt><trkpt lat="40.36734944575805" lon="15.019116960558241"><ele>270.5</ele><time>2026-04-25T14:46:15.999Z</time></trkpt><trkpt lat="40.36728129913953" lon="15.018980539066765"><ele>273.25</ele><time>2026-04-25T14:46:16.999Z</time></trkpt><trkpt lat="40.36721416007893" lon="15.018835512578116"><ele>276.0</ele><time>2026-04-25T14:46:17.999Z</time></trkpt><trkpt lat="40.367148949126225" lon="15.018694786108266"><ele>267.5</ele><time>2026-04-25T14:46:18.999Z</time></trkpt><trkpt lat="40.367084781367296" lon="15.018553425012193"><ele>259.0</ele><time>2026-04-25T14:46:19.999Z</time></trkpt><trkpt lat="40.36702748906549" lon="15.018408815558585"><ele>250.5</ele><time>2026-04-25T14:46:20.999Z</time></trkpt><trkpt lat="40.366983183182136" lon="15.018258054336751"><ele>242.0</ele><time>2026-04-25T14:46:21.999Z</time></trkpt><trkpt lat="40.36694821876551" lon="15.018103727370919"><ele>242.0</ele><time>2026-04-25T14:46:22.999Z</time></trkpt><trkpt lat="40.36692279874423" lon="15.017943413200385"><ele>242.0</ele><time>2026-04-25T14:46:23.999Z</time></trkpt><trkpt lat="40.3668904111023" lon="15.017778827922704"><ele>242.0</ele><time>2026-04-25T14:46:24.999Z</time></trkpt><trkpt lat="40.366860874128456" lon="15.017618565853615"><ele>242.0</ele><time>2026-04-25T14:46:25.999Z</time></trkpt><trkpt lat="40.36683251034137" lon="15.017456677111584"><ele>243.0</ele><time>2026-04-25T14:46:26.999Z</time></trkpt><trkpt lat="40.36680794431137" lon="15.017295279076475"><ele>244.0</ele><time>2026-04-25T14:46:27.999Z</time></trkpt><trkpt lat="40.36678286176856" lon="15.017138059112977"><ele>245.0</ele><time>2026-04-25T14:46:28.999Z</time></trkpt><trkpt lat="40.36674867603622" lon="15.01699204292321"><ele>246.0</ele><time>2026-04-25T14:46:29.999Z</time></trkpt><trkpt lat="40.36671237605788" lon="15.016871394040928"><ele>246.0</ele><time>2026-04-25T14:46:30.999Z</time></trkpt><trkpt lat="40.36667019815587" lon="15.016774062631498"><ele>246.00000000000003</ele><time>2026-04-25T14:46:31.999Z</time></trkpt><trkpt lat="40.36661111714308" lon="15.01669075086584"><ele>246.00000000000003</ele><time>2026-04-25T14:46:32.999Z</time></trkpt><trkpt lat="40.36652137337481" lon="15.016630607481634"><ele>246.0</ele><time>2026-04-25T14:46:33.999Z</time></trkpt><trkpt lat="40.3664064997727" lon="15.016591174364935"><ele>246.0</ele><time>2026-04-25T14:46:34.999Z</time></trkpt><trkpt lat="40.36629354397677" lon="15.016570550214537"><ele>241.60000000000002</ele><time>2026-04-25T14:46:35.999Z</time></trkpt><trkpt lat="40.36618621780306" lon="15.016531187660743"><ele>237.20000000000002</ele><time>2026-04-25T14:46:36.999Z</time></trkpt><trkpt lat="40.36607348885995" lon="15.016527656029638"><ele>232.79999999999998</ele><time>2026-04-25T14:46:37.999Z</time></trkpt><trkpt lat="40.36596586447676" lon="15.016524956977404"><ele>228.39999999999998</ele><time>2026-04-25T14:46:38.999Z</time></trkpt><trkpt lat="40.365858369829354" lon="15.016535737701858"><ele>224.0</ele><time>2026-04-25T14:46:39.998Z</time></trkpt><trkpt lat="40.365751942417894" lon="15.016537597653661"><ele>224.0</ele><time>2026-04-25T14:46:40.998Z</time></trkpt><trkpt lat="40.3656318772682" lon="15.016531101412577"><ele>224.0</ele><time>2026-04-25T14:46:41.998Z</time></trkpt><trkpt lat="40.36550299779755" lon="15.016482525898278"><ele>224.0</ele><time>2026-04-25T14:46:42.998Z</time></trkpt><trkpt lat="40.365373572665874" lon="15.016430085860053"><ele>224.0</ele><time>2026-04-25T14:46:43.998Z</time></trkpt><trkpt lat="40.365237351130055" lon="15.01637501814115"><ele>222.25</ele><time>2026-04-25T14:46:45Z</time></trkpt><trkpt lat="40.3651018015418" lon="15.016326457186185"><ele>220.5</ele><time>2026-04-25T14:46:46Z</time></trkpt><trkpt lat="40.36497273509918" lon="15.016286979130378"><ele>218.75</ele><time>2026-04-25T14:46:47Z</time></trkpt><trkpt lat="40.364858886852964" lon="15.016222995379191"><ele>217.0</ele><time>2026-04-25T14:46:48Z</time></trkpt><trkpt lat="40.3647501250593" lon="15.016174784479379"><ele>216.5</ele><time>2026-04-25T14:46:49Z</time></trkpt><trkpt lat="40.364638621754814" lon="15.016128191504926"><ele>216.0</ele><time>2026-04-25T14:46:50Z</time></trkpt><trkpt lat="40.364517241873024" lon="15.016093826708916"><ele>215.5</ele><time>2026-04-25T14:46:51Z</time></trkpt><trkpt lat="40.36439619430733" lon="15.016097153454853"><ele>215.0</ele><time>2026-04-25T14:46:52Z</time></trkpt><trkpt lat="40.36427102118806" lon="15.016076050286983"><ele>215.0</ele><time>2026-04-25T14:46:53Z</time></trkpt><trkpt lat="40.364156979163134" lon="15.016034050373484"><ele>215.0</ele><time>2026-04-25T14:46:54Z</time></trkpt><trkpt lat="40.364042292388206" lon="15.016014161991015"><ele>215.0</ele><time>2026-04-25T14:46:55Z</time></trkpt><trkpt lat="40.36393704892373" lon="15.0159611547669"><ele>215.0</ele><time>2026-04-25T14:46:56Z</time></trkpt><trkpt lat="40.363850032028665" lon="15.015890859259486"><ele>215.0</ele><time>2026-04-25T14:46:57Z</time></trkpt><trkpt lat="40.36377807011551" lon="15.015810840497195"><ele>212.0</ele><time>2026-04-25T14:46:58Z</time></trkpt><trkpt lat="40.363701136720515" lon="15.015769118047887"><ele>209.0</ele><time>2026-04-25T14:46:59Z</time></trkpt><trkpt lat="40.363640072619845" lon="15.015650727702198"><ele>206.0</ele><time>2026-04-25T14:47:01Z</time></trkpt><trkpt lat="40.36354123650266" lon="15.01557777698418"><ele>203.0</ele><time>2026-04-25T14:47:03Z</time></trkpt><trkpt lat="40.36346055682511" lon="15.015555852912998"><ele>200.0</ele><time>2026-04-25T14:47:04Z</time></trkpt><trkpt lat="40.36337741988947" lon="15.01554634146443"><ele>200.00000000000003</ele><time>2026-04-25T14:47:05Z</time></trkpt><trkpt lat="40.36331365603564" lon="15.015535916568156"><ele>200.0</ele><time>2026-04-25T14:47:06Z</time></trkpt><trkpt lat="40.36319652330261" lon="15.015503221634114"><ele>200.0</ele><time>2026-04-25T14:47:08Z</time></trkpt><trkpt lat="40.3631276176347" lon="15.015488254290426"><ele>200.0</ele><time>2026-04-25T14:47:09Z</time></trkpt><trkpt lat="40.363042275895666" lon="15.015477231654998"><ele>200.00000000000003</ele><time>2026-04-25T14:47:10Z</time></trkpt><trkpt lat="40.362945753034026" lon="15.015462869972207"><ele>200.0</ele><time>2026-04-25T14:47:10.999Z</time></trkpt><trkpt lat="40.36286091589342" lon="15.015443685454208"><ele>202.2</ele><time>2026-04-25T14:47:11.999Z</time></trkpt><trkpt lat="40.362770476094816" lon="15.015427281780992"><ele>204.4</ele><time>2026-04-25T14:47:12.999Z</time></trkpt><trkpt lat="40.362699536669794" lon="15.015408748796254"><ele>206.60000000000002</ele><time>2026-04-25T14:47:13.999Z</time></trkpt><trkpt lat="40.362612082097776" lon="15.015387271894857"><ele>208.8</ele><time>2026-04-25T14:47:14.999Z</time></trkpt><trkpt lat="40.362509470700296" lon="15.01536233256552"><ele>211.0</ele><time>2026-04-25T14:47:15.999Z</time></trkpt><trkpt lat="40.36239442861757" lon="15.015330844733901"><ele>211.0</ele><time>2026-04-25T14:47:16.999Z</time></trkpt><trkpt lat="40.36227837245057" lon="15.015302058214955"><ele>211.0</ele><time>2026-04-25T14:47:17.999Z</time></trkpt><trkpt lat="40.362179487544346" lon="15.015268722933703"><ele>211.0</ele><time>2026-04-25T14:47:18.999Z</time></trkpt><trkpt lat="40.36209750218758" lon="15.01522286834976"><ele>211.0</ele><time>2026-04-25T14:47:19.999Z</time></trkpt><trkpt lat="40.362021238279986" lon="15.015155263340354"><ele>211.0</ele><time>2026-04-25T14:47:20.999Z</time></trkpt><trkpt lat="40.36195075743684" lon="15.015072575782973"><ele>210.33333333333331</ele><time>2026-04-25T14:47:21.999Z</time></trkpt><trkpt lat="40.36190364121542" lon="15.014988264266794"><ele>209.66666666666666</ele><time>2026-04-25T14:47:22.999Z</time></trkpt><trkpt lat="40.36187612609727" lon="15.014902912543349"><ele>209.0</ele><time>2026-04-25T14:47:23.999Z</time></trkpt><trkpt lat="40.36184767947908" lon="15.01482067823569"><ele>208.33333333333331</ele><time>2026-04-25T14:47:24.999Z</time></trkpt><trkpt lat="40.36179878663614" lon="15.014705209988238"><ele>207.66666666666666</ele><time>2026-04-25T14:47:26.999Z</time></trkpt><trkpt lat="40.36173791048952" lon="15.01457767089171"><ele>207.0</ele><time>2026-04-25T14:47:28.999Z</time></trkpt><trkpt lat="40.36169678488778" lon="15.014501086073498"><ele>207.0</ele><time>2026-04-25T14:47:29.999Z</time></trkpt><trkpt lat="40.361649849402994" lon="15.01442289334594"><ele>207.0</ele><time>2026-04-25T14:47:30.999Z</time></trkpt><trkpt lat="40.361601802761534" lon="15.014344730634003"><ele>207.0</ele><time>2026-04-25T14:47:31.999Z</time></trkpt><trkpt lat="40.36156233778488" lon="15.01427924750942"><ele>207.0</ele><time>2026-04-25T14:47:32.999Z</time></trkpt><trkpt lat="40.361479530527234" lon="15.014164493270886"><ele>207.0</ele><time>2026-04-25T14:47:34.999Z</time></trkpt><trkpt lat="40.361419511458784" lon="15.014080768606027"><ele>207.0</ele><time>2026-04-25T14:47:36.999Z</time></trkpt><trkpt lat="40.36135610905371" lon="15.013999208837376"><ele>205.66666666666666</ele><time>2026-04-25T14:47:46.999Z</time></trkpt><trkpt lat="40.36129024467726" lon="15.013919717796103"><ele>204.33333333333331</ele><time>2026-04-25T14:47:48.999Z</time></trkpt><trkpt lat="40.36122012263094" lon="15.013847640326425"><ele>203.0</ele><time>2026-04-25T14:47:50.999Z</time></trkpt><trkpt lat="40.361165613838395" lon="15.01379504092923"><ele>201.66666666666666</ele><time>2026-04-25T14:47:51.999Z</time></trkpt><trkpt lat="40.361110182341314" lon="15.013733285727348"><ele>200.33333333333331</ele><time>2026-04-25T14:47:52.999Z</time></trkpt><trkpt lat="40.36103802551988" lon="15.013646889267173"><ele>199.0</ele><time>2026-04-25T14:47:53.999Z</time></trkpt><trkpt lat="40.360954757874374" lon="15.01355863144824"><ele>199.0</ele><time>2026-04-25T14:47:54.999Z</time></trkpt><trkpt lat="40.36088409432502" lon="15.013487795909924"><ele>199.0</ele><time>2026-04-25T14:47:55.999Z</time></trkpt><trkpt lat="40.360826462628424" lon="15.013434001783958"><ele>199.0</ele><time>2026-04-25T14:47:56.999Z</time></trkpt><trkpt lat="40.36077604705348" lon="15.01338212631303"><ele>199.0</ele><time>2026-04-25T14:47:57.999Z</time></trkpt><trkpt lat="40.360693037401234" lon="15.01328832975607"><ele>199.0</ele><time>2026-04-25T14:47:59.999Z</time></trkpt><trkpt lat="40.36059904217472" lon="15.013197030089453"><ele>198.0</ele><time>2026-04-25T14:48:01.999Z</time></trkpt><trkpt lat="40.36052333513688" lon="15.013135706246647"><ele>197.0</ele><time>2026-04-25T14:48:03.999Z</time></trkpt><trkpt lat="40.360432176035125" lon="15.013093456897222"><ele>196.0</ele><time>2026-04-25T14:48:05.999Z</time></trkpt><trkpt lat="40.360334036834175" lon="15.013040708439236"><ele>195.0</ele><time>2026-04-25T14:48:07.999Z</time></trkpt><trkpt lat="40.360249958236516" lon="15.012994395548779"><ele>194.0</ele><time>2026-04-25T14:48:09.999Z</time></trkpt><trkpt lat="40.36016548538807" lon="15.012933147775911"><ele>194.00000000000003</ele><time>2026-04-25T14:48:11.999Z</time></trkpt><trkpt lat="40.36008450871104" lon="15.012839606739691"><ele>194.0</ele><time>2026-04-25T14:48:13.999Z</time></trkpt><trkpt lat="40.36004050631444" lon="15.012772271086858"><ele>194.0</ele><time>2026-04-25T14:48:14.999Z</time></trkpt><trkpt lat="40.359986968667535" lon="15.012718230768693"><ele>194.0</ele><time>2026-04-25T14:48:15.999Z</time></trkpt><trkpt lat="40.35992840357167" lon="15.012671146557324"><ele>194.00000000000003</ele><time>2026-04-25T14:48:16.999Z</time></trkpt><trkpt lat="40.35986885687714" lon="15.012629941174344"><ele>194.0</ele><time>2026-04-25T14:48:17.999Z</time></trkpt><trkpt lat="40.359804670397665" lon="15.012574999923881"><ele>194.0</ele><time>2026-04-25T14:48:18.999Z</time></trkpt><trkpt lat="40.3597311789148" lon="15.012521090112333"><ele>194.0</ele><time>2026-04-25T14:48:19.999Z</time></trkpt><trkpt lat="40.35964835996606" lon="15.012474912862084"><ele>194.0</ele><time>2026-04-25T14:48:20.999Z</time></trkpt><trkpt lat="40.359561155487" lon="15.012427507539572"><ele>194.0</ele><time>2026-04-25T14:48:21.999Z</time></trkpt><trkpt lat="40.35947283279492" lon="15.012385883077803"><ele>194.0</ele><time>2026-04-25T14:48:22.999Z</time></trkpt><trkpt lat="40.35938630749876" lon="15.012351342332876"><ele>193.66666666666669</ele><time>2026-04-25T14:48:23.999Z</time></trkpt><trkpt lat="40.359299407996374" lon="15.012324775125933"><ele>193.33333333333334</ele><time>2026-04-25T14:48:24.999Z</time></trkpt><trkpt lat="40.35921591548705" lon="15.012298605700124"><ele>193.0</ele><time>2026-04-25T14:48:25.999Z</time></trkpt><trkpt lat="40.35913123588863" lon="15.012274056248467"><ele>192.66666666666669</ele><time>2026-04-25T14:48:26.999Z</time></trkpt><trkpt lat="40.35904674561583" lon="15.012249566834914"><ele>192.33333333333334</ele><time>2026-04-25T14:48:27.999Z</time></trkpt><trkpt lat="40.358962005165886" lon="15.012228776841805"><ele>192.0</ele><time>2026-04-25T14:48:28.999Z</time></trkpt><trkpt lat="40.35887473553713" lon="15.012197987239016"><ele>190.8</ele><time>2026-04-25T14:48:29.999Z</time></trkpt><trkpt lat="40.35878926585222" lon="15.012161756417163"><ele>189.6</ele><time>2026-04-25T14:48:30.999Z</time></trkpt><trkpt lat="40.358702774896045" lon="15.01212872335156"><ele>188.4</ele><time>2026-04-25T14:48:31.999Z</time></trkpt><trkpt lat="40.35861485955224" lon="15.012087657896199"><ele>187.20000000000002</ele><time>2026-04-25T14:48:32.999Z</time></trkpt><trkpt lat="40.358529201315086" lon="15.012037315179088"><ele>186.0</ele><time>2026-04-25T14:48:33.999Z</time></trkpt><trkpt lat="40.35844150184029" lon="15.011997558311815"><ele>186.0</ele><time>2026-04-25T14:48:34.999Z</time></trkpt><trkpt lat="40.358348697820425" lon="15.011970896710318"><ele>186.0</ele><time>2026-04-25T14:48:35.999Z</time></trkpt><trkpt lat="40.358256514730066" lon="15.01194755169509"><ele>186.0</ele><time>2026-04-25T14:48:36.999Z</time></trkpt><trkpt lat="40.35816028797268" lon="15.011929524174636"><ele>186.0</ele><time>2026-04-25T14:48:37.999Z</time></trkpt><trkpt lat="40.358062570855346" lon="15.011915675235086"><ele>186.0</ele><time>2026-04-25T14:48:38.999Z</time></trkpt><trkpt lat="40.35796341052155" lon="15.01190180208694"><ele>184.4</ele><time>2026-04-25T14:48:39.999Z</time></trkpt><trkpt lat="40.35786243321304" lon="15.011888124482914"><ele>182.8</ele><time>2026-04-25T14:48:40.999Z</time></trkpt><trkpt lat="40.35776190221735" lon="15.011881834092886"><ele>181.20000000000002</ele><time>2026-04-25T14:48:41.999Z</time></trkpt><trkpt lat="40.35766590661872" lon="15.011878676935751"><ele>179.60000000000002</ele><time>2026-04-25T14:48:42.998Z</time></trkpt><trkpt lat="40.35757306170839" lon="15.011870110436929"><ele>178.0</ele><time>2026-04-25T14:48:43.998Z</time></trkpt><trkpt lat="40.35748749259455" lon="15.011860056672493"><ele>178.0</ele><time>2026-04-25T14:48:44.998Z</time></trkpt><trkpt lat="40.357398349734765" lon="15.011838860664207"><ele>178.0</ele><time>2026-04-25T14:48:45.998Z</time></trkpt><trkpt lat="40.35730940045835" lon="15.011806077504755"><ele>178.0</ele><time>2026-04-25T14:48:46.998Z</time></trkpt><trkpt lat="40.35722029749121" lon="15.011750976287702"><ele>178.0</ele><time>2026-04-25T14:48:47.998Z</time></trkpt><trkpt lat="40.35713260456047" lon="15.011687464389384"><ele>178.0</ele><time>2026-04-25T14:48:48.998Z</time></trkpt><trkpt lat="40.35704591045539" lon="15.011623605706081"><ele>173.6</ele><time>2026-04-25T14:48:49.998Z</time></trkpt><trkpt lat="40.35696615613101" lon="15.011553649319659"><ele>169.20000000000002</ele><time>2026-04-25T14:48:51Z</time></trkpt><trkpt lat="40.35688457716071" lon="15.011484251919835"><ele>164.8</ele><time>2026-04-25T14:48:52Z</time></trkpt><trkpt lat="40.356796636967445" lon="15.011419313822005"><ele>160.4</ele><time>2026-04-25T14:48:53Z</time></trkpt><trkpt lat="40.35670087475816" lon="15.011381123172121"><ele>156.0</ele><time>2026-04-25T14:48:54Z</time></trkpt><trkpt lat="40.356600988189" lon="15.011360764202033"><ele>156.0</ele><time>2026-04-25T14:48:55Z</time></trkpt><trkpt lat="40.35650430615725" lon="15.011347195269957"><ele>156.0</ele><time>2026-04-25T14:48:56Z</time></trkpt><trkpt lat="40.35640705962233" lon="15.01132945448689"><ele>156.0</ele><time>2026-04-25T14:48:57Z</time></trkpt><trkpt lat="40.35631305415555" lon="15.011273734895301"><ele>156.0</ele><time>2026-04-25T14:48:58Z</time></trkpt><trkpt lat="40.356226735232845" lon="15.011176179881542"><ele>156.0</ele><time>2026-04-25T14:48:59Z</time></trkpt><trkpt lat="40.35613449105023" lon="15.011033998005413"><ele>154.5</ele><time>2026-04-25T14:49:00Z</time></trkpt><trkpt lat="40.35604871062865" lon="15.01091092517443"><ele>153.0</ele><time>2026-04-25T14:49:01Z</time></trkpt><trkpt lat="40.3559575325286" lon="15.010797439807153"><ele>151.5</ele><time>2026-04-25T14:49:02Z</time></trkpt><trkpt lat="40.35584366462911" lon="15.010678750784878"><ele>150.0</ele><time>2026-04-25T14:49:03Z</time></trkpt><trkpt lat="40.3557020129853" lon="15.010565206232785"><ele>145.66666666666666</ele><time>2026-04-25T14:49:04Z</time></trkpt><trkpt lat="40.355539857161574" lon="15.0104590853759"><ele>141.33333333333331</ele><time>2026-04-25T14:49:05Z</time></trkpt><trkpt lat="40.35539263180153" lon="15.010358370139132"><ele>137.0</ele><time>2026-04-25T14:49:06Z</time></trkpt><trkpt lat="40.35526160695298" lon="15.010250576715233"><ele>137.0</ele><time>2026-04-25T14:49:07Z</time></trkpt><trkpt lat="40.35514976524932" lon="15.010149436106"><ele>137.0</ele><time>2026-04-25T14:49:08Z</time></trkpt><trkpt lat="40.3550385379785" lon="15.010059487720758"><ele>137.0</ele><time>2026-04-25T14:49:09Z</time></trkpt><trkpt lat="40.35490012515441" lon="15.009979356746573"><ele>137.0</ele><time>2026-04-25T14:49:10Z</time></trkpt><trkpt lat="40.35472932099364" lon="15.009920854067692"><ele>133.66666666666666</ele><time>2026-04-25T14:49:11Z</time></trkpt><trkpt lat="40.35453799550863" lon="15.009871501444584"><ele>130.33333333333334</ele><time>2026-04-25T14:49:12Z</time></trkpt><trkpt lat="40.354370903799285" lon="15.00980812916083"><ele>127.0</ele><time>2026-04-25T14:49:13Z</time></trkpt><trkpt lat="40.35422082710788" lon="15.009744414910726"><ele>127.0</ele><time>2026-04-25T14:49:14Z</time></trkpt><trkpt lat="40.35408551426811" lon="15.009672472255106"><ele>127.0</ele><time>2026-04-25T14:49:14.999Z</time></trkpt><trkpt lat="40.35395849638935" lon="15.009573979829751"><ele>127.0</ele><time>2026-04-25T14:49:15.999Z</time></trkpt><trkpt lat="40.353848786202" lon="15.00944855530233"><ele>127.0</ele><time>2026-04-25T14:49:16.999Z</time></trkpt><trkpt lat="40.35376566066968" lon="15.009328745226112"><ele>127.16666666666667</ele><time>2026-04-25T14:49:17.999Z</time></trkpt><trkpt lat="40.353704404735105" lon="15.009218509310367"><ele>127.33333333333334</ele><time>2026-04-25T14:49:18.999Z</time></trkpt><trkpt lat="40.35364649459971" lon="15.009129724030362"><ele>127.5</ele><time>2026-04-25T14:49:19.999Z</time></trkpt><trkpt lat="40.35359532503865" lon="15.009077795722792"><ele>127.66666666666666</ele><time>2026-04-25T14:49:20.999Z</time></trkpt><trkpt lat="40.35351642925588" lon="15.009104595796822"><ele>127.83333333333333</ele><time>2026-04-25T14:49:22.999Z</time></trkpt><trkpt lat="40.353427757103645" lon="15.009150683177463"><ele>128.0</ele><time>2026-04-25T14:49:23.999Z</time></trkpt><trkpt lat="40.35335283687938" lon="15.009240790230365"><ele>127.80000000000001</ele><time>2026-04-25T14:49:24.999Z</time></trkpt><trkpt lat="40.35330108318424" lon="15.009299495917547"><ele>127.60000000000001</ele><time>2026-04-25T14:49:25.999Z</time></trkpt><trkpt lat="40.35322973360188" lon="15.009368452486763"><ele>127.39999999999999</ele><time>2026-04-25T14:49:27.999Z</time></trkpt><trkpt lat="40.353166133369854" lon="15.009314966174285"><ele>127.19999999999999</ele><time>2026-04-25T14:49:28.999Z</time></trkpt><trkpt lat="40.353095676948385" lon="15.009218939287106"><ele>127.0</ele><time>2026-04-25T14:49:29.999Z</time></trkpt><trkpt lat="40.35301035893472" lon="15.009099474797116"><ele>127.0</ele><time>2026-04-25T14:49:30.999Z</time></trkpt><trkpt lat="40.352886808418916" lon="15.008985908770107"><ele>127.0</ele><time>2026-04-25T14:49:31.999Z</time></trkpt><trkpt lat="40.35275260058903" lon="15.008888881463033"><ele>127.0</ele><time>2026-04-25T14:49:32.999Z</time></trkpt><trkpt lat="40.352626337053344" lon="15.008802731608217"><ele>127.0</ele><time>2026-04-25T14:49:33.999Z</time></trkpt><trkpt lat="40.352504997821256" lon="15.008708870495076"><ele>127.0</ele><time>2026-04-25T14:49:34.999Z</time></trkpt><trkpt lat="40.35238589329061" lon="15.008613874454692"><ele>127.0</ele><time>2026-04-25T14:49:35.999Z</time></trkpt><trkpt lat="40.35226805729708" lon="15.008517316653585"><ele>127.0</ele><time>2026-04-25T14:49:36.999Z</time></trkpt><trkpt lat="40.35216202417919" lon="15.008426405538717"><ele>127.0</ele><time>2026-04-25T14:49:37.999Z</time></trkpt><trkpt lat="40.35207445757053" lon="15.008342812052463"><ele>121.75</ele><time>2026-04-25T14:49:38.999Z</time></trkpt><trkpt lat="40.35199987932876" lon="15.008251170565512"><ele>116.5</ele><time>2026-04-25T14:49:39.999Z</time></trkpt><trkpt lat="40.35191533742512" lon="15.0081598762354"><ele>111.25</ele><time>2026-04-25T14:49:40.999Z</time></trkpt><trkpt lat="40.35186940744282" lon="15.007990708988057"><ele>106.0</ele><time>2026-04-25T14:49:41.999Z</time></trkpt><trkpt lat="40.35180612934631" lon="15.007831009916668"><ele>106.0</ele><time>2026-04-25T14:49:42.999Z</time></trkpt><trkpt lat="40.35176238234065" lon="15.00766840736861"><ele>106.0</ele><time>2026-04-25T14:49:43.999Z</time></trkpt><trkpt lat="40.351726113930646" lon="15.007513378849023"><ele>106.0</ele><time>2026-04-25T14:49:44.999Z</time></trkpt><trkpt lat="40.35168592984936" lon="15.007368482039253"><ele>106.0</ele><time>2026-04-25T14:49:45.999Z</time></trkpt><trkpt lat="40.35164259624985" lon="15.007228322137223"><ele>103.6</ele><time>2026-04-25T14:49:46.999Z</time></trkpt><trkpt lat="40.35159305495712" lon="15.007100872845388"><ele>101.19999999999999</ele><time>2026-04-25T14:49:47.999Z</time></trkpt><trkpt lat="40.35154788109794" lon="15.006994589195424"><ele>98.80000000000001</ele><time>2026-04-25T14:49:48.999Z</time></trkpt><trkpt lat="40.35150283672546" lon="15.00690138934306"><ele>96.4</ele><time>2026-04-25T14:49:49.999Z</time></trkpt><trkpt lat="40.35143804871589" lon="15.006803178154277"><ele>94.0</ele><time>2026-04-25T14:49:50.999Z</time></trkpt><trkpt lat="40.35132320058852" lon="15.006725261423542"><ele>89.25</ele><time>2026-04-25T14:49:51.999Z</time></trkpt><trkpt lat="40.35120362522354" lon="15.006650684303349"><ele>84.5</ele><time>2026-04-25T14:49:52.999Z</time></trkpt><trkpt lat="40.35108456058483" lon="15.00656560171174"><ele>79.75</ele><time>2026-04-25T14:49:53.999Z</time></trkpt><trkpt lat="40.350964104381255" lon="15.006479542640983"><ele>75.0</ele><time>2026-04-25T14:49:54.999Z</time></trkpt><trkpt lat="40.350841368554846" lon="15.006395126287025"><ele>75.0</ele><time>2026-04-25T14:49:55.999Z</time></trkpt><trkpt lat="40.35072204779608" lon="15.00631432780606"><ele>75.0</ele><time>2026-04-25T14:49:56.999Z</time></trkpt><trkpt lat="40.35060107640553" lon="15.006241776010667"><ele>75.0</ele><time>2026-04-25T14:49:57.999Z</time></trkpt><trkpt lat="40.35048397560412" lon="15.006195452728914"><ele>75.0</ele><time>2026-04-25T14:49:58.999Z</time></trkpt><trkpt lat="40.35035524032401" lon="15.006172062144703"><ele>77.33333333333333</ele><time>2026-04-25T14:49:59.999Z</time></trkpt><trkpt lat="40.35021284169959" lon="15.00618433524354"><ele>79.66666666666666</ele><time>2026-04-25T14:50:00.999Z</time></trkpt><trkpt lat="40.35006241200389" lon="15.006227358744914"><ele>82.0</ele><time>2026-04-25T14:50:01.999Z</time></trkpt><trkpt lat="40.34990028851587" lon="15.00626958493625"><ele>82.0</ele><time>2026-04-25T14:50:02.999Z</time></trkpt><trkpt lat="40.34975036683736" lon="15.006326586318279"><ele>82.0</ele><time>2026-04-25T14:50:03.999Z</time></trkpt><trkpt lat="40.34962017837355" lon="15.00638085217685"><ele>82.0</ele><time>2026-04-25T14:50:04.999Z</time></trkpt><trkpt lat="40.349483779670216" lon="15.006435901448805"><ele>82.0</ele><time>2026-04-25T14:50:05.999Z</time></trkpt><trkpt lat="40.34933265059787" lon="15.006494916098394"><ele>84.5</ele><time>2026-04-25T14:50:06.999Z</time></trkpt><trkpt lat="40.349182364203344" lon="15.006539001220222"><ele>87.0</ele><time>2026-04-25T14:50:07.999Z</time></trkpt><trkpt lat="40.34906112385162" lon="15.006579644271424"><ele>89.5</ele><time>2026-04-25T14:50:08.999Z</time></trkpt><trkpt lat="40.34893847428701" lon="15.006594663547089"><ele>92.0</ele><time>2026-04-25T14:50:09.999Z</time></trkpt><trkpt lat="40.34881866275459" lon="15.006597708911146"><ele>88.0</ele><time>2026-04-25T14:50:10.999Z</time></trkpt><trkpt lat="40.34871350312823" lon="15.006576182280117"><ele>84.0</ele><time>2026-04-25T14:50:11.999Z</time></trkpt><trkpt lat="40.3486225190768" lon="15.006538181332962"><ele>80.0</ele><time>2026-04-25T14:50:12.999Z</time></trkpt><trkpt lat="40.34855011562806" lon="15.00646723511388"><ele>76.0</ele><time>2026-04-25T14:50:13.999Z</time></trkpt><trkpt lat="40.34848270757717" lon="15.006361300113943"><ele>72.0</ele><time>2026-04-25T14:50:14.999Z</time></trkpt><trkpt lat="40.34848652538331" lon="15.006185792150987"><ele>72.0</ele><time>2026-04-25T14:50:15.999Z</time></trkpt><trkpt lat="40.34846296263926" lon="15.006016213885001"><ele>72.0</ele><time>2026-04-25T14:50:16.999Z</time></trkpt><trkpt lat="40.348442593169686" lon="15.005896291890469"><ele>72.0</ele><time>2026-04-25T14:50:17.999Z</time></trkpt><trkpt lat="40.34840303933777" lon="15.00580534812416"><ele>72.0</ele><time>2026-04-25T14:50:18.999Z</time></trkpt><trkpt lat="40.34834134181339" lon="15.005730318233589"><ele>72.0</ele><time>2026-04-25T14:50:19.999Z</time></trkpt><trkpt lat="40.348208848830076" lon="15.005693545741293"><ele>69.75</ele><time>2026-04-25T14:50:20.999Z</time></trkpt><trkpt lat="40.34806556505614" lon="15.005676390760044"><ele>67.5</ele><time>2026-04-25T14:50:21.999Z</time></trkpt><trkpt lat="40.34791938542848" lon="15.005675881629976"><ele>65.25</ele><time>2026-04-25T14:50:22.999Z</time></trkpt><trkpt lat="40.347778752525926" lon="15.005657705151648"><ele>63.0</ele><time>2026-04-25T14:50:23.999Z</time></trkpt><trkpt lat="40.34764851894124" lon="15.005625466934083"><ele>63.0</ele><time>2026-04-25T14:50:24.999Z</time></trkpt><trkpt lat="40.34751870538908" lon="15.005570206448168"><ele>63.0</ele><time>2026-04-25T14:50:25.999Z</time></trkpt><trkpt lat="40.34739794775739" lon="15.00548696641256"><ele>63.0</ele><time>2026-04-25T14:50:26.999Z</time></trkpt><trkpt lat="40.34728883745415" lon="15.00538952882848"><ele>63.0</ele><time>2026-04-25T14:50:27.999Z</time></trkpt><trkpt lat="40.34717634655745" lon="15.005295195366896"><ele>59.25</ele><time>2026-04-25T14:50:28.999Z</time></trkpt><trkpt lat="40.3470906612344" lon="15.005136317418522"><ele>55.5</ele><time>2026-04-25T14:50:29.999Z</time></trkpt><trkpt lat="40.34699703928759" lon="15.00499065625589"><ele>51.75</ele><time>2026-04-25T14:50:30.999Z</time></trkpt><trkpt lat="40.34689421514767" lon="15.004866736619585"><ele>48.0</ele><time>2026-04-25T14:50:31.999Z</time></trkpt><trkpt lat="40.34681578109118" lon="15.004739113831008"><ele>48.0</ele><time>2026-04-25T14:50:32.999Z</time></trkpt><trkpt lat="40.346748116055544" lon="15.004613260181818"><ele>48.0</ele><time>2026-04-25T14:50:33.999Z</time></trkpt><trkpt lat="40.346679040656014" lon="15.004484286664033"><ele>48.0</ele><time>2026-04-25T14:50:34.999Z</time></trkpt><trkpt lat="40.34660485978963" lon="15.004381249566814"><ele>48.0</ele><time>2026-04-25T14:50:35.999Z</time></trkpt><trkpt lat="40.34650011173191" lon="15.004301118774126"><ele>43.666666666666664</ele><time>2026-04-25T14:50:36.999Z</time></trkpt><trkpt lat="40.34636349038428" lon="15.00420668441746"><ele>39.33333333333333</ele><time>2026-04-25T14:50:37.999Z</time></trkpt><trkpt lat="40.346224256858" lon="15.004129064784024"><ele>35.0</ele><time>2026-04-25T14:50:38.999Z</time></trkpt><trkpt lat="40.346089994374985" lon="15.00405054511669"><ele>35.0</ele><time>2026-04-25T14:50:39.999Z</time></trkpt><trkpt lat="40.345958739133074" lon="15.00396857210468"><ele>35.0</ele><time>2026-04-25T14:50:40.999Z</time></trkpt><trkpt lat="40.345852771535704" lon="15.003886720516006"><ele>35.0</ele><time>2026-04-25T14:50:41.999Z</time></trkpt><trkpt lat="40.345767325790575" lon="15.003837743590571"><ele>35.0</ele><time>2026-04-25T14:50:42.999Z</time></trkpt><trkpt lat="40.34570266816418" lon="15.003788223429135"><ele>35.0</ele><time>2026-04-25T14:50:43.999Z</time></trkpt><trkpt lat="40.34564115519494" lon="15.003725114974642"><ele>35.0</ele><time>2026-04-25T14:50:45.999Z</time></trkpt><trkpt lat="40.345559653606585" lon="15.003692569079256"><ele>35.0</ele><time>2026-04-25T14:50:47.999Z</time></trkpt><trkpt lat="40.3454866341396" lon="15.003723399591678"><ele>35.0</ele><time>2026-04-25T14:50:48.999Z</time></trkpt><trkpt lat="40.34539919243571" lon="15.003738247542257"><ele>35.0</ele><time>2026-04-25T14:50:49.999Z</time></trkpt><trkpt lat="40.34533018738884" lon="15.003772269163454"><ele>35.0</ele><time>2026-04-25T14:50:50.998Z</time></trkpt><trkpt lat="40.34523471646189" lon="15.003832386414997"><ele>35.0</ele><time>2026-04-25T14:50:52.998Z</time></trkpt><trkpt lat="40.345155637320694" lon="15.003885832898716"><ele>32.166666666666664</ele><time>2026-04-25T14:50:54.998Z</time></trkpt><trkpt lat="40.345178903625396" lon="15.00403898076202"><ele>29.333333333333332</ele><time>2026-04-25T14:50:55.998Z</time></trkpt><trkpt lat="40.345145085522454" lon="15.004122667686698"><ele>26.5</ele><time>2026-04-25T14:50:58Z</time></trkpt><trkpt lat="40.345076919290705" lon="15.0041307802934"><ele>23.666666666666664</ele><time>2026-04-25T14:51:00Z</time></trkpt><trkpt lat="40.344989668528946" lon="15.004062432235926"><ele>20.833333333333332</ele><time>2026-04-25T14:51:02Z</time></trkpt><trkpt lat="40.34502700731888" lon="15.00398417136889"><ele>18.0</ele><time>2026-04-25T14:51:03Z</time></trkpt><trkpt lat="40.34496356950985" lon="15.003848354321846"><ele>18.0</ele><time>2026-04-25T14:51:05Z</time></trkpt><trkpt lat="40.344910793026465" lon="15.003722776804127"><ele>18.0</ele><time>2026-04-25T14:51:06Z</time></trkpt><trkpt lat="40.34482136686186" lon="15.003588860522113"><ele>18.0</ele><time>2026-04-25T14:51:07Z</time></trkpt><trkpt lat="40.34476440724536" lon="15.003411075944898"><ele>18.0</ele><time>2026-04-25T14:51:08Z</time></trkpt><trkpt lat="40.34470088353537" lon="15.003229094763476"><ele>16.0</ele><time>2026-04-25T14:51:09Z</time></trkpt><trkpt lat="40.344635714190304" lon="15.003051802729347"><ele>14.0</ele><time>2026-04-25T14:51:10Z</time></trkpt><trkpt lat="40.34457222806277" lon="15.002864699387247"><ele>12.0</ele><time>2026-04-25T14:51:11Z</time></trkpt><trkpt lat="40.3445110254261" lon="15.002664524169703"><ele>11.75</ele><time>2026-04-25T14:51:12Z</time></trkpt><trkpt lat="40.344425665974526" lon="15.002486731692072"><ele>11.5</ele><time>2026-04-25T14:51:13Z</time></trkpt><trkpt lat="40.344397971708794" lon="15.002314628778997"><ele>11.25</ele><time>2026-04-25T14:51:14Z</time></trkpt><trkpt lat="40.34439344723871" lon="15.002187621783339"><ele>11.0</ele><time>2026-04-25T14:51:15Z</time></trkpt><trkpt lat="40.3443829917543" lon="15.00205007436259"><ele>11.0</ele><time>2026-04-25T14:51:16Z</time></trkpt><trkpt lat="40.34444660266881" lon="15.001945910338902"><ele>11.0</ele><time>2026-04-25T14:51:17Z</time></trkpt><trkpt lat="40.34446211920102" lon="15.001846043624022"><ele>11.0</ele><time>2026-04-25T14:51:18Z</time></trkpt><trkpt lat="40.34453555818724" lon="15.001792597538525"><ele>11.0</ele><time>2026-04-25T14:51:19Z</time></trkpt><trkpt lat="40.344575541736155" lon="15.001712088352622"><ele>11.0</ele><time>2026-04-25T14:51:20Z</time></trkpt><trkpt lat="40.34461703739594" lon="15.00161743939692"><ele>11.0</ele><time>2026-04-25T14:51:21Z</time></trkpt><trkpt lat="40.34462140836261" lon="15.001514218385557"><ele>10.600000000000001</ele><time>2026-04-25T14:51:22Z</time></trkpt><trkpt lat="40.34461360612736" lon="15.001394032147363"><ele>10.200000000000001</ele><time>2026-04-25T14:51:23Z</time></trkpt><trkpt lat="40.34456981262287" lon="15.001268794854406"><ele>9.8</ele><time>2026-04-25T14:51:23.999Z</time></trkpt><trkpt lat="40.34454279954902" lon="15.001124510274256"><ele>9.4</ele><time>2026-04-25T14:51:24.999Z</time></trkpt><trkpt lat="40.344531154955476" lon="15.000951758509322"><ele>9.0</ele><time>2026-04-25T14:51:25.999Z</time></trkpt><trkpt lat="40.34450291707689" lon="15.000772812708679"><ele>8.666666666666666</ele><time>2026-04-25T14:51:26.999Z</time></trkpt><trkpt lat="40.344391345834055" lon="15.000616455181948"><ele>8.333333333333332</ele><time>2026-04-25T14:51:27.999Z</time></trkpt><trkpt lat="40.344345454712936" lon="15.000434907364538"><ele>8.0</ele><time>2026-04-25T14:51:28.999Z</time></trkpt><trkpt lat="40.34429736696642" lon="15.000249534109999"><ele>8.0</ele><time>2026-04-25T14:51:29.999Z</time></trkpt><trkpt lat="40.344247565382844" lon="15.000057098077924"><ele>8.0</ele><time>2026-04-25T14:51:30.999Z</time></trkpt><trkpt lat="40.34419774527958" lon="14.99986411172865"><ele>8.0</ele><time>2026-04-25T14:51:31.999Z</time></trkpt><trkpt lat="40.34414748627478" lon="14.999669425294423"><ele>8.0</ele><time>2026-04-25T14:51:32.999Z</time></trkpt><trkpt lat="40.344095342937344" lon="14.999467439633568"><ele>8.0</ele><time>2026-04-25T14:51:33.999Z</time></trkpt><trkpt lat="40.34404323320733" lon="14.999270344034322"><ele>8.0</ele><time>2026-04-25T14:51:34.999Z</time></trkpt><trkpt lat="40.343995799453346" lon="14.999090629786041"><ele>8.0</ele><time>2026-04-25T14:51:35.999Z</time></trkpt><trkpt lat="40.34395052732839" lon="14.998919913441936"><ele>8.0</ele><time>2026-04-25T14:51:36.999Z</time></trkpt><trkpt lat="40.34391023674649" lon="14.998768447195099"><ele>8.0</ele><time>2026-04-25T14:51:37.999Z</time></trkpt><trkpt lat="40.3438761349066" lon="14.99864582901665"><ele>8.0</ele><time>2026-04-25T14:51:38.999Z</time></trkpt><trkpt lat="40.34385313226703" lon="14.998541794557948"><ele>8.0</ele><time>2026-04-25T14:51:39.999Z</time></trkpt><trkpt lat="40.34386878939943" lon="14.9984426308415"><ele>8.0</ele><time>2026-04-25T14:51:40.999Z</time></trkpt><trkpt lat="40.34393619168225" lon="14.998364687951993"><ele>8.0</ele><time>2026-04-25T14:51:41.999Z</time></trkpt><trkpt lat="40.3440536191509" lon="14.998374775280967"><ele>8.0</ele><time>2026-04-25T14:51:42.999Z</time></trkpt><trkpt lat="40.34412781170769" lon="14.998511542394223"><ele>8.0</ele><time>2026-04-25T14:51:43.999Z</time></trkpt><trkpt lat="40.34424766649998" lon="14.998567496381478"><ele>8.0</ele><time>2026-04-25T14:51:44.999Z</time></trkpt><trkpt lat="40.34443562808562" lon="14.998650063513736"><ele>8.0</ele><time>2026-04-25T14:51:45.999Z</time></trkpt><trkpt lat="40.344578692709746" lon="14.998711169562513"><ele>8.0</ele><time>2026-04-25T14:51:46.999Z</time></trkpt><trkpt lat="40.34473257563164" lon="14.998774861723087"><ele>8.333333333333332</ele><time>2026-04-25T14:51:47.999Z</time></trkpt><trkpt lat="40.344889491703476" lon="14.9988381111648"><ele>8.666666666666666</ele><time>2026-04-25T14:51:48.999Z</time></trkpt><trkpt lat="40.34503971125672" lon="14.998893419283947"><ele>9.0</ele><time>2026-04-25T14:51:49.999Z</time></trkpt><trkpt lat="40.345189652682535" lon="14.998927690106912"><ele>9.0</ele><time>2026-04-25T14:51:50.999Z</time></trkpt><trkpt lat="40.345343269805156" lon="14.99893903217151"><ele>9.0</ele><time>2026-04-25T14:51:51.999Z</time></trkpt><trkpt lat="40.34550413548994" lon="14.998958784243046"><ele>9.0</ele><time>2026-04-25T14:51:52.999Z</time></trkpt><trkpt lat="40.34565423506693" lon="14.998973921936857"><ele>8.75</ele><time>2026-04-25T14:51:53.999Z</time></trkpt><trkpt lat="40.34579258028078" lon="14.998986313893255"><ele>8.5</ele><time>2026-04-25T14:51:54.999Z</time></trkpt><trkpt lat="40.34592447126876" lon="14.998998665281272"><ele>8.25</ele><time>2026-04-25T14:51:55.999Z</time></trkpt><trkpt lat="40.346048629024054" lon="14.999012064792993"><ele>8.0</ele><time>2026-04-25T14:51:56.999Z</time></trkpt><trkpt lat="40.34615729398508" lon="14.999022031164495"><ele>8.0</ele><time>2026-04-25T14:51:57.999Z</time></trkpt><trkpt lat="40.34625542864857" lon="14.998997518986888"><ele>8.0</ele><time>2026-04-25T14:51:58.999Z</time></trkpt><trkpt lat="40.3462997066949" lon="14.998902335660366"><ele>8.0</ele><time>2026-04-25T14:51:59.999Z</time></trkpt><trkpt lat="40.34636739516398" lon="14.99881251391419"><ele>8.0</ele><time>2026-04-25T14:52:00.999Z</time></trkpt><trkpt lat="40.34644495671259" lon="14.998699347833634"><ele>8.0</ele><time>2026-04-25T14:52:01.999Z</time></trkpt><trkpt lat="40.34652148397187" lon="14.998575687306527"><ele>8.200000000000001</ele><time>2026-04-25T14:52:02.999Z</time></trkpt><trkpt lat="40.34659700687952" lon="14.998449539794517"><ele>8.4</ele><time>2026-04-25T14:52:03.999Z</time></trkpt><trkpt lat="40.34666374931736" lon="14.998335240244524"><ele>8.600000000000001</ele><time>2026-04-25T14:52:04.999Z</time></trkpt><trkpt lat="40.34672570492766" lon="14.998222618746032"><ele>8.8</ele><time>2026-04-25T14:52:05.999Z</time></trkpt><trkpt lat="40.34678327006335" lon="14.998114399220032"><ele>9.0</ele><time>2026-04-25T14:52:06.999Z</time></trkpt><trkpt lat="40.34682607322416" lon="14.998024397039815"><ele>9.0</ele><time>2026-04-25T14:52:07.999Z</time></trkpt><trkpt lat="40.3468731222098" lon="14.997917092394742"><ele>9.0</ele><time>2026-04-25T14:52:09.999Z</time></trkpt><trkpt lat="40.346947338099575" lon="14.997899403842206"><ele>9.0</ele><time>2026-04-25T14:52:12.999Z</time></trkpt><trkpt lat="40.3468660167697" lon="14.997750131287516"><ele>9.0</ele><time>2026-04-25T14:52:25.999Z</time></trkpt><trkpt lat="40.34675852886475" lon="14.997706310492894"><ele>9.0</ele><time>2026-04-25T14:52:26.999Z</time></trkpt><trkpt lat="40.346625639332906" lon="14.997654370459973"><ele>9.0</ele><time>2026-04-25T14:52:27.999Z</time></trkpt><trkpt lat="40.346487215854026" lon="14.997589133316138"><ele>9.0</ele><time>2026-04-25T14:52:28.999Z</time></trkpt><trkpt lat="40.34633667623432" lon="14.997514429053973"><ele>9.0</ele><time>2026-04-25T14:52:29.999Z</time></trkpt><trkpt lat="40.34620505988625" lon="14.997453067522512"><ele>9.0</ele><time>2026-04-25T14:52:30.999Z</time></trkpt><trkpt lat="40.34607741906991" lon="14.997390490351345"><ele>9.5</ele><time>2026-04-25T14:52:31.999Z</time></trkpt><trkpt lat="40.34595521468239" lon="14.997328598552482"><ele>10.0</ele><time>2026-04-25T14:52:32.999Z</time></trkpt><trkpt lat="40.345835578181735" lon="14.997273603044253"><ele>10.5</ele><time>2026-04-25T14:52:33.999Z</time></trkpt><trkpt lat="40.345712082283626" lon="14.997216169359524"><ele>11.0</ele><time>2026-04-25T14:52:34.999Z</time></trkpt><trkpt lat="40.345585535406876" lon="14.997146510712248"><ele>11.0</ele><time>2026-04-25T14:52:35.999Z</time></trkpt><trkpt lat="40.34547262403684" lon="14.997084352779925"><ele>11.0</ele><time>2026-04-25T14:52:36.999Z</time></trkpt><trkpt lat="40.345371855768704" lon="14.997035678039259"><ele>11.0</ele><time>2026-04-25T14:52:37.999Z</time></trkpt><trkpt lat="40.345271804888725" lon="14.996982179104995"><ele>11.0</ele><time>2026-04-25T14:52:38.999Z</time></trkpt><trkpt lat="40.34515488470902" lon="14.996927235001092"><ele>11.0</ele><time>2026-04-25T14:52:39.999Z</time></trkpt><trkpt lat="40.34502920972965" lon="14.9968820998013"><ele>11.0</ele><time>2026-04-25T14:52:40.999Z</time></trkpt><trkpt lat="40.3448887179688" lon="14.996846041207288"><ele>11.0</ele><time>2026-04-25T14:52:41.999Z</time></trkpt><trkpt lat="40.34474603179914" lon="14.99682865699222"><ele>11.0</ele><time>2026-04-25T14:52:42.999Z</time></trkpt><trkpt lat="40.34460376555613" lon="14.996805925926052"><ele>11.25</ele><time>2026-04-25T14:52:43.999Z</time></trkpt><trkpt lat="40.344456198707306" lon="14.996784540199352"><ele>11.5</ele><time>2026-04-25T14:52:44.999Z</time></trkpt><trkpt lat="40.344310061211964" lon="14.996754636997517"><ele>11.75</ele><time>2026-04-25T14:52:45.999Z</time></trkpt><trkpt lat="40.34417588620845" lon="14.996715434393481"><ele>12.0</ele><time>2026-04-25T14:52:46.999Z</time></trkpt><trkpt lat="40.34405786746802" lon="14.996667342473728"><ele>11.8</ele><time>2026-04-25T14:52:47.999Z</time></trkpt><trkpt lat="40.343961802161296" lon="14.99658118223834"><ele>11.6</ele><time>2026-04-25T14:52:48.999Z</time></trkpt><trkpt lat="40.34389277856689" lon="14.996454116220033"><ele>11.4</ele><time>2026-04-25T14:52:49.999Z</time></trkpt><trkpt lat="40.34383511769399" lon="14.996333476887735"><ele>11.200000000000001</ele><time>2026-04-25T14:52:50.999Z</time></trkpt><trkpt lat="40.34379821244714" lon="14.99622778912918"><ele>11.0</ele><time>2026-04-25T14:52:51.999Z</time></trkpt><trkpt lat="40.34378102738545" lon="14.996120316569284"><ele>11.0</ele><time>2026-04-25T14:52:52.999Z</time></trkpt><trkpt lat="40.343734053387855" lon="14.996035864059673"><ele>11.0</ele><time>2026-04-25T14:52:53.999Z</time></trkpt><trkpt lat="40.343641560206414" lon="14.995951188644892"><ele>11.0</ele><time>2026-04-25T14:52:55.999Z</time></trkpt><trkpt lat="40.34355310698227" lon="14.995997566584496"><ele>11.0</ele><time>2026-04-25T14:52:56.999Z</time></trkpt><trkpt lat="40.343467969468705" lon="14.996078838273245"><ele>11.0</ele><time>2026-04-25T14:52:57.999Z</time></trkpt><trkpt lat="40.34336259384641" lon="14.996201936603404"><ele>11.0</ele><time>2026-04-25T14:52:58.998Z</time></trkpt><trkpt lat="40.34321897859713" lon="14.996285087810808"><ele>11.0</ele><time>2026-04-25T14:52:59.998Z</time></trkpt><trkpt lat="40.34311064117654" lon="14.996382886003353"><ele>11.0</ele><time>2026-04-25T14:53:00.998Z</time></trkpt><trkpt lat="40.3430040112958" lon="14.996478717453716"><ele>11.0</ele><time>2026-04-25T14:53:01.998Z</time></trkpt><trkpt lat="40.34289084912425" lon="14.996579673092153"><ele>11.333333333333332</ele><time>2026-04-25T14:53:03Z</time></trkpt><trkpt lat="40.34277218814274" lon="14.996681315641643"><ele>11.666666666666666</ele><time>2026-04-25T14:53:04Z</time></trkpt><trkpt lat="40.34264478183397" lon="14.996782824358307"><ele>12.0</ele><time>2026-04-25T14:53:05Z</time></trkpt><trkpt lat="40.342505844085544" lon="14.99688378031212"><ele>12.0</ele><time>2026-04-25T14:53:06Z</time></trkpt><trkpt lat="40.34237343154498" lon="14.99698085273327"><ele>12.0</ele><time>2026-04-25T14:53:07Z</time></trkpt><trkpt lat="40.34225503049231" lon="14.997068695825172"><ele>12.0</ele><time>2026-04-25T14:53:08Z</time></trkpt><trkpt lat="40.34214710409892" lon="14.997149083452406"><ele>12.0</ele><time>2026-04-25T14:53:09Z</time></trkpt><trkpt lat="40.3420504928043" lon="14.997221999848046"><ele>12.0</ele><time>2026-04-25T14:53:10Z</time></trkpt><trkpt lat="40.341949658404" lon="14.997299471458868"><ele>12.0</ele><time>2026-04-25T14:53:11Z</time></trkpt><trkpt lat="40.34184225541326" lon="14.997386302656153"><ele>12.0</ele><time>2026-04-25T14:53:12Z</time></trkpt><trkpt lat="40.341728420700086" lon="14.997479655102477"><ele>12.0</ele><time>2026-04-25T14:53:13Z</time></trkpt><trkpt lat="40.341609338719955" lon="14.99757731073357"><ele>12.0</ele><time>2026-04-25T14:53:14Z</time></trkpt><trkpt lat="40.34149507552603" lon="14.99767101464644"><ele>12.0</ele><time>2026-04-25T14:53:15Z</time></trkpt><trkpt lat="40.34139029555358" lon="14.997756942103033"><ele>12.0</ele><time>2026-04-25T14:53:16Z</time></trkpt><trkpt lat="40.341294431825126" lon="14.997838354271469"><ele>12.0</ele><time>2026-04-25T14:53:17Z</time></trkpt><trkpt lat="40.34120227517698" lon="14.997917277600372"><ele>13.0</ele><time>2026-04-25T14:53:18Z</time></trkpt><trkpt lat="40.34112108862856" lon="14.99800255479502"><ele>14.0</ele><time>2026-04-25T14:53:19Z</time></trkpt><trkpt lat="40.34105335820465" lon="14.998061100116937"><ele>15.0</ele><time>2026-04-25T14:53:20Z</time></trkpt><trkpt lat="40.34099386828543" lon="14.998113698578436"><ele>16.0</ele><time>2026-04-25T14:53:21Z</time></trkpt><trkpt lat="40.34088751091469" lon="14.998161064035981"><ele>17.0</ele><time>2026-04-25T14:53:23Z</time></trkpt><trkpt lat="40.34077786381237" lon="14.998171475877113"><ele>17.0</ele><time>2026-04-25T14:53:25Z</time></trkpt><trkpt lat="40.34069503148982" lon="14.998204996243976"><ele>17.0</ele><time>2026-04-25T14:53:27Z</time></trkpt><trkpt lat="40.340644737035944" lon="14.99835077628753"><ele>17.0</ele><time>2026-04-25T14:53:29Z</time></trkpt><trkpt lat="40.34061678426271" lon="14.998443131985093"><ele>17.0</ele><time>2026-04-25T14:53:30Z</time></trkpt><trkpt lat="40.34057438784839" lon="14.998539974921433"><ele>17.0</ele><time>2026-04-25T14:53:31Z</time></trkpt><trkpt lat="40.34050012735898" lon="14.998605192370094"><ele>17.0</ele><time>2026-04-25T14:53:32Z</time></trkpt><trkpt lat="40.340452710303474" lon="14.99870203904369"><ele>17.0</ele><time>2026-04-25T14:53:33Z</time></trkpt><trkpt lat="40.34036252208157" lon="14.998740864544947"><ele>17.0</ele><time>2026-04-25T14:53:34Z</time></trkpt><trkpt lat="40.34029127828637" lon="14.998817202433177"><ele>17.0</ele><time>2026-04-25T14:53:34.999Z</time></trkpt><trkpt lat="40.34021704762114" lon="14.9989009716528"><ele>17.0</ele><time>2026-04-25T14:53:35.999Z</time></trkpt><trkpt lat="40.34017043365622" lon="14.999037445264852"><ele>17.0</ele><time>2026-04-25T14:53:36.999Z</time></trkpt><trkpt lat="40.34009961325735" lon="14.999174043404011"><ele>17.0</ele><time>2026-04-25T14:53:37.999Z</time></trkpt><trkpt lat="40.34003725825772" lon="14.999352471022013"><ele>17.0</ele><time>2026-04-25T14:53:38.999Z</time></trkpt><trkpt lat="40.3399772405653" lon="14.99957440616987"><ele>17.0</ele><time>2026-04-25T14:53:39.999Z</time></trkpt><trkpt lat="40.33986685967281" lon="14.999779747631559"><ele>17.0</ele><time>2026-04-25T14:53:40.999Z</time></trkpt><trkpt lat="40.33983089209125" lon="14.999985029749306"><ele>17.0</ele><time>2026-04-25T14:53:41.999Z</time></trkpt><trkpt lat="40.33979851259647" lon="15.00017121185154"><ele>17.0</ele><time>2026-04-25T14:53:42.999Z</time></trkpt><trkpt lat="40.33976608242703" lon="15.000352055955679"><ele>17.0</ele><time>2026-04-25T14:53:43.999Z</time></trkpt><trkpt lat="40.33973139499528" lon="15.000533627112516"><ele>17.0</ele><time>2026-04-25T14:53:44.999Z</time></trkpt><trkpt lat="40.33969415156912" lon="15.000704065304253"><ele>17.0</ele><time>2026-04-25T14:53:45.999Z</time></trkpt><trkpt lat="40.339648669181685" lon="15.000868728653568"><ele>21.5</ele><time>2026-04-25T14:53:46.999Z</time></trkpt><trkpt lat="40.3395888891115" lon="15.001028581410091"><ele>26.0</ele><time>2026-04-25T14:53:47.999Z</time></trkpt><trkpt lat="40.33951639041524" lon="15.00118058537599"><ele>30.5</ele><time>2026-04-25T14:53:48.999Z</time></trkpt><trkpt lat="40.33942385260658" lon="15.001303919283961"><ele>35.0</ele><time>2026-04-25T14:53:49.999Z</time></trkpt><trkpt lat="40.339325020742585" lon="15.001429385202346"><ele>35.0</ele><time>2026-04-25T14:53:50.999Z</time></trkpt><trkpt lat="40.33923037011384" lon="15.00154494005221"><ele>35.0</ele><time>2026-04-25T14:53:51.999Z</time></trkpt><trkpt lat="40.33914093297436" lon="15.001651174483532"><ele>35.0</ele><time>2026-04-25T14:53:52.999Z</time></trkpt><trkpt lat="40.339058555754434" lon="15.001758082744354"><ele>35.0</ele><time>2026-04-25T14:53:53.999Z</time></trkpt><trkpt lat="40.33894910001233" lon="15.001831177998016"><ele>32.5</ele><time>2026-04-25T14:53:54.999Z</time></trkpt><trkpt lat="40.33883165945168" lon="15.001846381991568"><ele>30.0</ele><time>2026-04-25T14:53:55.999Z</time></trkpt><trkpt lat="40.33871259252009" lon="15.001856077151526"><ele>27.5</ele><time>2026-04-25T14:53:56.999Z</time></trkpt><trkpt lat="40.338585589793205" lon="15.001841641165468"><ele>25.0</ele><time>2026-04-25T14:53:57.999Z</time></trkpt><trkpt lat="40.338473528656614" lon="15.001837377775988"><ele>25.000000000000004</ele><time>2026-04-25T14:53:58.999Z</time></trkpt><trkpt lat="40.33836825174942" lon="15.00183397840015"><ele>25.0</ele><time>2026-04-25T14:53:59.999Z</time></trkpt><trkpt lat="40.33827819965176" lon="15.001838094596014"><ele>25.0</ele><time>2026-04-25T14:54:00.999Z</time></trkpt><trkpt lat="40.338202779043925" lon="15.001850383873782"><ele>25.0</ele><time>2026-04-25T14:54:01.999Z</time></trkpt><trkpt lat="40.33813679806723" lon="15.001867442172475"><ele>25.000000000000004</ele><time>2026-04-25T14:54:02.999Z</time></trkpt><trkpt lat="40.33807402287618" lon="15.001891786575964"><ele>25.0</ele><time>2026-04-25T14:54:03.999Z</time></trkpt><trkpt lat="40.337981203436904" lon="15.001934153353103"><ele>25.75</ele><time>2026-04-25T14:54:04.999Z</time></trkpt><trkpt lat="40.33786378329046" lon="15.001990062196564"><ele>26.5</ele><time>2026-04-25T14:54:05.999Z</time></trkpt><trkpt lat="40.33771731349474" lon="15.002055830406075"><ele>27.25</ele><time>2026-04-25T14:54:06.999Z</time></trkpt><trkpt lat="40.337586731945336" lon="15.002112317137344"><ele>28.0</ele><time>2026-04-25T14:54:07.999Z</time></trkpt><trkpt lat="40.33746635835859" lon="15.002174030308712"><ele>28.000000000000004</ele><time>2026-04-25T14:54:08.999Z</time></trkpt><trkpt lat="40.33736384399534" lon="15.00223751419572"><ele>28.0</ele><time>2026-04-25T14:54:09.999Z</time></trkpt><trkpt lat="40.33726812804086" lon="15.00227233450103"><ele>28.0</ele><time>2026-04-25T14:54:10.999Z</time></trkpt><trkpt lat="40.33720822158912" lon="15.002339653753276"><ele>28.0</ele><time>2026-04-25T14:54:11.999Z</time></trkpt><trkpt lat="40.33714835168275" lon="15.002368519102568"><ele>28.000000000000004</ele><time>2026-04-25T14:54:13.999Z</time></trkpt><trkpt lat="40.33706873072187" lon="15.002409658861197"><ele>28.0</ele><time>2026-04-25T14:54:16.999Z</time></trkpt><trkpt lat="40.33699123729688" lon="15.002447292151535"><ele>27.599999999999998</ele><time>2026-04-25T14:54:18.999Z</time></trkpt><trkpt lat="40.33691053665242" lon="15.002537715351137"><ele>27.199999999999996</ele><time>2026-04-25T14:54:20.999Z</time></trkpt><trkpt lat="40.33692520516716" lon="15.002648117302698"><ele>26.8</ele><time>2026-04-25T14:54:21.999Z</time></trkpt><trkpt lat="40.33702255272767" lon="15.002710953570991"><ele>26.4</ele><time>2026-04-25T14:54:22.999Z</time></trkpt><trkpt lat="40.33710000731964" lon="15.00269470743303"><ele>26.0</ele><time>2026-04-25T14:54:23.999Z</time></trkpt><trkpt lat="40.337155777782904" lon="15.002591443541126"><ele>26.5</ele><time>2026-04-25T14:54:24.999Z</time></trkpt><trkpt lat="40.33716004915519" lon="15.002489262318058"><ele>27.0</ele><time>2026-04-25T14:54:25.999Z</time></trkpt><trkpt lat="40.337182731374334" lon="15.00237806046661"><ele>27.5</ele><time>2026-04-25T14:54:26.999Z</time></trkpt><trkpt lat="40.337299369621455" lon="15.002282382570744"><ele>28.0</ele><time>2026-04-25T14:54:27.999Z</time></trkpt><trkpt lat="40.33744545447524" lon="15.002221844540916"><ele>28.0</ele><time>2026-04-25T14:54:28.999Z</time></trkpt><trkpt lat="40.33758729115894" lon="15.00214087203322"><ele>28.0</ele><time>2026-04-25T14:54:29.999Z</time></trkpt><trkpt lat="40.33772900985956" lon="15.00208085430856"><ele>28.0</ele><time>2026-04-25T14:54:30.999Z</time></trkpt><trkpt lat="40.337860571156725" lon="15.002021679594224"><ele>28.0</ele><time>2026-04-25T14:54:31.999Z</time></trkpt><trkpt lat="40.337975172118526" lon="15.001971482492886"><ele>27.25</ele><time>2026-04-25T14:54:32.999Z</time></trkpt><trkpt lat="40.33807868314767" lon="15.00193262455446"><ele>26.5</ele><time>2026-04-25T14:54:33.999Z</time></trkpt><trkpt lat="40.33819424990842" lon="15.001883035179427"><ele>25.75</ele><time>2026-04-25T14:54:34.999Z</time></trkpt><trkpt lat="40.3383285735856" lon="15.001893885771828"><ele>25.0</ele><time>2026-04-25T14:54:35.999Z</time></trkpt><trkpt lat="40.33845552597472" lon="15.001898647016704"><ele>25.0</ele><time>2026-04-25T14:54:36.999Z</time></trkpt><trkpt lat="40.33857233812207" lon="15.00190816782001"><ele>25.0</ele><time>2026-04-25T14:54:37.999Z</time></trkpt><trkpt lat="40.33868571152822" lon="15.001916609095636"><ele>25.0</ele><time>2026-04-25T14:54:38.999Z</time></trkpt><trkpt lat="40.33880223393391" lon="15.001910234387424"><ele>25.0</ele><time>2026-04-25T14:54:39.999Z</time></trkpt><trkpt lat="40.33891526108257" lon="15.001875724174967"><ele>23.75</ele><time>2026-04-25T14:54:40.999Z</time></trkpt><trkpt lat="40.339036315504956" lon="15.001837451215902"><ele>22.5</ele><time>2026-04-25T14:54:41.999Z</time></trkpt><trkpt lat="40.339145200283575" lon="15.001758570489406"><ele>21.25</ele><time>2026-04-25T14:54:42.999Z</time></trkpt><trkpt lat="40.33924149501069" lon="15.001662231579967"><ele>20.0</ele><time>2026-04-25T14:54:43.999Z</time></trkpt><trkpt lat="40.33933283758428" lon="15.00154776284605"><ele>23.75</ele><time>2026-04-25T14:54:44.999Z</time></trkpt><trkpt lat="40.339427783715266" lon="15.001427842637623"><ele>27.5</ele><time>2026-04-25T14:54:45.999Z</time></trkpt><trkpt lat="40.339522015323844" lon="15.001310507507046"><ele>31.25</ele><time>2026-04-25T14:54:46.999Z</time></trkpt><trkpt lat="40.33960594216991" lon="15.001196767137323"><ele>35.0</ele><time>2026-04-25T14:54:47.999Z</time></trkpt><trkpt lat="40.33967582297728" lon="15.001079185384405"><ele>30.5</ele><time>2026-04-25T14:54:48.999Z</time></trkpt><trkpt lat="40.33973457116049" lon="15.000951734381347"><ele>26.0</ele><time>2026-04-25T14:54:49.999Z</time></trkpt><trkpt lat="40.33977678950568" lon="15.000808685414592"><ele>21.5</ele><time>2026-04-25T14:54:50.999Z</time></trkpt><trkpt lat="40.33981265163884" lon="15.00065392042565"><ele>17.0</ele><time>2026-04-25T14:54:51.999Z</time></trkpt><trkpt lat="40.33984859557869" lon="15.00048637891394"><ele>17.0</ele><time>2026-04-25T14:54:52.999Z</time></trkpt><trkpt lat="40.33988174016993" lon="15.000310318280532"><ele>17.0</ele><time>2026-04-25T14:54:53.999Z</time></trkpt><trkpt lat="40.33991271340823" lon="15.000130508697529"><ele>17.0</ele><time>2026-04-25T14:54:54.999Z</time></trkpt><trkpt lat="40.33994256419545" lon="14.999965696913502"><ele>17.0</ele><time>2026-04-25T14:54:55.999Z</time></trkpt><trkpt lat="40.33997275815979" lon="14.999804220294969"><ele>17.0</ele><time>2026-04-25T14:54:56.999Z</time></trkpt><trkpt lat="40.340002389561874" lon="14.999649600034923"><ele>17.0</ele><time>2026-04-25T14:54:57.999Z</time></trkpt><trkpt lat="40.34003483371031" lon="14.999508967559764"><ele>17.0</ele><time>2026-04-25T14:54:58.999Z</time></trkpt><trkpt lat="40.34007077567727" lon="14.999379338663324"><ele>17.0</ele><time>2026-04-25T14:54:59.999Z</time></trkpt><trkpt lat="40.34010970441326" lon="14.999260427641444"><ele>17.0</ele><time>2026-04-25T14:55:00.999Z</time></trkpt><trkpt lat="40.34014961691633" lon="14.99916105170345"><ele>17.0</ele><time>2026-04-25T14:55:01.999Z</time></trkpt><trkpt lat="40.340171842424446" lon="14.9990816665872"><ele>17.0</ele><time>2026-04-25T14:55:02.999Z</time></trkpt><trkpt lat="40.33997424285331" lon="14.999064539347485"><ele>17.0</ele><time>2026-04-25T14:55:07.999Z</time></trkpt><trkpt lat="40.3399042230783" lon="14.999187082813206"><ele>17.0</ele><time>2026-04-25T14:55:09Z</time></trkpt><trkpt lat="40.33983117349029" lon="14.999319375796416"><ele>17.0</ele><time>2026-04-25T14:55:10Z</time></trkpt><trkpt lat="40.33976664907932" lon="14.999406480449734"><ele>17.0</ele><time>2026-04-25T14:55:11Z</time></trkpt><trkpt lat="40.33968366415324" lon="14.999454749163847"><ele>17.0</ele><time>2026-04-25T14:55:12Z</time></trkpt><trkpt lat="40.33961062416347" lon="14.999493907349052"><ele>17.0</ele><time>2026-04-25T14:55:13Z</time></trkpt><trkpt lat="40.339510395066725" lon="14.999516636182037"><ele>17.0</ele><time>2026-04-25T14:55:15Z</time></trkpt><trkpt lat="40.33944676256559" lon="14.999518898928953"><ele>17.0</ele><time>2026-04-25T14:55:16Z</time></trkpt><trkpt lat="40.3393525648802" lon="14.999384000164195"><ele>22.0</ele><time>2026-04-25T14:55:17Z</time></trkpt><trkpt lat="40.339241931559876" lon="14.99925868237689"><ele>27.0</ele><time>2026-04-25T14:55:18Z</time></trkpt><trkpt lat="40.33913352257105" lon="14.999138310878127"><ele>32.0</ele><time>2026-04-25T14:55:19Z</time></trkpt><trkpt lat="40.33902920342445" lon="14.999032596590812"><ele>37.0</ele><time>2026-04-25T14:55:20Z</time></trkpt><trkpt lat="40.33892885230716" lon="14.998939560971293"><ele>40.0</ele><time>2026-04-25T14:55:21Z</time></trkpt><trkpt lat="40.338831511923104" lon="14.998853823718663"><ele>43.0</ele><time>2026-04-25T14:55:22Z</time></trkpt><trkpt lat="40.33873909139769" lon="14.998773886958483"><ele>46.0</ele><time>2026-04-25T14:55:23Z</time></trkpt><trkpt lat="40.33864588717657" lon="14.99868631041053"><ele>49.0</ele><time>2026-04-25T14:55:24Z</time></trkpt><trkpt lat="40.33856835785393" lon="14.998540098209773"><ele>49.0</ele><time>2026-04-25T14:55:25Z</time></trkpt><trkpt lat="40.338491283288434" lon="14.99840917738092"><ele>49.0</ele><time>2026-04-25T14:55:26Z</time></trkpt><trkpt lat="40.338408360732856" lon="14.998295097846588"><ele>49.0</ele><time>2026-04-25T14:55:27Z</time></trkpt><trkpt lat="40.338312429621" lon="14.998179192785694"><ele>49.0</ele><time>2026-04-25T14:55:28Z</time></trkpt><trkpt lat="40.33823369817399" lon="14.998082368527513"><ele>47.6</ele><time>2026-04-25T14:55:29Z</time></trkpt><trkpt lat="40.338170544528595" lon="14.997983920692668"><ele>46.2</ele><time>2026-04-25T14:55:30Z</time></trkpt><trkpt lat="40.3381284902011" lon="14.997879013806196"><ele>44.800000000000004</ele><time>2026-04-25T14:55:31Z</time></trkpt><trkpt lat="40.33814280647129" lon="14.997722976977622"><ele>43.400000000000006</ele><time>2026-04-25T14:55:32Z</time></trkpt><trkpt lat="40.338166696460924" lon="14.99758855091483"><ele>42.0</ele><time>2026-04-25T14:55:33Z</time></trkpt><trkpt lat="40.338174722148096" lon="14.997491026188767"><ele>41.6</ele><time>2026-04-25T14:55:34Z</time></trkpt><trkpt lat="40.338165616675084" lon="14.997373940794798"><ele>41.2</ele><time>2026-04-25T14:55:36Z</time></trkpt><trkpt lat="40.33806292655386" lon="14.99723826940981"><ele>40.8</ele><time>2026-04-25T14:55:38Z</time></trkpt><trkpt lat="40.337968556174104" lon="14.997194613101154"><ele>40.4</ele><time>2026-04-25T14:55:39Z</time></trkpt><trkpt lat="40.337888666706874" lon="14.99715379532509"><ele>40.0</ele><time>2026-04-25T14:55:40Z</time></trkpt><trkpt lat="40.33781552074707" lon="14.99711256542602"><ele>43.4</ele><time>2026-04-25T14:55:41Z</time></trkpt><trkpt lat="40.33773243545501" lon="14.997122871843597"><ele>46.8</ele><time>2026-04-25T14:55:42.999Z</time></trkpt><trkpt lat="40.33766103962826" lon="14.997264451775683"><ele>50.2</ele><time>2026-04-25T14:55:44.999Z</time></trkpt><trkpt lat="40.33775603291695" lon="14.997406966244247"><ele>53.6</ele><time>2026-04-25T14:55:45.999Z</time></trkpt><trkpt lat="40.337789028658364" lon="14.997506416030367"><ele>57.0</ele><time>2026-04-25T14:55:46.999Z</time></trkpt><trkpt lat="40.33778564351735" lon="14.997640475644737"><ele>58.400000000000006</ele><time>2026-04-25T14:55:48.999Z</time></trkpt><trkpt lat="40.33773225590174" lon="14.9977573861375"><ele>59.800000000000004</ele><time>2026-04-25T14:55:50.999Z</time></trkpt><trkpt lat="40.337686138275096" lon="14.997839289021632"><ele>61.2</ele><time>2026-04-25T14:55:51.999Z</time></trkpt><trkpt lat="40.33764125416059" lon="14.997934804711916"><ele>62.6</ele><time>2026-04-25T14:55:52.999Z</time></trkpt><trkpt lat="40.33762061816126" lon="14.998087767070128"><ele>64.0</ele><time>2026-04-25T14:55:53.999Z</time></trkpt><trkpt lat="40.337637206352305" lon="14.998238251037394"><ele>64.60000000000001</ele><time>2026-04-25T14:55:54.999Z</time></trkpt><trkpt lat="40.337680127303216" lon="14.998382590583292"><ele>65.2</ele><time>2026-04-25T14:55:55.999Z</time></trkpt><trkpt lat="40.3377411862118" lon="14.998493918122831"><ele>65.80000000000001</ele><time>2026-04-25T14:55:56.999Z</time></trkpt><trkpt lat="40.337796841033146" lon="14.998596590971456"><ele>66.4</ele><time>2026-04-25T14:55:57.999Z</time></trkpt><trkpt lat="40.337837424322025" lon="14.998689550557847"><ele>67.0</ele><time>2026-04-25T14:55:58.999Z</time></trkpt><trkpt lat="40.33786377454449" lon="14.99876638242941"><ele>67.0</ele><time>2026-04-25T14:55:59.999Z</time></trkpt><trkpt lat="40.337884679376636" lon="14.99885285215831"><ele>67.0</ele><time>2026-04-25T14:56:00.999Z</time></trkpt><trkpt lat="40.337901015320256" lon="14.99894206350736"><ele>67.0</ele><time>2026-04-25T14:56:01.999Z</time></trkpt><trkpt lat="40.337900239671924" lon="14.99907811076409"><ele>67.0</ele><time>2026-04-25T14:56:03.999Z</time></trkpt><trkpt lat="40.33787236787357" lon="14.999180065621188"><ele>67.0</ele><time>2026-04-25T14:56:05.999Z</time></trkpt><trkpt lat="40.33777133664594" lon="14.999279203070635"><ele>65.8</ele><time>2026-04-25T14:56:07.999Z</time></trkpt><trkpt lat="40.33768526251953" lon="14.999343316695988"><ele>64.6</ele><time>2026-04-25T14:56:08.999Z</time></trkpt><trkpt lat="40.33759533328661" lon="14.999394350778879"><ele>63.39999999999999</ele><time>2026-04-25T14:56:09.999Z</time></trkpt><trkpt lat="40.33751324308182" lon="14.999425662030779"><ele>62.199999999999996</ele><time>2026-04-25T14:56:10.999Z</time></trkpt><trkpt lat="40.337425194048556" lon="14.999438944476937"><ele>61.0</ele><time>2026-04-25T14:56:11.999Z</time></trkpt><trkpt lat="40.33731277400641" lon="14.999432000913519"><ele>62.8</ele><time>2026-04-25T14:56:12.999Z</time></trkpt><trkpt lat="40.337180322458224" lon="14.999436884899653"><ele>64.6</ele><time>2026-04-25T14:56:13.999Z</time></trkpt><trkpt lat="40.33707546164536" lon="14.99942364461541"><ele>66.4</ele><time>2026-04-25T14:56:14.999Z</time></trkpt><trkpt lat="40.33698876519541" lon="14.999404570781437"><ele>68.2</ele><time>2026-04-25T14:56:15.999Z</time></trkpt><trkpt lat="40.33691330983405" lon="14.999380619163198"><ele>70.0</ele><time>2026-04-25T14:56:16.999Z</time></trkpt><trkpt lat="40.336839836849435" lon="14.999298824787768"><ele>71.83333333333333</ele><time>2026-04-25T14:56:18.999Z</time></trkpt><trkpt lat="40.33685584208828" lon="14.999166822901872"><ele>73.66666666666666</ele><time>2026-04-25T14:56:20.999Z</time></trkpt><trkpt lat="40.336931889677494" lon="14.999128408943761"><ele>75.5</ele><time>2026-04-25T14:56:21.999Z</time></trkpt><trkpt lat="40.33697719372637" lon="14.999056599198443"><ele>77.33333333333333</ele><time>2026-04-25T14:56:22.999Z</time></trkpt><trkpt lat="40.33701762877135" lon="14.998938506232884"><ele>79.16666666666667</ele><time>2026-04-25T14:56:24.999Z</time></trkpt><trkpt lat="40.33694449580392" lon="14.99889549542314"><ele>81.0</ele><time>2026-04-25T14:56:27.999Z</time></trkpt><trkpt lat="40.33687597588729" lon="14.998920961697351"><ele>81.0</ele><time>2026-04-25T14:56:28.999Z</time></trkpt><trkpt lat="40.336804266793166" lon="14.9989413096972"><ele>81.0</ele><time>2026-04-25T14:56:29.999Z</time></trkpt><trkpt lat="40.33673657559623" lon="14.998985252712366"><ele>81.0</ele><time>2026-04-25T14:56:30.999Z</time></trkpt><trkpt lat="40.33665125600679" lon="14.9990353942885"><ele>81.0</ele><time>2026-04-25T14:56:31.999Z</time></trkpt><trkpt lat="40.33656236376735" lon="14.999077985757374"><ele>81.0</ele><time>2026-04-25T14:56:32.999Z</time></trkpt><trkpt lat="40.33646531313955" lon="14.999123682065875"><ele>81.0</ele><time>2026-04-25T14:56:33.999Z</time></trkpt><trkpt lat="40.33638016411352" lon="14.999187952634884"><ele>80.83333333333333</ele><time>2026-04-25T14:56:34.999Z</time></trkpt><trkpt lat="40.336284130292356" lon="14.999233367265093"><ele>80.66666666666667</ele><time>2026-04-25T14:56:35.999Z</time></trkpt><trkpt lat="40.33619515260599" lon="14.999248321755642"><ele>80.5</ele><time>2026-04-25T14:56:36.999Z</time></trkpt><trkpt lat="40.33610555947833" lon="14.999281824838052"><ele>80.33333333333334</ele><time>2026-04-25T14:56:37.999Z</time></trkpt><trkpt lat="40.336042825369226" lon="14.999315512676008"><ele>80.16666666666667</ele><time>2026-04-25T14:56:38.999Z</time></trkpt><trkpt lat="40.3359805010042" lon="14.999294890689857"><ele>80.0</ele><time>2026-04-25T14:56:39.999Z</time></trkpt><trkpt lat="40.33591261419988" lon="14.99924515591707"><ele>80.0</ele><time>2026-04-25T14:56:40.999Z</time></trkpt><trkpt lat="40.33582548529065" lon="14.999180725977833"><ele>80.0</ele><time>2026-04-25T14:56:41.999Z</time></trkpt><trkpt lat="40.33573015322034" lon="14.999148913430183"><ele>80.0</ele><time>2026-04-25T14:56:42.999Z</time></trkpt><trkpt lat="40.335645778705754" lon="14.99908938016917"><ele>80.0</ele><time>2026-04-25T14:56:43.999Z</time></trkpt><trkpt lat="40.335570280393775" lon="14.999055050695858"><ele>80.0</ele><time>2026-04-25T14:56:44.999Z</time></trkpt><trkpt lat="40.33551719023932" lon="14.999004686866833"><ele>80.0</ele><time>2026-04-25T14:56:45.999Z</time></trkpt><trkpt lat="40.33547406702469" lon="14.99888000715421"><ele>83.4</ele><time>2026-04-25T14:56:47.999Z</time></trkpt><trkpt lat="40.335600095995524" lon="14.998798286603861"><ele>86.8</ele><time>2026-04-25T14:56:49.999Z</time></trkpt><trkpt lat="40.33565357854361" lon="14.998868692464512"><ele>90.19999999999999</ele><time>2026-04-25T14:56:50.999Z</time></trkpt><trkpt lat="40.335788629433125" lon="14.998827660006292"><ele>93.6</ele><time>2026-04-25T14:56:53.999Z</time></trkpt><trkpt lat="40.335857564632555" lon="14.998812503290162"><ele>97.0</ele><time>2026-04-25T14:56:54.999Z</time></trkpt><trkpt lat="40.335963959774055" lon="14.998804966129109"><ele>97.0</ele><time>2026-04-25T14:56:56.999Z</time></trkpt><trkpt lat="40.336026219892595" lon="14.998768213115072"><ele>97.0</ele><time>2026-04-25T14:56:58.999Z</time></trkpt><trkpt lat="40.33606122937801" lon="14.998400435040438"><ele>97.0</ele><time>2026-04-25T14:56:59.999Z</time></trkpt><trkpt lat="40.33608672274506" lon="14.998259364801516"><ele>99.19999999999999</ele><time>2026-04-25T14:57:01.999Z</time></trkpt><trkpt lat="40.33605229038237" lon="14.998096128484129"><ele>101.4</ele><time>2026-04-25T14:57:03.999Z</time></trkpt><trkpt lat="40.33601081648318" lon="14.99803031989062"><ele>103.60000000000001</ele><time>2026-04-25T14:57:04.999Z</time></trkpt><trkpt lat="40.3359274829234" lon="14.997963585612863"><ele>105.80000000000001</ele><time>2026-04-25T14:57:06.999Z</time></trkpt><trkpt lat="40.335829631303326" lon="14.99793843403197"><ele>108.0</ele><time>2026-04-25T14:57:08.999Z</time></trkpt><trkpt lat="40.33576171490299" lon="14.997950429635758"><ele>108.0</ele><time>2026-04-25T14:57:09.999Z</time></trkpt><trkpt lat="40.33568863448413" lon="14.997975203592173"><ele>108.0</ele><time>2026-04-25T14:57:10.999Z</time></trkpt><trkpt lat="40.335608850902226" lon="14.998007473756273"><ele>108.0</ele><time>2026-04-25T14:57:11.999Z</time></trkpt><trkpt lat="40.33553569044946" lon="14.99804315911966"><ele>108.0</ele><time>2026-04-25T14:57:12.999Z</time></trkpt><trkpt lat="40.33547702592783" lon="14.998075990991142"><ele>108.0</ele><time>2026-04-25T14:57:13.999Z</time></trkpt><trkpt lat="40.33536687203669" lon="14.998083808021299"><ele>108.0</ele><time>2026-04-25T14:57:16Z</time></trkpt><trkpt lat="40.33529133726462" lon="14.998066521624766"><ele>111.16666666666667</ele><time>2026-04-25T14:57:17Z</time></trkpt><trkpt lat="40.335210949926456" lon="14.998042466209368"><ele>114.33333333333334</ele><time>2026-04-25T14:57:18Z</time></trkpt><trkpt lat="40.33514269057922" lon="14.998020287203602"><ele>117.5</ele><time>2026-04-25T14:57:19Z</time></trkpt><trkpt lat="40.33507421627055" lon="14.99799740773925"><ele>120.66666666666667</ele><time>2026-04-25T14:57:20Z</time></trkpt><trkpt lat="40.335004600211434" lon="14.997973667326006"><ele>123.83333333333334</ele><time>2026-04-25T14:57:21Z</time></trkpt><trkpt lat="40.33493203748167" lon="14.997953463247118"><ele>127.0</ele><time>2026-04-25T14:57:22Z</time></trkpt><trkpt lat="40.334835349156954" lon="14.997955322110041"><ele>127.00000000000001</ele><time>2026-04-25T14:57:24Z</time></trkpt><trkpt lat="40.33477570075525" lon="14.998034782342327"><ele>127.0</ele><time>2026-04-25T14:57:26Z</time></trkpt><trkpt lat="40.334704064844146" lon="14.998139581895703"><ele>127.0</ele><time>2026-04-25T14:57:28Z</time></trkpt><trkpt lat="40.33467049751444" lon="14.998211088191141"><ele>127.0</ele><time>2026-04-25T14:57:29Z</time></trkpt><trkpt lat="40.33463609894461" lon="14.998286780660454"><ele>127.00000000000001</ele><time>2026-04-25T14:57:30Z</time></trkpt><trkpt lat="40.33457120004015" lon="14.998404641006479"><ele>127.0</ele><time>2026-04-25T14:57:32Z</time></trkpt><trkpt lat="40.334538827026456" lon="14.9984780205826"><ele>129.0</ele><time>2026-04-25T14:57:33Z</time></trkpt><trkpt lat="40.334504910220076" lon="14.998551510241576"><ele>131.0</ele><time>2026-04-25T14:57:34Z</time></trkpt><trkpt lat="40.33441727591337" lon="14.998658349679289"><ele>133.0</ele><time>2026-04-25T14:57:36Z</time></trkpt><trkpt lat="40.33434856433693" lon="14.99871659673165"><ele>135.0</ele><time>2026-04-25T14:57:37Z</time></trkpt><trkpt lat="40.334281285358564" lon="14.998771781747406"><ele>137.0</ele><time>2026-04-25T14:57:38Z</time></trkpt><trkpt lat="40.334213040270186" lon="14.9988145374938"><ele>139.0</ele><time>2026-04-25T14:57:39Z</time></trkpt><trkpt lat="40.3340917659835" lon="14.998835277602662"><ele>139.0</ele><time>2026-04-25T14:57:41Z</time></trkpt><trkpt lat="40.33401275355014" lon="14.998836663610646"><ele>139.0</ele><time>2026-04-25T14:57:42Z</time></trkpt><trkpt lat="40.33393511822758" lon="14.99881705782638"><ele>139.0</ele><time>2026-04-25T14:57:43Z</time></trkpt><trkpt lat="40.33385422901046" lon="14.998778617114079"><ele>139.0</ele><time>2026-04-25T14:57:44Z</time></trkpt><trkpt lat="40.33375785967796" lon="14.998720309202795"><ele>139.0</ele><time>2026-04-25T14:57:45Z</time></trkpt><trkpt lat="40.33367826479004" lon="14.998684726766486"><ele>139.0</ele><time>2026-04-25T14:57:46Z</time></trkpt><trkpt lat="40.33354748430695" lon="14.998663684802523"><ele>140.8</ele><time>2026-04-25T14:57:47.999Z</time></trkpt><trkpt lat="40.333456475130326" lon="14.998681110868313"><ele>142.60000000000002</ele><time>2026-04-25T14:57:48.999Z</time></trkpt><trkpt lat="40.33335504316862" lon="14.99869367461812"><ele>144.4</ele><time>2026-04-25T14:57:49.999Z</time></trkpt><trkpt lat="40.3332531234226" lon="14.998701200740872"><ele>146.20000000000002</ele><time>2026-04-25T14:57:50.999Z</time></trkpt><trkpt lat="40.33314198418994" lon="14.998705488156217"><ele>148.0</ele><time>2026-04-25T14:57:51.999Z</time></trkpt><trkpt lat="40.333052922631325" lon="14.998665652379385"><ele>152.66666666666669</ele><time>2026-04-25T14:57:52.999Z</time></trkpt><trkpt lat="40.333014822367545" lon="14.998584837216903"><ele>157.33333333333334</ele><time>2026-04-25T14:57:53.999Z</time></trkpt><trkpt lat="40.332915612178724" lon="14.998565933845393"><ele>162.0</ele><time>2026-04-25T14:57:54.999Z</time></trkpt><trkpt lat="40.332387551711086" lon="14.998507708637131"><ele>147.0</ele><time>2026-04-25T14:57:55.999Z</time></trkpt><trkpt lat="40.33246002179851" lon="14.999312837467116"><ele>147.0</ele><time>2026-04-25T14:57:58.999Z</time></trkpt><trkpt lat="40.3323783306975" lon="14.9993254558585"><ele>147.0</ele><time>2026-04-25T14:57:59.999Z</time></trkpt><trkpt lat="40.33228735828212" lon="14.999313622361276"><ele>147.0</ele><time>2026-04-25T14:58:00.999Z</time></trkpt><trkpt lat="40.332170319806686" lon="14.999291964196857"><ele>147.0</ele><time>2026-04-25T14:58:01.999Z</time></trkpt><trkpt lat="40.332056347836705" lon="14.999263180425451"><ele>147.0</ele><time>2026-04-25T14:58:02.999Z</time></trkpt><trkpt lat="40.33197351319676" lon="14.99923127401855"><ele>148.0</ele><time>2026-04-25T14:58:03.999Z</time></trkpt><trkpt lat="40.331891825985174" lon="14.999198724978216"><ele>149.0</ele><time>2026-04-25T14:58:04.999Z</time></trkpt><trkpt lat="40.331792530237664" lon="14.999174700608211"><ele>150.0</ele><time>2026-04-25T14:58:05.999Z</time></trkpt><trkpt lat="40.33167076840029" lon="14.999157023641816"><ele>151.0</ele><time>2026-04-25T14:58:06.999Z</time></trkpt><trkpt lat="40.331554135399806" lon="14.999136017945323"><ele>152.0</ele><time>2026-04-25T14:58:07.999Z</time></trkpt><trkpt lat="40.331450728251355" lon="14.999104110156793"><ele>158.0</ele><time>2026-04-25T14:58:08.999Z</time></trkpt><trkpt lat="40.33136327295032" lon="14.99907183879401"><ele>164.0</ele><time>2026-04-25T14:58:09.999Z</time></trkpt><trkpt lat="40.33128971989937" lon="14.999055179594123"><ele>170.0</ele><time>2026-04-25T14:58:10.999Z</time></trkpt><trkpt lat="40.331218711714136" lon="14.999049352420812"><ele>176.0</ele><time>2026-04-25T14:58:11.999Z</time></trkpt><trkpt lat="40.33115364399512" lon="14.999047254107197"><ele>182.0</ele><time>2026-04-25T14:58:12.999Z</time></trkpt><trkpt lat="40.33108650689691" lon="14.999036804718857"><ele>188.0</ele><time>2026-04-25T14:58:13.999Z</time></trkpt><trkpt lat="40.33101384736583" lon="14.99903020228245"><ele>194.0</ele><time>2026-04-25T14:58:14.999Z</time></trkpt><trkpt lat="40.33094872595062" lon="14.999014319844806"><ele>194.0</ele><time>2026-04-25T14:58:15.999Z</time></trkpt><trkpt lat="40.33087860597687" lon="14.998995852238908"><ele>194.0</ele><time>2026-04-25T14:58:16.999Z</time></trkpt><trkpt lat="40.33081545493977" lon="14.998975114012188"><ele>194.0</ele><time>2026-04-25T14:58:17.999Z</time></trkpt><trkpt lat="40.330731326029714" lon="14.998994324789837"><ele>194.0</ele><time>2026-04-25T14:58:19.999Z</time></trkpt><trkpt lat="40.33068248844855" lon="14.99907501983474"><ele>194.0</ele><time>2026-04-25T14:58:21.999Z</time></trkpt><trkpt lat="40.33053187966065" lon="14.999252893923362"><ele>196.66666666666669</ele><time>2026-04-25T15:03:37Z</time></trkpt><trkpt lat="40.3304709692985" lon="14.999309896514887"><ele>199.33333333333334</ele><time>2026-04-25T15:03:38Z</time></trkpt><trkpt lat="40.33041514133157" lon="14.999367348162403"><ele>202.0</ele><time>2026-04-25T15:03:39Z</time></trkpt><trkpt lat="40.33035696560358" lon="14.999422869596833"><ele>204.66666666666669</ele><time>2026-04-25T15:03:40Z</time></trkpt><trkpt lat="40.330298607638944" lon="14.9994781674247"><ele>207.33333333333334</ele><time>2026-04-25T15:03:41Z</time></trkpt><trkpt lat="40.33024622872579" lon="14.999538426021738"><ele>210.0</ele><time>2026-04-25T15:03:42Z</time></trkpt><trkpt lat="40.33015801644711" lon="14.99967361797908"><ele>210.0</ele><time>2026-04-25T15:03:44Z</time></trkpt><trkpt lat="40.33009866812742" lon="14.999765298820423"><ele>210.0</ele><time>2026-04-25T15:03:45Z</time></trkpt><trkpt lat="40.330035229557154" lon="14.999867648492604"><ele>210.0</ele><time>2026-04-25T15:03:46Z</time></trkpt><trkpt lat="40.32996515716674" lon="14.999979818470731"><ele>210.0</ele><time>2026-04-25T15:03:47Z</time></trkpt><trkpt lat="40.329886252295786" lon="15.00009348372888"><ele>210.0</ele><time>2026-04-25T15:03:48Z</time></trkpt><trkpt lat="40.32984525322553" lon="15.00026137301137"><ele>210.0</ele><time>2026-04-25T15:03:49Z</time></trkpt><trkpt lat="40.3297571579131" lon="15.000347613601061"><ele>210.0</ele><time>2026-04-25T15:03:50Z</time></trkpt><trkpt lat="40.329676464433106" lon="15.000424303900724"><ele>210.0</ele><time>2026-04-25T15:03:51Z</time></trkpt><trkpt lat="40.32959954970194" lon="15.000496022709264"><ele>210.0</ele><time>2026-04-25T15:03:52Z</time></trkpt><trkpt lat="40.3295307560873" lon="15.00055885624957"><ele>210.0</ele><time>2026-04-25T15:03:53Z</time></trkpt><trkpt lat="40.3294636316503" lon="15.000620830134956"><ele>210.33333333333334</ele><time>2026-04-25T15:03:54Z</time></trkpt><trkpt lat="40.329411148847235" lon="15.000672696156006"><ele>210.66666666666669</ele><time>2026-04-25T15:03:55Z</time></trkpt><trkpt lat="40.329315956556044" lon="15.000783760057416"><ele>211.0</ele><time>2026-04-25T15:03:57Z</time></trkpt><trkpt lat="40.329252221949126" lon="15.000855132360721"><ele>211.33333333333334</ele><time>2026-04-25T15:03:58Z</time></trkpt><trkpt lat="40.329191813612596" lon="15.000923501465865"><ele>211.66666666666669</ele><time>2026-04-25T15:03:59Z</time></trkpt><trkpt lat="40.329142811562775" lon="15.000979495870686"><ele>212.0</ele><time>2026-04-25T15:04:00Z</time></trkpt><trkpt lat="40.32907767549284" lon="15.001050364138615"><ele>212.0</ele><time>2026-04-25T15:04:02Z</time></trkpt><trkpt lat="40.32900817771468" lon="15.00111474525671"><ele>212.0</ele><time>2026-04-25T15:04:04Z</time></trkpt><trkpt lat="40.32894476193936" lon="15.001091628291201"><ele>212.0</ele><time>2026-04-25T15:04:05Z</time></trkpt><trkpt lat="40.32902062722108" lon="15.000807725651207"><ele>212.0</ele><time>2026-04-25T15:04:06.999Z</time></trkpt><trkpt lat="40.329067810863584" lon="15.00070824934862"><ele>212.00000000000003</ele><time>2026-04-25T15:04:07.999Z</time></trkpt><trkpt lat="40.32910809987773" lon="15.000612987433472"><ele>212.0</ele><time>2026-04-25T15:04:08.999Z</time></trkpt><trkpt lat="40.3291415609576" lon="15.000520558442124"><ele>212.0</ele><time>2026-04-25T15:04:09.999Z</time></trkpt><trkpt lat="40.32918145824643" lon="15.000428134537566"><ele>212.0</ele><time>2026-04-25T15:04:10.999Z</time></trkpt><trkpt lat="40.329216053276994" lon="15.000335389798996"><ele>212.00000000000003</ele><time>2026-04-25T15:04:11.999Z</time></trkpt><trkpt lat="40.3292102238647" lon="15.000175809455909"><ele>212.0</ele><time>2026-04-25T15:04:13.999Z</time></trkpt><trkpt lat="40.32916470347695" lon="15.000092607604756"><ele>212.00000000000003</ele><time>2026-04-25T15:04:14.999Z</time></trkpt><trkpt lat="40.329121100313905" lon="15.00001729411713"><ele>212.0</ele><time>2026-04-25T15:04:15.999Z</time></trkpt><trkpt lat="40.32907665974639" lon="14.999941398926975"><ele>212.0</ele><time>2026-04-25T15:04:16.999Z</time></trkpt><trkpt lat="40.329002638675625" lon="14.999897219760072"><ele>212.0</ele><time>2026-04-25T15:04:17.999Z</time></trkpt><trkpt lat="40.3289282835477" lon="14.999862209107892"><ele>212.00000000000003</ele><time>2026-04-25T15:04:18.999Z</time></trkpt><trkpt lat="40.32884684398303" lon="14.999873988986707"><ele>212.0</ele><time>2026-04-25T15:04:19.999Z</time></trkpt><trkpt lat="40.328751242606266" lon="14.999896696746276"><ele>213.2</ele><time>2026-04-25T15:04:20.999Z</time></trkpt><trkpt lat="40.32863542024204" lon="14.999897098526498"><ele>214.39999999999998</ele><time>2026-04-25T15:04:21.999Z</time></trkpt><trkpt lat="40.32851742299573" lon="14.999929459696986"><ele>215.60000000000002</ele><time>2026-04-25T15:04:22.999Z</time></trkpt><trkpt lat="40.32841213485736" lon="14.999973542151766"><ele>216.8</ele><time>2026-04-25T15:04:23.999Z</time></trkpt><trkpt lat="40.328331419618415" lon="14.999991965247565"><ele>218.0</ele><time>2026-04-25T15:04:24.999Z</time></trkpt><trkpt lat="40.32825935808909" lon="14.999986962441222"><ele>218.00000000000003</ele><time>2026-04-25T15:04:25.999Z</time></trkpt><trkpt lat="40.328178057734604" lon="14.999962227292098"><ele>218.0</ele><time>2026-04-25T15:04:26.999Z</time></trkpt><trkpt lat="40.328119786101404" lon="14.999899030299488"><ele>218.0</ele><time>2026-04-25T15:04:27.999Z</time></trkpt><trkpt lat="40.32805882454559" lon="14.999811642186492"><ele>218.0</ele><time>2026-04-25T15:04:28.999Z</time></trkpt><trkpt lat="40.32799154969209" lon="14.999742130087297"><ele>218.00000000000003</ele><time>2026-04-25T15:04:29.999Z</time></trkpt><trkpt lat="40.32790606788347" lon="14.999719177423993"><ele>218.0</ele><time>2026-04-25T15:04:30.999Z</time></trkpt><trkpt lat="40.3278034186308" lon="14.999710191956998"><ele>219.75</ele><time>2026-04-25T15:04:31.999Z</time></trkpt><trkpt lat="40.32769035648884" lon="14.999777662312816"><ele>221.5</ele><time>2026-04-25T15:04:32.999Z</time></trkpt><trkpt lat="40.32755877977733" lon="14.999853807469266"><ele>223.25</ele><time>2026-04-25T15:04:33.999Z</time></trkpt><trkpt lat="40.32741659485485" lon="14.9999265704277"><ele>225.0</ele><time>2026-04-25T15:04:34.999Z</time></trkpt><trkpt lat="40.32730068927447" lon="14.999964944227587"><ele>222.0</ele><time>2026-04-25T15:04:35.999Z</time></trkpt><trkpt lat="40.327194958253216" lon="15.00000304609124"><ele>219.0</ele><time>2026-04-25T15:04:36.999Z</time></trkpt><trkpt lat="40.327080489217636" lon="15.000060913164686"><ele>216.0</ele><time>2026-04-25T15:04:37.999Z</time></trkpt><trkpt lat="40.32696476761615" lon="15.0001274195866"><ele>213.0</ele><time>2026-04-25T15:04:38.999Z</time></trkpt><trkpt lat="40.32685479671726" lon="15.000193335423043"><ele>213.0</ele><time>2026-04-25T15:04:39.999Z</time></trkpt><trkpt lat="40.32674311680354" lon="15.000268910741163"><ele>213.0</ele><time>2026-04-25T15:04:40.999Z</time></trkpt><trkpt lat="40.326634219935144" lon="15.000346386109896"><ele>213.0</ele><time>2026-04-25T15:04:41.999Z</time></trkpt><trkpt lat="40.32652910957515" lon="15.000415502103825"><ele>213.0</ele><time>2026-04-25T15:04:42.999Z</time></trkpt><trkpt lat="40.326423543985236" lon="15.000464189099189"><ele>211.25</ele><time>2026-04-25T15:04:43.999Z</time></trkpt><trkpt lat="40.3263045720604" lon="15.000510225466837"><ele>209.5</ele><time>2026-04-25T15:04:44.999Z</time></trkpt><trkpt lat="40.32618091320679" lon="15.000544763533137"><ele>207.75</ele><time>2026-04-25T15:04:45.999Z</time></trkpt><trkpt lat="40.326060067145214" lon="15.000547598432746"><ele>206.0</ele><time>2026-04-25T15:04:46.999Z</time></trkpt><trkpt lat="40.32593977571258" lon="15.000515149254424"><ele>206.0</ele><time>2026-04-25T15:04:47.999Z</time></trkpt><trkpt lat="40.32582139272152" lon="15.000490722094133"><ele>206.0</ele><time>2026-04-25T15:04:48.999Z</time></trkpt><trkpt lat="40.32571722497042" lon="15.000447877742097"><ele>206.0</ele><time>2026-04-25T15:04:49.999Z</time></trkpt><trkpt lat="40.32561128144298" lon="15.00041478101411"><ele>206.0</ele><time>2026-04-25T15:04:50.999Z</time></trkpt><trkpt lat="40.32548317911829" lon="15.000464122598371"><ele>204.8</ele><time>2026-04-25T15:04:51.999Z</time></trkpt><trkpt lat="40.325358429967054" lon="15.000473777528498"><ele>203.60000000000002</ele><time>2026-04-25T15:04:52.999Z</time></trkpt><trkpt lat="40.325263524214066" lon="15.000482249518285"><ele>202.4</ele><time>2026-04-25T15:04:53.999Z</time></trkpt><trkpt lat="40.325167579966894" lon="15.000468717636016"><ele>201.2</ele><time>2026-04-25T15:04:54.999Z</time></trkpt><trkpt lat="40.32506287104986" lon="15.00043468307308"><ele>200.0</ele><time>2026-04-25T15:04:55.999Z</time></trkpt><trkpt lat="40.32496316692248" lon="15.000381341740091"><ele>200.0</ele><time>2026-04-25T15:04:56.999Z</time></trkpt><trkpt lat="40.32485972823963" lon="15.00032853922457"><ele>200.0</ele><time>2026-04-25T15:04:57.999Z</time></trkpt><trkpt lat="40.32475186871418" lon="15.000292027476258"><ele>200.0</ele><time>2026-04-25T15:04:58.999Z</time></trkpt><trkpt lat="40.32464932922875" lon="15.000213247581522"><ele>200.0</ele><time>2026-04-25T15:04:59.999Z</time></trkpt><trkpt lat="40.32454647205996" lon="15.000109667498947"><ele>200.5</ele><time>2026-04-25T15:05:00.999Z</time></trkpt><trkpt lat="40.32445450867063" lon="14.999986271311862"><ele>201.0</ele><time>2026-04-25T15:05:01.999Z</time></trkpt><trkpt lat="40.32436344330413" lon="14.999855654765202"><ele>201.5</ele><time>2026-04-25T15:05:02.999Z</time></trkpt><trkpt lat="40.32427864704654" lon="14.999712386338093"><ele>202.0</ele><time>2026-04-25T15:05:03.999Z</time></trkpt><trkpt lat="40.32421699692134" lon="14.99958118016743"><ele>201.99999999999997</ele><time>2026-04-25T15:05:04.999Z</time></trkpt><trkpt lat="40.324175102504505" lon="14.99948049197131"><ele>202.0</ele><time>2026-04-25T15:05:05.999Z</time></trkpt><trkpt lat="40.32413609927424" lon="14.999392683667553"><ele>202.0</ele><time>2026-04-25T15:05:07.999Z</time></trkpt><trkpt lat="40.32406560426442" lon="14.999442295115253"><ele>202.0</ele><time>2026-04-25T15:05:11.999Z</time></trkpt><trkpt lat="40.32401724200146" lon="14.99950852667164"><ele>201.99999999999997</ele><time>2026-04-25T15:05:12.999Z</time></trkpt><trkpt lat="40.32395679799881" lon="14.999569911726478"><ele>202.0</ele><time>2026-04-25T15:05:13.999Z</time></trkpt><trkpt lat="40.32389399169065" lon="14.999630308724461"><ele>203.33333333333331</ele><time>2026-04-25T15:05:14.999Z</time></trkpt><trkpt lat="40.32383453635632" lon="14.999707383624159"><ele>204.66666666666666</ele><time>2026-04-25T15:05:15.999Z</time></trkpt><trkpt lat="40.32377570595336" lon="14.999786801584586"><ele>206.0</ele><time>2026-04-25T15:05:16.999Z</time></trkpt><trkpt lat="40.323729302233644" lon="14.999866623827886"><ele>207.33333333333331</ele><time>2026-04-25T15:05:17.999Z</time></trkpt><trkpt lat="40.32369671366837" lon="14.999953645379993"><ele>208.66666666666666</ele><time>2026-04-25T15:05:18.999Z</time></trkpt><trkpt lat="40.32365839508206" lon="15.000056466694566"><ele>210.0</ele><time>2026-04-25T15:05:19.999Z</time></trkpt><trkpt lat="40.32362457282384" lon="15.00016769935641"><ele>210.0</ele><time>2026-04-25T15:05:20.999Z</time></trkpt><trkpt lat="40.323596187017785" lon="15.000273873326678"><ele>210.0</ele><time>2026-04-25T15:05:21.999Z</time></trkpt><trkpt lat="40.32358527533695" lon="15.0003709727842"><ele>210.0</ele><time>2026-04-25T15:05:22.999Z</time></trkpt><trkpt lat="40.323582773847015" lon="15.0004961062686"><ele>210.0</ele><time>2026-04-25T15:05:24.999Z</time></trkpt><trkpt lat="40.32350477288091" lon="15.000511967385947"><ele>210.0</ele><time>2026-04-25T15:05:28.999Z</time></trkpt><trkpt lat="40.323442022241636" lon="15.00038446037619"><ele>210.0</ele><time>2026-04-25T15:05:30.999Z</time></trkpt><trkpt lat="40.32338440457058" lon="15.000291977070384"><ele>210.0</ele><time>2026-04-25T15:05:31.999Z</time></trkpt><trkpt lat="40.32333550893551" lon="15.000206348071666"><ele>210.0</ele><time>2026-04-25T15:05:32.999Z</time></trkpt><trkpt lat="40.323293550934096" lon="15.000099421851626"><ele>210.0</ele><time>2026-04-25T15:05:33.999Z</time></trkpt><trkpt lat="40.32325639506536" lon="14.999976050897343"><ele>210.0</ele><time>2026-04-25T15:05:34.999Z</time></trkpt><trkpt lat="40.323209250369544" lon="14.999849647625396"><ele>210.0</ele><time>2026-04-25T15:05:35.998Z</time></trkpt><trkpt lat="40.323150921360444" lon="14.999739364346388"><ele>210.0</ele><time>2026-04-25T15:05:36.998Z</time></trkpt><trkpt lat="40.323073152749366" lon="14.999629667814357"><ele>210.0</ele><time>2026-04-25T15:05:38Z</time></trkpt><trkpt lat="40.322997388309226" lon="14.999525740729581"><ele>210.0</ele><time>2026-04-25T15:05:39Z</time></trkpt><trkpt lat="40.32292928530258" lon="14.999429503178835"><ele>210.0</ele><time>2026-04-25T15:05:40Z</time></trkpt><trkpt lat="40.32287299844808" lon="14.999346497885101"><ele>211.16666666666666</ele><time>2026-04-25T15:05:41Z</time></trkpt><trkpt lat="40.32282190801779" lon="14.99927830885172"><ele>212.33333333333331</ele><time>2026-04-25T15:05:42Z</time></trkpt><trkpt lat="40.32278116287642" lon="14.999200492535257"><ele>213.5</ele><time>2026-04-25T15:05:43Z</time></trkpt><trkpt lat="40.32274732639576" lon="14.99911242637899"><ele>214.66666666666666</ele><time>2026-04-25T15:05:44Z</time></trkpt><trkpt lat="40.32273665024856" lon="14.999029994919642"><ele>215.83333333333331</ele><time>2026-04-25T15:05:45Z</time></trkpt><trkpt lat="40.322731289138844" lon="14.998848013378101"><ele>217.0</ele><time>2026-04-25T15:05:47Z</time></trkpt><trkpt lat="40.322726179216055" lon="14.998723567834695"><ele>217.0</ele><time>2026-04-25T15:05:48Z</time></trkpt><trkpt lat="40.32271844351591" lon="14.998592028367177"><ele>217.0</ele><time>2026-04-25T15:05:49Z</time></trkpt><trkpt lat="40.3227085207657" lon="14.998458511939457"><ele>217.0</ele><time>2026-04-25T15:05:50Z</time></trkpt><trkpt lat="40.322701457804015" lon="14.998325764697801"><ele>217.0</ele><time>2026-04-25T15:05:51Z</time></trkpt><trkpt lat="40.32269388027444" lon="14.99818863041247"><ele>217.0</ele><time>2026-04-25T15:05:52Z</time></trkpt><trkpt lat="40.322684568856346" lon="14.998042685939016"><ele>217.0</ele><time>2026-04-25T15:05:53Z</time></trkpt><trkpt lat="40.322667576837375" lon="14.997901820556946"><ele>217.0</ele><time>2026-04-25T15:05:54Z</time></trkpt><trkpt lat="40.32264833147445" lon="14.997767017381832"><ele>217.0</ele><time>2026-04-25T15:05:55Z</time></trkpt><trkpt lat="40.32262878195978" lon="14.997639748334777"><ele>217.0</ele><time>2026-04-25T15:05:56Z</time></trkpt><trkpt lat="40.322597864254696" lon="14.997519762630908"><ele>217.0</ele><time>2026-04-25T15:05:57Z</time></trkpt><trkpt lat="40.32256564182316" lon="14.9974175647361"><ele>216.39999999999998</ele><time>2026-04-25T15:05:58Z</time></trkpt><trkpt lat="40.322529636188776" lon="14.997321407998957"><ele>215.79999999999998</ele><time>2026-04-25T15:05:59Z</time></trkpt><trkpt lat="40.3224731930424" lon="14.997225128663601"><ele>215.2</ele><time>2026-04-25T15:06:00Z</time></trkpt><trkpt lat="40.322393554947574" lon="14.997147328856078"><ele>214.6</ele><time>2026-04-25T15:06:01Z</time></trkpt><trkpt lat="40.322316158393164" lon="14.99707640310334"><ele>214.0</ele><time>2026-04-25T15:06:02Z</time></trkpt><trkpt lat="40.322226371617525" lon="14.997000740686818"><ele>214.0</ele><time>2026-04-25T15:06:03Z</time></trkpt><trkpt lat="40.32213642443253" lon="14.99689996597537"><ele>213.99999999999997</ele><time>2026-04-25T15:06:04Z</time></trkpt><trkpt lat="40.32205592577667" lon="14.996791117327245"><ele>213.99999999999997</ele><time>2026-04-25T15:06:05Z</time></trkpt><trkpt lat="40.32198488163552" lon="14.996702488267749"><ele>214.0</ele><time>2026-04-25T15:06:06Z</time></trkpt><trkpt lat="40.321914582834026" lon="14.996625675278922"><ele>214.0</ele><time>2026-04-25T15:06:06.999Z</time></trkpt><trkpt lat="40.32185067793385" lon="14.996557612077261"><ele>213.99999999999997</ele><time>2026-04-25T15:06:07.999Z</time></trkpt><trkpt lat="40.321800766062964" lon="14.996473417513238"><ele>214.0</ele><time>2026-04-25T15:06:08.999Z</time></trkpt><trkpt lat="40.32174571544216" lon="14.99638255658982"><ele>214.0</ele><time>2026-04-25T15:06:09.999Z</time></trkpt><trkpt lat="40.32167323971787" lon="14.996302878250226"><ele>214.0</ele><time>2026-04-25T15:06:10.999Z</time></trkpt><trkpt lat="40.32160735919732" lon="14.996226831882883"><ele>213.99999999999997</ele><time>2026-04-25T15:06:11.999Z</time></trkpt><trkpt lat="40.32155918803968" lon="14.996137370768434"><ele>214.0</ele><time>2026-04-25T15:06:12.999Z</time></trkpt><trkpt lat="40.321518408029746" lon="14.996025980769279"><ele>213.99999999999997</ele><time>2026-04-25T15:06:13.999Z</time></trkpt><trkpt lat="40.32148022649364" lon="14.995915710784912"><ele>214.0</ele><time>2026-04-25T15:06:14.999Z</time></trkpt><trkpt lat="40.32143936630596" lon="14.99580802811343"><ele>214.0</ele><time>2026-04-25T15:06:15.999Z</time></trkpt><trkpt lat="40.32139947126072" lon="14.995720100927413"><ele>214.0</ele><time>2026-04-25T15:06:16.999Z</time></trkpt><trkpt lat="40.321348195550115" lon="14.995628441438571"><ele>213.99999999999997</ele><time>2026-04-25T15:06:17.999Z</time></trkpt><trkpt lat="40.32128353434291" lon="14.9955431619072"><ele>214.0</ele><time>2026-04-25T15:06:18.999Z</time></trkpt><trkpt lat="40.32122725685439" lon="14.995454951375955"><ele>213.33333333333331</ele><time>2026-04-25T15:06:19.999Z</time></trkpt><trkpt lat="40.321178747702064" lon="14.995348419188407"><ele>212.66666666666666</ele><time>2026-04-25T15:06:20.999Z</time></trkpt><trkpt lat="40.32112742000315" lon="14.995235863475836"><ele>212.0</ele><time>2026-04-25T15:06:21.999Z</time></trkpt><trkpt lat="40.32108042916429" lon="14.995137774304874"><ele>211.33333333333331</ele><time>2026-04-25T15:06:22.999Z</time></trkpt><trkpt lat="40.32103743506535" lon="14.995045661615356"><ele>210.66666666666666</ele><time>2026-04-25T15:06:23.999Z</time></trkpt><trkpt lat="40.321001864269384" lon="14.994958773368062"><ele>210.0</ele><time>2026-04-25T15:06:24.999Z</time></trkpt><trkpt lat="40.32096280514145" lon="14.994853675928004"><ele>212.4</ele><time>2026-04-25T15:06:25.999Z</time></trkpt><trkpt lat="40.32091650464515" lon="14.994733275918904"><ele>214.8</ele><time>2026-04-25T15:06:26.999Z</time></trkpt><trkpt lat="40.320870932397725" lon="14.994601469633999"><ele>217.2</ele><time>2026-04-25T15:06:27.999Z</time></trkpt><trkpt lat="40.320835450220414" lon="14.994477931649234"><ele>219.6</ele><time>2026-04-25T15:06:28.999Z</time></trkpt><trkpt lat="40.320800701937316" lon="14.994361522242029"><ele>222.0</ele><time>2026-04-25T15:06:29.999Z</time></trkpt><trkpt lat="40.320757886579855" lon="14.994263450392697"><ele>221.8</ele><time>2026-04-25T15:06:30.999Z</time></trkpt><trkpt lat="40.32068303050387" lon="14.994155416921876"><ele>221.6</ele><time>2026-04-25T15:06:32.999Z</time></trkpt><trkpt lat="40.32059412724567" lon="14.994034518056749"><ele>221.40000000000003</ele><time>2026-04-25T15:06:34.999Z</time></trkpt><trkpt lat="40.320544161828394" lon="14.993948172820254"><ele>221.20000000000002</ele><time>2026-04-25T15:06:35.999Z</time></trkpt><trkpt lat="40.32049779385603" lon="14.993848261077652"><ele>221.0</ele><time>2026-04-25T15:06:36.999Z</time></trkpt><trkpt lat="40.32045628513345" lon="14.993774886701594"><ele>220.66666666666669</ele><time>2026-04-25T15:06:37.999Z</time></trkpt><trkpt lat="40.320379715303076" lon="14.993682267521022"><ele>220.33333333333334</ele><time>2026-04-25T15:06:39.999Z</time></trkpt><trkpt lat="40.320354999784584" lon="14.99359297287256"><ele>220.0</ele><time>2026-04-25T15:06:40.999Z</time></trkpt><trkpt lat="40.320309808228664" lon="14.993502846655467"><ele>219.66666666666669</ele><time>2026-04-25T15:06:41.999Z</time></trkpt><trkpt lat="40.320249707280425" lon="14.993425707416643"><ele>219.33333333333334</ele><time>2026-04-25T15:06:42.999Z</time></trkpt><trkpt lat="40.32019849337112" lon="14.993347286595752"><ele>219.0</ele><time>2026-04-25T15:06:43.999Z</time></trkpt><trkpt lat="40.32015295326362" lon="14.99323766495241"><ele>219.0</ele><time>2026-04-25T15:06:44.999Z</time></trkpt><trkpt lat="40.32009702216763" lon="14.993141884145162"><ele>218.99999999999997</ele><time>2026-04-25T15:06:45.999Z</time></trkpt><trkpt lat="40.320037295000525" lon="14.993077236492157"><ele>218.99999999999997</ele><time>2026-04-25T15:06:46.999Z</time></trkpt><trkpt lat="40.31998849425244" lon="14.992986365984637"><ele>219.0</ele><time>2026-04-25T15:06:47.999Z</time></trkpt><trkpt lat="40.3199484328062" lon="14.992866989645886"><ele>219.0</ele><time>2026-04-25T15:06:48.999Z</time></trkpt><trkpt lat="40.31990692000797" lon="14.992735548488897"><ele>219.0</ele><time>2026-04-25T15:06:49.999Z</time></trkpt><trkpt lat="40.31985944003173" lon="14.992616699803602"><ele>218.99999999999997</ele><time>2026-04-25T15:06:50.999Z</time></trkpt><trkpt lat="40.319814570621055" lon="14.992502458980415"><ele>218.99999999999997</ele><time>2026-04-25T15:06:51.999Z</time></trkpt><trkpt lat="40.319780579048285" lon="14.992398102734425"><ele>219.0</ele><time>2026-04-25T15:06:52.999Z</time></trkpt><trkpt lat="40.31975341019533" lon="14.992276380540828"><ele>219.0</ele><time>2026-04-25T15:06:53.999Z</time></trkpt><trkpt lat="40.319716888944" lon="14.99213982572201"><ele>218.0</ele><time>2026-04-25T15:06:54.999Z</time></trkpt><trkpt lat="40.31967010694008" lon="14.992017156222515"><ele>217.0</ele><time>2026-04-25T15:06:55.999Z</time></trkpt><trkpt lat="40.31962442965042" lon="14.991920336065267"><ele>216.0</ele><time>2026-04-25T15:06:56.999Z</time></trkpt><trkpt lat="40.31958123236611" lon="14.991817593798961"><ele>215.0</ele><time>2026-04-25T15:06:57.999Z</time></trkpt><trkpt lat="40.31954113256151" lon="14.991718353991871"><ele>214.0</ele><time>2026-04-25T15:06:58.999Z</time></trkpt><trkpt lat="40.319518284501434" lon="14.991631332621889"><ele>213.0</ele><time>2026-04-25T15:06:59.999Z</time></trkpt><trkpt lat="40.31948970938862" lon="14.991492566940495"><ele>213.0</ele><time>2026-04-25T15:07:01.999Z</time></trkpt><trkpt lat="40.319429596998525" lon="14.991341063349727"><ele>213.0</ele><time>2026-04-25T15:07:03.999Z</time></trkpt><trkpt lat="40.319385329583795" lon="14.991268468356486"><ele>213.0</ele><time>2026-04-25T15:07:04.999Z</time></trkpt><trkpt lat="40.3193104460398" lon="14.9911517144119"><ele>213.0</ele><time>2026-04-25T15:07:06.999Z</time></trkpt><trkpt lat="40.31935341065786" lon="14.991030921863024"><ele>213.0</ele><time>2026-04-25T15:07:07.999Z</time></trkpt><trkpt lat="40.31929653402247" lon="14.990945478415828"><ele>213.0</ele><time>2026-04-25T15:07:09.999Z</time></trkpt><trkpt lat="40.31922762687279" lon="14.9908650695782"><ele>213.0</ele><time>2026-04-25T15:07:11.999Z</time></trkpt><trkpt lat="40.31918961648771" lon="14.990763285265286"><ele>213.0</ele><time>2026-04-25T15:07:13.999Z</time></trkpt><trkpt lat="40.31915421542146" lon="14.990641766858797"><ele>213.0</ele><time>2026-04-25T15:07:15.999Z</time></trkpt><trkpt lat="40.31911995591381" lon="14.990570464260964"><ele>213.0</ele><time>2026-04-25T15:07:16.999Z</time></trkpt><trkpt lat="40.31908734276787" lon="14.990471774821984"><ele>213.0</ele><time>2026-04-25T15:07:17.999Z</time></trkpt><trkpt lat="40.31905714303123" lon="14.990369118873291"><ele>211.8</ele><time>2026-04-25T15:07:18.999Z</time></trkpt><trkpt lat="40.31902121752219" lon="14.990255246732843"><ele>210.60000000000002</ele><time>2026-04-25T15:07:19.999Z</time></trkpt><trkpt lat="40.318988406909504" lon="14.990153368501831"><ele>209.39999999999998</ele><time>2026-04-25T15:07:20.999Z</time></trkpt><trkpt lat="40.318946136810986" lon="14.990036477058641"><ele>208.2</ele><time>2026-04-25T15:07:21.999Z</time></trkpt><trkpt lat="40.31891818711072" lon="14.989928191797837"><ele>207.0</ele><time>2026-04-25T15:07:22.999Z</time></trkpt><trkpt lat="40.31890108392934" lon="14.989813099587078"><ele>202.39999999999998</ele><time>2026-04-25T15:07:23.999Z</time></trkpt><trkpt lat="40.31887588390118" lon="14.98967801537261"><ele>197.79999999999998</ele><time>2026-04-25T15:07:24.999Z</time></trkpt><trkpt lat="40.31882798103807" lon="14.98955599041462"><ele>193.2</ele><time>2026-04-25T15:07:25.999Z</time></trkpt><trkpt lat="40.318775514841604" lon="14.989434561395077"><ele>188.6</ele><time>2026-04-25T15:07:26.999Z</time></trkpt><trkpt lat="40.31871975483123" lon="14.989311106114295"><ele>184.0</ele><time>2026-04-25T15:07:27.999Z</time></trkpt><trkpt lat="40.31865876276949" lon="14.989199258649643"><ele>186.0</ele><time>2026-04-25T15:07:28.999Z</time></trkpt><trkpt lat="40.3186085986258" lon="14.989106792801485"><ele>188.0</ele><time>2026-04-25T15:07:29.999Z</time></trkpt><trkpt lat="40.31855426956116" lon="14.9890197752351"><ele>190.0</ele><time>2026-04-25T15:07:30.999Z</time></trkpt><trkpt lat="40.318548717869234" lon="14.98889773781061"><ele>192.0</ele><time>2026-04-25T15:07:31.999Z</time></trkpt><trkpt lat="40.31851693843113" lon="14.988763896485885"><ele>194.0</ele><time>2026-04-25T15:07:32.999Z</time></trkpt><trkpt lat="40.31844878175004" lon="14.988630621853783"><ele>194.0</ele><time>2026-04-25T15:07:33.999Z</time></trkpt><trkpt lat="40.3183798154609" lon="14.988443509007972"><ele>194.0</ele><time>2026-04-25T15:07:34.998Z</time></trkpt><trkpt lat="40.31832381221775" lon="14.988279002806598"><ele>194.0</ele><time>2026-04-25T15:07:35.998Z</time></trkpt><trkpt lat="40.31829854860927" lon="14.988123206035013"><ele>194.0</ele><time>2026-04-25T15:07:36.998Z</time></trkpt><trkpt lat="40.31825448749077" lon="14.988001923428554"><ele>195.79999999999998</ele><time>2026-04-25T15:07:37.998Z</time></trkpt><trkpt lat="40.31820896321168" lon="14.987896361277118"><ele>197.6</ele><time>2026-04-25T15:07:38.998Z</time></trkpt><trkpt lat="40.31816998156085" lon="14.987796757264793"><ele>199.4</ele><time>2026-04-25T15:07:39.998Z</time></trkpt><trkpt lat="40.318123499823905" lon="14.987678004474008"><ele>201.2</ele><time>2026-04-25T15:07:40.998Z</time></trkpt><trkpt lat="40.31808783307915" lon="14.987551185352117"><ele>203.0</ele><time>2026-04-25T15:07:41.998Z</time></trkpt><trkpt lat="40.318051056623624" lon="14.987435309100306"><ele>204.4</ele><time>2026-04-25T15:07:43Z</time></trkpt><trkpt lat="40.318009338595736" lon="14.987341827226375"><ele>205.8</ele><time>2026-04-25T15:07:44Z</time></trkpt><trkpt lat="40.317970217133414" lon="14.987264213236891"><ele>207.2</ele><time>2026-04-25T15:07:45Z</time></trkpt><trkpt lat="40.317910676672255" lon="14.987173344214291"><ele>208.6</ele><time>2026-04-25T15:07:46Z</time></trkpt><trkpt lat="40.31779500583949" lon="14.987089655580707"><ele>210.0</ele><time>2026-04-25T15:07:47Z</time></trkpt><trkpt lat="40.31767155370954" lon="14.986989181077265"><ele>210.0</ele><time>2026-04-25T15:07:48Z</time></trkpt><trkpt lat="40.31757224201999" lon="14.986865362357381"><ele>210.0</ele><time>2026-04-25T15:07:49Z</time></trkpt><trkpt lat="40.317502153412235" lon="14.986697221135739"><ele>210.0</ele><time>2026-04-25T15:07:50Z</time></trkpt><trkpt lat="40.317466363352544" lon="14.986524478535722"><ele>210.0</ele><time>2026-04-25T15:07:51Z</time></trkpt><trkpt lat="40.31744914143109" lon="14.986360168168307"><ele>211.0</ele><time>2026-04-25T15:07:52Z</time></trkpt><trkpt lat="40.31744633760762" lon="14.986226951845618"><ele>212.0</ele><time>2026-04-25T15:07:53Z</time></trkpt><trkpt lat="40.31742190164676" lon="14.986143675381525"><ele>213.0</ele><time>2026-04-25T15:07:54Z</time></trkpt><trkpt lat="40.317319045385744" lon="14.986063006993412"><ele>214.0</ele><time>2026-04-25T15:07:56Z</time></trkpt><trkpt lat="40.317259131987775" lon="14.986013264856888"><ele>215.0</ele><time>2026-04-25T15:07:57Z</time></trkpt><trkpt lat="40.31717464091796" lon="14.985959021491626"><ele>216.66666666666669</ele><time>2026-04-25T15:07:58Z</time></trkpt><trkpt lat="40.31708777333833" lon="14.985906325479647"><ele>218.33333333333334</ele><time>2026-04-25T15:07:59Z</time></trkpt><trkpt lat="40.31700029236466" lon="14.98588342623789"><ele>220.0</ele><time>2026-04-25T15:08:00Z</time></trkpt><trkpt lat="40.316920518682295" lon="14.985872071110174"><ele>221.66666666666669</ele><time>2026-04-25T15:08:01Z</time></trkpt><trkpt lat="40.316825662029586" lon="14.985840750747036"><ele>223.33333333333334</ele><time>2026-04-25T15:08:03Z</time></trkpt><trkpt lat="40.316748394550686" lon="14.985831404507941"><ele>225.0</ele><time>2026-04-25T15:08:05Z</time></trkpt><trkpt lat="40.31664781096184" lon="14.985809672194643"><ele>225.16666666666666</ele><time>2026-04-25T15:08:07Z</time></trkpt><trkpt lat="40.3165635801687" lon="14.985791510292135"><ele>225.33333333333331</ele><time>2026-04-25T15:08:08.999Z</time></trkpt><trkpt lat="40.316506028492526" lon="14.985744214581976"><ele>225.5</ele><time>2026-04-25T15:08:11.999Z</time></trkpt><trkpt lat="40.31645756331569" lon="14.985615111414575"><ele>225.66666666666666</ele><time>2026-04-25T15:08:31.999Z</time></trkpt><trkpt lat="40.3164312115122" lon="14.985500434215421"><ele>225.83333333333331</ele><time>2026-04-25T15:08:32.999Z</time></trkpt><trkpt lat="40.31640043468819" lon="14.98538963468023"><ele>226.0</ele><time>2026-04-25T15:08:33.999Z</time></trkpt><trkpt lat="40.316360965211366" lon="14.985292827805232"><ele>228.4</ele><time>2026-04-25T15:08:34.999Z</time></trkpt><trkpt lat="40.31632222121244" lon="14.985187001846626"><ele>230.8</ele><time>2026-04-25T15:08:35.999Z</time></trkpt><trkpt lat="40.31627846566332" lon="14.985074887595896"><ele>233.20000000000002</ele><time>2026-04-25T15:08:36.999Z</time></trkpt><trkpt lat="40.31622484828353" lon="14.984968636149112"><ele>235.60000000000002</ele><time>2026-04-25T15:08:37.999Z</time></trkpt><trkpt lat="40.316168475523405" lon="14.98488559008089"><ele>238.0</ele><time>2026-04-25T15:08:38.999Z</time></trkpt><trkpt lat="40.31609513709615" lon="14.98476517878471"><ele>238.0</ele><time>2026-04-25T15:08:40.999Z</time></trkpt><trkpt lat="40.3160668511635" lon="14.984653386147064"><ele>238.0</ele><time>2026-04-25T15:08:42.999Z</time></trkpt><trkpt lat="40.31607240315597" lon="14.984471816151833"><ele>238.0</ele><time>2026-04-25T15:08:44.999Z</time></trkpt><trkpt lat="40.31608083419834" lon="14.984345919194958"><ele>238.0</ele><time>2026-04-25T15:08:45.999Z</time></trkpt><trkpt lat="40.31608817862071" lon="14.984185446407244"><ele>238.0</ele><time>2026-04-25T15:08:46.999Z</time></trkpt><trkpt lat="40.31608495433" lon="14.984037444915508"><ele>238.0</ele><time>2026-04-25T15:08:47.999Z</time></trkpt><trkpt lat="40.3160734549817" lon="14.98390507273558"><ele>238.0</ele><time>2026-04-25T15:08:48.999Z</time></trkpt><trkpt lat="40.316071905471134" lon="14.983788071308215"><ele>238.0</ele><time>2026-04-25T15:08:49.999Z</time></trkpt><trkpt lat="40.31608498152865" lon="14.983671629337449"><ele>238.0</ele><time>2026-04-25T15:08:50.999Z</time></trkpt><trkpt lat="40.316108255200334" lon="14.983565050542083"><ele>238.0</ele><time>2026-04-25T15:08:51.999Z</time></trkpt><trkpt lat="40.31614275275687" lon="14.98346132859856"><ele>238.0</ele><time>2026-04-25T15:08:52.999Z</time></trkpt><trkpt lat="40.31619199058349" lon="14.983351413269398"><ele>238.0</ele><time>2026-04-25T15:08:53.999Z</time></trkpt><trkpt lat="40.3162336052478" lon="14.983233635516866"><ele>238.0</ele><time>2026-04-25T15:08:54.999Z</time></trkpt><trkpt lat="40.31626170720236" lon="14.983106671746047"><ele>238.0</ele><time>2026-04-25T15:08:55.999Z</time></trkpt><trkpt lat="40.31628132776651" lon="14.982989552516646"><ele>238.0</ele><time>2026-04-25T15:08:56.999Z</time></trkpt><trkpt lat="40.31629478891387" lon="14.982885273878539"><ele>238.4</ele><time>2026-04-25T15:08:57.999Z</time></trkpt><trkpt lat="40.31632084660631" lon="14.982763647304132"><ele>238.8</ele><time>2026-04-25T15:08:58.999Z</time></trkpt><trkpt lat="40.3163396591089" lon="14.982618083392808"><ele>239.2</ele><time>2026-04-25T15:08:59.999Z</time></trkpt><trkpt lat="40.316365065432976" lon="14.9824593774206"><ele>239.6</ele><time>2026-04-25T15:09:00.999Z</time></trkpt><trkpt lat="40.31638585740599" lon="14.982309107622228"><ele>240.0</ele><time>2026-04-25T15:09:01.999Z</time></trkpt><trkpt lat="40.31640838836447" lon="14.982174791398322"><ele>239.16666666666666</ele><time>2026-04-25T15:09:02.999Z</time></trkpt><trkpt lat="40.31642843015311" lon="14.982069518343435"><ele>238.33333333333331</ele><time>2026-04-25T15:09:03.999Z</time></trkpt><trkpt lat="40.316455592958945" lon="14.981985003894026"><ele>237.5</ele><time>2026-04-25T15:09:04.999Z</time></trkpt><trkpt lat="40.316473588564506" lon="14.98189562409432"><ele>236.66666666666666</ele><time>2026-04-25T15:09:05.999Z</time></trkpt><trkpt lat="40.316468607517336" lon="14.981794300917985"><ele>235.83333333333331</ele><time>2026-04-25T15:09:06.999Z</time></trkpt><trkpt lat="40.31644237794921" lon="14.981678106601882"><ele>235.0</ele><time>2026-04-25T15:09:07.999Z</time></trkpt><trkpt lat="40.316396836698424" lon="14.981558037552864"><ele>235.0</ele><time>2026-04-25T15:09:08.999Z</time></trkpt><trkpt lat="40.31631719829233" lon="14.981401846971472"><ele>235.0</ele><time>2026-04-25T15:09:09.999Z</time></trkpt><trkpt lat="40.316244401517714" lon="14.981246201745819"><ele>235.0</ele><time>2026-04-25T15:09:10.999Z</time></trkpt><trkpt lat="40.31617331642758" lon="14.981121832444563"><ele>235.0</ele><time>2026-04-25T15:09:11.999Z</time></trkpt><trkpt lat="40.316105163187885" lon="14.981012998753819"><ele>235.0</ele><time>2026-04-25T15:09:12.999Z</time></trkpt><trkpt lat="40.31605409527038" lon="14.980918336010719"><ele>235.0</ele><time>2026-04-25T15:09:13.999Z</time></trkpt><trkpt lat="40.31599622577477" lon="14.980811552992892"><ele>235.0</ele><time>2026-04-25T15:09:14.999Z</time></trkpt><trkpt lat="40.31592275667211" lon="14.980703143731256"><ele>235.0</ele><time>2026-04-25T15:09:15.999Z</time></trkpt><trkpt lat="40.3158427934159" lon="14.980603899359684"><ele>235.0</ele><time>2026-04-25T15:09:16.999Z</time></trkpt><trkpt lat="40.31575416287991" lon="14.980524791777556"><ele>233.66666666666666</ele><time>2026-04-25T15:09:17.999Z</time></trkpt><trkpt lat="40.31566796744018" lon="14.980438297339582"><ele>232.33333333333331</ele><time>2026-04-25T15:09:18.999Z</time></trkpt><trkpt lat="40.31559903841856" lon="14.980353813900447"><ele>231.0</ele><time>2026-04-25T15:09:19.999Z</time></trkpt><trkpt lat="40.31554759612769" lon="14.98027842889366"><ele>229.66666666666669</ele><time>2026-04-25T15:09:20.999Z</time></trkpt><trkpt lat="40.31549755454365" lon="14.980197888105597"><ele>228.33333333333334</ele><time>2026-04-25T15:09:21.999Z</time></trkpt><trkpt lat="40.31545753701616" lon="14.980098985097124"><ele>227.0</ele><time>2026-04-25T15:09:22.999Z</time></trkpt><trkpt lat="40.31543083680999" lon="14.979980738910557"><ele>222.75</ele><time>2026-04-25T15:09:23.999Z</time></trkpt><trkpt lat="40.31540989333627" lon="14.979830587758798"><ele>218.5</ele><time>2026-04-25T15:09:24.999Z</time></trkpt><trkpt lat="40.31538327278881" lon="14.979685539397636"><ele>214.25</ele><time>2026-04-25T15:09:25.999Z</time></trkpt><trkpt lat="40.315356221329004" lon="14.979535905440212"><ele>210.0</ele><time>2026-04-25T15:09:26.999Z</time></trkpt><trkpt lat="40.315324586681" lon="14.97938149375432"><ele>210.0</ele><time>2026-04-25T15:09:27.999Z</time></trkpt><trkpt lat="40.315293964965306" lon="14.979219139288722"><ele>210.0</ele><time>2026-04-25T15:09:28.999Z</time></trkpt><trkpt lat="40.31526985040951" lon="14.979054801331138"><ele>210.0</ele><time>2026-04-25T15:09:29.999Z</time></trkpt><trkpt lat="40.31525028048881" lon="14.978914245551314"><ele>210.0</ele><time>2026-04-25T15:09:30.999Z</time></trkpt><trkpt lat="40.315227483264486" lon="14.978789814324793"><ele>210.8</ele><time>2026-04-25T15:09:31.999Z</time></trkpt><trkpt lat="40.315207975335646" lon="14.97867344939733"><ele>211.6</ele><time>2026-04-25T15:09:32.999Z</time></trkpt><trkpt lat="40.315198097627444" lon="14.978570934026262"><ele>212.39999999999998</ele><time>2026-04-25T15:09:33.999Z</time></trkpt><trkpt lat="40.31521213202842" lon="14.97839850372556"><ele>213.2</ele><time>2026-04-25T15:09:35.999Z</time></trkpt><trkpt lat="40.31523233046881" lon="14.978304848826028"><ele>214.0</ele><time>2026-04-25T15:09:36.999Z</time></trkpt><trkpt lat="40.31525402188124" lon="14.978211990157972"><ele>214.6</ele><time>2026-04-25T15:09:37.999Z</time></trkpt><trkpt lat="40.315275880144256" lon="14.978074773383733"><ele>215.2</ele><time>2026-04-25T15:09:39.998Z</time></trkpt><trkpt lat="40.31530656271973" lon="14.977932323256855"><ele>215.79999999999998</ele><time>2026-04-25T15:09:41.998Z</time></trkpt><trkpt lat="40.315334667725025" lon="14.977772259657238"><ele>216.39999999999998</ele><time>2026-04-25T15:09:43.998Z</time></trkpt><trkpt lat="40.31534145843938" lon="14.977665450330539"><ele>217.0</ele><time>2026-04-25T15:09:44.998Z</time></trkpt><trkpt lat="40.315345921982875" lon="14.97754044927642"><ele>215.83333333333331</ele><time>2026-04-25T15:09:45.998Z</time></trkpt><trkpt lat="40.31534859557843" lon="14.977415436917815"><ele>214.66666666666666</ele><time>2026-04-25T15:09:46.998Z</time></trkpt><trkpt lat="40.31533636879658" lon="14.977296059826273"><ele>213.5</ele><time>2026-04-25T15:09:47.998Z</time></trkpt><trkpt lat="40.315314034214985" lon="14.977175400788985"><ele>212.33333333333331</ele><time>2026-04-25T15:09:49Z</time></trkpt><trkpt lat="40.31528735780523" lon="14.977069201007316"><ele>211.16666666666666</ele><time>2026-04-25T15:09:50Z</time></trkpt><trkpt lat="40.31525066227014" lon="14.976977603315177"><ele>210.0</ele><time>2026-04-25T15:09:51Z</time></trkpt><trkpt lat="40.31518557758124" lon="14.976913848448698"><ele>210.0</ele><time>2026-04-25T15:09:52Z</time></trkpt><trkpt lat="40.31514168224974" lon="14.976836667281386"><ele>210.0</ele><time>2026-04-25T15:09:53Z</time></trkpt><trkpt lat="40.31507618383069" lon="14.976776944942605"><ele>210.0</ele><time>2026-04-25T15:09:54Z</time></trkpt><trkpt lat="40.315019233066245" lon="14.97670501701034"><ele>210.0</ele><time>2026-04-25T15:09:55Z</time></trkpt><trkpt lat="40.31497387258587" lon="14.976620717566481"><ele>210.0</ele><time>2026-04-25T15:09:56Z</time></trkpt><trkpt lat="40.31493549047424" lon="14.976471653025726"><ele>210.0</ele><time>2026-04-25T15:09:58Z</time></trkpt><trkpt lat="40.31493257635615" lon="14.97638126747361"><ele>211.16666666666666</ele><time>2026-04-25T15:09:59Z</time></trkpt><trkpt lat="40.314944897912156" lon="14.97628935150904"><ele>212.33333333333331</ele><time>2026-04-25T15:10:00Z</time></trkpt><trkpt lat="40.31497317225993" lon="14.976204343048286"><ele>213.5</ele><time>2026-04-25T15:10:01Z</time></trkpt><trkpt lat="40.31501937575412" lon="14.97612318079055"><ele>214.66666666666666</ele><time>2026-04-25T15:10:02Z</time></trkpt><trkpt lat="40.31508470979707" lon="14.976040671845139"><ele>215.83333333333331</ele><time>2026-04-25T15:10:03Z</time></trkpt><trkpt lat="40.31515594988619" lon="14.97595779705594"><ele>217.0</ele><time>2026-04-25T15:10:04Z</time></trkpt><trkpt lat="40.31521522280761" lon="14.975889506833157"><ele>215.99999999999997</ele><time>2026-04-25T15:10:05Z</time></trkpt><trkpt lat="40.315277313548776" lon="14.975819349487056"><ele>215.0</ele><time>2026-04-25T15:10:06Z</time></trkpt><trkpt lat="40.315344830498425" lon="14.975755158121348"><ele>214.0</ele><time>2026-04-25T15:10:07Z</time></trkpt><trkpt lat="40.315416706550415" lon="14.975692600938306"><ele>213.0</ele><time>2026-04-25T15:10:08Z</time></trkpt><trkpt lat="40.31548219536911" lon="14.975644565443002"><ele>211.99999999999997</ele><time>2026-04-25T15:10:09Z</time></trkpt><trkpt lat="40.3155411979592" lon="14.975596846737277"><ele>211.0</ele><time>2026-04-25T15:10:10Z</time></trkpt><trkpt lat="40.31560765181578" lon="14.975588920590125"><ele>213.66666666666666</ele><time>2026-04-25T15:10:11Z</time></trkpt><trkpt lat="40.315670269694785" lon="14.975579187674162"><ele>216.33333333333331</ele><time>2026-04-25T15:10:11.999Z</time></trkpt><trkpt lat="40.31573257161522" lon="14.975601111536932"><ele>219.0</ele><time>2026-04-25T15:10:12.999Z</time></trkpt><trkpt lat="40.315799354063756" lon="14.975645116204435"><ele>221.66666666666669</ele><time>2026-04-25T15:10:13.999Z</time></trkpt><trkpt lat="40.31591186882808" lon="14.975699956465654"><ele>224.33333333333334</ele><time>2026-04-25T15:10:14.999Z</time></trkpt><trkpt lat="40.3160258118293" lon="14.975730196395196"><ele>227.0</ele><time>2026-04-25T15:10:15.999Z</time></trkpt><trkpt lat="40.31612400852336" lon="14.975756542185781"><ele>227.0</ele><time>2026-04-25T15:10:16.999Z</time></trkpt><trkpt lat="40.31620869713915" lon="14.975763253892438"><ele>227.0</ele><time>2026-04-25T15:10:17.999Z</time></trkpt><trkpt lat="40.316278893678586" lon="14.975753760381144"><ele>227.0</ele><time>2026-04-25T15:10:18.999Z</time></trkpt><trkpt lat="40.316352062090274" lon="14.975722419066859"><ele>227.0</ele><time>2026-04-25T15:10:20.999Z</time></trkpt><trkpt lat="40.316413000521166" lon="14.975685211146878"><ele>227.0</ele><time>2026-04-25T15:10:22.999Z</time></trkpt><trkpt lat="40.31656267979339" lon="14.975587723220578"><ele>227.83333333333334</ele><time>2026-04-25T15:10:47.999Z</time></trkpt><trkpt lat="40.31662160567885" lon="14.975519126267033"><ele>228.66666666666669</ele><time>2026-04-25T15:10:48.999Z</time></trkpt><trkpt lat="40.316691288982746" lon="14.97543291168115"><ele>229.5</ele><time>2026-04-25T15:10:49.999Z</time></trkpt><trkpt lat="40.31676358981728" lon="14.975346272776173"><ele>230.33333333333331</ele><time>2026-04-25T15:10:50.999Z</time></trkpt><trkpt lat="40.3168366827942" lon="14.975287221693666"><ele>231.16666666666666</ele><time>2026-04-25T15:10:51.999Z</time></trkpt><trkpt lat="40.31692035899866" lon="14.975246149551628"><ele>232.0</ele><time>2026-04-25T15:10:52.999Z</time></trkpt><trkpt lat="40.317017517099714" lon="14.975223753823022"><ele>232.0</ele><time>2026-04-25T15:10:53.999Z</time></trkpt><trkpt lat="40.31713032461338" lon="14.975204056585104"><ele>232.0</ele><time>2026-04-25T15:10:54.999Z</time></trkpt><trkpt lat="40.31725164284196" lon="14.975181071122607"><ele>232.0</ele><time>2026-04-25T15:10:55.999Z</time></trkpt><trkpt lat="40.31737370667385" lon="14.975134917904501"><ele>232.0</ele><time>2026-04-25T15:10:56.999Z</time></trkpt><trkpt lat="40.31748564266022" lon="14.975074063621513"><ele>230.6</ele><time>2026-04-25T15:10:57.999Z</time></trkpt><trkpt lat="40.317593961503576" lon="14.975022902348265"><ele>229.2</ele><time>2026-04-25T15:10:58.999Z</time></trkpt><trkpt lat="40.31768891529273" lon="14.974962212443817"><ele>227.8</ele><time>2026-04-25T15:10:59.999Z</time></trkpt><trkpt lat="40.31777178660341" lon="14.974874991905462"><ele>226.4</ele><time>2026-04-25T15:11:00.999Z</time></trkpt><trkpt lat="40.317845726862664" lon="14.974756618148687"><ele>225.0</ele><time>2026-04-25T15:11:01.999Z</time></trkpt><trkpt lat="40.31792685426835" lon="14.974618105568243"><ele>225.0</ele><time>2026-04-25T15:11:02.999Z</time></trkpt><trkpt lat="40.318008519172594" lon="14.974477751998187"><ele>225.0</ele><time>2026-04-25T15:11:03.999Z</time></trkpt><trkpt lat="40.318097076030085" lon="14.97434091763978"><ele>225.0</ele><time>2026-04-25T15:11:04.999Z</time></trkpt><trkpt lat="40.31819054837345" lon="14.974214350547124"><ele>225.0</ele><time>2026-04-25T15:11:05.999Z</time></trkpt><trkpt lat="40.318280325649795" lon="14.974104934587121"><ele>226.5</ele><time>2026-04-25T15:11:06.999Z</time></trkpt><trkpt lat="40.318361685636695" lon="14.973987050174019"><ele>228.0</ele><time>2026-04-25T15:11:07.999Z</time></trkpt><trkpt lat="40.31842115430753" lon="14.97386068309152"><ele>229.5</ele><time>2026-04-25T15:11:08.999Z</time></trkpt><trkpt lat="40.318463124026714" lon="14.973720437586241"><ele>231.0</ele><time>2026-04-25T15:11:09.999Z</time></trkpt><trkpt lat="40.31850268041503" lon="14.973572542144733"><ele>231.0</ele><time>2026-04-25T15:11:10.999Z</time></trkpt><trkpt lat="40.31851750666704" lon="14.973412976262408"><ele>231.00000000000003</ele><time>2026-04-25T15:11:11.999Z</time></trkpt><trkpt lat="40.31852629691534" lon="14.973291419793048"><ele>231.00000000000003</ele><time>2026-04-25T15:11:12.999Z</time></trkpt><trkpt lat="40.318543305798975" lon="14.973183377449383"><ele>231.0</ele><time>2026-04-25T15:11:13.999Z</time></trkpt><trkpt lat="40.318544413698056" lon="14.97306992692928"><ele>231.0</ele><time>2026-04-25T15:11:14.999Z</time></trkpt><trkpt lat="40.31856641541918" lon="14.97297337460697"><ele>229.0</ele><time>2026-04-25T15:11:15.999Z</time></trkpt><trkpt lat="40.31861305691649" lon="14.972876244789466"><ele>227.00000000000003</ele><time>2026-04-25T15:11:16.999Z</time></trkpt><trkpt lat="40.31868241942354" lon="14.972782667282184"><ele>225.00000000000003</ele><time>2026-04-25T15:11:17.999Z</time></trkpt><trkpt lat="40.31877100530171" lon="14.97271746272028"><ele>223.0</ele><time>2026-04-25T15:11:18.999Z</time></trkpt><trkpt lat="40.31886539417444" lon="14.972646472063662"><ele>221.0</ele><time>2026-04-25T15:11:19.999Z</time></trkpt><trkpt lat="40.31895656109605" lon="14.97254915035251"><ele>223.4</ele><time>2026-04-25T15:11:20.999Z</time></trkpt><trkpt lat="40.319055707064656" lon="14.972481491390838"><ele>225.8</ele><time>2026-04-25T15:11:21.999Z</time></trkpt><trkpt lat="40.31913902045702" lon="14.972400218412462"><ele>228.20000000000002</ele><time>2026-04-25T15:11:22.999Z</time></trkpt><trkpt lat="40.319214078313" lon="14.972298861856324"><ele>230.60000000000002</ele><time>2026-04-25T15:11:23.999Z</time></trkpt><trkpt lat="40.31928583732989" lon="14.972206469316868"><ele>233.0</ele><time>2026-04-25T15:11:24.999Z</time></trkpt><trkpt lat="40.31938085278031" lon="14.972143657698588"><ele>233.0</ele><time>2026-04-25T15:11:25.999Z</time></trkpt><trkpt lat="40.31946785588221" lon="14.972047053810476"><ele>233.0</ele><time>2026-04-25T15:11:26.999Z</time></trkpt><trkpt lat="40.319574217064535" lon="14.971960083064367"><ele>233.0</ele><time>2026-04-25T15:11:27.999Z</time></trkpt><trkpt lat="40.31968614028269" lon="14.971848867274842"><ele>233.0</ele><time>2026-04-25T15:11:28.999Z</time></trkpt><trkpt lat="40.319805847853885" lon="14.971719078968631"><ele>233.25</ele><time>2026-04-25T15:11:29.999Z</time></trkpt><trkpt lat="40.31992619856879" lon="14.971595099320572"><ele>233.5</ele><time>2026-04-25T15:11:30.999Z</time></trkpt><trkpt lat="40.32003684434154" lon="14.971476157456602"><ele>233.75</ele><time>2026-04-25T15:11:31.999Z</time></trkpt><trkpt lat="40.3201376912499" lon="14.971368950007893"><ele>234.0</ele><time>2026-04-25T15:11:32.999Z</time></trkpt><trkpt lat="40.3202258873361" lon="14.971257259095207"><ele>234.0</ele><time>2026-04-25T15:11:33.999Z</time></trkpt><trkpt lat="40.32030128524409" lon="14.971138067819991"><ele>233.99999999999997</ele><time>2026-04-25T15:11:34.999Z</time></trkpt><trkpt lat="40.32037506314012" lon="14.971044364022868"><ele>233.99999999999997</ele><time>2026-04-25T15:11:35.999Z</time></trkpt><trkpt lat="40.32047857759725" lon="14.971018708700237"><ele>234.0</ele><time>2026-04-25T15:11:36.999Z</time></trkpt><trkpt lat="40.32057351578683" lon="14.970923953835582"><ele>234.0</ele><time>2026-04-25T15:11:37.999Z</time></trkpt><trkpt lat="40.32065433346531" lon="14.970852652885887"><ele>232.5</ele><time>2026-04-25T15:11:38.999Z</time></trkpt><trkpt lat="40.320705387713446" lon="14.970749996888644"><ele>231.0</ele><time>2026-04-25T15:11:39.999Z</time></trkpt><trkpt lat="40.320729113774426" lon="14.970624550461032"><ele>229.5</ele><time>2026-04-25T15:11:40.999Z</time></trkpt><trkpt lat="40.3207388180742" lon="14.97046333299149"><ele>228.0</ele><time>2026-04-25T15:11:41.999Z</time></trkpt><trkpt lat="40.32074294551978" lon="14.970274236415"><ele>228.0</ele><time>2026-04-25T15:11:42.998Z</time></trkpt><trkpt lat="40.320756327925025" lon="14.970055317230596"><ele>228.0</ele><time>2026-04-25T15:11:43.998Z</time></trkpt><trkpt lat="40.32076617820458" lon="14.969860260921857"><ele>228.0</ele><time>2026-04-25T15:11:44.998Z</time></trkpt><trkpt lat="40.32077369669558" lon="14.969711074067536"><ele>228.0</ele><time>2026-04-25T15:11:45.998Z</time></trkpt><trkpt lat="40.320773629334994" lon="14.969592389916293"><ele>229.5</ele><time>2026-04-25T15:11:46.998Z</time></trkpt><trkpt lat="40.320739630764564" lon="14.969487196334576"><ele>231.0</ele><time>2026-04-25T15:11:47.998Z</time></trkpt><trkpt lat="40.320696500776194" lon="14.969366796690812"><ele>232.5</ele><time>2026-04-25T15:11:48.998Z</time></trkpt><trkpt lat="40.320654934978656" lon="14.96920013083708"><ele>234.0</ele><time>2026-04-25T15:11:49.998Z</time></trkpt><trkpt lat="40.32059557400878" lon="14.969020458752826"><ele>228.75</ele><time>2026-04-25T15:11:50.998Z</time></trkpt><trkpt lat="40.32054717925463" lon="14.968852252360504"><ele>223.5</ele><time>2026-04-25T15:11:51.998Z</time></trkpt><trkpt lat="40.320502381435304" lon="14.968714066851078"><ele>218.25</ele><time>2026-04-25T15:11:52.998Z</time></trkpt><trkpt lat="40.32044854283288" lon="14.968597769725427"><ele>213.0</ele><time>2026-04-25T15:11:53.998Z</time></trkpt><trkpt lat="40.320367650416124" lon="14.968492750376544"><ele>213.0</ele><time>2026-04-25T15:11:55Z</time></trkpt><trkpt lat="40.32027381527303" lon="14.968389666492035"><ele>213.0</ele><time>2026-04-25T15:11:56Z</time></trkpt><trkpt lat="40.32015895868287" lon="14.968280798654796"><ele>213.0</ele><time>2026-04-25T15:11:57Z</time></trkpt><trkpt lat="40.3200667467662" lon="14.968187249892335"><ele>213.0</ele><time>2026-04-25T15:11:58Z</time></trkpt><trkpt lat="40.31999170242572" lon="14.968095822680791"><ele>211.25</ele><time>2026-04-25T15:11:59Z</time></trkpt><trkpt lat="40.31991790252921" lon="14.967972690395035"><ele>209.5</ele><time>2026-04-25T15:12:00Z</time></trkpt><trkpt lat="40.31982570566701" lon="14.967838210880483"><ele>207.75</ele><time>2026-04-25T15:12:01Z</time></trkpt><trkpt lat="40.319743805090894" lon="14.967742774473692"><ele>206.0</ele><time>2026-04-25T15:12:02Z</time></trkpt><trkpt lat="40.319666762156764" lon="14.967676817739415"><ele>206.00000000000003</ele><time>2026-04-25T15:12:03Z</time></trkpt><trkpt lat="40.319608830807404" lon="14.967618987457435"><ele>206.0</ele><time>2026-04-25T15:12:04Z</time></trkpt><trkpt lat="40.31955980784527" lon="14.967557980033213"><ele>206.0</ele><time>2026-04-25T15:12:05Z</time></trkpt><trkpt lat="40.31951486873894" lon="14.967397554148192"><ele>206.0</ele><time>2026-04-25T15:12:07Z</time></trkpt><trkpt lat="40.31952210131305" lon="14.967285838843496"><ele>206.00000000000003</ele><time>2026-04-25T15:12:08Z</time></trkpt><trkpt lat="40.319547725040884" lon="14.967168766568673"><ele>206.0</ele><time>2026-04-25T15:12:09Z</time></trkpt><trkpt lat="40.31959272227053" lon="14.967026532477142"><ele>210.0</ele><time>2026-04-25T15:12:10Z</time></trkpt><trkpt lat="40.31962759105472" lon="14.966875327800615"><ele>214.0</ele><time>2026-04-25T15:12:11Z</time></trkpt><trkpt lat="40.31963880520477" lon="14.966723144552086"><ele>218.0</ele><time>2026-04-25T15:12:12Z</time></trkpt><trkpt lat="40.31963250609845" lon="14.966558174351348"><ele>222.0</ele><time>2026-04-25T15:12:13Z</time></trkpt><trkpt lat="40.31962929925304" lon="14.966396637425879"><ele>222.6</ele><time>2026-04-25T15:12:14Z</time></trkpt><trkpt lat="40.31962110869497" lon="14.96626796248624"><ele>223.2</ele><time>2026-04-25T15:12:15Z</time></trkpt><trkpt lat="40.31960614779965" lon="14.966157125868815"><ele>223.8</ele><time>2026-04-25T15:12:16Z</time></trkpt><trkpt lat="40.319566612001495" lon="14.966049595468407"><ele>224.4</ele><time>2026-04-25T15:12:17Z</time></trkpt><trkpt lat="40.31950008804794" lon="14.965951619807624"><ele>225.0</ele><time>2026-04-25T15:12:17.999Z</time></trkpt><trkpt lat="40.31942563158853" lon="14.965864674973918"><ele>227.0</ele><time>2026-04-25T15:12:18.999Z</time></trkpt><trkpt lat="40.319366079595866" lon="14.965791305287878"><ele>229.0</ele><time>2026-04-25T15:12:19.999Z</time></trkpt><trkpt lat="40.319323452651" lon="14.965701626232708"><ele>231.0</ele><time>2026-04-25T15:12:20.999Z</time></trkpt><trkpt lat="40.31928280646429" lon="14.965576206824457"><ele>233.0</ele><time>2026-04-25T15:12:21.999Z</time></trkpt><trkpt lat="40.31924354219409" lon="14.9654153855826"><ele>235.0</ele><time>2026-04-25T15:12:22.999Z</time></trkpt><trkpt lat="40.31919711756754" lon="14.965245171629372"><ele>235.0</ele><time>2026-04-25T15:12:23.999Z</time></trkpt><trkpt lat="40.319137876963346" lon="14.965096255583887"><ele>235.0</ele><time>2026-04-25T15:12:24.999Z</time></trkpt><trkpt lat="40.31906893891173" lon="14.9649771969723"><ele>235.0</ele><time>2026-04-25T15:12:25.999Z</time></trkpt><trkpt lat="40.319004644812416" lon="14.964880500778765"><ele>235.0</ele><time>2026-04-25T15:12:26.999Z</time></trkpt><trkpt lat="40.31894726519261" lon="14.96478850220883"><ele>235.0</ele><time>2026-04-25T15:12:27.999Z</time></trkpt><trkpt lat="40.31890064091534" lon="14.964689854867846"><ele>233.83333333333331</ele><time>2026-04-25T15:12:28.999Z</time></trkpt><trkpt lat="40.31886712325578" lon="14.964584698499177"><ele>232.66666666666666</ele><time>2026-04-25T15:12:29.999Z</time></trkpt><trkpt lat="40.31884873493873" lon="14.964487252796944"><ele>231.5</ele><time>2026-04-25T15:12:30.999Z</time></trkpt><trkpt lat="40.318841769323114" lon="14.964383089682123"><ele>230.33333333333331</ele><time>2026-04-25T15:12:31.999Z</time></trkpt><trkpt lat="40.31885445543312" lon="14.96427306898963"><ele>229.16666666666666</ele><time>2026-04-25T15:12:32.999Z</time></trkpt><trkpt lat="40.31889446777326" lon="14.964164744486476"><ele>228.0</ele><time>2026-04-25T15:12:33.999Z</time></trkpt><trkpt lat="40.318952168385735" lon="14.964044281588052"><ele>232.8</ele><time>2026-04-25T15:12:34.999Z</time></trkpt><trkpt lat="40.319015617126304" lon="14.963910245193889"><ele>237.60000000000002</ele><time>2026-04-25T15:12:35.999Z</time></trkpt><trkpt lat="40.319072309234556" lon="14.963800376613012"><ele>242.39999999999998</ele><time>2026-04-25T15:12:36.999Z</time></trkpt><trkpt lat="40.31913184081361" lon="14.963710439901114"><ele>247.2</ele><time>2026-04-25T15:12:37.999Z</time></trkpt><trkpt lat="40.31922397271936" lon="14.963658402730232"><ele>252.0</ele><time>2026-04-25T15:12:38.999Z</time></trkpt><trkpt lat="40.31933200249587" lon="14.963561982521789"><ele>252.0</ele><time>2026-04-25T15:12:39.999Z</time></trkpt><trkpt lat="40.31946867315457" lon="14.963469984544664"><ele>252.0</ele><time>2026-04-25T15:12:40.999Z</time></trkpt><trkpt lat="40.319603688419775" lon="14.963373808634714"><ele>252.0</ele><time>2026-04-25T15:12:41.999Z</time></trkpt><trkpt lat="40.319717496529414" lon="14.963294863592568"><ele>252.0</ele><time>2026-04-25T15:12:42.999Z</time></trkpt><trkpt lat="40.31982144879132" lon="14.963222866486829"><ele>252.39999999999998</ele><time>2026-04-25T15:12:43.999Z</time></trkpt><trkpt lat="40.31992719498299" lon="14.96313719792887"><ele>252.79999999999998</ele><time>2026-04-25T15:12:44.999Z</time></trkpt><trkpt lat="40.32001518612518" lon="14.963069383013304"><ele>253.2</ele><time>2026-04-25T15:12:45.999Z</time></trkpt><trkpt lat="40.3200744068272" lon="14.963000196876697"><ele>253.6</ele><time>2026-04-25T15:12:46.999Z</time></trkpt><trkpt lat="40.32014331376981" lon="14.962886982314476"><ele>254.0</ele><time>2026-04-25T15:12:47.999Z</time></trkpt><trkpt lat="40.320213824054996" lon="14.962754473041736"><ele>254.0</ele><time>2026-04-25T15:12:48.999Z</time></trkpt><trkpt lat="40.32029119207008" lon="14.962611321745015"><ele>254.0</ele><time>2026-04-25T15:12:49.999Z</time></trkpt><trkpt lat="40.32037370313614" lon="14.96247133867902"><ele>254.0</ele><time>2026-04-25T15:12:50.999Z</time></trkpt><trkpt lat="40.32045988025735" lon="14.962347390898987"><ele>254.0</ele><time>2026-04-25T15:12:51.999Z</time></trkpt><trkpt lat="40.32053685298777" lon="14.962223446069098"><ele>254.25</ele><time>2026-04-25T15:12:52.999Z</time></trkpt><trkpt lat="40.3206075698989" lon="14.962079541057976"><ele>254.5</ele><time>2026-04-25T15:12:53.999Z</time></trkpt><trkpt lat="40.320666613101224" lon="14.96194770673076"><ele>254.75</ele><time>2026-04-25T15:12:54.999Z</time></trkpt><trkpt lat="40.32070584453559" lon="14.961820350474836"><ele>255.0</ele><time>2026-04-25T15:12:55.999Z</time></trkpt><trkpt lat="40.32072705234285" lon="14.961695214824948"><ele>255.0</ele><time>2026-04-25T15:12:56.999Z</time></trkpt><trkpt lat="40.32071082516833" lon="14.961549890421894"><ele>255.0</ele><time>2026-04-25T15:12:57.999Z</time></trkpt><trkpt lat="40.320695619158215" lon="14.961396226028686"><ele>255.0</ele><time>2026-04-25T15:12:58.999Z</time></trkpt><trkpt lat="40.32070223267768" lon="14.961229188225516"><ele>255.0</ele><time>2026-04-25T15:12:59.999Z</time></trkpt><trkpt lat="40.320688815949055" lon="14.961089833808895"><ele>255.0</ele><time>2026-04-25T15:13:00.999Z</time></trkpt><trkpt lat="40.32070010786726" lon="14.96095685075341"><ele>255.0</ele><time>2026-04-25T15:13:01.999Z</time></trkpt><trkpt lat="40.32071555149419" lon="14.960828760778107"><ele>255.0</ele><time>2026-04-25T15:13:02.999Z</time></trkpt><trkpt lat="40.32071272721432" lon="14.960707336043901"><ele>255.0</ele><time>2026-04-25T15:13:03.999Z</time></trkpt><trkpt lat="40.32069330840362" lon="14.960575964038815"><ele>255.0</ele><time>2026-04-25T15:13:04.999Z</time></trkpt><trkpt lat="40.320655320809486" lon="14.960436029495519"><ele>255.4</ele><time>2026-04-25T15:13:05.999Z</time></trkpt><trkpt lat="40.3206208501236" lon="14.960311289340986"><ele>255.8</ele><time>2026-04-25T15:13:06.999Z</time></trkpt><trkpt lat="40.320593303569446" lon="14.960199009226775"><ele>256.2</ele><time>2026-04-25T15:13:07.999Z</time></trkpt><trkpt lat="40.320563765281825" lon="14.96009216621101"><ele>256.6</ele><time>2026-04-25T15:13:08.999Z</time></trkpt><trkpt lat="40.320526272235924" lon="14.959961171678254"><ele>257.0</ele><time>2026-04-25T15:13:09.999Z</time></trkpt><trkpt lat="40.32049078740769" lon="14.959818734056197"><ele>253.16666666666669</ele><time>2026-04-25T15:13:10.999Z</time></trkpt><trkpt lat="40.32045789676446" lon="14.959678397026488"><ele>249.33333333333334</ele><time>2026-04-25T15:13:11.999Z</time></trkpt><trkpt lat="40.32042786086902" lon="14.959548365448413"><ele>245.5</ele><time>2026-04-25T15:13:12.999Z</time></trkpt><trkpt lat="40.320409179861535" lon="14.959445093657452"><ele>241.66666666666669</ele><time>2026-04-25T15:13:13.999Z</time></trkpt><trkpt lat="40.32038448799698" lon="14.959356196787857"><ele>237.83333333333334</ele><time>2026-04-25T15:13:14.999Z</time></trkpt><trkpt lat="40.320332169843155" lon="14.959279364745814"><ele>234.0</ele><time>2026-04-25T15:13:15.999Z</time></trkpt><trkpt lat="40.32026793863048" lon="14.959213707446338"><ele>237.0</ele><time>2026-04-25T15:13:16.999Z</time></trkpt><trkpt lat="40.320194733588934" lon="14.959171143439631"><ele>239.99999999999997</ele><time>2026-04-25T15:13:17.999Z</time></trkpt><trkpt lat="40.32009841974644" lon="14.959134262369572"><ele>242.99999999999997</ele><time>2026-04-25T15:13:18.999Z</time></trkpt><trkpt lat="40.31999125904552" lon="14.959092397622662"><ele>246.0</ele><time>2026-04-25T15:13:19.999Z</time></trkpt><trkpt lat="40.31988886158557" lon="14.959055417759059"><ele>249.0</ele><time>2026-04-25T15:13:20.999Z</time></trkpt><trkpt lat="40.31979685700175" lon="14.959027618123656"><ele>247.2</ele><time>2026-04-25T15:13:21.999Z</time></trkpt><trkpt lat="40.31970511362044" lon="14.959022192706945"><ele>245.39999999999998</ele><time>2026-04-25T15:13:22.999Z</time></trkpt><trkpt lat="40.31959360529133" lon="14.95902850206444"><ele>243.6</ele><time>2026-04-25T15:13:23.999Z</time></trkpt><trkpt lat="40.31949135274825" lon="14.95905349550315"><ele>241.8</ele><time>2026-04-25T15:13:24.999Z</time></trkpt><trkpt lat="40.31940236076675" lon="14.959073488306919"><ele>240.0</ele><time>2026-04-25T15:13:25.999Z</time></trkpt><trkpt lat="40.31931846577627" lon="14.959077936338234"><ele>240.0</ele><time>2026-04-25T15:13:26.999Z</time></trkpt><trkpt lat="40.31923447152086" lon="14.95904633528421"><ele>240.0</ele><time>2026-04-25T15:13:27.999Z</time></trkpt><trkpt lat="40.31913707089111" lon="14.95897223366183"><ele>240.0</ele><time>2026-04-25T15:13:28.999Z</time></trkpt><trkpt lat="40.31903422209605" lon="14.95888126933315"><ele>240.0</ele><time>2026-04-25T15:13:29.999Z</time></trkpt><trkpt lat="40.318934117596136" lon="14.958799480156339"><ele>240.0</ele><time>2026-04-25T15:13:30.999Z</time></trkpt><trkpt lat="40.31884092911014" lon="14.958739321338987"><ele>237.0</ele><time>2026-04-25T15:13:31.999Z</time></trkpt><trkpt lat="40.31874646415568" lon="14.958693497250824"><ele>234.0</ele><time>2026-04-25T15:13:32.999Z</time></trkpt><trkpt lat="40.3186322718249" lon="14.95864893243534"><ele>231.0</ele><time>2026-04-25T15:13:33.999Z</time></trkpt><trkpt lat="40.31852456839653" lon="14.958612518700956"><ele>228.0</ele><time>2026-04-25T15:13:34.999Z</time></trkpt><trkpt lat="40.31844207547505" lon="14.95858428449784"><ele>225.0</ele><time>2026-04-25T15:13:35.999Z</time></trkpt><trkpt lat="40.31837207227733" lon="14.958546977718223"><ele>225.0</ele><time>2026-04-25T15:13:36.999Z</time></trkpt><trkpt lat="40.318307092935164" lon="14.95846628597303"><ele>225.0</ele><time>2026-04-25T15:13:37.999Z</time></trkpt><trkpt lat="40.31823832236605" lon="14.958367436014472"><ele>225.0</ele><time>2026-04-25T15:13:38.999Z</time></trkpt><trkpt lat="40.31817221250601" lon="14.95824443033355"><ele>225.0</ele><time>2026-04-25T15:13:39.999Z</time></trkpt><trkpt lat="40.31809576174269" lon="14.958133928304655"><ele>225.0</ele><time>2026-04-25T15:13:40.999Z</time></trkpt><trkpt lat="40.31801137568574" lon="14.958026718315717"><ele>224.0</ele><time>2026-04-25T15:13:41.999Z</time></trkpt><trkpt lat="40.317923044460755" lon="14.957916067797205"><ele>223.0</ele><time>2026-04-25T15:13:42.999Z</time></trkpt><trkpt lat="40.31784339303485" lon="14.957810450454943"><ele>222.0</ele><time>2026-04-25T15:13:43.999Z</time></trkpt><trkpt lat="40.31776794875248" lon="14.957705636578332"><ele>221.0</ele><time>2026-04-25T15:13:44.999Z</time></trkpt><trkpt lat="40.317709670821124" lon="14.957606894210084"><ele>220.0</ele><time>2026-04-25T15:13:45.999Z</time></trkpt><trkpt lat="40.317670324272136" lon="14.957521683102726"><ele>223.2</ele><time>2026-04-25T15:13:46.999Z</time></trkpt><trkpt lat="40.31767181559117" lon="14.95741231630649"><ele>226.4</ele><time>2026-04-25T15:13:48.999Z</time></trkpt><trkpt lat="40.31770899569423" lon="14.9573372669834"><ele>229.60000000000002</ele><time>2026-04-25T15:13:49.999Z</time></trkpt><trkpt lat="40.317775097976956" lon="14.95724693768041"><ele>232.8</ele><time>2026-04-25T15:13:50.998Z</time></trkpt><trkpt lat="40.31784798014187" lon="14.957144601056612"><ele>236.0</ele><time>2026-04-25T15:13:51.998Z</time></trkpt><trkpt lat="40.31793179633463" lon="14.95704141452236"><ele>236.0</ele><time>2026-04-25T15:13:52.998Z</time></trkpt><trkpt lat="40.318016348815014" lon="14.956920499177238"><ele>236.0</ele><time>2026-04-25T15:13:53.998Z</time></trkpt><trkpt lat="40.31810117079366" lon="14.956788315338986"><ele>236.0</ele><time>2026-04-25T15:13:54.998Z</time></trkpt><trkpt lat="40.31818406425575" lon="14.956657036733223"><ele>236.0</ele><time>2026-04-25T15:13:55.998Z</time></trkpt><trkpt lat="40.31826241535479" lon="14.95654041251181"><ele>236.16666666666669</ele><time>2026-04-25T15:13:56.998Z</time></trkpt><trkpt lat="40.31832003079375" lon="14.95645475789767"><ele>236.33333333333334</ele><time>2026-04-25T15:13:57.998Z</time></trkpt><trkpt lat="40.318367946485964" lon="14.956369475173773"><ele>236.5</ele><time>2026-04-25T15:13:58.998Z</time></trkpt><trkpt lat="40.318409078166034" lon="14.956266829546404"><ele>236.66666666666669</ele><time>2026-04-25T15:13:59.998Z</time></trkpt><trkpt lat="40.31843017112063" lon="14.956158447514934"><ele>236.83333333333334</ele><time>2026-04-25T15:14:01Z</time></trkpt><trkpt lat="40.318432852581175" lon="14.956028088960924"><ele>237.0</ele><time>2026-04-25T15:14:02Z</time></trkpt><trkpt lat="40.3184265990329" lon="14.955859185980275"><ele>237.0</ele><time>2026-04-25T15:14:03Z</time></trkpt><trkpt lat="40.31843002073757" lon="14.955683351340376"><ele>237.0</ele><time>2026-04-25T15:14:04Z</time></trkpt><trkpt lat="40.31843684660959" lon="14.955527965159416"><ele>237.0</ele><time>2026-04-25T15:14:05Z</time></trkpt><trkpt lat="40.31844799145632" lon="14.955392091652415"><ele>237.0</ele><time>2026-04-25T15:14:06Z</time></trkpt><trkpt lat="40.31846122548625" lon="14.955287697146796"><ele>237.0</ele><time>2026-04-25T15:14:07Z</time></trkpt><trkpt lat="40.31848585070718" lon="14.955196472667101"><ele>237.0</ele><time>2026-04-25T15:14:08Z</time></trkpt><trkpt lat="40.31851730589996" lon="14.955116343570408"><ele>237.0</ele><time>2026-04-25T15:14:09Z</time></trkpt><trkpt lat="40.318552770243706" lon="14.955023878490955"><ele>237.0</ele><time>2026-04-25T15:14:17Z</time></trkpt><trkpt lat="40.31856293888099" lon="14.954937902234995"><ele>237.0</ele><time>2026-04-25T15:14:20Z</time></trkpt><trkpt lat="40.3184871630552" lon="14.954893552291322"><ele>237.0</ele><time>2026-04-25T15:14:21Z</time></trkpt><trkpt lat="40.318429999895216" lon="14.954839443298038"><ele>237.0</ele><time>2026-04-25T15:14:23.999Z</time></trkpt><trkpt lat="40.318370550768705" lon="14.95476015682386"><ele>235.16666666666666</ele><time>2026-04-25T15:14:28.999Z</time></trkpt><trkpt lat="40.31833270620427" lon="14.954663604654456"><ele>233.33333333333331</ele><time>2026-04-25T15:14:31.999Z</time></trkpt><trkpt lat="40.31829721788269" lon="14.954555603982447"><ele>231.5</ele><time>2026-04-25T15:14:34.999Z</time></trkpt><trkpt lat="40.31823591960924" lon="14.9544773088511"><ele>229.66666666666666</ele><time>2026-04-25T15:14:37.999Z</time></trkpt><trkpt lat="40.318255044510664" lon="14.954387551509338"><ele>227.83333333333331</ele><time>2026-04-25T15:15:05.999Z</time></trkpt><trkpt lat="40.31829884547143" lon="14.954306496636049"><ele>226.0</ele><time>2026-04-25T15:15:08.999Z</time></trkpt><trkpt lat="40.3183735517928" lon="14.954261603757192"><ele>226.0</ele><time>2026-04-25T15:15:11.999Z</time></trkpt><trkpt lat="40.318446724789204" lon="14.954247523982772"><ele>226.00000000000003</ele><time>2026-04-25T15:15:13.999Z</time></trkpt><trkpt lat="40.318570994644034" lon="14.954275813261331"><ele>226.00000000000003</ele><time>2026-04-25T15:15:16.999Z</time></trkpt><trkpt lat="40.31867940742347" lon="14.95432534792111"><ele>226.0</ele><time>2026-04-25T15:15:18.999Z</time></trkpt><trkpt lat="40.31878004227338" lon="14.954356831035243"><ele>226.0</ele><time>2026-04-25T15:15:20.999Z</time></trkpt><trkpt lat="40.31888464965168" lon="14.954345620036891"><ele>225.4</ele><time>2026-04-25T15:15:22.999Z</time></trkpt><trkpt lat="40.31898572984904" lon="14.954293419785069"><ele>224.8</ele><time>2026-04-25T15:15:24.999Z</time></trkpt><trkpt lat="40.31905931855118" lon="14.954230115258309"><ele>224.20000000000002</ele><time>2026-04-25T15:15:26.999Z</time></trkpt><trkpt lat="40.31912057233934" lon="14.954134502997343"><ele>223.60000000000002</ele><time>2026-04-25T15:15:28.999Z</time></trkpt><trkpt lat="40.31916091776491" lon="14.95405036990918"><ele>223.0</ele><time>2026-04-25T15:15:30.999Z</time></trkpt><trkpt lat="40.319214256552144" lon="14.953940630603359"><ele>223.0</ele><time>2026-04-25T15:15:33.999Z</time></trkpt><trkpt lat="40.31937381389649" lon="14.95364879804896"><ele>223.0</ele><time>2026-04-25T15:15:39.999Z</time></trkpt><trkpt lat="40.319423323182946" lon="14.953570999380934"><ele>223.0</ele><time>2026-04-25T15:15:41.999Z</time></trkpt><trkpt lat="40.319463189209884" lon="14.953465166885596"><ele>223.0</ele><time>2026-04-25T15:15:44.999Z</time></trkpt><trkpt lat="40.319500180805065" lon="14.95336809961417"><ele>219.8</ele><time>2026-04-25T15:15:46.999Z</time></trkpt><trkpt lat="40.31958676364738" lon="14.95330366728451"><ele>216.60000000000002</ele><time>2026-04-25T15:15:48.999Z</time></trkpt><trkpt lat="40.31969558819527" lon="14.953257711536695"><ele>213.39999999999998</ele><time>2026-04-25T15:15:50.999Z</time></trkpt><trkpt lat="40.3198115687188" lon="14.95323722247504"><ele>210.2</ele><time>2026-04-25T15:15:52.999Z</time></trkpt><trkpt lat="40.319904321769975" lon="14.953195726819645"><ele>207.0</ele><time>2026-04-25T15:15:54.998Z</time></trkpt><trkpt lat="40.320006272948234" lon="14.953158220649145"><ele>207.0</ele><time>2026-04-25T15:15:56.998Z</time></trkpt><trkpt lat="40.32008952128167" lon="14.953108194478748"><ele>207.0</ele><time>2026-04-25T15:15:58.998Z</time></trkpt><trkpt lat="40.32017466209405" lon="14.95305194926367"><ele>207.0</ele><time>2026-04-25T15:16:00.998Z</time></trkpt><trkpt lat="40.320210716182345" lon="14.952980182242301"><ele>207.0</ele><time>2026-04-25T15:16:02.998Z</time></trkpt><trkpt lat="40.320157815151084" lon="14.952901310987214"><ele>207.0</ele><time>2026-04-25T15:16:04.998Z</time></trkpt><trkpt lat="40.32006484374698" lon="14.9528504740666"><ele>207.0</ele><time>2026-04-25T15:16:07Z</time></trkpt><trkpt lat="40.319958333533314" lon="14.952860637978187"><ele>207.0</ele><time>2026-04-25T15:16:09Z</time></trkpt><trkpt lat="40.31984889432226" lon="14.952785239024097"><ele>207.0</ele><time>2026-04-25T15:16:11Z</time></trkpt><trkpt lat="40.31976703004835" lon="14.952791890134696"><ele>207.0</ele><time>2026-04-25T15:16:12Z</time></trkpt><trkpt lat="40.31969880844691" lon="14.952814087469608"><ele>207.0</ele><time>2026-04-25T15:16:13Z</time></trkpt><trkpt lat="40.3195944755326" lon="14.952843657322012"><ele>207.0</ele><time>2026-04-25T15:16:15Z</time></trkpt><trkpt lat="40.3194935129778" lon="14.952837757894258"><ele>206.5</ele><time>2026-04-25T15:16:17Z</time></trkpt><trkpt lat="40.319392902225886" lon="14.952838915053473"><ele>206.0</ele><time>2026-04-25T15:16:19Z</time></trkpt><trkpt lat="40.319269355994294" lon="14.952833292921937"><ele>205.5</ele><time>2026-04-25T15:16:21Z</time></trkpt><trkpt lat="40.31920326550601" lon="14.952860992433557"><ele>205.0</ele><time>2026-04-25T15:16:22Z</time></trkpt><trkpt lat="40.31913571497947" lon="14.952874993839675"><ele>204.5</ele><time>2026-04-25T15:16:23Z</time></trkpt><trkpt lat="40.319072381035014" lon="14.952890179061693"><ele>204.0</ele><time>2026-04-25T15:16:24Z</time></trkpt><trkpt lat="40.31895473720968" lon="14.952916371140597"><ele>206.0</ele><time>2026-04-25T15:16:25.999Z</time></trkpt><trkpt lat="40.3188381156835" lon="14.952935844885776"><ele>208.0</ele><time>2026-04-25T15:16:27.999Z</time></trkpt><trkpt lat="40.318727112611434" lon="14.952952844344951"><ele>210.0</ele><time>2026-04-25T15:16:29.999Z</time></trkpt><trkpt lat="40.31863286028899" lon="14.95289723329638"><ele>212.0</ele><time>2026-04-25T15:16:31.999Z</time></trkpt><trkpt lat="40.318611130488364" lon="14.952741508317938"><ele>212.0</ele><time>2026-04-25T15:16:33.999Z</time></trkpt><trkpt lat="40.3186450224515" lon="14.952628946666179"><ele>212.0</ele><time>2026-04-25T15:16:35.999Z</time></trkpt><trkpt lat="40.318686428848494" lon="14.952542479538613"><ele>212.0</ele><time>2026-04-25T15:16:37.999Z</time></trkpt><trkpt lat="40.31878644257556" lon="14.95250236195461"><ele>212.0</ele><time>2026-04-25T15:16:40.999Z</time></trkpt><trkpt lat="40.318921782519354" lon="14.95247441658083"><ele>212.0</ele><time>2026-04-25T15:16:43.999Z</time></trkpt><trkpt lat="40.318995587690175" lon="14.952463617156514"><ele>207.2</ele><time>2026-04-25T15:16:45.999Z</time></trkpt><trkpt lat="40.319091309798274" lon="14.952494991815849"><ele>202.39999999999998</ele><time>2026-04-25T15:16:47.999Z</time></trkpt><trkpt lat="40.31920827572623" lon="14.952474747689767"><ele>197.60000000000002</ele><time>2026-04-25T15:16:49.999Z</time></trkpt><trkpt lat="40.319306489211655" lon="14.95248215481778"><ele>192.8</ele><time>2026-04-25T15:16:51.999Z</time></trkpt><trkpt lat="40.31940722064992" lon="14.952468944240309"><ele>188.0</ele><time>2026-04-25T15:16:53.999Z</time></trkpt><trkpt lat="40.31951312175209" lon="14.952423100515057"><ele>188.0</ele><time>2026-04-25T15:16:55.999Z</time></trkpt><trkpt lat="40.31957276961868" lon="14.952391126174188"><ele>188.0</ele><time>2026-04-25T15:16:56.999Z</time></trkpt><trkpt lat="40.31966003016761" lon="14.952319496238976"><ele>188.0</ele><time>2026-04-25T15:16:58.999Z</time></trkpt><trkpt lat="40.31973378206706" lon="14.952260370158664"><ele>188.0</ele><time>2026-04-25T15:17:00.999Z</time></trkpt><trkpt lat="40.319838363497865" lon="14.95221612605178"><ele>188.0</ele><time>2026-04-25T15:17:02.999Z</time></trkpt><trkpt lat="40.31996271154654" lon="14.952161965950506"><ele>188.0</ele><time>2026-04-25T15:17:04.999Z</time></trkpt><trkpt lat="40.320025581728906" lon="14.95212780068644"><ele>188.0</ele><time>2026-04-25T15:17:05.999Z</time></trkpt><trkpt lat="40.32009876396726" lon="14.9520878426157"><ele>188.0</ele><time>2026-04-25T15:17:06.999Z</time></trkpt><trkpt lat="40.32016970592495" lon="14.952040037744961"><ele>188.0</ele><time>2026-04-25T15:17:07.999Z</time></trkpt><trkpt lat="40.32023278042864" lon="14.951999374149635"><ele>188.0</ele><time>2026-04-25T15:17:08.999Z</time></trkpt><trkpt lat="40.320295254691615" lon="14.951961062042372"><ele>188.0</ele><time>2026-04-25T15:17:09.999Z</time></trkpt><trkpt lat="40.32035298906314" lon="14.951924614983731"><ele>188.0</ele><time>2026-04-25T15:17:10.999Z</time></trkpt><trkpt lat="40.32044859312775" lon="14.951851109703322"><ele>188.0</ele><time>2026-04-25T15:17:12.999Z</time></trkpt><trkpt lat="40.320540100253844" lon="14.951813448841179"><ele>188.0</ele><time>2026-04-25T15:17:14.999Z</time></trkpt><trkpt lat="40.320644318708794" lon="14.951778606194223"><ele>188.0</ele><time>2026-04-25T15:17:16.999Z</time></trkpt><trkpt lat="40.3207440556867" lon="14.951718491731784"><ele>188.0</ele><time>2026-04-25T15:17:18.999Z</time></trkpt><trkpt lat="40.320809198995065" lon="14.951680031968346"><ele>188.0</ele><time>2026-04-25T15:17:19.999Z</time></trkpt><trkpt lat="40.320874571312224" lon="14.951606754958418"><ele>186.16666666666666</ele><time>2026-04-25T15:17:21.999Z</time></trkpt><trkpt lat="40.32090768331544" lon="14.95153240057352"><ele>184.33333333333331</ele><time>2026-04-25T15:17:23.999Z</time></trkpt><trkpt lat="40.320932765509546" lon="14.951408773184323"><ele>182.5</ele><time>2026-04-25T15:17:25.999Z</time></trkpt><trkpt lat="40.320941982218415" lon="14.951312161501896"><ele>180.66666666666666</ele><time>2026-04-25T15:17:26.999Z</time></trkpt><trkpt lat="40.320965724488325" lon="14.951138813972563"><ele>178.83333333333334</ele><time>2026-04-25T15:17:28.999Z</time></trkpt><trkpt lat="40.32097898017304" lon="14.951055513355415"><ele>177.0</ele><time>2026-04-25T15:17:29.999Z</time></trkpt><trkpt lat="40.32100158415904" lon="14.950976447837945"><ele>174.39999999999998</ele><time>2026-04-25T15:17:30.999Z</time></trkpt><trkpt lat="40.3210563649152" lon="14.950842847051932"><ele>171.79999999999998</ele><time>2026-04-25T15:17:32.999Z</time></trkpt><trkpt lat="40.32108917295269" lon="14.950713660812632"><ele>169.2</ele><time>2026-04-25T15:17:34.999Z</time></trkpt><trkpt lat="40.32112662082937" lon="14.950603439109752"><ele>166.6</ele><time>2026-04-25T15:17:36.999Z</time></trkpt><trkpt lat="40.321166057429075" lon="14.95049270206047"><ele>164.0</ele><time>2026-04-25T15:17:38.999Z</time></trkpt><trkpt lat="40.32118861458925" lon="14.95038443767419"><ele>164.0</ele><time>2026-04-25T15:17:40.999Z</time></trkpt><trkpt lat="40.321208903208586" lon="14.950278423303306"><ele>164.0</ele><time>2026-04-25T15:17:42.999Z</time></trkpt><trkpt lat="40.321249733384676" lon="14.950176499947451"><ele>164.0</ele><time>2026-04-25T15:17:44.999Z</time></trkpt><trkpt lat="40.321297537821685" lon="14.950095698594083"><ele>164.0</ele><time>2026-04-25T15:17:47.999Z</time></trkpt><trkpt lat="40.32134272154976" lon="14.949983138525646"><ele>164.0</ele><time>2026-04-25T15:17:49.999Z</time></trkpt><trkpt lat="40.32134618168127" lon="14.949871464406225"><ele>164.0</ele><time>2026-04-25T15:17:52.999Z</time></trkpt><trkpt lat="40.32131153881897" lon="14.949796819365053"><ele>161.39999999999998</ele><time>2026-04-25T15:17:54.999Z</time></trkpt><trkpt lat="40.32126804135003" lon="14.949701405485548"><ele>158.79999999999998</ele><time>2026-04-25T15:17:56.999Z</time></trkpt><trkpt lat="40.321222721487786" lon="14.94959377560098"><ele>156.2</ele><time>2026-04-25T15:17:58.998Z</time></trkpt><trkpt lat="40.32116010152606" lon="14.949494364702836"><ele>153.6</ele><time>2026-04-25T15:18:00.998Z</time></trkpt><trkpt lat="40.32111092894031" lon="14.949379972632494"><ele>151.0</ele><time>2026-04-25T15:18:02.998Z</time></trkpt><trkpt lat="40.32104791695271" lon="14.94926003790682"><ele>149.83333333333334</ele><time>2026-04-25T15:18:04.998Z</time></trkpt><trkpt lat="40.32101700585739" lon="14.94912891185444"><ele>148.66666666666669</ele><time>2026-04-25T15:18:06.998Z</time></trkpt><trkpt lat="40.320986244441386" lon="14.949053714543034"><ele>147.5</ele><time>2026-04-25T15:18:07.998Z</time></trkpt><trkpt lat="40.32094956668696" lon="14.948967256385897"><ele>146.33333333333334</ele><time>2026-04-25T15:18:08.998Z</time></trkpt><trkpt lat="40.320900878072486" lon="14.94887699622329"><ele>145.16666666666666</ele><time>2026-04-25T15:18:09.998Z</time></trkpt><trkpt lat="40.32085669619721" lon="14.948800322154748"><ele>144.0</ele><time>2026-04-25T15:18:10.998Z</time></trkpt><trkpt lat="40.32082290921233" lon="14.948708267064074"><ele>144.0</ele><time>2026-04-25T15:18:11.999Z</time></trkpt><trkpt lat="40.320774809308475" lon="14.948642871836393"><ele>144.0</ele><time>2026-04-25T15:18:12.999Z</time></trkpt><trkpt lat="40.32072116431905" lon="14.948513652562516"><ele>144.0</ele><time>2026-04-25T15:18:14.999Z</time></trkpt><trkpt lat="40.3206745647888" lon="14.948429459182185"><ele>144.0</ele><time>2026-04-25T15:18:15.999Z</time></trkpt><trkpt lat="40.320613363253216" lon="14.948360310332522"><ele>144.0</ele><time>2026-04-25T15:18:16.999Z</time></trkpt><trkpt lat="40.32056852862239" lon="14.948288264451769"><ele>144.0</ele><time>2026-04-25T15:18:17.999Z</time></trkpt><trkpt lat="40.32052816892546" lon="14.948214362474088"><ele>140.83333333333334</ele><time>2026-04-25T15:18:18.999Z</time></trkpt><trkpt lat="40.32048403502837" lon="14.948142640601004"><ele>137.66666666666666</ele><time>2026-04-25T15:18:19.999Z</time></trkpt><trkpt lat="40.320441100667715" lon="14.948077074608713"><ele>134.5</ele><time>2026-04-25T15:18:20.999Z</time></trkpt><trkpt lat="40.32039567798753" lon="14.94800576971231"><ele>131.33333333333331</ele><time>2026-04-25T15:18:21.999Z</time></trkpt><trkpt lat="40.32032280615472" lon="14.947901751570917"><ele>128.16666666666666</ele><time>2026-04-25T15:18:23.999Z</time></trkpt><trkpt lat="40.32027269058662" lon="14.947795197105378"><ele>125.0</ele><time>2026-04-25T15:18:25.999Z</time></trkpt><trkpt lat="40.320223825455486" lon="14.947694051672089"><ele>124.99999999999999</ele><time>2026-04-25T15:18:27.999Z</time></trkpt><trkpt lat="40.32023461106929" lon="14.947574502854753"><ele>125.0</ele><time>2026-04-25T15:18:29.999Z</time></trkpt><trkpt lat="40.32027060999608" lon="14.947495077697877"><ele>125.0</ele><time>2026-04-25T15:18:31.999Z</time></trkpt><trkpt lat="40.32031392984735" lon="14.94743092525706"><ele>125.0</ele><time>2026-04-25T15:18:34.999Z</time></trkpt><trkpt lat="40.32045356352644" lon="14.947361805556211"><ele>124.99999999999999</ele><time>2026-04-25T15:19:31.999Z</time></trkpt><trkpt lat="40.320519113827565" lon="14.947348451183862"><ele>125.0</ele><time>2026-04-25T15:19:32.999Z</time></trkpt><trkpt lat="40.32063670413729" lon="14.947346877662437"><ele>126.2</ele><time>2026-04-25T15:19:34.999Z</time></trkpt><trkpt lat="40.32074859383275" lon="14.94736772385397"><ele>127.4</ele><time>2026-04-25T15:19:36.999Z</time></trkpt><trkpt lat="40.320839139054" lon="14.947364472636426"><ele>128.6</ele><time>2026-04-25T15:19:38.999Z</time></trkpt><trkpt lat="40.32092117016125" lon="14.947333632829832"><ele>129.8</ele><time>2026-04-25T15:19:40.999Z</time></trkpt><trkpt lat="40.320979417897554" lon="14.947282361056947"><ele>131.0</ele><time>2026-04-25T15:19:42.999Z</time></trkpt><trkpt lat="40.32092414142248" lon="14.947114677403142"><ele>131.0</ele><time>2026-04-25T15:19:47.999Z</time></trkpt><trkpt lat="40.320842567599335" lon="14.947058703839149"><ele>131.0</ele><time>2026-04-25T15:19:48.999Z</time></trkpt><trkpt lat="40.32075464739292" lon="14.9470274018576"><ele>131.0</ele><time>2026-04-25T15:19:49.999Z</time></trkpt><trkpt lat="40.32067296629623" lon="14.947007038280516"><ele>131.0</ele><time>2026-04-25T15:19:50.999Z</time></trkpt><trkpt lat="40.320602802527155" lon="14.946996571270631"><ele>131.0</ele><time>2026-04-25T15:19:51.999Z</time></trkpt><trkpt lat="40.32052988228625" lon="14.946997693620343"><ele>131.0</ele><time>2026-04-25T15:19:52.999Z</time></trkpt><trkpt lat="40.32045624342994" lon="14.947010337694337"><ele>129.66666666666666</ele><time>2026-04-25T15:19:53.999Z</time></trkpt><trkpt lat="40.320367532714705" lon="14.947032811841517"><ele>128.33333333333331</ele><time>2026-04-25T15:19:55.999Z</time></trkpt><trkpt lat="40.320310313016684" lon="14.947105497084516"><ele>127.0</ele><time>2026-04-25T15:20:03.998Z</time></trkpt><trkpt lat="40.32022700199497" lon="14.947127884051707"><ele>125.66666666666666</ele><time>2026-04-25T15:20:05.998Z</time></trkpt><trkpt lat="40.320145727651855" lon="14.947157393164655"><ele>124.33333333333333</ele><time>2026-04-25T15:20:07.998Z</time></trkpt><trkpt lat="40.32006411121353" lon="14.947200679988494"><ele>123.0</ele><time>2026-04-25T15:20:09.998Z</time></trkpt><trkpt lat="40.319947641268904" lon="14.947265083215303"><ele>123.0</ele><time>2026-04-25T15:20:11.998Z</time></trkpt><trkpt lat="40.31987598152296" lon="14.947238153365591"><ele>123.00000000000001</ele><time>2026-04-25T15:20:12.998Z</time></trkpt><trkpt lat="40.31977093094101" lon="14.947277063283066"><ele>123.00000000000001</ele><time>2026-04-25T15:20:14.998Z</time></trkpt><trkpt lat="40.3196867037126" lon="14.94725318477118"><ele>123.0</ele><time>2026-04-25T15:20:17.999Z</time></trkpt><trkpt lat="40.31958942570349" lon="14.94712547753183"><ele>123.0</ele><time>2026-04-25T15:20:19.999Z</time></trkpt><trkpt lat="40.319536465921125" lon="14.94703084573439"><ele>119.0</ele><time>2026-04-25T15:20:20.999Z</time></trkpt><trkpt lat="40.31947770991464" lon="14.94693446966511"><ele>115.00000000000001</ele><time>2026-04-25T15:20:21.999Z</time></trkpt><trkpt lat="40.31942394923492" lon="14.94684375750539"><ele>111.0</ele><time>2026-04-25T15:20:22.999Z</time></trkpt><trkpt lat="40.3193649586782" lon="14.946740590220061"><ele>107.0</ele><time>2026-04-25T15:20:23.999Z</time></trkpt><trkpt lat="40.31930458760605" lon="14.946634299354503"><ele>103.0</ele><time>2026-04-25T15:20:24.999Z</time></trkpt><trkpt lat="40.31925215911715" lon="14.946547091658436"><ele>103.0</ele><time>2026-04-25T15:20:25.999Z</time></trkpt><trkpt lat="40.319206003506466" lon="14.946474182387306"><ele>103.0</ele><time>2026-04-25T15:20:27Z</time></trkpt><trkpt lat="40.319152239014905" lon="14.946408493632958"><ele>103.0</ele><time>2026-04-25T15:20:27.999Z</time></trkpt><trkpt lat="40.31908241263718" lon="14.946343787227793"><ele>103.0</ele><time>2026-04-25T15:20:29Z</time></trkpt><trkpt lat="40.31900688444224" lon="14.946263064993614"><ele>103.0</ele><time>2026-04-25T15:20:30Z</time></trkpt><trkpt lat="40.318894404769544" lon="14.946186266232367"><ele>100.60000000000001</ele><time>2026-04-25T15:20:31Z</time></trkpt><trkpt lat="40.3187852841252" lon="14.946120192084905"><ele>98.2</ele><time>2026-04-25T15:20:31.999Z</time></trkpt><trkpt lat="40.31867743375368" lon="14.94605995875118"><ele>95.8</ele><time>2026-04-25T15:20:32.999Z</time></trkpt><trkpt lat="40.31857092159502" lon="14.94602323765611"><ele>93.4</ele><time>2026-04-25T15:20:33.999Z</time></trkpt><trkpt lat="40.31847734783651" lon="14.94598456706756"><ele>91.0</ele><time>2026-04-25T15:20:34.999Z</time></trkpt><trkpt lat="40.318387698135844" lon="14.945954483362758"><ele>91.0</ele><time>2026-04-25T15:20:35.999Z</time></trkpt><trkpt lat="40.318291211023244" lon="14.945897563620932"><ele>91.0</ele><time>2026-04-25T15:20:36.999Z</time></trkpt><trkpt lat="40.318186675196266" lon="14.945848429858342"><ele>91.0</ele><time>2026-04-25T15:20:37.999Z</time></trkpt><trkpt lat="40.31808040023327" lon="14.945798478121535"><ele>91.0</ele><time>2026-04-25T15:20:38.999Z</time></trkpt><trkpt lat="40.31797529191305" lon="14.945764108297714"><ele>91.0</ele><time>2026-04-25T15:20:39.999Z</time></trkpt><trkpt lat="40.31788664915728" lon="14.945690281099328"><ele>93.16666666666666</ele><time>2026-04-25T15:20:40.999Z</time></trkpt><trkpt lat="40.31781456990893" lon="14.945638304181907"><ele>95.33333333333333</ele><time>2026-04-25T15:20:41.999Z</time></trkpt><trkpt lat="40.31775754409901" lon="14.945585629359774"><ele>97.5</ele><time>2026-04-25T15:20:42.999Z</time></trkpt><trkpt lat="40.31770752197521" lon="14.945522254328804"><ele>99.66666666666666</ele><time>2026-04-25T15:20:43.999Z</time></trkpt><trkpt lat="40.31767331756202" lon="14.945436672459836"><ele>101.83333333333333</ele><time>2026-04-25T15:20:44.999Z</time></trkpt><trkpt lat="40.31764345878744" lon="14.945339422909534"><ele>104.0</ele><time>2026-04-25T15:20:45.999Z</time></trkpt><trkpt lat="40.31763255352057" lon="14.945223005240095"><ele>104.0</ele><time>2026-04-25T15:20:46.999Z</time></trkpt><trkpt lat="40.31762136195518" lon="14.945079487853928"><ele>104.0</ele><time>2026-04-25T15:20:47.999Z</time></trkpt><trkpt lat="40.317611304365236" lon="14.944902486706212"><ele>104.0</ele><time>2026-04-25T15:20:48.999Z</time></trkpt><trkpt lat="40.31759151150997" lon="14.944700501218545"><ele>104.0</ele><time>2026-04-25T15:20:49.999Z</time></trkpt><trkpt lat="40.31756686620176" lon="14.944521693491664"><ele>104.5</ele><time>2026-04-25T15:20:50.999Z</time></trkpt><trkpt lat="40.317547984538606" lon="14.944356292448209"><ele>105.0</ele><time>2026-04-25T15:20:51.999Z</time></trkpt><trkpt lat="40.31752834824058" lon="14.944184554595891"><ele>105.5</ele><time>2026-04-25T15:20:52.999Z</time></trkpt><trkpt lat="40.31751544394554" lon="14.944012682568736"><ele>106.0</ele><time>2026-04-25T15:20:53.999Z</time></trkpt><trkpt lat="40.317500289589155" lon="14.943829463790323"><ele>103.75</ele><time>2026-04-25T15:20:54.999Z</time></trkpt><trkpt lat="40.31748723616173" lon="14.943647351112133"><ele>101.5</ele><time>2026-04-25T15:20:55.999Z</time></trkpt><trkpt lat="40.317477783444886" lon="14.943477630368077"><ele>99.25</ele><time>2026-04-25T15:20:56.999Z</time></trkpt><trkpt lat="40.317467119353786" lon="14.943319995273763"><ele>97.0</ele><time>2026-04-25T15:20:57.999Z</time></trkpt><trkpt lat="40.31745736285009" lon="14.943177702195705"><ele>95.8</ele><time>2026-04-25T15:20:58.999Z</time></trkpt><trkpt lat="40.3174533936803" lon="14.943051953784419"><ele>94.6</ele><time>2026-04-25T15:20:59.999Z</time></trkpt><trkpt lat="40.31745079861256" lon="14.942921836637174"><ele>93.39999999999999</ele><time>2026-04-25T15:21:00.999Z</time></trkpt><trkpt lat="40.31745046382464" lon="14.942794999277542"><ele>92.19999999999999</ele><time>2026-04-25T15:21:01.999Z</time></trkpt><trkpt lat="40.31745112952275" lon="14.942641922698462"><ele>91.0</ele><time>2026-04-25T15:21:02.999Z</time></trkpt><trkpt lat="40.3174511620935" lon="14.942480184167072"><ele>90.0</ele><time>2026-04-25T15:21:03.999Z</time></trkpt><trkpt lat="40.3174525285255" lon="14.94231491016376"><ele>89.0</ele><time>2026-04-25T15:21:04.999Z</time></trkpt><trkpt lat="40.317440917427646" lon="14.942145504281966"><ele>88.0</ele><time>2026-04-25T15:21:05.999Z</time></trkpt><trkpt lat="40.31743721118338" lon="14.941980412049164"><ele>87.0</ele><time>2026-04-25T15:21:06.999Z</time></trkpt><trkpt lat="40.31743675132118" lon="14.941819124120164"><ele>86.25</ele><time>2026-04-25T15:21:07.999Z</time></trkpt><trkpt lat="40.317434160868224" lon="14.941671393780044"><ele>85.5</ele><time>2026-04-25T15:21:08.999Z</time></trkpt><trkpt lat="40.31744462398145" lon="14.941513618242556"><ele>84.75</ele><time>2026-04-25T15:21:09.999Z</time></trkpt><trkpt lat="40.31743695022992" lon="14.941359709058249"><ele>84.0</ele><time>2026-04-25T15:21:10.999Z</time></trkpt><trkpt lat="40.31742449627879" lon="14.941196030187642"><ele>84.0</ele><time>2026-04-25T15:21:11.999Z</time></trkpt><trkpt lat="40.3174066151889" lon="14.941040532170051"><ele>84.0</ele><time>2026-04-25T15:21:12.999Z</time></trkpt><trkpt lat="40.317370267156036" lon="14.940906046968514"><ele>84.0</ele><time>2026-04-25T15:21:13.999Z</time></trkpt><trkpt lat="40.317345707378095" lon="14.940796481087222"><ele>84.0</ele><time>2026-04-25T15:21:14.999Z</time></trkpt><trkpt lat="40.31730022548043" lon="14.940658666011588"><ele>84.0</ele><time>2026-04-25T15:21:16.999Z</time></trkpt><trkpt lat="40.317257815446595" lon="14.940561976020982"><ele>75.75</ele><time>2026-04-25T15:21:19.999Z</time></trkpt><trkpt lat="40.31706233441108" lon="14.9406468504469"><ele>67.5</ele><time>2026-04-25T15:21:21.999Z</time></trkpt><trkpt lat="40.3169614705647" lon="14.940716654912762"><ele>59.25</ele><time>2026-04-25T15:21:22.999Z</time></trkpt><trkpt lat="40.31687060229684" lon="14.940787601809271"><ele>51.0</ele><time>2026-04-25T15:21:23.999Z</time></trkpt><trkpt lat="40.31679108676232" lon="14.940870911480829"><ele>58.599999999999994</ele><time>2026-04-25T15:21:24.999Z</time></trkpt><trkpt lat="40.31673380277292" lon="14.940967441425473"><ele>66.2</ele><time>2026-04-25T15:21:25.999Z</time></trkpt><trkpt lat="40.316650478114546" lon="14.941045688969488"><ele>73.80000000000001</ele><time>2026-04-25T15:21:26.999Z</time></trkpt><trkpt lat="40.316584310110464" lon="14.941132032680482"><ele>81.4</ele><time>2026-04-25T15:21:27.999Z</time></trkpt><trkpt lat="40.316521844681915" lon="14.941213984801793"><ele>89.0</ele><time>2026-04-25T15:21:28.999Z</time></trkpt><trkpt lat="40.31646551459966" lon="14.941284199250017"><ele>89.0</ele><time>2026-04-25T15:21:29.999Z</time></trkpt><trkpt lat="40.31640709989217" lon="14.941350994991048"><ele>89.0</ele><time>2026-04-25T15:21:30.999Z</time></trkpt><trkpt lat="40.31634738107336" lon="14.941409916836859"><ele>89.0</ele><time>2026-04-25T15:21:31.999Z</time></trkpt><trkpt lat="40.31628394068163" lon="14.941478543469747"><ele>89.0</ele><time>2026-04-25T15:21:32.999Z</time></trkpt><trkpt lat="40.316221219729826" lon="14.941560617799308"><ele>89.0</ele><time>2026-04-25T15:21:33.999Z</time></trkpt><trkpt lat="40.31616311160873" lon="14.941674164088711"><ele>89.0</ele><time>2026-04-25T15:21:34.999Z</time></trkpt><trkpt lat="40.316114556233074" lon="14.941793452371604"><ele>87.4</ele><time>2026-04-25T15:21:35.999Z</time></trkpt><trkpt lat="40.31606026447396" lon="14.941918264540943"><ele>85.80000000000001</ele><time>2026-04-25T15:21:36.999Z</time></trkpt><trkpt lat="40.315993630443565" lon="14.94203120548105"><ele>84.19999999999999</ele><time>2026-04-25T15:21:37.999Z</time></trkpt><trkpt lat="40.31592607351184" lon="14.94212043200295"><ele>82.6</ele><time>2026-04-25T15:21:38.999Z</time></trkpt><trkpt lat="40.31584732228025" lon="14.942206869144194"><ele>81.0</ele><time>2026-04-25T15:21:39.999Z</time></trkpt><trkpt lat="40.31576356401568" lon="14.942287371906486"><ele>81.0</ele><time>2026-04-25T15:21:40.999Z</time></trkpt><trkpt lat="40.31567937804959" lon="14.942364261387665"><ele>81.0</ele><time>2026-04-25T15:21:41.999Z</time></trkpt><trkpt lat="40.31559837701189" lon="14.942436532580626"><ele>81.0</ele><time>2026-04-25T15:21:42.999Z</time></trkpt><trkpt lat="40.31552037572381" lon="14.942508330282148"><ele>81.0</ele><time>2026-04-25T15:21:43.999Z</time></trkpt><trkpt lat="40.31543760048218" lon="14.94259057754748"><ele>81.0</ele><time>2026-04-25T15:21:44.999Z</time></trkpt><trkpt lat="40.31534930481899" lon="14.94268429907125"><ele>77.6</ele><time>2026-04-25T15:21:45.999Z</time></trkpt><trkpt lat="40.31526907427453" lon="14.942774251436184"><ele>74.19999999999999</ele><time>2026-04-25T15:21:46.999Z</time></trkpt><trkpt lat="40.31518256647376" lon="14.94287158211044"><ele>70.80000000000001</ele><time>2026-04-25T15:21:47.999Z</time></trkpt><trkpt lat="40.315101086585145" lon="14.942964781373139"><ele>67.4</ele><time>2026-04-25T15:21:48.999Z</time></trkpt><trkpt lat="40.315018348510414" lon="14.943059420725238"><ele>64.0</ele><time>2026-04-25T15:21:49.999Z</time></trkpt><trkpt lat="40.314938150301394" lon="14.943155696424656"><ele>64.0</ele><time>2026-04-25T15:21:50.999Z</time></trkpt><trkpt lat="40.31485658308922" lon="14.943255901527158"><ele>64.0</ele><time>2026-04-25T15:21:51.999Z</time></trkpt><trkpt lat="40.31477319017209" lon="14.943361300219237"><ele>64.0</ele><time>2026-04-25T15:21:52.999Z</time></trkpt><trkpt lat="40.31468934563147" lon="14.943474035741245"><ele>64.0</ele><time>2026-04-25T15:21:53.999Z</time></trkpt><trkpt lat="40.3146138115609" lon="14.943584889386008"><ele>57.2</ele><time>2026-04-25T15:21:54.999Z</time></trkpt><trkpt lat="40.3145480269068" lon="14.943689461672829"><ele>50.400000000000006</ele><time>2026-04-25T15:21:55.999Z</time></trkpt><trkpt lat="40.31450243678034" lon="14.943803007922329"><ele>43.6</ele><time>2026-04-25T15:21:56.999Z</time></trkpt><trkpt lat="40.31443798884881" lon="14.943917760285645"><ele>36.8</ele><time>2026-04-25T15:21:57.999Z</time></trkpt><trkpt lat="40.314365768936476" lon="14.944020646532886"><ele>30.0</ele><time>2026-04-25T15:21:58.999Z</time></trkpt><trkpt lat="40.3143024057507" lon="14.94413806913837"><ele>35.6</ele><time>2026-04-25T15:21:59.999Z</time></trkpt><trkpt lat="40.31423433982576" lon="14.944267695332568"><ele>41.2</ele><time>2026-04-25T15:22:00.999Z</time></trkpt><trkpt lat="40.3141686559322" lon="14.94439278518559"><ele>46.8</ele><time>2026-04-25T15:22:01.999Z</time></trkpt><trkpt lat="40.31411891844403" lon="14.944513276971445"><ele>52.4</ele><time>2026-04-25T15:22:02.999Z</time></trkpt><trkpt lat="40.31405588694026" lon="14.944616854389324"><ele>58.0</ele><time>2026-04-25T15:22:03.999Z</time></trkpt><trkpt lat="40.313981897732454" lon="14.944738577064276"><ele>52.4</ele><time>2026-04-25T15:22:04.999Z</time></trkpt><trkpt lat="40.31390014793788" lon="14.94483795693402"><ele>46.8</ele><time>2026-04-25T15:22:05.999Z</time></trkpt><trkpt lat="40.31383127908516" lon="14.944940113252493"><ele>41.2</ele><time>2026-04-25T15:22:06.999Z</time></trkpt><trkpt lat="40.313767885115716" lon="14.945030344453833"><ele>35.6</ele><time>2026-04-25T15:22:07.999Z</time></trkpt><trkpt lat="40.31371151393186" lon="14.945109611803849"><ele>30.0</ele><time>2026-04-25T15:22:08.999Z</time></trkpt><trkpt lat="40.31364225869855" lon="14.945200127915182"><ele>30.0</ele><time>2026-04-25T15:22:09.999Z</time></trkpt><trkpt lat="40.313586301431776" lon="14.945271402639952"><ele>30.0</ele><time>2026-04-25T15:22:10.999Z</time></trkpt><trkpt lat="40.313540290837096" lon="14.945328877346263"><ele>30.0</ele><time>2026-04-25T15:22:11.998Z</time></trkpt><trkpt lat="40.313450299464044" lon="14.945442931837395"><ele>30.0</ele><time>2026-04-25T15:22:13.998Z</time></trkpt><trkpt lat="40.31340534773326" lon="14.9455074572968"><ele>30.0</ele><time>2026-04-25T15:22:14.998Z</time></trkpt><trkpt lat="40.3133683224619" lon="14.945597764450683"><ele>30.0</ele><time>2026-04-25T15:22:15.998Z</time></trkpt><trkpt lat="40.31332680205264" lon="14.945670220662612"><ele>30.0</ele><time>2026-04-25T15:22:16.998Z</time></trkpt><trkpt lat="40.313253012786" lon="14.945773574137634"><ele>30.0</ele><time>2026-04-25T15:22:18.998Z</time></trkpt><trkpt lat="40.313196891418634" lon="14.945856647577774"><ele>30.0</ele><time>2026-04-25T15:22:20.998Z</time></trkpt><trkpt lat="40.31308111451147" lon="14.945879191465565"><ele>30.0</ele><time>2026-04-25T15:22:23Z</time></trkpt><trkpt lat="40.312992055603694" lon="14.945942560573927"><ele>30.0</ele><time>2026-04-25T15:22:24Z</time></trkpt><trkpt lat="40.31291557025317" lon="14.945997443716355"><ele>26.8</ele><time>2026-04-25T15:22:25Z</time></trkpt><trkpt lat="40.31285337867804" lon="14.946042771256845"><ele>23.6</ele><time>2026-04-25T15:22:26Z</time></trkpt><trkpt lat="40.31276417514851" lon="14.946112560178454"><ele>20.4</ele><time>2026-04-25T15:22:28Z</time></trkpt><trkpt lat="40.31266915440941" lon="14.94626563363777"><ele>17.2</ele><time>2026-04-25T15:22:47.999Z</time></trkpt><trkpt lat="40.312612529479026" lon="14.946317542631203"><ele>14.0</ele><time>2026-04-25T15:22:48.999Z</time></trkpt><trkpt lat="40.312531175569" lon="14.946330037851451"><ele>14.0</ele><time>2026-04-25T15:22:49.999Z</time></trkpt><trkpt lat="40.31246792150105" lon="14.946389601661041"><ele>13.999999999999998</ele><time>2026-04-25T15:22:50.999Z</time></trkpt><trkpt lat="40.312414053380245" lon="14.946435741375582"><ele>13.999999999999998</ele><time>2026-04-25T15:22:51.999Z</time></trkpt><trkpt lat="40.312316036077114" lon="14.946492763868292"><ele>14.0</ele><time>2026-04-25T15:22:53.999Z</time></trkpt><trkpt lat="40.31222533421291" lon="14.946589525707681"><ele>14.0</ele><time>2026-04-25T15:22:55.999Z</time></trkpt><trkpt lat="40.31226149288505" lon="14.946737013299112"><ele>14.0</ele><time>2026-04-25T15:22:56.999Z</time></trkpt><trkpt lat="40.31227258758838" lon="14.946858241142502"><ele>13.999999999999998</ele><time>2026-04-25T15:22:57.999Z</time></trkpt><trkpt lat="40.31226667761068" lon="14.946963419781131"><ele>13.999999999999998</ele><time>2026-04-25T15:22:58.999Z</time></trkpt><trkpt lat="40.312240661061836" lon="14.947088207507223"><ele>14.0</ele><time>2026-04-25T15:23:00.999Z</time></trkpt><trkpt lat="40.31219242557105" lon="14.947163774714989"><ele>14.0</ele><time>2026-04-25T15:23:01.999Z</time></trkpt><trkpt lat="40.31208682194897" lon="14.947136836535753"><ele>13.2</ele><time>2026-04-25T15:23:02.999Z</time></trkpt><trkpt lat="40.31199904580974" lon="14.947157022068827"><ele>12.399999999999999</ele><time>2026-04-25T15:23:03.999Z</time></trkpt><trkpt lat="40.31191374622271" lon="14.947176085877828"><ele>11.6</ele><time>2026-04-25T15:23:04.999Z</time></trkpt><trkpt lat="40.31182778619712" lon="14.947193549786615"><ele>10.8</ele><time>2026-04-25T15:23:05.999Z</time></trkpt><trkpt lat="40.31173630503962" lon="14.947212232883748"><ele>10.0</ele><time>2026-04-25T15:23:06.999Z</time></trkpt><trkpt lat="40.311642574738535" lon="14.947251169583682"><ele>10.0</ele><time>2026-04-25T15:23:07.999Z</time></trkpt><trkpt lat="40.311536090316366" lon="14.94735683963974"><ele>10.0</ele><time>2026-04-25T15:23:08.999Z</time></trkpt><trkpt lat="40.31144595687416" lon="14.947465073074138"><ele>10.0</ele><time>2026-04-25T15:23:09.999Z</time></trkpt><trkpt lat="40.311357912463066" lon="14.947574072802524"><ele>10.0</ele><time>2026-04-25T15:23:10.999Z</time></trkpt><trkpt lat="40.31125659581907" lon="14.947700770831233"><ele>10.4</ele><time>2026-04-25T15:23:11.999Z</time></trkpt><trkpt lat="40.31116797320531" lon="14.947812063559459"><ele>10.8</ele><time>2026-04-25T15:23:12.999Z</time></trkpt><trkpt lat="40.31108603262462" lon="14.94791496498464"><ele>11.2</ele><time>2026-04-25T15:23:13.999Z</time></trkpt><trkpt lat="40.31100815864377" lon="14.948012934637319"><ele>11.6</ele><time>2026-04-25T15:23:14.999Z</time></trkpt><trkpt lat="40.31093616836691" lon="14.948103580025453"><ele>12.0</ele><time>2026-04-25T15:23:15.999Z</time></trkpt><trkpt lat="40.310871583224355" lon="14.948184697083443"><ele>12.0</ele><time>2026-04-25T15:23:16.999Z</time></trkpt><trkpt lat="40.310809230999084" lon="14.948262078928213"><ele>12.0</ele><time>2026-04-25T15:23:17.999Z</time></trkpt><trkpt lat="40.310753944679625" lon="14.948330691733837"><ele>12.0</ele><time>2026-04-25T15:23:18.999Z</time></trkpt><trkpt lat="40.310664477951654" lon="14.948437873433708"><ele>12.0</ele><time>2026-04-25T15:23:20.999Z</time></trkpt><trkpt lat="40.31057536692051" lon="14.948544406066741"><ele>12.0</ele><time>2026-04-25T15:23:22.999Z</time></trkpt><trkpt lat="40.3105257368516" lon="14.948603738416299"><ele>12.5</ele><time>2026-04-25T15:23:23.999Z</time></trkpt><trkpt lat="40.31046219402804" lon="14.948681577305184"><ele>13.0</ele><time>2026-04-25T15:23:24.999Z</time></trkpt><trkpt lat="40.310405517489436" lon="14.94873916348252"><ele>13.5</ele><time>2026-04-25T15:23:25.999Z</time></trkpt><trkpt lat="40.3103495269413" lon="14.948792661294425"><ele>14.0</ele><time>2026-04-25T15:23:26.999Z</time></trkpt><trkpt lat="40.31028679301745" lon="14.948830058708525"><ele>14.5</ele><time>2026-04-25T15:23:27.999Z</time></trkpt><trkpt lat="40.310192376277286" lon="14.948895179009957"><ele>15.0</ele><time>2026-04-25T15:23:28.999Z</time></trkpt><trkpt lat="40.3101174747307" lon="14.948941798907768"><ele>15.0</ele><time>2026-04-25T15:23:29.999Z</time></trkpt><trkpt lat="40.310039887986605" lon="14.948991184527271"><ele>15.0</ele><time>2026-04-25T15:23:30.999Z</time></trkpt><trkpt lat="40.30997166602873" lon="14.9490359288049"><ele>15.0</ele><time>2026-04-25T15:23:31.999Z</time></trkpt><trkpt lat="40.30990892218931" lon="14.949077080176536"><ele>15.0</ele><time>2026-04-25T15:23:32.999Z</time></trkpt><trkpt lat="40.309849961792324" lon="14.949115749881825"><ele>15.0</ele><time>2026-04-25T15:23:33.999Z</time></trkpt><trkpt lat="40.30979364171594" lon="14.949152687641938"><ele>15.0</ele><time>2026-04-25T15:23:34.999Z</time></trkpt><trkpt lat="40.309702584609674" lon="14.949211934902918"><ele>15.2</ele><time>2026-04-25T15:23:36.999Z</time></trkpt><trkpt lat="40.30962269810937" lon="14.949259640544625"><ele>15.4</ele><time>2026-04-25T15:23:38.999Z</time></trkpt><trkpt lat="40.30962933978427" lon="14.94943978077883"><ele>15.600000000000001</ele><time>2026-04-25T15:23:39.999Z</time></trkpt><trkpt lat="40.30966502460643" lon="14.949540258785156"><ele>15.8</ele><time>2026-04-25T15:23:40.999Z</time></trkpt><trkpt lat="40.30970599138201" lon="14.949655588228705"><ele>16.0</ele><time>2026-04-25T15:23:41.999Z</time></trkpt><trkpt lat="40.309746328818356" lon="14.949777045011896"><ele>16.0</ele><time>2026-04-25T15:23:42.999Z</time></trkpt><trkpt lat="40.30981552323102" lon="14.949871118621255"><ele>16.0</ele><time>2026-04-25T15:23:43.999Z</time></trkpt><trkpt lat="40.309849160823624" lon="14.949961936566666"><ele>16.0</ele><time>2026-04-25T15:23:44.999Z</time></trkpt><trkpt lat="40.30987595572583" lon="14.950037620898017"><ele>16.0</ele><time>2026-04-25T15:23:45.999Z</time></trkpt><trkpt lat="40.30991899035659" lon="14.950169360059698"><ele>16.0</ele><time>2026-04-25T15:23:47.999Z</time></trkpt><trkpt lat="40.30997127122041" lon="14.950300643013197"><ele>15.8</ele><time>2026-04-25T15:23:49.999Z</time></trkpt><trkpt lat="40.31001176482193" lon="14.95041843379535"><ele>15.600000000000001</ele><time>2026-04-25T15:23:51.999Z</time></trkpt><trkpt lat="40.31005536147905" lon="14.95051692751819"><ele>15.4</ele><time>2026-04-25T15:23:53.999Z</time></trkpt><trkpt lat="40.310077385679485" lon="14.95059548249193"><ele>15.2</ele><time>2026-04-25T15:23:55.999Z</time></trkpt><trkpt lat="40.31004076636308" lon="14.950675609493201"><ele>15.0</ele><time>2026-04-25T15:23:57.999Z</time></trkpt><trkpt lat="40.309908170942116" lon="14.95064767827012"><ele>15.0</ele><time>2026-04-25T15:23:59.999Z</time></trkpt><trkpt lat="40.30983913528738" lon="14.950648992439973"><ele>15.0</ele><time>2026-04-25T15:24:00.999Z</time></trkpt><trkpt lat="40.30976533309694" lon="14.950650643357383"><ele>15.0</ele><time>2026-04-25T15:24:01.999Z</time></trkpt><trkpt lat="40.30969587383235" lon="14.950651142426038"><ele>15.0</ele><time>2026-04-25T15:24:02.999Z</time></trkpt><trkpt lat="40.309628616811004" lon="14.9506508051785"><ele>15.0</ele><time>2026-04-25T15:24:03.999Z</time></trkpt><trkpt lat="40.30955420481942" lon="14.950650432052061"><ele>15.0</ele><time>2026-04-25T15:24:04.999Z</time></trkpt><trkpt lat="40.30947580787338" lon="14.95065003894421"><ele>15.0</ele><time>2026-04-25T15:24:05.999Z</time></trkpt><trkpt lat="40.30939187030419" lon="14.95065419930607"><ele>14.8</ele><time>2026-04-25T15:24:06.999Z</time></trkpt><trkpt lat="40.30928910937692" lon="14.95069183374836"><ele>14.6</ele><time>2026-04-25T15:24:07.999Z</time></trkpt><trkpt lat="40.30919342589194" lon="14.9507389169556"><ele>14.399999999999999</ele><time>2026-04-25T15:24:08.999Z</time></trkpt><trkpt lat="40.309111845622766" lon="14.950801397640504"><ele>14.2</ele><time>2026-04-25T15:24:09.999Z</time></trkpt><trkpt lat="40.30904547491191" lon="14.950911839373143"><ele>14.0</ele><time>2026-04-25T15:24:10.999Z</time></trkpt><trkpt lat="40.3090192790522" lon="14.951062892624192"><ele>13.6</ele><time>2026-04-25T15:24:11.999Z</time></trkpt><trkpt lat="40.3089647588325" lon="14.95116001837069"><ele>13.2</ele><time>2026-04-25T15:24:12.999Z</time></trkpt><trkpt lat="40.30889215528063" lon="14.95124653752071"><ele>12.799999999999999</ele><time>2026-04-25T15:24:13.999Z</time></trkpt><trkpt lat="40.30880001648446" lon="14.951354010076374"><ele>12.399999999999999</ele><time>2026-04-25T15:24:14.999Z</time></trkpt><trkpt lat="40.308718276640505" lon="14.951463228102975"><ele>12.0</ele><time>2026-04-25T15:24:15.999Z</time></trkpt><trkpt lat="40.30864555350834" lon="14.951568710212277"><ele>12.0</ele><time>2026-04-25T15:24:16.999Z</time></trkpt><trkpt lat="40.30856536844197" lon="14.95166939197422"><ele>12.0</ele><time>2026-04-25T15:24:17.998Z</time></trkpt><trkpt lat="40.308473487995585" lon="14.951745966040562"><ele>12.0</ele><time>2026-04-25T15:24:18.998Z</time></trkpt><trkpt lat="40.30838007657018" lon="14.951831375324483"><ele>12.0</ele><time>2026-04-25T15:24:19.998Z</time></trkpt><trkpt lat="40.308283774932" lon="14.951940677991173"><ele>11.25</ele><time>2026-04-25T15:24:20.998Z</time></trkpt><trkpt lat="40.30819376175723" lon="14.952069302879298"><ele>10.5</ele><time>2026-04-25T15:24:21.998Z</time></trkpt><trkpt lat="40.30812472534833" lon="14.952196818266856"><ele>9.75</ele><time>2026-04-25T15:24:22.998Z</time></trkpt><trkpt lat="40.308075404989324" lon="14.9523331588459"><ele>9.0</ele><time>2026-04-25T15:24:23.998Z</time></trkpt><trkpt lat="40.308047374727295" lon="14.952462517845667"><ele>8.666666666666666</ele><time>2026-04-25T15:24:24.998Z</time></trkpt><trkpt lat="40.308003695522814" lon="14.952548806128883"><ele>8.333333333333334</ele><time>2026-04-25T15:24:25.998Z</time></trkpt><trkpt lat="40.307942343259086" lon="14.95263746381298"><ele>8.0</ele><time>2026-04-25T15:24:26.998Z</time></trkpt><trkpt lat="40.307885445713545" lon="14.952722979635372"><ele>7.666666666666667</ele><time>2026-04-25T15:24:27.998Z</time></trkpt><trkpt lat="40.30783830186923" lon="14.95278266102464"><ele>7.333333333333334</ele><time>2026-04-25T15:24:29Z</time></trkpt><trkpt lat="40.307718686184316" lon="14.952802296158685"><ele>7.0</ele><time>2026-04-25T15:24:31Z</time></trkpt><trkpt lat="40.30762567009678" lon="14.952781806455974"><ele>7.000000000000001</ele><time>2026-04-25T15:24:32Z</time></trkpt><trkpt lat="40.307524498481264" lon="14.952755617720996"><ele>7.0</ele><time>2026-04-25T15:24:34Z</time></trkpt><trkpt lat="40.30746540648325" lon="14.952724105224194"><ele>7.0</ele><time>2026-04-25T15:24:36Z</time></trkpt><trkpt lat="40.30737450819434" lon="14.952699257189025"><ele>7.0</ele><time>2026-04-25T15:24:38Z</time></trkpt><trkpt lat="40.307289860140365" lon="14.952675464704843"><ele>7.000000000000001</ele><time>2026-04-25T15:24:40Z</time></trkpt><trkpt lat="40.30720174067543" lon="14.952661656852472"><ele>7.0</ele><time>2026-04-25T15:24:43Z</time></trkpt><trkpt lat="40.30718316326054" lon="14.952527788499498"><ele>7.000000000000001</ele><time>2026-04-25T15:24:45Z</time></trkpt><trkpt lat="40.30720361352148" lon="14.952425014582879"><ele>7.0</ele><time>2026-04-25T15:24:46Z</time></trkpt><trkpt lat="40.30722694545071" lon="14.952332255285977"><ele>7.0</ele><time>2026-04-25T15:24:47Z</time></trkpt><trkpt lat="40.307228553208354" lon="14.952215454539688"><ele>7.0</ele><time>2026-04-25T15:24:48Z</time></trkpt><trkpt lat="40.30724593722147" lon="14.952103396736542"><ele>7.000000000000001</ele><time>2026-04-25T15:24:49Z</time></trkpt><trkpt lat="40.307259458340155" lon="14.952016239205525"><ele>7.0</ele><time>2026-04-25T15:24:50Z</time></trkpt><trkpt lat="40.30725562140464" lon="14.951895665530028"><ele>7.333333333333334</ele><time>2026-04-25T15:24:51.999Z</time></trkpt><trkpt lat="40.30719672540044" lon="14.951862121138323"><ele>7.666666666666667</ele><time>2026-04-25T15:24:52.999Z</time></trkpt><trkpt lat="40.307114723871855" lon="14.951851058950394"><ele>8.0</ele><time>2026-04-25T15:24:53.999Z</time></trkpt><trkpt lat="40.30702257326008" lon="14.951835814558748"><ele>8.333333333333334</ele><time>2026-04-25T15:24:54.999Z</time></trkpt><trkpt lat="40.30693313923321" lon="14.951800739897445"><ele>8.666666666666666</ele><time>2026-04-25T15:24:55.999Z</time></trkpt><trkpt lat="40.306832068402485" lon="14.951810455835892"><ele>9.0</ele><time>2026-04-25T15:24:56.999Z</time></trkpt><trkpt lat="40.30673225493073" lon="14.951872676434876"><ele>9.0</ele><time>2026-04-25T15:24:57.999Z</time></trkpt><trkpt lat="40.30662877533679" lon="14.951905009938766"><ele>9.0</ele><time>2026-04-25T15:24:58.999Z</time></trkpt><trkpt lat="40.3065161145077" lon="14.951932850458645"><ele>9.0</ele><time>2026-04-25T15:24:59.999Z</time></trkpt><trkpt lat="40.306397155710336" lon="14.951961601424307"><ele>9.0</ele><time>2026-04-25T15:25:00.999Z</time></trkpt><trkpt lat="40.30627199494572" lon="14.951997957850391"><ele>9.2</ele><time>2026-04-25T15:25:01.999Z</time></trkpt><trkpt lat="40.30616394007668" lon="14.952035309286282"><ele>9.4</ele><time>2026-04-25T15:25:02.999Z</time></trkpt><trkpt lat="40.30608409894583" lon="14.952063051459046"><ele>9.6</ele><time>2026-04-25T15:25:03.999Z</time></trkpt><trkpt lat="40.306019239964655" lon="14.952057025857275"><ele>9.8</ele><time>2026-04-25T15:25:05.999Z</time></trkpt><trkpt lat="40.30594168368019" lon="14.951945309512695"><ele>10.0</ele><time>2026-04-25T15:25:07.999Z</time></trkpt><trkpt lat="40.30592856701888" lon="14.951689394828168"><ele>10.5</ele><time>2026-04-25T15:25:08.999Z</time></trkpt><trkpt lat="40.30586206152251" lon="14.951569766323692"><ele>11.0</ele><time>2026-04-25T15:25:09.999Z</time></trkpt><trkpt lat="40.30579889661054" lon="14.951424045882055"><ele>11.5</ele><time>2026-04-25T15:25:10.999Z</time></trkpt><trkpt lat="40.30574786883574" lon="14.951268184231727"><ele>12.0</ele><time>2026-04-25T15:25:11.999Z</time></trkpt><trkpt lat="40.30570362609294" lon="14.951131431079324"><ele>12.0</ele><time>2026-04-25T15:25:12.999Z</time></trkpt><trkpt lat="40.30567447793437" lon="14.951009599682527"><ele>12.0</ele><time>2026-04-25T15:25:13.999Z</time></trkpt><trkpt lat="40.30564396524359" lon="14.950870618963235"><ele>12.0</ele><time>2026-04-25T15:25:14.999Z</time></trkpt><trkpt lat="40.305589307653975" lon="14.95071900161156"><ele>12.0</ele><time>2026-04-25T15:25:15.999Z</time></trkpt><trkpt lat="40.30553060343813" lon="14.950600124860259"><ele>12.0</ele><time>2026-04-25T15:25:16.999Z</time></trkpt><trkpt lat="40.30548554783425" lon="14.950509362170987"><ele>12.6</ele><time>2026-04-25T15:25:17.999Z</time></trkpt><trkpt lat="40.305420183197654" lon="14.95043631214863"><ele>13.2</ele><time>2026-04-25T15:25:18.999Z</time></trkpt><trkpt lat="40.30532031650055" lon="14.950386859910168"><ele>13.8</ele><time>2026-04-25T15:25:19.999Z</time></trkpt><trkpt lat="40.30520404975126" lon="14.950335527643501"><ele>14.4</ele><time>2026-04-25T15:25:20.999Z</time></trkpt><trkpt lat="40.30510543474751" lon="14.950258547703621"><ele>15.0</ele><time>2026-04-25T15:25:21.999Z</time></trkpt><trkpt lat="40.305003581628924" lon="14.950177488112603"><ele>15.0</ele><time>2026-04-25T15:25:22.999Z</time></trkpt><trkpt lat="40.3048878863022" lon="14.950112244471878"><ele>15.0</ele><time>2026-04-25T15:25:23.999Z</time></trkpt><trkpt lat="40.304795908687296" lon="14.950020753240858"><ele>15.0</ele><time>2026-04-25T15:25:24.999Z</time></trkpt><trkpt lat="40.30470843277858" lon="14.949952817531917"><ele>15.0</ele><time>2026-04-25T15:25:25.999Z</time></trkpt><trkpt lat="40.30462730852949" lon="14.949898445392481"><ele>15.0</ele><time>2026-04-25T15:25:26.999Z</time></trkpt><trkpt lat="40.304534975149465" lon="14.949879301199715"><ele>15.2</ele><time>2026-04-25T15:25:27.999Z</time></trkpt><trkpt lat="40.30446166695314" lon="14.949836504193751"><ele>15.4</ele><time>2026-04-25T15:25:28.999Z</time></trkpt><trkpt lat="40.30434960855128" lon="14.949804000133701"><ele>15.600000000000001</ele><time>2026-04-25T15:25:30.999Z</time></trkpt><trkpt lat="40.30428384477092" lon="14.94978492460085"><ele>15.8</ele><time>2026-04-25T15:25:32.999Z</time></trkpt><trkpt lat="40.30418282944497" lon="14.949762880228521"><ele>16.0</ele><time>2026-04-25T15:25:35.999Z</time></trkpt><trkpt lat="40.30401204109558" lon="14.949774974829404"><ele>15.75</ele><time>2026-04-25T15:25:37.999Z</time></trkpt><trkpt lat="40.30389680223969" lon="14.949824787728984"><ele>15.5</ele><time>2026-04-25T15:25:38.999Z</time></trkpt><trkpt lat="40.30376543896463" lon="14.94988120738733"><ele>15.25</ele><time>2026-04-25T15:25:39.999Z</time></trkpt><trkpt lat="40.30362370063611" lon="14.949942083028004"><ele>15.0</ele><time>2026-04-25T15:25:40.999Z</time></trkpt><trkpt lat="40.30347565672257" lon="14.949995308247614"><ele>15.0</ele><time>2026-04-25T15:25:41.999Z</time></trkpt><trkpt lat="40.30334483929445" lon="14.95003470186288"><ele>15.0</ele><time>2026-04-25T15:25:42.999Z</time></trkpt><trkpt lat="40.30321139882756" lon="14.950074029583948"><ele>15.0</ele><time>2026-04-25T15:25:43.999Z</time></trkpt><trkpt lat="40.30307738191315" lon="14.950113329109831"><ele>15.0</ele><time>2026-04-25T15:25:44.999Z</time></trkpt><trkpt lat="40.30295425576932" lon="14.950149351216261"><ele>16.0</ele><time>2026-04-25T15:25:45.999Z</time></trkpt><trkpt lat="40.30282461863773" lon="14.950187279046299"><ele>17.0</ele><time>2026-04-25T15:25:46.999Z</time></trkpt><trkpt lat="40.3026841441948" lon="14.950216604504327"><ele>18.0</ele><time>2026-04-25T15:25:47.999Z</time></trkpt><trkpt lat="40.302522764851844" lon="14.950231397554118"><ele>19.0</ele><time>2026-04-25T15:25:48.999Z</time></trkpt><trkpt lat="40.302338877672355" lon="14.950242585162066"><ele>19.333333333333332</ele><time>2026-04-25T15:25:49.999Z</time></trkpt><trkpt lat="40.302150920310886" lon="14.950253824345518"><ele>19.666666666666668</ele><time>2026-04-25T15:25:50.999Z</time></trkpt><trkpt lat="40.30197295409025" lon="14.950264466071818"><ele>20.0</ele><time>2026-04-25T15:25:51.999Z</time></trkpt><trkpt lat="40.30180556713683" lon="14.950271153644877"><ele>20.0</ele><time>2026-04-25T15:25:52.999Z</time></trkpt><trkpt lat="40.301640172923896" lon="14.950277508538752"><ele>20.0</ele><time>2026-04-25T15:25:53.999Z</time></trkpt><trkpt lat="40.301477035524755" lon="14.950283484893184"><ele>20.0</ele><time>2026-04-25T15:25:54.999Z</time></trkpt><trkpt lat="40.30132071786776" lon="14.950289211414521"><ele>19.75</ele><time>2026-04-25T15:25:55.999Z</time></trkpt><trkpt lat="40.301181153656934" lon="14.950296943001257"><ele>19.5</ele><time>2026-04-25T15:25:56.999Z</time></trkpt><trkpt lat="40.30104577308446" lon="14.950306594269556"><ele>19.25</ele><time>2026-04-25T15:25:57.999Z</time></trkpt><trkpt lat="40.30091407130169" lon="14.950326388756"><ele>19.0</ele><time>2026-04-25T15:25:58.999Z</time></trkpt><trkpt lat="40.300778101733506" lon="14.950355760898105"><ele>19.0</ele><time>2026-04-25T15:25:59.999Z</time></trkpt><trkpt lat="40.30063419695886" lon="14.950389038929645"><ele>19.0</ele><time>2026-04-25T15:26:00.999Z</time></trkpt><trkpt lat="40.30048358304021" lon="14.95042326274211"><ele>19.0</ele><time>2026-04-25T15:26:01.999Z</time></trkpt><trkpt lat="40.3003378540002" lon="14.950456051776307"><ele>19.0</ele><time>2026-04-25T15:26:02.999Z</time></trkpt><trkpt lat="40.30019418484538" lon="14.950488026361715"><ele>19.25</ele><time>2026-04-25T15:26:03.999Z</time></trkpt><trkpt lat="40.30005029991976" lon="14.950522190461713"><ele>19.5</ele><time>2026-04-25T15:26:04.999Z</time></trkpt><trkpt lat="40.299905008089766" lon="14.950559106033973"><ele>19.75</ele><time>2026-04-25T15:26:05.999Z</time></trkpt><trkpt lat="40.299754307914526" lon="14.950604786617497"><ele>20.0</ele><time>2026-04-25T15:26:06.999Z</time></trkpt><trkpt lat="40.299600068798384" lon="14.950662633096627"><ele>20.333333333333336</ele><time>2026-04-25T15:26:07.999Z</time></trkpt><trkpt lat="40.29943248404679" lon="14.950733788049124"><ele>20.666666666666668</ele><time>2026-04-25T15:26:08.999Z</time></trkpt><trkpt lat="40.29926663256903" lon="14.950814254087863"><ele>21.0</ele><time>2026-04-25T15:26:09.999Z</time></trkpt><trkpt lat="40.2991131553372" lon="14.950889717147314"><ele>21.0</ele><time>2026-04-25T15:26:10.999Z</time></trkpt><trkpt lat="40.29896695932159" lon="14.950961018621078"><ele>21.0</ele><time>2026-04-25T15:26:11.999Z</time></trkpt><trkpt lat="40.298825956116374" lon="14.951025882826421"><ele>21.0</ele><time>2026-04-25T15:26:12.999Z</time></trkpt><trkpt lat="40.298691315796574" lon="14.951087728501584"><ele>21.0</ele><time>2026-04-25T15:26:13.999Z</time></trkpt><trkpt lat="40.29856612277935" lon="14.951147945974407"><ele>21.25</ele><time>2026-04-25T15:26:14.999Z</time></trkpt><trkpt lat="40.29844278665946" lon="14.951213505483166"><ele>21.5</ele><time>2026-04-25T15:26:15.999Z</time></trkpt><trkpt lat="40.29831248347487" lon="14.951288890940859"><ele>21.75</ele><time>2026-04-25T15:26:16.999Z</time></trkpt><trkpt lat="40.29819008400149" lon="14.951418291172073"><ele>22.0</ele><time>2026-04-25T15:26:17.999Z</time></trkpt><trkpt lat="40.29807819819604" lon="14.95159289146564"><ele>22.333333333333332</ele><time>2026-04-25T15:26:18.999Z</time></trkpt><trkpt lat="40.29796682944339" lon="14.951764548708239"><ele>22.666666666666668</ele><time>2026-04-25T15:26:19.999Z</time></trkpt><trkpt lat="40.29785794553693" lon="14.95193237655557"><ele>23.0</ele><time>2026-04-25T15:26:20.999Z</time></trkpt><trkpt lat="40.29774793728039" lon="14.952101937990106"><ele>23.0</ele><time>2026-04-25T15:26:21.999Z</time></trkpt><trkpt lat="40.29763883481596" lon="14.95227010217312"><ele>23.0</ele><time>2026-04-25T15:26:22.999Z</time></trkpt><trkpt lat="40.29752918742145" lon="14.952436969030504"><ele>23.0</ele><time>2026-04-25T15:26:23.999Z</time></trkpt><trkpt lat="40.29741992809655" lon="14.952601944590239"><ele>23.5</ele><time>2026-04-25T15:26:24.998Z</time></trkpt><trkpt lat="40.29731955368702" lon="14.952753504344706"><ele>24.0</ele><time>2026-04-25T15:26:25.998Z</time></trkpt><trkpt lat="40.29722467799887" lon="14.952898025588965"><ele>24.5</ele><time>2026-04-25T15:26:26.998Z</time></trkpt><trkpt lat="40.29712769344579" lon="14.953045612720752"><ele>25.0</ele><time>2026-04-25T15:26:27.998Z</time></trkpt><trkpt lat="40.29701988582094" lon="14.95320966992454"><ele>25.666666666666668</ele><time>2026-04-25T15:26:28.998Z</time></trkpt><trkpt lat="40.29691194053007" lon="14.95337393664283"><ele>26.333333333333336</ele><time>2026-04-25T15:26:29.998Z</time></trkpt><trkpt lat="40.29680201622091" lon="14.953541043139335"><ele>27.0</ele><time>2026-04-25T15:26:30.998Z</time></trkpt><trkpt lat="40.2967022806727" lon="14.953692627742834"><ele>27.0</ele><time>2026-04-25T15:26:31.998Z</time></trkpt><trkpt lat="40.296600719268284" lon="14.953846987418535"><ele>27.0</ele><time>2026-04-25T15:26:32.998Z</time></trkpt><trkpt lat="40.296500070978944" lon="14.953999959272945"><ele>27.0</ele><time>2026-04-25T15:26:33.998Z</time></trkpt><trkpt lat="40.296398344873474" lon="14.95415328463799"><ele>27.5</ele><time>2026-04-25T15:26:35Z</time></trkpt><trkpt lat="40.296301224277386" lon="14.954291420501484"><ele>28.0</ele><time>2026-04-25T15:26:36Z</time></trkpt><trkpt lat="40.29620388588676" lon="14.954415175473498"><ele>28.5</ele><time>2026-04-25T15:26:37Z</time></trkpt><trkpt lat="40.29610874898175" lon="14.954519810220116"><ele>29.0</ele><time>2026-04-25T15:26:38Z</time></trkpt><trkpt lat="40.29601758109201" lon="14.954608344244324"><ele>29.0</ele><time>2026-04-25T15:26:39Z</time></trkpt><trkpt lat="40.29592875983284" lon="14.954691793637473"><ele>29.0</ele><time>2026-04-25T15:26:40Z</time></trkpt><trkpt lat="40.29583858070593" lon="14.954777493604901"><ele>29.0</ele><time>2026-04-25T15:26:41Z</time></trkpt><trkpt lat="40.29576536870441" lon="14.954886833173669"><ele>29.0</ele><time>2026-04-25T15:26:42Z</time></trkpt><trkpt lat="40.29576208716069" lon="14.955088805707932"><ele>29.2</ele><time>2026-04-25T15:26:43Z</time></trkpt><trkpt lat="40.29575073847443" lon="14.955222443431156"><ele>29.4</ele><time>2026-04-25T15:26:44Z</time></trkpt><trkpt lat="40.295777984894805" lon="14.95534967876341"><ele>29.6</ele><time>2026-04-25T15:26:45Z</time></trkpt><trkpt lat="40.295776028371485" lon="14.95547526632355"><ele>29.8</ele><time>2026-04-25T15:26:46Z</time></trkpt><trkpt lat="40.295772871943555" lon="14.955602979765331"><ele>30.0</ele><time>2026-04-25T15:26:47Z</time></trkpt><trkpt lat="40.29576354205698" lon="14.95571957970594"><ele>30.0</ele><time>2026-04-25T15:26:48Z</time></trkpt><trkpt lat="40.295703146944895" lon="14.955818066150448"><ele>30.0</ele><time>2026-04-25T15:26:49Z</time></trkpt><trkpt lat="40.295685118357156" lon="14.955907010018493"><ele>30.0</ele><time>2026-04-25T15:26:50Z</time></trkpt><trkpt lat="40.29565516916547" lon="14.955987583342703"><ele>30.0</ele><time>2026-04-25T15:26:51Z</time></trkpt><trkpt lat="40.29561938610801" lon="14.95606455859303"><ele>30.0</ele><time>2026-04-25T15:26:52Z</time></trkpt><trkpt lat="40.29555595413653" lon="14.956174546174998"><ele>30.0</ele><time>2026-04-25T15:26:54Z</time></trkpt><trkpt lat="40.29550057012138" lon="14.956269399736609"><ele>31.2</ele><time>2026-04-25T15:27:01.999Z</time></trkpt><trkpt lat="40.295421620502715" lon="14.956393660727317"><ele>32.4</ele><time>2026-04-25T15:27:03.999Z</time></trkpt><trkpt lat="40.295344578487615" lon="14.956385522470514"><ele>33.6</ele><time>2026-04-25T15:27:04.999Z</time></trkpt><trkpt lat="40.29525163738524" lon="14.956363553882644"><ele>34.8</ele><time>2026-04-25T15:27:05.999Z</time></trkpt><trkpt lat="40.29516442191764" lon="14.956342819644055"><ele>36.0</ele><time>2026-04-25T15:27:06.999Z</time></trkpt><trkpt lat="40.295084911414314" lon="14.956323917147056"><ele>36.0</ele><time>2026-04-25T15:27:07.999Z</time></trkpt><trkpt lat="40.29501608258265" lon="14.956307554137798"><ele>36.0</ele><time>2026-04-25T15:27:08.999Z</time></trkpt><trkpt lat="40.294895221514444" lon="14.956282124614088"><ele>36.0</ele><time>2026-04-25T15:27:10.999Z</time></trkpt><trkpt lat="40.29478612652841" lon="14.956257478493951"><ele>36.0</ele><time>2026-04-25T15:27:12.999Z</time></trkpt><trkpt lat="40.29470038616424" lon="14.956233910287258"><ele>36.0</ele><time>2026-04-25T15:27:15.999Z</time></trkpt><trkpt lat="40.294579674189514" lon="14.956193555284875"><ele>36.0</ele><time>2026-04-25T15:27:17.999Z</time></trkpt><trkpt lat="40.2945017279645" lon="14.95617792422986"><ele>36.0</ele><time>2026-04-25T15:27:18.999Z</time></trkpt><trkpt lat="40.29444845176743" lon="14.956132170381704"><ele>36.0</ele><time>2026-04-25T15:27:19.999Z</time></trkpt><trkpt lat="40.294402357052604" lon="14.956043955828578"><ele>36.0</ele><time>2026-04-25T15:27:21.999Z</time></trkpt><trkpt lat="40.294339207676835" lon="14.955909756791549"><ele>36.0</ele><time>2026-04-25T15:28:32.998Z</time></trkpt><trkpt lat="40.2942593594456" lon="14.955850308662066"><ele>36.0</ele><time>2026-04-25T15:30:18.999Z</time></trkpt><trkpt lat="40.29416900094729" lon="14.955849000875899"><ele>35.75</ele><time>2026-04-25T15:30:21.999Z</time></trkpt><trkpt lat="40.294128658232026" lon="14.955767874604028"><ele>35.5</ele><time>2026-04-25T15:30:22.999Z</time></trkpt><trkpt lat="40.294098487768906" lon="14.95563240847398"><ele>35.25</ele><time>2026-04-25T15:30:23.999Z</time></trkpt><trkpt lat="40.294080727146316" lon="14.955458251470333"><ele>35.0</ele><time>2026-04-25T15:30:24.999Z</time></trkpt><trkpt lat="40.29406896156534" lon="14.95527301787044"><ele>35.0</ele><time>2026-04-25T15:30:25.999Z</time></trkpt><trkpt lat="40.294060424329736" lon="14.955122528847017"><ele>35.0</ele><time>2026-04-25T15:30:26.999Z</time></trkpt><trkpt lat="40.29404944592422" lon="14.954984603338099"><ele>35.0</ele><time>2026-04-25T15:30:27.999Z</time></trkpt><trkpt lat="40.29403562654046" lon="14.954849526477442"><ele>35.0</ele><time>2026-04-25T15:30:28.999Z</time></trkpt><trkpt lat="40.294015984366496" lon="14.954726449161676"><ele>35.0</ele><time>2026-04-25T15:30:29.999Z</time></trkpt><trkpt lat="40.29398635754402" lon="14.954609702008586"><ele>35.0</ele><time>2026-04-25T15:30:30.999Z</time></trkpt><trkpt lat="40.29395603416467" lon="14.95449358564283"><ele>35.0</ele><time>2026-04-25T15:30:31.999Z</time></trkpt><trkpt lat="40.29392999022129" lon="14.95440736375871"><ele>35.0</ele><time>2026-04-25T15:30:32.999Z</time></trkpt><trkpt lat="40.293896209488565" lon="14.954336011503939"><ele>35.0</ele><time>2026-04-25T15:30:33.999Z</time></trkpt><trkpt lat="40.29386063549816" lon="14.954207991982914"><ele>35.0</ele><time>2026-04-25T15:30:35.998Z</time></trkpt><trkpt lat="40.29382222766005" lon="14.954117144071612"><ele>35.0</ele><time>2026-04-25T15:30:36.998Z</time></trkpt><trkpt lat="40.2937619050659" lon="14.953952573078674"><ele>34.33333333333333</ele><time>2026-04-25T15:30:37.998Z</time></trkpt><trkpt lat="40.29366930057853" lon="14.953745346707457"><ele>33.666666666666664</ele><time>2026-04-25T15:30:38.998Z</time></trkpt><trkpt lat="40.29358978502298" lon="14.953541578980406"><ele>33.0</ele><time>2026-04-25T15:30:39.998Z</time></trkpt><trkpt lat="40.29349776704691" lon="14.953355186285394"><ele>32.0</ele><time>2026-04-25T15:30:40.998Z</time></trkpt><trkpt lat="40.29340336205074" lon="14.953184292033075"><ele>31.0</ele><time>2026-04-25T15:30:41.998Z</time></trkpt><trkpt lat="40.293295499000784" lon="14.953019358404983"><ele>30.0</ele><time>2026-04-25T15:30:42.998Z</time></trkpt><trkpt lat="40.29318031330641" lon="14.952865403397384"><ele>29.75</ele><time>2026-04-25T15:30:43.998Z</time></trkpt><trkpt lat="40.293067326837345" lon="14.952729179611481"><ele>29.5</ele><time>2026-04-25T15:30:44.998Z</time></trkpt><trkpt lat="40.29296801921372" lon="14.952578541028752"><ele>29.25</ele><time>2026-04-25T15:30:45.998Z</time></trkpt><trkpt lat="40.292865150244886" lon="14.952461643207718"><ele>29.0</ele><time>2026-04-25T15:30:46.999Z</time></trkpt><trkpt lat="40.2927460796308" lon="14.952367371158179"><ele>28.5</ele><time>2026-04-25T15:30:47.999Z</time></trkpt><trkpt lat="40.292615132188004" lon="14.952274412264844"><ele>28.0</ele><time>2026-04-25T15:30:48.999Z</time></trkpt><trkpt lat="40.29249778247154" lon="14.952190545090694"><ele>27.5</ele><time>2026-04-25T15:30:49.999Z</time></trkpt><trkpt lat="40.29239978457622" lon="14.952121391202036"><ele>27.0</ele><time>2026-04-25T15:30:50.999Z</time></trkpt><trkpt lat="40.29229348220889" lon="14.952049105621676"><ele>27.25</ele><time>2026-04-25T15:30:51.999Z</time></trkpt><trkpt lat="40.2921666405825" lon="14.951971223565451"><ele>27.5</ele><time>2026-04-25T15:30:52.999Z</time></trkpt><trkpt lat="40.29202983031315" lon="14.951899551825663"><ele>27.75</ele><time>2026-04-25T15:30:53.999Z</time></trkpt><trkpt lat="40.291907983039955" lon="14.951836552926617"><ele>28.0</ele><time>2026-04-25T15:30:54.999Z</time></trkpt><trkpt lat="40.29179741466096" lon="14.951777495694044"><ele>28.0</ele><time>2026-04-25T15:30:55.999Z</time></trkpt><trkpt lat="40.2916766885118" lon="14.951712826667283"><ele>27.999999999999996</ele><time>2026-04-25T15:30:56.999Z</time></trkpt><trkpt lat="40.29156719380739" lon="14.951650562512008"><ele>27.999999999999996</ele><time>2026-04-25T15:30:57.999Z</time></trkpt><trkpt lat="40.29148365413384" lon="14.951583657946212"><ele>28.0</ele><time>2026-04-25T15:30:58.999Z</time></trkpt><trkpt lat="40.291421887213055" lon="14.95153243244128"><ele>28.0</ele><time>2026-04-25T15:30:59.999Z</time></trkpt><trkpt lat="40.29135834616133" lon="14.951477481883364"><ele>28.0</ele><time>2026-04-25T15:31:01.999Z</time></trkpt><trkpt lat="40.29128102194794" lon="14.951657570889349"><ele>28.0</ele><time>2026-04-25T15:31:03.999Z</time></trkpt><trkpt lat="40.2912392220863" lon="14.951756548548515"><ele>28.0</ele><time>2026-04-25T15:31:04.999Z</time></trkpt><trkpt lat="40.291192917606466" lon="14.951891561103857"><ele>28.0</ele><time>2026-04-25T15:31:05.999Z</time></trkpt><trkpt lat="40.2911201450684" lon="14.952061477907476"><ele>28.0</ele><time>2026-04-25T15:31:06.999Z</time></trkpt><trkpt lat="40.29102903546675" lon="14.952281679390437"><ele>28.0</ele><time>2026-04-25T15:31:07.999Z</time></trkpt><trkpt lat="40.29095060396672" lon="14.952463493185542"><ele>28.0</ele><time>2026-04-25T15:31:08.999Z</time></trkpt><trkpt lat="40.29088478053674" lon="14.95261109078527"><ele>29.25</ele><time>2026-04-25T15:31:09.999Z</time></trkpt><trkpt lat="40.29082375441603" lon="14.952746507857634"><ele>30.5</ele><time>2026-04-25T15:31:10.999Z</time></trkpt><trkpt lat="40.290755950441415" lon="14.952896107938084"><ele>31.75</ele><time>2026-04-25T15:31:11.999Z</time></trkpt><trkpt lat="40.29069171865275" lon="14.95304142280203"><ele>33.0</ele><time>2026-04-25T15:31:12.999Z</time></trkpt><trkpt lat="40.29062455766438" lon="14.953197872564543"><ele>33.8</ele><time>2026-04-25T15:31:13.999Z</time></trkpt><trkpt lat="40.29056004285651" lon="14.953350186589004"><ele>34.599999999999994</ele><time>2026-04-25T15:31:14.999Z</time></trkpt><trkpt lat="40.290500986013825" lon="14.953486298816506"><ele>35.400000000000006</ele><time>2026-04-25T15:31:15.999Z</time></trkpt><trkpt lat="40.29044774398389" lon="14.953608249301588"><ele>36.2</ele><time>2026-04-25T15:31:16.999Z</time></trkpt><trkpt lat="40.29040754375925" lon="14.953701226284055"><ele>37.0</ele><time>2026-04-25T15:31:17.999Z</time></trkpt><trkpt lat="40.29038693443908" lon="14.953789078881497"><ele>39.6</ele><time>2026-04-25T15:31:19.999Z</time></trkpt><trkpt lat="40.29029845019403" lon="14.953807107525016"><ele>42.2</ele><time>2026-04-25T15:31:22.999Z</time></trkpt><trkpt lat="40.29021447507111" lon="14.953754645595186"><ele>44.8</ele><time>2026-04-25T15:31:23.999Z</time></trkpt><trkpt lat="40.29010698959738" lon="14.953673013496696"><ele>47.4</ele><time>2026-04-25T15:31:24.999Z</time></trkpt><trkpt lat="40.2899802752992" lon="14.953588856212697"><ele>50.0</ele><time>2026-04-25T15:31:25.999Z</time></trkpt><trkpt lat="40.289861208797014" lon="14.953503553338146"><ele>48.66666666666667</ele><time>2026-04-25T15:31:26.999Z</time></trkpt><trkpt lat="40.289735821148" lon="14.953389671991273"><ele>47.333333333333336</ele><time>2026-04-25T15:31:27.999Z</time></trkpt><trkpt lat="40.289600909717926" lon="14.953269282993013"><ele>46.0</ele><time>2026-04-25T15:31:28.999Z</time></trkpt><trkpt lat="40.28947082657118" lon="14.95311325793978"><ele>46.0</ele><time>2026-04-25T15:31:29.999Z</time></trkpt><trkpt lat="40.2893376980846" lon="14.952972090493459"><ele>46.0</ele><time>2026-04-25T15:31:30.999Z</time></trkpt><trkpt lat="40.289204126980145" lon="14.95285673327305"><ele>46.0</ele><time>2026-04-25T15:31:31.999Z</time></trkpt><trkpt lat="40.28908977986164" lon="14.952729422146207"><ele>46.0</ele><time>2026-04-25T15:31:32.999Z</time></trkpt><trkpt lat="40.28897290986152" lon="14.952601758128846"><ele>46.0</ele><time>2026-04-25T15:31:33.999Z</time></trkpt><trkpt lat="40.288851980842125" lon="14.95247119256373"><ele>46.0</ele><time>2026-04-25T15:31:34.999Z</time></trkpt><trkpt lat="40.28874703099275" lon="14.952328819334113"><ele>45.75</ele><time>2026-04-25T15:31:35.999Z</time></trkpt><trkpt lat="40.2886298630056" lon="14.952230818492819"><ele>45.5</ele><time>2026-04-25T15:31:36.999Z</time></trkpt><trkpt lat="40.28853226110302" lon="14.952119681960356"><ele>45.25</ele><time>2026-04-25T15:31:37.999Z</time></trkpt><trkpt lat="40.288437622009525" lon="14.952012856299868"><ele>45.0</ele><time>2026-04-25T15:31:38.999Z</time></trkpt><trkpt lat="40.28832856035361" lon="14.951907820235451"><ele>45.0</ele><time>2026-04-25T15:31:39.999Z</time></trkpt><trkpt lat="40.28818979388543" lon="14.951799582004787"><ele>45.0</ele><time>2026-04-25T15:31:40.999Z</time></trkpt><trkpt lat="40.28802570321997" lon="14.951690660212755"><ele>45.0</ele><time>2026-04-25T15:31:41.999Z</time></trkpt><trkpt lat="40.287836969875144" lon="14.95158028052441"><ele>44.333333333333336</ele><time>2026-04-25T15:31:42.999Z</time></trkpt><trkpt lat="40.28763833388976" lon="14.951473261658725"><ele>43.66666666666667</ele><time>2026-04-25T15:31:43.999Z</time></trkpt><trkpt lat="40.287453465605054" lon="14.951377697840508"><ele>43.0</ele><time>2026-04-25T15:31:44.999Z</time></trkpt><trkpt lat="40.28728890481853" lon="14.95126661419885"><ele>47.0</ele><time>2026-04-25T15:31:45.999Z</time></trkpt><trkpt lat="40.28711784690066" lon="14.951197579768838"><ele>51.0</ele><time>2026-04-25T15:31:46.999Z</time></trkpt><trkpt lat="40.28695304727899" lon="14.951108148802325"><ele>55.0</ele><time>2026-04-25T15:31:47.999Z</time></trkpt><trkpt lat="40.28679118574063" lon="14.951019708389802"><ele>55.0</ele><time>2026-04-25T15:31:48.999Z</time></trkpt><trkpt lat="40.28662759358388" lon="14.95092556973875"><ele>55.0</ele><time>2026-04-25T15:31:49.999Z</time></trkpt><trkpt lat="40.28646355263425" lon="14.95083085225303"><ele>55.0</ele><time>2026-04-25T15:31:50.999Z</time></trkpt><trkpt lat="40.28630269251025" lon="14.950741782597056"><ele>54.666666666666664</ele><time>2026-04-25T15:31:51.999Z</time></trkpt><trkpt lat="40.286143725157416" lon="14.950656156688048"><ele>54.33333333333333</ele><time>2026-04-25T15:31:52.999Z</time></trkpt><trkpt lat="40.28598270358662" lon="14.950573269691693"><ele>54.0</ele><time>2026-04-25T15:31:53.999Z</time></trkpt><trkpt lat="40.285820623305284" lon="14.950489779834838"><ele>54.0</ele><time>2026-04-25T15:31:54.999Z</time></trkpt><trkpt lat="40.28566170450681" lon="14.950399413401248"><ele>54.0</ele><time>2026-04-25T15:31:55.999Z</time></trkpt><trkpt lat="40.28550512534622" lon="14.95029995777785"><ele>54.0</ele><time>2026-04-25T15:31:56.999Z</time></trkpt><trkpt lat="40.28535552683242" lon="14.950185277703582"><ele>55.33333333333333</ele><time>2026-04-25T15:31:57.999Z</time></trkpt><trkpt lat="40.285207724655805" lon="14.950057339315201"><ele>56.666666666666664</ele><time>2026-04-25T15:31:58.999Z</time></trkpt><trkpt lat="40.285071020175224" lon="14.949913889931793"><ele>58.0</ele><time>2026-04-25T15:31:59.999Z</time></trkpt><trkpt lat="40.284938325936196" lon="14.949764095561086"><ele>58.0</ele><time>2026-04-25T15:32:00.999Z</time></trkpt><trkpt lat="40.28481595512972" lon="14.949607045980205"><ele>58.0</ele><time>2026-04-25T15:32:01.999Z</time></trkpt><trkpt lat="40.28470896028163" lon="14.949446417289"><ele>58.0</ele><time>2026-04-25T15:32:02.999Z</time></trkpt><trkpt lat="40.28461662034249" lon="14.94928548806305"><ele>60.0</ele><time>2026-04-25T15:32:03.999Z</time></trkpt><trkpt lat="40.28453427448442" lon="14.949129942709165"><ele>62.0</ele><time>2026-04-25T15:32:04.999Z</time></trkpt><trkpt lat="40.28445968341539" lon="14.948978961914003"><ele>64.0</ele><time>2026-04-25T15:32:05.999Z</time></trkpt><trkpt lat="40.284387557484465" lon="14.948831957606604"><ele>66.0</ele><time>2026-04-25T15:32:06.999Z</time></trkpt><trkpt lat="40.284310956408675" lon="14.94869878441128"><ele>66.0</ele><time>2026-04-25T15:32:07.999Z</time></trkpt><trkpt lat="40.28422999151677" lon="14.948579948107266"><ele>66.0</ele><time>2026-04-25T15:32:08.999Z</time></trkpt><trkpt lat="40.28413919651028" lon="14.948461500493629"><ele>66.0</ele><time>2026-04-25T15:32:09.999Z</time></trkpt><trkpt lat="40.2840370471789" lon="14.948355702782209"><ele>66.0</ele><time>2026-04-25T15:32:10.999Z</time></trkpt><trkpt lat="40.283924621536606" lon="14.94826219057727"><ele>65.5</ele><time>2026-04-25T15:32:11.999Z</time></trkpt><trkpt lat="40.28381365920499" lon="14.948161163560705"><ele>65.0</ele><time>2026-04-25T15:32:12.999Z</time></trkpt><trkpt lat="40.28368678124904" lon="14.94809862784462"><ele>64.5</ele><time>2026-04-25T15:32:13.999Z</time></trkpt><trkpt lat="40.2835601162416" lon="14.948052764840416"><ele>64.0</ele><time>2026-04-25T15:32:14.999Z</time></trkpt><trkpt lat="40.283428100013765" lon="14.948024948897803"><ele>64.0</ele><time>2026-04-25T15:32:15.999Z</time></trkpt><trkpt lat="40.28329586842651" lon="14.94800391506897"><ele>64.0</ele><time>2026-04-25T15:32:16.999Z</time></trkpt><trkpt lat="40.28315268000159" lon="14.947984013714239"><ele>64.0</ele><time>2026-04-25T15:32:17.999Z</time></trkpt><trkpt lat="40.28300510092921" lon="14.947963502093852"><ele>64.0</ele><time>2026-04-25T15:32:18.999Z</time></trkpt><trkpt lat="40.282851662911774" lon="14.947957372763495"><ele>69.33333333333333</ele><time>2026-04-25T15:32:19.999Z</time></trkpt><trkpt lat="40.2827023846062" lon="14.947914012510243"><ele>74.66666666666667</ele><time>2026-04-25T15:32:20.999Z</time></trkpt><trkpt lat="40.28255833590604" lon="14.947854654480382"><ele>80.0</ele><time>2026-04-25T15:32:21.999Z</time></trkpt><trkpt lat="40.28242058768824" lon="14.947776987385437"><ele>80.0</ele><time>2026-04-25T15:32:22.999Z</time></trkpt><trkpt lat="40.282293922971625" lon="14.947682888667686"><ele>80.0</ele><time>2026-04-25T15:32:23.999Z</time></trkpt><trkpt lat="40.28217396242407" lon="14.94757913544845"><ele>80.0</ele><time>2026-04-25T15:32:24.999Z</time></trkpt><trkpt lat="40.28206226182375" lon="14.947461445131074"><ele>80.0</ele><time>2026-04-25T15:32:25.999Z</time></trkpt><trkpt lat="40.281959404445736" lon="14.947338151428315"><ele>76.0</ele><time>2026-04-25T15:32:26.999Z</time></trkpt><trkpt lat="40.28187231726318" lon="14.947202380828493"><ele>72.0</ele><time>2026-04-25T15:32:27.999Z</time></trkpt><trkpt lat="40.28177644549727" lon="14.947085386657028"><ele>68.0</ele><time>2026-04-25T15:32:28.999Z</time></trkpt><trkpt lat="40.28167919760321" lon="14.946975964789328"><ele>64.0</ele><time>2026-04-25T15:32:29.999Z</time></trkpt><trkpt lat="40.281572170090485" lon="14.94688606767753"><ele>64.0</ele><time>2026-04-25T15:32:30.999Z</time></trkpt><trkpt lat="40.28146282760967" lon="14.946812898820175"><ele>64.0</ele><time>2026-04-25T15:32:31.999Z</time></trkpt><trkpt lat="40.28134263183664" lon="14.94674762885513"><ele>64.0</ele><time>2026-04-25T15:32:32.999Z</time></trkpt><trkpt lat="40.28122086877335" lon="14.946683433557286"><ele>64.0</ele><time>2026-04-25T15:32:33.999Z</time></trkpt><trkpt lat="40.281103046853524" lon="14.946621260673217"><ele>59.0</ele><time>2026-04-25T15:32:34.999Z</time></trkpt><trkpt lat="40.28098903396363" lon="14.946561097755115"><ele>54.0</ele><time>2026-04-25T15:32:35.999Z</time></trkpt><trkpt lat="40.28087673091282" lon="14.946501837086155"><ele>49.0</ele><time>2026-04-25T15:32:36.998Z</time></trkpt><trkpt lat="40.28076783715709" lon="14.946444375462052"><ele>44.0</ele><time>2026-04-25T15:32:37.998Z</time></trkpt><trkpt lat="40.28066087596872" lon="14.946388039837538"><ele>45.400000000000006</ele><time>2026-04-25T15:32:38.998Z</time></trkpt><trkpt lat="40.28055706062869" lon="14.946333466640024"><ele>46.8</ele><time>2026-04-25T15:32:39.998Z</time></trkpt><trkpt lat="40.28043559750973" lon="14.946341166104235"><ele>48.2</ele><time>2026-04-25T15:32:40.998Z</time></trkpt><trkpt lat="40.28033199427049" lon="14.9462911143914"><ele>49.599999999999994</ele><time>2026-04-25T15:32:41.998Z</time></trkpt><trkpt lat="40.28023240554966" lon="14.946251291780552"><ele>51.0</ele><time>2026-04-25T15:32:42.998Z</time></trkpt><trkpt lat="40.28013267856859" lon="14.946224418915104"><ele>51.0</ele><time>2026-04-25T15:32:43.998Z</time></trkpt><trkpt lat="40.28003256331004" lon="14.94613606129429"><ele>51.0</ele><time>2026-04-25T15:32:44.998Z</time></trkpt><trkpt lat="40.27991726651815" lon="14.94611635632615"><ele>51.0</ele><time>2026-04-25T15:32:45.998Z</time></trkpt><trkpt lat="40.279803863992186" lon="14.946099687473508"><ele>51.0</ele><time>2026-04-25T15:32:46.998Z</time></trkpt><trkpt lat="40.27968048618488" lon="14.946080885931156"><ele>51.0</ele><time>2026-04-25T15:32:47.998Z</time></trkpt><trkpt lat="40.279548809903744" lon="14.946060819787915"><ele>51.0</ele><time>2026-04-25T15:32:48.998Z</time></trkpt><trkpt lat="40.27940971612482" lon="14.946039219476312"><ele>51.0</ele><time>2026-04-25T15:32:49.998Z</time></trkpt><trkpt lat="40.27926414011995" lon="14.946014099713343"><ele>51.0</ele><time>2026-04-25T15:32:50.998Z</time></trkpt><trkpt lat="40.27911207220331" lon="14.945987653120083"><ele>51.0</ele><time>2026-04-25T15:32:51.998Z</time></trkpt><trkpt lat="40.27896240051228" lon="14.94596162326165"><ele>51.0</ele><time>2026-04-25T15:32:52.999Z</time></trkpt><trkpt lat="40.27881622400998" lon="14.945933488386705"><ele>51.0</ele><time>2026-04-25T15:32:53.999Z</time></trkpt><trkpt lat="40.27866741199848" lon="14.945898311732225"><ele>44.0</ele><time>2026-04-25T15:32:54.999Z</time></trkpt><trkpt lat="40.27848381871474" lon="14.945860846907788"><ele>37.0</ele><time>2026-04-25T15:32:55.999Z</time></trkpt><trkpt lat="40.278300129446656" lon="14.945848968743292"><ele>30.0</ele><time>2026-04-25T15:32:56.999Z</time></trkpt><trkpt lat="40.278136168417795" lon="14.94584869541004"><ele>30.75</ele><time>2026-04-25T15:32:57.999Z</time></trkpt><trkpt lat="40.277986266634635" lon="14.945852391621502"><ele>31.5</ele><time>2026-04-25T15:32:58.999Z</time></trkpt><trkpt lat="40.27783945926003" lon="14.945854468480869"><ele>32.25</ele><time>2026-04-25T15:32:59.999Z</time></trkpt><trkpt lat="40.277704819998874" lon="14.945855620376443"><ele>33.0</ele><time>2026-04-25T15:33:00.999Z</time></trkpt><trkpt lat="40.27759891769151" lon="14.945857158172897"><ele>33.0</ele><time>2026-04-25T15:33:01.999Z</time></trkpt><trkpt lat="40.27750922547245" lon="14.9458596717599"><ele>33.0</ele><time>2026-04-25T15:33:02.999Z</time></trkpt><trkpt lat="40.27740039417227" lon="14.945863623864765"><ele>33.0</ele><time>2026-04-25T15:33:03.999Z</time></trkpt><trkpt lat="40.277281482415525" lon="14.945868226157494"><ele>33.0</ele><time>2026-04-25T15:33:04.999Z</time></trkpt><trkpt lat="40.27716017960906" lon="14.945874704373756"><ele>33.0</ele><time>2026-04-25T15:33:05.999Z</time></trkpt><trkpt lat="40.277040632761846" lon="14.946007755275089"><ele>40.25</ele><time>2026-04-25T15:33:06.999Z</time></trkpt><trkpt lat="40.27690441556407" lon="14.94605121837757"><ele>47.5</ele><time>2026-04-25T15:33:07.999Z</time></trkpt><trkpt lat="40.276769311750996" lon="14.946073391501802"><ele>54.75</ele><time>2026-04-25T15:33:08.999Z</time></trkpt><trkpt lat="40.27663522131465" lon="14.946080829528224"><ele>62.0</ele><time>2026-04-25T15:33:09.999Z</time></trkpt><trkpt lat="40.27650705507617" lon="14.94607637725443"><ele>62.75</ele><time>2026-04-25T15:33:10.999Z</time></trkpt><trkpt lat="40.27638524313176" lon="14.946066906526616"><ele>63.5</ele><time>2026-04-25T15:33:11.999Z</time></trkpt><trkpt lat="40.27625200801635" lon="14.9460562342373"><ele>64.25</ele><time>2026-04-25T15:33:12.999Z</time></trkpt><trkpt lat="40.276120179699234" lon="14.946010000012325"><ele>65.0</ele><time>2026-04-25T15:33:13.999Z</time></trkpt><trkpt lat="40.2759966895119" lon="14.945960726367773"><ele>61.25</ele><time>2026-04-25T15:33:14.999Z</time></trkpt><trkpt lat="40.27589504658346" lon="14.945854821321365"><ele>57.5</ele><time>2026-04-25T15:33:15.999Z</time></trkpt><trkpt lat="40.275765823877585" lon="14.945847051496465"><ele>53.75</ele><time>2026-04-25T15:33:16.999Z</time></trkpt><trkpt lat="40.275650068618475" lon="14.945762257521446"><ele>50.0</ele><time>2026-04-25T15:33:17.999Z</time></trkpt><trkpt lat="40.27554870273575" lon="14.945670416894245"><ele>50.0</ele><time>2026-04-25T15:33:18.999Z</time></trkpt><trkpt lat="40.27545172852312" lon="14.945573725273503"><ele>50.0</ele><time>2026-04-25T15:33:19.999Z</time></trkpt><trkpt lat="40.27537425072775" lon="14.945429672244757"><ele>50.0</ele><time>2026-04-25T15:33:20.999Z</time></trkpt><trkpt lat="40.27526853866774" lon="14.945326678597285"><ele>50.0</ele><time>2026-04-25T15:33:21.999Z</time></trkpt><trkpt lat="40.27515818134437" lon="14.945217874227597"><ele>50.0</ele><time>2026-04-25T15:33:22.999Z</time></trkpt><trkpt lat="40.27504715519222" lon="14.945102843039388"><ele>50.0</ele><time>2026-04-25T15:33:23.999Z</time></trkpt><trkpt lat="40.2749348817699" lon="14.944980386896969"><ele>50.0</ele><time>2026-04-25T15:33:24.999Z</time></trkpt><trkpt lat="40.27482261039404" lon="14.944857932962151"><ele>50.0</ele><time>2026-04-25T15:33:25.999Z</time></trkpt><trkpt lat="40.27472446048706" lon="14.94473646343672"><ele>52.66666666666667</ele><time>2026-04-25T15:33:26.999Z</time></trkpt><trkpt lat="40.274613675179495" lon="14.944614386859717"><ele>55.33333333333333</ele><time>2026-04-25T15:33:27.999Z</time></trkpt><trkpt lat="40.27447204761418" lon="14.944525512017437"><ele>58.0</ele><time>2026-04-25T15:33:28.999Z</time></trkpt><trkpt lat="40.27432095702425" lon="14.944459329502866"><ele>58.0</ele><time>2026-04-25T15:33:29.999Z</time></trkpt><trkpt lat="40.274172098736805" lon="14.944413897546742"><ele>58.0</ele><time>2026-04-25T15:33:30.999Z</time></trkpt><trkpt lat="40.27402388169602" lon="14.944385656485204"><ele>58.0</ele><time>2026-04-25T15:33:31.999Z</time></trkpt><trkpt lat="40.27388833227022" lon="14.944365902152306"><ele>58.0</ele><time>2026-04-25T15:33:32.999Z</time></trkpt><trkpt lat="40.2737483754699" lon="14.944346745653"><ele>61.33333333333333</ele><time>2026-04-25T15:33:33.999Z</time></trkpt><trkpt lat="40.273595297605276" lon="14.944327373683482"><ele>64.66666666666667</ele><time>2026-04-25T15:33:34.999Z</time></trkpt><trkpt lat="40.27342959846863" lon="14.944309038441885"><ele>68.0</ele><time>2026-04-25T15:33:35.999Z</time></trkpt><trkpt lat="40.27325981178598" lon="14.944295657007395"><ele>68.0</ele><time>2026-04-25T15:33:36.999Z</time></trkpt><trkpt lat="40.27309217387313" lon="14.944281124151477"><ele>68.0</ele><time>2026-04-25T15:33:37.999Z</time></trkpt><trkpt lat="40.27294142828339" lon="14.944268072662348"><ele>68.0</ele><time>2026-04-25T15:33:38.999Z</time></trkpt><trkpt lat="40.272803062651796" lon="14.9442543071289"><ele>68.0</ele><time>2026-04-25T15:33:39.999Z</time></trkpt><trkpt lat="40.272664369547705" lon="14.944230251632014"><ele>68.0</ele><time>2026-04-25T15:33:40.999Z</time></trkpt><trkpt lat="40.272528465454805" lon="14.944191332076576"><ele>68.0</ele><time>2026-04-25T15:33:41.999Z</time></trkpt><trkpt lat="40.272391843016024" lon="14.944137294139715"><ele>68.0</ele><time>2026-04-25T15:33:42.999Z</time></trkpt><trkpt lat="40.27224994962393" lon="14.944065875319328"><ele>62.75</ele><time>2026-04-25T15:33:43.999Z</time></trkpt><trkpt lat="40.27211084964131" lon="14.943990810886223"><ele>57.5</ele><time>2026-04-25T15:33:44.999Z</time></trkpt><trkpt lat="40.2719606472115" lon="14.943964098944603"><ele>52.25</ele><time>2026-04-25T15:33:45.999Z</time></trkpt><trkpt lat="40.2718309505769" lon="14.943890732793967"><ele>47.0</ele><time>2026-04-25T15:33:46.999Z</time></trkpt><trkpt lat="40.27171147056225" lon="14.943833692339023"><ele>47.0</ele><time>2026-04-25T15:33:47.999Z</time></trkpt><trkpt lat="40.27158743595775" lon="14.94379069539127"><ele>47.0</ele><time>2026-04-25T15:33:48.999Z</time></trkpt><trkpt lat="40.271439392563025" lon="14.94372942300561"><ele>47.0</ele><time>2026-04-25T15:33:49.999Z</time></trkpt><trkpt lat="40.27126096615268" lon="14.943760545670948"><ele>45.5</ele><time>2026-04-25T15:33:50.999Z</time></trkpt><trkpt lat="40.271051154505486" lon="14.943800066669008"><ele>44.0</ele><time>2026-04-25T15:33:51.999Z</time></trkpt><trkpt lat="40.27081228838897" lon="14.943846023337318"><ele>38.5</ele><time>2026-04-25T15:33:52.999Z</time></trkpt><trkpt lat="40.27058277740185" lon="14.943890751717989"><ele>33.0</ele><time>2026-04-25T15:33:53.999Z</time></trkpt><trkpt lat="40.27036628224523" lon="14.94393286087512"><ele>33.0</ele><time>2026-04-25T15:33:54.999Z</time></trkpt><trkpt lat="40.2701709094264" lon="14.943970841890959"><ele>33.0</ele><time>2026-04-25T15:33:55.999Z</time></trkpt><trkpt lat="40.26997270071793" lon="14.944009045085359"><ele>33.0</ele><time>2026-04-25T15:33:56.999Z</time></trkpt><trkpt lat="40.26979270609344" lon="14.944043676518271"><ele>33.0</ele><time>2026-04-25T15:33:57.999Z</time></trkpt><trkpt lat="40.2696256784911" lon="14.944075813080572"><ele>33.0</ele><time>2026-04-25T15:33:58.999Z</time></trkpt><trkpt lat="40.269472840567786" lon="14.944105219503397"><ele>33.0</ele><time>2026-04-25T15:33:59.999Z</time></trkpt><trkpt lat="40.26933025087887" lon="14.944132654141034"><ele>33.0</ele><time>2026-04-25T15:34:00.999Z</time></trkpt><trkpt lat="40.26919723166206" lon="14.94415824740989"><ele>33.0</ele><time>2026-04-25T15:34:01.999Z</time></trkpt><trkpt lat="40.269077718627116" lon="14.944181232813541"><ele>33.0</ele><time>2026-04-25T15:34:02.999Z</time></trkpt><trkpt lat="40.26898045281415" lon="14.9441998104685"><ele>33.0</ele><time>2026-04-25T15:34:03.999Z</time></trkpt><trkpt lat="40.26891586900625" lon="14.94421214591624"><ele>33.0</ele><time>2026-04-25T15:34:04.999Z</time></trkpt><trkpt lat="40.26884624845243" lon="14.944227030621043"><ele>33.833333333333336</ele><time>2026-04-25T15:34:05.999Z</time></trkpt><trkpt lat="40.2687419632545" lon="14.94417749181457"><ele>34.666666666666664</ele><time>2026-04-25T15:34:07.999Z</time></trkpt><trkpt lat="40.268701690403134" lon="14.944111247033318"><ele>35.5</ele><time>2026-04-25T15:34:08.999Z</time></trkpt><trkpt lat="40.268663529324826" lon="14.944042355041212"><ele>36.33333333333333</ele><time>2026-04-25T15:34:09.999Z</time></trkpt><trkpt lat="40.268620080535634" lon="14.943968127490326"><ele>37.166666666666664</ele><time>2026-04-25T15:34:10.999Z</time></trkpt><trkpt lat="40.268575785121165" lon="14.943893364908115"><ele>38.0</ele><time>2026-04-25T15:34:11.999Z</time></trkpt><trkpt lat="40.26853400954523" lon="14.943816610697384"><ele>38.0</ele><time>2026-04-25T15:34:12.999Z</time></trkpt><trkpt lat="40.26850227285349" lon="14.943743736098238"><ele>38.0</ele><time>2026-04-25T15:34:13.999Z</time></trkpt><trkpt lat="40.26843798447502" lon="14.943593605549465"><ele>38.0</ele><time>2026-04-25T15:34:15.999Z</time></trkpt><trkpt lat="40.26839735879596" lon="14.943517816180826"><ele>38.0</ele><time>2026-04-25T15:34:16.999Z</time></trkpt><trkpt lat="40.2683541712892" lon="14.943445031465245"><ele>38.0</ele><time>2026-04-25T15:34:17.999Z</time></trkpt><trkpt lat="40.26831076839185" lon="14.94337281726901"><ele>38.0</ele><time>2026-04-25T15:34:18.999Z</time></trkpt><trkpt lat="40.268265946034994" lon="14.943304475209347"><ele>38.0</ele><time>2026-04-25T15:34:19.999Z</time></trkpt><trkpt lat="40.26821887794033" lon="14.943235160693332"><ele>38.0</ele><time>2026-04-25T15:34:20.999Z</time></trkpt><trkpt lat="40.26817147770046" lon="14.943167114888992"><ele>38.0</ele><time>2026-04-25T15:34:21.999Z</time></trkpt><trkpt lat="40.26812461628737" lon="14.943093115862105"><ele>38.0</ele><time>2026-04-25T15:34:22.999Z</time></trkpt><trkpt lat="40.26807546803287" lon="14.943017415874818"><ele>38.0</ele><time>2026-04-25T15:34:23.999Z</time></trkpt><trkpt lat="40.26802548183144" lon="14.942941002496633"><ele>38.0</ele><time>2026-04-25T15:34:24.999Z</time></trkpt><trkpt lat="40.26797782011319" lon="14.942862173214776"><ele>38.0</ele><time>2026-04-25T15:34:25.999Z</time></trkpt><trkpt lat="40.26792788982369" lon="14.942789274675397"><ele>38.0</ele><time>2026-04-25T15:34:26.999Z</time></trkpt><trkpt lat="40.26787520491692" lon="14.9427213649311"><ele>38.0</ele><time>2026-04-25T15:34:27.999Z</time></trkpt><trkpt lat="40.26784061605529" lon="14.942643842453434"><ele>38.0</ele><time>2026-04-25T15:34:28.999Z</time></trkpt><trkpt lat="40.26780085048432" lon="14.942579080495166"><ele>38.0</ele><time>2026-04-25T15:34:29.999Z</time></trkpt><trkpt lat="40.267736447780784" lon="14.942473461521706"><ele>38.0</ele><time>2026-04-25T15:34:31.999Z</time></trkpt><trkpt lat="40.267696379932964" lon="14.942406302287983"><ele>38.0</ele><time>2026-04-25T15:34:34.999Z</time></trkpt><trkpt lat="40.26763170068548" lon="14.94235420177687"><ele>38.0</ele><time>2026-04-25T15:34:37.999Z</time></trkpt><trkpt lat="40.267558914563615" lon="14.942326071606539"><ele>38.0</ele><time>2026-04-25T15:34:41.999Z</time></trkpt><trkpt lat="40.267455740184474" lon="14.942330088103619"><ele>38.0</ele><time>2026-04-25T15:34:43.998Z</time></trkpt><trkpt lat="40.26737415279039" lon="14.942338179531369"><ele>38.0</ele><time>2026-04-25T15:34:45.998Z</time></trkpt><trkpt lat="40.26728111545949" lon="14.942327257004528"><ele>38.0</ele><time>2026-04-25T15:34:47.998Z</time></trkpt><trkpt lat="40.26718803965136" lon="14.94231913150079"><ele>38.0</ele><time>2026-04-25T15:34:49.998Z</time></trkpt><trkpt lat="40.26707252304011" lon="14.94228629290997"><ele>38.0</ele><time>2026-04-25T15:34:51.998Z</time></trkpt><trkpt lat="40.26701528407855" lon="14.942248353509394"><ele>38.0</ele><time>2026-04-25T15:34:52.998Z</time></trkpt><trkpt lat="40.266960420456996" lon="14.942205123868645"><ele>38.0</ele><time>2026-04-25T15:34:53.998Z</time></trkpt><trkpt lat="40.266856444111525" lon="14.942131241597195"><ele>38.0</ele><time>2026-04-25T15:34:55.998Z</time></trkpt><trkpt lat="40.26678163607381" lon="14.942090238281496"><ele>38.0</ele><time>2026-04-25T15:34:56.998Z</time></trkpt><trkpt lat="40.26671411736229" lon="14.942042963665168"><ele>38.0</ele><time>2026-04-25T15:34:57.998Z</time></trkpt><trkpt lat="40.26665382578264" lon="14.941992646653159"><ele>38.0</ele><time>2026-04-25T15:34:58.999Z</time></trkpt><trkpt lat="40.266577751489116" lon="14.941947925953432"><ele>38.0</ele><time>2026-04-25T15:34:59.999Z</time></trkpt><trkpt lat="40.2665116448906" lon="14.9418113171957"><ele>38.0</ele><time>2026-04-25T15:35:00.999Z</time></trkpt><trkpt lat="40.2664225411951" lon="14.941752750254938"><ele>38.0</ele><time>2026-04-25T15:35:01.999Z</time></trkpt><trkpt lat="40.26634803916462" lon="14.941704562812145"><ele>38.0</ele><time>2026-04-25T15:35:02.999Z</time></trkpt><trkpt lat="40.26628545921654" lon="14.941665332853269"><ele>38.4</ele><time>2026-04-25T15:35:03.999Z</time></trkpt><trkpt lat="40.266173573198245" lon="14.941594875333488"><ele>38.8</ele><time>2026-04-25T15:35:05.999Z</time></trkpt><trkpt lat="40.266111470351326" lon="14.941555697866058"><ele>39.2</ele><time>2026-04-25T15:35:06.999Z</time></trkpt><trkpt lat="40.26600189980147" lon="14.941486575515544"><ele>39.6</ele><time>2026-04-25T15:35:08.999Z</time></trkpt><trkpt lat="40.26594437457928" lon="14.941450285842317"><ele>40.0</ele><time>2026-04-25T15:35:09.999Z</time></trkpt><trkpt lat="40.26583412997227" lon="14.941380738172429"><ele>40.0</ele><time>2026-04-25T15:35:11.999Z</time></trkpt><trkpt lat="40.26574174196454" lon="14.941337847130558"><ele>40.0</ele><time>2026-04-25T15:35:13.999Z</time></trkpt><trkpt lat="40.265654938631464" lon="14.94129452475975"><ele>40.0</ele><time>2026-04-25T15:35:16.999Z</time></trkpt><trkpt lat="40.26562343717081" lon="14.9412035071848"><ele>40.0</ele><time>2026-04-25T15:35:18.999Z</time></trkpt><trkpt lat="40.26561626395409" lon="14.941116083453922"><ele>40.0</ele><time>2026-04-25T15:35:20.999Z</time></trkpt><trkpt lat="40.26557553046906" lon="14.941013106148544"><ele>40.0</ele><time>2026-04-25T15:35:23.999Z</time></trkpt><trkpt lat="40.26554454294872" lon="14.940905089780662"><ele>39.833333333333336</ele><time>2026-04-25T15:35:26.999Z</time></trkpt><trkpt lat="40.265470011027034" lon="14.94077007879704"><ele>39.66666666666667</ele><time>2026-04-25T15:35:28.999Z</time></trkpt><trkpt lat="40.2654203694425" lon="14.94069006708671"><ele>39.5</ele><time>2026-04-25T15:35:29.999Z</time></trkpt><trkpt lat="40.26541672521236" lon="14.940575816335858"><ele>39.333333333333336</ele><time>2026-04-25T15:35:30.999Z</time></trkpt><trkpt lat="40.265379239849416" lon="14.940504253376092"><ele>39.166666666666664</ele><time>2026-04-25T15:35:31.999Z</time></trkpt><trkpt lat="40.26533765588676" lon="14.94041606208934"><ele>39.0</ele><time>2026-04-25T15:35:33.999Z</time></trkpt><trkpt lat="40.26530418381984" lon="14.940343295358602"><ele>39.0</ele><time>2026-04-25T15:35:35.999Z</time></trkpt><trkpt lat="40.265269713197085" lon="14.940271526085395"><ele>39.0</ele><time>2026-04-25T15:35:37.999Z</time></trkpt><trkpt lat="40.265224973020594" lon="14.94018232662714"><ele>39.0</ele><time>2026-04-25T15:35:40.999Z</time></trkpt><trkpt lat="40.26532332581261" lon="14.940056991094332"><ele>39.0</ele><time>2026-04-25T15:35:42.999Z</time></trkpt><trkpt lat="40.265420729126376" lon="14.93996757479097"><ele>39.0</ele><time>2026-04-25T15:35:43.999Z</time></trkpt><trkpt lat="40.265509175999604" lon="14.939872223597401"><ele>38.5</ele><time>2026-04-25T15:35:44.999Z</time></trkpt><trkpt lat="40.26558027097299" lon="14.93978058060837"><ele>38.0</ele><time>2026-04-25T15:35:45.999Z</time></trkpt><trkpt lat="40.26564503996172" lon="14.939697648723605"><ele>37.5</ele><time>2026-04-25T15:35:46.999Z</time></trkpt><trkpt lat="40.26569919989121" lon="14.93960958931727"><ele>37.0</ele><time>2026-04-25T15:35:47.999Z</time></trkpt><trkpt lat="40.26573968998303" lon="14.93951275579207"><ele>36.5</ele><time>2026-04-25T15:35:48.999Z</time></trkpt><trkpt lat="40.265774503134914" lon="14.939417446247388"><ele>36.0</ele><time>2026-04-25T15:35:49.999Z</time></trkpt><trkpt lat="40.26580128894201" lon="14.939305535593869"><ele>34.833333333333336</ele><time>2026-04-25T15:35:50.999Z</time></trkpt><trkpt lat="40.26582889574746" lon="14.939183595024394"><ele>33.666666666666664</ele><time>2026-04-25T15:35:51.999Z</time></trkpt><trkpt lat="40.26586517917225" lon="14.939074704150114"><ele>32.5</ele><time>2026-04-25T15:35:52.999Z</time></trkpt><trkpt lat="40.26590442388047" lon="14.938983873467382"><ele>31.333333333333332</ele><time>2026-04-25T15:35:53.999Z</time></trkpt><trkpt lat="40.265944329279726" lon="14.938902786781629"><ele>30.166666666666664</ele><time>2026-04-25T15:35:54.999Z</time></trkpt><trkpt lat="40.26599794123399" lon="14.938817236643109"><ele>29.0</ele><time>2026-04-25T15:35:55.999Z</time></trkpt><trkpt lat="40.266040150069976" lon="14.938698533457282"><ele>29.0</ele><time>2026-04-25T15:35:56.999Z</time></trkpt><trkpt lat="40.26608786635861" lon="14.938595227175822"><ele>29.0</ele><time>2026-04-25T15:35:57.999Z</time></trkpt><trkpt lat="40.26622099935811" lon="14.938558938317755"><ele>29.0</ele><time>2026-04-25T15:35:58.999Z</time></trkpt><trkpt lat="40.26629497579674" lon="14.938471733658917"><ele>29.0</ele><time>2026-04-25T15:35:59.999Z</time></trkpt><trkpt lat="40.266363879833655" lon="14.938386802113765"><ele>29.0</ele><time>2026-04-25T15:36:00.999Z</time></trkpt><trkpt lat="40.26642935062926" lon="14.93829764221472"><ele>27.833333333333332</ele><time>2026-04-25T15:36:01.999Z</time></trkpt><trkpt lat="40.26649311345331" lon="14.93821750356021"><ele>26.666666666666664</ele><time>2026-04-25T15:36:02.999Z</time></trkpt><trkpt lat="40.2665559617755" lon="14.93814231489517"><ele>25.5</ele><time>2026-04-25T15:36:03.999Z</time></trkpt><trkpt lat="40.266608685755806" lon="14.938066333217046"><ele>24.333333333333332</ele><time>2026-04-25T15:36:04.999Z</time></trkpt><trkpt lat="40.26665303883646" lon="14.937984773446109"><ele>23.166666666666664</ele><time>2026-04-25T15:36:05.999Z</time></trkpt><trkpt lat="40.26670754172201" lon="14.937871786457508"><ele>22.0</ele><time>2026-04-25T15:36:07.999Z</time></trkpt><trkpt lat="40.26671576485044" lon="14.937789814815277"><ele>22.0</ele><time>2026-04-25T15:36:09.999Z</time></trkpt><trkpt lat="40.266673280971624" lon="14.937725560420441"><ele>22.0</ele><time>2026-04-25T15:36:11.999Z</time></trkpt><trkpt lat="40.26658248480211" lon="14.937652621458628"><ele>22.0</ele><time>2026-04-25T15:36:13.999Z</time></trkpt><trkpt lat="40.26651795343442" lon="14.937528468860176"><ele>22.0</ele><time>2026-04-25T15:36:15.999Z</time></trkpt><trkpt lat="40.266487579441375" lon="14.937416169531556"><ele>22.0</ele><time>2026-04-25T15:36:17.999Z</time></trkpt><trkpt lat="40.2664923288194" lon="14.937267221735278"><ele>22.833333333333332</ele><time>2026-04-25T15:36:19.999Z</time></trkpt><trkpt lat="40.26643730127859" lon="14.937152075688093"><ele>23.666666666666664</ele><time>2026-04-25T15:36:21.999Z</time></trkpt><trkpt lat="40.26637654556658" lon="14.937095231686651"><ele>24.5</ele><time>2026-04-25T15:36:22.999Z</time></trkpt><trkpt lat="40.26631185540006" lon="14.937034312691216"><ele>25.333333333333332</ele><time>2026-04-25T15:36:23.999Z</time></trkpt><trkpt lat="40.26624517569794" lon="14.936976929268104"><ele>26.166666666666668</ele><time>2026-04-25T15:36:24.999Z</time></trkpt><trkpt lat="40.266175235397675" lon="14.936897087936346"><ele>27.0</ele><time>2026-04-25T15:36:25.999Z</time></trkpt><trkpt lat="40.26616206449258" lon="14.936750168243961"><ele>27.400000000000002</ele><time>2026-04-25T15:36:26.999Z</time></trkpt><trkpt lat="40.266101360404065" lon="14.936669968665019"><ele>27.800000000000004</ele><time>2026-04-25T15:36:27.999Z</time></trkpt><trkpt lat="40.26603472158431" lon="14.936568536890197"><ele>28.2</ele><time>2026-04-25T15:36:28.999Z</time></trkpt><trkpt lat="40.26597301272346" lon="14.936446642539842"><ele>28.6</ele><time>2026-04-25T15:36:29.999Z</time></trkpt><trkpt lat="40.26592465524869" lon="14.936329694330322"><ele>29.0</ele><time>2026-04-25T15:36:30.999Z</time></trkpt><trkpt lat="40.265884729580776" lon="14.936213707648546"><ele>29.0</ele><time>2026-04-25T15:36:31.999Z</time></trkpt><trkpt lat="40.26585300455201" lon="14.936100409804759"><ele>29.0</ele><time>2026-04-25T15:36:32.999Z</time></trkpt><trkpt lat="40.2658560682815" lon="14.93597242338396"><ele>29.0</ele><time>2026-04-25T15:36:33.999Z</time></trkpt><trkpt lat="40.26583532369477" lon="14.93584688708054"><ele>29.0</ele><time>2026-04-25T15:36:34.999Z</time></trkpt><trkpt lat="40.26578074150349" lon="14.935716677997258"><ele>29.0</ele><time>2026-04-25T15:36:35.999Z</time></trkpt><trkpt lat="40.265712882494284" lon="14.935597611237975"><ele>29.799999999999997</ele><time>2026-04-25T15:36:36.999Z</time></trkpt><trkpt lat="40.265640003511116" lon="14.935473280404697"><ele>30.599999999999998</ele><time>2026-04-25T15:36:37.999Z</time></trkpt><trkpt lat="40.2655802649918" lon="14.935367365605156"><ele>31.4</ele><time>2026-04-25T15:36:38.999Z</time></trkpt><trkpt lat="40.26553123429044" lon="14.935268654631527"><ele>32.199999999999996</ele><time>2026-04-25T15:36:39.999Z</time></trkpt><trkpt lat="40.265482244417576" lon="14.935165773658307"><ele>33.0</ele><time>2026-04-25T15:36:40.999Z</time></trkpt><trkpt lat="40.26543377836037" lon="14.935059178186886"><ele>35.166666666666664</ele><time>2026-04-25T15:36:41.999Z</time></trkpt><trkpt lat="40.26538431778271" lon="14.934941647727715"><ele>37.333333333333336</ele><time>2026-04-25T15:36:42.999Z</time></trkpt><trkpt lat="40.265340391771055" lon="14.934830120526119"><ele>39.5</ele><time>2026-04-25T15:36:43.999Z</time></trkpt><trkpt lat="40.265306587169015" lon="14.934739134612236"><ele>41.66666666666667</ele><time>2026-04-25T15:36:44.999Z</time></trkpt><trkpt lat="40.26527842500839" lon="14.934656072651945"><ele>43.833333333333336</ele><time>2026-04-25T15:36:45.999Z</time></trkpt><trkpt lat="40.265250009200486" lon="14.93456771574293"><ele>46.0</ele><time>2026-04-25T15:36:46.999Z</time></trkpt><trkpt lat="40.265218258861736" lon="14.934459422409441"><ele>46.0</ele><time>2026-04-25T15:36:47.999Z</time></trkpt><trkpt lat="40.26518823564716" lon="14.93435685577874"><ele>46.0</ele><time>2026-04-25T15:36:48.999Z</time></trkpt><trkpt lat="40.26516242047788" lon="14.934258861996508"><ele>46.0</ele><time>2026-04-25T15:36:49.998Z</time></trkpt><trkpt lat="40.26513741820954" lon="14.934163953968284"><ele>46.0</ele><time>2026-04-25T15:36:50.998Z</time></trkpt><trkpt lat="40.26511276684776" lon="14.934069013194879"><ele>46.0</ele><time>2026-04-25T15:36:51.998Z</time></trkpt><trkpt lat="40.2650863472548" lon="14.933963119481733"><ele>46.0</ele><time>2026-04-25T15:36:52.998Z</time></trkpt><trkpt lat="40.265058433701576" lon="14.933846597422072"><ele>47.199999999999996</ele><time>2026-04-25T15:36:53.998Z</time></trkpt><trkpt lat="40.26503089094152" lon="14.933724615333658"><ele>48.4</ele><time>2026-04-25T15:36:54.998Z</time></trkpt><trkpt lat="40.2650020644903" lon="14.93359279972495"><ele>49.6</ele><time>2026-04-25T15:36:55.998Z</time></trkpt><trkpt lat="40.26497792261202" lon="14.933458705887539"><ele>50.8</ele><time>2026-04-25T15:36:56.998Z</time></trkpt><trkpt lat="40.26495280045052" lon="14.933305491536267"><ele>52.0</ele><time>2026-04-25T15:36:57.998Z</time></trkpt><trkpt lat="40.26493480913987" lon="14.933152794865544"><ele>54.75</ele><time>2026-04-25T15:36:58.998Z</time></trkpt><trkpt lat="40.26492564651148" lon="14.933010127039596"><ele>57.5</ele><time>2026-04-25T15:36:59.998Z</time></trkpt><trkpt lat="40.26492869522649" lon="14.932861214429343"><ele>60.25</ele><time>2026-04-25T15:37:00.998Z</time></trkpt><trkpt lat="40.26494455006592" lon="14.93270753783788"><ele>63.0</ele><time>2026-04-25T15:37:01.998Z</time></trkpt><trkpt lat="40.26496627027075" lon="14.932546225543797"><ele>64.2</ele><time>2026-04-25T15:37:02.998Z</time></trkpt><trkpt lat="40.26498630288866" lon="14.932402450830855"><ele>65.4</ele><time>2026-04-25T15:37:03.998Z</time></trkpt><trkpt lat="40.26500791581956" lon="14.93226526663559"><ele>66.60000000000001</ele><time>2026-04-25T15:37:05Z</time></trkpt><trkpt lat="40.26502907412807" lon="14.932129202363006"><ele>67.8</ele><time>2026-04-25T15:37:06Z</time></trkpt><trkpt lat="40.265048539802756" lon="14.931996045191871"><ele>69.0</ele><time>2026-04-25T15:37:07Z</time></trkpt><trkpt lat="40.26506509125222" lon="14.931863659337655"><ele>69.8</ele><time>2026-04-25T15:37:08Z</time></trkpt><trkpt lat="40.26507458195089" lon="14.931721881334628"><ele>70.60000000000001</ele><time>2026-04-25T15:37:09Z</time></trkpt><trkpt lat="40.265076060480936" lon="14.931570626794496"><ele>71.4</ele><time>2026-04-25T15:37:10Z</time></trkpt><trkpt lat="40.26507173060889" lon="14.931422632027873"><ele>72.2</ele><time>2026-04-25T15:37:11Z</time></trkpt><trkpt lat="40.26506736483244" lon="14.931280924795347"><ele>73.0</ele><time>2026-04-25T15:37:12Z</time></trkpt><trkpt lat="40.26506262673906" lon="14.931130573750938"><ele>73.0</ele><time>2026-04-25T15:37:13Z</time></trkpt><trkpt lat="40.26505783632357" lon="14.930988991674507"><ele>73.0</ele><time>2026-04-25T15:37:14Z</time></trkpt><trkpt lat="40.265051030454444" lon="14.930855486287335"><ele>73.0</ele><time>2026-04-25T15:37:15Z</time></trkpt><trkpt lat="40.26504128921146" lon="14.930721856936348"><ele>73.0</ele><time>2026-04-25T15:37:16Z</time></trkpt><trkpt lat="40.26502647541124" lon="14.93059029263501"><ele>73.0</ele><time>2026-04-25T15:37:17Z</time></trkpt><trkpt lat="40.26500282234675" lon="14.93043949735022"><ele>73.25</ele><time>2026-04-25T15:37:18Z</time></trkpt><trkpt lat="40.264959828332415" lon="14.930280648107308"><ele>73.5</ele><time>2026-04-25T15:37:19Z</time></trkpt><trkpt lat="40.26493138565919" lon="14.930101308826961"><ele>73.75</ele><time>2026-04-25T15:37:19.999Z</time></trkpt><trkpt lat="40.26490441265687" lon="14.929911353763297"><ele>74.0</ele><time>2026-04-25T15:37:20.999Z</time></trkpt><trkpt lat="40.26487603197898" lon="14.929705746848908"><ele>75.25</ele><time>2026-04-25T15:37:21.999Z</time></trkpt><trkpt lat="40.26484989872719" lon="14.92951999069246"><ele>76.5</ele><time>2026-04-25T15:37:22.999Z</time></trkpt><trkpt lat="40.26484023783056" lon="14.92935143059819"><ele>77.75</ele><time>2026-04-25T15:37:23.999Z</time></trkpt><trkpt lat="40.264826811821386" lon="14.929190862073764"><ele>79.0</ele><time>2026-04-25T15:37:24.999Z</time></trkpt><trkpt lat="40.26481605863658" lon="14.92904273559121"><ele>80.5</ele><time>2026-04-25T15:37:25.999Z</time></trkpt><trkpt lat="40.264808152467246" lon="14.92888291140704"><ele>82.0</ele><time>2026-04-25T15:37:26.999Z</time></trkpt><trkpt lat="40.26480518740993" lon="14.92871644273492"><ele>83.5</ele><time>2026-04-25T15:37:27.999Z</time></trkpt><trkpt lat="40.26480614005429" lon="14.928570223769002"><ele>85.0</ele><time>2026-04-25T15:37:28.999Z</time></trkpt><trkpt lat="40.26481210054927" lon="14.928439561084188"><ele>85.66666666666666</ele><time>2026-04-25T15:37:29.999Z</time></trkpt><trkpt lat="40.264798200246865" lon="14.928303214837499"><ele>86.33333333333333</ele><time>2026-04-25T15:37:30.999Z</time></trkpt><trkpt lat="40.26476380285841" lon="14.92818538589497"><ele>87.0</ele><time>2026-04-25T15:37:31.999Z</time></trkpt><trkpt lat="40.26472845560576" lon="14.928093662836773"><ele>87.66666666666667</ele><time>2026-04-25T15:37:33Z</time></trkpt><trkpt lat="40.26469118841118" lon="14.928012282449034"><ele>88.33333333333334</ele><time>2026-04-25T15:37:44Z</time></trkpt><trkpt lat="40.264645433264434" lon="14.927953955435843"><ele>89.0</ele><time>2026-04-25T15:37:46Z</time></trkpt><trkpt lat="40.26460248181007" lon="14.927869218999351"><ele>96.0</ele><time>2026-04-25T15:37:47Z</time></trkpt><trkpt lat="40.26428018182968" lon="14.927701725174268"><ele>103.0</ele><time>2026-04-25T15:37:48Z</time></trkpt><trkpt lat="40.264130376356285" lon="14.927608323551272"><ele>106.66666666666667</ele><time>2026-04-25T15:37:51Z</time></trkpt><trkpt lat="40.26388159040083" lon="14.927867163331102"><ele>110.33333333333334</ele><time>2026-04-25T15:37:52Z</time></trkpt><trkpt lat="40.263796987593324" lon="14.927855240992915"><ele>114.0</ele><time>2026-04-25T15:37:53Z</time></trkpt><trkpt lat="40.26373061482923" lon="14.927867101371136"><ele>114.0</ele><time>2026-04-25T15:37:54Z</time></trkpt><trkpt lat="40.26364934338577" lon="14.927898374761908"><ele>114.0</ele><time>2026-04-25T15:37:55Z</time></trkpt><trkpt lat="40.26356693258793" lon="14.927938302229027"><ele>114.0</ele><time>2026-04-25T15:37:56Z</time></trkpt><trkpt lat="40.26347275894609" lon="14.928004401107218"><ele>114.0</ele><time>2026-04-25T15:37:57Z</time></trkpt><trkpt lat="40.26339855500229" lon="14.928067559212847"><ele>114.0</ele><time>2026-04-25T15:37:58Z</time></trkpt><trkpt lat="40.263327875614614" lon="14.92811525216176"><ele>114.0</ele><time>2026-04-25T15:37:59Z</time></trkpt><trkpt lat="40.263271792062945" lon="14.928164247701963"><ele>114.0</ele><time>2026-04-25T15:38:00Z</time></trkpt><trkpt lat="40.263218128335566" lon="14.92821378559277"><ele>114.0</ele><time>2026-04-25T15:38:01Z</time></trkpt><trkpt lat="40.263161769092854" lon="14.928258402029593"><ele>114.0</ele><time>2026-04-25T15:38:02Z</time></trkpt><trkpt lat="40.26307305561061" lon="14.928318633532353"><ele>114.0</ele><time>2026-04-25T15:38:04Z</time></trkpt><trkpt lat="40.262980907137916" lon="14.928385917864231"><ele>114.0</ele><time>2026-04-25T15:38:06Z</time></trkpt><trkpt lat="40.26292120843581" lon="14.928436786183115"><ele>114.0</ele><time>2026-04-25T15:38:07Z</time></trkpt><trkpt lat="40.2628641664647" lon="14.92848198278904"><ele>116.66666666666667</ele><time>2026-04-25T15:38:08Z</time></trkpt><trkpt lat="40.26275304753827" lon="14.928569270659956"><ele>119.33333333333334</ele><time>2026-04-25T15:38:10Z</time></trkpt><trkpt lat="40.26268407823471" lon="14.928618852248784"><ele>122.0</ele><time>2026-04-25T15:38:11Z</time></trkpt><trkpt lat="40.26262280075209" lon="14.928650474526732"><ele>124.66666666666667</ele><time>2026-04-25T15:38:12Z</time></trkpt><trkpt lat="40.26255944946185" lon="14.928663570109995"><ele>127.33333333333334</ele><time>2026-04-25T15:38:13Z</time></trkpt><trkpt lat="40.26248828127587" lon="14.928656941568855"><ele>130.0</ele><time>2026-04-25T15:38:14Z</time></trkpt><trkpt lat="40.26239797355088" lon="14.928644103174237"><ele>130.00000000000003</ele><time>2026-04-25T15:38:15Z</time></trkpt><trkpt lat="40.262319922373045" lon="14.928637797313353"><ele>130.0</ele><time>2026-04-25T15:38:16Z</time></trkpt><trkpt lat="40.26225361625035" lon="14.928669863409961"><ele>130.0</ele><time>2026-04-25T15:38:17Z</time></trkpt><trkpt lat="40.26219088721268" lon="14.928729342387115"><ele>130.0</ele><time>2026-04-25T15:38:18Z</time></trkpt><trkpt lat="40.2621491594986" lon="14.928814466449992"><ele>130.0</ele><time>2026-04-25T15:38:19Z</time></trkpt><trkpt lat="40.26213340759591" lon="14.928900333438087"><ele>130.00000000000003</ele><time>2026-04-25T15:38:20Z</time></trkpt><trkpt lat="40.262146711127365" lon="14.928999655317863"><ele>130.0</ele><time>2026-04-25T15:38:21Z</time></trkpt><trkpt lat="40.262185199653324" lon="14.929107903550296"><ele>131.2</ele><time>2026-04-25T15:38:22Z</time></trkpt><trkpt lat="40.26224135490694" lon="14.929231023952722"><ele>132.4</ele><time>2026-04-25T15:38:23Z</time></trkpt><trkpt lat="40.26231589804946" lon="14.929364378591304"><ele>133.6</ele><time>2026-04-25T15:38:24Z</time></trkpt><trkpt lat="40.26238319219253" lon="14.929481202019906"><ele>134.8</ele><time>2026-04-25T15:38:25Z</time></trkpt><trkpt lat="40.262435771331155" lon="14.929575468107771"><ele>136.0</ele><time>2026-04-25T15:38:26Z</time></trkpt><trkpt lat="40.262465844634434" lon="14.92967813388548"><ele>136.0</ele><time>2026-04-25T15:38:27Z</time></trkpt><trkpt lat="40.26248506515592" lon="14.929779431988571"><ele>136.0</ele><time>2026-04-25T15:38:28Z</time></trkpt><trkpt lat="40.26247944077371" lon="14.929875539136045"><ele>136.0</ele><time>2026-04-25T15:38:29Z</time></trkpt><trkpt lat="40.26246061943499" lon="14.929975622714453"><ele>136.0</ele><time>2026-04-25T15:38:30Z</time></trkpt><trkpt lat="40.26241205453457" lon="14.93007205639453"><ele>136.0</ele><time>2026-04-25T15:38:31Z</time></trkpt><trkpt lat="40.262339645735544" lon="14.930165106856895"><ele>136.0</ele><time>2026-04-25T15:38:32Z</time></trkpt><trkpt lat="40.2622630562242" lon="14.930241551424418"><ele>138.5</ele><time>2026-04-25T15:38:33Z</time></trkpt><trkpt lat="40.262168260661" lon="14.930317497053906"><ele>141.0</ele><time>2026-04-25T15:38:34Z</time></trkpt><trkpt lat="40.26205956705261" lon="14.930385998290804"><ele>143.5</ele><time>2026-04-25T15:38:35Z</time></trkpt><trkpt lat="40.26194137667941" lon="14.930456569679288"><ele>146.0</ele><time>2026-04-25T15:38:36Z</time></trkpt><trkpt lat="40.26180425560158" lon="14.930540480360552"><ele>146.0</ele><time>2026-04-25T15:38:37Z</time></trkpt><trkpt lat="40.2616561786698" lon="14.930627156904388"><ele>146.0</ele><time>2026-04-25T15:38:38Z</time></trkpt><trkpt lat="40.261538022897085" lon="14.930707259979926"><ele>146.0</ele><time>2026-04-25T15:38:39Z</time></trkpt><trkpt lat="40.26145160111097" lon="14.93076813414516"><ele>146.0</ele><time>2026-04-25T15:38:40Z</time></trkpt><trkpt lat="40.261374508534225" lon="14.930782238146021"><ele>148.83333333333331</ele><time>2026-04-25T15:38:41Z</time></trkpt><trkpt lat="40.26130064608775" lon="14.930785148319353"><ele>151.66666666666666</ele><time>2026-04-25T15:38:42Z</time></trkpt><trkpt lat="40.26122620131376" lon="14.930778907939079"><ele>154.5</ele><time>2026-04-25T15:38:43Z</time></trkpt><trkpt lat="40.26111048780553" lon="14.93077102709129"><ele>157.33333333333334</ele><time>2026-04-25T15:38:45Z</time></trkpt><trkpt lat="40.26102613677785" lon="14.930736056450874"><ele>160.16666666666669</ele><time>2026-04-25T15:38:46Z</time></trkpt><trkpt lat="40.26093787274769" lon="14.930686539370008"><ele>163.0</ele><time>2026-04-25T15:38:47Z</time></trkpt><trkpt lat="40.26085798471729" lon="14.930650271147423"><ele>163.0</ele><time>2026-04-25T15:38:48Z</time></trkpt><trkpt lat="40.26075652943329" lon="14.930614033925725"><ele>163.0</ele><time>2026-04-25T15:38:50Z</time></trkpt><trkpt lat="40.26067055684387" lon="14.930684408064627"><ele>163.0</ele><time>2026-04-25T15:38:52Z</time></trkpt><trkpt lat="40.260631452602276" lon="14.930829319259189"><ele>163.0</ele><time>2026-04-25T15:38:54Z</time></trkpt><trkpt lat="40.26062825907693" lon="14.930924388785359"><ele>163.0</ele><time>2026-04-25T15:38:55Z</time></trkpt><trkpt lat="40.26062161657034" lon="14.931044769440039"><ele>163.4</ele><time>2026-04-25T15:38:56Z</time></trkpt><trkpt lat="40.260617592419045" lon="14.931161608630655"><ele>163.8</ele><time>2026-04-25T15:38:57Z</time></trkpt><trkpt lat="40.26063399362272" lon="14.931287336095425"><ele>164.2</ele><time>2026-04-25T15:38:57.999Z</time></trkpt><trkpt lat="40.260664844624635" lon="14.931412668541107"><ele>164.6</ele><time>2026-04-25T15:38:58.999Z</time></trkpt><trkpt lat="40.26070897577833" lon="14.931540892453006"><ele>165.0</ele><time>2026-04-25T15:38:59.999Z</time></trkpt><trkpt lat="40.26075340203705" lon="14.931651258543406"><ele>164.2</ele><time>2026-04-25T15:39:00.999Z</time></trkpt><trkpt lat="40.260770516639475" lon="14.93179011008545"><ele>163.4</ele><time>2026-04-25T15:39:02.999Z</time></trkpt><trkpt lat="40.26071190516672" lon="14.93188177737412"><ele>162.60000000000002</ele><time>2026-04-25T15:39:04.999Z</time></trkpt><trkpt lat="40.26061230760268" lon="14.93191132158717"><ele>161.8</ele><time>2026-04-25T15:39:06.999Z</time></trkpt><trkpt lat="40.26048946591544" lon="14.931839166461957"><ele>161.0</ele><time>2026-04-25T15:39:08.999Z</time></trkpt><trkpt lat="40.26041809980416" lon="14.931761258414223"><ele>165.0</ele><time>2026-04-25T15:39:09.999Z</time></trkpt><trkpt lat="40.26034117201619" lon="14.931672559998336"><ele>169.0</ele><time>2026-04-25T15:39:11Z</time></trkpt><trkpt lat="40.26025257256726" lon="14.931578261256963"><ele>173.0</ele><time>2026-04-25T15:39:12Z</time></trkpt><trkpt lat="40.260151169555115" lon="14.931474511025666"><ele>177.0</ele><time>2026-04-25T15:39:13Z</time></trkpt><trkpt lat="40.26003433098369" lon="14.931355667384896"><ele>177.0</ele><time>2026-04-25T15:39:14Z</time></trkpt><trkpt lat="40.259938704239886" lon="14.931219324235999"><ele>177.0</ele><time>2026-04-25T15:39:15Z</time></trkpt><trkpt lat="40.25986516188901" lon="14.93111829727327"><ele>177.0</ele><time>2026-04-25T15:39:16Z</time></trkpt><trkpt lat="40.259807982422636" lon="14.931032543369128"><ele>177.0</ele><time>2026-04-25T15:39:17Z</time></trkpt><trkpt lat="40.259762425835305" lon="14.93095832363065"><ele>177.0</ele><time>2026-04-25T15:39:18Z</time></trkpt><trkpt lat="40.25972142900864" lon="14.930883486645689"><ele>179.33333333333334</ele><time>2026-04-25T15:39:19Z</time></trkpt><trkpt lat="40.25967533671135" lon="14.930788842228335"><ele>181.66666666666666</ele><time>2026-04-25T15:39:20Z</time></trkpt><trkpt lat="40.25962523722331" lon="14.930713855360203"><ele>184.0</ele><time>2026-04-25T15:39:21Z</time></trkpt><trkpt lat="40.25960963396522" lon="14.930586467879111"><ele>186.33333333333331</ele><time>2026-04-25T15:39:23Z</time></trkpt><trkpt lat="40.25962486680457" lon="14.930491160975278"><ele>188.66666666666666</ele><time>2026-04-25T15:39:24Z</time></trkpt><trkpt lat="40.25966622471817" lon="14.93038544159789"><ele>191.0</ele><time>2026-04-25T15:39:25Z</time></trkpt><trkpt lat="40.25966937378869" lon="14.930251151529797"><ele>191.0</ele><time>2026-04-25T15:39:26Z</time></trkpt><trkpt lat="40.25962974442395" lon="14.930131288237344"><ele>191.0</ele><time>2026-04-25T15:39:27Z</time></trkpt><trkpt lat="40.259596897570034" lon="14.930026432144059"><ele>191.0</ele><time>2026-04-25T15:39:28Z</time></trkpt><trkpt lat="40.25957130543297" lon="14.929939423370431"><ele>191.0</ele><time>2026-04-25T15:39:30Z</time></trkpt><trkpt lat="40.259590341437" lon="14.929818592824926"><ele>191.0</ele><time>2026-04-25T15:39:32Z</time></trkpt><trkpt lat="40.25968387977752" lon="14.929733711110375"><ele>190.8</ele><time>2026-04-25T15:39:33Z</time></trkpt><trkpt lat="40.259779633120985" lon="14.929654077126157"><ele>190.60000000000002</ele><time>2026-04-25T15:39:34Z</time></trkpt><trkpt lat="40.25983508603156" lon="14.929538348321419"><ele>190.4</ele><time>2026-04-25T15:39:35Z</time></trkpt><trkpt lat="40.25986794571095" lon="14.92943431097273"><ele>190.2</ele><time>2026-04-25T15:39:36Z</time></trkpt><trkpt lat="40.25989230760936" lon="14.929330360910555"><ele>190.0</ele><time>2026-04-25T15:39:37Z</time></trkpt><trkpt lat="40.25992744125019" lon="14.929247639211672"><ele>192.0</ele><time>2026-04-25T15:39:38Z</time></trkpt><trkpt lat="40.25995296233871" lon="14.929155509571704"><ele>194.0</ele><time>2026-04-25T15:39:40Z</time></trkpt><trkpt lat="40.25984063168639" lon="14.929072579062497"><ele>196.0</ele><time>2026-04-25T15:39:54Z</time></trkpt><trkpt lat="40.259749155101005" lon="14.929128770647887"><ele>198.0</ele><time>2026-04-25T15:39:55Z</time></trkpt><trkpt lat="40.25964304142889" lon="14.929202784954033"><ele>200.0</ele><time>2026-04-25T15:39:56Z</time></trkpt><trkpt lat="40.25955659721695" lon="14.929268569084492"><ele>200.66666666666669</ele><time>2026-04-25T15:39:57Z</time></trkpt><trkpt lat="40.25948215674956" lon="14.929326081130473"><ele>201.33333333333334</ele><time>2026-04-25T15:39:58Z</time></trkpt><trkpt lat="40.259412724218606" lon="14.929383676502356"><ele>202.0</ele><time>2026-04-25T15:39:59Z</time></trkpt><trkpt lat="40.259331774639016" lon="14.929450826553456"><ele>202.66666666666669</ele><time>2026-04-25T15:40:00Z</time></trkpt><trkpt lat="40.25925150921714" lon="14.929511338699845"><ele>203.33333333333334</ele><time>2026-04-25T15:40:01Z</time></trkpt><trkpt lat="40.25918176635786" lon="14.92955080897085"><ele>204.0</ele><time>2026-04-25T15:40:02Z</time></trkpt><trkpt lat="40.25913045738554" lon="14.92964427055989"><ele>204.0</ele><time>2026-04-25T15:40:03Z</time></trkpt><trkpt lat="40.25903981406289" lon="14.929741198777819"><ele>204.0</ele><time>2026-04-25T15:40:04Z</time></trkpt><trkpt lat="40.258957148663875" lon="14.929817954306746"><ele>204.0</ele><time>2026-04-25T15:40:05Z</time></trkpt><trkpt lat="40.25887493341828" lon="14.929882013442114"><ele>204.0</ele><time>2026-04-25T15:40:06Z</time></trkpt><trkpt lat="40.2587680851375" lon="14.929940110589698"><ele>204.0</ele><time>2026-04-25T15:40:07Z</time></trkpt><trkpt lat="40.258644993830366" lon="14.929972783387802"><ele>204.0</ele><time>2026-04-25T15:40:08Z</time></trkpt><trkpt lat="40.25851342375187" lon="14.930002934803541"><ele>204.0</ele><time>2026-04-25T15:40:09Z</time></trkpt><trkpt lat="40.25838846191712" lon="14.930015220757195"><ele>204.0</ele><time>2026-04-25T15:40:10Z</time></trkpt><trkpt lat="40.25830521839678" lon="14.930036227869612"><ele>204.0</ele><time>2026-04-25T15:40:11Z</time></trkpt><trkpt lat="40.258248199303836" lon="14.93010769330646"><ele>204.0</ele><time>2026-04-25T15:40:12Z</time></trkpt><trkpt lat="40.258196522225134" lon="14.93019351461218"><ele>209.0</ele><time>2026-04-25T15:40:13Z</time></trkpt><trkpt lat="40.25809905213859" lon="14.930346090241294"><ele>214.0</ele><time>2026-04-25T15:40:14Z</time></trkpt><trkpt lat="40.25795607706205" lon="14.930523138110614"><ele>219.0</ele><time>2026-04-25T15:40:15Z</time></trkpt><trkpt lat="40.25774219289658" lon="14.930590246999731"><ele>219.0</ele><time>2026-04-25T15:40:16Z</time></trkpt><trkpt lat="40.25758339274539" lon="14.930738002446061"><ele>219.0</ele><time>2026-04-25T15:40:17Z</time></trkpt><trkpt lat="40.25746769359527" lon="14.930859293194395"><ele>219.0</ele><time>2026-04-25T15:40:18Z</time></trkpt><trkpt lat="40.257353850512" lon="14.930970623933744"><ele>219.75</ele><time>2026-04-25T15:40:19Z</time></trkpt><trkpt lat="40.25723193616098" lon="14.931059800038284"><ele>220.5</ele><time>2026-04-25T15:40:20Z</time></trkpt><trkpt lat="40.25712836313238" lon="14.931126494396471"><ele>221.25</ele><time>2026-04-25T15:40:21Z</time></trkpt><trkpt lat="40.25701742599416" lon="14.93120786194893"><ele>222.0</ele><time>2026-04-25T15:40:22Z</time></trkpt><trkpt lat="40.25689350321096" lon="14.931318141701846"><ele>222.0</ele><time>2026-04-25T15:40:23Z</time></trkpt><trkpt lat="40.25678136401695" lon="14.931419332245465"><ele>222.0</ele><time>2026-04-25T15:40:24Z</time></trkpt><trkpt lat="40.25669506976148" lon="14.931502829358777"><ele>222.0</ele><time>2026-04-25T15:40:25Z</time></trkpt><trkpt lat="40.25663286330229" lon="14.93160026129742"><ele>222.0</ele><time>2026-04-25T15:40:26Z</time></trkpt><trkpt lat="40.25654806000756" lon="14.931687478506635"><ele>222.0</ele><time>2026-04-25T15:40:28Z</time></trkpt><trkpt lat="40.25655673432391" lon="14.931519618546124"><ele>222.0</ele><time>2026-04-25T15:40:40Z</time></trkpt><trkpt lat="40.256559653985924" lon="14.931428812405365"><ele>222.0</ele><time>2026-04-25T15:40:41Z</time></trkpt><trkpt lat="40.256573183551545" lon="14.931328066658933"><ele>222.0</ele><time>2026-04-25T15:40:42Z</time></trkpt><trkpt lat="40.25657301165666" lon="14.931224845282438"><ele>222.0</ele><time>2026-04-25T15:40:43Z</time></trkpt><trkpt lat="40.256571343028334" lon="14.931097140058174"><ele>222.0</ele><time>2026-04-25T15:40:45Z</time></trkpt><trkpt lat="40.25659711541072" lon="14.930997901455521"><ele>222.0</ele><time>2026-04-25T15:40:49Z</time></trkpt><trkpt lat="40.256670428914376" lon="14.930850160581626"><ele>224.2</ele><time>2026-04-25T15:40:52Z</time></trkpt><trkpt lat="40.25673227619302" lon="14.930729596201935"><ele>226.39999999999998</ele><time>2026-04-25T15:40:54Z</time></trkpt><trkpt lat="40.25676534709833" lon="14.930658134155632"><ele>228.60000000000002</ele><time>2026-04-25T15:40:55Z</time></trkpt><trkpt lat="40.256829656310856" lon="14.93052045786357"><ele>230.8</ele><time>2026-04-25T15:40:57Z</time></trkpt><trkpt lat="40.25689710806047" lon="14.930384795111793"><ele>233.0</ele><time>2026-04-25T15:40:59Z</time></trkpt><trkpt lat="40.256932306607524" lon="14.930308078174313"><ele>233.0</ele><time>2026-04-25T15:41:00Z</time></trkpt><trkpt lat="40.25697892386994" lon="14.93022313230959"><ele>233.0</ele><time>2026-04-25T15:41:01Z</time></trkpt><trkpt lat="40.257027831088664" lon="14.9301468878971"><ele>233.0</ele><time>2026-04-25T15:41:01.999Z</time></trkpt><trkpt lat="40.257085266662465" lon="14.930043617780113"><ele>233.0</ele><time>2026-04-25T15:41:02.999Z</time></trkpt><trkpt lat="40.257164484608616" lon="14.92992816527404"><ele>233.0</ele><time>2026-04-25T15:41:03.999Z</time></trkpt><trkpt lat="40.25723709748934" lon="14.92982263817517"><ele>233.75</ele><time>2026-04-25T15:41:04.999Z</time></trkpt><trkpt lat="40.257303045987214" lon="14.92970680599013"><ele>234.5</ele><time>2026-04-25T15:41:05.999Z</time></trkpt><trkpt lat="40.25737034977579" lon="14.929586198810886"><ele>235.25</ele><time>2026-04-25T15:41:06.999Z</time></trkpt><trkpt lat="40.25744941833026" lon="14.929456544437798"><ele>236.0</ele><time>2026-04-25T15:41:07.999Z</time></trkpt><trkpt lat="40.25752820711351" lon="14.929332867264897"><ele>238.20000000000002</ele><time>2026-04-25T15:41:08.999Z</time></trkpt><trkpt lat="40.25759201875445" lon="14.929205869942548"><ele>240.40000000000003</ele><time>2026-04-25T15:41:09.999Z</time></trkpt><trkpt lat="40.25765266563655" lon="14.929089245616805"><ele>242.6</ele><time>2026-04-25T15:41:10.999Z</time></trkpt><trkpt lat="40.25769826919704" lon="14.929002837194153"><ele>244.8</ele><time>2026-04-25T15:41:11.999Z</time></trkpt><trkpt lat="40.25774869341311" lon="14.928915602886407"><ele>247.0</ele><time>2026-04-25T15:41:12.999Z</time></trkpt><trkpt lat="40.25779736901635" lon="14.928830460430625"><ele>247.0</ele><time>2026-04-25T15:41:13.999Z</time></trkpt><trkpt lat="40.25783353677955" lon="14.928744935302625"><ele>247.0</ele><time>2026-04-25T15:41:14.999Z</time></trkpt><trkpt lat="40.25786264678114" lon="14.928669753814074"><ele>247.0</ele><time>2026-04-25T15:41:15.999Z</time></trkpt><trkpt lat="40.257880088330324" lon="14.92857188362308"><ele>247.0</ele><time>2026-04-25T15:41:17Z</time></trkpt><trkpt lat="40.25788893760205" lon="14.928473532532143"><ele>247.0</ele><time>2026-04-25T15:41:18Z</time></trkpt><trkpt lat="40.25787581597063" lon="14.928382231199867"><ele>247.0</ele><time>2026-04-25T15:41:19Z</time></trkpt><trkpt lat="40.25784002790223" lon="14.928281964768571"><ele>247.0</ele><time>2026-04-25T15:41:20Z</time></trkpt><trkpt lat="40.25782669028769" lon="14.9281832363853"><ele>249.8</ele><time>2026-04-25T15:41:21Z</time></trkpt><trkpt lat="40.257879851820185" lon="14.928032267300162"><ele>252.6</ele><time>2026-04-25T15:41:23Z</time></trkpt><trkpt lat="40.257927108049905" lon="14.9279307507606"><ele>255.40000000000003</ele><time>2026-04-25T15:41:24Z</time></trkpt><trkpt lat="40.25798838958957" lon="14.927843225737895"><ele>258.2</ele><time>2026-04-25T15:41:25Z</time></trkpt><trkpt lat="40.25805460415735" lon="14.92776013272008"><ele>261.0</ele><time>2026-04-25T15:41:26Z</time></trkpt><trkpt lat="40.25811583808425" lon="14.927662770164966"><ele>259.8</ele><time>2026-04-25T15:41:27Z</time></trkpt><trkpt lat="40.25817715362787" lon="14.927519669580615"><ele>258.6</ele><time>2026-04-25T15:41:28Z</time></trkpt><trkpt lat="40.25823830197249" lon="14.92736902333132"><ele>257.4</ele><time>2026-04-25T15:41:29Z</time></trkpt><trkpt lat="40.25828928684161" lon="14.927236516288561"><ele>256.2</ele><time>2026-04-25T15:41:30Z</time></trkpt><trkpt lat="40.25833037506506" lon="14.927152093380483"><ele>255.0</ele><time>2026-04-25T15:41:31Z</time></trkpt><trkpt lat="40.258365130540234" lon="14.927066588494293"><ele>255.0</ele><time>2026-04-25T15:41:32Z</time></trkpt><trkpt lat="40.25842403461183" lon="14.926934759512545"><ele>255.0</ele><time>2026-04-25T15:41:33Z</time></trkpt><trkpt lat="40.25847310834009" lon="14.92680702994154"><ele>255.0</ele><time>2026-04-25T15:41:34Z</time></trkpt><trkpt lat="40.25851252296684" lon="14.926673609021401"><ele>255.0</ele><time>2026-04-25T15:41:36Z</time></trkpt><trkpt lat="40.25844863302693" lon="14.926607950643573"><ele>255.0</ele><time>2026-04-25T15:41:39Z</time></trkpt><trkpt lat="40.25838993457491" lon="14.926647109629211"><ele>255.0</ele><time>2026-04-25T15:41:42Z</time></trkpt><trkpt lat="40.25834302779555" lon="14.9267339276154"><ele>255.0</ele><time>2026-04-25T15:41:44Z</time></trkpt><trkpt lat="40.25824050122079" lon="14.926813146368751"><ele>255.0</ele><time>2026-04-25T15:41:46Z</time></trkpt><trkpt lat="40.25817430481055" lon="14.926850973338894"><ele>255.0</ele><time>2026-04-25T15:41:47Z</time></trkpt><trkpt lat="40.25810428508883" lon="14.926887746418569"><ele>255.0</ele><time>2026-04-25T15:41:48Z</time></trkpt><trkpt lat="40.25802627993916" lon="14.92691408637949"><ele>255.0</ele><time>2026-04-25T15:41:49Z</time></trkpt><trkpt lat="40.2579229940095" lon="14.926910182078062"><ele>258.4</ele><time>2026-04-25T15:41:50Z</time></trkpt><trkpt lat="40.25781855970229" lon="14.926938184565381"><ele>261.8</ele><time>2026-04-25T15:41:51Z</time></trkpt><trkpt lat="40.25772942513896" lon="14.926958864058728"><ele>265.2</ele><time>2026-04-25T15:41:52Z</time></trkpt><trkpt lat="40.25761298482103" lon="14.92695742900734"><ele>268.6</ele><time>2026-04-25T15:41:54Z</time></trkpt><trkpt lat="40.257546607084905" lon="14.926950089269733"><ele>272.0</ele><time>2026-04-25T15:41:55Z</time></trkpt><trkpt lat="40.257443859804575" lon="14.926916306981921"><ele>272.0</ele><time>2026-04-25T15:41:57Z</time></trkpt><trkpt lat="40.2573334606952" lon="14.92689461622094"><ele>272.0</ele><time>2026-04-25T15:41:59Z</time></trkpt><trkpt lat="40.257270949554865" lon="14.926883144596813"><ele>272.0</ele><time>2026-04-25T15:42:00Z</time></trkpt><trkpt lat="40.257151849313786" lon="14.926895501815567"><ele>272.0</ele><time>2026-04-25T15:42:02Z</time></trkpt><trkpt lat="40.25706032802687" lon="14.926928913877688"><ele>272.0</ele><time>2026-04-25T15:42:03Z</time></trkpt><trkpt lat="40.256935757690016" lon="14.926940332393427"><ele>275.5</ele><time>2026-04-25T15:42:04Z</time></trkpt><trkpt lat="40.25682760102984" lon="14.926965259301918"><ele>279.0</ele><time>2026-04-25T15:42:05Z</time></trkpt><trkpt lat="40.25673283119871" lon="14.92697685728202"><ele>282.5</ele><time>2026-04-25T15:42:06Z</time></trkpt><trkpt lat="40.256668610030125" lon="14.926995025854142"><ele>286.0</ele><time>2026-04-25T15:42:07Z</time></trkpt><trkpt lat="40.25660442229612" lon="14.927017687045854"><ele>289.5</ele><time>2026-04-25T15:42:08Z</time></trkpt><trkpt lat="40.25651615535568" lon="14.927015008446832"><ele>293.0</ele><time>2026-04-25T15:42:10Z</time></trkpt><trkpt lat="40.25649544047344" lon="14.92692306540436"><ele>293.0</ele><time>2026-04-25T15:42:12Z</time></trkpt><trkpt lat="40.25652815033592" lon="14.926797672112347"><ele>293.0</ele><time>2026-04-25T15:42:14Z</time></trkpt><trkpt lat="40.256192954405" lon="14.926766296224798"><ele>293.0</ele><time>2026-04-25T15:42:16Z</time></trkpt><trkpt lat="40.25623009429032" lon="14.92663786288969"><ele>296.5</ele><time>2026-04-25T15:42:17Z</time></trkpt><trkpt lat="40.25627657734044" lon="14.92654396264725"><ele>300.0</ele><time>2026-04-25T15:42:18Z</time></trkpt><trkpt lat="40.25634327170712" lon="14.926423680917797"><ele>303.5</ele><time>2026-04-25T15:42:19Z</time></trkpt><trkpt lat="40.25641890131549" lon="14.926283464789051"><ele>307.0</ele><time>2026-04-25T15:42:20Z</time></trkpt><trkpt lat="40.25649389146727" lon="14.926129645047158"><ele>307.0</ele><time>2026-04-25T15:42:21Z</time></trkpt><trkpt lat="40.25655590233444" lon="14.926017978313794"><ele>307.0</ele><time>2026-04-25T15:42:22Z</time></trkpt><trkpt lat="40.25662497452925" lon="14.925881751021311"><ele>307.0</ele><time>2026-04-25T15:42:23Z</time></trkpt><trkpt lat="40.256686114419836" lon="14.925748517626086"><ele>307.0</ele><time>2026-04-25T15:42:24Z</time></trkpt><trkpt lat="40.25673990956743" lon="14.92563065485617"><ele>307.6</ele><time>2026-04-25T15:42:25Z</time></trkpt><trkpt lat="40.25675576327662" lon="14.925528866692146"><ele>308.2</ele><time>2026-04-25T15:42:26Z</time></trkpt><trkpt lat="40.25677140485809" lon="14.925446538885987"><ele>308.8</ele><time>2026-04-25T15:42:27Z</time></trkpt><trkpt lat="40.25677189989835" lon="14.925304187938636"><ele>309.4</ele><time>2026-04-25T15:42:29Z</time></trkpt><trkpt lat="40.256731462879486" lon="14.925181790983782"><ele>310.0</ele><time>2026-04-25T15:42:31Z</time></trkpt><trkpt lat="40.25666703644439" lon="14.925069230421737"><ele>310.0</ele><time>2026-04-25T15:42:33Z</time></trkpt><trkpt lat="40.256541240990806" lon="14.925098945547811"><ele>310.0</ele><time>2026-04-25T15:42:35Z</time></trkpt><trkpt lat="40.25644223041787" lon="14.925363346251663"><ele>310.0</ele><time>2026-04-25T15:42:36Z</time></trkpt><trkpt lat="40.25636527795502" lon="14.925462317970815"><ele>311.8</ele><time>2026-04-25T15:42:37Z</time></trkpt><trkpt lat="40.25628806090269" lon="14.925565732755082"><ele>313.6</ele><time>2026-04-25T15:42:38Z</time></trkpt><trkpt lat="40.25621332809602" lon="14.92570653244559"><ele>315.4</ele><time>2026-04-25T15:42:39Z</time></trkpt><trkpt lat="40.2561453592871" lon="14.925782012431418"><ele>317.2</ele><time>2026-04-25T15:42:40Z</time></trkpt><trkpt lat="40.256083470351165" lon="14.925850438496227"><ele>319.0</ele><time>2026-04-25T15:42:41Z</time></trkpt><trkpt lat="40.25599182754975" lon="14.925966052726867"><ele>319.2</ele><time>2026-04-25T15:42:43Z</time></trkpt><trkpt lat="40.25593373565058" lon="14.926060607152666"><ele>319.4</ele><time>2026-04-25T15:42:44Z</time></trkpt><trkpt lat="40.255877271877814" lon="14.926135267934042"><ele>319.6</ele><time>2026-04-25T15:42:45Z</time></trkpt><trkpt lat="40.255821140165644" lon="14.92618520810939"><ele>319.8</ele><time>2026-04-25T15:42:47Z</time></trkpt><trkpt lat="40.25581717751947" lon="14.926280856918657"><ele>320.0</ele><time>2026-04-25T15:42:49Z</time></trkpt><trkpt lat="40.255641593378634" lon="14.92648227672532"><ele>319.8</ele><time>2026-04-25T15:42:53Z</time></trkpt><trkpt lat="40.25555994444801" lon="14.926553325848847"><ele>319.6</ele><time>2026-04-25T15:42:55Z</time></trkpt><trkpt lat="40.25545939532141" lon="14.926604344824872"><ele>319.4</ele><time>2026-04-25T15:42:57Z</time></trkpt><trkpt lat="40.25538545149196" lon="14.926678246989317"><ele>319.2</ele><time>2026-04-25T15:42:59Z</time></trkpt><trkpt lat="40.255328698470436" lon="14.926753549850007"><ele>319.0</ele><time>2026-04-25T15:43:01Z</time></trkpt><trkpt lat="40.255293298452614" lon="14.926834500995163"><ele>319.5</ele><time>2026-04-25T15:43:03Z</time></trkpt><trkpt lat="40.2552535958601" lon="14.926921281849053"><ele>320.0</ele><time>2026-04-25T15:43:05Z</time></trkpt><trkpt lat="40.25520550482158" lon="14.927025648698445"><ele>320.5</ele><time>2026-04-25T15:43:06.999Z</time></trkpt><trkpt lat="40.255143146900416" lon="14.927131146063244"><ele>321.0</ele><time>2026-04-25T15:43:08.999Z</time></trkpt><trkpt lat="40.255100514888134" lon="14.927250578489584"><ele>321.5</ele><time>2026-04-25T15:43:10.999Z</time></trkpt><trkpt lat="40.255049208410675" lon="14.927311598156665"><ele>322.0</ele><time>2026-04-25T15:43:12.999Z</time></trkpt><trkpt lat="40.254998879024576" lon="14.92737107714428"><ele>322.0</ele><time>2026-04-25T15:43:14.999Z</time></trkpt><trkpt lat="40.25496813382322" lon="14.927450484203609"><ele>322.0</ele><time>2026-04-25T15:43:16.999Z</time></trkpt><trkpt lat="40.254920417097665" lon="14.927511138160721"><ele>322.0</ele><time>2026-04-25T15:43:18.999Z</time></trkpt><trkpt lat="40.254859280010585" lon="14.927588821776908"><ele>322.0</ele><time>2026-04-25T15:43:21.999Z</time></trkpt><trkpt lat="40.254770955871" lon="14.927693509519338"><ele>322.0</ele><time>2026-04-25T15:43:25Z</time></trkpt><trkpt lat="40.25452451563316" lon="14.927874073054126"><ele>321.3333333333333</ele><time>2026-04-25T15:43:28Z</time></trkpt><trkpt lat="40.25446258859948" lon="14.927939915534653"><ele>320.66666666666663</ele><time>2026-04-25T15:43:29Z</time></trkpt><trkpt lat="40.25439380351347" lon="14.927972281386005"><ele>320.0</ele><time>2026-04-25T15:43:30Z</time></trkpt><trkpt lat="40.254335509153904" lon="14.928037170299717"><ele>319.3333333333333</ele><time>2026-04-25T15:43:31Z</time></trkpt><trkpt lat="40.254284565957" lon="14.928096658338857"><ele>318.6666666666667</ele><time>2026-04-25T15:43:32Z</time></trkpt><trkpt lat="40.25422399254235" lon="14.928183312863865"><ele>318.0</ele><time>2026-04-25T15:43:34Z</time></trkpt><trkpt lat="40.25417751192461" lon="14.928262480002978"><ele>318.0</ele><time>2026-04-25T15:43:36Z</time></trkpt><trkpt lat="40.25411081154199" lon="14.92838559195107"><ele>318.0</ele><time>2026-04-25T15:43:38Z</time></trkpt><trkpt lat="40.25407248418834" lon="14.928456122011038"><ele>318.0</ele><time>2026-04-25T15:43:39Z</time></trkpt><trkpt lat="40.25403395308829" lon="14.928530337215584"><ele>318.0</ele><time>2026-04-25T15:43:40Z</time></trkpt><trkpt lat="40.253976555541946" lon="14.928649471691969"><ele>318.0</ele><time>2026-04-25T15:43:42Z</time></trkpt><trkpt lat="40.25394512249215" lon="14.928725396027167"><ele>318.0</ele><time>2026-04-25T15:43:43Z</time></trkpt><trkpt lat="40.25386493682796" lon="14.92888010860404"><ele>317.4</ele><time>2026-04-25T15:43:45Z</time></trkpt><trkpt lat="40.25381921803875" lon="14.928945772181534"><ele>316.8</ele><time>2026-04-25T15:43:46Z</time></trkpt><trkpt lat="40.25373600236882" lon="14.929071784220032"><ele>316.2</ele><time>2026-04-25T15:43:48Z</time></trkpt><trkpt lat="40.253691106993735" lon="14.929163209681912"><ele>315.6</ele><time>2026-04-25T15:43:49Z</time></trkpt><trkpt lat="40.253621400833445" lon="14.92930506368802"><ele>315.0</ele><time>2026-04-25T15:43:51Z</time></trkpt><trkpt lat="40.25355379901395" lon="14.929438240939703"><ele>315.0</ele><time>2026-04-25T15:43:53Z</time></trkpt><trkpt lat="40.253504097293934" lon="14.92954980543233"><ele>315.0</ele><time>2026-04-25T15:43:55Z</time></trkpt><trkpt lat="40.25344621164096" lon="14.929662076185576"><ele>315.0</ele><time>2026-04-25T15:43:56Z</time></trkpt><trkpt lat="40.253361481580164" lon="14.92979266481487"><ele>315.0</ele><time>2026-04-25T15:43:57Z</time></trkpt><trkpt lat="40.25329053346907" lon="14.929922054647982"><ele>315.0</ele><time>2026-04-25T15:43:58Z</time></trkpt><trkpt lat="40.25324780596993" lon="14.930016911881522"><ele>315.0</ele><time>2026-04-25T15:43:59Z</time></trkpt><trkpt lat="40.253209379520804" lon="14.930102392910754"><ele>315.0</ele><time>2026-04-25T15:44:00Z</time></trkpt><trkpt lat="40.25316049793493" lon="14.930186746016537"><ele>315.0</ele><time>2026-04-25T15:44:01Z</time></trkpt><trkpt lat="40.25311679559769" lon="14.930265347561752"><ele>315.0</ele><time>2026-04-25T15:44:02Z</time></trkpt><trkpt lat="40.25308628613107" lon="14.930346643178247"><ele>315.0</ele><time>2026-04-25T15:44:03Z</time></trkpt><trkpt lat="40.25299859689608" lon="14.930483366996958"><ele>315.3333333333333</ele><time>2026-04-25T15:44:05Z</time></trkpt><trkpt lat="40.25290761521229" lon="14.930567282777735"><ele>315.6666666666667</ele><time>2026-04-25T15:44:06Z</time></trkpt><trkpt lat="40.25284167581293" lon="14.93066176765812"><ele>316.0</ele><time>2026-04-25T15:44:07Z</time></trkpt><trkpt lat="40.25279045361067" lon="14.930746395199133"><ele>316.33333333333337</ele><time>2026-04-25T15:44:08Z</time></trkpt><trkpt lat="40.25273071507675" lon="14.93078842360888"><ele>316.6666666666667</ele><time>2026-04-25T15:44:09Z</time></trkpt><trkpt lat="40.252659976969596" lon="14.93085809556762"><ele>317.0</ele><time>2026-04-25T15:44:11Z</time></trkpt><trkpt lat="40.25257949461871" lon="14.930924415164462"><ele>317.33333333333337</ele><time>2026-04-25T15:44:12Z</time></trkpt><trkpt lat="40.252492842995885" lon="14.930982070244513"><ele>317.6666666666667</ele><time>2026-04-25T15:44:13Z</time></trkpt><trkpt lat="40.252424291004836" lon="14.931033809451485"><ele>318.0</ele><time>2026-04-25T15:44:14Z</time></trkpt><trkpt lat="40.252367023742174" lon="14.931076716854992"><ele>318.3333333333333</ele><time>2026-04-25T15:44:15Z</time></trkpt><trkpt lat="40.252309295654904" lon="14.931116809477238"><ele>318.66666666666663</ele><time>2026-04-25T15:44:16Z</time></trkpt><trkpt lat="40.252224587142976" lon="14.93119558409003"><ele>319.0</ele><time>2026-04-25T15:44:17Z</time></trkpt><trkpt lat="40.2521487242772" lon="14.931273835801974"><ele>318.16666666666663</ele><time>2026-04-25T15:44:18Z</time></trkpt><trkpt lat="40.252096432339165" lon="14.931329920760971"><ele>317.3333333333333</ele><time>2026-04-25T15:44:19Z</time></trkpt><trkpt lat="40.25200640148184" lon="14.93143467817105"><ele>316.5</ele><time>2026-04-25T15:44:21Z</time></trkpt><trkpt lat="40.251965916381856" lon="14.931520327737305"><ele>315.6666666666667</ele><time>2026-04-25T15:44:22Z</time></trkpt><trkpt lat="40.25191842764467" lon="14.931582430318686"><ele>314.83333333333337</ele><time>2026-04-25T15:44:23Z</time></trkpt><trkpt lat="40.251850381937516" lon="14.931686980095947"><ele>314.0</ele><time>2026-04-25T15:44:25Z</time></trkpt><trkpt lat="40.251795005124194" lon="14.931766243491866"><ele>314.0</ele><time>2026-04-25T15:44:27Z</time></trkpt><trkpt lat="40.251707895631036" lon="14.931860877540329"><ele>314.0</ele><time>2026-04-25T15:44:29Z</time></trkpt><trkpt lat="40.251659770758664" lon="14.931920565185406"><ele>314.0</ele><time>2026-04-25T15:44:30Z</time></trkpt><trkpt lat="40.25161634753553" lon="14.931997421884741"><ele>314.0</ele><time>2026-04-25T15:44:31Z</time></trkpt><trkpt lat="40.25157602360408" lon="14.932062231476653"><ele>314.0</ele><time>2026-04-25T15:44:32Z</time></trkpt><trkpt lat="40.2515304019738" lon="14.932128241014166"><ele>314.0</ele><time>2026-04-25T15:44:33Z</time></trkpt><trkpt lat="40.251462028984456" lon="14.93224286693203"><ele>313.2</ele><time>2026-04-25T15:44:34Z</time></trkpt><trkpt lat="40.25138558177072" lon="14.932337125173515"><ele>312.4</ele><time>2026-04-25T15:44:35Z</time></trkpt><trkpt lat="40.25132615865231" lon="14.93243090880721"><ele>311.6</ele><time>2026-04-25T15:44:36Z</time></trkpt><trkpt lat="40.25126813962051" lon="14.932522476441243"><ele>310.8</ele><time>2026-04-25T15:44:37Z</time></trkpt><trkpt lat="40.25121055073621" lon="14.93261208710864"><ele>310.0</ele><time>2026-04-25T15:44:38Z</time></trkpt><trkpt lat="40.251159270951284" lon="14.932690026988775"><ele>310.0</ele><time>2026-04-25T15:44:39Z</time></trkpt><trkpt lat="40.25111144602429" lon="14.932762715771464"><ele>310.0</ele><time>2026-04-25T15:44:40Z</time></trkpt><trkpt lat="40.25105720021181" lon="14.932838258459629"><ele>310.0</ele><time>2026-04-25T15:44:41Z</time></trkpt><trkpt lat="40.25100125378508" lon="14.9328991674585"><ele>310.0</ele><time>2026-04-25T15:44:42Z</time></trkpt><trkpt lat="40.25094569461861" lon="14.932952419555"><ele>310.0</ele><time>2026-04-25T15:44:43Z</time></trkpt><trkpt lat="40.2508874740765" lon="14.933017044219536"><ele>310.0</ele><time>2026-04-25T15:44:44Z</time></trkpt><trkpt lat="40.25084604938918" lon="14.933120520972125"><ele>310.0</ele><time>2026-04-25T15:44:45Z</time></trkpt><trkpt lat="40.25079890664965" lon="14.933195030273582"><ele>310.0</ele><time>2026-04-25T15:44:46Z</time></trkpt><trkpt lat="40.25073459193032" lon="14.933317621272723"><ele>310.0</ele><time>2026-04-25T15:44:48Z</time></trkpt><trkpt lat="40.25066560820915" lon="14.933467194873336"><ele>310.0</ele><time>2026-04-25T15:44:50Z</time></trkpt><trkpt lat="40.25061867454426" lon="14.933562074961763"><ele>310.0</ele><time>2026-04-25T15:44:51Z</time></trkpt><trkpt lat="40.25056954283936" lon="14.933664544621024"><ele>308.16666666666663</ele><time>2026-04-25T15:44:52Z</time></trkpt><trkpt lat="40.2505263037422" lon="14.933760457793852"><ele>306.3333333333333</ele><time>2026-04-25T15:44:53Z</time></trkpt><trkpt lat="40.25049435989912" lon="14.933850204962493"><ele>304.5</ele><time>2026-04-25T15:44:54Z</time></trkpt><trkpt lat="40.250456454301236" lon="14.933940093462224"><ele>302.6666666666667</ele><time>2026-04-25T15:44:55Z</time></trkpt><trkpt lat="40.25040906272816" lon="14.934044616796994"><ele>300.83333333333337</ele><time>2026-04-25T15:44:56Z</time></trkpt><trkpt lat="40.25037136982561" lon="14.934141693187955"><ele>299.0</ele><time>2026-04-25T15:44:57Z</time></trkpt><trkpt lat="40.250324009977604" lon="14.934236372608753"><ele>299.0</ele><time>2026-04-25T15:44:58Z</time></trkpt><trkpt lat="40.2502773209987" lon="14.934336212264274"><ele>299.0</ele><time>2026-04-25T15:44:59Z</time></trkpt><trkpt lat="40.25024599582351" lon="14.934415971097424"><ele>299.0</ele><time>2026-04-25T15:45:00Z</time></trkpt><trkpt lat="40.25022200433491" lon="14.934507950223589"><ele>299.0</ele><time>2026-04-25T15:45:02Z</time></trkpt><trkpt lat="40.250206815783926" lon="14.934601810538476"><ele>299.0</ele><time>2026-04-25T15:45:07Z</time></trkpt><trkpt lat="40.250201716933276" lon="14.934688079841557"><ele>299.0</ele><time>2026-04-25T15:45:11.999Z</time></trkpt><trkpt lat="40.250187257635446" lon="14.93477069587672"><ele>299.0</ele><time>2026-04-25T15:45:20.999Z</time></trkpt><trkpt lat="40.25017775644971" lon="14.934855616040032"><ele>299.0</ele><time>2026-04-25T15:45:24.999Z</time></trkpt><trkpt lat="40.25015718690838" lon="14.934938982070987"><ele>299.0</ele><time>2026-04-25T15:45:28Z</time></trkpt><trkpt lat="40.250121845939574" lon="14.935027257645814"><ele>299.0</ele><time>2026-04-25T15:45:34Z</time></trkpt><trkpt lat="40.25010540891698" lon="14.935114392550298"><ele>299.0</ele><time>2026-04-25T15:45:38Z</time></trkpt><trkpt lat="40.250080290012725" lon="14.935192714170954"><ele>299.0</ele><time>2026-04-25T15:45:41Z</time></trkpt><trkpt lat="40.25003452503182" lon="14.9353652258503"><ele>299.0</ele><time>2026-04-25T15:45:44Z</time></trkpt><trkpt lat="40.25002545883425" lon="14.935470172805674"><ele>298.8</ele><time>2026-04-25T15:45:45Z</time></trkpt><trkpt lat="40.250010312058215" lon="14.935610627999566"><ele>298.59999999999997</ele><time>2026-04-25T15:45:47Z</time></trkpt><trkpt lat="40.24998466779124" lon="14.935708651533059"><ele>298.4</ele><time>2026-04-25T15:45:50Z</time></trkpt><trkpt lat="40.2499624968298" lon="14.935814430255325"><ele>298.2</ele><time>2026-04-25T15:51:31.999Z</time></trkpt><trkpt lat="40.250022509586586" lon="14.93591525608371"><ele>298.0</ele><time>2026-04-25T15:51:33.999Z</time></trkpt><trkpt lat="40.25007259521864" lon="14.936039146705777"><ele>298.0</ele><time>2026-04-25T15:51:35.999Z</time></trkpt><trkpt lat="40.250102731536735" lon="14.936144571326203"><ele>298.0</ele><time>2026-04-25T15:51:36.999Z</time></trkpt><trkpt lat="40.250140604996474" lon="14.936264889409575"><ele>298.0</ele><time>2026-04-25T15:51:37.999Z</time></trkpt><trkpt lat="40.25017373545032" lon="14.936354683115894"><ele>298.0</ele><time>2026-04-25T15:51:38.999Z</time></trkpt><trkpt lat="40.250214494409654" lon="14.936474902518619"><ele>298.0</ele><time>2026-04-25T15:51:40.999Z</time></trkpt><trkpt lat="40.25022296464257" lon="14.936588982386331"><ele>298.0</ele><time>2026-04-25T15:51:42.999Z</time></trkpt><trkpt lat="40.250220706599876" lon="14.93667969920193"><ele>297.2857142857143</ele><time>2026-04-25T15:51:43.999Z</time></trkpt><trkpt lat="40.250206691058104" lon="14.936772505818304"><ele>296.57142857142856</ele><time>2026-04-25T15:51:44.999Z</time></trkpt><trkpt lat="40.25018234130479" lon="14.936861597468992"><ele>295.85714285714283</ele><time>2026-04-25T15:51:46.001Z</time></trkpt><trkpt lat="40.250148330108686" lon="14.936941190394567"><ele>295.1428571428571</ele><time>2026-04-25T15:51:47.001Z</time></trkpt><trkpt lat="40.25011342750659" lon="14.937025102480991"><ele>294.42857142857144</ele><time>2026-04-25T15:51:48.001Z</time></trkpt><trkpt lat="40.250083309926374" lon="14.937103051727671"><ele>293.71428571428567</ele><time>2026-04-25T15:51:49.001Z</time></trkpt><trkpt lat="40.250042437053175" lon="14.937178996913847"><ele>293.0</ele><time>2026-04-25T15:51:50.001Z</time></trkpt><trkpt lat="40.249998397530774" lon="14.937258165298617"><ele>293.0</ele><time>2026-04-25T15:51:51.001Z</time></trkpt><trkpt lat="40.249955032595096" lon="14.93732576948237"><ele>293.0</ele><time>2026-04-25T15:51:52.001Z</time></trkpt><trkpt lat="40.24991257363726" lon="14.937415370098835"><ele>293.0</ele><time>2026-04-25T15:51:53.001Z</time></trkpt><trkpt lat="40.24986414275826" lon="14.937524495649692"><ele>293.0</ele><time>2026-04-25T15:51:54.001Z</time></trkpt><trkpt lat="40.24980805405814" lon="14.937635891805856"><ele>293.0</ele><time>2026-04-25T15:51:55.001Z</time></trkpt><trkpt lat="40.249753500772734" lon="14.937737876843734"><ele>293.0</ele><time>2026-04-25T15:51:56.001Z</time></trkpt><trkpt lat="40.24970209261201" lon="14.937830544857066"><ele>293.5</ele><time>2026-04-25T15:51:57.001Z</time></trkpt><trkpt lat="40.24959054588001" lon="14.938063032439606"><ele>294.0</ele><time>2026-04-25T15:51:59.001Z</time></trkpt><trkpt lat="40.24954541809445" lon="14.938170608187093"><ele>294.5</ele><time>2026-04-25T15:52:00Z</time></trkpt><trkpt lat="40.24950216312807" lon="14.938245270527819"><ele>295.0</ele><time>2026-04-25T15:52:01Z</time></trkpt><trkpt lat="40.24944214225246" lon="14.938310406552137"><ele>295.0</ele><time>2026-04-25T15:52:02Z</time></trkpt><trkpt lat="40.249372969388006" lon="14.93837070802937"><ele>295.0</ele><time>2026-04-25T15:52:03Z</time></trkpt><trkpt lat="40.24930196506855" lon="14.93842397526279"><ele>295.0</ele><time>2026-04-25T15:52:04Z</time></trkpt><trkpt lat="40.249230086244076" lon="14.938472428243582"><ele>295.0</ele><time>2026-04-25T15:52:05Z</time></trkpt><trkpt lat="40.24914640705162" lon="14.938516571083087"><ele>295.0</ele><time>2026-04-25T15:52:06Z</time></trkpt><trkpt lat="40.249084383589505" lon="14.938541853683134"><ele>295.0</ele><time>2026-04-25T15:52:07Z</time></trkpt><trkpt lat="40.2490054481467" lon="14.938608694360758"><ele>294.4</ele><time>2026-04-25T15:52:09Z</time></trkpt><trkpt lat="40.24892203202" lon="14.938710296578435"><ele>293.8</ele><time>2026-04-25T15:52:11Z</time></trkpt><trkpt lat="40.24887458551694" lon="14.938772614888572"><ele>293.2</ele><time>2026-04-25T15:52:14Z</time></trkpt><trkpt lat="40.248777986545235" lon="14.938792178647455"><ele>292.6</ele><time>2026-04-25T15:52:23Z</time></trkpt><trkpt lat="40.24870912790865" lon="14.938790970218438"><ele>292.0</ele><time>2026-04-25T15:52:24Z</time></trkpt><trkpt lat="40.248605074521045" lon="14.938818802349356"><ele>292.0</ele><time>2026-04-25T15:52:26Z</time></trkpt><trkpt lat="40.248482711262675" lon="14.938881247814892"><ele>292.0</ele><time>2026-04-25T15:52:28Z</time></trkpt><trkpt lat="40.248402070306184" lon="14.938912788406197"><ele>292.0</ele><time>2026-04-25T15:52:29Z</time></trkpt><trkpt lat="40.24832887762575" lon="14.938941702272224"><ele>292.0</ele><time>2026-04-25T15:52:30Z</time></trkpt><trkpt lat="40.248259366000475" lon="14.938969707805859"><ele>292.0</ele><time>2026-04-25T15:52:31Z</time></trkpt><trkpt lat="40.24818745513535" lon="14.939000188219968"><ele>292.0</ele><time>2026-04-25T15:52:32Z</time></trkpt><trkpt lat="40.24812316208557" lon="14.939027143557578"><ele>292.0</ele><time>2026-04-25T15:52:33Z</time></trkpt><trkpt lat="40.24799974622417" lon="14.939052646803951"><ele>292.0</ele><time>2026-04-25T15:52:35Z</time></trkpt><trkpt lat="40.24792588426321" lon="14.939087017392785"><ele>292.0</ele><time>2026-04-25T15:52:36Z</time></trkpt><trkpt lat="40.24784917465549" lon="14.939124222344235"><ele>292.0</ele><time>2026-04-25T15:52:37Z</time></trkpt><trkpt lat="40.247774162788005" lon="14.939181422530577"><ele>292.0</ele><time>2026-04-25T15:52:38Z</time></trkpt><trkpt lat="40.247708643311235" lon="14.939242950186122"><ele>290.5</ele><time>2026-04-25T15:52:39Z</time></trkpt><trkpt lat="40.24764785305323" lon="14.9393069033697"><ele>289.0</ele><time>2026-04-25T15:52:40Z</time></trkpt><trkpt lat="40.247596070499185" lon="14.939363829877655"><ele>287.5</ele><time>2026-04-25T15:52:41Z</time></trkpt><trkpt lat="40.247503797962295" lon="14.93946228143403"><ele>286.0</ele><time>2026-04-25T15:52:43Z</time></trkpt><trkpt lat="40.2474206453075" lon="14.939549398312161"><ele>284.5</ele><time>2026-04-25T15:52:45Z</time></trkpt><trkpt lat="40.24737075439327" lon="14.939602141573504"><ele>283.0</ele><time>2026-04-25T15:52:46Z</time></trkpt><trkpt lat="40.247317455606655" lon="14.939659481961684"><ele>283.0</ele><time>2026-04-25T15:52:47Z</time></trkpt><trkpt lat="40.24726784950051" lon="14.939712849600035"><ele>283.0</ele><time>2026-04-25T15:52:48Z</time></trkpt><trkpt lat="40.247218825378134" lon="14.939765591340384"><ele>283.0</ele><time>2026-04-25T15:52:49Z</time></trkpt><trkpt lat="40.24713388987415" lon="14.93985696730072"><ele>283.0</ele><time>2026-04-25T15:52:51Z</time></trkpt><trkpt lat="40.24704106614489" lon="14.939960069698316"><ele>283.0</ele><time>2026-04-25T15:52:53Z</time></trkpt><trkpt lat="40.2469418339802" lon="14.940036258551087"><ele>283.0</ele><time>2026-04-25T15:52:55Z</time></trkpt><trkpt lat="40.24684139084669" lon="14.940061417289803"><ele>283.0</ele><time>2026-04-25T15:52:57Z</time></trkpt><trkpt lat="40.24674683594041" lon="14.9400489007139"><ele>283.0</ele><time>2026-04-25T15:52:59Z</time></trkpt><trkpt lat="40.24663904245717" lon="14.940043192519424"><ele>283.0</ele><time>2026-04-25T15:53:01Z</time></trkpt><trkpt lat="40.246550284483206" lon="14.94007833901791"><ele>283.0</ele><time>2026-04-25T15:53:03Z</time></trkpt><trkpt lat="40.246446147081755" lon="14.940193404929925"><ele>278.8</ele><time>2026-04-25T15:53:05Z</time></trkpt><trkpt lat="40.246397258131324" lon="14.940251326658403"><ele>274.6</ele><time>2026-04-25T15:53:06Z</time></trkpt><trkpt lat="40.246303264001554" lon="14.940328093895753"><ele>270.4</ele><time>2026-04-25T15:53:08Z</time></trkpt><trkpt lat="40.24620290165095" lon="14.940341490518916"><ele>266.2</ele><time>2026-04-25T15:53:10Z</time></trkpt><trkpt lat="40.24608118513832" lon="14.940307517865898"><ele>262.0</ele><time>2026-04-25T15:53:12Z</time></trkpt><trkpt lat="40.24601976112209" lon="14.94027757370999"><ele>262.0</ele><time>2026-04-25T15:53:13Z</time></trkpt><trkpt lat="40.24592457681586" lon="14.940247707389634"><ele>262.0</ele><time>2026-04-25T15:53:15Z</time></trkpt><trkpt lat="40.245838527851646" lon="14.940310001481517"><ele>262.0</ele><time>2026-04-25T15:53:17Z</time></trkpt><trkpt lat="40.24584386520771" lon="14.940430424203349"><ele>262.0</ele><time>2026-04-25T15:53:18Z</time></trkpt><trkpt lat="40.24584113394221" lon="14.940520809307253"><ele>262.0</ele><time>2026-04-25T15:53:19Z</time></trkpt><trkpt lat="40.24581261213262" lon="14.940612108268141"><ele>262.0</ele><time>2026-04-25T15:53:20Z</time></trkpt><trkpt lat="40.245785724793826" lon="14.940707703579848"><ele>262.0</ele><time>2026-04-25T15:53:21Z</time></trkpt><trkpt lat="40.24575169292239" lon="14.940795294642049"><ele>262.0</ele><time>2026-04-25T15:53:22Z</time></trkpt><trkpt lat="40.24572038111476" lon="14.940878032507278"><ele>262.0</ele><time>2026-04-25T15:53:23Z</time></trkpt><trkpt lat="40.24568478256251" lon="14.940960492132406"><ele>262.0</ele><time>2026-04-25T15:53:24Z</time></trkpt><trkpt lat="40.24564343574202" lon="14.941049171054937"><ele>262.0</ele><time>2026-04-25T15:53:25Z</time></trkpt><trkpt lat="40.2455972868901" lon="14.941129941094612"><ele>262.0</ele><time>2026-04-25T15:53:26Z</time></trkpt><trkpt lat="40.245551378017964" lon="14.941207239230446"><ele>262.0</ele><time>2026-04-25T15:53:27Z</time></trkpt><trkpt lat="40.245505014104715" lon="14.941280253912264"><ele>261.5</ele><time>2026-04-25T15:53:28Z</time></trkpt><trkpt lat="40.24545779267792" lon="14.941354853229901"><ele>261.0</ele><time>2026-04-25T15:53:29Z</time></trkpt><trkpt lat="40.2454069504674" lon="14.941434455213956"><ele>260.5</ele><time>2026-04-25T15:53:30Z</time></trkpt><trkpt lat="40.24535866383345" lon="14.94151328143859"><ele>260.0</ele><time>2026-04-25T15:53:31Z</time></trkpt><trkpt lat="40.24531459211247" lon="14.941594861352723"><ele>259.5</ele><time>2026-04-25T15:53:32Z</time></trkpt><trkpt lat="40.24527595441497" lon="14.941676883198072"><ele>259.0</ele><time>2026-04-25T15:53:33Z</time></trkpt><trkpt lat="40.24524655448168" lon="14.941764990809567"><ele>255.0</ele><time>2026-04-25T15:53:34Z</time></trkpt><trkpt lat="40.245239377751446" lon="14.941857747319588"><ele>250.99999999999997</ele><time>2026-04-25T15:53:34.999Z</time></trkpt><trkpt lat="40.24521710949767" lon="14.942003036922976"><ele>246.99999999999997</ele><time>2026-04-25T15:53:36.999Z</time></trkpt><trkpt lat="40.245155734572556" lon="14.942157138306543"><ele>243.0</ele><time>2026-04-25T15:53:38.999Z</time></trkpt><trkpt lat="40.245111962699234" lon="14.942251956573784"><ele>239.0</ele><time>2026-04-25T15:53:39.999Z</time></trkpt><trkpt lat="40.245064209616146" lon="14.94235594591785"><ele>239.00000000000003</ele><time>2026-04-25T15:53:40.999Z</time></trkpt><trkpt lat="40.245022488461856" lon="14.942450710989334"><ele>239.0</ele><time>2026-04-25T15:53:41.999Z</time></trkpt><trkpt lat="40.244982311548604" lon="14.942545732202763"><ele>239.0</ele><time>2026-04-25T15:53:42.999Z</time></trkpt><trkpt lat="40.24496013362045" lon="14.942642456665979"><ele>239.0</ele><time>2026-04-25T15:53:43.999Z</time></trkpt><trkpt lat="40.24490508082951" lon="14.942723411610956"><ele>239.00000000000003</ele><time>2026-04-25T15:53:44.999Z</time></trkpt><trkpt lat="40.24486133446156" lon="14.942807004312375"><ele>239.0</ele><time>2026-04-25T15:53:45.999Z</time></trkpt><trkpt lat="40.244815470015624" lon="14.942899137882424"><ele>239.33333333333334</ele><time>2026-04-25T15:53:46.999Z</time></trkpt><trkpt lat="40.24477663623447" lon="14.942985273059628"><ele>239.66666666666669</ele><time>2026-04-25T15:53:47.999Z</time></trkpt><trkpt lat="40.244734765386674" lon="14.94307893633247"><ele>240.0</ele><time>2026-04-25T15:53:48.999Z</time></trkpt><trkpt lat="40.24469295040644" lon="14.943175459346348"><ele>240.33333333333331</ele><time>2026-04-25T15:53:49.999Z</time></trkpt><trkpt lat="40.244659129259155" lon="14.94326734649613"><ele>240.66666666666666</ele><time>2026-04-25T15:53:50.999Z</time></trkpt><trkpt lat="40.24464824815758" lon="14.943375708884513"><ele>241.0</ele><time>2026-04-25T15:53:52Z</time></trkpt><trkpt lat="40.24461890073619" lon="14.943480026225327"><ele>237.83333333333331</ele><time>2026-04-25T15:53:53Z</time></trkpt><trkpt lat="40.24459689142064" lon="14.943579881878021"><ele>234.66666666666666</ele><time>2026-04-25T15:53:54Z</time></trkpt><trkpt lat="40.24458007837819" lon="14.943681842319995"><ele>231.5</ele><time>2026-04-25T15:53:55Z</time></trkpt><trkpt lat="40.24453638965525" lon="14.94376705896907"><ele>228.33333333333331</ele><time>2026-04-25T15:53:56Z</time></trkpt><trkpt lat="40.244517433006216" lon="14.943872955659122"><ele>225.16666666666666</ele><time>2026-04-25T15:53:57Z</time></trkpt><trkpt lat="40.244466600065095" lon="14.943962756603987"><ele>222.0</ele><time>2026-04-25T15:53:58Z</time></trkpt><trkpt lat="40.244397768825245" lon="14.944026004858387"><ele>222.0</ele><time>2026-04-25T15:53:59Z</time></trkpt><trkpt lat="40.24435975740549" lon="14.944118361427762"><ele>222.0</ele><time>2026-04-25T15:54:00Z</time></trkpt><trkpt lat="40.244328445001905" lon="14.944215713491866"><ele>222.0</ele><time>2026-04-25T15:54:01Z</time></trkpt><trkpt lat="40.244317714983225" lon="14.944335767277678"><ele>222.0</ele><time>2026-04-25T15:54:02Z</time></trkpt><trkpt lat="40.24426363272332" lon="14.94442223549757"><ele>222.0</ele><time>2026-04-25T15:54:03Z</time></trkpt><trkpt lat="40.244242952602995" lon="14.94454056188808"><ele>222.0</ele><time>2026-04-25T15:54:04Z</time></trkpt><trkpt lat="40.24419174408417" lon="14.944629010151775"><ele>219.28571428571428</ele><time>2026-04-25T15:54:05Z</time></trkpt><trkpt lat="40.24415049200238" lon="14.944715798399237"><ele>216.57142857142858</ele><time>2026-04-25T15:54:06Z</time></trkpt><trkpt lat="40.24411982446353" lon="14.944803102217072"><ele>213.85714285714286</ele><time>2026-04-25T15:54:07Z</time></trkpt><trkpt lat="40.24408000796799" lon="14.9448810886802"><ele>211.14285714285714</ele><time>2026-04-25T15:54:08Z</time></trkpt><trkpt lat="40.24405524626183" lon="14.944962925223747"><ele>208.42857142857144</ele><time>2026-04-25T15:54:09Z</time></trkpt><trkpt lat="40.24403824082494" lon="14.94504544183977"><ele>205.71428571428572</ele><time>2026-04-25T15:54:10Z</time></trkpt><trkpt lat="40.244032886083744" lon="14.945133914434344"><ele>203.0</ele><time>2026-04-25T15:54:11Z</time></trkpt><trkpt lat="40.24401772398267" lon="14.94522575941019"><ele>203.33333333333334</ele><time>2026-04-25T15:54:12Z</time></trkpt><trkpt lat="40.24398281642161" lon="14.945317005125741"><ele>203.66666666666669</ele><time>2026-04-25T15:54:13Z</time></trkpt><trkpt lat="40.24395967887008" lon="14.945416324084803"><ele>204.0</ele><time>2026-04-25T15:54:14Z</time></trkpt><trkpt lat="40.24393866884663" lon="14.945507109466607"><ele>204.33333333333331</ele><time>2026-04-25T15:54:15Z</time></trkpt><trkpt lat="40.24392609808954" lon="14.945604807399107"><ele>204.66666666666666</ele><time>2026-04-25T15:54:16Z</time></trkpt><trkpt lat="40.243906877602804" lon="14.94570346209533"><ele>205.0</ele><time>2026-04-25T15:54:17Z</time></trkpt><trkpt lat="40.24387027081202" lon="14.945799688786852"><ele>202.83333333333331</ele><time>2026-04-25T15:54:18Z</time></trkpt><trkpt lat="40.24384084274726" lon="14.945890894755129"><ele>200.66666666666666</ele><time>2026-04-25T15:54:19Z</time></trkpt><trkpt lat="40.2438014173095" lon="14.945985617285835"><ele>198.5</ele><time>2026-04-25T15:54:20Z</time></trkpt><trkpt lat="40.24376074092933" lon="14.946085939495001"><ele>196.33333333333331</ele><time>2026-04-25T15:54:21Z</time></trkpt><trkpt lat="40.24372148995505" lon="14.946182746105094"><ele>194.16666666666666</ele><time>2026-04-25T15:54:22Z</time></trkpt><trkpt lat="40.24368730421963" lon="14.946284717181424"><ele>192.0</ele><time>2026-04-25T15:54:23Z</time></trkpt><trkpt lat="40.24367442755454" lon="14.946391690522141"><ele>192.0</ele><time>2026-04-25T15:54:24Z</time></trkpt><trkpt lat="40.243652415391935" lon="14.946490310084702"><ele>192.0</ele><time>2026-04-25T15:54:25Z</time></trkpt><trkpt lat="40.24363942490092" lon="14.946593911940216"><ele>192.0</ele><time>2026-04-25T15:54:26Z</time></trkpt><trkpt lat="40.24363083597509" lon="14.946692698562034"><ele>192.0</ele><time>2026-04-25T15:54:27Z</time></trkpt><trkpt lat="40.24361441351556" lon="14.94680780387728"><ele>192.0</ele><time>2026-04-25T15:54:28Z</time></trkpt><trkpt lat="40.243596670809595" lon="14.946929997806302"><ele>192.0</ele><time>2026-04-25T15:54:29Z</time></trkpt><trkpt lat="40.24357069507698" lon="14.947071856464966"><ele>189.39999999999998</ele><time>2026-04-25T15:54:30Z</time></trkpt><trkpt lat="40.243538810178485" lon="14.947212057148635"><ele>186.79999999999998</ele><time>2026-04-25T15:54:31Z</time></trkpt><trkpt lat="40.24348927694456" lon="14.947346742017436"><ele>184.2</ele><time>2026-04-25T15:54:32Z</time></trkpt><trkpt lat="40.24346772064596" lon="14.947494072332754"><ele>181.6</ele><time>2026-04-25T15:54:33Z</time></trkpt><trkpt lat="40.24343143333046" lon="14.947627710427492"><ele>179.0</ele><time>2026-04-25T15:54:34Z</time></trkpt><trkpt lat="40.24338568372763" lon="14.947760728647873"><ele>176.39999999999998</ele><time>2026-04-25T15:54:35Z</time></trkpt><trkpt lat="40.24335787531601" lon="14.94788337289693"><ele>173.8</ele><time>2026-04-25T15:54:36Z</time></trkpt><trkpt lat="40.24334484591571" lon="14.948004714680083"><ele>171.2</ele><time>2026-04-25T15:54:37Z</time></trkpt><trkpt lat="40.243324501316124" lon="14.948126803103676"><ele>168.60000000000002</ele><time>2026-04-25T15:54:38Z</time></trkpt><trkpt lat="40.24331429230199" lon="14.948236968647269"><ele>166.0</ele><time>2026-04-25T15:54:39Z</time></trkpt><trkpt lat="40.243318435298804" lon="14.948352705473823"><ele>164.0</ele><time>2026-04-25T15:54:40Z</time></trkpt><trkpt lat="40.24332029826797" lon="14.948459200977647"><ele>162.0</ele><time>2026-04-25T15:54:41Z</time></trkpt><trkpt lat="40.24331667017443" lon="14.948570759218834"><ele>160.0</ele><time>2026-04-25T15:54:42Z</time></trkpt><trkpt lat="40.24331118606246" lon="14.94869228885396"><ele>158.0</ele><time>2026-04-25T15:54:43Z</time></trkpt><trkpt lat="40.24330329661092" lon="14.948814755999656"><ele>156.0</ele><time>2026-04-25T15:54:44Z</time></trkpt><trkpt lat="40.243285349016595" lon="14.94892196712561"><ele>154.0</ele><time>2026-04-25T15:54:45Z</time></trkpt><trkpt lat="40.243265441173456" lon="14.949017819386416"><ele>154.0</ele><time>2026-04-25T15:54:46Z</time></trkpt><trkpt lat="40.24324936352818" lon="14.949099653115121"><ele>154.0</ele><time>2026-04-25T15:54:47Z</time></trkpt><trkpt lat="40.243212253956024" lon="14.949243313093104"><ele>154.0</ele><time>2026-04-25T15:54:49Z</time></trkpt><trkpt lat="40.2431884308984" lon="14.949370804599353"><ele>154.0</ele><time>2026-04-25T15:54:51Z</time></trkpt><trkpt lat="40.24317515369444" lon="14.949477989582766"><ele>154.0</ele><time>2026-04-25T15:54:52Z</time></trkpt><trkpt lat="40.243159623071506" lon="14.949599088199234"><ele>153.83333333333334</ele><time>2026-04-25T15:54:53Z</time></trkpt><trkpt lat="40.24314951963991" lon="14.949718029827878"><ele>153.66666666666669</ele><time>2026-04-25T15:54:54Z</time></trkpt><trkpt lat="40.243140803488764" lon="14.949825564671661"><ele>153.5</ele><time>2026-04-25T15:54:55Z</time></trkpt><trkpt lat="40.24312918748212" lon="14.94992640243467"><ele>153.33333333333334</ele><time>2026-04-25T15:54:56Z</time></trkpt><trkpt lat="40.243123468356" lon="14.95002166218775"><ele>153.16666666666666</ele><time>2026-04-25T15:54:57Z</time></trkpt><trkpt lat="40.24311177154463" lon="14.950118064750338"><ele>153.0</ele><time>2026-04-25T15:54:58Z</time></trkpt><trkpt lat="40.24310097308163" lon="14.950231524306265"><ele>153.0</ele><time>2026-04-25T15:54:59Z</time></trkpt><trkpt lat="40.24311535686164" lon="14.950349712176186"><ele>153.0</ele><time>2026-04-25T15:55:00Z</time></trkpt><trkpt lat="40.243116146312154" lon="14.950454789919071"><ele>153.0</ele><time>2026-04-25T15:55:01Z</time></trkpt><trkpt lat="40.24310326244249" lon="14.95056760500164"><ele>153.0</ele><time>2026-04-25T15:55:02Z</time></trkpt><trkpt lat="40.243106273332344" lon="14.950681980095807"><ele>153.0</ele><time>2026-04-25T15:55:03Z</time></trkpt><trkpt lat="40.243108468429945" lon="14.950793733426757"><ele>153.0</ele><time>2026-04-25T15:55:04Z</time></trkpt><trkpt lat="40.243111129004056" lon="14.950892424266273"><ele>150.5</ele><time>2026-04-25T15:55:05Z</time></trkpt><trkpt lat="40.243113955500654" lon="14.950991557133271"><ele>148.0</ele><time>2026-04-25T15:55:06Z</time></trkpt><trkpt lat="40.24309920183851" lon="14.951101248343894"><ele>145.5</ele><time>2026-04-25T15:55:07Z</time></trkpt><trkpt lat="40.24308489839246" lon="14.95122130268738"><ele>143.0</ele><time>2026-04-25T15:55:08Z</time></trkpt><trkpt lat="40.243064372719644" lon="14.951335184155765"><ele>140.5</ele><time>2026-04-25T15:55:09Z</time></trkpt><trkpt lat="40.24302154598564" lon="14.951439577680768"><ele>138.0</ele><time>2026-04-25T15:55:10Z</time></trkpt><trkpt lat="40.24301159020405" lon="14.951554997610973"><ele>138.0</ele><time>2026-04-25T15:55:11Z</time></trkpt><trkpt lat="40.242987686597964" lon="14.951671596539143"><ele>138.0</ele><time>2026-04-25T15:55:12Z</time></trkpt><trkpt lat="40.24295357386104" lon="14.951784944489992"><ele>138.0</ele><time>2026-04-25T15:55:13Z</time></trkpt><trkpt lat="40.242931607940626" lon="14.951899238166668"><ele>138.0</ele><time>2026-04-25T15:55:14Z</time></trkpt><trkpt lat="40.242926235228666" lon="14.95200631227047"><ele>138.0</ele><time>2026-04-25T15:55:15Z</time></trkpt><trkpt lat="40.24290416756591" lon="14.952103816317681"><ele>138.0</ele><time>2026-04-25T15:55:16Z</time></trkpt><trkpt lat="40.24288760964689" lon="14.952190437882093"><ele>135.33333333333334</ele><time>2026-04-25T15:55:17Z</time></trkpt><trkpt lat="40.242877503266456" lon="14.952278711000947"><ele>132.66666666666666</ele><time>2026-04-25T15:55:18Z</time></trkpt><trkpt lat="40.24285051225259" lon="14.952365535739986"><ele>130.0</ele><time>2026-04-25T15:55:19Z</time></trkpt><trkpt lat="40.24279576842252" lon="14.95244838952252"><ele>127.33333333333333</ele><time>2026-04-25T15:55:20Z</time></trkpt><trkpt lat="40.24275603245232" lon="14.952554066441547"><ele>124.66666666666666</ele><time>2026-04-25T15:55:21Z</time></trkpt><trkpt lat="40.24271285648462" lon="14.952665051258874"><ele>122.0</ele><time>2026-04-25T15:55:22Z</time></trkpt><trkpt lat="40.24266794667822" lon="14.952771222197764"><ele>118.66666666666666</ele><time>2026-04-25T15:55:23Z</time></trkpt><trkpt lat="40.242622156771276" lon="14.95287809234619"><ele>115.33333333333333</ele><time>2026-04-25T15:55:24Z</time></trkpt><trkpt lat="40.24257788538317" lon="14.952972689685309"><ele>112.0</ele><time>2026-04-25T15:55:25Z</time></trkpt><trkpt lat="40.24252059544594" lon="14.953050589069182"><ele>108.66666666666666</ele><time>2026-04-25T15:55:26Z</time></trkpt><trkpt lat="40.24248619363388" lon="14.953139690235366"><ele>105.33333333333333</ele><time>2026-04-25T15:55:27Z</time></trkpt><trkpt lat="40.242465481579934" lon="14.95322659648066"><ele>102.0</ele><time>2026-04-25T15:55:28Z</time></trkpt><trkpt lat="40.24242115782853" lon="14.953297604875617"><ele>100.16666666666667</ele><time>2026-04-25T15:55:29Z</time></trkpt><trkpt lat="40.24239241355077" lon="14.95338387070134"><ele>98.33333333333333</ele><time>2026-04-25T15:55:30Z</time></trkpt><trkpt lat="40.24234802246998" lon="14.953444806354828"><ele>96.5</ele><time>2026-04-25T15:55:31Z</time></trkpt><trkpt lat="40.24231566971591" lon="14.95352740160146"><ele>94.66666666666666</ele><time>2026-04-25T15:55:32Z</time></trkpt><trkpt lat="40.24229221470235" lon="14.953617741761619"><ele>92.83333333333333</ele><time>2026-04-25T15:55:33Z</time></trkpt><trkpt lat="40.24227928120402" lon="14.95370554805975"><ele>91.0</ele><time>2026-04-25T15:55:33.999Z</time></trkpt><trkpt lat="40.242314391944234" lon="14.95385752952316"><ele>91.0</ele><time>2026-04-25T15:55:35.999Z</time></trkpt><trkpt lat="40.242322966775376" lon="14.953948056106762"><ele>91.0</ele><time>2026-04-25T15:55:36.999Z</time></trkpt><trkpt lat="40.24232677098021" lon="14.954031670800948"><ele>91.0</ele><time>2026-04-25T15:55:37.999Z</time></trkpt><trkpt lat="40.24230278258768" lon="14.954165585363379"><ele>91.0</ele><time>2026-04-25T15:55:39.999Z</time></trkpt><trkpt lat="40.24226702450929" lon="14.954248536942902"><ele>91.0</ele><time>2026-04-25T15:55:40.999Z</time></trkpt><trkpt lat="40.24222277554842" lon="14.954348357766126"><ele>91.0</ele><time>2026-04-25T15:55:41.999Z</time></trkpt><trkpt lat="40.242175238771516" lon="14.954440298903638"><ele>91.4</ele><time>2026-04-25T15:55:42.999Z</time></trkpt><trkpt lat="40.242128165565646" lon="14.954528848590712"><ele>91.8</ele><time>2026-04-25T15:55:43.999Z</time></trkpt><trkpt lat="40.24207884799448" lon="14.954622194640583"><ele>92.2</ele><time>2026-04-25T15:55:44.999Z</time></trkpt><trkpt lat="40.242031778696436" lon="14.95472879710686"><ele>92.60000000000001</ele><time>2026-04-25T15:55:45.999Z</time></trkpt><trkpt lat="40.24198890681043" lon="14.95483994484604"><ele>93.0</ele><time>2026-04-25T15:55:46.999Z</time></trkpt><trkpt lat="40.241940368920716" lon="14.95494639786347"><ele>90.16666666666667</ele><time>2026-04-25T15:55:47.999Z</time></trkpt><trkpt lat="40.24189304466747" lon="14.955052204675805"><ele>87.33333333333333</ele><time>2026-04-25T15:55:48.999Z</time></trkpt><trkpt lat="40.24185563951869" lon="14.955149208674888"><ele>84.5</ele><time>2026-04-25T15:55:49.999Z</time></trkpt><trkpt lat="40.24181698839476" lon="14.955246616033076"><ele>81.66666666666666</ele><time>2026-04-25T15:55:50.999Z</time></trkpt><trkpt lat="40.24177378500683" lon="14.955334067809964"><ele>78.83333333333333</ele><time>2026-04-25T15:55:51.999Z</time></trkpt><trkpt lat="40.24172271736478" lon="14.955409362106703"><ele>76.0</ele><time>2026-04-25T15:55:52.999Z</time></trkpt><trkpt lat="40.2416713003878" lon="14.955484799641301"><ele>76.0</ele><time>2026-04-25T15:55:53.999Z</time></trkpt><trkpt lat="40.24162102498767" lon="14.955558561852667"><ele>76.0</ele><time>2026-04-25T15:55:54.999Z</time></trkpt><trkpt lat="40.241574712567854" lon="14.955697638693298"><ele>76.0</ele><time>2026-04-25T15:55:56.999Z</time></trkpt><trkpt lat="40.241570612519496" lon="14.955840899959558"><ele>76.0</ele><time>2026-04-25T15:55:59Z</time></trkpt><trkpt lat="40.24159315851233" lon="14.955992348613883"><ele>76.0</ele><time>2026-04-25T15:56:01Z</time></trkpt><trkpt lat="40.24161751699564" lon="14.956102209549933"><ele>74.16666666666666</ele><time>2026-04-25T15:56:02Z</time></trkpt><trkpt lat="40.241632319577086" lon="14.956215148964937"><ele>72.33333333333333</ele><time>2026-04-25T15:56:03Z</time></trkpt><trkpt lat="40.24165410309999" lon="14.956316840695642"><ele>70.5</ele><time>2026-04-25T15:56:04Z</time></trkpt><trkpt lat="40.241674767010586" lon="14.956417997411156"><ele>68.66666666666667</ele><time>2026-04-25T15:56:05Z</time></trkpt><trkpt lat="40.24167402336031" lon="14.956526551445146"><ele>66.83333333333334</ele><time>2026-04-25T15:56:06Z</time></trkpt><trkpt lat="40.241653172214924" lon="14.956637325706497"><ele>65.0</ele><time>2026-04-25T15:56:07Z</time></trkpt><trkpt lat="40.24160438627402" lon="14.956733211106648"><ele>64.4</ele><time>2026-04-25T15:56:08Z</time></trkpt><trkpt lat="40.24154047066012" lon="14.956792108297183"><ele>63.8</ele><time>2026-04-25T15:56:09Z</time></trkpt><trkpt lat="40.241475613294824" lon="14.95689240584929"><ele>63.2</ele><time>2026-04-25T15:56:10Z</time></trkpt><trkpt lat="40.241404253400354" lon="14.957000832883471"><ele>62.6</ele><time>2026-04-25T15:56:11Z</time></trkpt><trkpt lat="40.241324557193145" lon="14.957113690129843"><ele>62.0</ele><time>2026-04-25T15:56:12Z</time></trkpt><trkpt lat="40.24125049445009" lon="14.957214881733346"><ele>62.0</ele><time>2026-04-25T15:56:13Z</time></trkpt><trkpt lat="40.2411835772462" lon="14.957305952740901"><ele>62.0</ele><time>2026-04-25T15:56:14Z</time></trkpt><trkpt lat="40.24111771638837" lon="14.957398250823495"><ele>62.0</ele><time>2026-04-25T15:56:15Z</time></trkpt><trkpt lat="40.24105865160924" lon="14.95748120329978"><ele>62.0</ele><time>2026-04-25T15:56:16Z</time></trkpt><trkpt lat="40.240999079278645" lon="14.95754591576077"><ele>62.0</ele><time>2026-04-25T15:56:17Z</time></trkpt><trkpt lat="40.24088809310258" lon="14.957629855336409"><ele>58.833333333333336</ele><time>2026-04-25T15:56:19Z</time></trkpt><trkpt lat="40.24081651289123" lon="14.957685745477253"><ele>55.66666666666667</ele><time>2026-04-25T15:56:21Z</time></trkpt><trkpt lat="40.240870045980785" lon="14.95779218365076"><ele>52.5</ele><time>2026-04-25T15:56:23Z</time></trkpt><trkpt lat="40.24093278025041" lon="14.957770577215124"><ele>49.333333333333336</ele><time>2026-04-25T15:56:26Z</time></trkpt><trkpt lat="40.24101645569365" lon="14.957738555519898"><ele>46.16666666666667</ele><time>2026-04-25T15:56:27Z</time></trkpt><trkpt lat="40.24111191055965" lon="14.957688122282564"><ele>43.0</ele><time>2026-04-25T15:56:28Z</time></trkpt><trkpt lat="40.24120647539377" lon="14.957643282689956"><ele>43.0</ele><time>2026-04-25T15:56:29Z</time></trkpt><trkpt lat="40.24127969470824" lon="14.957611671211335"><ele>43.0</ele><time>2026-04-25T15:56:30Z</time></trkpt><trkpt lat="40.24135094282084" lon="14.957585454577552"><ele>43.0</ele><time>2026-04-25T15:56:31Z</time></trkpt><trkpt lat="40.24144931030101" lon="14.957558623456675"><ele>43.0</ele><time>2026-04-25T15:56:33Z</time></trkpt><trkpt lat="40.24157349009386" lon="14.957522631740051"><ele>43.0</ele><time>2026-04-25T15:56:35Z</time></trkpt><trkpt lat="40.24163544800621" lon="14.957500267347017"><ele>43.0</ele><time>2026-04-25T15:56:36Z</time></trkpt><trkpt lat="40.24170952160658" lon="14.957470679054891"><ele>43.5</ele><time>2026-04-25T15:56:37Z</time></trkpt><trkpt lat="40.24177620851856" lon="14.957443379130671"><ele>44.0</ele><time>2026-04-25T15:56:38Z</time></trkpt><trkpt lat="40.24188104481807" lon="14.957394095287444"><ele>44.5</ele><time>2026-04-25T15:56:40Z</time></trkpt><trkpt lat="40.24195775132158" lon="14.957391462002546"><ele>45.0</ele><time>2026-04-25T15:56:42Z</time></trkpt><trkpt lat="40.242009757862476" lon="14.957505949731562"><ele>45.5</ele><time>2026-04-25T15:56:44Z</time></trkpt><trkpt lat="40.241960752437414" lon="14.957601982566436"><ele>46.0</ele><time>2026-04-25T15:56:45Z</time></trkpt><trkpt lat="40.24187465694995" lon="14.95767072548223"><ele>43.833333333333336</ele><time>2026-04-25T15:56:47Z</time></trkpt><trkpt lat="40.241820584369684" lon="14.957764991369405"><ele>41.66666666666667</ele><time>2026-04-25T15:56:48Z</time></trkpt><trkpt lat="40.24176944500458" lon="14.957849707061968"><ele>39.5</ele><time>2026-04-25T15:56:49Z</time></trkpt><trkpt lat="40.24172155014545" lon="14.95793289240832"><ele>37.333333333333336</ele><time>2026-04-25T15:56:50Z</time></trkpt><trkpt lat="40.24168510804696" lon="14.958001086228414"><ele>35.166666666666664</ele><time>2026-04-25T15:56:51Z</time></trkpt><trkpt lat="40.24163286178377" lon="14.958119753436849"><ele>33.0</ele><time>2026-04-25T15:56:53Z</time></trkpt><trkpt lat="40.24159643739832" lon="14.958250518764153"><ele>31.5</ele><time>2026-04-25T15:56:55Z</time></trkpt><trkpt lat="40.241576666378606" lon="14.958390812268403"><ele>30.0</ele><time>2026-04-25T15:56:57Z</time></trkpt><trkpt lat="40.24156613520088" lon="14.958474220102215"><ele>28.5</ele><time>2026-04-25T15:56:58Z</time></trkpt><trkpt lat="40.24155513558504" lon="14.958562962766822"><ele>27.0</ele><time>2026-04-25T15:56:59Z</time></trkpt><trkpt lat="40.24154241775941" lon="14.958654761544244"><ele>25.5</ele><time>2026-04-25T15:57:00Z</time></trkpt><trkpt lat="40.24152566489211" lon="14.958755130805121"><ele>24.0</ele><time>2026-04-25T15:57:01Z</time></trkpt><trkpt lat="40.24150899645764" lon="14.958845640419977"><ele>24.0</ele><time>2026-04-25T15:57:02Z</time></trkpt><trkpt lat="40.24152016973071" lon="14.95893406819554"><ele>24.0</ele><time>2026-04-25T15:57:03Z</time></trkpt><trkpt lat="40.24146993958666" lon="14.959066418702214"><ele>24.0</ele><time>2026-04-25T15:57:05Z</time></trkpt><trkpt lat="40.24138724589043" lon="14.959197203712234"><ele>24.0</ele><time>2026-04-25T15:57:07Z</time></trkpt><trkpt lat="40.24134956236531" lon="14.959274828368216"><ele>24.0</ele><time>2026-04-25T15:57:08Z</time></trkpt><trkpt lat="40.2412895743719" lon="14.959396037013542"><ele>22.0</ele><time>2026-04-25T15:57:10Z</time></trkpt><trkpt lat="40.24124050104603" lon="14.959500761728917"><ele>20.0</ele><time>2026-04-25T15:57:12Z</time></trkpt><trkpt lat="40.24121139786398" lon="14.959590455205063"><ele>18.0</ele><time>2026-04-25T15:57:14Z</time></trkpt><trkpt lat="40.241212528881356" lon="14.959688384457529"><ele>16.0</ele><time>2026-04-25T15:57:18Z</time></trkpt><trkpt lat="40.24133879643386" lon="14.95955729838167"><ele>14.0</ele><time>2026-04-25T15:58:38Z</time></trkpt><trkpt lat="40.24139678845327" lon="14.959476015414616"><ele>14.0</ele><time>2026-04-25T15:58:39Z</time></trkpt><trkpt lat="40.24145919095564" lon="14.959385578432684"><ele>13.999999999999998</ele><time>2026-04-25T15:58:40Z</time></trkpt><trkpt lat="40.24153518908856" lon="14.959274708220281"><ele>13.999999999999998</ele><time>2026-04-25T15:58:41Z</time></trkpt><trkpt lat="40.24160611696926" lon="14.959186579522601"><ele>14.0</ele><time>2026-04-25T15:58:42Z</time></trkpt><trkpt lat="40.24167484093458" lon="14.959121784446838"><ele>14.0</ele><time>2026-04-25T15:58:43Z</time></trkpt><trkpt lat="40.24174151530205" lon="14.959069710310539"><ele>14.000000000000002</ele><time>2026-04-25T15:58:44Z</time></trkpt><trkpt lat="40.24181350587974" lon="14.95901468706178"><ele>14.0</ele><time>2026-04-25T15:58:46Z</time></trkpt><trkpt lat="40.24174229431531" lon="14.959063502958292"><ele>14.0</ele><time>2026-04-25T15:58:57Z</time></trkpt><trkpt lat="40.24167438126417" lon="14.959119358647321"><ele>14.0</ele><time>2026-04-25T15:58:58Z</time></trkpt><trkpt lat="40.24160694708562" lon="14.959178139438626"><ele>14.000000000000002</ele><time>2026-04-25T15:58:59Z</time></trkpt><trkpt lat="40.24151838079718" lon="14.959224586627155"><ele>14.0</ele><time>2026-04-25T15:59:00Z</time></trkpt><trkpt lat="40.24144723905718" lon="14.959315672472963"><ele>14.000000000000002</ele><time>2026-04-25T15:59:01Z</time></trkpt><trkpt lat="40.24137781097148" lon="14.95941284130311"><ele>14.0</ele><time>2026-04-25T15:59:02Z</time></trkpt><trkpt lat="40.241312713693304" lon="14.959498632419853"><ele>14.0</ele><time>2026-04-25T15:59:03Z</time></trkpt><trkpt lat="40.24125409062237" lon="14.959569165699154"><ele>14.0</ele><time>2026-04-25T15:59:04Z</time></trkpt><trkpt lat="40.24119775756341" lon="14.959636943278628"><ele>14.000000000000002</ele><time>2026-04-25T15:59:05Z</time></trkpt><trkpt lat="40.24114408332811" lon="14.959700981488094"><ele>14.0</ele><time>2026-04-25T15:59:06Z</time></trkpt><trkpt lat="40.24108971979427" lon="14.959756287190787"><ele>14.000000000000002</ele><time>2026-04-25T15:59:07Z</time></trkpt><trkpt lat="40.241008974099415" lon="14.9598142145169"><ele>14.0</ele><time>2026-04-25T15:59:09Z</time></trkpt><trkpt lat="40.24094706530087" lon="14.959833600395932"><ele>14.0</ele><time>2026-04-25T15:59:11Z</time></trkpt><trkpt lat="40.240858883039934" lon="14.959877323905408"><ele>14.0</ele><time>2026-04-25T15:59:14Z</time></trkpt><trkpt lat="40.24080489742496" lon="14.959954054723742"><ele>14.000000000000002</ele><time>2026-04-25T15:59:16Z</time></trkpt><trkpt lat="40.24075527645319" lon="14.960034903939578"><ele>14.0</ele><time>2026-04-25T15:59:19Z</time></trkpt><trkpt lat="40.24081906019255" lon="14.960180059809097"><ele>13.0</ele><time>2026-04-25T15:59:22Z</time></trkpt><trkpt lat="40.24089081402226" lon="14.960241516882657"><ele>12.0</ele><time>2026-04-25T15:59:23Z</time></trkpt><trkpt lat="40.240979851127825" lon="14.960331280388159"><ele>11.0</ele><time>2026-04-25T15:59:24Z</time></trkpt><trkpt lat="40.2410779126276" lon="14.960447669798192"><ele>10.0</ele><time>2026-04-25T15:59:25Z</time></trkpt><trkpt lat="40.241180424030155" lon="14.960574398743132"><ele>10.0</ele><time>2026-04-25T15:59:26Z</time></trkpt><trkpt lat="40.241280501791756" lon="14.960688412386686"><ele>10.0</ele><time>2026-04-25T15:59:27Z</time></trkpt><trkpt lat="40.241365417752554" lon="14.960783656987935"><ele>10.0</ele><time>2026-04-25T15:59:28Z</time></trkpt><trkpt lat="40.2414432639566" lon="14.960870323073184"><ele>10.0</ele><time>2026-04-25T15:59:29Z</time></trkpt><trkpt lat="40.24152578294387" lon="14.960953547896876"><ele>10.5</ele><time>2026-04-25T15:59:30Z</time></trkpt><trkpt lat="40.24162998135127" lon="14.96100674310192"><ele>11.0</ele><time>2026-04-25T15:59:31Z</time></trkpt><trkpt lat="40.24176953030027" lon="14.961024790470683"><ele>11.5</ele><time>2026-04-25T15:59:32Z</time></trkpt><trkpt lat="40.24192282256341" lon="14.961018894198016"><ele>12.0</ele><time>2026-04-25T15:59:33Z</time></trkpt><trkpt lat="40.242071299144115" lon="14.961012812828121"><ele>12.0</ele><time>2026-04-25T15:59:34Z</time></trkpt><trkpt lat="40.242226098772676" lon="14.961018623795647"><ele>12.0</ele><time>2026-04-25T15:59:35Z</time></trkpt><trkpt lat="40.242364872709466" lon="14.961021004456391"><ele>12.0</ele><time>2026-04-25T15:59:36Z</time></trkpt><trkpt lat="40.24249446123642" lon="14.961018264227265"><ele>12.0</ele><time>2026-04-25T15:59:37Z</time></trkpt><trkpt lat="40.24261569582845" lon="14.96102285810331"><ele>12.333333333333334</ele><time>2026-04-25T15:59:38Z</time></trkpt><trkpt lat="40.24272817051669" lon="14.96103333372162"><ele>12.666666666666668</ele><time>2026-04-25T15:59:39Z</time></trkpt><trkpt lat="40.24281913098151" lon="14.961050970524786"><ele>13.0</ele><time>2026-04-25T15:59:40Z</time></trkpt><trkpt lat="40.242884542826936" lon="14.96108630299947"><ele>13.333333333333334</ele><time>2026-04-25T15:59:41Z</time></trkpt><trkpt lat="40.242935502695914" lon="14.96114894618087"><ele>13.666666666666668</ele><time>2026-04-25T15:59:42Z</time></trkpt><trkpt lat="40.242969941259844" lon="14.961224120823198"><ele>14.0</ele><time>2026-04-25T15:59:43Z</time></trkpt><trkpt lat="40.24303022136282" lon="14.961308669815967"><ele>14.0</ele><time>2026-04-25T15:59:45Z</time></trkpt><trkpt lat="40.24291125490355" lon="14.961437599303801"><ele>14.0</ele><time>2026-04-25T15:59:47Z</time></trkpt><trkpt lat="40.242827276453276" lon="14.961532130344102"><ele>14.0</ele><time>2026-04-25T15:59:47.999Z</time></trkpt><trkpt lat="40.242717136266556" lon="14.961656109859682"><ele>14.0</ele><time>2026-04-25T15:59:48.999Z</time></trkpt><trkpt lat="40.242600745754395" lon="14.96178636895045"><ele>13.25</ele><time>2026-04-25T15:59:49.999Z</time></trkpt><trkpt lat="40.24249326442261" lon="14.961905714227173"><ele>12.5</ele><time>2026-04-25T15:59:50.999Z</time></trkpt><trkpt lat="40.24238456166362" lon="14.962026415709229"><ele>11.75</ele><time>2026-04-25T15:59:51.999Z</time></trkpt><trkpt lat="40.242276178085625" lon="14.962146762745723"><ele>11.0</ele><time>2026-04-25T15:59:52.999Z</time></trkpt><trkpt lat="40.2421704970231" lon="14.962264110858586"><ele>11.0</ele><time>2026-04-25T15:59:53.999Z</time></trkpt><trkpt lat="40.242082888855876" lon="14.96241301377004"><ele>11.0</ele><time>2026-04-25T15:59:54.999Z</time></trkpt><trkpt lat="40.241975287067554" lon="14.962530365135166"><ele>11.0</ele><time>2026-04-25T15:59:55.999Z</time></trkpt><trkpt lat="40.24186765405776" lon="14.962656589580417"><ele>11.0</ele><time>2026-04-25T15:59:56.999Z</time></trkpt><trkpt lat="40.24176130333079" lon="14.962778364681306"><ele>11.0</ele><time>2026-04-25T15:59:57.999Z</time></trkpt><trkpt lat="40.24162813752447" lon="14.962867350739234"><ele>11.0</ele><time>2026-04-25T15:59:58.999Z</time></trkpt><trkpt lat="40.241516370223266" lon="14.962994447231933"><ele>11.0</ele><time>2026-04-25T15:59:59.999Z</time></trkpt><trkpt lat="40.24140423461842" lon="14.963123384592032"><ele>11.0</ele><time>2026-04-25T16:00:00.999Z</time></trkpt><trkpt lat="40.24129040817664" lon="14.963253548711862"><ele>11.666666666666666</ele><time>2026-04-25T16:00:01.999Z</time></trkpt><trkpt lat="40.24117676344101" lon="14.963383931055343"><ele>12.333333333333332</ele><time>2026-04-25T16:00:02.999Z</time></trkpt><trkpt lat="40.241059358937605" lon="14.96351845486624"><ele>13.0</ele><time>2026-04-25T16:00:03.999Z</time></trkpt><trkpt lat="40.24094404156812" lon="14.96364866884838"><ele>13.0</ele><time>2026-04-25T16:00:04.999Z</time></trkpt><trkpt lat="40.24082998660986" lon="14.963776926554312"><ele>13.0</ele><time>2026-04-25T16:00:05.999Z</time></trkpt><trkpt lat="40.24071629836145" lon="14.963904771860582"><ele>13.0</ele><time>2026-04-25T16:00:06.999Z</time></trkpt><trkpt lat="40.24060518951426" lon="14.964029716549376"><ele>13.0</ele><time>2026-04-25T16:00:07.999Z</time></trkpt><trkpt lat="40.240492646092086" lon="14.964158267285486"><ele>16.25</ele><time>2026-04-25T16:00:08.999Z</time></trkpt><trkpt lat="40.240387015515275" lon="14.964277704694966"><ele>19.5</ele><time>2026-04-25T16:00:10Z</time></trkpt><trkpt lat="40.24028492058122" lon="14.964384820139776"><ele>22.75</ele><time>2026-04-25T16:00:11Z</time></trkpt><trkpt lat="40.24018321904785" lon="14.964486109439928"><ele>26.0</ele><time>2026-04-25T16:00:12Z</time></trkpt><trkpt lat="40.24008008958048" lon="14.9645808033206"><ele>26.0</ele><time>2026-04-25T16:00:13Z</time></trkpt><trkpt lat="40.23997606332535" lon="14.96465493714934"><ele>26.0</ele><time>2026-04-25T16:00:14Z</time></trkpt><trkpt lat="40.23987980369851" lon="14.964690626316925"><ele>26.0</ele><time>2026-04-25T16:00:15Z</time></trkpt><trkpt lat="40.23979472654562" lon="14.964682756908989"><ele>26.0</ele><time>2026-04-25T16:00:16Z</time></trkpt><trkpt lat="40.23969123535396" lon="14.964715434742981"><ele>26.0</ele><time>2026-04-25T16:00:17Z</time></trkpt><trkpt lat="40.23957208304225" lon="14.964625407993715"><ele>30.0</ele><time>2026-04-25T16:00:18Z</time></trkpt><trkpt lat="40.239442225575345" lon="14.964518773455167"><ele>34.0</ele><time>2026-04-25T16:00:19Z</time></trkpt><trkpt lat="40.2393185711276" lon="14.964428278269752"><ele>38.0</ele><time>2026-04-25T16:00:20Z</time></trkpt><trkpt lat="40.23920371310046" lon="14.964346193951142"><ele>42.0</ele><time>2026-04-25T16:00:21Z</time></trkpt><trkpt lat="40.23908856601185" lon="14.96426512146649"><ele>42.0</ele><time>2026-04-25T16:00:22Z</time></trkpt><trkpt lat="40.23897365514013" lon="14.96419813023112"><ele>42.0</ele><time>2026-04-25T16:00:23Z</time></trkpt><trkpt lat="40.238871261944794" lon="14.964089895126286"><ele>42.0</ele><time>2026-04-25T16:00:24Z</time></trkpt><trkpt lat="40.23874551421383" lon="14.96406707267198"><ele>42.0</ele><time>2026-04-25T16:00:25Z</time></trkpt><trkpt lat="40.238617811199745" lon="14.964100967143196"><ele>41.0</ele><time>2026-04-25T16:00:26Z</time></trkpt><trkpt lat="40.23849934145674" lon="14.964160920057667"><ele>40.0</ele><time>2026-04-25T16:00:27Z</time></trkpt><trkpt lat="40.238391533098095" lon="14.964279148185515"><ele>39.0</ele><time>2026-04-25T16:00:28Z</time></trkpt><trkpt lat="40.238298673750144" lon="14.964393892199796"><ele>38.0</ele><time>2026-04-25T16:00:29Z</time></trkpt><trkpt lat="40.23821197020029" lon="14.964510750833508"><ele>36.0</ele><time>2026-04-25T16:00:30Z</time></trkpt><trkpt lat="40.238127122704974" lon="14.964623019787004"><ele>34.0</ele><time>2026-04-25T16:00:31Z</time></trkpt><trkpt lat="40.23804551720427" lon="14.964717741441635"><ele>31.999999999999996</ele><time>2026-04-25T16:00:32Z</time></trkpt><trkpt lat="40.23796446317282" lon="14.964802454517766"><ele>30.0</ele><time>2026-04-25T16:00:33Z</time></trkpt><trkpt lat="40.23787981906782" lon="14.964883267208373"><ele>28.0</ele><time>2026-04-25T16:00:34Z</time></trkpt><trkpt lat="40.23779340950857" lon="14.964966222658775"><ele>30.4</ele><time>2026-04-25T16:00:35Z</time></trkpt><trkpt lat="40.23770353520849" lon="14.965051183469516"><ele>32.8</ele><time>2026-04-25T16:00:36Z</time></trkpt><trkpt lat="40.23762083657799" lon="14.965119309430408"><ele>35.2</ele><time>2026-04-25T16:00:37Z</time></trkpt><trkpt lat="40.2375437302252" lon="14.965177236701106"><ele>37.6</ele><time>2026-04-25T16:00:38Z</time></trkpt><trkpt lat="40.23747538544541" lon="14.965219711741177"><ele>40.0</ele><time>2026-04-25T16:00:39Z</time></trkpt><trkpt lat="40.2373716159497" lon="14.965249721899035"><ele>39.4</ele><time>2026-04-25T16:00:41Z</time></trkpt><trkpt lat="40.237268733053995" lon="14.96520797445395"><ele>38.8</ele><time>2026-04-25T16:00:43Z</time></trkpt><trkpt lat="40.23722597270027" lon="14.965133698461658"><ele>38.2</ele><time>2026-04-25T16:00:44Z</time></trkpt><trkpt lat="40.23718049055283" lon="14.965038330592199"><ele>37.6</ele><time>2026-04-25T16:00:45Z</time></trkpt><trkpt lat="40.23712664896782" lon="14.964913361853762"><ele>37.0</ele><time>2026-04-25T16:00:46Z</time></trkpt><trkpt lat="40.237064739300614" lon="14.964764876252007"><ele>36.5</ele><time>2026-04-25T16:00:47Z</time></trkpt><trkpt lat="40.23700552899509" lon="14.964620592287217"><ele>36.0</ele><time>2026-04-25T16:00:48Z</time></trkpt><trkpt lat="40.236947692846364" lon="14.96447573404186"><ele>35.5</ele><time>2026-04-25T16:00:49Z</time></trkpt><trkpt lat="40.23689308763868" lon="14.964338967919092"><ele>35.0</ele><time>2026-04-25T16:00:50Z</time></trkpt><trkpt lat="40.23683499378503" lon="14.964199430236697"><ele>35.0</ele><time>2026-04-25T16:00:51Z</time></trkpt><trkpt lat="40.23677432898899" lon="14.964056767792359"><ele>35.0</ele><time>2026-04-25T16:00:52Z</time></trkpt><trkpt lat="40.236717176063614" lon="14.963911223501336"><ele>35.0</ele><time>2026-04-25T16:00:53Z</time></trkpt><trkpt lat="40.236663215626585" lon="14.963769216483843"><ele>35.0</ele><time>2026-04-25T16:00:54Z</time></trkpt><trkpt lat="40.236613434428484" lon="14.963647041752841"><ele>35.0</ele><time>2026-04-25T16:00:55Z</time></trkpt><trkpt lat="40.2365586587337" lon="14.963543084312855"><ele>35.0</ele><time>2026-04-25T16:00:56Z</time></trkpt><trkpt lat="40.236430516411595" lon="14.963546963893446"><ele>35.0</ele><time>2026-04-25T16:00:57Z</time></trkpt><trkpt lat="40.23634050215139" lon="14.963553925505543"><ele>35.0</ele><time>2026-04-25T16:00:58Z</time></trkpt><trkpt lat="40.23624627793805" lon="14.963612910723334"><ele>35.0</ele><time>2026-04-25T16:00:59Z</time></trkpt><trkpt lat="40.23613883004379" lon="14.963726315619779"><ele>35.666666666666664</ele><time>2026-04-25T16:01:00Z</time></trkpt><trkpt lat="40.235990665241005" lon="14.963790912757096"><ele>36.333333333333336</ele><time>2026-04-25T16:01:01Z</time></trkpt><trkpt lat="40.23587612414091" lon="14.963910433765237"><ele>37.0</ele><time>2026-04-25T16:01:02Z</time></trkpt><trkpt lat="40.23575593210942" lon="14.964039999307818"><ele>37.0</ele><time>2026-04-25T16:01:03Z</time></trkpt><trkpt lat="40.2356386654961" lon="14.964166460678388"><ele>37.0</ele><time>2026-04-25T16:01:04Z</time></trkpt><trkpt lat="40.23551808788077" lon="14.964294621812014"><ele>37.0</ele><time>2026-04-25T16:01:05Z</time></trkpt><trkpt lat="40.23539778160531" lon="14.96442011372726"><ele>39.0</ele><time>2026-04-25T16:01:06Z</time></trkpt><trkpt lat="40.2352762717411" lon="14.964543172096006"><ele>41.0</ele><time>2026-04-25T16:01:07Z</time></trkpt><trkpt lat="40.23515095334833" lon="14.964658017770635"><ele>43.0</ele><time>2026-04-25T16:01:08Z</time></trkpt><trkpt lat="40.23501298940555" lon="14.96476823593216"><ele>43.0</ele><time>2026-04-25T16:01:09Z</time></trkpt><trkpt lat="40.23487647139353" lon="14.964877851805197"><ele>43.0</ele><time>2026-04-25T16:01:10Z</time></trkpt><trkpt lat="40.234751787659384" lon="14.964975952976422"><ele>43.0</ele><time>2026-04-25T16:01:11Z</time></trkpt><trkpt lat="40.23463123658411" lon="14.965059664144395"><ele>43.0</ele><time>2026-04-25T16:01:12Z</time></trkpt><trkpt lat="40.23452315806771" lon="14.96510987074608"><ele>42.8</ele><time>2026-04-25T16:01:13Z</time></trkpt><trkpt lat="40.23441755379673" lon="14.965122340086992"><ele>42.599999999999994</ele><time>2026-04-25T16:01:14Z</time></trkpt><trkpt lat="40.234311484745696" lon="14.965124961314315"><ele>42.400000000000006</ele><time>2026-04-25T16:01:15Z</time></trkpt><trkpt lat="40.234227462322494" lon="14.965121486372594"><ele>42.2</ele><time>2026-04-25T16:01:16Z</time></trkpt><trkpt lat="40.23415575441465" lon="14.96510760362879"><ele>42.0</ele><time>2026-04-25T16:01:17Z</time></trkpt><trkpt lat="40.2340321400123" lon="14.96500562992873"><ele>42.0</ele><time>2026-04-25T16:01:19Z</time></trkpt><trkpt lat="40.23399498668141" lon="14.964888071097878"><ele>42.0</ele><time>2026-04-25T16:01:20Z</time></trkpt><trkpt lat="40.23395595152309" lon="14.964779578572893"><ele>42.0</ele><time>2026-04-25T16:01:21Z</time></trkpt><trkpt lat="40.2339285498681" lon="14.964679716219457"><ele>42.0</ele><time>2026-04-25T16:01:22Z</time></trkpt><trkpt lat="40.233913396063755" lon="14.964599002423913"><ele>42.0</ele><time>2026-04-25T16:01:23Z</time></trkpt><trkpt lat="40.23398543533243" lon="14.964518282391266"><ele>42.0</ele><time>2026-04-25T16:01:24Z</time></trkpt><trkpt lat="40.23409086163546" lon="14.964466106279566"><ele>42.0</ele><time>2026-04-25T16:01:25Z</time></trkpt><trkpt lat="40.23421900752907" lon="14.964423544909435"><ele>42.0</ele><time>2026-04-25T16:01:26Z</time></trkpt><trkpt lat="40.23432755128174" lon="14.964359458226618"><ele>42.0</ele><time>2026-04-25T16:01:27Z</time></trkpt><trkpt lat="40.234417037030255" lon="14.96427181415876"><ele>42.0</ele><time>2026-04-25T16:01:28Z</time></trkpt><trkpt lat="40.23449488399236" lon="14.964138850676498"><ele>43.0</ele><time>2026-04-25T16:01:29Z</time></trkpt><trkpt lat="40.234564343361974" lon="14.963984968936186"><ele>44.0</ele><time>2026-04-25T16:01:30Z</time></trkpt><trkpt lat="40.234624570502966" lon="14.96380398075889"><ele>45.0</ele><time>2026-04-25T16:01:31Z</time></trkpt><trkpt lat="40.23467297047982" lon="14.963618212147155"><ele>46.0</ele><time>2026-04-25T16:01:32Z</time></trkpt><trkpt lat="40.23470934101882" lon="14.963443837101552"><ele>50.5</ele><time>2026-04-25T16:01:33Z</time></trkpt><trkpt lat="40.234731132860674" lon="14.963270617118479"><ele>55.0</ele><time>2026-04-25T16:01:34Z</time></trkpt><trkpt lat="40.23475120368509" lon="14.963099817432422"><ele>59.5</ele><time>2026-04-25T16:01:35Z</time></trkpt><trkpt lat="40.23478623380141" lon="14.962933804414758"><ele>64.0</ele><time>2026-04-25T16:01:36Z</time></trkpt><trkpt lat="40.23479386218532" lon="14.962752353188833"><ele>64.0</ele><time>2026-04-25T16:01:37Z</time></trkpt><trkpt lat="40.234766983275485" lon="14.962546698327367"><ele>64.0</ele><time>2026-04-25T16:01:38Z</time></trkpt><trkpt lat="40.23471724990032" lon="14.96233097328191"><ele>64.0</ele><time>2026-04-25T16:01:39Z</time></trkpt><trkpt lat="40.2346637577745" lon="14.96213300232967"><ele>63.33333333333333</ele><time>2026-04-25T16:01:40Z</time></trkpt><trkpt lat="40.234602861939706" lon="14.961943242786477"><ele>62.66666666666667</ele><time>2026-04-25T16:01:41Z</time></trkpt><trkpt lat="40.234537598769705" lon="14.961771436834107"><ele>62.0</ele><time>2026-04-25T16:01:42Z</time></trkpt><trkpt lat="40.234460494920135" lon="14.961606114089415"><ele>62.0</ele><time>2026-04-25T16:01:43Z</time></trkpt><trkpt lat="40.23436829013819" lon="14.961463300109322"><ele>62.0</ele><time>2026-04-25T16:01:44Z</time></trkpt><trkpt lat="40.23424790868258" lon="14.96133958519843"><ele>62.0</ele><time>2026-04-25T16:01:45Z</time></trkpt><trkpt lat="40.234114417058464" lon="14.961239783685485"><ele>62.0</ele><time>2026-04-25T16:01:46Z</time></trkpt><trkpt lat="40.2339565266806" lon="14.961183182953492"><ele>66.0</ele><time>2026-04-25T16:01:47Z</time></trkpt><trkpt lat="40.233805398292596" lon="14.961161417437651"><ele>70.0</ele><time>2026-04-25T16:01:48Z</time></trkpt><trkpt lat="40.23364150795932" lon="14.96118162346474"><ele>74.0</ele><time>2026-04-25T16:01:49Z</time></trkpt><trkpt lat="40.23348133366118" lon="14.961217546561377"><ele>74.0</ele><time>2026-04-25T16:01:50Z</time></trkpt><trkpt lat="40.233320805040286" lon="14.961231292656162"><ele>74.0</ele><time>2026-04-25T16:01:51Z</time></trkpt><trkpt lat="40.23317304286003" lon="14.961220163748603"><ele>74.0</ele><time>2026-04-25T16:01:52Z</time></trkpt><trkpt lat="40.233018616105674" lon="14.961188239455547"><ele>77.0</ele><time>2026-04-25T16:01:53Z</time></trkpt><trkpt lat="40.232859367149516" lon="14.961153612428774"><ele>80.0</ele><time>2026-04-25T16:01:53.999Z</time></trkpt><trkpt lat="40.23268168628283" lon="14.96114909428749"><ele>83.0</ele><time>2026-04-25T16:01:54.999Z</time></trkpt><trkpt lat="40.23250312746287" lon="14.961193227885374"><ele>83.0</ele><time>2026-04-25T16:01:55.999Z</time></trkpt><trkpt lat="40.232335930341485" lon="14.961242124328818"><ele>83.0</ele><time>2026-04-25T16:01:56.999Z</time></trkpt><trkpt lat="40.23218811998501" lon="14.96128716141748"><ele>83.0</ele><time>2026-04-25T16:01:57.999Z</time></trkpt><trkpt lat="40.23203913689366" lon="14.96133670703982"><ele>77.66666666666667</ele><time>2026-04-25T16:01:58.999Z</time></trkpt><trkpt lat="40.231879377394186" lon="14.9614082538735"><ele>72.33333333333333</ele><time>2026-04-25T16:01:59.999Z</time></trkpt><trkpt lat="40.23173207849036" lon="14.961527851175111"><ele>67.0</ele><time>2026-04-25T16:02:00.999Z</time></trkpt><trkpt lat="40.231605625972236" lon="14.961641236648445"><ele>70.66666666666666</ele><time>2026-04-25T16:02:01.999Z</time></trkpt><trkpt lat="40.231491582388635" lon="14.961770660741413"><ele>74.33333333333333</ele><time>2026-04-25T16:02:02.999Z</time></trkpt><trkpt lat="40.23138817742111" lon="14.961922075194556"><ele>78.0</ele><time>2026-04-25T16:02:03.999Z</time></trkpt><trkpt lat="40.231279764774655" lon="14.962086502860103"><ele>78.0</ele><time>2026-04-25T16:02:04.999Z</time></trkpt><trkpt lat="40.231167675148335" lon="14.962252274122317"><ele>78.0</ele><time>2026-04-25T16:02:05.999Z</time></trkpt><trkpt lat="40.23105995754146" lon="14.962391984182903"><ele>78.0</ele><time>2026-04-25T16:02:06.999Z</time></trkpt><trkpt lat="40.230952920133156" lon="14.962434802235755"><ele>78.0</ele><time>2026-04-25T16:02:07.999Z</time></trkpt><trkpt lat="40.230818537258884" lon="14.962483000696055"><ele>88.66666666666666</ele><time>2026-04-25T16:02:08.999Z</time></trkpt><trkpt lat="40.23067125917569" lon="14.962534722491986"><ele>99.33333333333333</ele><time>2026-04-25T16:02:09.999Z</time></trkpt><trkpt lat="40.23051220474656" lon="14.962589826723262"><ele>110.0</ele><time>2026-04-25T16:02:10.999Z</time></trkpt><trkpt lat="40.23033386915199" lon="14.96265161086072"><ele>110.0</ele><time>2026-04-25T16:02:11.999Z</time></trkpt><trkpt lat="40.23013588334164" lon="14.962722606694001"><ele>110.0</ele><time>2026-04-25T16:02:12.999Z</time></trkpt><trkpt lat="40.22994616632459" lon="14.96282764428211"><ele>110.0</ele><time>2026-04-25T16:02:13.999Z</time></trkpt><trkpt lat="40.22977102645459" lon="14.962931098155407"><ele>99.0</ele><time>2026-04-25T16:02:14.999Z</time></trkpt><trkpt lat="40.22959683300325" lon="14.96304829404257"><ele>88.0</ele><time>2026-04-25T16:02:16Z</time></trkpt><trkpt lat="40.229438511557035" lon="14.963193071080617"><ele>77.0</ele><time>2026-04-25T16:02:17Z</time></trkpt><trkpt lat="40.22928223370186" lon="14.963332700731032"><ele>78.66666666666667</ele><time>2026-04-25T16:02:18Z</time></trkpt><trkpt lat="40.22913318023477" lon="14.963435204496657"><ele>80.33333333333333</ele><time>2026-04-25T16:02:19Z</time></trkpt><trkpt lat="40.228985458079656" lon="14.963513180907295"><ele>82.0</ele><time>2026-04-25T16:02:20Z</time></trkpt><trkpt lat="40.228821869301214" lon="14.963623184961149"><ele>82.0</ele><time>2026-04-25T16:02:21Z</time></trkpt><trkpt lat="40.22867573765481" lon="14.963750281904886"><ele>82.0</ele><time>2026-04-25T16:02:22Z</time></trkpt><trkpt lat="40.228539824825226" lon="14.9638732201976"><ele>82.0</ele><time>2026-04-25T16:02:23Z</time></trkpt><trkpt lat="40.228416319952665" lon="14.963990480503178"><ele>82.0</ele><time>2026-04-25T16:02:24Z</time></trkpt><trkpt lat="40.22830877963617" lon="14.964152068660358"><ele>82.0</ele><time>2026-04-25T16:02:25Z</time></trkpt><trkpt lat="40.228209982424694" lon="14.964343873494329"><ele>82.0</ele><time>2026-04-25T16:02:26Z</time></trkpt><trkpt lat="40.22809370105834" lon="14.964525487385433"><ele>88.33333333333333</ele><time>2026-04-25T16:02:27Z</time></trkpt><trkpt lat="40.22797231233383" lon="14.96465592191319"><ele>94.66666666666666</ele><time>2026-04-25T16:02:28Z</time></trkpt><trkpt lat="40.22782716350263" lon="14.964770713480634"><ele>101.0</ele><time>2026-04-25T16:02:29Z</time></trkpt><trkpt lat="40.2276409977902" lon="14.964914746011212"><ele>99.33333333333333</ele><time>2026-04-25T16:02:30Z</time></trkpt><trkpt lat="40.227470315887714" lon="14.965045847163228"><ele>97.66666666666666</ele><time>2026-04-25T16:02:31Z</time></trkpt><trkpt lat="40.22732401070909" lon="14.96515900473757"><ele>96.0</ele><time>2026-04-25T16:02:32Z</time></trkpt><trkpt lat="40.22718371223416" lon="14.965282780021404"><ele>96.0</ele><time>2026-04-25T16:02:33Z</time></trkpt><trkpt lat="40.22704084249738" lon="14.965453405133058"><ele>96.0</ele><time>2026-04-25T16:02:34Z</time></trkpt><trkpt lat="40.22690052153303" lon="14.9656668462471"><ele>96.0</ele><time>2026-04-25T16:02:35Z</time></trkpt><trkpt lat="40.22676675754491" lon="14.96589095040728"><ele>93.66666666666667</ele><time>2026-04-25T16:02:36Z</time></trkpt><trkpt lat="40.22664581206581" lon="14.966094111507344"><ele>91.33333333333334</ele><time>2026-04-25T16:02:37Z</time></trkpt><trkpt lat="40.226525443122334" lon="14.966284197434472"><ele>89.0</ele><time>2026-04-25T16:02:38Z</time></trkpt><trkpt lat="40.22638008063809" lon="14.966450314332244"><ele>89.0</ele><time>2026-04-25T16:02:39Z</time></trkpt><trkpt lat="40.22621175893402" lon="14.966603552833533"><ele>89.0</ele><time>2026-04-25T16:02:40Z</time></trkpt><trkpt lat="40.226031520113004" lon="14.966776317900695"><ele>89.0</ele><time>2026-04-25T16:02:41Z</time></trkpt><trkpt lat="40.225869019723795" lon="14.966973096554899"><ele>86.0</ele><time>2026-04-25T16:02:42Z</time></trkpt><trkpt lat="40.225734503256774" lon="14.967202958577644"><ele>83.0</ele><time>2026-04-25T16:02:43Z</time></trkpt><trkpt lat="40.22558809294021" lon="14.967387590544373"><ele>80.0</ele><time>2026-04-25T16:02:44Z</time></trkpt><trkpt lat="40.22544564125351" lon="14.967550912439822"><ele>93.66666666666667</ele><time>2026-04-25T16:02:45Z</time></trkpt><trkpt lat="40.22532004155304" lon="14.967704407329922"><ele>107.33333333333334</ele><time>2026-04-25T16:02:46Z</time></trkpt><trkpt lat="40.2252228126272" lon="14.967861729847785"><ele>121.0</ele><time>2026-04-25T16:02:47Z</time></trkpt><trkpt lat="40.22516653987443" lon="14.968054969818445"><ele>121.0</ele><time>2026-04-25T16:02:48Z</time></trkpt><trkpt lat="40.22508427165736" lon="14.968206129094325"><ele>121.0</ele><time>2026-04-25T16:02:49Z</time></trkpt><trkpt lat="40.224976544197055" lon="14.968327601898228"><ele>121.0</ele><time>2026-04-25T16:02:50Z</time></trkpt><trkpt lat="40.224840833490795" lon="14.968464739971338"><ele>129.25</ele><time>2026-04-25T16:02:51Z</time></trkpt><trkpt lat="40.22471035708392" lon="14.968596701391885"><ele>137.5</ele><time>2026-04-25T16:02:52Z</time></trkpt><trkpt lat="40.22460190480482" lon="14.968690899788216"><ele>145.75</ele><time>2026-04-25T16:02:53Z</time></trkpt><trkpt lat="40.22448373550759" lon="14.968739380602875"><ele>154.0</ele><time>2026-04-25T16:02:54Z</time></trkpt><trkpt lat="40.22436193839544" lon="14.968742364659038"><ele>154.0</ele><time>2026-04-25T16:02:55Z</time></trkpt><trkpt lat="40.22421852136052" lon="14.968736092049008"><ele>154.0</ele><time>2026-04-25T16:02:56Z</time></trkpt><trkpt lat="40.224058034328976" lon="14.968760740467548"><ele>154.0</ele><time>2026-04-25T16:02:57Z</time></trkpt><trkpt lat="40.223907168432326" lon="14.96882155512529"><ele>140.66666666666669</ele><time>2026-04-25T16:02:58Z</time></trkpt><trkpt lat="40.223738643475905" lon="14.968929387330872"><ele>127.33333333333334</ele><time>2026-04-25T16:02:59Z</time></trkpt><trkpt lat="40.22358764801175" lon="14.969037728048493"><ele>114.0</ele><time>2026-04-25T16:03:00Z</time></trkpt><trkpt lat="40.223445890043614" lon="14.969148526160572"><ele>103.66666666666667</ele><time>2026-04-25T16:03:01Z</time></trkpt><trkpt lat="40.22331767298554" lon="14.969275389001298"><ele>93.33333333333334</ele><time>2026-04-25T16:03:02Z</time></trkpt><trkpt lat="40.22320146622815" lon="14.969428916114989"><ele>83.0</ele><time>2026-04-25T16:03:03Z</time></trkpt><trkpt lat="40.22308742488719" lon="14.969590829534212"><ele>83.0</ele><time>2026-04-25T16:03:04Z</time></trkpt><trkpt lat="40.222974826667446" lon="14.969749848164104"><ele>83.0</ele><time>2026-04-25T16:03:05Z</time></trkpt><trkpt lat="40.222858432050415" lon="14.969918944750598"><ele>83.0</ele><time>2026-04-25T16:03:06Z</time></trkpt><trkpt lat="40.22275164768619" lon="14.970093800460548"><ele>93.33333333333334</ele><time>2026-04-25T16:03:07Z</time></trkpt><trkpt lat="40.22265605275166" lon="14.970285407682098"><ele>103.66666666666667</ele><time>2026-04-25T16:03:08Z</time></trkpt><trkpt lat="40.222568190378226" lon="14.97047108814203"><ele>114.0</ele><time>2026-04-25T16:03:09Z</time></trkpt><trkpt lat="40.2224866606374" lon="14.97065352934483"><ele>114.0</ele><time>2026-04-25T16:03:10Z</time></trkpt><trkpt lat="40.22241126056271" lon="14.970841881050026"><ele>114.0</ele><time>2026-04-25T16:03:11Z</time></trkpt><trkpt lat="40.22234786675414" lon="14.971037370181435"><ele>114.0</ele><time>2026-04-25T16:03:12Z</time></trkpt><trkpt lat="40.222300064375304" lon="14.971265273176801"><ele>105.0</ele><time>2026-04-25T16:03:13Z</time></trkpt><trkpt lat="40.222235692299535" lon="14.971482098386117"><ele>96.0</ele><time>2026-04-25T16:03:14Z</time></trkpt><trkpt lat="40.222135737296206" lon="14.971681435982456"><ele>87.0</ele><time>2026-04-25T16:03:15Z</time></trkpt><trkpt lat="40.2220380853937" lon="14.971898001619305"><ele>87.0</ele><time>2026-04-25T16:03:16Z</time></trkpt><trkpt lat="40.22193777164385" lon="14.972124429015935"><ele>87.0</ele><time>2026-04-25T16:03:17Z</time></trkpt><trkpt lat="40.221841133181655" lon="14.972342560684233"><ele>87.0</ele><time>2026-04-25T16:03:18Z</time></trkpt><trkpt lat="40.221750180597574" lon="14.972549416549002"><ele>99.0</ele><time>2026-04-25T16:03:19Z</time></trkpt><trkpt lat="40.22166208285356" lon="14.9727522048993"><ele>111.0</ele><time>2026-04-25T16:03:20Z</time></trkpt><trkpt lat="40.22159546185307" lon="14.97296049731443"><ele>123.0</ele><time>2026-04-25T16:03:21Z</time></trkpt><trkpt lat="40.22151579750582" lon="14.973162466277083"><ele>105.0</ele><time>2026-04-25T16:03:22Z</time></trkpt><trkpt lat="40.221444008201175" lon="14.973364822988772"><ele>87.0</ele><time>2026-04-25T16:03:23Z</time></trkpt><trkpt lat="40.22137827857647" lon="14.973566127894061"><ele>69.0</ele><time>2026-04-25T16:03:24Z</time></trkpt><trkpt lat="40.22132244319867" lon="14.973776573577057"><ele>69.0</ele><time>2026-04-25T16:03:25Z</time></trkpt><trkpt lat="40.22126708999627" lon="14.97397947274421"><ele>69.0</ele><time>2026-04-25T16:03:26Z</time></trkpt><trkpt lat="40.22123321465603" lon="14.974175209718252"><ele>69.0</ele><time>2026-04-25T16:03:27Z</time></trkpt><trkpt lat="40.221243414845674" lon="14.974390952119565"><ele>75.0</ele><time>2026-04-25T16:03:28Z</time></trkpt><trkpt lat="40.22127910137027" lon="14.97461742484371"><ele>81.0</ele><time>2026-04-25T16:03:29Z</time></trkpt><trkpt lat="40.22131562682217" lon="14.974817552180816"><ele>87.0</ele><time>2026-04-25T16:03:30Z</time></trkpt><trkpt lat="40.2213464775588" lon="14.974987023365095"><ele>86.8</ele><time>2026-04-25T16:03:31Z</time></trkpt><trkpt lat="40.22135985984684" lon="14.97511217815168"><ele>86.6</ele><time>2026-04-25T16:03:32Z</time></trkpt><trkpt lat="40.22129707050017" lon="14.975213474179863"><ele>86.39999999999999</ele><time>2026-04-25T16:03:33Z</time></trkpt><trkpt lat="40.22122917514271" lon="14.975330748434846"><ele>86.19999999999999</ele><time>2026-04-25T16:03:34Z</time></trkpt><trkpt lat="40.2211829437962" lon="14.975435821009214"><ele>86.0</ele><time>2026-04-25T16:03:35Z</time></trkpt><trkpt lat="40.22114004485402" lon="14.975530856558514"><ele>86.0</ele><time>2026-04-25T16:03:36Z</time></trkpt><trkpt lat="40.22114308801698" lon="14.975637895379604"><ele>86.0</ele><time>2026-04-25T16:03:37Z</time></trkpt><trkpt lat="40.22118556609146" lon="14.975724934801073"><ele>86.0</ele><time>2026-04-25T16:03:38Z</time></trkpt><trkpt lat="40.22126668589442" lon="14.97579472448046"><ele>86.0</ele><time>2026-04-25T16:03:39Z</time></trkpt><trkpt lat="40.22137073151164" lon="14.97581409436431"><ele>86.0</ele><time>2026-04-25T16:03:40Z</time></trkpt><trkpt lat="40.22148305511389" lon="14.975806001146571"><ele>91.4</ele><time>2026-04-25T16:03:41Z</time></trkpt><trkpt lat="40.22159906961689" lon="14.975791563739437"><ele>96.8</ele><time>2026-04-25T16:03:42Z</time></trkpt><trkpt lat="40.22170659866056" lon="14.975768752111067"><ele>102.20000000000002</ele><time>2026-04-25T16:03:43Z</time></trkpt><trkpt lat="40.22180113148938" lon="14.975705947985611"><ele>107.60000000000001</ele><time>2026-04-25T16:03:44Z</time></trkpt><trkpt lat="40.22187108292287" lon="14.975604216005785"><ele>113.0</ele><time>2026-04-25T16:03:45Z</time></trkpt><trkpt lat="40.22191501145825" lon="14.975523886670153"><ele>113.0</ele><time>2026-04-25T16:03:46Z</time></trkpt><trkpt lat="40.222013528914154" lon="14.975501025886464"><ele>113.0</ele><time>2026-04-25T16:03:48Z</time></trkpt><trkpt lat="40.2220850155349" lon="14.975555301947416"><ele>113.0</ele><time>2026-04-25T16:03:50Z</time></trkpt><trkpt lat="40.22197320377224" lon="14.97571596319199"><ele>113.0</ele><time>2026-04-25T16:03:51Z</time></trkpt><trkpt lat="40.22186210866873" lon="14.975831728944575"><ele>107.75</ele><time>2026-04-25T16:03:52Z</time></trkpt><trkpt lat="40.22175669135125" lon="14.975943858528005"><ele>102.5</ele><time>2026-04-25T16:03:53Z</time></trkpt><trkpt lat="40.22165623301013" lon="14.976017442507402"><ele>97.25</ele><time>2026-04-25T16:03:54Z</time></trkpt><trkpt lat="40.22156148225021" lon="14.976026097636357"><ele>92.0</ele><time>2026-04-25T16:03:55Z</time></trkpt><trkpt lat="40.221425079602454" lon="14.976049246437068"><ele>86.75</ele><time>2026-04-25T16:03:56Z</time></trkpt><trkpt lat="40.2212914640764" lon="14.976097468829444"><ele>81.5</ele><time>2026-04-25T16:03:57Z</time></trkpt><trkpt lat="40.221185821063294" lon="14.976218686901664"><ele>76.25</ele><time>2026-04-25T16:03:57.999Z</time></trkpt><trkpt lat="40.221088519102025" lon="14.976301132986489"><ele>71.0</ele><time>2026-04-25T16:03:58.999Z</time></trkpt><trkpt lat="40.221000508796415" lon="14.976352591526446"><ele>71.0</ele><time>2026-04-25T16:03:59.999Z</time></trkpt><trkpt lat="40.220924945250424" lon="14.97635747519361"><ele>71.0</ele><time>2026-04-25T16:04:00.999Z</time></trkpt><trkpt lat="40.22083091417219" lon="14.976350765049249"><ele>71.0</ele><time>2026-04-25T16:04:01.999Z</time></trkpt><trkpt lat="40.22075683410591" lon="14.976371015425633"><ele>71.0</ele><time>2026-04-25T16:04:02.999Z</time></trkpt><trkpt lat="40.22069543165233" lon="14.976411722581098"><ele>71.0</ele><time>2026-04-25T16:04:03.999Z</time></trkpt><trkpt lat="40.22066352702495" lon="14.976521902957407"><ele>71.0</ele><time>2026-04-25T16:04:04.999Z</time></trkpt><trkpt lat="40.22069375959199" lon="14.976635649438029"><ele>71.0</ele><time>2026-04-25T16:04:05.999Z</time></trkpt><trkpt lat="40.2207452931362" lon="14.976715266260639"><ele>71.0</ele><time>2026-04-25T16:04:06.999Z</time></trkpt><trkpt lat="40.220834638476404" lon="14.976748808066752"><ele>71.0</ele><time>2026-04-25T16:04:07.999Z</time></trkpt><trkpt lat="40.220938471317844" lon="14.976726896619159"><ele>71.0</ele><time>2026-04-25T16:04:08.999Z</time></trkpt><trkpt lat="40.22103807187468" lon="14.976670106577401"><ele>71.0</ele><time>2026-04-25T16:04:09.999Z</time></trkpt><trkpt lat="40.221128453132486" lon="14.976622056411376"><ele>71.0</ele><time>2026-04-25T16:04:10.999Z</time></trkpt><trkpt lat="40.22121462282244" lon="14.976560604510015"><ele>71.0</ele><time>2026-04-25T16:04:11.999Z</time></trkpt><trkpt lat="40.22130300131307" lon="14.976509322613191"><ele>71.0</ele><time>2026-04-25T16:04:12.999Z</time></trkpt><trkpt lat="40.2213971422998" lon="14.976484738932808"><ele>71.0</ele><time>2026-04-25T16:04:13.999Z</time></trkpt><trkpt lat="40.22150680962287" lon="14.97649700575496"><ele>71.0</ele><time>2026-04-25T16:04:14.999Z</time></trkpt><trkpt lat="40.22163224344801" lon="14.97654108976592"><ele>75.19999999999999</ele><time>2026-04-25T16:04:15.999Z</time></trkpt><trkpt lat="40.2217353928745" lon="14.976593235518688"><ele>79.39999999999999</ele><time>2026-04-25T16:04:16.999Z</time></trkpt><trkpt lat="40.22184707264756" lon="14.97660855800735"><ele>83.6</ele><time>2026-04-25T16:04:17.999Z</time></trkpt><trkpt lat="40.221940454751774" lon="14.976577894037865"><ele>87.8</ele><time>2026-04-25T16:04:18.999Z</time></trkpt><trkpt lat="40.22202194815612" lon="14.976499944585424"><ele>92.0</ele><time>2026-04-25T16:04:19.999Z</time></trkpt><trkpt lat="40.22209294924693" lon="14.97638833081834"><ele>92.0</ele><time>2026-04-25T16:04:20.999Z</time></trkpt><trkpt lat="40.2221729050613" lon="14.976258140519365"><ele>92.0</ele><time>2026-04-25T16:04:22Z</time></trkpt><trkpt lat="40.22223944995846" lon="14.976148564416967"><ele>92.0</ele><time>2026-04-25T16:04:23Z</time></trkpt><trkpt lat="40.222305149469044" lon="14.976048543430085"><ele>92.0</ele><time>2026-04-25T16:04:24Z</time></trkpt><trkpt lat="40.22238793893805" lon="14.975974908870986"><ele>92.0</ele><time>2026-04-25T16:04:25Z</time></trkpt><trkpt lat="40.222480701006305" lon="14.975904856144114"><ele>92.5</ele><time>2026-04-25T16:04:26Z</time></trkpt><trkpt lat="40.22259155998494" lon="14.975842726082547"><ele>93.0</ele><time>2026-04-25T16:04:27Z</time></trkpt><trkpt lat="40.22270438623871" lon="14.975801557003432"><ele>93.5</ele><time>2026-04-25T16:04:28Z</time></trkpt><trkpt lat="40.22281258766692" lon="14.975745812837383"><ele>94.0</ele><time>2026-04-25T16:04:29Z</time></trkpt><trkpt lat="40.222901979047414" lon="14.975682396818899"><ele>94.0</ele><time>2026-04-25T16:04:30Z</time></trkpt><trkpt lat="40.22300268636283" lon="14.975614318405439"><ele>94.0</ele><time>2026-04-25T16:04:31Z</time></trkpt><trkpt lat="40.22307491485633" lon="14.975544092768471"><ele>94.0</ele><time>2026-04-25T16:04:32Z</time></trkpt><trkpt lat="40.22315956517135" lon="14.975463165846888"><ele>94.0</ele><time>2026-04-25T16:04:33Z</time></trkpt><trkpt lat="40.22323829528339" lon="14.975385758895108"><ele>94.0</ele><time>2026-04-25T16:04:34Z</time></trkpt><trkpt lat="40.22330668087019" lon="14.975304653288244"><ele>93.5</ele><time>2026-04-25T16:04:35Z</time></trkpt><trkpt lat="40.223373138079396" lon="14.97523791217793"><ele>93.0</ele><time>2026-04-25T16:04:36Z</time></trkpt><trkpt lat="40.22343153858298" lon="14.975181800653063"><ele>92.5</ele><time>2026-04-25T16:04:37Z</time></trkpt><trkpt lat="40.223493550691366" lon="14.97512135534388"><ele>92.0</ele><time>2026-04-25T16:04:38Z</time></trkpt><trkpt lat="40.223553801408464" lon="14.975059248171407"><ele>91.5</ele><time>2026-04-25T16:04:39Z</time></trkpt><trkpt lat="40.22362404618963" lon="14.974992457911137"><ele>91.0</ele><time>2026-04-25T16:04:40Z</time></trkpt><trkpt lat="40.22369232894824" lon="14.974917912327397"><ele>91.0</ele><time>2026-04-25T16:04:41Z</time></trkpt><trkpt lat="40.223761458397085" lon="14.974841113203375"><ele>91.0</ele><time>2026-04-25T16:04:42Z</time></trkpt><trkpt lat="40.22382918932941" lon="14.974771818233265"><ele>91.0</ele><time>2026-04-25T16:04:43Z</time></trkpt><trkpt lat="40.223894265477576" lon="14.974714802176743"><ele>91.0</ele><time>2026-04-25T16:04:44Z</time></trkpt><trkpt lat="40.2239512620164" lon="14.974677942345267"><ele>91.0</ele><time>2026-04-25T16:04:45Z</time></trkpt><trkpt lat="40.22401885952088" lon="14.974671086086655"><ele>91.0</ele><time>2026-04-25T16:04:46Z</time></trkpt><trkpt lat="40.22410302775165" lon="14.974709910250706"><ele>87.8</ele><time>2026-04-25T16:04:47Z</time></trkpt><trkpt lat="40.22419061363293" lon="14.974833522511355"><ele>84.6</ele><time>2026-04-25T16:04:48Z</time></trkpt><trkpt lat="40.22428011795795" lon="14.974897580567792"><ele>81.4</ele><time>2026-04-25T16:04:49Z</time></trkpt><trkpt lat="40.224360537295695" lon="14.974950657632329"><ele>78.2</ele><time>2026-04-25T16:04:50Z</time></trkpt><trkpt lat="40.2244397478383" lon="14.974991282911276"><ele>75.0</ele><time>2026-04-25T16:04:51Z</time></trkpt><trkpt lat="40.224519784952655" lon="14.975018350213437"><ele>72.33333333333333</ele><time>2026-04-25T16:04:52Z</time></trkpt><trkpt lat="40.2246029445418" lon="14.97504947900269"><ele>69.66666666666667</ele><time>2026-04-25T16:04:53Z</time></trkpt><trkpt lat="40.224683860759654" lon="14.975052143491679"><ele>67.0</ele><time>2026-04-25T16:04:54Z</time></trkpt><trkpt lat="40.22476047311798" lon="14.9750563627522"><ele>64.33333333333334</ele><time>2026-04-25T16:04:55Z</time></trkpt><trkpt lat="40.224838362142954" lon="14.9750624496593"><ele>61.66666666666667</ele><time>2026-04-25T16:04:56Z</time></trkpt><trkpt lat="40.22490401982501" lon="14.975071687109402"><ele>59.0</ele><time>2026-04-25T16:04:57Z</time></trkpt><trkpt lat="40.22500801415138" lon="14.975072764046336"><ele>59.0</ele><time>2026-04-25T16:04:59Z</time></trkpt><trkpt lat="40.22499300117361" lon="14.975158503971345"><ele>59.00000000000001</ele><time>2026-04-25T16:05:05Z</time></trkpt><trkpt lat="40.224898740446235" lon="14.975244308149222"><ele>59.00000000000001</ele><time>2026-04-25T16:05:07Z</time></trkpt><trkpt lat="40.22481005857887" lon="14.975336492340269"><ele>59.0</ele><time>2026-04-25T16:05:09Z</time></trkpt><trkpt lat="40.224711962878786" lon="14.975427755650426"><ele>59.0</ele><time>2026-04-25T16:05:11Z</time></trkpt><trkpt lat="40.224602028839364" lon="14.975485381076425"><ele>58.333333333333336</ele><time>2026-04-25T16:05:13Z</time></trkpt><trkpt lat="40.224508953932904" lon="14.975453628652557"><ele>57.66666666666667</ele><time>2026-04-25T16:05:15Z</time></trkpt><trkpt lat="40.22445865327689" lon="14.975368560999387"><ele>57.0</ele><time>2026-04-25T16:05:17Z</time></trkpt><trkpt lat="40.22439834225566" lon="14.975316968023565"><ele>56.33333333333333</ele><time>2026-04-25T16:05:18Z</time></trkpt><trkpt lat="40.224338037713885" lon="14.975266752282907"><ele>55.666666666666664</ele><time>2026-04-25T16:05:19Z</time></trkpt><trkpt lat="40.2242798547677" lon="14.975216181115353"><ele>55.0</ele><time>2026-04-25T16:05:20Z</time></trkpt><trkpt lat="40.22422639373478" lon="14.97516713033832"><ele>55.0</ele><time>2026-04-25T16:05:21Z</time></trkpt><trkpt lat="40.22416761603026" lon="14.97511953370165"><ele>55.0</ele><time>2026-04-25T16:05:22Z</time></trkpt><trkpt lat="40.22410388137996" lon="14.975085568331213"><ele>55.0</ele><time>2026-04-25T16:05:23Z</time></trkpt><trkpt lat="40.22400807297021" lon="14.975113364491438"><ele>55.0</ele><time>2026-04-25T16:05:24Z</time></trkpt><trkpt lat="40.22391426606477" lon="14.97527017626596"><ele>55.0</ele><time>2026-04-25T16:05:26Z</time></trkpt><trkpt lat="40.223890295720324" lon="14.975350730897294"><ele>58.4</ele><time>2026-04-25T16:05:27Z</time></trkpt><trkpt lat="40.22386357953" lon="14.975504311669448"><ele>61.8</ele><time>2026-04-25T16:05:29Z</time></trkpt><trkpt lat="40.22381602622521" lon="14.975577975437414"><ele>65.2</ele><time>2026-04-25T16:05:30Z</time></trkpt><trkpt lat="40.22375843118213" lon="14.975647050357374"><ele>68.6</ele><time>2026-04-25T16:05:31Z</time></trkpt><trkpt lat="40.22369526358947" lon="14.975735477348762"><ele>72.0</ele><time>2026-04-25T16:05:32Z</time></trkpt><trkpt lat="40.22363256873091" lon="14.975843269989705"><ele>67.0</ele><time>2026-04-25T16:05:33Z</time></trkpt><trkpt lat="40.22356149890378" lon="14.975959214710615"><ele>62.0</ele><time>2026-04-25T16:05:34Z</time></trkpt><trkpt lat="40.223485547616924" lon="14.97610965658073"><ele>57.0</ele><time>2026-04-25T16:05:35Z</time></trkpt><trkpt lat="40.223410447121154" lon="14.976252664211712"><ele>52.0</ele><time>2026-04-25T16:05:36Z</time></trkpt><trkpt lat="40.22334292734364" lon="14.976391042520058"><ele>52.0</ele><time>2026-04-25T16:05:37Z</time></trkpt><trkpt lat="40.223278848945306" lon="14.976530457109005"><ele>52.0</ele><time>2026-04-25T16:05:38Z</time></trkpt><trkpt lat="40.22322597992996" lon="14.976677631042493"><ele>52.0</ele><time>2026-04-25T16:05:39Z</time></trkpt><trkpt lat="40.22321378053038" lon="14.976859828612406"><ele>52.0</ele><time>2026-04-25T16:05:40Z</time></trkpt><trkpt lat="40.22317008842702" lon="14.977022784294379"><ele>51.5</ele><time>2026-04-25T16:05:41Z</time></trkpt><trkpt lat="40.22313435934079" lon="14.977173738705702"><ele>51.0</ele><time>2026-04-25T16:05:42Z</time></trkpt><trkpt lat="40.22311710117027" lon="14.977323177812897"><ele>50.5</ele><time>2026-04-25T16:05:43Z</time></trkpt><trkpt lat="40.223072748871736" lon="14.977466945268693"><ele>50.0</ele><time>2026-04-25T16:05:44Z</time></trkpt><trkpt lat="40.22303896773103" lon="14.977621462799693"><ele>50.0</ele><time>2026-04-25T16:05:45Z</time></trkpt><trkpt lat="40.22299171991511" lon="14.977749782624391"><ele>50.0</ele><time>2026-04-25T16:05:46Z</time></trkpt><trkpt lat="40.22294714479528" lon="14.977865685715717"><ele>50.0</ele><time>2026-04-25T16:05:47Z</time></trkpt><trkpt lat="40.222928842701535" lon="14.978007179635375"><ele>50.0</ele><time>2026-04-25T16:05:48Z</time></trkpt><trkpt lat="40.222884665427905" lon="14.978145170742888"><ele>50.0</ele><time>2026-04-25T16:05:49Z</time></trkpt><trkpt lat="40.22284916877726" lon="14.978286436107023"><ele>46.5</ele><time>2026-04-25T16:05:50Z</time></trkpt><trkpt lat="40.22279432346227" lon="14.978429414754391"><ele>43.0</ele><time>2026-04-25T16:05:51Z</time></trkpt><trkpt lat="40.2227397110176" lon="14.978569180850833"><ele>39.5</ele><time>2026-04-25T16:05:52Z</time></trkpt><trkpt lat="40.22270036268678" lon="14.97871090393629"><ele>36.0</ele><time>2026-04-25T16:05:53Z</time></trkpt><trkpt lat="40.222657890235986" lon="14.97885384488627"><ele>36.0</ele><time>2026-04-25T16:05:54Z</time></trkpt><trkpt lat="40.22260908510837" lon="14.978989722012283"><ele>36.0</ele><time>2026-04-25T16:05:55Z</time></trkpt><trkpt lat="40.222550487414594" lon="14.97913733241221"><ele>36.0</ele><time>2026-04-25T16:05:56Z</time></trkpt><trkpt lat="40.22247868729302" lon="14.97929475493688"><ele>36.0</ele><time>2026-04-25T16:05:57Z</time></trkpt><trkpt lat="40.22240974480059" lon="14.979446586872433"><ele>33.5</ele><time>2026-04-25T16:05:58Z</time></trkpt><trkpt lat="40.22234144560203" lon="14.979588008133291"><ele>31.0</ele><time>2026-04-25T16:05:59Z</time></trkpt><trkpt lat="40.22227541264466" lon="14.979726723235226"><ele>28.5</ele><time>2026-04-25T16:06:00Z</time></trkpt><trkpt lat="40.22221197408804" lon="14.979855265448345"><ele>26.0</ele><time>2026-04-25T16:06:00.999Z</time></trkpt><trkpt lat="40.222159350044635" lon="14.979979101339355"><ele>24.666666666666664</ele><time>2026-04-25T16:06:01.999Z</time></trkpt><trkpt lat="40.222110660160496" lon="14.980072504443076"><ele>23.333333333333332</ele><time>2026-04-25T16:06:02.999Z</time></trkpt><trkpt lat="40.222076417329" lon="14.980148852162854"><ele>22.0</ele><time>2026-04-25T16:06:03.999Z</time></trkpt><trkpt lat="40.22203539161326" lon="14.980243215324068"><ele>20.666666666666664</ele><time>2026-04-25T16:06:05.999Z</time></trkpt><trkpt lat="40.222020807791516" lon="14.980351280043259"><ele>19.333333333333332</ele><time>2026-04-25T16:06:06.999Z</time></trkpt><trkpt lat="40.22197655159779" lon="14.980490179703857"><ele>18.0</ele><time>2026-04-25T16:06:07.999Z</time></trkpt><trkpt lat="40.22195174483536" lon="14.980618376993629"><ele>18.0</ele><time>2026-04-25T16:06:08.999Z</time></trkpt><trkpt lat="40.221926912761965" lon="14.980739780896577"><ele>18.0</ele><time>2026-04-25T16:06:09.999Z</time></trkpt><trkpt lat="40.221901133425966" lon="14.980854347233322"><ele>18.0</ele><time>2026-04-25T16:06:10.999Z</time></trkpt><trkpt lat="40.221864731246555" lon="14.980972901369563"><ele>18.0</ele><time>2026-04-25T16:06:11.999Z</time></trkpt><trkpt lat="40.22182736273716" lon="14.98108288512758"><ele>18.0</ele><time>2026-04-25T16:06:12.999Z</time></trkpt><trkpt lat="40.2217911460867" lon="14.981191312582355"><ele>17.333333333333332</ele><time>2026-04-25T16:06:13.999Z</time></trkpt><trkpt lat="40.221758579785" lon="14.981296508509446"><ele>16.666666666666668</ele><time>2026-04-25T16:06:14.999Z</time></trkpt><trkpt lat="40.221723052387624" lon="14.981403172283132"><ele>16.0</ele><time>2026-04-25T16:06:15.999Z</time></trkpt><trkpt lat="40.22168921117986" lon="14.981503943452061"><ele>15.333333333333334</ele><time>2026-04-25T16:06:16.999Z</time></trkpt><trkpt lat="40.22165027974031" lon="14.98159669838867"><ele>14.666666666666668</ele><time>2026-04-25T16:06:17.999Z</time></trkpt><trkpt lat="40.22160339077529" lon="14.981697175094673"><ele>14.0</ele><time>2026-04-25T16:06:18.999Z</time></trkpt><trkpt lat="40.22153250185471" lon="14.981761509352259"><ele>13.2</ele><time>2026-04-25T16:06:19.999Z</time></trkpt><trkpt lat="40.221486074126666" lon="14.981860237382067"><ele>12.399999999999999</ele><time>2026-04-25T16:06:20.999Z</time></trkpt><trkpt lat="40.22142200108592" lon="14.98194297266111"><ele>11.6</ele><time>2026-04-25T16:06:21.999Z</time></trkpt><trkpt lat="40.22136831296878" lon="14.982046795385848"><ele>10.8</ele><time>2026-04-25T16:06:22.999Z</time></trkpt><trkpt lat="40.22132456243732" lon="14.982168698362658"><ele>10.0</ele><time>2026-04-25T16:06:23.999Z</time></trkpt><trkpt lat="40.22129111398621" lon="14.982296565147925"><ele>9.4</ele><time>2026-04-25T16:06:24.999Z</time></trkpt><trkpt lat="40.22127362782259" lon="14.982422061112485"><ele>8.8</ele><time>2026-04-25T16:06:25.999Z</time></trkpt><trkpt lat="40.221252095793595" lon="14.982533235021045"><ele>8.2</ele><time>2026-04-25T16:06:27Z</time></trkpt><trkpt lat="40.221226095508975" lon="14.982652829057526"><ele>7.6</ele><time>2026-04-25T16:06:28Z</time></trkpt><trkpt lat="40.22118813985826" lon="14.982783345721405"><ele>7.0</ele><time>2026-04-25T16:06:29Z</time></trkpt><trkpt lat="40.22115097101762" lon="14.982917199450219"><ele>6.3999999999999995</ele><time>2026-04-25T16:06:30Z</time></trkpt><trkpt lat="40.22111695841708" lon="14.983042616749076"><ele>5.799999999999999</ele><time>2026-04-25T16:06:31Z</time></trkpt><trkpt lat="40.22108402691233" lon="14.983158331853474"><ele>5.2</ele><time>2026-04-25T16:06:32Z</time></trkpt><trkpt lat="40.22104928014427" lon="14.983269479276357"><ele>4.6</ele><time>2026-04-25T16:06:33Z</time></trkpt><trkpt lat="40.221019980107236" lon="14.983371767073773"><ele>4.0</ele><time>2026-04-25T16:06:34Z</time></trkpt><trkpt lat="40.220998456134765" lon="14.983471051254664"><ele>3.9999999999999996</ele><time>2026-04-25T16:06:35Z</time></trkpt><trkpt lat="40.22097825494025" lon="14.983567482242188"><ele>4.0</ele><time>2026-04-25T16:06:36Z</time></trkpt><trkpt lat="40.220956411365904" lon="14.983649255450967"><ele>4.0</ele><time>2026-04-25T16:06:37Z</time></trkpt><trkpt lat="40.22093523287948" lon="14.983767546001099"><ele>4.0</ele><time>2026-04-25T16:06:39Z</time></trkpt><trkpt lat="40.22092097900855" lon="14.98385504703406"><ele>3.9999999999999996</ele><time>2026-04-25T16:06:42Z</time></trkpt><trkpt lat="40.22098822858795" lon="14.98381533875951"><ele>4.0</ele><time>2026-04-25T16:06:45Z</time></trkpt><trkpt lat="40.221079252246874" lon="14.98381708267593"><ele>4.0</ele><time>2026-04-25T16:06:59Z</time></trkpt><trkpt lat="40.22121831954664" lon="14.983841562040663"><ele>4.0</ele><time>2026-04-25T16:07:01Z</time></trkpt><trkpt lat="40.2213101819134" lon="14.983841586457821"><ele>4.0</ele><time>2026-04-25T16:07:02Z</time></trkpt><trkpt lat="40.22142339577091" lon="14.983825517744314"><ele>4.0</ele><time>2026-04-25T16:07:03Z</time></trkpt><trkpt lat="40.221553723967915" lon="14.983826726519398"><ele>4.5</ele><time>2026-04-25T16:07:04Z</time></trkpt><trkpt lat="40.221696627887546" lon="14.983827858016229"><ele>5.0</ele><time>2026-04-25T16:07:05Z</time></trkpt><trkpt lat="40.221808536405284" lon="14.983829515800803"><ele>5.5</ele><time>2026-04-25T16:07:06Z</time></trkpt><trkpt lat="40.22188976937462" lon="14.983831959242494"><ele>6.0</ele><time>2026-04-25T16:07:07Z</time></trkpt><trkpt lat="40.222025602706815" lon="14.983874164922787"><ele>6.0</ele><time>2026-04-25T16:07:09Z</time></trkpt><trkpt lat="40.222073349628154" lon="14.984042646395855"><ele>6.0</ele><time>2026-04-25T16:07:10Z</time></trkpt><trkpt lat="40.22201432118325" lon="14.984170680765434"><ele>6.0</ele><time>2026-04-25T16:07:11Z</time></trkpt><trkpt lat="40.22195273313735" lon="14.984256054878772"><ele>6.0</ele><time>2026-04-25T16:07:12Z</time></trkpt><trkpt lat="40.2218955837233" lon="14.984347615377581"><ele>6.0</ele><time>2026-04-25T16:07:13Z</time></trkpt><trkpt lat="40.221795483010524" lon="14.984413777372925"><ele>6.25</ele><time>2026-04-25T16:07:14Z</time></trkpt><trkpt lat="40.22168918668041" lon="14.984514258289876"><ele>6.5</ele><time>2026-04-25T16:07:15Z</time></trkpt><trkpt lat="40.221584265294446" lon="14.984616806524086"><ele>6.75</ele><time>2026-04-25T16:07:16Z</time></trkpt><trkpt lat="40.22150803394037" lon="14.984727377657567"><ele>7.0</ele><time>2026-04-25T16:07:17Z</time></trkpt><trkpt lat="40.22143231205472" lon="14.98479762957688"><ele>6.25</ele><time>2026-04-25T16:07:18Z</time></trkpt><trkpt lat="40.22138084074642" lon="14.984858065820436"><ele>5.5</ele><time>2026-04-25T16:07:19Z</time></trkpt><trkpt lat="40.22131806145001" lon="14.984984191956636"><ele>4.75</ele><time>2026-04-25T16:07:21Z</time></trkpt><trkpt lat="40.221299830384176" lon="14.985104049887676"><ele>4.0</ele><time>2026-04-25T16:07:23Z</time></trkpt><trkpt lat="40.221471088349084" lon="14.985166346596253"><ele>8.0</ele><time>2026-04-25T16:07:24Z</time></trkpt><trkpt lat="40.2215543550439" lon="14.985268130198888"><ele>12.0</ele><time>2026-04-25T16:07:25Z</time></trkpt><trkpt lat="40.22164002067302" lon="14.985359339940091"><ele>16.0</ele><time>2026-04-25T16:07:26Z</time></trkpt><trkpt lat="40.22173572313262" lon="14.985448488861577"><ele>20.0</ele><time>2026-04-25T16:07:27Z</time></trkpt><trkpt lat="40.221842698984105" lon="14.985537179779627"><ele>20.0</ele><time>2026-04-25T16:07:28Z</time></trkpt><trkpt lat="40.221963361939125" lon="14.985624024891633"><ele>20.0</ele><time>2026-04-25T16:07:29Z</time></trkpt><trkpt lat="40.22209798451061" lon="14.985682220522653"><ele>20.0</ele><time>2026-04-25T16:07:30Z</time></trkpt><trkpt lat="40.22224098872812" lon="14.98574132993165"><ele>20.0</ele><time>2026-04-25T16:07:31Z</time></trkpt><trkpt lat="40.22236906131205" lon="14.985788776777486"><ele>19.8</ele><time>2026-04-25T16:07:32Z</time></trkpt><trkpt lat="40.222483886337855" lon="14.985815228099556"><ele>19.6</ele><time>2026-04-25T16:07:33Z</time></trkpt><trkpt lat="40.222589577688964" lon="14.985825524905312"><ele>19.4</ele><time>2026-04-25T16:07:34Z</time></trkpt><trkpt lat="40.222678570769375" lon="14.985824753430471"><ele>19.2</ele><time>2026-04-25T16:07:35Z</time></trkpt><trkpt lat="40.22275060987891" lon="14.985826430655846"><ele>19.0</ele><time>2026-04-25T16:07:36Z</time></trkpt><trkpt lat="40.2228478549629" lon="14.98596059801825"><ele>24.25</ele><time>2026-04-25T16:07:38Z</time></trkpt><trkpt lat="40.2227975218671" lon="14.98612505202828"><ele>29.5</ele><time>2026-04-25T16:07:39Z</time></trkpt><trkpt lat="40.222640903578" lon="14.986118158512369"><ele>34.75</ele><time>2026-04-25T16:07:40Z</time></trkpt><trkpt lat="40.222526979887164" lon="14.986184466189748"><ele>40.0</ele><time>2026-04-25T16:07:41Z</time></trkpt><trkpt lat="40.22240204654943" lon="14.986256883984797"><ele>40.4</ele><time>2026-04-25T16:07:42Z</time></trkpt><trkpt lat="40.22228035855223" lon="14.986324611945818"><ele>40.8</ele><time>2026-04-25T16:07:43Z</time></trkpt><trkpt lat="40.22218177892756" lon="14.986374980835686"><ele>41.2</ele><time>2026-04-25T16:07:44Z</time></trkpt><trkpt lat="40.222096111666765" lon="14.98641906560277"><ele>41.6</ele><time>2026-04-25T16:07:45Z</time></trkpt><trkpt lat="40.2220316656002" lon="14.986456299929847"><ele>42.0</ele><time>2026-04-25T16:07:46Z</time></trkpt><trkpt lat="40.22192045151604" lon="14.986532690839038"><ele>42.0</ele><time>2026-04-25T16:07:48Z</time></trkpt><trkpt lat="40.22186617811232" lon="14.986581378351786"><ele>42.0</ele><time>2026-04-25T16:07:49Z</time></trkpt><trkpt lat="40.221793217453666" lon="14.986593649588825"><ele>42.0</ele><time>2026-04-25T16:07:50Z</time></trkpt><trkpt lat="40.22171936556505" lon="14.986431758687885"><ele>42.0</ele><time>2026-04-25T16:07:51Z</time></trkpt><trkpt lat="40.22159520698828" lon="14.98636033405066"><ele>42.0</ele><time>2026-04-25T16:07:52Z</time></trkpt><trkpt lat="40.22146297232332" lon="14.9862728030122"><ele>40.0</ele><time>2026-04-25T16:07:53Z</time></trkpt><trkpt lat="40.22133440655635" lon="14.986185399344336"><ele>38.0</ele><time>2026-04-25T16:07:54Z</time></trkpt><trkpt lat="40.22121153049355" lon="14.986122885943201"><ele>36.0</ele><time>2026-04-25T16:07:55Z</time></trkpt><trkpt lat="40.22110618629746" lon="14.986093611460177"><ele>34.0</ele><time>2026-04-25T16:07:56Z</time></trkpt><trkpt lat="40.22099933405361" lon="14.98611446439153"><ele>34.0</ele><time>2026-04-25T16:07:57Z</time></trkpt><trkpt lat="40.22091750173324" lon="14.986228698969093"><ele>34.0</ele><time>2026-04-25T16:07:58Z</time></trkpt><trkpt lat="40.22084836673077" lon="14.986323645312586"><ele>34.0</ele><time>2026-04-25T16:07:59Z</time></trkpt><trkpt lat="40.22080077909288" lon="14.98645914619576"><ele>34.0</ele><time>2026-04-25T16:08:00Z</time></trkpt><trkpt lat="40.22076636908743" lon="14.98661152440834"><ele>36.8</ele><time>2026-04-25T16:08:01Z</time></trkpt><trkpt lat="40.22073482879772" lon="14.986752974597842"><ele>39.599999999999994</ele><time>2026-04-25T16:08:02Z</time></trkpt><trkpt lat="40.220698892634346" lon="14.986882312135188"><ele>42.4</ele><time>2026-04-25T16:08:03Z</time></trkpt><trkpt lat="40.22065689117488" lon="14.987009376587014"><ele>45.199999999999996</ele><time>2026-04-25T16:08:03.999Z</time></trkpt><trkpt lat="40.22061090413941" lon="14.987143513005835"><ele>48.0</ele><time>2026-04-25T16:08:04.999Z</time></trkpt><trkpt lat="40.22057222537119" lon="14.987284903871382"><ele>40.0</ele><time>2026-04-25T16:08:05.999Z</time></trkpt><trkpt lat="40.22053135648977" lon="14.987430111175964"><ele>32.0</ele><time>2026-04-25T16:08:06.999Z</time></trkpt><trkpt lat="40.220488595493165" lon="14.98758181777895"><ele>24.0</ele><time>2026-04-25T16:08:07.999Z</time></trkpt><trkpt lat="40.22044770529223" lon="14.987745078283398"><ele>16.0</ele><time>2026-04-25T16:08:08.999Z</time></trkpt><trkpt lat="40.22041080636748" lon="14.987915100790362"><ele>16.0</ele><time>2026-04-25T16:08:09.999Z</time></trkpt><trkpt lat="40.22035849585471" lon="14.988087900002906"><ele>16.0</ele><time>2026-04-25T16:08:10.999Z</time></trkpt><trkpt lat="40.22028252250886" lon="14.988257935711687"><ele>16.0</ele><time>2026-04-25T16:08:11.999Z</time></trkpt><trkpt lat="40.22019002891636" lon="14.988425415505093"><ele>22.333333333333332</ele><time>2026-04-25T16:08:12.999Z</time></trkpt><trkpt lat="40.22009818421456" lon="14.988595726075092"><ele>28.666666666666664</ele><time>2026-04-25T16:08:13.999Z</time></trkpt><trkpt lat="40.22000628711013" lon="14.98876425042143"><ele>35.0</ele><time>2026-04-25T16:08:14.999Z</time></trkpt><trkpt lat="40.219915687919844" lon="14.98893713165075"><ele>35.0</ele><time>2026-04-25T16:08:15.999Z</time></trkpt><trkpt lat="40.21982059844858" lon="14.98911757417217"><ele>35.0</ele><time>2026-04-25T16:08:16.999Z</time></trkpt><trkpt lat="40.21974691601613" lon="14.989320186010366"><ele>35.0</ele><time>2026-04-25T16:08:17.999Z</time></trkpt><trkpt lat="40.219678930699786" lon="14.989509356526492"><ele>27.333333333333332</ele><time>2026-04-25T16:08:18.999Z</time></trkpt><trkpt lat="40.219624295428105" lon="14.989694521916615"><ele>19.666666666666664</ele><time>2026-04-25T16:08:19.999Z</time></trkpt><trkpt lat="40.21958238079673" lon="14.989894698471497"><ele>12.0</ele><time>2026-04-25T16:08:20.999Z</time></trkpt><trkpt lat="40.219530927185524" lon="14.990083771165821"><ele>12.0</ele><time>2026-04-25T16:08:21.999Z</time></trkpt><trkpt lat="40.21947093330082" lon="14.990267689913297"><ele>12.0</ele><time>2026-04-25T16:08:22.999Z</time></trkpt><trkpt lat="40.219412194761745" lon="14.99043921687873"><ele>12.0</ele><time>2026-04-25T16:08:23.999Z</time></trkpt><trkpt lat="40.21934509722466" lon="14.99059768960277"><ele>12.0</ele><time>2026-04-25T16:08:24.999Z</time></trkpt><trkpt lat="40.21927392007333" lon="14.990750867909956"><ele>14.25</ele><time>2026-04-25T16:08:25.999Z</time></trkpt><trkpt lat="40.21921057571701" lon="14.990908453060902"><ele>16.5</ele><time>2026-04-25T16:08:26.999Z</time></trkpt><trkpt lat="40.219156895653704" lon="14.991065436838381"><ele>18.75</ele><time>2026-04-25T16:08:27.999Z</time></trkpt><trkpt lat="40.21909804866681" lon="14.991230048662954"><ele>21.0</ele><time>2026-04-25T16:08:28.999Z</time></trkpt><trkpt lat="40.21904072646657" lon="14.991396965989917"><ele>21.0</ele><time>2026-04-25T16:08:29.999Z</time></trkpt><trkpt lat="40.21898902338121" lon="14.99156320876149"><ele>21.0</ele><time>2026-04-25T16:08:30.999Z</time></trkpt><trkpt lat="40.21894566416003" lon="14.991736775231203"><ele>21.0</ele><time>2026-04-25T16:08:31.999Z</time></trkpt><trkpt lat="40.218903847970786" lon="14.991917602546941"><ele>21.0</ele><time>2026-04-25T16:08:33Z</time></trkpt><trkpt lat="40.21885724479172" lon="14.99208675585535"><ele>19.25</ele><time>2026-04-25T16:08:34Z</time></trkpt><trkpt lat="40.218802034853496" lon="14.992254902509645"><ele>17.5</ele><time>2026-04-25T16:08:35Z</time></trkpt><trkpt lat="40.218739878608254" lon="14.992426921931514"><ele>15.75</ele><time>2026-04-25T16:08:36Z</time></trkpt><trkpt lat="40.21868394595537" lon="14.99260479913986"><ele>14.0</ele><time>2026-04-25T16:08:37Z</time></trkpt><trkpt lat="40.218632997951126" lon="14.992780442649213"><ele>14.0</ele><time>2026-04-25T16:08:38Z</time></trkpt><trkpt lat="40.21859006078832" lon="14.99295929542378"><ele>14.0</ele><time>2026-04-25T16:08:39Z</time></trkpt><trkpt lat="40.21854900291694" lon="14.99313134791105"><ele>14.0</ele><time>2026-04-25T16:08:40Z</time></trkpt><trkpt lat="40.21851057928627" lon="14.993295725296289"><ele>14.0</ele><time>2026-04-25T16:08:41Z</time></trkpt><trkpt lat="40.21846452625507" lon="14.99345917742279"><ele>15.5</ele><time>2026-04-25T16:08:42Z</time></trkpt><trkpt lat="40.218393933389905" lon="14.993629714387556"><ele>17.0</ele><time>2026-04-25T16:08:43Z</time></trkpt><trkpt lat="40.218329144093794" lon="14.993723395681295"><ele>18.5</ele><time>2026-04-25T16:08:44Z</time></trkpt><trkpt lat="40.21825328727399" lon="14.993877138301174"><ele>20.0</ele><time>2026-04-25T16:08:45Z</time></trkpt><trkpt lat="40.21819578160715" lon="14.99398864454922"><ele>17.75</ele><time>2026-04-25T16:08:46Z</time></trkpt><trkpt lat="40.218131217990084" lon="14.994115703244871"><ele>15.5</ele><time>2026-04-25T16:08:47Z</time></trkpt><trkpt lat="40.218070616342615" lon="14.994255594965608"><ele>13.25</ele><time>2026-04-25T16:08:48Z</time></trkpt><trkpt lat="40.218046743105226" lon="14.994419182664982"><ele>11.0</ele><time>2026-04-25T16:08:49Z</time></trkpt><trkpt lat="40.218001987790316" lon="14.99456736656098"><ele>11.0</ele><time>2026-04-25T16:08:50Z</time></trkpt><trkpt lat="40.217995247101115" lon="14.994719872719566"><ele>11.0</ele><time>2026-04-25T16:08:51Z</time></trkpt><trkpt lat="40.21802804520587" lon="14.994896321717547"><ele>11.0</ele><time>2026-04-25T16:08:52Z</time></trkpt><trkpt lat="40.218056235951806" lon="14.995045086399799"><ele>11.0</ele><time>2026-04-25T16:08:53Z</time></trkpt><trkpt lat="40.21809922560935" lon="14.995193909889418"><ele>11.0</ele><time>2026-04-25T16:08:54Z</time></trkpt><trkpt lat="40.21811494388815" lon="14.995357987106546"><ele>11.0</ele><time>2026-04-25T16:08:55Z</time></trkpt><trkpt lat="40.218097512229726" lon="14.995519987405153"><ele>11.0</ele><time>2026-04-25T16:08:56Z</time></trkpt><trkpt lat="40.21807579038903" lon="14.995674367196766"><ele>11.0</ele><time>2026-04-25T16:08:57Z</time></trkpt><trkpt lat="40.218054696094036" lon="14.995840955972092"><ele>11.25</ele><time>2026-04-25T16:08:58Z</time></trkpt><trkpt lat="40.21805093751396" lon="14.996024266784802"><ele>11.5</ele><time>2026-04-25T16:08:59Z</time></trkpt><trkpt lat="40.21806046802518" lon="14.996195982359694"><ele>11.75</ele><time>2026-04-25T16:09:00Z</time></trkpt><trkpt lat="40.218076652717066" lon="14.996364874206613"><ele>12.0</ele><time>2026-04-25T16:09:01Z</time></trkpt><trkpt lat="40.21809578945776" lon="14.996537540233502"><ele>12.333333333333332</ele><time>2026-04-25T16:09:02Z</time></trkpt><trkpt lat="40.21811860117355" lon="14.996711126747698"><ele>12.666666666666666</ele><time>2026-04-25T16:09:03Z</time></trkpt><trkpt lat="40.218146301846" lon="14.99692569036436"><ele>13.0</ele><time>2026-04-25T16:09:04Z</time></trkpt><trkpt lat="40.218218053165195" lon="14.997103731823385"><ele>14.666666666666666</ele><time>2026-04-25T16:09:05Z</time></trkpt><trkpt lat="40.2182999605466" lon="14.997274608148635"><ele>16.333333333333332</ele><time>2026-04-25T16:09:06Z</time></trkpt><trkpt lat="40.21837855466868" lon="14.997441507229947"><ele>18.0</ele><time>2026-04-25T16:09:07Z</time></trkpt><trkpt lat="40.21845233886178" lon="14.997620702949389"><ele>18.0</ele><time>2026-04-25T16:09:08Z</time></trkpt><trkpt lat="40.218523964818395" lon="14.997798271843756"><ele>18.0</ele><time>2026-04-25T16:09:09Z</time></trkpt><trkpt lat="40.2185941300947" lon="14.99796598899385"><ele>18.0</ele><time>2026-04-25T16:09:10Z</time></trkpt><trkpt lat="40.21866448215916" lon="14.998129943964136"><ele>18.0</ele><time>2026-04-25T16:09:11Z</time></trkpt><trkpt lat="40.218733692396974" lon="14.998290677653786"><ele>17.5</ele><time>2026-04-25T16:09:12Z</time></trkpt><trkpt lat="40.21879582767812" lon="14.998449191964685"><ele>17.0</ele><time>2026-04-25T16:09:13Z</time></trkpt><trkpt lat="40.21882887296086" lon="14.998600510857809"><ele>16.5</ele><time>2026-04-25T16:09:14Z</time></trkpt><trkpt lat="40.218812686947544" lon="14.998775181295585"><ele>16.0</ele><time>2026-04-25T16:09:15Z</time></trkpt><trkpt lat="40.21872205598107" lon="14.998808155387511"><ele>15.999999999999998</ele><time>2026-04-25T16:09:16Z</time></trkpt><trkpt lat="40.21864874957533" lon="14.998883328355324"><ele>16.0</ele><time>2026-04-25T16:09:17Z</time></trkpt><trkpt lat="40.218585671727446" lon="14.998951117575011"><ele>16.0</ele><time>2026-04-25T16:09:18Z</time></trkpt><trkpt lat="40.2185286686101" lon="14.999014427092407"><ele>16.0</ele><time>2026-04-25T16:09:20Z</time></trkpt><trkpt lat="40.218458398570874" lon="14.999091292591746"><ele>15.999999999999998</ele><time>2026-04-25T16:09:24Z</time></trkpt><trkpt lat="40.21840675202007" lon="14.999147535421699"><ele>16.0</ele><time>2026-04-25T16:09:25Z</time></trkpt><trkpt lat="40.218353120798234" lon="14.999206361550492"><ele>15.833333333333332</ele><time>2026-04-25T16:09:26Z</time></trkpt><trkpt lat="40.21829298842917" lon="14.999272646237738"><ele>15.666666666666666</ele><time>2026-04-25T16:09:27Z</time></trkpt><trkpt lat="40.218233223030595" lon="14.999337784403178"><ele>15.5</ele><time>2026-04-25T16:09:28Z</time></trkpt><trkpt lat="40.21818044287077" lon="14.999395404688423"><ele>15.333333333333332</ele><time>2026-04-25T16:09:29Z</time></trkpt><trkpt lat="40.218124363026085" lon="14.99945662719463"><ele>15.166666666666666</ele><time>2026-04-25T16:09:30Z</time></trkpt><trkpt lat="40.21804238321206" lon="14.999546124839021"><ele>15.0</ele><time>2026-04-25T16:09:31Z</time></trkpt><trkpt lat="40.21792753209122" lon="14.999672182837857"><ele>16.0</ele><time>2026-04-25T16:09:32Z</time></trkpt><trkpt lat="40.21778994257234" lon="14.999823858998274"><ele>17.0</ele><time>2026-04-25T16:09:33Z</time></trkpt><trkpt lat="40.21769896833006" lon="14.99992386359476"><ele>18.0</ele><time>2026-04-25T16:09:34Z</time></trkpt><trkpt lat="40.21760984843973" lon="15.00001994601367"><ele>19.0</ele><time>2026-04-25T16:09:35Z</time></trkpt><trkpt lat="40.21752896004237" lon="15.000107153818808"><ele>19.0</ele><time>2026-04-25T16:09:36Z</time></trkpt><trkpt lat="40.217452779128905" lon="15.000193110238405"><ele>19.0</ele><time>2026-04-25T16:09:37Z</time></trkpt><trkpt lat="40.2173841411482" lon="15.000270869882513"><ele>19.0</ele><time>2026-04-25T16:09:38Z</time></trkpt><trkpt lat="40.21732416964845" lon="15.000338837016347"><ele>19.0</ele><time>2026-04-25T16:09:39Z</time></trkpt><trkpt lat="40.21723387716516" lon="15.00044116591034"><ele>19.0</ele><time>2026-04-25T16:09:41Z</time></trkpt><trkpt lat="40.21724995941647" lon="15.000597467348141"><ele>19.166666666666664</ele><time>2026-04-25T16:09:42Z</time></trkpt><trkpt lat="40.21721060107651" lon="15.000663999105694"><ele>19.333333333333332</ele><time>2026-04-25T16:09:43Z</time></trkpt><trkpt lat="40.217179404483645" lon="15.000747394592569"><ele>19.5</ele><time>2026-04-25T16:09:44Z</time></trkpt><trkpt lat="40.2171524706103" lon="15.000837573288397"><ele>19.666666666666668</ele><time>2026-04-25T16:09:45Z</time></trkpt><trkpt lat="40.217153503174046" lon="15.000933954685435"><ele>19.833333333333336</ele><time>2026-04-25T16:09:46Z</time></trkpt><trkpt lat="40.21708367482418" lon="15.00096063236068"><ele>20.0</ele><time>2026-04-25T16:09:47Z</time></trkpt><trkpt lat="40.21727377492145" lon="15.00104341566646"><ele>20.25</ele><time>2026-04-25T16:09:48Z</time></trkpt><trkpt lat="40.217375104271106" lon="15.001140243338199"><ele>20.5</ele><time>2026-04-25T16:09:49Z</time></trkpt><trkpt lat="40.217474377055126" lon="15.001235105670778"><ele>20.75</ele><time>2026-04-25T16:09:50Z</time></trkpt><trkpt lat="40.21756691798808" lon="15.001340393811669"><ele>21.0</ele><time>2026-04-25T16:09:51Z</time></trkpt><trkpt lat="40.21765776491336" lon="15.00146308642223"><ele>21.0</ele><time>2026-04-25T16:09:52Z</time></trkpt><trkpt lat="40.21770773698852" lon="15.001664798622606"><ele>21.0</ele><time>2026-04-25T16:09:53Z</time></trkpt><trkpt lat="40.217793152527484" lon="15.001832070302667"><ele>21.0</ele><time>2026-04-25T16:09:54Z</time></trkpt><trkpt lat="40.217878323824216" lon="15.001992224583226"><ele>21.25</ele><time>2026-04-25T16:09:55Z</time></trkpt><trkpt lat="40.21795869431634" lon="15.002135954524007"><ele>21.5</ele><time>2026-04-25T16:09:56Z</time></trkpt><trkpt lat="40.21803764445923" lon="15.002263189565252"><ele>21.75</ele><time>2026-04-25T16:09:57Z</time></trkpt><trkpt lat="40.21810988177883" lon="15.002362140420361"><ele>22.0</ele><time>2026-04-25T16:09:58Z</time></trkpt><trkpt lat="40.218176036947426" lon="15.002445811664726"><ele>22.400000000000002</ele><time>2026-04-25T16:09:59Z</time></trkpt><trkpt lat="40.218233782097734" lon="15.002531793839571"><ele>22.8</ele><time>2026-04-25T16:10:00Z</time></trkpt><trkpt lat="40.21828769301338" lon="15.00258575811475"><ele>23.2</ele><time>2026-04-25T16:10:01Z</time></trkpt><trkpt lat="40.21839949016599" lon="15.00256368168332"><ele>23.6</ele><time>2026-04-25T16:10:03Z</time></trkpt><trkpt lat="40.21846696770845" lon="15.002490644926276"><ele>24.0</ele><time>2026-04-25T16:10:05Z</time></trkpt><trkpt lat="40.21858822562482" lon="15.002563225308553"><ele>24.0</ele><time>2026-04-25T16:10:07Z</time></trkpt><trkpt lat="40.21866022358402" lon="15.002595059501726"><ele>24.0</ele><time>2026-04-25T16:10:09Z</time></trkpt><trkpt lat="40.21858817701403" lon="15.002709157565578"><ele>24.0</ele><time>2026-04-25T16:10:10.999Z</time></trkpt><trkpt lat="40.21852855804469" lon="15.002826795991293"><ele>24.0</ele><time>2026-04-25T16:10:11.999Z</time></trkpt><trkpt lat="40.21846747802248" lon="15.002964158852718"><ele>24.0</ele><time>2026-04-25T16:10:12.999Z</time></trkpt><trkpt lat="40.21841992993669" lon="15.003086048366074"><ele>24.0</ele><time>2026-04-25T16:10:13.999Z</time></trkpt><trkpt lat="40.21837040170884" lon="15.003216884405385"><ele>24.0</ele><time>2026-04-25T16:10:14.999Z</time></trkpt><trkpt lat="40.21832687038448" lon="15.003331878758752"><ele>24.0</ele><time>2026-04-25T16:10:15.999Z</time></trkpt><trkpt lat="40.21828787612984" lon="15.003434228291344"><ele>24.0</ele><time>2026-04-25T16:10:16.999Z</time></trkpt><trkpt lat="40.2182459762686" lon="15.003543378249464"><ele>24.0</ele><time>2026-04-25T16:10:17.999Z</time></trkpt><trkpt lat="40.21819642838154" lon="15.003672451233902"><ele>24.5</ele><time>2026-04-25T16:10:18.999Z</time></trkpt><trkpt lat="40.21813553015099" lon="15.003826529843012"><ele>25.0</ele><time>2026-04-25T16:10:19.999Z</time></trkpt><trkpt lat="40.21807926107452" lon="15.003965749060153"><ele>25.5</ele><time>2026-04-25T16:10:20.999Z</time></trkpt><trkpt lat="40.2180214573724" lon="15.004099991791607"><ele>26.0</ele><time>2026-04-25T16:10:21.999Z</time></trkpt><trkpt lat="40.217972447581154" lon="15.004207221154212"><ele>26.8</ele><time>2026-04-25T16:10:22.999Z</time></trkpt><trkpt lat="40.21793020003263" lon="15.004292351096918"><ele>27.6</ele><time>2026-04-25T16:10:23.999Z</time></trkpt><trkpt lat="40.21786899063656" lon="15.004415687344592"><ele>28.4</ele><time>2026-04-25T16:10:25.999Z</time></trkpt><trkpt lat="40.21777624929573" lon="15.004458195319735"><ele>29.2</ele><time>2026-04-25T16:10:27.999Z</time></trkpt><trkpt lat="40.217709703640494" lon="15.004275931097586"><ele>30.0</ele><time>2026-04-25T16:10:28.999Z</time></trkpt><trkpt lat="40.21758300092881" lon="15.004187868567842"><ele>29.0</ele><time>2026-04-25T16:10:29.999Z</time></trkpt><trkpt lat="40.21746651473381" lon="15.004090331319688"><ele>28.0</ele><time>2026-04-25T16:10:30.999Z</time></trkpt><trkpt lat="40.21735733697392" lon="15.003996360245603"><ele>27.0</ele><time>2026-04-25T16:10:31.999Z</time></trkpt><trkpt lat="40.21724893134211" lon="15.003897898833399"><ele>26.0</ele><time>2026-04-25T16:10:32.999Z</time></trkpt><trkpt lat="40.21712756231077" lon="15.003797541758217"><ele>28.0</ele><time>2026-04-25T16:10:33.999Z</time></trkpt><trkpt lat="40.216982286707164" lon="15.003717389447953"><ele>30.0</ele><time>2026-04-25T16:10:34.999Z</time></trkpt><trkpt lat="40.21682190450899" lon="15.00369466496106"><ele>32.0</ele><time>2026-04-25T16:10:35.999Z</time></trkpt><trkpt lat="40.216694413282504" lon="15.00370448037809"><ele>34.0</ele><time>2026-04-25T16:10:36.999Z</time></trkpt><trkpt lat="40.21660282835462" lon="15.00366716804386"><ele>34.0</ele><time>2026-04-25T16:10:37.999Z</time></trkpt><trkpt lat="40.21651362551813" lon="15.003671257127483"><ele>34.0</ele><time>2026-04-25T16:10:39Z</time></trkpt><trkpt lat="40.21642978427126" lon="15.003859732595158"><ele>34.0</ele><time>2026-04-25T16:10:40Z</time></trkpt><trkpt lat="40.21638646471341" lon="15.003925823668903"><ele>34.0</ele><time>2026-04-25T16:10:41Z</time></trkpt><trkpt lat="40.21637502764375" lon="15.004034023436958"><ele>34.0</ele><time>2026-04-25T16:10:42Z</time></trkpt><trkpt lat="40.21642786449265" lon="15.004174486317144"><ele>37.5</ele><time>2026-04-25T16:10:43Z</time></trkpt><trkpt lat="40.216455079050256" lon="15.00430371521427"><ele>41.0</ele><time>2026-04-25T16:10:44Z</time></trkpt><trkpt lat="40.216468315961954" lon="15.004435059838094"><ele>44.5</ele><time>2026-04-25T16:10:45Z</time></trkpt><trkpt lat="40.21643625669364" lon="15.004579961297544"><ele>48.0</ele><time>2026-04-25T16:10:46Z</time></trkpt><trkpt lat="40.21640667281113" lon="15.004750274829508"><ele>48.0</ele><time>2026-04-25T16:10:47Z</time></trkpt><trkpt lat="40.21639957811254" lon="15.00491589641775"><ele>48.0</ele><time>2026-04-25T16:10:48Z</time></trkpt><trkpt lat="40.21638822358283" lon="15.00508697094288"><ele>48.0</ele><time>2026-04-25T16:10:49Z</time></trkpt><trkpt lat="40.21639459921701" lon="15.005264006609364"><ele>48.0</ele><time>2026-04-25T16:10:50Z</time></trkpt><trkpt lat="40.21641476939885" lon="15.005426735967374"><ele>48.25</ele><time>2026-04-25T16:10:51Z</time></trkpt><trkpt lat="40.21644049581358" lon="15.005581488662926"><ele>48.5</ele><time>2026-04-25T16:10:52Z</time></trkpt><trkpt lat="40.216479911485884" lon="15.005735327331658"><ele>48.75</ele><time>2026-04-25T16:10:53Z</time></trkpt><trkpt lat="40.21651676355022" lon="15.005898078033464"><ele>49.0</ele><time>2026-04-25T16:10:54Z</time></trkpt><trkpt lat="40.21655538688494" lon="15.006081699601387"><ele>49.0</ele><time>2026-04-25T16:10:55Z</time></trkpt><trkpt lat="40.216584471109485" lon="15.006267846640883"><ele>49.0</ele><time>2026-04-25T16:10:56Z</time></trkpt><trkpt lat="40.21660502265806" lon="15.006447319976722"><ele>49.0</ele><time>2026-04-25T16:10:57Z</time></trkpt><trkpt lat="40.21662954529193" lon="15.006611309350806"><ele>49.0</ele><time>2026-04-25T16:10:58Z</time></trkpt><trkpt lat="40.2166499909905" lon="15.006777397386262"><ele>50.25</ele><time>2026-04-25T16:10:59Z</time></trkpt><trkpt lat="40.21666834322924" lon="15.00695578247755"><ele>51.5</ele><time>2026-04-25T16:11:00Z</time></trkpt><trkpt lat="40.21668172181826" lon="15.007156903294131"><ele>52.75</ele><time>2026-04-25T16:11:01Z</time></trkpt><trkpt lat="40.21668444958662" lon="15.0073605493662"><ele>54.0</ele><time>2026-04-25T16:11:02Z</time></trkpt><trkpt lat="40.21668718557177" lon="15.007547005094429"><ele>55.25</ele><time>2026-04-25T16:11:03Z</time></trkpt><trkpt lat="40.216705897240765" lon="15.007716777537837"><ele>56.5</ele><time>2026-04-25T16:11:04Z</time></trkpt><trkpt lat="40.21673448301255" lon="15.007886377822572"><ele>57.75</ele><time>2026-04-25T16:11:05Z</time></trkpt><trkpt lat="40.216751173202184" lon="15.008042428344469"><ele>59.0</ele><time>2026-04-25T16:11:06Z</time></trkpt><trkpt lat="40.21676376209942" lon="15.008199168978493"><ele>61.25</ele><time>2026-04-25T16:11:07Z</time></trkpt><trkpt lat="40.21677251827241" lon="15.008374239959629"><ele>63.5</ele><time>2026-04-25T16:11:08Z</time></trkpt><trkpt lat="40.21676238780293" lon="15.008566463286414"><ele>65.75</ele><time>2026-04-25T16:11:09Z</time></trkpt><trkpt lat="40.21673495223355" lon="15.00873781302854"><ele>68.0</ele><time>2026-04-25T16:11:10Z</time></trkpt><trkpt lat="40.21671673943064" lon="15.008884863629154"><ele>68.0</ele><time>2026-04-25T16:11:11Z</time></trkpt><trkpt lat="40.21670533107998" lon="15.009026014881037"><ele>68.0</ele><time>2026-04-25T16:11:12Z</time></trkpt><trkpt lat="40.216703291068406" lon="15.009197718400783"><ele>68.0</ele><time>2026-04-25T16:11:13Z</time></trkpt><trkpt lat="40.2166941817258" lon="15.00936650175942"><ele>68.0</ele><time>2026-04-25T16:11:14Z</time></trkpt><trkpt lat="40.21668508656665" lon="15.00950256121431"><ele>68.5</ele><time>2026-04-25T16:11:15Z</time></trkpt><trkpt lat="40.21668005755772" lon="15.009615748846537"><ele>69.0</ele><time>2026-04-25T16:11:16Z</time></trkpt><trkpt lat="40.21668322741207" lon="15.009720276088213"><ele>69.5</ele><time>2026-04-25T16:11:17Z</time></trkpt><trkpt lat="40.21669781987876" lon="15.009820485111272"><ele>70.0</ele><time>2026-04-25T16:11:18Z</time></trkpt><trkpt lat="40.21672312957712" lon="15.009929082294878"><ele>70.5</ele><time>2026-04-25T16:11:19Z</time></trkpt><trkpt lat="40.21677301997505" lon="15.010034094289594"><ele>71.0</ele><time>2026-04-25T16:11:20Z</time></trkpt><trkpt lat="40.216823577686775" lon="15.010152377350488"><ele>72.5</ele><time>2026-04-25T16:11:21Z</time></trkpt><trkpt lat="40.216887722234326" lon="15.010290369437532"><ele>74.0</ele><time>2026-04-25T16:11:22Z</time></trkpt><trkpt lat="40.21694768404704" lon="15.010427098761832"><ele>75.5</ele><time>2026-04-25T16:11:23Z</time></trkpt><trkpt lat="40.21699732285413" lon="15.010548996606579"><ele>77.0</ele><time>2026-04-25T16:11:24Z</time></trkpt><trkpt lat="40.21702518631182" lon="15.010684059774308"><ele>79.25</ele><time>2026-04-25T16:11:25Z</time></trkpt><trkpt lat="40.217075098073224" lon="15.010836103533505"><ele>81.5</ele><time>2026-04-25T16:11:26Z</time></trkpt><trkpt lat="40.217129176392206" lon="15.011005747006667"><ele>83.75</ele><time>2026-04-25T16:11:27Z</time></trkpt><trkpt lat="40.21717486085252" lon="15.01116747308175"><ele>86.0</ele><time>2026-04-25T16:11:28Z</time></trkpt><trkpt lat="40.21721227124984" lon="15.011309638473486"><ele>86.0</ele><time>2026-04-25T16:11:29Z</time></trkpt><trkpt lat="40.21724765923256" lon="15.01144089881017"><ele>86.0</ele><time>2026-04-25T16:11:30Z</time></trkpt><trkpt lat="40.2172807480348" lon="15.011560825447063"><ele>86.0</ele><time>2026-04-25T16:11:31Z</time></trkpt><trkpt lat="40.21731260360822" lon="15.011668658485608"><ele>86.0</ele><time>2026-04-25T16:11:32Z</time></trkpt><trkpt lat="40.21733193157087" lon="15.011761481872346"><ele>86.0</ele><time>2026-04-25T16:11:33Z</time></trkpt><trkpt lat="40.2173318317874" lon="15.01184864643174"><ele>86.0</ele><time>2026-04-25T16:11:34Z</time></trkpt><trkpt lat="40.21732033363398" lon="15.011942885490107"><ele>88.6</ele><time>2026-04-25T16:11:35Z</time></trkpt><trkpt lat="40.21731322665734" lon="15.012060015743458"><ele>91.19999999999999</ele><time>2026-04-25T16:11:36Z</time></trkpt><trkpt lat="40.21730066913761" lon="15.012203418459826"><ele>93.80000000000001</ele><time>2026-04-25T16:11:37Z</time></trkpt><trkpt lat="40.217286942176145" lon="15.012345552327714"><ele>96.4</ele><time>2026-04-25T16:11:38Z</time></trkpt><trkpt lat="40.21727745349429" lon="15.012454575686162"><ele>99.0</ele><time>2026-04-25T16:11:39Z</time></trkpt><trkpt lat="40.21730070152192" lon="15.012542631731877"><ele>94.8</ele><time>2026-04-25T16:11:40Z</time></trkpt><trkpt lat="40.2173985213267" lon="15.012656240389905"><ele>90.60000000000001</ele><time>2026-04-25T16:11:42Z</time></trkpt><trkpt lat="40.21747268996602" lon="15.012723696903"><ele>86.4</ele><time>2026-04-25T16:11:43Z</time></trkpt><trkpt lat="40.217548076906894" lon="15.012793260566985"><ele>82.2</ele><time>2026-04-25T16:11:44Z</time></trkpt><trkpt lat="40.217624895911435" lon="15.01286242721636"><ele>78.0</ele><time>2026-04-25T16:11:45Z</time></trkpt><trkpt lat="40.217673697476215" lon="15.012986670727592"><ele>78.0</ele><time>2026-04-25T16:11:46Z</time></trkpt><trkpt lat="40.217694657180864" lon="15.013143988923689"><ele>78.0</ele><time>2026-04-25T16:11:47Z</time></trkpt><trkpt lat="40.21768379851093" lon="15.013315037535575"><ele>78.0</ele><time>2026-04-25T16:11:48Z</time></trkpt><trkpt lat="40.217713869853235" lon="15.013496125181875"><ele>78.0</ele><time>2026-04-25T16:11:49Z</time></trkpt><trkpt lat="40.217741590263685" lon="15.013651162954867"><ele>79.33333333333333</ele><time>2026-04-25T16:11:50Z</time></trkpt><trkpt lat="40.217762481235276" lon="15.013778140939191"><ele>80.66666666666667</ele><time>2026-04-25T16:11:51Z</time></trkpt><trkpt lat="40.2178053320383" lon="15.013880654273047"><ele>82.0</ele><time>2026-04-25T16:11:52Z</time></trkpt><trkpt lat="40.21782840305634" lon="15.013967363591846"><ele>83.33333333333334</ele><time>2026-04-25T16:11:53Z</time></trkpt><trkpt lat="40.21786216487161" lon="15.014049204407184"><ele>84.66666666666667</ele><time>2026-04-25T16:11:54Z</time></trkpt><trkpt lat="40.21790294016954" lon="15.014146277991275"><ele>86.0</ele><time>2026-04-25T16:11:55Z</time></trkpt><trkpt lat="40.217951422026125" lon="15.014243830581727"><ele>87.6</ele><time>2026-04-25T16:11:56Z</time></trkpt><trkpt lat="40.21798671859084" lon="15.014344041944703"><ele>89.19999999999999</ele><time>2026-04-25T16:11:57Z</time></trkpt><trkpt lat="40.21799372641805" lon="15.01447377656819"><ele>90.80000000000001</ele><time>2026-04-25T16:11:58Z</time></trkpt><trkpt lat="40.217994472423634" lon="15.014590856526066"><ele>92.4</ele><time>2026-04-25T16:11:59Z</time></trkpt><trkpt lat="40.21801323196122" lon="15.01470232940234"><ele>94.0</ele><time>2026-04-25T16:12:00Z</time></trkpt><trkpt lat="40.21807526650079" lon="15.014806441042428"><ele>94.0</ele><time>2026-04-25T16:12:02Z</time></trkpt><trkpt lat="40.21814342710779" lon="15.014837548281488"><ele>94.0</ele><time>2026-04-25T16:12:03Z</time></trkpt><trkpt lat="40.218227054864066" lon="15.014943629527457"><ele>94.0</ele><time>2026-04-25T16:12:04Z</time></trkpt><trkpt lat="40.21830898684899" lon="15.015095204304687"><ele>94.0</ele><time>2026-04-25T16:12:05Z</time></trkpt><trkpt lat="40.21838947571299" lon="15.015250293723842"><ele>94.0</ele><time>2026-04-25T16:12:06Z</time></trkpt><trkpt lat="40.21846452601913" lon="15.01539465286264"><ele>94.0</ele><time>2026-04-25T16:12:07Z</time></trkpt><trkpt lat="40.21854970370706" lon="15.0155555305329"><ele>94.0</ele><time>2026-04-25T16:12:08Z</time></trkpt><trkpt lat="40.21864571007877" lon="15.015716397499387"><ele>94.0</ele><time>2026-04-25T16:12:09Z</time></trkpt><trkpt lat="40.21873472833689" lon="15.015862255651703"><ele>94.0</ele><time>2026-04-25T16:12:10Z</time></trkpt><trkpt lat="40.21879929106655" lon="15.015997750700596"><ele>94.0</ele><time>2026-04-25T16:12:11Z</time></trkpt><trkpt lat="40.21884731815007" lon="15.016141269121"><ele>94.0</ele><time>2026-04-25T16:12:12Z</time></trkpt><trkpt lat="40.21886746198389" lon="15.016298200321565"><ele>94.0</ele><time>2026-04-25T16:12:13Z</time></trkpt><trkpt lat="40.218869657925175" lon="15.016433635634495"><ele>94.0</ele><time>2026-04-25T16:12:14Z</time></trkpt><trkpt lat="40.218867869518434" lon="15.016547725921175"><ele>94.0</ele><time>2026-04-25T16:12:15Z</time></trkpt><trkpt lat="40.21885559270343" lon="15.01667730501245"><ele>94.0</ele><time>2026-04-25T16:12:15.999Z</time></trkpt><trkpt lat="40.21883639070414" lon="15.016831216541643"><ele>94.0</ele><time>2026-04-25T16:12:16.999Z</time></trkpt><trkpt lat="40.218802865835094" lon="15.01699589674043"><ele>94.0</ele><time>2026-04-25T16:12:17.999Z</time></trkpt><trkpt lat="40.2187609323468" lon="15.017140542285619"><ele>96.5</ele><time>2026-04-25T16:12:18.999Z</time></trkpt><trkpt lat="40.21873214573193" lon="15.017304009967365"><ele>99.0</ele><time>2026-04-25T16:12:19.999Z</time></trkpt><trkpt lat="40.21865610060564" lon="15.017449934852161"><ele>101.5</ele><time>2026-04-25T16:12:20.999Z</time></trkpt><trkpt lat="40.21859027373404" lon="15.017578319174799"><ele>104.0</ele><time>2026-04-25T16:12:21.999Z</time></trkpt><trkpt lat="40.21851927840119" lon="15.017660127615578"><ele>104.0</ele><time>2026-04-25T16:12:22.999Z</time></trkpt><trkpt lat="40.21843082864677" lon="15.017717705389677"><ele>104.0</ele><time>2026-04-25T16:12:23.999Z</time></trkpt><trkpt lat="40.21831308938661" lon="15.017782383032522"><ele>104.0</ele><time>2026-04-25T16:12:24.999Z</time></trkpt><trkpt lat="40.21817819535114" lon="15.017852543311372"><ele>104.0</ele><time>2026-04-25T16:12:25.999Z</time></trkpt><trkpt lat="40.2180921818921" lon="15.017930364965935"><ele>103.75</ele><time>2026-04-25T16:12:26.999Z</time></trkpt><trkpt lat="40.21801534352604" lon="15.0180450289885"><ele>103.5</ele><time>2026-04-25T16:12:28.999Z</time></trkpt><trkpt lat="40.21799935399851" lon="15.018129009017414"><ele>103.25</ele><time>2026-04-25T16:12:29.999Z</time></trkpt><trkpt lat="40.218107787982284" lon="15.018378061324057"><ele>103.0</ele><time>2026-04-25T16:12:31.999Z</time></trkpt><trkpt lat="40.218160263099186" lon="15.018528933871695"><ele>103.0</ele><time>2026-04-25T16:12:32.999Z</time></trkpt><trkpt lat="40.21821371817783" lon="15.018695352066645"><ele>103.0</ele><time>2026-04-25T16:12:33.999Z</time></trkpt><trkpt lat="40.21825911026879" lon="15.018851757998089"><ele>103.0</ele><time>2026-04-25T16:12:34.999Z</time></trkpt><trkpt lat="40.21830794272925" lon="15.019018421130271"><ele>103.0</ele><time>2026-04-25T16:12:35.999Z</time></trkpt><trkpt lat="40.21836403635185" lon="15.019206508892815"><ele>107.0</ele><time>2026-04-25T16:12:36.999Z</time></trkpt><trkpt lat="40.21842321180969" lon="15.019403633493773"><ele>111.0</ele><time>2026-04-25T16:12:37.999Z</time></trkpt><trkpt lat="40.21848019186647" lon="15.019591456442965"><ele>115.0</ele><time>2026-04-25T16:12:38.999Z</time></trkpt><trkpt lat="40.21854191806748" lon="15.019790642068207"><ele>115.0</ele><time>2026-04-25T16:12:39.999Z</time></trkpt><trkpt lat="40.218599586286324" lon="15.019977931309587"><ele>115.0</ele><time>2026-04-25T16:12:40.999Z</time></trkpt><trkpt lat="40.21864706068454" lon="15.020139906603038"><ele>115.0</ele><time>2026-04-25T16:12:41.999Z</time></trkpt><trkpt lat="40.21869316262137" lon="15.020306715070793"><ele>115.0</ele><time>2026-04-25T16:12:42.999Z</time></trkpt><trkpt lat="40.218734971650186" lon="15.020494327542947"><ele>118.75</ele><time>2026-04-25T16:12:43.999Z</time></trkpt><trkpt lat="40.21875536983009" lon="15.020667353687921"><ele>122.5</ele><time>2026-04-25T16:12:45Z</time></trkpt><trkpt lat="40.218801849913696" lon="15.020804264924369"><ele>126.25</ele><time>2026-04-25T16:12:46Z</time></trkpt><trkpt lat="40.218863657608345" lon="15.020921113484974"><ele>130.0</ele><time>2026-04-25T16:12:47Z</time></trkpt><trkpt lat="40.21893746886177" lon="15.02106515260071"><ele>129.6</ele><time>2026-04-25T16:12:48Z</time></trkpt><trkpt lat="40.21899578335313" lon="15.021187406475086"><ele>129.2</ele><time>2026-04-25T16:12:49Z</time></trkpt><trkpt lat="40.21903824041626" lon="15.02127968271034"><ele>128.8</ele><time>2026-04-25T16:12:50Z</time></trkpt><trkpt lat="40.219074524858776" lon="15.021360693438996"><ele>128.4</ele><time>2026-04-25T16:12:51Z</time></trkpt><trkpt lat="40.219096823046264" lon="15.0214921194178"><ele>128.0</ele><time>2026-04-25T16:12:52Z</time></trkpt><trkpt lat="40.219088725287016" lon="15.02164192581026"><ele>131.20000000000002</ele><time>2026-04-25T16:12:53Z</time></trkpt><trkpt lat="40.21907199633276" lon="15.021768836279204"><ele>134.4</ele><time>2026-04-25T16:12:54Z</time></trkpt><trkpt lat="40.219070268490896" lon="15.021895510046223"><ele>137.60000000000002</ele><time>2026-04-25T16:12:55Z</time></trkpt><trkpt lat="40.21909605839627" lon="15.021997574519347"><ele>140.8</ele><time>2026-04-25T16:12:56Z</time></trkpt><trkpt lat="40.219184502139946" lon="15.022151531291877"><ele>144.0</ele><time>2026-04-25T16:12:58Z</time></trkpt><trkpt lat="40.219245136390455" lon="15.022262482988381"><ele>144.0</ele><time>2026-04-25T16:12:59Z</time></trkpt><trkpt lat="40.21930062983961" lon="15.022379175136962"><ele>144.0</ele><time>2026-04-25T16:13:00Z</time></trkpt><trkpt lat="40.21934643159245" lon="15.022497753594392"><ele>144.0</ele><time>2026-04-25T16:13:01Z</time></trkpt><trkpt lat="40.2193589370643" lon="15.02263496456455"><ele>144.0</ele><time>2026-04-25T16:13:02Z</time></trkpt><trkpt lat="40.219311047529445" lon="15.022799350652088"><ele>144.0</ele><time>2026-04-25T16:13:03Z</time></trkpt><trkpt lat="40.21929344101458" lon="15.022966988902768"><ele>147.6</ele><time>2026-04-25T16:13:04Z</time></trkpt><trkpt lat="40.219283531767985" lon="15.023138207538935"><ele>151.2</ele><time>2026-04-25T16:13:05Z</time></trkpt><trkpt lat="40.219287355382136" lon="15.023292618424625"><ele>154.79999999999998</ele><time>2026-04-25T16:13:06Z</time></trkpt><trkpt lat="40.21931765782691" lon="15.023403439007444"><ele>158.4</ele><time>2026-04-25T16:13:07Z</time></trkpt><trkpt lat="40.21933389492864" lon="15.023496334165717"><ele>162.0</ele><time>2026-04-25T16:13:08Z</time></trkpt><trkpt lat="40.219422568022985" lon="15.023494295727756"><ele>165.5</ele><time>2026-04-25T16:13:09Z</time></trkpt><trkpt lat="40.21949320701413" lon="15.023528979054893"><ele>169.0</ele><time>2026-04-25T16:13:10Z</time></trkpt><trkpt lat="40.21958980684005" lon="15.023647670355011"><ele>172.5</ele><time>2026-04-25T16:13:11Z</time></trkpt><trkpt lat="40.21966212089317" lon="15.023786423494698"><ele>176.0</ele><time>2026-04-25T16:13:12Z</time></trkpt><trkpt lat="40.21972897162797" lon="15.023959442619123"><ele>176.0</ele><time>2026-04-25T16:13:13Z</time></trkpt><trkpt lat="40.219784637074234" lon="15.024132663129906"><ele>176.0</ele><time>2026-04-25T16:13:14Z</time></trkpt><trkpt lat="40.21983111716431" lon="15.024294426774782"><ele>176.0</ele><time>2026-04-25T16:13:15Z</time></trkpt><trkpt lat="40.2198605966688" lon="15.024428391776194"><ele>176.0</ele><time>2026-04-25T16:13:16Z</time></trkpt><trkpt lat="40.21986809229585" lon="15.024567310716805"><ele>175.5</ele><time>2026-04-25T16:13:17Z</time></trkpt><trkpt lat="40.219868929725976" lon="15.024725194134865"><ele>175.0</ele><time>2026-04-25T16:13:18Z</time></trkpt><trkpt lat="40.2198597490062" lon="15.024910063742942"><ele>174.5</ele><time>2026-04-25T16:13:19Z</time></trkpt><trkpt lat="40.21984318515538" lon="15.025104789411609"><ele>174.0</ele><time>2026-04-25T16:13:20Z</time></trkpt><trkpt lat="40.21981834983511" lon="15.025297395826854"><ele>174.0</ele><time>2026-04-25T16:13:21Z</time></trkpt><trkpt lat="40.21982267452465" lon="15.025472868945029"><ele>174.0</ele><time>2026-04-25T16:13:22Z</time></trkpt><trkpt lat="40.21984708899196" lon="15.025630153062325"><ele>174.0</ele><time>2026-04-25T16:13:23Z</time></trkpt><trkpt lat="40.219877661767526" lon="15.02578067760346"><ele>174.0</ele><time>2026-04-25T16:13:24Z</time></trkpt><trkpt lat="40.21989749226596" lon="15.025931394899652"><ele>176.0</ele><time>2026-04-25T16:13:25Z</time></trkpt><trkpt lat="40.21989437932209" lon="15.026060926793228"><ele>178.0</ele><time>2026-04-25T16:13:26Z</time></trkpt><trkpt lat="40.21985487209015" lon="15.026184674545405"><ele>180.0</ele><time>2026-04-25T16:13:27Z</time></trkpt><trkpt lat="40.2197667607592" lon="15.026259588091428"><ele>182.0</ele><time>2026-04-25T16:13:28Z</time></trkpt><trkpt lat="40.21968001808061" lon="15.02636858449445"><ele>184.0</ele><time>2026-04-25T16:13:29Z</time></trkpt><trkpt lat="40.21957515451007" lon="15.026514849233958"><ele>191.33333333333334</ele><time>2026-04-25T16:13:30Z</time></trkpt><trkpt lat="40.219439790946936" lon="15.026649349979246"><ele>198.66666666666669</ele><time>2026-04-25T16:13:31Z</time></trkpt><trkpt lat="40.21933572185948" lon="15.026794625739196"><ele>206.0</ele><time>2026-04-25T16:13:32Z</time></trkpt><trkpt lat="40.21923379207477" lon="15.02690621563075"><ele>206.0</ele><time>2026-04-25T16:13:33Z</time></trkpt><trkpt lat="40.2191665816923" lon="15.02702324627639"><ele>206.0</ele><time>2026-04-25T16:13:34Z</time></trkpt><trkpt lat="40.21909380563057" lon="15.027114661900777"><ele>206.0</ele><time>2026-04-25T16:13:35Z</time></trkpt><trkpt lat="40.21904035709692" lon="15.027218674071069"><ele>206.0</ele><time>2026-04-25T16:13:36Z</time></trkpt><trkpt lat="40.21901921866986" lon="15.027342074808121"><ele>206.0</ele><time>2026-04-25T16:13:37Z</time></trkpt><trkpt lat="40.218999247067075" lon="15.02747094926755"><ele>206.16666666666669</ele><time>2026-04-25T16:13:38Z</time></trkpt><trkpt lat="40.219018220912545" lon="15.027569065880467"><ele>206.33333333333334</ele><time>2026-04-25T16:13:39Z</time></trkpt><trkpt lat="40.21905730671596" lon="15.027647048722784"><ele>206.5</ele><time>2026-04-25T16:13:40Z</time></trkpt><trkpt lat="40.219116102580394" lon="15.027692151013849"><ele>206.66666666666669</ele><time>2026-04-25T16:13:41Z</time></trkpt><trkpt lat="40.219186584675505" lon="15.02773718031158"><ele>206.83333333333334</ele><time>2026-04-25T16:13:42Z</time></trkpt><trkpt lat="40.219272648104244" lon="15.027784323197059"><ele>207.0</ele><time>2026-04-25T16:13:43Z</time></trkpt><trkpt lat="40.21937585254948" lon="15.027806447562307"><ele>207.0</ele><time>2026-04-25T16:13:44Z</time></trkpt><trkpt lat="40.219522427693136" lon="15.027825314062058"><ele>207.0</ele><time>2026-04-25T16:13:45Z</time></trkpt><trkpt lat="40.21966765067728" lon="15.027847403256587"><ele>207.0</ele><time>2026-04-25T16:13:46Z</time></trkpt><trkpt lat="40.21981257728902" lon="15.027838332618833"><ele>207.0</ele><time>2026-04-25T16:13:47Z</time></trkpt><trkpt lat="40.21995796171882" lon="15.027812833601768"><ele>206.0</ele><time>2026-04-25T16:13:48Z</time></trkpt><trkpt lat="40.220085454570665" lon="15.027800905833203"><ele>205.0</ele><time>2026-04-25T16:13:49Z</time></trkpt><trkpt lat="40.22022976642005" lon="15.027814984849872"><ele>204.0</ele><time>2026-04-25T16:13:50Z</time></trkpt><trkpt lat="40.22038661689571" lon="15.027796222895267"><ele>203.0</ele><time>2026-04-25T16:13:51Z</time></trkpt><trkpt lat="40.22053277431055" lon="15.027760170338286"><ele>204.16666666666669</ele><time>2026-04-25T16:13:52Z</time></trkpt><trkpt lat="40.220649982630825" lon="15.027709297381561"><ele>205.33333333333334</ele><time>2026-04-25T16:13:53Z</time></trkpt><trkpt lat="40.220732830441875" lon="15.027671425718147"><ele>206.5</ele><time>2026-04-25T16:13:54Z</time></trkpt><trkpt lat="40.220802121449246" lon="15.027626999046666"><ele>207.66666666666669</ele><time>2026-04-25T16:13:56Z</time></trkpt><trkpt lat="40.22089120043047" lon="15.02763058301901"><ele>208.83333333333334</ele><time>2026-04-25T16:13:58Z</time></trkpt><trkpt lat="40.220945320975524" lon="15.027678282571888"><ele>210.0</ele><time>2026-04-25T16:14:04Z</time></trkpt><trkpt lat="40.22099892934263" lon="15.02776145627619"><ele>210.0</ele><time>2026-04-25T16:14:05Z</time></trkpt><trkpt lat="40.22105611434328" lon="15.027866765885861"><ele>210.0</ele><time>2026-04-25T16:14:06Z</time></trkpt><trkpt lat="40.22111353359854" lon="15.027961005907578"><ele>210.0</ele><time>2026-04-25T16:14:07Z</time></trkpt><trkpt lat="40.221166000277556" lon="15.02804523015438"><ele>210.0</ele><time>2026-04-25T16:14:08Z</time></trkpt><trkpt lat="40.221204561137974" lon="15.02812227743029"><ele>210.0</ele><time>2026-04-25T16:14:09Z</time></trkpt><trkpt lat="40.22123393619141" lon="15.028196923153898"><ele>210.0</ele><time>2026-04-25T16:14:13Z</time></trkpt><trkpt lat="40.22126199094803" lon="15.02827096116904"><ele>210.0</ele><time>2026-04-25T16:14:15Z</time></trkpt><trkpt lat="40.22116001282634" lon="15.028129128883222"><ele>210.0</ele><time>2026-04-25T16:14:26.999Z</time></trkpt><trkpt lat="40.22109835862342" lon="15.028023622429457"><ele>210.0</ele><time>2026-04-25T16:14:27.999Z</time></trkpt><trkpt lat="40.221129633349825" lon="15.027885341937832"><ele>210.0</ele><time>2026-04-25T16:14:28.999Z</time></trkpt><trkpt lat="40.22105185533353" lon="15.027749364907887"><ele>210.0</ele><time>2026-04-25T16:14:30.999Z</time></trkpt><trkpt lat="40.220985524149825" lon="15.027640535426247"><ele>210.0</ele><time>2026-04-25T16:14:31.999Z</time></trkpt><trkpt lat="40.22090149708176" lon="15.027553753207252"><ele>210.0</ele><time>2026-04-25T16:14:32.999Z</time></trkpt><trkpt lat="40.22082791103674" lon="15.027516915279369"><ele>210.0</ele><time>2026-04-25T16:14:33.999Z</time></trkpt><trkpt lat="40.22074067353577" lon="15.027559667283201"><ele>210.0</ele><time>2026-04-25T16:14:34.999Z</time></trkpt><trkpt lat="40.22067189172245" lon="15.027625225746194"><ele>208.6</ele><time>2026-04-25T16:14:36.999Z</time></trkpt><trkpt lat="40.22058259006254" lon="15.027683702672691"><ele>207.2</ele><time>2026-04-25T16:14:40.999Z</time></trkpt><trkpt lat="40.22050453697883" lon="15.027694833982068"><ele>205.8</ele><time>2026-04-25T16:14:42.999Z</time></trkpt><trkpt lat="40.220428733562194" lon="15.027710822707474"><ele>204.4</ele><time>2026-04-25T16:14:44.999Z</time></trkpt><trkpt lat="40.22031892924046" lon="15.027728301511031"><ele>203.0</ele><time>2026-04-25T16:14:46.999Z</time></trkpt><trkpt lat="40.220214754796025" lon="15.02773539299467"><ele>203.0</ele><time>2026-04-25T16:14:48.999Z</time></trkpt><trkpt lat="40.22008206116772" lon="15.02773000985516"><ele>203.0</ele><time>2026-04-25T16:14:51Z</time></trkpt><trkpt lat="40.220005774653444" lon="15.027751670358992"><ele>203.0</ele><time>2026-04-25T16:14:52Z</time></trkpt><trkpt lat="40.21994505434522" lon="15.027777672599862"><ele>203.0</ele><time>2026-04-25T16:14:53Z</time></trkpt><trkpt lat="40.21984835883065" lon="15.027831210346802"><ele>203.0</ele><time>2026-04-25T16:14:55Z</time></trkpt><trkpt lat="40.21985180955935" lon="15.028487865966936"><ele>208.16666666666669</ele><time>2026-04-25T16:14:57Z</time></trkpt><trkpt lat="40.21979589605761" lon="15.028599532727904"><ele>213.33333333333334</ele><time>2026-04-25T16:14:59Z</time></trkpt><trkpt lat="40.21973431964708" lon="15.028668492164073"><ele>218.5</ele><time>2026-04-25T16:15:01Z</time></trkpt><trkpt lat="40.219634993786286" lon="15.028730200324105"><ele>223.66666666666669</ele><time>2026-04-25T16:15:03Z</time></trkpt><trkpt lat="40.21956655785277" lon="15.028769064342827"><ele>228.83333333333334</ele><time>2026-04-25T16:15:04Z</time></trkpt><trkpt lat="40.21949329630089" lon="15.028814350660749"><ele>234.0</ele><time>2026-04-25T16:15:05Z</time></trkpt><trkpt lat="40.21939137616249" lon="15.02885143866496"><ele>234.0</ele><time>2026-04-25T16:15:06Z</time></trkpt><trkpt lat="40.219327609351716" lon="15.028880289295849"><ele>234.0</ele><time>2026-04-25T16:15:07Z</time></trkpt><trkpt lat="40.21926787018533" lon="15.028912876790791"><ele>234.0</ele><time>2026-04-25T16:15:10Z</time></trkpt><trkpt lat="40.219297245029544" lon="15.029019050065012"><ele>234.0</ele><time>2026-04-25T16:15:27Z</time></trkpt><trkpt lat="40.219530028346284" lon="15.02904394454407"><ele>234.0</ele><time>2026-04-25T16:15:33Z</time></trkpt><trkpt lat="40.21962766972156" lon="15.02906603579971"><ele>234.0</ele><time>2026-04-25T16:15:35Z</time></trkpt><trkpt lat="40.2197022250691" lon="15.02910007419852"><ele>234.0</ele><time>2026-04-25T16:15:36Z</time></trkpt><trkpt lat="40.2197720759462" lon="15.029125146064583"><ele>234.0</ele><time>2026-04-25T16:15:37Z</time></trkpt><trkpt lat="40.21984115692333" lon="15.02912879516742"><ele>234.0</ele><time>2026-04-25T16:15:38Z</time></trkpt><trkpt lat="40.21991315299282" lon="15.029124744445534"><ele>234.0</ele><time>2026-04-25T16:15:39Z</time></trkpt><trkpt lat="40.219976497828874" lon="15.02910697998401"><ele>235.5</ele><time>2026-04-25T16:15:40Z</time></trkpt><trkpt lat="40.22003702632517" lon="15.029075465376824"><ele>237.0</ele><time>2026-04-25T16:15:41Z</time></trkpt><trkpt lat="40.2201437844286" lon="15.02906532614435"><ele>238.5</ele><time>2026-04-25T16:15:43Z</time></trkpt><trkpt lat="40.22021608275154" lon="15.029136174663623"><ele>240.0</ele><time>2026-04-25T16:15:45Z</time></trkpt><trkpt lat="40.22026194208227" lon="15.029269789160367"><ele>241.5</ele><time>2026-04-25T16:15:47Z</time></trkpt><trkpt lat="40.22027334135796" lon="15.029356306381667"><ele>243.0</ele><time>2026-04-25T16:15:48Z</time></trkpt><trkpt lat="40.220339349517914" lon="15.029510010986794"><ele>249.33333333333334</ele><time>2026-04-25T16:15:50Z</time></trkpt><trkpt lat="40.220382098433774" lon="15.029613023657674"><ele>255.66666666666669</ele><time>2026-04-25T16:15:51Z</time></trkpt><trkpt lat="40.220413721480845" lon="15.029694295101754"><ele>262.0</ele><time>2026-04-25T16:15:52Z</time></trkpt><trkpt lat="40.22046756466392" lon="15.029844886582422"><ele>268.33333333333337</ele><time>2026-04-25T16:15:54Z</time></trkpt><trkpt lat="40.22050432494818" lon="15.02993001997529"><ele>274.6666666666667</ele><time>2026-04-25T16:15:55Z</time></trkpt><trkpt lat="40.22053728372156" lon="15.030009486817402"><ele>281.0</ele><time>2026-04-25T16:15:56Z</time></trkpt><trkpt lat="40.22057985776488" lon="15.030079285142895"><ele>281.28571428571433</ele><time>2026-04-25T16:15:57Z</time></trkpt><trkpt lat="40.22063354934372" lon="15.030144183581966"><ele>281.57142857142856</ele><time>2026-04-25T16:15:58Z</time></trkpt><trkpt lat="40.220689678886835" lon="15.030193184704006"><ele>281.8571428571429</ele><time>2026-04-25T16:15:59Z</time></trkpt><trkpt lat="40.220747588212525" lon="15.030241189298824"><ele>282.14285714285717</ele><time>2026-04-25T16:16:00Z</time></trkpt><trkpt lat="40.220807975338026" lon="15.03030212186027"><ele>282.42857142857144</ele><time>2026-04-25T16:16:01Z</time></trkpt><trkpt lat="40.22086843191696" lon="15.03036402749159"><ele>282.7142857142857</ele><time>2026-04-25T16:16:02Z</time></trkpt><trkpt lat="40.22092281330537" lon="15.03042775916778"><ele>283.0</ele><time>2026-04-25T16:16:03Z</time></trkpt><trkpt lat="40.220976111057155" lon="15.030500425790136"><ele>283.0</ele><time>2026-04-25T16:16:04Z</time></trkpt><trkpt lat="40.22101774051393" lon="15.03056385490249"><ele>283.0</ele><time>2026-04-25T16:16:05Z</time></trkpt><trkpt lat="40.22107683202007" lon="15.030711940885107"><ele>283.0</ele><time>2026-04-25T16:16:07Z</time></trkpt><trkpt lat="40.22109811209383" lon="15.030852350979709"><ele>283.0</ele><time>2026-04-25T16:16:09Z</time></trkpt><trkpt lat="40.22109566955712" lon="15.030937330109284"><ele>283.0</ele><time>2026-04-25T16:16:10Z</time></trkpt><trkpt lat="40.22108641394111" lon="15.031035762885555"><ele>283.0</ele><time>2026-04-25T16:16:12Z</time></trkpt><trkpt lat="40.221013742619796" lon="15.031054534551508"><ele>283.0</ele><time>2026-04-25T16:16:15Z</time></trkpt><trkpt lat="40.220923464558176" lon="15.031016824487013"><ele>283.0</ele><time>2026-04-25T16:16:18Z</time></trkpt><trkpt lat="40.220838994691064" lon="15.030968234402874"><ele>283.0</ele><time>2026-04-25T16:16:20Z</time></trkpt><trkpt lat="40.220755642996515" lon="15.030883136551479"><ele>283.0</ele><time>2026-04-25T16:16:21.999Z</time></trkpt><trkpt lat="40.22071580885478" lon="15.030811192431893"><ele>283.0</ele><time>2026-04-25T16:16:22.999Z</time></trkpt><trkpt lat="40.22065260856924" lon="15.03073833951937"><ele>283.0</ele><time>2026-04-25T16:16:23.999Z</time></trkpt><trkpt lat="40.220590217013516" lon="15.030660999046189"><ele>288.66666666666663</ele><time>2026-04-25T16:16:24.999Z</time></trkpt><trkpt lat="40.22053000167916" lon="15.030589854609307"><ele>294.3333333333333</ele><time>2026-04-25T16:16:25.999Z</time></trkpt><trkpt lat="40.220471946845514" lon="15.030524421137189"><ele>300.0</ele><time>2026-04-25T16:16:26.999Z</time></trkpt><trkpt lat="40.22042520748031" lon="15.030444357052437"><ele>305.6666666666667</ele><time>2026-04-25T16:16:27.999Z</time></trkpt><trkpt lat="40.22037738483519" lon="15.030351192784455"><ele>311.33333333333337</ele><time>2026-04-25T16:16:28.999Z</time></trkpt><trkpt lat="40.22033278323501" lon="15.030273624274617"><ele>317.0</ele><time>2026-04-25T16:16:29.999Z</time></trkpt><trkpt lat="40.220282722639666" lon="15.03020621928086"><ele>317.0</ele><time>2026-04-25T16:16:30.999Z</time></trkpt><trkpt lat="40.220226952636224" lon="15.030137955068936"><ele>317.0</ele><time>2026-04-25T16:16:31.999Z</time></trkpt><trkpt lat="40.22015697956498" lon="15.03006997892977"><ele>317.0</ele><time>2026-04-25T16:16:32.999Z</time></trkpt><trkpt lat="40.22009597779408" lon="15.030002368096806"><ele>317.0</ele><time>2026-04-25T16:16:33.999Z</time></trkpt><trkpt lat="40.22002868702397" lon="15.029934549737497"><ele>317.0</ele><time>2026-04-25T16:16:34.999Z</time></trkpt><trkpt lat="40.21997820828197" lon="15.029865347793347"><ele>317.0</ele><time>2026-04-25T16:16:35.999Z</time></trkpt><trkpt lat="40.21991366064592" lon="15.02980945272308"><ele>311.0</ele><time>2026-04-25T16:16:36.999Z</time></trkpt><trkpt lat="40.219853717279996" lon="15.02977970474135"><ele>305.0</ele><time>2026-04-25T16:16:37.999Z</time></trkpt><trkpt lat="40.21973436918551" lon="15.029757738203323"><ele>299.0</ele><time>2026-04-25T16:16:39.999Z</time></trkpt><trkpt lat="40.21965833582117" lon="15.02976699239375"><ele>293.0</ele><time>2026-04-25T16:16:40.999Z</time></trkpt><trkpt lat="40.21955460464323" lon="15.029814529467618"><ele>287.0</ele><time>2026-04-25T16:16:42.999Z</time></trkpt><trkpt lat="40.21949453437239" lon="15.029869595692963"><ele>281.0</ele><time>2026-04-25T16:16:43.999Z</time></trkpt><trkpt lat="40.21944313991005" lon="15.029919648958499"><ele>287.2</ele><time>2026-04-25T16:16:44.999Z</time></trkpt><trkpt lat="40.21934211669194" lon="15.029990114500785"><ele>293.40000000000003</ele><time>2026-04-25T16:16:46.999Z</time></trkpt><trkpt lat="40.21926746598278" lon="15.030074209194257"><ele>299.6</ele><time>2026-04-25T16:16:48.999Z</time></trkpt><trkpt lat="40.21923951503413" lon="15.030170055854857"><ele>305.8</ele><time>2026-04-25T16:16:49.999Z</time></trkpt><trkpt lat="40.21920420030665" lon="15.030289011145555"><ele>312.0</ele><time>2026-04-25T16:16:50.999Z</time></trkpt><trkpt lat="40.21916770428159" lon="15.030369852820252"><ele>312.0</ele><time>2026-04-25T16:16:51.999Z</time></trkpt><trkpt lat="40.21911732038712" lon="15.030455082620746"><ele>312.0</ele><time>2026-04-25T16:16:52.999Z</time></trkpt><trkpt lat="40.219043010471154" lon="15.030457132580745"><ele>312.0</ele><time>2026-04-25T16:16:53.999Z</time></trkpt><trkpt lat="40.218966782291766" lon="15.030486259263485"><ele>312.0</ele><time>2026-04-25T16:16:54.999Z</time></trkpt><trkpt lat="40.21887672340926" lon="15.030488895379403"><ele>312.0</ele><time>2026-04-25T16:16:55.999Z</time></trkpt><trkpt lat="40.21879065127361" lon="15.030500947472095"><ele>312.0</ele><time>2026-04-25T16:16:57Z</time></trkpt><trkpt lat="40.21872443503652" lon="15.030513096078993"><ele>314.0</ele><time>2026-04-25T16:16:58Z</time></trkpt><trkpt lat="40.21863148592558" lon="15.030614825205076"><ele>316.0</ele><time>2026-04-25T16:17:00Z</time></trkpt><trkpt lat="40.21871307125663" lon="15.030796905349932"><ele>318.0</ele><time>2026-04-25T16:17:01Z</time></trkpt><trkpt lat="40.218670415108924" lon="15.030894514430042"><ele>320.0</ele><time>2026-04-25T16:17:03Z</time></trkpt><trkpt lat="40.2185253224925" lon="15.030817356997114"><ele>315.42857142857144</ele><time>2026-04-25T16:17:17Z</time></trkpt><trkpt lat="40.2185313268568" lon="15.03073005427647"><ele>310.8571428571429</ele><time>2026-04-25T16:17:19Z</time></trkpt><trkpt lat="40.2185472701366" lon="15.030626753517678"><ele>306.28571428571433</ele><time>2026-04-25T16:17:21Z</time></trkpt><trkpt lat="40.2185843822005" lon="15.030538966836875"><ele>301.7142857142857</ele><time>2026-04-25T16:17:23Z</time></trkpt><trkpt lat="40.21863497165869" lon="15.030456147542823"><ele>297.14285714285717</ele><time>2026-04-25T16:18:14Z</time></trkpt><trkpt lat="40.21870785451963" lon="15.030432692984222"><ele>292.5714285714286</ele><time>2026-04-25T16:18:17Z</time></trkpt><trkpt lat="40.21876796582318" lon="15.030397573235618"><ele>288.0</ele><time>2026-04-25T16:18:24.999Z</time></trkpt><trkpt lat="40.21883199301005" lon="15.030359360301215"><ele>288.0</ele><time>2026-04-25T16:19:10Z</time></trkpt><trkpt lat="40.218922881036974" lon="15.030321916875963"><ele>288.0</ele><time>2026-04-25T16:19:20Z</time></trkpt><trkpt lat="40.21899188767267" lon="15.030277575552429"><ele>288.0</ele><time>2026-04-25T16:19:23Z</time></trkpt><trkpt lat="40.21903245304756" lon="15.030211818269242"><ele>288.0</ele><time>2026-04-25T16:19:29Z</time></trkpt><trkpt lat="40.21893734824269" lon="15.030171451425733"><ele>288.0</ele><time>2026-04-25T16:19:33Z</time></trkpt><trkpt lat="40.21882991992352" lon="15.030163368293447"><ele>288.0</ele><time>2026-04-25T16:19:35Z</time></trkpt><trkpt lat="40.21873248508694" lon="15.03014924221713"><ele>288.0</ele><time>2026-04-25T16:19:37Z</time></trkpt><trkpt lat="40.21864480863192" lon="15.030131212565397"><ele>288.0</ele><time>2026-04-25T16:19:39Z</time></trkpt><trkpt lat="40.218460890842216" lon="15.030176730988208"><ele>288.0</ele><time>2026-04-25T16:19:42Z</time></trkpt><trkpt lat="40.2183717351685" lon="15.030150472768769"><ele>288.0</ele><time>2026-04-25T16:19:44Z</time></trkpt><trkpt lat="40.218296233093426" lon="15.030188533328317"><ele>288.0</ele><time>2026-04-25T16:19:46Z</time></trkpt><trkpt lat="40.218221446481884" lon="15.03026002516896"><ele>288.0</ele><time>2026-04-25T16:19:48Z</time></trkpt><trkpt lat="40.21817301216532" lon="15.030332409434209"><ele>288.0</ele><time>2026-04-25T16:19:50Z</time></trkpt><trkpt lat="40.21814239511668" lon="15.030409355658662"><ele>288.0</ele><time>2026-04-25T16:19:52Z</time></trkpt><trkpt lat="40.21808979541857" lon="15.030363429845341"><ele>288.0</ele><time>2026-04-25T16:20:30.999Z</time></trkpt><trkpt lat="40.218016801631435" lon="15.03027886771797"><ele>288.0</ele><time>2026-04-25T16:20:33.999Z</time></trkpt><trkpt lat="40.21797690861701" lon="15.030196383382359"><ele>288.0</ele><time>2026-04-25T16:20:35.999Z</time></trkpt><trkpt lat="40.21791303981162" lon="15.030115617609484"><ele>289.1666666666667</ele><time>2026-04-25T16:20:37.999Z</time></trkpt><trkpt lat="40.21786637357244" lon="15.030012704051465"><ele>290.3333333333333</ele><time>2026-04-25T16:20:39.999Z</time></trkpt><trkpt lat="40.21782445049368" lon="15.029926610084178"><ele>291.5</ele><time>2026-04-25T16:20:41.999Z</time></trkpt><trkpt lat="40.21777022589284" lon="15.029835708633572"><ele>292.66666666666663</ele><time>2026-04-25T16:20:44.999Z</time></trkpt><trkpt lat="40.21771322027631" lon="15.029771854225384"><ele>293.8333333333333</ele><time>2026-04-25T16:20:46.999Z</time></trkpt><trkpt lat="40.217702642040734" lon="15.029687104568355"><ele>295.0</ele><time>2026-04-25T16:20:48.999Z</time></trkpt><trkpt lat="40.21775945806741" lon="15.02962272072671"><ele>290.5</ele><time>2026-04-25T16:20:50.999Z</time></trkpt><trkpt lat="40.21795385580307" lon="15.029645053515894"><ele>286.0</ele><time>2026-04-25T16:20:55.999Z</time></trkpt><trkpt lat="40.21787256772261" lon="15.02945496666437"><ele>281.5</ele><time>2026-04-25T16:21:05.999Z</time></trkpt><trkpt lat="40.21780127910759" lon="15.02940642244781"><ele>277.0</ele><time>2026-04-25T16:21:07.999Z</time></trkpt><trkpt lat="40.217755900699856" lon="15.029299023600595"><ele>275.4</ele><time>2026-04-25T16:21:11Z</time></trkpt><trkpt lat="40.21774590615631" lon="15.029123210989312"><ele>273.79999999999995</ele><time>2026-04-25T16:21:13Z</time></trkpt><trkpt lat="40.21774297316175" lon="15.029036554568036"><ele>272.2</ele><time>2026-04-25T16:21:14Z</time></trkpt><trkpt lat="40.217716051270145" lon="15.028896698280773"><ele>270.59999999999997</ele><time>2026-04-25T16:21:16Z</time></trkpt><trkpt lat="40.217661061252755" lon="15.028735185010117"><ele>269.0</ele><time>2026-04-25T16:21:18Z</time></trkpt><trkpt lat="40.21763524717466" lon="15.028650874656249"><ele>269.0</ele><time>2026-04-25T16:21:19Z</time></trkpt><trkpt lat="40.21756805413745" lon="15.028524155973763"><ele>269.0</ele><time>2026-04-25T16:21:21Z</time></trkpt><trkpt lat="40.21751857664716" lon="15.028466356393654"><ele>269.0</ele><time>2026-04-25T16:21:22Z</time></trkpt><trkpt lat="40.21748068131162" lon="15.028398488850842"><ele>269.0</ele><time>2026-04-25T16:21:23Z</time></trkpt><trkpt lat="40.21745678828964" lon="15.02831764726718"><ele>269.0</ele><time>2026-04-25T16:21:24Z</time></trkpt><trkpt lat="40.217423837129076" lon="15.028228607919466"><ele>269.0</ele><time>2026-04-25T16:21:26Z</time></trkpt><trkpt lat="40.21734478989757" lon="15.028196792277454"><ele>273.1666666666667</ele><time>2026-04-25T16:21:29Z</time></trkpt><trkpt lat="40.217294100136094" lon="15.028251461308681"><ele>277.33333333333337</ele><time>2026-04-25T16:21:32Z</time></trkpt><trkpt lat="40.21716611956222" lon="15.028252274349844"><ele>281.5</ele><time>2026-04-25T16:21:50Z</time></trkpt><trkpt lat="40.217113485374" lon="15.028181479862898"><ele>285.6666666666667</ele><time>2026-04-25T16:21:53Z</time></trkpt><trkpt lat="40.21711243558643" lon="15.028063093764144"><ele>289.8333333333333</ele><time>2026-04-25T16:21:55Z</time></trkpt><trkpt lat="40.21711119754913" lon="15.028149207641441"><ele>294.0</ele><time>2026-04-25T16:23:52Z</time></trkpt><trkpt lat="40.21714590362561" lon="15.028239459107988"><ele>294.0</ele><time>2026-04-25T16:23:56Z</time></trkpt><trkpt lat="40.217195416508495" lon="15.028319174896897"><ele>294.0</ele><time>2026-04-25T16:23:58Z</time></trkpt><trkpt lat="40.217250392446005" lon="15.028387549236374"><ele>294.0</ele><time>2026-04-25T16:24:02Z</time></trkpt><trkpt lat="40.217289629320106" lon="15.028321858435222"><ele>294.0</ele><time>2026-04-25T16:24:07Z</time></trkpt><trkpt lat="40.217279746219575" lon="15.02823374715165"><ele>294.0</ele><time>2026-04-25T16:24:20Z</time></trkpt><trkpt lat="40.21739695421443" lon="15.028216697738694"><ele>294.0</ele><time>2026-04-25T16:24:27Z</time></trkpt><trkpt lat="40.21749167820212" lon="15.028401185366706"><ele>289.0</ele><time>2026-04-25T16:24:31Z</time></trkpt><trkpt lat="40.21754677479076" lon="15.028521525250271"><ele>284.0</ele><time>2026-04-25T16:24:33Z</time></trkpt><trkpt lat="40.21761389406383" lon="15.028603649751423"><ele>279.0</ele><time>2026-04-25T16:24:35Z</time></trkpt><trkpt lat="40.217660376344774" lon="15.028738266276958"><ele>274.0</ele><time>2026-04-25T16:24:36.999Z</time></trkpt><trkpt lat="40.21769772374926" lon="15.02888103222837"><ele>269.0</ele><time>2026-04-25T16:24:38.999Z</time></trkpt><trkpt lat="40.21772731049871" lon="15.029027509907253"><ele>270.33333333333337</ele><time>2026-04-25T16:24:40.999Z</time></trkpt><trkpt lat="40.21773653035625" lon="15.029163467202299"><ele>271.6666666666667</ele><time>2026-04-25T16:24:42.999Z</time></trkpt><trkpt lat="40.21774491346561" lon="15.029275853447537"><ele>273.0</ele><time>2026-04-25T16:24:44.999Z</time></trkpt><trkpt lat="40.21776469023013" lon="15.029356218315536"><ele>274.3333333333333</ele><time>2026-04-25T16:24:46.999Z</time></trkpt><trkpt lat="40.21783009653175" lon="15.029402276101466"><ele>275.66666666666663</ele><time>2026-04-25T16:24:48.999Z</time></trkpt><trkpt lat="40.217908758182894" lon="15.02943956005039"><ele>277.0</ele><time>2026-04-25T16:24:50.999Z</time></trkpt><trkpt lat="40.217994808733" lon="15.029487685157864"><ele>277.0</ele><time>2026-04-25T16:25:12.999Z</time></trkpt><trkpt lat="40.21806806071039" lon="15.029515109360586"><ele>277.0</ele><time>2026-04-25T16:25:14.999Z</time></trkpt><trkpt lat="40.21803573487467" lon="15.029609436516735"><ele>277.0</ele><time>2026-04-25T16:25:18.999Z</time></trkpt><trkpt lat="40.217948795072665" lon="15.029626961586391"><ele>277.0</ele><time>2026-04-25T16:25:21Z</time></trkpt><trkpt lat="40.217871008607524" lon="15.029630247925382"><ele>277.0</ele><time>2026-04-25T16:25:23Z</time></trkpt><trkpt lat="40.21779662009621" lon="15.029617696523204"><ele>277.0</ele><time>2026-04-25T16:25:25Z</time></trkpt><trkpt lat="40.21771989545988" lon="15.029677001961051"><ele>277.0</ele><time>2026-04-25T16:25:28Z</time></trkpt><trkpt lat="40.21772304386001" lon="15.029760259161607"><ele>277.0</ele><time>2026-04-25T16:25:30Z</time></trkpt><trkpt lat="40.217788830709516" lon="15.029826966247445"><ele>277.0</ele><time>2026-04-25T16:25:32Z</time></trkpt><trkpt lat="40.21784563206537" lon="15.029907972092886"><ele>277.0</ele><time>2026-04-25T16:25:34Z</time></trkpt><trkpt lat="40.21790173079593" lon="15.03001699535641"><ele>277.0</ele><time>2026-04-25T16:25:36Z</time></trkpt><trkpt lat="40.21796895251299" lon="15.030139803827907"><ele>277.0</ele><time>2026-04-25T16:25:38Z</time></trkpt><trkpt lat="40.21805012859246" lon="15.030263659006936"><ele>279.2</ele><time>2026-04-25T16:25:40Z</time></trkpt><trkpt lat="40.218128984955904" lon="15.030349435052868"><ele>281.4</ele><time>2026-04-25T16:25:42Z</time></trkpt><trkpt lat="40.21820273827885" lon="15.030341250392258"><ele>283.6</ele><time>2026-04-25T16:25:44Z</time></trkpt><trkpt lat="40.2182494328913" lon="15.030247835464507"><ele>285.8</ele><time>2026-04-25T16:25:46Z</time></trkpt><trkpt lat="40.218291553600466" lon="15.03014142213594"><ele>288.0</ele><time>2026-04-25T16:25:48Z</time></trkpt><trkpt lat="40.21837274438783" lon="15.030054493037774"><ele>288.0</ele><time>2026-04-25T16:25:50Z</time></trkpt><trkpt lat="40.21848217335659" lon="15.030013123868967"><ele>288.0</ele><time>2026-04-25T16:25:52Z</time></trkpt><trkpt lat="40.21857927024788" lon="15.03005689638014"><ele>288.0</ele><time>2026-04-25T16:25:54Z</time></trkpt><trkpt lat="40.218638495423626" lon="15.030095107501674"><ele>288.0</ele><time>2026-04-25T16:25:55Z</time></trkpt><trkpt lat="40.21873910732463" lon="15.030124601838715"><ele>288.0</ele><time>2026-04-25T16:25:57Z</time></trkpt><trkpt lat="40.21884269508432" lon="15.030137096994308"><ele>288.0</ele><time>2026-04-25T16:25:59Z</time></trkpt><trkpt lat="40.21890533817465" lon="15.030146925389104"><ele>288.0</ele><time>2026-04-25T16:26:00Z</time></trkpt><trkpt lat="40.21901072537151" lon="15.030156631155332"><ele>288.0</ele><time>2026-04-25T16:26:02Z</time></trkpt><trkpt lat="40.21905300511261" lon="15.03023127724331"><ele>288.0</ele><time>2026-04-25T16:26:06Z</time></trkpt><trkpt lat="40.21897323928277" lon="15.030288522960308"><ele>288.0</ele><time>2026-04-25T16:26:09Z</time></trkpt><trkpt lat="40.21890086968095" lon="15.030310363405313"><ele>288.0</ele><time>2026-04-25T16:26:11Z</time></trkpt><trkpt lat="40.21882503896715" lon="15.03035957427961"><ele>288.0</ele><time>2026-04-25T16:26:38Z</time></trkpt><trkpt lat="40.21875362896338" lon="15.030373532590664"><ele>288.0</ele><time>2026-04-25T16:26:42.999Z</time></trkpt><trkpt lat="40.21868696124694" lon="15.030418748369271"><ele>288.0</ele><time>2026-04-25T16:26:57.999Z</time></trkpt><trkpt lat="40.218625594811975" lon="15.030440627839615"><ele>288.0</ele><time>2026-04-25T16:27:44Z</time></trkpt><trkpt lat="40.218577229682026" lon="15.030544330707652"><ele>288.0</ele><time>2026-04-25T16:28:05Z</time></trkpt><trkpt lat="40.21854028410201" lon="15.030615716035287"><ele>288.0</ele><time>2026-04-25T16:28:07Z</time></trkpt><trkpt lat="40.21851571912649" lon="15.030745264839373"><ele>293.3333333333333</ele><time>2026-04-25T16:28:09Z</time></trkpt><trkpt lat="40.218519245253425" lon="15.030851931070975"><ele>298.6666666666667</ele><time>2026-04-25T16:28:11Z</time></trkpt><trkpt lat="40.21852668231918" lon="15.03095777931729"><ele>304.0</ele><time>2026-04-25T16:28:13Z</time></trkpt><trkpt lat="40.21849239592321" lon="15.031063093337513"><ele>309.33333333333337</ele><time>2026-04-25T16:28:15Z</time></trkpt><trkpt lat="40.218416701491094" lon="15.031138437056665"><ele>314.6666666666667</ele><time>2026-04-25T16:28:17Z</time></trkpt><trkpt lat="40.21833120430041" lon="15.031169973774857"><ele>320.0</ele><time>2026-04-25T16:28:19Z</time></trkpt><trkpt lat="40.21821334565409" lon="15.031128831477384"><ele>319.6666666666667</ele><time>2026-04-25T16:28:21Z</time></trkpt><trkpt lat="40.21814305489659" lon="15.031098435953213"><ele>319.33333333333337</ele><time>2026-04-25T16:28:22Z</time></trkpt><trkpt lat="40.21806551273507" lon="15.03107997768983"><ele>319.0</ele><time>2026-04-25T16:28:23Z</time></trkpt><trkpt lat="40.21799093296992" lon="15.031082325456277"><ele>318.6666666666667</ele><time>2026-04-25T16:28:24Z</time></trkpt><trkpt lat="40.217927355590675" lon="15.031106774750622"><ele>318.3333333333333</ele><time>2026-04-25T16:28:25Z</time></trkpt><trkpt lat="40.21785919681664" lon="15.031152522980006"><ele>318.0</ele><time>2026-04-25T16:28:26Z</time></trkpt><trkpt lat="40.217794111017064" lon="15.031213106835946"><ele>318.0</ele><time>2026-04-25T16:28:27Z</time></trkpt><trkpt lat="40.21775577825359" lon="15.031292004167549"><ele>318.0</ele><time>2026-04-25T16:28:30Z</time></trkpt><trkpt lat="40.21782945142508" lon="15.031356034569228"><ele>318.0</ele><time>2026-04-25T16:28:32Z</time></trkpt><trkpt lat="40.21796149328259" lon="15.031321389351945"><ele>318.0</ele><time>2026-04-25T16:28:34Z</time></trkpt><trkpt lat="40.218043407171606" lon="15.03131910067555"><ele>318.0</ele><time>2026-04-25T16:28:35Z</time></trkpt><trkpt lat="40.21812397016694" lon="15.031334026837694"><ele>318.3333333333333</ele><time>2026-04-25T16:28:36Z</time></trkpt><trkpt lat="40.21820533891556" lon="15.031347479047735"><ele>318.6666666666667</ele><time>2026-04-25T16:28:37Z</time></trkpt><trkpt lat="40.21828307569208" lon="15.031341738796016"><ele>319.0</ele><time>2026-04-25T16:28:38Z</time></trkpt><trkpt lat="40.21835929316871" lon="15.031304913369382"><ele>319.33333333333337</ele><time>2026-04-25T16:28:39Z</time></trkpt><trkpt lat="40.21844862984863" lon="15.031257494500975"><ele>319.6666666666667</ele><time>2026-04-25T16:28:40Z</time></trkpt><trkpt lat="40.21854907405546" lon="15.031197018455599"><ele>320.0</ele><time>2026-04-25T16:28:41Z</time></trkpt><trkpt lat="40.2186283433231" lon="15.031112671230899"><ele>320.0</ele><time>2026-04-25T16:28:42Z</time></trkpt><trkpt lat="40.21868159552208" lon="15.03101052185558"><ele>320.0</ele><time>2026-04-25T16:28:43Z</time></trkpt><trkpt lat="40.218708413201114" lon="15.030924511865992"><ele>320.0</ele><time>2026-04-25T16:28:44Z</time></trkpt><trkpt lat="40.21875497879407" lon="15.030806772856904"><ele>320.0</ele><time>2026-04-25T16:28:46Z</time></trkpt><trkpt lat="40.21883165818665" lon="15.030745578574582"><ele>320.0</ele><time>2026-04-25T16:28:47.999Z</time></trkpt><trkpt lat="40.218901398664194" lon="15.030729165037288"><ele>320.0</ele><time>2026-04-25T16:28:48.999Z</time></trkpt><trkpt lat="40.21900241547004" lon="15.030737550231521"><ele>318.4</ele><time>2026-04-25T16:28:49.999Z</time></trkpt><trkpt lat="40.219113634870276" lon="15.030734459041874"><ele>316.8</ele><time>2026-04-25T16:28:50.999Z</time></trkpt><trkpt lat="40.21921574971939" lon="15.030707833226055"><ele>315.2</ele><time>2026-04-25T16:28:51.999Z</time></trkpt><trkpt lat="40.21930046846106" lon="15.03066407211425"><ele>313.6</ele><time>2026-04-25T16:28:52.999Z</time></trkpt><trkpt lat="40.21936768828524" lon="15.03059378985944"><ele>312.0</ele><time>2026-04-25T16:28:53.999Z</time></trkpt><trkpt lat="40.21941806930101" lon="15.030506533850888"><ele>312.0</ele><time>2026-04-25T16:28:54.999Z</time></trkpt><trkpt lat="40.21946157766341" lon="15.030402755819916"><ele>312.0</ele><time>2026-04-25T16:28:55.999Z</time></trkpt><trkpt lat="40.21949901570927" lon="15.030306551342868"><ele>312.0</ele><time>2026-04-25T16:28:56.999Z</time></trkpt><trkpt lat="40.21956908367088" lon="15.030259623629593"><ele>312.0</ele><time>2026-04-25T16:28:57.999Z</time></trkpt><trkpt lat="40.219638711017396" lon="15.030210398960445"><ele>312.0</ele><time>2026-04-25T16:28:58.999Z</time></trkpt><trkpt lat="40.219710820872045" lon="15.030189262169289"><ele>312.0</ele><time>2026-04-25T16:28:59.999Z</time></trkpt><trkpt lat="40.21977862937534" lon="15.030181750211163"><ele>313.0</ele><time>2026-04-25T16:29:00.999Z</time></trkpt><trkpt lat="40.21987875125688" lon="15.030261434444123"><ele>314.0</ele><time>2026-04-25T16:29:02.999Z</time></trkpt><trkpt lat="40.21992193501111" lon="15.030389601428869"><ele>315.0</ele><time>2026-04-25T16:29:04.999Z</time></trkpt><trkpt lat="40.219925230788306" lon="15.030505957630844"><ele>316.0</ele><time>2026-04-25T16:29:06.999Z</time></trkpt><trkpt lat="40.21989495972706" lon="15.03058722605722"><ele>317.0</ele><time>2026-04-25T16:29:07.999Z</time></trkpt><trkpt lat="40.21983327630408" lon="15.030658583047886"><ele>316.1666666666667</ele><time>2026-04-25T16:29:08.999Z</time></trkpt><trkpt lat="40.21979571103887" lon="15.030753162034769"><ele>315.33333333333337</ele><time>2026-04-25T16:29:09.999Z</time></trkpt><trkpt lat="40.21976726769455" lon="15.030851182519342"><ele>314.5</ele><time>2026-04-25T16:29:10.999Z</time></trkpt><trkpt lat="40.21974243573793" lon="15.030933802643359"><ele>313.6666666666667</ele><time>2026-04-25T16:29:11.999Z</time></trkpt><trkpt lat="40.219661947832336" lon="15.031043145101759"><ele>312.8333333333333</ele><time>2026-04-25T16:29:13.999Z</time></trkpt><trkpt lat="40.21960567636256" lon="15.031131631791311"><ele>312.0</ele><time>2026-04-25T16:29:14.999Z</time></trkpt><trkpt lat="40.21955047873446" lon="15.031218109713349"><ele>317.0</ele><time>2026-04-25T16:29:15.999Z</time></trkpt><trkpt lat="40.21950231629582" lon="15.031278891773853"><ele>322.0</ele><time>2026-04-25T16:29:16.999Z</time></trkpt><trkpt lat="40.219455113851886" lon="15.031344828306635"><ele>327.0</ele><time>2026-04-25T16:29:18.999Z</time></trkpt><trkpt lat="40.2194199652222" lon="15.031491523813775"><ele>332.0</ele><time>2026-04-25T16:29:20.999Z</time></trkpt><trkpt lat="40.21947482717837" lon="15.031603956130866"><ele>337.0</ele><time>2026-04-25T16:29:21.999Z</time></trkpt><trkpt lat="40.219497077422744" lon="15.031715313651953"><ele>342.0</ele><time>2026-04-25T16:29:23.999Z</time></trkpt><trkpt lat="40.21943235738818" lon="15.031835257552075"><ele>345.5</ele><time>2026-04-25T16:29:25.999Z</time></trkpt><trkpt lat="40.21939825359335" lon="15.031917123568824"><ele>349.0</ele><time>2026-04-25T16:29:26.999Z</time></trkpt><trkpt lat="40.21936728684417" lon="15.032001914894146"><ele>352.5</ele><time>2026-04-25T16:29:27.999Z</time></trkpt><trkpt lat="40.21932906510905" lon="15.032125341664964"><ele>356.0</ele><time>2026-04-25T16:29:29.999Z</time></trkpt><trkpt lat="40.219286398642566" lon="15.032259252059033"><ele>359.5</ele><time>2026-04-25T16:29:32Z</time></trkpt><trkpt lat="40.21925894541757" lon="15.032340425874562"><ele>363.0</ele><time>2026-04-25T16:29:33Z</time></trkpt><trkpt lat="40.21923055947668" lon="15.032432545962001"><ele>365.8333333333333</ele><time>2026-04-25T16:29:34Z</time></trkpt><trkpt lat="40.21922017845478" lon="15.032543870542254"><ele>368.6666666666667</ele><time>2026-04-25T16:29:35Z</time></trkpt><trkpt lat="40.21923745822987" lon="15.03265305238912"><ele>371.5</ele><time>2026-04-25T16:29:36Z</time></trkpt><trkpt lat="40.21922813350796" lon="15.032743365492015"><ele>374.33333333333337</ele><time>2026-04-25T16:29:37Z</time></trkpt><trkpt lat="40.21916486231331" lon="15.032884094618716"><ele>377.1666666666667</ele><time>2026-04-25T16:29:39Z</time></trkpt><trkpt lat="40.219115907439374" lon="15.032965134046867"><ele>380.0</ele><time>2026-04-25T16:29:40Z</time></trkpt><trkpt lat="40.21904695869576" lon="15.033044730916018"><ele>379.0</ele><time>2026-04-25T16:29:41Z</time></trkpt><trkpt lat="40.21895512204552" lon="15.033148634118822"><ele>378.0</ele><time>2026-04-25T16:29:42Z</time></trkpt><trkpt lat="40.21887992289027" lon="15.0332507164081"><ele>377.0</ele><time>2026-04-25T16:29:43Z</time></trkpt><trkpt lat="40.21880646285352" lon="15.033377826719509"><ele>376.0</ele><time>2026-04-25T16:29:44Z</time></trkpt><trkpt lat="40.21875619515274" lon="15.033504653100563"><ele>380.6</ele><time>2026-04-25T16:29:45Z</time></trkpt><trkpt lat="40.218701083301035" lon="15.033573446815709"><ele>385.20000000000005</ele><time>2026-04-25T16:29:46Z</time></trkpt><trkpt lat="40.21857166414625" lon="15.033654251009075"><ele>389.79999999999995</ele><time>2026-04-25T16:29:48Z</time></trkpt><trkpt lat="40.21846990338492" lon="15.033694020106037"><ele>394.4</ele><time>2026-04-25T16:29:49Z</time></trkpt><trkpt lat="40.21837107109431" lon="15.033727131249938"><ele>399.0</ele><time>2026-04-25T16:29:50Z</time></trkpt><trkpt lat="40.21828865928491" lon="15.033767893178544"><ele>399.0</ele><time>2026-04-25T16:29:51Z</time></trkpt><trkpt lat="40.218210568135895" lon="15.033807855927584"><ele>399.0</ele><time>2026-04-25T16:29:52Z</time></trkpt><trkpt lat="40.218107682926096" lon="15.033845332700249"><ele>399.0</ele><time>2026-04-25T16:29:53Z</time></trkpt><trkpt lat="40.21802879976559" lon="15.033865432578734"><ele>399.0</ele><time>2026-04-25T16:29:54Z</time></trkpt><trkpt lat="40.21795162956622" lon="15.033878626010239"><ele>399.0</ele><time>2026-04-25T16:29:57Z</time></trkpt><trkpt lat="40.21794835974004" lon="15.034070940212255"><ele>400.3333333333333</ele><time>2026-04-25T16:30:09Z</time></trkpt><trkpt lat="40.21787430699857" lon="15.0340361621385"><ele>401.66666666666663</ele><time>2026-04-25T16:30:10Z</time></trkpt><trkpt lat="40.21780183420403" lon="15.034064816126255"><ele>403.0</ele><time>2026-04-25T16:30:11Z</time></trkpt><trkpt lat="40.217723264919044" lon="15.03415380949808"><ele>404.3333333333333</ele><time>2026-04-25T16:30:12Z</time></trkpt><trkpt lat="40.217679172645155" lon="15.034247029216518"><ele>405.66666666666663</ele><time>2026-04-25T16:30:13Z</time></trkpt><trkpt lat="40.21765212056664" lon="15.034348890846845"><ele>407.0</ele><time>2026-04-25T16:30:14Z</time></trkpt><trkpt lat="40.21762787527631" lon="15.034449185274498"><ele>411.8</ele><time>2026-04-25T16:30:15Z</time></trkpt><trkpt lat="40.21760477106204" lon="15.034563635498653"><ele>416.6</ele><time>2026-04-25T16:30:16Z</time></trkpt><trkpt lat="40.21756912399507" lon="15.034664639977754"><ele>421.40000000000003</ele><time>2026-04-25T16:30:17Z</time></trkpt><trkpt lat="40.217551715026985" lon="15.034759829465669"><ele>426.20000000000005</ele><time>2026-04-25T16:30:18Z</time></trkpt><trkpt lat="40.21753309653021" lon="15.034883347274182"><ele>431.0</ele><time>2026-04-25T16:30:19Z</time></trkpt><trkpt lat="40.21751029341096" lon="15.035024090545939"><ele>433.0</ele><time>2026-04-25T16:30:20Z</time></trkpt><trkpt lat="40.21748286635399" lon="15.035172001287101"><ele>435.0</ele><time>2026-04-25T16:30:21Z</time></trkpt><trkpt lat="40.217454677538576" lon="15.035322186312287"><ele>437.0</ele><time>2026-04-25T16:30:22Z</time></trkpt><trkpt lat="40.21742518908767" lon="15.035475656003607"><ele>439.0</ele><time>2026-04-25T16:30:23Z</time></trkpt><trkpt lat="40.21740204927161" lon="15.03562187595995"><ele>439.0</ele><time>2026-04-25T16:30:24Z</time></trkpt><trkpt lat="40.217402291442255" lon="15.035764293870235"><ele>439.0</ele><time>2026-04-25T16:30:25Z</time></trkpt><trkpt lat="40.21740696619504" lon="15.035898402767838"><ele>439.0</ele><time>2026-04-25T16:30:26Z</time></trkpt><trkpt lat="40.21740152801745" lon="15.036032034150589"><ele>439.0</ele><time>2026-04-25T16:30:28Z</time></trkpt><trkpt lat="40.21731856372834" lon="15.036187355456319"><ele>442.79999999999995</ele><time>2026-04-25T16:30:30Z</time></trkpt><trkpt lat="40.21723599144837" lon="15.03622517739792"><ele>446.59999999999997</ele><time>2026-04-25T16:30:31Z</time></trkpt><trkpt lat="40.21715198573209" lon="15.036207369502646"><ele>450.4</ele><time>2026-04-25T16:30:32Z</time></trkpt><trkpt lat="40.2170846736516" lon="15.036155282234223"><ele>454.2</ele><time>2026-04-25T16:30:33Z</time></trkpt><trkpt lat="40.21700510554218" lon="15.036161514608745"><ele>458.0</ele><time>2026-04-25T16:30:35Z</time></trkpt><trkpt lat="40.216920349701496" lon="15.036319317536877"><ele>458.0</ele><time>2026-04-25T16:30:37Z</time></trkpt><trkpt lat="40.21692789193251" lon="15.036446528334384"><ele>458.0</ele><time>2026-04-25T16:30:38Z</time></trkpt><trkpt lat="40.21704313593583" lon="15.03660850218905"><ele>458.0</ele><time>2026-04-25T16:30:39Z</time></trkpt><trkpt lat="40.21709711450908" lon="15.03676400124141"><ele>458.0</ele><time>2026-04-25T16:30:40Z</time></trkpt><trkpt lat="40.21715822136724" lon="15.036868321896161"><ele>457.79999999999995</ele><time>2026-04-25T16:30:41Z</time></trkpt><trkpt lat="40.217228851146494" lon="15.036949835794996"><ele>457.59999999999997</ele><time>2026-04-25T16:30:42Z</time></trkpt><trkpt lat="40.2173171768922" lon="15.036963082314601"><ele>457.40000000000003</ele><time>2026-04-25T16:30:43Z</time></trkpt><trkpt lat="40.21737457684484" lon="15.03701019105004"><ele>457.20000000000005</ele><time>2026-04-25T16:30:46Z</time></trkpt><trkpt lat="40.21726776766221" lon="15.036986693452482"><ele>457.0</ele><time>2026-04-25T16:30:50Z</time></trkpt><trkpt lat="40.21715504623369" lon="15.036958965513492"><ele>459.25</ele><time>2026-04-25T16:30:50.999Z</time></trkpt><trkpt lat="40.21701830067674" lon="15.036899608278508"><ele>461.5</ele><time>2026-04-25T16:30:51.999Z</time></trkpt><trkpt lat="40.21690066147919" lon="15.036877946563308"><ele>463.75</ele><time>2026-04-25T16:30:52.999Z</time></trkpt><trkpt lat="40.21680740793887" lon="15.036853070205222"><ele>466.0</ele><time>2026-04-25T16:30:53.999Z</time></trkpt><trkpt lat="40.21670504549855" lon="15.036819837412995"><ele>466.0</ele><time>2026-04-25T16:30:54.999Z</time></trkpt><trkpt lat="40.21659913153167" lon="15.03678717721347"><ele>466.0</ele><time>2026-04-25T16:30:55.999Z</time></trkpt><trkpt lat="40.216505107204135" lon="15.036756666779352"><ele>466.0</ele><time>2026-04-25T16:30:56.999Z</time></trkpt><trkpt lat="40.21641459521076" lon="15.036727213010913"><ele>466.0</ele><time>2026-04-25T16:30:57.999Z</time></trkpt><trkpt lat="40.21633620991888" lon="15.036701949563712"><ele>466.0</ele><time>2026-04-25T16:30:58.999Z</time></trkpt><trkpt lat="40.21623023305059" lon="15.036686647753882"><ele>466.0</ele><time>2026-04-25T16:31:00.999Z</time></trkpt><trkpt lat="40.216162792058626" lon="15.03663799935611"><ele>466.0</ele><time>2026-04-25T16:31:04.999Z</time></trkpt><trkpt lat="40.21614441217552" lon="15.036535448788921"><ele>466.0</ele><time>2026-04-25T16:31:05.999Z</time></trkpt><trkpt lat="40.21610727508505" lon="15.036462894043522"><ele>466.0</ele><time>2026-04-25T16:31:06.999Z</time></trkpt><trkpt lat="40.21608623188978" lon="15.036351902807146"><ele>466.0</ele><time>2026-04-25T16:31:08.999Z</time></trkpt><trkpt lat="40.2160600497971" lon="15.036274530971045"><ele>466.0</ele><time>2026-04-25T16:31:10.999Z</time></trkpt><trkpt lat="40.216018833432614" lon="15.036198427690477"><ele>466.0</ele><time>2026-04-25T16:31:12.999Z</time></trkpt><trkpt lat="40.21600152208969" lon="15.036106736628755"><ele>466.0</ele><time>2026-04-25T16:31:13.999Z</time></trkpt><trkpt lat="40.215966170441575" lon="15.0359833231056"><ele>466.0</ele><time>2026-04-25T16:31:15.999Z</time></trkpt><trkpt lat="40.215942825588385" lon="15.035864615783181"><ele>466.0</ele><time>2026-04-25T16:31:17.999Z</time></trkpt><trkpt lat="40.2159438288753" lon="15.035747128826143"><ele>466.0</ele><time>2026-04-25T16:31:19.999Z</time></trkpt><trkpt lat="40.215935862090056" lon="15.035604175664691"><ele>466.0</ele><time>2026-04-25T16:31:21.999Z</time></trkpt><trkpt lat="40.21593335162572" lon="15.035472766707729"><ele>465.4</ele><time>2026-04-25T16:31:23.999Z</time></trkpt><trkpt lat="40.21592000042751" lon="15.035334062075007"><ele>464.8</ele><time>2026-04-25T16:31:25.999Z</time></trkpt><trkpt lat="40.215898695537874" lon="15.035178888666291"><ele>464.19999999999993</ele><time>2026-04-25T16:31:27.999Z</time></trkpt><trkpt lat="40.215900492077694" lon="15.035056403242988"><ele>463.59999999999997</ele><time>2026-04-25T16:31:29.999Z</time></trkpt><trkpt lat="40.21589452691083" lon="15.034935923616853"><ele>463.0</ele><time>2026-04-25T16:31:31.999Z</time></trkpt><trkpt lat="40.21588259040883" lon="15.0348059723477"><ele>461.1666666666667</ele><time>2026-04-25T16:31:33.999Z</time></trkpt><trkpt lat="40.21586739073634" lon="15.034692697569634"><ele>459.33333333333337</ele><time>2026-04-25T16:31:35.999Z</time></trkpt><trkpt lat="40.215860403343925" lon="15.03457578590181"><ele>457.5</ele><time>2026-04-25T16:31:38Z</time></trkpt><trkpt lat="40.21583001295142" lon="15.034452458937707"><ele>455.66666666666663</ele><time>2026-04-25T16:31:40Z</time></trkpt><trkpt lat="40.21580073537229" lon="15.034373434026211"><ele>453.8333333333333</ele><time>2026-04-25T16:31:42Z</time></trkpt><trkpt lat="40.21576515840585" lon="15.03427740691568"><ele>452.0</ele><time>2026-04-25T16:31:44Z</time></trkpt><trkpt lat="40.21566695404398" lon="15.034252434761864"><ele>450.8333333333333</ele><time>2026-04-25T16:31:45Z</time></trkpt><trkpt lat="40.21559983578671" lon="15.034165519515136"><ele>449.66666666666663</ele><time>2026-04-25T16:31:47Z</time></trkpt><trkpt lat="40.21553706339957" lon="15.034086982217694"><ele>448.5</ele><time>2026-04-25T16:31:48Z</time></trkpt><trkpt lat="40.21546384013104" lon="15.034010179203609"><ele>447.33333333333337</ele><time>2026-04-25T16:31:49Z</time></trkpt><trkpt lat="40.21538398670785" lon="15.033958248618505"><ele>446.1666666666667</ele><time>2026-04-25T16:31:50Z</time></trkpt><trkpt lat="40.215320892471546" lon="15.033902843896207"><ele>445.0</ele><time>2026-04-25T16:31:51Z</time></trkpt><trkpt lat="40.215262328146636" lon="15.033843708810386"><ele>445.0</ele><time>2026-04-25T16:31:52Z</time></trkpt><trkpt lat="40.215210190516565" lon="15.033781914205864"><ele>445.0</ele><time>2026-04-25T16:31:53Z</time></trkpt><trkpt lat="40.21513899197477" lon="15.033656211557178"><ele>445.0</ele><time>2026-04-25T16:31:55Z</time></trkpt><trkpt lat="40.2150960300315" lon="15.033574700616619"><ele>445.0</ele><time>2026-04-25T16:31:56Z</time></trkpt><trkpt lat="40.21505627927917" lon="15.033476360146041"><ele>445.0</ele><time>2026-04-25T16:31:57Z</time></trkpt><trkpt lat="40.2148659426408" lon="15.033424463803568"><ele>444.25</ele><time>2026-04-25T16:31:58Z</time></trkpt><trkpt lat="40.21475008507733" lon="15.033356440725356"><ele>443.5</ele><time>2026-04-25T16:31:59Z</time></trkpt><trkpt lat="40.21463908418187" lon="15.033295595291639"><ele>442.75</ele><time>2026-04-25T16:32:00Z</time></trkpt><trkpt lat="40.21453073168132" lon="15.033241544812464"><ele>442.0</ele><time>2026-04-25T16:32:01Z</time></trkpt><trkpt lat="40.214409691943374" lon="15.033191082835243"><ele>442.0</ele><time>2026-04-25T16:32:02Z</time></trkpt><trkpt lat="40.21428527599474" lon="15.033157498001533"><ele>442.0</ele><time>2026-04-25T16:32:03Z</time></trkpt><trkpt lat="40.21414220752754" lon="15.033142822474108"><ele>442.0</ele><time>2026-04-25T16:32:04Z</time></trkpt><trkpt lat="40.214010806650826" lon="15.03313626986543"><ele>442.0</ele><time>2026-04-25T16:32:05Z</time></trkpt><trkpt lat="40.21388704123045" lon="15.033132204567465"><ele>441.40000000000003</ele><time>2026-04-25T16:32:06Z</time></trkpt><trkpt lat="40.21374764996121" lon="15.03313204151603"><ele>440.80000000000007</ele><time>2026-04-25T16:32:07Z</time></trkpt><trkpt lat="40.213624193818966" lon="15.033138939536828"><ele>440.2</ele><time>2026-04-25T16:32:08Z</time></trkpt><trkpt lat="40.213533297802684" lon="15.033171911477211"><ele>439.6</ele><time>2026-04-25T16:32:09Z</time></trkpt><trkpt lat="40.213464575652075" lon="15.033210572322739"><ele>439.0</ele><time>2026-04-25T16:32:10Z</time></trkpt><trkpt lat="40.213369163854864" lon="15.03323196927551"><ele>439.0</ele><time>2026-04-25T16:32:11Z</time></trkpt><trkpt lat="40.213247232938826" lon="15.033221611728004"><ele>439.0</ele><time>2026-04-25T16:32:12Z</time></trkpt><trkpt lat="40.213119718910896" lon="15.033211157635257"><ele>439.0</ele><time>2026-04-25T16:32:13Z</time></trkpt><trkpt lat="40.2129882392067" lon="15.033194884002109"><ele>439.0</ele><time>2026-04-25T16:32:14Z</time></trkpt><trkpt lat="40.21286400642184" lon="15.033170247305328"><ele>439.5</ele><time>2026-04-25T16:32:15Z</time></trkpt><trkpt lat="40.21273227410337" lon="15.033130022923933"><ele>440.0</ele><time>2026-04-25T16:32:16Z</time></trkpt><trkpt lat="40.21260730400811" lon="15.033085382235042"><ele>440.5</ele><time>2026-04-25T16:32:17Z</time></trkpt><trkpt lat="40.212478930487386" lon="15.033039525828947"><ele>441.0</ele><time>2026-04-25T16:32:18Z</time></trkpt><trkpt lat="40.21234234097013" lon="15.033010941323516"><ele>439.66666666666663</ele><time>2026-04-25T16:32:19Z</time></trkpt><trkpt lat="40.212191196659674" lon="15.032958485399675"><ele>438.3333333333333</ele><time>2026-04-25T16:32:20Z</time></trkpt><trkpt lat="40.21202459088044" lon="15.032954111770078"><ele>437.0</ele><time>2026-04-25T16:32:21Z</time></trkpt><trkpt lat="40.211852076595015" lon="15.032967663564914"><ele>437.0</ele><time>2026-04-25T16:32:22Z</time></trkpt><trkpt lat="40.2116718499423" lon="15.032992724394251"><ele>437.0</ele><time>2026-04-25T16:32:23Z</time></trkpt><trkpt lat="40.211493256890364" lon="15.03301681826006"><ele>437.0</ele><time>2026-04-25T16:32:24Z</time></trkpt><trkpt lat="40.21133264497597" lon="15.033040384024734"><ele>432.5</ele><time>2026-04-25T16:32:25Z</time></trkpt><trkpt lat="40.21117637292519" lon="15.033064964938234"><ele>428.0</ele><time>2026-04-25T16:32:26Z</time></trkpt><trkpt lat="40.21103817205792" lon="15.03308499015009"><ele>423.5</ele><time>2026-04-25T16:32:27Z</time></trkpt><trkpt lat="40.210895615314534" lon="15.033100595064544"><ele>419.0</ele><time>2026-04-25T16:32:28Z</time></trkpt><trkpt lat="40.210752595810355" lon="15.033108366564267"><ele>420.25</ele><time>2026-04-25T16:32:29Z</time></trkpt><trkpt lat="40.210608384342535" lon="15.033107832783472"><ele>421.5</ele><time>2026-04-25T16:32:30Z</time></trkpt><trkpt lat="40.21046822320058" lon="15.033111218997455"><ele>422.75</ele><time>2026-04-25T16:32:31Z</time></trkpt><trkpt lat="40.21032492819303" lon="15.033081002599681"><ele>424.0</ele><time>2026-04-25T16:32:32Z</time></trkpt><trkpt lat="40.21017219087449" lon="15.033034238163134"><ele>424.0</ele><time>2026-04-25T16:32:33Z</time></trkpt><trkpt lat="40.21002559937994" lon="15.03297128461967"><ele>424.0</ele><time>2026-04-25T16:32:34Z</time></trkpt><trkpt lat="40.20988733937283" lon="15.032900617808519"><ele>424.0</ele><time>2026-04-25T16:32:35Z</time></trkpt><trkpt lat="40.209780623431236" lon="15.03283392996739"><ele>424.0</ele><time>2026-04-25T16:32:36Z</time></trkpt><trkpt lat="40.20967449252172" lon="15.03276025967505"><ele>424.25</ele><time>2026-04-25T16:32:37Z</time></trkpt><trkpt lat="40.20958653443082" lon="15.032641896060868"><ele>424.5</ele><time>2026-04-25T16:32:38Z</time></trkpt><trkpt lat="40.209520095638425" lon="15.032476339428202"><ele>424.75</ele><time>2026-04-25T16:32:39Z</time></trkpt><trkpt lat="40.20946427704651" lon="15.032264614947572"><ele>425.0</ele><time>2026-04-25T16:32:40Z</time></trkpt><trkpt lat="40.209410351781564" lon="15.032074497143656"><ele>425.0</ele><time>2026-04-25T16:32:41Z</time></trkpt><trkpt lat="40.20933505987054" lon="15.031885938092667"><ele>425.0</ele><time>2026-04-25T16:32:42Z</time></trkpt><trkpt lat="40.209258673328584" lon="15.031701640335681"><ele>425.0</ele><time>2026-04-25T16:32:43Z</time></trkpt><trkpt lat="40.20917363180125" lon="15.031515669707012"><ele>423.66666666666663</ele><time>2026-04-25T16:32:44Z</time></trkpt><trkpt lat="40.2090932611215" lon="15.031340051498699"><ele>422.33333333333337</ele><time>2026-04-25T16:32:45Z</time></trkpt><trkpt lat="40.20901540491878" lon="15.031166748720086"><ele>421.0</ele><time>2026-04-25T16:32:46Z</time></trkpt><trkpt lat="40.20894168193555" lon="15.030993944196114"><ele>421.0</ele><time>2026-04-25T16:32:47Z</time></trkpt><trkpt lat="40.208871970853465" lon="15.030824721535526"><ele>421.0</ele><time>2026-04-25T16:32:48Z</time></trkpt><trkpt lat="40.20880827482928" lon="15.030657275941547"><ele>421.0</ele><time>2026-04-25T16:32:49Z</time></trkpt><trkpt lat="40.2087378974361" lon="15.030500975501923"><ele>421.0</ele><time>2026-04-25T16:32:50Z</time></trkpt><trkpt lat="40.20865371169746" lon="15.030350548614116"><ele>416.0</ele><time>2026-04-25T16:32:51Z</time></trkpt><trkpt lat="40.20854265840643" lon="15.030203652449122"><ele>411.0</ele><time>2026-04-25T16:32:52Z</time></trkpt><trkpt lat="40.20839792928187" lon="15.030073206977212"><ele>406.0</ele><time>2026-04-25T16:32:53Z</time></trkpt><trkpt lat="40.20825874591462" lon="15.029961856229788"><ele>400.0</ele><time>2026-04-25T16:32:54Z</time></trkpt><trkpt lat="40.20812570990415" lon="15.029851624132524"><ele>394.0</ele><time>2026-04-25T16:32:55Z</time></trkpt><trkpt lat="40.20800692381015" lon="15.029752601385894"><ele>388.0</ele><time>2026-04-25T16:32:56Z</time></trkpt><trkpt lat="40.2079020425047" lon="15.029663603685334"><ele>382.0</ele><time>2026-04-25T16:32:57Z</time></trkpt><trkpt lat="40.207798322145955" lon="15.029593608949108"><ele>382.0</ele><time>2026-04-25T16:32:57.999Z</time></trkpt><trkpt lat="40.20769190017907" lon="15.029554735450857"><ele>382.0</ele><time>2026-04-25T16:32:58.999Z</time></trkpt><trkpt lat="40.207575582303015" lon="15.029562279701663"><ele>382.0</ele><time>2026-04-25T16:32:59.999Z</time></trkpt><trkpt lat="40.207436595618006" lon="15.02962505106349"><ele>382.0</ele><time>2026-04-25T16:33:00.999Z</time></trkpt><trkpt lat="40.20729344775063" lon="15.0297429747435"><ele>379.0</ele><time>2026-04-25T16:33:01.999Z</time></trkpt><trkpt lat="40.20713075450187" lon="15.029830771204137"><ele>376.0</ele><time>2026-04-25T16:33:02.999Z</time></trkpt><trkpt lat="40.20698951395733" lon="15.029920334799248"><ele>373.0</ele><time>2026-04-25T16:33:03.999Z</time></trkpt><trkpt lat="40.206851150587745" lon="15.030005961190637"><ele>375.3333333333333</ele><time>2026-04-25T16:33:04.999Z</time></trkpt><trkpt lat="40.20670777245627" lon="15.030096529472566"><ele>377.6666666666667</ele><time>2026-04-25T16:33:05.999Z</time></trkpt><trkpt lat="40.206569208799166" lon="15.030184841719306"><ele>380.0</ele><time>2026-04-25T16:33:06.999Z</time></trkpt><trkpt lat="40.206437095549774" lon="15.03026929538261"><ele>380.0</ele><time>2026-04-25T16:33:07.999Z</time></trkpt><trkpt lat="40.20630640475877" lon="15.030352839723426"><ele>380.0</ele><time>2026-04-25T16:33:08.999Z</time></trkpt><trkpt lat="40.206176793481674" lon="15.030438609231476"><ele>380.0</ele><time>2026-04-25T16:33:09.999Z</time></trkpt><trkpt lat="40.20603381316519" lon="15.030470662679953"><ele>380.0</ele><time>2026-04-25T16:33:10.999Z</time></trkpt><trkpt lat="40.2058699062666" lon="15.030464933076939"><ele>380.0</ele><time>2026-04-25T16:33:11.999Z</time></trkpt><trkpt lat="40.20569141682283" lon="15.030420636175343"><ele>380.0</ele><time>2026-04-25T16:33:12.999Z</time></trkpt><trkpt lat="40.20550324892878" lon="15.03035267752349"><ele>380.0</ele><time>2026-04-25T16:33:13.999Z</time></trkpt><trkpt lat="40.20533143252027" lon="15.030291805532299"><ele>379.6666666666667</ele><time>2026-04-25T16:33:14.999Z</time></trkpt><trkpt lat="40.205161134208645" lon="15.030236765501803"><ele>379.3333333333333</ele><time>2026-04-25T16:33:15.999Z</time></trkpt><trkpt lat="40.20500251041572" lon="15.030185547843637"><ele>379.0</ele><time>2026-04-25T16:33:16.999Z</time></trkpt><trkpt lat="40.20484611337498" lon="15.03013776572829"><ele>377.66666666666663</ele><time>2026-04-25T16:33:17.999Z</time></trkpt><trkpt lat="40.2046948092892" lon="15.03008939737567"><ele>376.3333333333333</ele><time>2026-04-25T16:33:18.999Z</time></trkpt><trkpt lat="40.204546046000154" lon="15.030038345392256"><ele>375.0</ele><time>2026-04-25T16:33:19.999Z</time></trkpt><trkpt lat="40.20439882947253" lon="15.029979221323563"><ele>368.3333333333333</ele><time>2026-04-25T16:33:20.999Z</time></trkpt><trkpt lat="40.204248947064606" lon="15.029915816380312"><ele>361.66666666666663</ele><time>2026-04-25T16:33:21.999Z</time></trkpt><trkpt lat="40.2041049970662" lon="15.029861587303898"><ele>355.0</ele><time>2026-04-25T16:33:22.999Z</time></trkpt><trkpt lat="40.20396520211823" lon="15.029809372286472"><ele>354.5</ele><time>2026-04-25T16:33:23.999Z</time></trkpt><trkpt lat="40.20384002228618" lon="15.029754521077786"><ele>354.0</ele><time>2026-04-25T16:33:24.999Z</time></trkpt><trkpt lat="40.20371394243689" lon="15.029702473683967"><ele>353.5</ele><time>2026-04-25T16:33:25.999Z</time></trkpt><trkpt lat="40.203590311255425" lon="15.029679817771504"><ele>353.0</ele><time>2026-04-25T16:33:26.999Z</time></trkpt><trkpt lat="40.20345444137721" lon="15.029693410289793"><ele>353.0</ele><time>2026-04-25T16:33:27.999Z</time></trkpt><trkpt lat="40.20332185998884" lon="15.02971757103987"><ele>353.0</ele><time>2026-04-25T16:33:28.999Z</time></trkpt><trkpt lat="40.203201200798546" lon="15.029725219653955"><ele>353.0</ele><time>2026-04-25T16:33:29.999Z</time></trkpt><trkpt lat="40.203081438050255" lon="15.029697869412251"><ele>353.0</ele><time>2026-04-25T16:33:30.999Z</time></trkpt><trkpt lat="40.20296918700387" lon="15.029638078619708"><ele>355.79999999999995</ele><time>2026-04-25T16:33:31.999Z</time></trkpt><trkpt lat="40.20286451510826" lon="15.029548402769718"><ele>358.6</ele><time>2026-04-25T16:33:32.999Z</time></trkpt><trkpt lat="40.202788539559535" lon="15.029462622715197"><ele>361.4</ele><time>2026-04-25T16:33:33.999Z</time></trkpt><trkpt lat="40.202729259653616" lon="15.02935597826677"><ele>364.20000000000005</ele><time>2026-04-25T16:33:34.999Z</time></trkpt><trkpt lat="40.20268434963315" lon="15.029230660969557"><ele>367.0</ele><time>2026-04-25T16:33:35.999Z</time></trkpt><trkpt lat="40.20265943787651" lon="15.029075450310797"><ele>367.0</ele><time>2026-04-25T16:33:36.999Z</time></trkpt><trkpt lat="40.20266334797717" lon="15.02888929796229"><ele>367.0</ele><time>2026-04-25T16:33:37.999Z</time></trkpt><trkpt lat="40.20267074489646" lon="15.02870822099734"><ele>367.0</ele><time>2026-04-25T16:33:38.999Z</time></trkpt><trkpt lat="40.20266065042786" lon="15.028539421087507"><ele>367.0</ele><time>2026-04-25T16:33:39.999Z</time></trkpt><trkpt lat="40.2026370885038" lon="15.028388307589509"><ele>365.20000000000005</ele><time>2026-04-25T16:33:40.999Z</time></trkpt><trkpt lat="40.202611839886984" lon="15.028253636638363"><ele>363.4</ele><time>2026-04-25T16:33:41.999Z</time></trkpt><trkpt lat="40.2025822163387" lon="15.028132799719982"><ele>361.6</ele><time>2026-04-25T16:33:42.999Z</time></trkpt><trkpt lat="40.2025267926161" lon="15.02801922695165"><ele>359.79999999999995</ele><time>2026-04-25T16:33:44Z</time></trkpt><trkpt lat="40.20244349268599" lon="15.027936294737177"><ele>358.0</ele><time>2026-04-25T16:33:45Z</time></trkpt><trkpt lat="40.2023293663802" lon="15.027892037749353"><ele>358.0</ele><time>2026-04-25T16:33:46Z</time></trkpt><trkpt lat="40.20221468751178" lon="15.02785423040531"><ele>358.0</ele><time>2026-04-25T16:33:47Z</time></trkpt><trkpt lat="40.202109881562414" lon="15.027797380941864"><ele>358.0</ele><time>2026-04-25T16:33:48Z</time></trkpt><trkpt lat="40.20201535758733" lon="15.027724375083961"><ele>358.0</ele><time>2026-04-25T16:33:49Z</time></trkpt><trkpt lat="40.20192238147917" lon="15.02764244495464"><ele>358.0</ele><time>2026-04-25T16:33:50Z</time></trkpt><trkpt lat="40.201830140659936" lon="15.02755902955337"><ele>358.0</ele><time>2026-04-25T16:33:51Z</time></trkpt><trkpt lat="40.20174808263948" lon="15.027453894561269"><ele>358.0</ele><time>2026-04-25T16:33:52Z</time></trkpt><trkpt lat="40.20166753727639" lon="15.02735587793881"><ele>358.0</ele><time>2026-04-25T16:33:53Z</time></trkpt><trkpt lat="40.201577655359124" lon="15.027217379422474"><ele>354.66666666666663</ele><time>2026-04-25T16:33:54Z</time></trkpt><trkpt lat="40.20146264151535" lon="15.027062467101901"><ele>351.3333333333333</ele><time>2026-04-25T16:33:55Z</time></trkpt><trkpt lat="40.20134697583655" lon="15.026909588208555"><ele>348.0</ele><time>2026-04-25T16:33:56Z</time></trkpt><trkpt lat="40.20123946768896" lon="15.026761590651448"><ele>344.0</ele><time>2026-04-25T16:33:57Z</time></trkpt><trkpt lat="40.2011355822392" lon="15.026614590987327"><ele>340.0</ele><time>2026-04-25T16:33:58Z</time></trkpt><trkpt lat="40.20103923342472" lon="15.026488385184122"><ele>336.0</ele><time>2026-04-25T16:33:59Z</time></trkpt><trkpt lat="40.20093251109318" lon="15.026405412251961"><ele>332.0</ele><time>2026-04-25T16:34:00Z</time></trkpt><trkpt lat="40.20080417552169" lon="15.02637421909973"><ele>327.33333333333337</ele><time>2026-04-25T16:34:01Z</time></trkpt><trkpt lat="40.20064936174818" lon="15.02637969758882"><ele>322.6666666666667</ele><time>2026-04-25T16:34:02Z</time></trkpt><trkpt lat="40.20048186913786" lon="15.026422841837839"><ele>318.0</ele><time>2026-04-25T16:34:03Z</time></trkpt><trkpt lat="40.20030157369988" lon="15.026498193566397"><ele>318.0</ele><time>2026-04-25T16:34:04Z</time></trkpt><trkpt lat="40.20011337074581" lon="15.02657805152474"><ele>318.0</ele><time>2026-04-25T16:34:05Z</time></trkpt><trkpt lat="40.19993832087157" lon="15.02665932265259"><ele>318.0</ele><time>2026-04-25T16:34:06Z</time></trkpt><trkpt lat="40.19977506126514" lon="15.026740013892216"><ele>318.3333333333333</ele><time>2026-04-25T16:34:07Z</time></trkpt><trkpt lat="40.19961019056238" lon="15.026795431102396"><ele>318.66666666666663</ele><time>2026-04-25T16:34:08Z</time></trkpt><trkpt lat="40.19945205993234" lon="15.026865848478131"><ele>319.0</ele><time>2026-04-25T16:34:09Z</time></trkpt><trkpt lat="40.19929739281533" lon="15.026934723454142"><ele>319.0</ele><time>2026-04-25T16:34:10Z</time></trkpt><trkpt lat="40.199147016937665" lon="15.027020763321076"><ele>319.0</ele><time>2026-04-25T16:34:11Z</time></trkpt><trkpt lat="40.198988359277784" lon="15.027098908591645"><ele>319.0</ele><time>2026-04-25T16:34:12Z</time></trkpt><trkpt lat="40.198824086331626" lon="15.027160851400229"><ele>311.3333333333333</ele><time>2026-04-25T16:34:13Z</time></trkpt><trkpt lat="40.19867154550617" lon="15.027255757930892"><ele>303.6666666666667</ele><time>2026-04-25T16:34:14Z</time></trkpt><trkpt lat="40.19853076961074" lon="15.027377115623587"><ele>296.0</ele><time>2026-04-25T16:34:15Z</time></trkpt><trkpt lat="40.19838034523831" lon="15.027455529274183"><ele>301.0</ele><time>2026-04-25T16:34:16Z</time></trkpt><trkpt lat="40.198226396781976" lon="15.027542593139254"><ele>306.0</ele><time>2026-04-25T16:34:17Z</time></trkpt><trkpt lat="40.19807354042975" lon="15.027615724536068"><ele>311.0</ele><time>2026-04-25T16:34:18Z</time></trkpt><trkpt lat="40.19794335810597" lon="15.027698355682592"><ele>311.0</ele><time>2026-04-25T16:34:19Z</time></trkpt><trkpt lat="40.1978090563974" lon="15.027763357745435"><ele>311.0</ele><time>2026-04-25T16:34:20Z</time></trkpt><trkpt lat="40.19767875835344" lon="15.02783392252842"><ele>311.0</ele><time>2026-04-25T16:34:21Z</time></trkpt><trkpt lat="40.197554708038744" lon="15.027900567605863"><ele>311.0</ele><time>2026-04-25T16:34:22Z</time></trkpt><trkpt lat="40.19743585509621" lon="15.028003461040043"><ele>311.0</ele><time>2026-04-25T16:34:23Z</time></trkpt><trkpt lat="40.1973392625829" lon="15.02815014284356"><ele>311.0</ele><time>2026-04-25T16:34:24Z</time></trkpt><trkpt lat="40.19724750321972" lon="15.028287629359804"><ele>311.0</ele><time>2026-04-25T16:34:25Z</time></trkpt><trkpt lat="40.19717965093343" lon="15.028438301482657"><ele>311.0</ele><time>2026-04-25T16:34:26Z</time></trkpt><trkpt lat="40.197132198739894" lon="15.028593913860316"><ele>310.40000000000003</ele><time>2026-04-25T16:34:27Z</time></trkpt><trkpt lat="40.1970778590535" lon="15.02871827332738"><ele>309.8</ele><time>2026-04-25T16:34:28Z</time></trkpt><trkpt lat="40.196992615972" lon="15.028795226018833"><ele>309.20000000000005</ele><time>2026-04-25T16:34:29Z</time></trkpt><trkpt lat="40.19695210252885" lon="15.028874878537438"><ele>308.6</ele><time>2026-04-25T16:34:30Z</time></trkpt><trkpt lat="40.19684425216608" lon="15.028913030522292"><ele>308.0</ele><time>2026-04-25T16:34:32Z</time></trkpt><trkpt lat="40.19679343328782" lon="15.02886423144654"><ele>308.0</ele><time>2026-04-25T16:34:33Z</time></trkpt><trkpt lat="40.19675129928164" lon="15.028790926554157"><ele>308.0</ele><time>2026-04-25T16:34:34Z</time></trkpt><trkpt lat="40.19677952729418" lon="15.028676841559301"><ele>308.0</ele><time>2026-04-25T16:34:35Z</time></trkpt><trkpt lat="40.19682336678999" lon="15.0285781151368"><ele>308.0</ele><time>2026-04-25T16:34:36Z</time></trkpt><trkpt lat="40.19689434170387" lon="15.028456973063923"><ele>308.0</ele><time>2026-04-25T16:34:37Z</time></trkpt><trkpt lat="40.19697060770604" lon="15.028332058753218"><ele>302.5</ele><time>2026-04-25T16:34:38Z</time></trkpt><trkpt lat="40.19705127111682" lon="15.028201778164288"><ele>297.0</ele><time>2026-04-25T16:34:39Z</time></trkpt><trkpt lat="40.19713157561628" lon="15.028071252340695"><ele>291.5</ele><time>2026-04-25T16:34:40Z</time></trkpt><trkpt lat="40.197205675084035" lon="15.027953586784347"><ele>286.0</ele><time>2026-04-25T16:34:41Z</time></trkpt><trkpt lat="40.1972776899296" lon="15.02784609679392"><ele>292.25</ele><time>2026-04-25T16:34:42Z</time></trkpt><trkpt lat="40.197355966680306" lon="15.027749817175613"><ele>298.5</ele><time>2026-04-25T16:34:43Z</time></trkpt><trkpt lat="40.19745590780197" lon="15.027662047665684"><ele>304.75</ele><time>2026-04-25T16:34:44Z</time></trkpt><trkpt lat="40.19756255720689" lon="15.027584611630727"><ele>311.0</ele><time>2026-04-25T16:34:45Z</time></trkpt><trkpt lat="40.19765821667831" lon="15.02751647983732"><ele>304.40000000000003</ele><time>2026-04-25T16:34:46Z</time></trkpt><trkpt lat="40.19774565394864" lon="15.027450319960426"><ele>297.8</ele><time>2026-04-25T16:34:47Z</time></trkpt><trkpt lat="40.197833072969466" lon="15.027381558114376"><ele>291.20000000000005</ele><time>2026-04-25T16:34:48Z</time></trkpt><trkpt lat="40.19792305446237" lon="15.027312719448242"><ele>284.6</ele><time>2026-04-25T16:34:49Z</time></trkpt><trkpt lat="40.19801894631447" lon="15.02723492214725"><ele>278.0</ele><time>2026-04-25T16:34:50Z</time></trkpt><trkpt lat="40.19811167810332" lon="15.027160160485787"><ele>281.6</ele><time>2026-04-25T16:34:51Z</time></trkpt><trkpt lat="40.19820593412261" lon="15.027085745514935"><ele>285.20000000000005</ele><time>2026-04-25T16:34:52Z</time></trkpt><trkpt lat="40.19830312919207" lon="15.027015398360918"><ele>288.8</ele><time>2026-04-25T16:34:53Z</time></trkpt><trkpt lat="40.198391675244046" lon="15.026951685614595"><ele>292.40000000000003</ele><time>2026-04-25T16:34:54Z</time></trkpt><trkpt lat="40.1984685951854" lon="15.026892726733603"><ele>296.0</ele><time>2026-04-25T16:34:55Z</time></trkpt><trkpt lat="40.1985233940866" lon="15.026848977330038"><ele>296.0</ele><time>2026-04-25T16:34:57Z</time></trkpt><trkpt lat="40.198463194965576" lon="15.026766212371404"><ele>296.0</ele><time>2026-04-25T16:35:02.999Z</time></trkpt><trkpt lat="40.19836541253036" lon="15.026804320263052"><ele>296.0</ele><time>2026-04-25T16:35:04.999Z</time></trkpt><trkpt lat="40.198246355931225" lon="15.026819964866984"><ele>296.0</ele><time>2026-04-25T16:35:06.999Z</time></trkpt><trkpt lat="40.19817859854234" lon="15.02682913133282"><ele>296.0</ele><time>2026-04-25T16:35:07.999Z</time></trkpt><trkpt lat="40.198107628611915" lon="15.026845243278753"><ele>296.0</ele><time>2026-04-25T16:35:08.999Z</time></trkpt><trkpt lat="40.198039415565404" lon="15.026865958524152"><ele>292.40000000000003</ele><time>2026-04-25T16:35:09.999Z</time></trkpt><trkpt lat="40.19793236189517" lon="15.02690649196562"><ele>288.8</ele><time>2026-04-25T16:35:11.999Z</time></trkpt><trkpt lat="40.19781464634542" lon="15.026940008836643"><ele>285.20000000000005</ele><time>2026-04-25T16:35:13.999Z</time></trkpt><trkpt lat="40.19774701325703" lon="15.02696274748484"><ele>281.6</ele><time>2026-04-25T16:35:14.999Z</time></trkpt><trkpt lat="40.19768160987351" lon="15.02698132863099"><ele>278.0</ele><time>2026-04-25T16:35:15.999Z</time></trkpt><trkpt lat="40.19757067799981" lon="15.027011688783336"><ele>278.0</ele><time>2026-04-25T16:35:17.999Z</time></trkpt><trkpt lat="40.19745835740277" lon="15.027040085730942"><ele>278.0</ele><time>2026-04-25T16:35:19.999Z</time></trkpt><trkpt lat="40.19738763829245" lon="15.027058917112063"><ele>278.0</ele><time>2026-04-25T16:35:20.999Z</time></trkpt><trkpt lat="40.19732301349323" lon="15.027075450294165"><ele>278.0</ele><time>2026-04-25T16:35:21.999Z</time></trkpt><trkpt lat="40.197182600585016" lon="15.027062450874826"><ele>278.0</ele><time>2026-04-25T16:35:23.999Z</time></trkpt><trkpt lat="40.19709556337449" lon="15.0270613392499"><ele>274.33333333333337</ele><time>2026-04-25T16:35:24.999Z</time></trkpt><trkpt lat="40.197014497368436" lon="15.027076593579752"><ele>270.6666666666667</ele><time>2026-04-25T16:35:25.999Z</time></trkpt><trkpt lat="40.19694599933514" lon="15.027099578655106"><ele>267.0</ele><time>2026-04-25T16:35:26.999Z</time></trkpt><trkpt lat="40.196826645707105" lon="15.02709713864379"><ele>263.3333333333333</ele><time>2026-04-25T16:35:28.999Z</time></trkpt><trkpt lat="40.19676360140432" lon="15.027096375944852"><ele>259.66666666666663</ele><time>2026-04-25T16:35:29.999Z</time></trkpt><trkpt lat="40.196693341653315" lon="15.027111284263949"><ele>256.0</ele><time>2026-04-25T16:35:30.999Z</time></trkpt><trkpt lat="40.19662750758538" lon="15.027127460045614"><ele>256.0</ele><time>2026-04-25T16:35:31.999Z</time></trkpt><trkpt lat="40.19651943240533" lon="15.02715042537329"><ele>256.0</ele><time>2026-04-25T16:35:33.999Z</time></trkpt><trkpt lat="40.19640151095755" lon="15.027196323228202"><ele>256.0</ele><time>2026-04-25T16:35:35.999Z</time></trkpt><trkpt lat="40.196333524139376" lon="15.027241693184276"><ele>256.0</ele><time>2026-04-25T16:35:36.999Z</time></trkpt><trkpt lat="40.19626772650224" lon="15.027279203177441"><ele>256.0</ele><time>2026-04-25T16:35:37.999Z</time></trkpt><trkpt lat="40.196200804072056" lon="15.027312197155334"><ele>253.8</ele><time>2026-04-25T16:35:38.999Z</time></trkpt><trkpt lat="40.196143209244816" lon="15.027346344274903"><ele>251.60000000000002</ele><time>2026-04-25T16:35:39.999Z</time></trkpt><trkpt lat="40.19603760268562" lon="15.027424112058787"><ele>249.4</ele><time>2026-04-25T16:35:41.999Z</time></trkpt><trkpt lat="40.19591114423612" lon="15.027472690816094"><ele>247.2</ele><time>2026-04-25T16:35:43.999Z</time></trkpt><trkpt lat="40.195827310988705" lon="15.027485298489495"><ele>245.0</ele><time>2026-04-25T16:35:44.999Z</time></trkpt><trkpt lat="40.19574073510095" lon="15.027486492939154"><ele>243.83333333333334</ele><time>2026-04-25T16:35:45.999Z</time></trkpt><trkpt lat="40.19565993693352" lon="15.027483386214433"><ele>242.66666666666669</ele><time>2026-04-25T16:35:46.999Z</time></trkpt><trkpt lat="40.1955852005393" lon="15.027476416326913"><ele>241.5</ele><time>2026-04-25T16:35:47.999Z</time></trkpt><trkpt lat="40.195517156574965" lon="15.027474212117953"><ele>240.33333333333331</ele><time>2026-04-25T16:35:48.999Z</time></trkpt><trkpt lat="40.19544921845942" lon="15.027485111946888"><ele>239.16666666666666</ele><time>2026-04-25T16:35:50Z</time></trkpt><trkpt lat="40.195371650072644" lon="15.02750993575099"><ele>238.0</ele><time>2026-04-25T16:35:51Z</time></trkpt><trkpt lat="40.195290517828255" lon="15.027526817003237"><ele>237.57142857142856</ele><time>2026-04-25T16:35:52Z</time></trkpt><trkpt lat="40.195217014047245" lon="15.027537434925154"><ele>237.14285714285714</ele><time>2026-04-25T16:35:53Z</time></trkpt><trkpt lat="40.19514515508518" lon="15.027545091406495"><ele>236.71428571428572</ele><time>2026-04-25T16:35:54Z</time></trkpt><trkpt lat="40.1950779629287" lon="15.0275554977742"><ele>236.28571428571428</ele><time>2026-04-25T16:35:55Z</time></trkpt><trkpt lat="40.19501250855705" lon="15.027576275282282"><ele>235.85714285714283</ele><time>2026-04-25T16:35:56Z</time></trkpt><trkpt lat="40.194937866172175" lon="15.027606874288102"><ele>235.42857142857142</ele><time>2026-04-25T16:35:57Z</time></trkpt><trkpt lat="40.19486524446765" lon="15.027648658183681"><ele>235.0</ele><time>2026-04-25T16:35:58Z</time></trkpt><trkpt lat="40.19478491440979" lon="15.027706661061838"><ele>234.99999999999997</ele><time>2026-04-25T16:35:59Z</time></trkpt><trkpt lat="40.194709588717224" lon="15.027770401613632"><ele>235.0</ele><time>2026-04-25T16:36:00Z</time></trkpt><trkpt lat="40.19463605153752" lon="15.02783179250871"><ele>235.0</ele><time>2026-04-25T16:36:01Z</time></trkpt><trkpt lat="40.19456209941924" lon="15.027893850797048"><ele>235.0</ele><time>2026-04-25T16:36:02Z</time></trkpt><trkpt lat="40.194495298366775" lon="15.027947388379685"><ele>234.99999999999997</ele><time>2026-04-25T16:36:03Z</time></trkpt><trkpt lat="40.194436253145426" lon="15.028004511752735"><ele>235.0</ele><time>2026-04-25T16:36:04Z</time></trkpt><trkpt lat="40.19438459116322" lon="15.02806865333892"><ele>234.99999999999997</ele><time>2026-04-25T16:36:05Z</time></trkpt><trkpt lat="40.19432840737977" lon="15.028146155847514"><ele>235.0</ele><time>2026-04-25T16:36:06Z</time></trkpt><trkpt lat="40.194276993016366" lon="15.028226408480107"><ele>235.0</ele><time>2026-04-25T16:36:07Z</time></trkpt><trkpt lat="40.194235477099284" lon="15.028291639040168"><ele>235.0</ele><time>2026-04-25T16:36:08Z</time></trkpt><trkpt lat="40.19412066646963" lon="15.028351964720283"><ele>234.99999999999997</ele><time>2026-04-25T16:36:10Z</time></trkpt><trkpt lat="40.19403158436389" lon="15.028357331611133"><ele>235.0</ele><time>2026-04-25T16:36:11Z</time></trkpt><trkpt lat="40.19395277068283" lon="15.028361305824673"><ele>233.66666666666666</ele><time>2026-04-25T16:36:12Z</time></trkpt><trkpt lat="40.19387764719509" lon="15.02836847011766"><ele>232.33333333333331</ele><time>2026-04-25T16:36:13Z</time></trkpt><trkpt lat="40.19380119598295" lon="15.028369743964141"><ele>231.0</ele><time>2026-04-25T16:36:14Z</time></trkpt><trkpt lat="40.193727702660844" lon="15.02836782711936"><ele>229.66666666666669</ele><time>2026-04-25T16:36:15Z</time></trkpt><trkpt lat="40.19364000544543" lon="15.028355224631534"><ele>228.33333333333334</ele><time>2026-04-25T16:36:16Z</time></trkpt><trkpt lat="40.193561303405566" lon="15.028355371199531"><ele>227.0</ele><time>2026-04-25T16:36:17Z</time></trkpt><trkpt lat="40.19348502518417" lon="15.028373407267154"><ele>227.00000000000003</ele><time>2026-04-25T16:36:18Z</time></trkpt><trkpt lat="40.1933891526862" lon="15.028408506956813"><ele>227.0</ele><time>2026-04-25T16:36:20Z</time></trkpt><trkpt lat="40.19334165421299" lon="15.028487445458579"><ele>227.0</ele><time>2026-04-25T16:36:22Z</time></trkpt><trkpt lat="40.193322450262905" lon="15.028601960565146"><ele>227.0</ele><time>2026-04-25T16:36:24Z</time></trkpt><trkpt lat="40.193332218389756" lon="15.028701431767582"><ele>227.00000000000003</ele><time>2026-04-25T16:36:26Z</time></trkpt><trkpt lat="40.19334612117025" lon="15.028811481595907"><ele>227.0</ele><time>2026-04-25T16:36:28Z</time></trkpt><trkpt lat="40.19333891421052" lon="15.02897366652171"><ele>227.0</ele><time>2026-04-25T16:36:30Z</time></trkpt><trkpt lat="40.193315296427066" lon="15.02909601731438"><ele>227.0</ele><time>2026-04-25T16:36:32Z</time></trkpt><trkpt lat="40.19332249546689" lon="15.029215168216046"><ele>227.0</ele><time>2026-04-25T16:36:34Z</time></trkpt><trkpt lat="40.1933334319367" lon="15.029328295103682"><ele>227.0</ele><time>2026-04-25T16:36:36Z</time></trkpt><trkpt lat="40.193344895778964" lon="15.02942340579241"><ele>227.0</ele><time>2026-04-25T16:36:38Z</time></trkpt><trkpt lat="40.193263997548335" lon="15.0295198502552"><ele>228.50000000000003</ele><time>2026-04-25T16:37:09.999Z</time></trkpt><trkpt lat="40.19317520934012" lon="15.029547422616657"><ele>230.0</ele><time>2026-04-25T16:37:10.999Z</time></trkpt><trkpt lat="40.193090917151835" lon="15.02957956886158"><ele>231.5</ele><time>2026-04-25T16:37:11.999Z</time></trkpt><trkpt lat="40.19303191424618" lon="15.029637398116035"><ele>233.0</ele><time>2026-04-25T16:37:12.999Z</time></trkpt><trkpt lat="40.192944022823234" lon="15.02965742219878"><ele>234.50000000000003</ele><time>2026-04-25T16:37:13.999Z</time></trkpt><trkpt lat="40.19286098786738" lon="15.02969045743271"><ele>236.0</ele><time>2026-04-25T16:37:14.999Z</time></trkpt><trkpt lat="40.19279283918594" lon="15.029721333396104"><ele>234.00000000000003</ele><time>2026-04-25T16:37:15.999Z</time></trkpt><trkpt lat="40.192732643415695" lon="15.0297749999738"><ele>232.0</ele><time>2026-04-25T16:37:16.999Z</time></trkpt><trkpt lat="40.1926753468966" lon="15.029853212483381"><ele>230.0</ele><time>2026-04-25T16:37:17.999Z</time></trkpt><trkpt lat="40.19262338108829" lon="15.029931423609376"><ele>228.0</ele><time>2026-04-25T16:37:18.999Z</time></trkpt><trkpt lat="40.19253508033358" lon="15.030014022351255"><ele>226.00000000000003</ele><time>2026-04-25T16:37:20.999Z</time></trkpt><trkpt lat="40.19243455520272" lon="15.03005726785849"><ele>224.0</ele><time>2026-04-25T16:37:22.999Z</time></trkpt><trkpt lat="40.192348937495794" lon="15.03011397287821"><ele>219.83333333333334</ele><time>2026-04-25T16:37:24.999Z</time></trkpt><trkpt lat="40.19227891977244" lon="15.030181090649995"><ele>215.66666666666669</ele><time>2026-04-25T16:37:26.999Z</time></trkpt><trkpt lat="40.19221014328165" lon="15.03023694324937"><ele>211.5</ele><time>2026-04-25T16:37:28.999Z</time></trkpt><trkpt lat="40.19213575190383" lon="15.030290436843961"><ele>207.33333333333331</ele><time>2026-04-25T16:37:30.999Z</time></trkpt><trkpt lat="40.19205363426454" lon="15.030353099175572"><ele>203.16666666666666</ele><time>2026-04-25T16:37:32.999Z</time></trkpt><trkpt lat="40.191968100851724" lon="15.03040397035227"><ele>199.0</ele><time>2026-04-25T16:37:34.999Z</time></trkpt><trkpt lat="40.19184556970306" lon="15.030468990164774"><ele>198.99999999999997</ele><time>2026-04-25T16:37:36.999Z</time></trkpt><trkpt lat="40.19175885069457" lon="15.03052566301622"><ele>199.0</ele><time>2026-04-25T16:37:37.999Z</time></trkpt><trkpt lat="40.19166839836943" lon="15.030585658084757"><ele>199.0</ele><time>2026-04-25T16:37:38.999Z</time></trkpt><trkpt lat="40.19158922540293" lon="15.030613777250958"><ele>199.0</ele><time>2026-04-25T16:37:39.999Z</time></trkpt><trkpt lat="40.19151443080619" lon="15.030615028463947"><ele>198.99999999999997</ele><time>2026-04-25T16:37:40.999Z</time></trkpt><trkpt lat="40.19144683665053" lon="15.030633416560997"><ele>199.0</ele><time>2026-04-25T16:37:42.999Z</time></trkpt><trkpt lat="40.191339599031835" lon="15.030659408861725"><ele>199.79999999999998</ele><time>2026-04-25T16:37:45.999Z</time></trkpt><trkpt lat="40.19122988925288" lon="15.030708851309603"><ele>200.6</ele><time>2026-04-25T16:37:47.999Z</time></trkpt><trkpt lat="40.19117088294122" lon="15.030749984590146"><ele>201.4</ele><time>2026-04-25T16:37:48.999Z</time></trkpt><trkpt lat="40.19110716129599" lon="15.030843354787054"><ele>202.2</ele><time>2026-04-25T16:37:50.999Z</time></trkpt><trkpt lat="40.19103356647762" lon="15.030942226839043"><ele>203.0</ele><time>2026-04-25T16:37:52.999Z</time></trkpt><trkpt lat="40.19097770696202" lon="15.031038779853896"><ele>203.0</ele><time>2026-04-25T16:37:54.999Z</time></trkpt><trkpt lat="40.19096218928919" lon="15.031173190989596"><ele>203.0</ele><time>2026-04-25T16:37:58Z</time></trkpt><trkpt lat="40.190909124283806" lon="15.031299197011274"><ele>203.0</ele><time>2026-04-25T16:38:00Z</time></trkpt><trkpt lat="40.19050355577401" lon="15.031222084188183"><ele>199.33333333333334</ele><time>2026-04-25T16:38:02Z</time></trkpt><trkpt lat="40.19045668373238" lon="15.03128557783031"><ele>195.66666666666669</ele><time>2026-04-25T16:38:04Z</time></trkpt><trkpt lat="40.19045137198937" lon="15.031379385446998"><ele>192.0</ele><time>2026-04-25T16:38:06Z</time></trkpt><trkpt lat="40.19050884247031" lon="15.031487934820511"><ele>188.33333333333334</ele><time>2026-04-25T16:38:08Z</time></trkpt><trkpt lat="40.19056585382131" lon="15.031546469483054"><ele>184.66666666666669</ele><time>2026-04-25T16:38:09Z</time></trkpt><trkpt lat="40.190620710760676" lon="15.03160494206472"><ele>181.0</ele><time>2026-04-25T16:38:10Z</time></trkpt><trkpt lat="40.19066897355576" lon="15.03166432881237"><ele>181.0</ele><time>2026-04-25T16:38:11Z</time></trkpt><trkpt lat="40.190763779407504" lon="15.031743939000979"><ele>181.0</ele><time>2026-04-25T16:38:13Z</time></trkpt><trkpt lat="40.1908315404297" lon="15.03180921271995"><ele>181.0</ele><time>2026-04-25T16:38:16Z</time></trkpt><trkpt lat="40.19078090680308" lon="15.03186160119936"><ele>181.0</ele><time>2026-04-25T16:38:20Z</time></trkpt><trkpt lat="40.190800211095606" lon="15.031775037606934"><ele>181.0</ele><time>2026-04-25T16:38:59Z</time></trkpt><trkpt lat="40.19073409407714" lon="15.031705832558055"><ele>181.0</ele><time>2026-04-25T16:39:01Z</time></trkpt><trkpt lat="40.1906716858728" lon="15.031666965467174"><ele>179.5</ele><time>2026-04-25T16:39:02Z</time></trkpt><trkpt lat="40.19059827687146" lon="15.031604870713924"><ele>178.0</ele><time>2026-04-25T16:39:03Z</time></trkpt><trkpt lat="40.19054427707701" lon="15.031530981766995"><ele>176.5</ele><time>2026-04-25T16:39:04Z</time></trkpt><trkpt lat="40.190496433459145" lon="15.03145866455911"><ele>175.0</ele><time>2026-04-25T16:39:05Z</time></trkpt><trkpt lat="40.190449198987615" lon="15.031399101369237"><ele>173.5</ele><time>2026-04-25T16:39:06Z</time></trkpt><trkpt lat="40.19042318152544" lon="15.031310214685531"><ele>172.0</ele><time>2026-04-25T16:39:08Z</time></trkpt><trkpt lat="40.19048057380113" lon="15.031199736905887"><ele>172.0</ele><time>2026-04-25T16:39:10Z</time></trkpt><trkpt lat="40.19053755813443" lon="15.03114326824659"><ele>172.0</ele><time>2026-04-25T16:39:10.999Z</time></trkpt><trkpt lat="40.190610157113184" lon="15.03107445087418"><ele>172.0</ele><time>2026-04-25T16:39:11.999Z</time></trkpt><trkpt lat="40.190693951876426" lon="15.031000588732157"><ele>172.0</ele><time>2026-04-25T16:39:12.999Z</time></trkpt><trkpt lat="40.19076788724562" lon="15.030928133727038"><ele>172.0</ele><time>2026-04-25T16:39:13.999Z</time></trkpt><trkpt lat="40.190837560845935" lon="15.030854574481932"><ele>172.0</ele><time>2026-04-25T16:39:14.999Z</time></trkpt><trkpt lat="40.190901294255475" lon="15.030805984131675"><ele>173.0</ele><time>2026-04-25T16:39:15.999Z</time></trkpt><trkpt lat="40.190970528053214" lon="15.030765924781473"><ele>174.0</ele><time>2026-04-25T16:39:16.999Z</time></trkpt><trkpt lat="40.19106077552437" lon="15.030714504340898"><ele>175.0</ele><time>2026-04-25T16:39:17.999Z</time></trkpt><trkpt lat="40.19115140679925" lon="15.03066183953401"><ele>176.0</ele><time>2026-04-25T16:39:18.999Z</time></trkpt><trkpt lat="40.19127392959723" lon="15.030732889788204"><ele>177.0</ele><time>2026-04-25T16:39:19.999Z</time></trkpt><trkpt lat="40.191349706102436" lon="15.030699197845994"><ele>177.0</ele><time>2026-04-25T16:39:20.999Z</time></trkpt><trkpt lat="40.191418887936486" lon="15.030682416416951"><ele>177.0</ele><time>2026-04-25T16:39:21.999Z</time></trkpt><trkpt lat="40.1914909142634" lon="15.03067172716969"><ele>177.0</ele><time>2026-04-25T16:39:22.999Z</time></trkpt><trkpt lat="40.191591279260614" lon="15.030653705960349"><ele>177.0</ele><time>2026-04-25T16:39:23.999Z</time></trkpt><trkpt lat="40.191683219279845" lon="15.03062622272723"><ele>177.0</ele><time>2026-04-25T16:39:24.999Z</time></trkpt><trkpt lat="40.19178866145468" lon="15.030567825536425"><ele>182.5</ele><time>2026-04-25T16:39:25.999Z</time></trkpt><trkpt lat="40.19189610488209" lon="15.030501945672361"><ele>188.0</ele><time>2026-04-25T16:39:26.999Z</time></trkpt><trkpt lat="40.19199452919714" lon="15.030439633118801"><ele>193.5</ele><time>2026-04-25T16:39:27.999Z</time></trkpt><trkpt lat="40.19210267623977" lon="15.0303678448113"><ele>199.0</ele><time>2026-04-25T16:39:28.999Z</time></trkpt><trkpt lat="40.19220973751051" lon="15.030283927074395"><ele>199.0</ele><time>2026-04-25T16:39:29.999Z</time></trkpt><trkpt lat="40.192315974707846" lon="15.030165727070377"><ele>199.0</ele><time>2026-04-25T16:39:30.999Z</time></trkpt><trkpt lat="40.19244098862528" lon="15.03009782906796"><ele>199.0</ele><time>2026-04-25T16:39:31.999Z</time></trkpt><trkpt lat="40.19254329350946" lon="15.03005810748836"><ele>199.0</ele><time>2026-04-25T16:39:32.999Z</time></trkpt><trkpt lat="40.19262880159261" lon="15.02997723842254"><ele>199.39999999999998</ele><time>2026-04-25T16:39:33.999Z</time></trkpt><trkpt lat="40.19269223388541" lon="15.02987132071022"><ele>199.8</ele><time>2026-04-25T16:39:34.999Z</time></trkpt><trkpt lat="40.19278029462684" lon="15.029784678903644"><ele>200.2</ele><time>2026-04-25T16:39:35.999Z</time></trkpt><trkpt lat="40.19286740021906" lon="15.029727757296056"><ele>200.60000000000002</ele><time>2026-04-25T16:39:36.999Z</time></trkpt><trkpt lat="40.1929880604368" lon="15.029705383094823"><ele>201.0</ele><time>2026-04-25T16:39:37.999Z</time></trkpt><trkpt lat="40.19310092791168" lon="15.02964266815011"><ele>206.83333333333334</ele><time>2026-04-25T16:39:38.999Z</time></trkpt><trkpt lat="40.19318713363366" lon="15.02960494167984"><ele>212.66666666666669</ele><time>2026-04-25T16:39:39.999Z</time></trkpt><trkpt lat="40.193268308880626" lon="15.029589245626859"><ele>218.5</ele><time>2026-04-25T16:39:40.999Z</time></trkpt><trkpt lat="40.19333257988218" lon="15.029494861557001"><ele>224.33333333333334</ele><time>2026-04-25T16:39:42.999Z</time></trkpt><trkpt lat="40.19335654825325" lon="15.029416460170717"><ele>230.16666666666669</ele><time>2026-04-25T16:39:44.999Z</time></trkpt><trkpt lat="40.193331346254425" lon="15.029277216288463"><ele>236.0</ele><time>2026-04-25T16:39:46.999Z</time></trkpt><trkpt lat="40.19331464928105" lon="15.029188578385442"><ele>234.50000000000003</ele><time>2026-04-25T16:39:47.999Z</time></trkpt><trkpt lat="40.19330365125639" lon="15.029105227007808"><ele>233.0</ele><time>2026-04-25T16:39:48.999Z</time></trkpt><trkpt lat="40.193305561551576" lon="15.029010901326394"><ele>231.5</ele><time>2026-04-25T16:39:49.999Z</time></trkpt><trkpt lat="40.193315345824864" lon="15.02886667207088"><ele>230.0</ele><time>2026-04-25T16:39:50.999Z</time></trkpt><trkpt lat="40.193316894289715" lon="15.028718564240204"><ele>228.50000000000003</ele><time>2026-04-25T16:39:51.999Z</time></trkpt><trkpt lat="40.1933131186479" lon="15.028603760802039"><ele>227.0</ele><time>2026-04-25T16:39:52.999Z</time></trkpt><trkpt lat="40.193311997253296" lon="15.028487301426473"><ele>227.0</ele><time>2026-04-25T16:39:54.999Z</time></trkpt><trkpt lat="40.19318351167633" lon="15.02837770910454"><ele>227.0</ele><time>2026-04-25T16:40:20Z</time></trkpt><trkpt lat="40.19309563615751" lon="15.028375178398342"><ele>227.0</ele><time>2026-04-25T16:40:21Z</time></trkpt><trkpt lat="40.19300684082421" lon="15.028341346815203"><ele>227.0</ele><time>2026-04-25T16:40:22Z</time></trkpt><trkpt lat="40.19291743751252" lon="15.02833964650705"><ele>227.0</ele><time>2026-04-25T16:40:23Z</time></trkpt><trkpt lat="40.192852803337864" lon="15.028325808624167"><ele>222.39999999999998</ele><time>2026-04-25T16:40:24Z</time></trkpt><trkpt lat="40.19273014090404" lon="15.028374496664005"><ele>217.79999999999998</ele><time>2026-04-25T16:40:26Z</time></trkpt><trkpt lat="40.1926619675378" lon="15.0283710435921"><ele>213.2</ele><time>2026-04-25T16:40:27Z</time></trkpt><trkpt lat="40.19254627561966" lon="15.028397941383561"><ele>208.6</ele><time>2026-04-25T16:40:29Z</time></trkpt><trkpt lat="40.19248689005471" lon="15.028366599500133"><ele>204.0</ele><time>2026-04-25T16:40:30Z</time></trkpt><trkpt lat="40.192398043930844" lon="15.028285188611612"><ele>199.5</ele><time>2026-04-25T16:40:32Z</time></trkpt><trkpt lat="40.19234233345543" lon="15.02815184587429"><ele>195.0</ele><time>2026-04-25T16:40:34Z</time></trkpt><trkpt lat="40.192305284014914" lon="15.028019205779723"><ele>190.5</ele><time>2026-04-25T16:40:36Z</time></trkpt><trkpt lat="40.1922345904297" lon="15.02794012786319"><ele>186.0</ele><time>2026-04-25T16:40:38Z</time></trkpt><trkpt lat="40.19210068752818" lon="15.027917548688642"><ele>183.8</ele><time>2026-04-25T16:40:40Z</time></trkpt><trkpt lat="40.19203531623395" lon="15.027849061500929"><ele>181.60000000000002</ele><time>2026-04-25T16:40:41Z</time></trkpt><trkpt lat="40.19194563681826" lon="15.02782564962256"><ele>179.4</ele><time>2026-04-25T16:40:42Z</time></trkpt><trkpt lat="40.19185576343159" lon="15.027785496885013"><ele>177.2</ele><time>2026-04-25T16:40:43Z</time></trkpt><trkpt lat="40.19175664094115" lon="15.027764811449398"><ele>175.0</ele><time>2026-04-25T16:40:44Z</time></trkpt><trkpt lat="40.191647196469425" lon="15.027746532292504"><ele>175.0</ele><time>2026-04-25T16:40:45Z</time></trkpt><trkpt lat="40.19153819863413" lon="15.027739985528822"><ele>175.0</ele><time>2026-04-25T16:40:46Z</time></trkpt><trkpt lat="40.19144679106801" lon="15.02773919444638"><ele>175.0</ele><time>2026-04-25T16:40:47Z</time></trkpt><trkpt lat="40.19137136129037" lon="15.027742932462054"><ele>175.0</ele><time>2026-04-25T16:40:48Z</time></trkpt><trkpt lat="40.1912967136033" lon="15.027750779772923"><ele>175.0</ele><time>2026-04-25T16:40:49Z</time></trkpt><trkpt lat="40.19121910334795" lon="15.027763362308816"><ele>175.0</ele><time>2026-04-25T16:40:50Z</time></trkpt><trkpt lat="40.19113240084633" lon="15.0277978851807"><ele>173.83333333333334</ele><time>2026-04-25T16:40:51Z</time></trkpt><trkpt lat="40.19103794278435" lon="15.02779875963479"><ele>172.66666666666669</ele><time>2026-04-25T16:40:52Z</time></trkpt><trkpt lat="40.190945801236175" lon="15.027794591888188"><ele>171.5</ele><time>2026-04-25T16:40:53Z</time></trkpt><trkpt lat="40.190866468796244" lon="15.027780681929187"><ele>170.33333333333334</ele><time>2026-04-25T16:40:54Z</time></trkpt><trkpt lat="40.19078985565311" lon="15.02776411780683"><ele>169.16666666666666</ele><time>2026-04-25T16:40:55Z</time></trkpt><trkpt lat="40.190713048466705" lon="15.027743608480737"><ele>168.0</ele><time>2026-04-25T16:40:56Z</time></trkpt><trkpt lat="40.190629067543334" lon="15.027740682126067"><ele>163.4</ele><time>2026-04-25T16:40:57Z</time></trkpt><trkpt lat="40.190526871685535" lon="15.02774315388058"><ele>158.8</ele><time>2026-04-25T16:40:58Z</time></trkpt><trkpt lat="40.190426973291665" lon="15.027773927007212"><ele>154.2</ele><time>2026-04-25T16:40:59Z</time></trkpt><trkpt lat="40.190332445312045" lon="15.027808538424877"><ele>149.6</ele><time>2026-04-25T16:41:00Z</time></trkpt><trkpt lat="40.190241293825906" lon="15.027848006515898"><ele>145.0</ele><time>2026-04-25T16:41:01Z</time></trkpt><trkpt lat="40.19014415116448" lon="15.027904994706146"><ele>145.0</ele><time>2026-04-25T16:41:02Z</time></trkpt><trkpt lat="40.1900516566892" lon="15.027975438400034"><ele>145.0</ele><time>2026-04-25T16:41:03Z</time></trkpt><trkpt lat="40.18995315204001" lon="15.02803528364298"><ele>145.0</ele><time>2026-04-25T16:41:04Z</time></trkpt><trkpt lat="40.189855374209436" lon="15.028092932797358"><ele>145.0</ele><time>2026-04-25T16:41:05Z</time></trkpt><trkpt lat="40.18975142599995" lon="15.028152188304132"><ele>145.0</ele><time>2026-04-25T16:41:06Z</time></trkpt><trkpt lat="40.18965389741048" lon="15.028206680291547"><ele>145.8</ele><time>2026-04-25T16:41:07Z</time></trkpt><trkpt lat="40.18956234505355" lon="15.028256327885089"><ele>146.6</ele><time>2026-04-25T16:41:08Z</time></trkpt><trkpt lat="40.18946996412647" lon="15.028306089500381"><ele>147.4</ele><time>2026-04-25T16:41:09Z</time></trkpt><trkpt lat="40.18937948805793" lon="15.028351718502211"><ele>148.2</ele><time>2026-04-25T16:41:10Z</time></trkpt><trkpt lat="40.18929160495808" lon="15.028396039825783"><ele>149.0</ele><time>2026-04-25T16:41:11Z</time></trkpt><trkpt lat="40.1892014834107" lon="15.028435032960035"><ele>149.0</ele><time>2026-04-25T16:41:12Z</time></trkpt><trkpt lat="40.18910384870089" lon="15.028455344123326"><ele>149.0</ele><time>2026-04-25T16:41:13Z</time></trkpt><trkpt lat="40.18899974767925" lon="15.028471412064784"><ele>149.0</ele><time>2026-04-25T16:41:14Z</time></trkpt><trkpt lat="40.188907744844336" lon="15.028510328924096"><ele>149.0</ele><time>2026-04-25T16:41:15Z</time></trkpt><trkpt lat="40.18881121820986" lon="15.0285730695448"><ele>149.0</ele><time>2026-04-25T16:41:16Z</time></trkpt><trkpt lat="40.18870480603784" lon="15.028650601197775"><ele>146.0</ele><time>2026-04-25T16:41:17Z</time></trkpt><trkpt lat="40.188601035090954" lon="15.028727717332394"><ele>143.0</ele><time>2026-04-25T16:41:17.999Z</time></trkpt><trkpt lat="40.18849473430194" lon="15.028815200118641"><ele>140.0</ele><time>2026-04-25T16:41:18.999Z</time></trkpt><trkpt lat="40.18838808387033" lon="15.028894138059156"><ele>137.0</ele><time>2026-04-25T16:41:19.999Z</time></trkpt><trkpt lat="40.18828628012472" lon="15.028969268935912"><ele>137.0</ele><time>2026-04-25T16:41:20.999Z</time></trkpt><trkpt lat="40.188179447560756" lon="15.029033880790546"><ele>137.0</ele><time>2026-04-25T16:41:21.999Z</time></trkpt><trkpt lat="40.18806337788407" lon="15.029077691563444"><ele>137.0</ele><time>2026-04-25T16:41:22.999Z</time></trkpt><trkpt lat="40.187938886737314" lon="15.029129509969968"><ele>137.0</ele><time>2026-04-25T16:41:23.999Z</time></trkpt><trkpt lat="40.187805210858265" lon="15.029189944436942"><ele>136.25</ele><time>2026-04-25T16:41:24.999Z</time></trkpt><trkpt lat="40.18768185587242" lon="15.029272293100592"><ele>135.5</ele><time>2026-04-25T16:41:25.999Z</time></trkpt><trkpt lat="40.18754747107698" lon="15.029331901584309"><ele>134.75</ele><time>2026-04-25T16:41:26.999Z</time></trkpt><trkpt lat="40.1874100168318" lon="15.029400290870727"><ele>134.0</ele><time>2026-04-25T16:41:27.999Z</time></trkpt><trkpt lat="40.18727485492409" lon="15.02946434046452"><ele>134.0</ele><time>2026-04-25T16:41:28.999Z</time></trkpt><trkpt lat="40.1871453408398" lon="15.02952322769514"><ele>134.0</ele><time>2026-04-25T16:41:29.999Z</time></trkpt><trkpt lat="40.187013695475905" lon="15.029576616442217"><ele>134.0</ele><time>2026-04-25T16:41:30.999Z</time></trkpt><trkpt lat="40.18688642633013" lon="15.029644459314158"><ele>134.0</ele><time>2026-04-25T16:41:31.999Z</time></trkpt><trkpt lat="40.186751521161575" lon="15.029704182794948"><ele>134.0</ele><time>2026-04-25T16:41:32.999Z</time></trkpt><trkpt lat="40.18663230224646" lon="15.029799561173185"><ele>134.0</ele><time>2026-04-25T16:41:33.999Z</time></trkpt><trkpt lat="40.18653973950608" lon="15.029888214468913"><ele>134.0</ele><time>2026-04-25T16:41:34.999Z</time></trkpt><trkpt lat="40.18646540546394" lon="15.029965874115897"><ele>134.0</ele><time>2026-04-25T16:41:35.999Z</time></trkpt><trkpt lat="40.186393340046116" lon="15.030063755477103"><ele>134.4</ele><time>2026-04-25T16:41:36.999Z</time></trkpt><trkpt lat="40.186324094437076" lon="15.030170780101347"><ele>134.8</ele><time>2026-04-25T16:41:37.999Z</time></trkpt><trkpt lat="40.18625033231797" lon="15.030278848450854"><ele>135.2</ele><time>2026-04-25T16:41:38.999Z</time></trkpt><trkpt lat="40.186177825765135" lon="15.03037346171488"><ele>135.6</ele><time>2026-04-25T16:41:39.999Z</time></trkpt><trkpt lat="40.186109098088416" lon="15.030442699135687"><ele>136.0</ele><time>2026-04-25T16:41:40.999Z</time></trkpt><trkpt lat="40.18604314507787" lon="15.030499807606882"><ele>136.0</ele><time>2026-04-25T16:41:41.999Z</time></trkpt><trkpt lat="40.18597056543567" lon="15.03055098669103"><ele>136.0</ele><time>2026-04-25T16:41:42.999Z</time></trkpt><trkpt lat="40.185856126296486" lon="15.030565640610618"><ele>136.0</ele><time>2026-04-25T16:41:43.999Z</time></trkpt><trkpt lat="40.185746776533925" lon="15.030569964482872"><ele>136.0</ele><time>2026-04-25T16:41:44.999Z</time></trkpt><trkpt lat="40.18564961300772" lon="15.030575319580137"><ele>136.0</ele><time>2026-04-25T16:41:45.999Z</time></trkpt><trkpt lat="40.18556589818049" lon="15.030561457832086"><ele>131.2</ele><time>2026-04-25T16:41:46.999Z</time></trkpt><trkpt lat="40.185483723468984" lon="15.030576752609162"><ele>126.39999999999999</ele><time>2026-04-25T16:41:47.999Z</time></trkpt><trkpt lat="40.185403362946815" lon="15.0305679915521"><ele>121.6</ele><time>2026-04-25T16:41:48.999Z</time></trkpt><trkpt lat="40.18532412847414" lon="15.030562882962933"><ele>116.8</ele><time>2026-04-25T16:41:49.999Z</time></trkpt><trkpt lat="40.18522519754582" lon="15.030645639454326"><ele>112.0</ele><time>2026-04-25T16:41:50.999Z</time></trkpt><trkpt lat="40.18512145834225" lon="15.030689144678451"><ele>112.0</ele><time>2026-04-25T16:41:51.999Z</time></trkpt><trkpt lat="40.185021022119045" lon="15.030726836981167"><ele>111.99999999999999</ele><time>2026-04-25T16:41:52.999Z</time></trkpt><trkpt lat="40.184918066143034" lon="15.030756601372502"><ele>111.99999999999999</ele><time>2026-04-25T16:41:53.999Z</time></trkpt><trkpt lat="40.184818886269746" lon="15.030804482121358"><ele>112.0</ele><time>2026-04-25T16:41:54.999Z</time></trkpt><trkpt lat="40.18473461153132" lon="15.030821792549549"><ele>112.0</ele><time>2026-04-25T16:41:55.999Z</time></trkpt><trkpt lat="40.1846643956233" lon="15.030838838343731"><ele>113.83333333333334</ele><time>2026-04-25T16:41:56.999Z</time></trkpt><trkpt lat="40.18459054572863" lon="15.030853273230349"><ele>115.66666666666667</ele><time>2026-04-25T16:41:57.999Z</time></trkpt><trkpt lat="40.18452241483387" lon="15.030897559807567"><ele>117.5</ele><time>2026-04-25T16:41:58.999Z</time></trkpt><trkpt lat="40.18445367896372" lon="15.030966620939767"><ele>119.33333333333334</ele><time>2026-04-25T16:41:59.999Z</time></trkpt><trkpt lat="40.18438227083156" lon="15.031044556112898"><ele>121.16666666666667</ele><time>2026-04-25T16:42:00.999Z</time></trkpt><trkpt lat="40.18430944744158" lon="15.031122763172714"><ele>123.0</ele><time>2026-04-25T16:42:01.999Z</time></trkpt><trkpt lat="40.18423862608802" lon="15.031190754249256"><ele>123.0</ele><time>2026-04-25T16:42:02.999Z</time></trkpt><trkpt lat="40.184173315514045" lon="15.031252024478185"><ele>123.0</ele><time>2026-04-25T16:42:03.999Z</time></trkpt><trkpt lat="40.18410349219799" lon="15.031315633805708"><ele>123.0</ele><time>2026-04-25T16:42:04.999Z</time></trkpt><trkpt lat="40.18402966489767" lon="15.031373997691587"><ele>123.0</ele><time>2026-04-25T16:42:05.999Z</time></trkpt><trkpt lat="40.1839509573405" lon="15.031427907097703"><ele>123.0</ele><time>2026-04-25T16:42:07Z</time></trkpt><trkpt lat="40.183884825785725" lon="15.031472555167772"><ele>123.0</ele><time>2026-04-25T16:42:08Z</time></trkpt><trkpt lat="40.18382124813099" lon="15.031515478621571"><ele>116.4</ele><time>2026-04-25T16:42:09Z</time></trkpt><trkpt lat="40.18374783218902" lon="15.031548879795864"><ele>109.80000000000001</ele><time>2026-04-25T16:42:10Z</time></trkpt><trkpt lat="40.18366123579144" lon="15.031588811179732"><ele>103.2</ele><time>2026-04-25T16:42:11Z</time></trkpt><trkpt lat="40.18355842283924" lon="15.031600720152833"><ele>96.6</ele><time>2026-04-25T16:42:12Z</time></trkpt><trkpt lat="40.18344851717782" lon="15.031610826791539"><ele>90.0</ele><time>2026-04-25T16:42:13Z</time></trkpt><trkpt lat="40.183340947641234" lon="15.031616036275619"><ele>90.0</ele><time>2026-04-25T16:42:14Z</time></trkpt><trkpt lat="40.183232292598056" lon="15.031616982773379"><ele>90.0</ele><time>2026-04-25T16:42:15Z</time></trkpt><trkpt lat="40.18313925111916" lon="15.031623432848566"><ele>90.0</ele><time>2026-04-25T16:42:16Z</time></trkpt><trkpt lat="40.18305008102433" lon="15.031646833046599"><ele>90.0</ele><time>2026-04-25T16:42:17Z</time></trkpt><trkpt lat="40.18294180965702" lon="15.031672496715416"><ele>90.0</ele><time>2026-04-25T16:42:18Z</time></trkpt><trkpt lat="40.18283102664259" lon="15.031734557195428"><ele>89.2</ele><time>2026-04-25T16:42:19Z</time></trkpt><trkpt lat="40.18273379843824" lon="15.031789650822555"><ele>88.4</ele><time>2026-04-25T16:42:20Z</time></trkpt><trkpt lat="40.182648733094325" lon="15.031837852504733"><ele>87.6</ele><time>2026-04-25T16:42:21Z</time></trkpt><trkpt lat="40.18256807940994" lon="15.031886372334242"><ele>86.8</ele><time>2026-04-25T16:42:22Z</time></trkpt><trkpt lat="40.18248260586584" lon="15.03195503374576"><ele>86.0</ele><time>2026-04-25T16:42:23Z</time></trkpt><trkpt lat="40.18240570806036" lon="15.03198846383642"><ele>82.5</ele><time>2026-04-25T16:42:24Z</time></trkpt><trkpt lat="40.18232977747428" lon="15.032007300056256"><ele>79.0</ele><time>2026-04-25T16:42:25Z</time></trkpt><trkpt lat="40.18224850745581" lon="15.032020031393424"><ele>75.5</ele><time>2026-04-25T16:42:26Z</time></trkpt><trkpt lat="40.18217589232756" lon="15.03202400152102"><ele>72.0</ele><time>2026-04-25T16:42:27Z</time></trkpt><trkpt lat="40.182118746548554" lon="15.032062039908991"><ele>68.5</ele><time>2026-04-25T16:42:28Z</time></trkpt><trkpt lat="40.18205002349021" lon="15.03213468812731"><ele>65.0</ele><time>2026-04-25T16:42:30Z</time></trkpt><trkpt lat="40.181986230200934" lon="15.032075551276558"><ele>65.0</ele><time>2026-04-25T16:42:32Z</time></trkpt><trkpt lat="40.18200108380452" lon="15.031958572547717"><ele>65.0</ele><time>2026-04-25T16:42:33Z</time></trkpt><trkpt lat="40.18205002786691" lon="15.031833358352975"><ele>65.0</ele><time>2026-04-25T16:42:34Z</time></trkpt><trkpt lat="40.18207505563396" lon="15.031732082793448"><ele>65.0</ele><time>2026-04-25T16:42:35Z</time></trkpt><trkpt lat="40.18209846548923" lon="15.031631955336234"><ele>65.0</ele><time>2026-04-25T16:42:36Z</time></trkpt><trkpt lat="40.18212747673725" lon="15.031519795678998"><ele>66.2</ele><time>2026-04-25T16:42:37Z</time></trkpt><trkpt lat="40.18218245063316" lon="15.031409938094418"><ele>67.4</ele><time>2026-04-25T16:42:38Z</time></trkpt><trkpt lat="40.18224978999731" lon="15.031302407609529"><ele>68.6</ele><time>2026-04-25T16:42:39Z</time></trkpt><trkpt lat="40.18230528059033" lon="15.031200548095482"><ele>69.8</ele><time>2026-04-25T16:42:40Z</time></trkpt><trkpt lat="40.18234915280622" lon="15.031120789656926"><ele>71.0</ele><time>2026-04-25T16:42:41Z</time></trkpt><trkpt lat="40.1824004750543" lon="15.03101899211699"><ele>71.0</ele><time>2026-04-25T16:42:42Z</time></trkpt><trkpt lat="40.18245096601586" lon="15.030931928062506"><ele>71.0</ele><time>2026-04-25T16:42:43Z</time></trkpt><trkpt lat="40.18249906992623" lon="15.030840526576995"><ele>71.0</ele><time>2026-04-25T16:42:44Z</time></trkpt><trkpt lat="40.1825499815061" lon="15.030697048209104"><ele>71.0</ele><time>2026-04-25T16:42:45Z</time></trkpt><trkpt lat="40.1826016769223" lon="15.030543044712466"><ele>71.0</ele><time>2026-04-25T16:42:46Z</time></trkpt><trkpt lat="40.18264377489774" lon="15.03041230738571"><ele>67.0</ele><time>2026-04-25T16:42:47Z</time></trkpt><trkpt lat="40.18268272524721" lon="15.030288513615595"><ele>62.99999999999999</ele><time>2026-04-25T16:42:48Z</time></trkpt><trkpt lat="40.182704085774944" lon="15.030144252794983"><ele>59.0</ele><time>2026-04-25T16:42:49Z</time></trkpt><trkpt lat="40.18270808427555" lon="15.029985405612997"><ele>55.0</ele><time>2026-04-25T16:42:50Z</time></trkpt><trkpt lat="40.18270462643077" lon="15.029848710599817"><ele>51.0</ele><time>2026-04-25T16:42:51Z</time></trkpt><trkpt lat="40.18270243130029" lon="15.02972439904931"><ele>48.0</ele><time>2026-04-25T16:42:52Z</time></trkpt><trkpt lat="40.18271530138426" lon="15.029607792857806"><ele>45.0</ele><time>2026-04-25T16:42:53Z</time></trkpt><trkpt lat="40.182746858441476" lon="15.029511045931201"><ele>42.0</ele><time>2026-04-25T16:42:54Z</time></trkpt><trkpt lat="40.182800248911235" lon="15.029420856274484"><ele>39.0</ele><time>2026-04-25T16:42:55Z</time></trkpt><trkpt lat="40.18285440020214" lon="15.029341734558832"><ele>36.0</ele><time>2026-04-25T16:42:56Z</time></trkpt><trkpt lat="40.182889071308686" lon="15.029254616488513"><ele>33.0</ele><time>2026-04-25T16:42:57Z</time></trkpt><trkpt lat="40.18289926388905" lon="15.029151351497479"><ele>30.599999999999998</ele><time>2026-04-25T16:42:58Z</time></trkpt><trkpt lat="40.182857490752255" lon="15.02903902296791"><ele>28.199999999999996</ele><time>2026-04-25T16:42:59Z</time></trkpt><trkpt lat="40.18280923105168" lon="15.028911537344914"><ele>25.8</ele><time>2026-04-25T16:43:00Z</time></trkpt><trkpt lat="40.18277217757104" lon="15.028759271078073"><ele>23.4</ele><time>2026-04-25T16:43:01Z</time></trkpt><trkpt lat="40.18272270792779" lon="15.028615639614758"><ele>21.0</ele><time>2026-04-25T16:43:02Z</time></trkpt><trkpt lat="40.182685588796296" lon="15.028477681400316"><ele>21.0</ele><time>2026-04-25T16:43:03Z</time></trkpt><trkpt lat="40.18264999113686" lon="15.028342285293611"><ele>21.0</ele><time>2026-04-25T16:43:04Z</time></trkpt><trkpt lat="40.18262237938176" lon="15.028214121677415"><ele>21.0</ele><time>2026-04-25T16:43:05Z</time></trkpt><trkpt lat="40.18259632284502" lon="15.028098484549604"><ele>21.0</ele><time>2026-04-25T16:43:06Z</time></trkpt><trkpt lat="40.18257074494049" lon="15.027985115370598"><ele>21.0</ele><time>2026-04-25T16:43:07Z</time></trkpt><trkpt lat="40.18254772734452" lon="15.027877275312422"><ele>20.166666666666668</ele><time>2026-04-25T16:43:08Z</time></trkpt><trkpt lat="40.182525850429556" lon="15.027789232312843"><ele>19.333333333333332</ele><time>2026-04-25T16:43:09Z</time></trkpt><trkpt lat="40.18249745643605" lon="15.027699928054771"><ele>18.5</ele><time>2026-04-25T16:43:10Z</time></trkpt><trkpt lat="40.18247642005702" lon="15.027618135666689"><ele>17.666666666666664</ele><time>2026-04-25T16:43:11Z</time></trkpt><trkpt lat="40.182435373538134" lon="15.02750934572045"><ele>16.833333333333332</ele><time>2026-04-25T16:43:13Z</time></trkpt><trkpt lat="40.182343870215114" lon="15.02747983157076"><ele>16.0</ele><time>2026-04-25T16:43:16Z</time></trkpt><trkpt lat="40.182282224606254" lon="15.02753989361945"><ele>14.75</ele><time>2026-04-25T16:43:18Z</time></trkpt><trkpt lat="40.18215497273602" lon="15.027319888996809"><ele>13.5</ele><time>2026-04-25T16:43:32.999Z</time></trkpt><trkpt lat="40.18212947038539" lon="15.027214454792743"><ele>12.25</ele><time>2026-04-25T16:43:33.999Z</time></trkpt><trkpt lat="40.182103903321995" lon="15.027108752773639"><ele>11.0</ele><time>2026-04-25T16:43:34.999Z</time></trkpt><trkpt lat="40.182081518230085" lon="15.027005578348914"><ele>11.0</ele><time>2026-04-25T16:43:35.999Z</time></trkpt><trkpt lat="40.18206782771165" lon="15.026911600162382"><ele>11.0</ele><time>2026-04-25T16:43:36.999Z</time></trkpt><trkpt lat="40.182048148997545" lon="15.026744900443346"><ele>11.0</ele><time>2026-04-25T16:43:38.999Z</time></trkpt><trkpt lat="40.182037656851854" lon="15.026646734939387"><ele>11.0</ele><time>2026-04-25T16:43:39.999Z</time></trkpt><trkpt lat="40.18202323204642" lon="15.026545514474094"><ele>11.0</ele><time>2026-04-25T16:43:40.999Z</time></trkpt><trkpt lat="40.18200493981391" lon="15.02644846684897"><ele>11.0</ele><time>2026-04-25T16:43:41.999Z</time></trkpt><trkpt lat="40.18197707968031" lon="15.026341141418865"><ele>10.833333333333332</ele><time>2026-04-25T16:43:42.999Z</time></trkpt><trkpt lat="40.18196232354683" lon="15.026218760025532"><ele>10.666666666666666</ele><time>2026-04-25T16:43:43.999Z</time></trkpt><trkpt lat="40.181934305602674" lon="15.026109676562804"><ele>10.5</ele><time>2026-04-25T16:43:44.999Z</time></trkpt><trkpt lat="40.181895837935194" lon="15.026014417225873"><ele>10.333333333333334</ele><time>2026-04-25T16:43:45.999Z</time></trkpt><trkpt lat="40.181886773044624" lon="15.025912615754848"><ele>10.166666666666668</ele><time>2026-04-25T16:43:46.999Z</time></trkpt><trkpt lat="40.18184827772224" lon="15.025831241842218"><ele>10.0</ele><time>2026-04-25T16:43:47.999Z</time></trkpt><trkpt lat="40.18182599167525" lon="15.025745408436533"><ele>9.4</ele><time>2026-04-25T16:43:48.999Z</time></trkpt><trkpt lat="40.18180392458201" lon="15.025660416919333"><ele>8.8</ele><time>2026-04-25T16:43:49.999Z</time></trkpt><trkpt lat="40.18178367179533" lon="15.025578560078776"><ele>8.2</ele><time>2026-04-25T16:43:50.999Z</time></trkpt><trkpt lat="40.18176981874551" lon="15.025450119605686"><ele>7.6</ele><time>2026-04-25T16:43:52.999Z</time></trkpt><trkpt lat="40.1817387098438" lon="15.025355011839943"><ele>7.0</ele><time>2026-04-25T16:43:56.999Z</time></trkpt><trkpt lat="40.18182850304993" lon="15.025144237822959"><ele>7.000000000000001</ele><time>2026-04-25T16:43:58.999Z</time></trkpt><trkpt lat="40.181686164722144" lon="15.025285704402233"><ele>7.0</ele><time>2026-04-25T16:44:08.999Z</time></trkpt><trkpt lat="40.18162325895972" lon="15.025263151096025"><ele>7.0</ele><time>2026-04-25T16:45:11Z</time></trkpt><trkpt lat="40.18155875883373" lon="15.025238744881094"><ele>7.0</ele><time>2026-04-25T16:45:14Z</time></trkpt><trkpt lat="40.18162993259249" lon="15.02525928767131"><ele>7.000000000000001</ele><time>2026-04-25T16:45:38.999Z</time></trkpt><trkpt lat="40.181564853184064" lon="15.025260925403883"><ele>7.0</ele><time>2026-04-25T16:47:25Z</time></trkpt><trkpt lat="40.18149058334946" lon="15.02530438943626"><ele>7.333333333333334</ele><time>2026-04-25T16:47:36.999Z</time></trkpt><trkpt lat="40.181433072617295" lon="15.025353455754844"><ele>7.666666666666667</ele><time>2026-04-25T16:47:37.999Z</time></trkpt><trkpt lat="40.181363593777" lon="15.025397243495073"><ele>8.0</ele><time>2026-04-25T16:47:38.999Z</time></trkpt><trkpt lat="40.18130062873944" lon="15.025439842057176"><ele>8.333333333333334</ele><time>2026-04-25T16:47:39.999Z</time></trkpt><trkpt lat="40.18119520311378" lon="15.025499213747286"><ele>8.666666666666666</ele><time>2026-04-25T16:47:41.999Z</time></trkpt><trkpt lat="40.18109136022797" lon="15.025561278034855"><ele>9.0</ele><time>2026-04-25T16:47:43.999Z</time></trkpt><trkpt lat="40.18100764114514" lon="15.025619891903414"><ele>9.0</ele><time>2026-04-25T16:47:45.999Z</time></trkpt><trkpt lat="40.180935343216895" lon="15.025670086034584"><ele>9.0</ele><time>2026-04-25T16:47:47.999Z</time></trkpt><trkpt lat="40.180866866872925" lon="15.025701699453952"><ele>9.0</ele><time>2026-04-25T16:47:49.999Z</time></trkpt><trkpt lat="40.180801950521335" lon="15.025738168735105"><ele>9.0</ele><time>2026-04-25T16:47:52.999Z</time></trkpt><trkpt lat="40.180733593869405" lon="15.025780322259926"><ele>9.0</ele><time>2026-04-25T16:47:55.999Z</time></trkpt><trkpt lat="40.180656212991835" lon="15.02583088380972"><ele>9.0</ele><time>2026-04-25T16:47:59.999Z</time></trkpt><trkpt lat="40.18056366196849" lon="15.02589393211949"><ele>8.833333333333334</ele><time>2026-04-25T16:48:01.999Z</time></trkpt><trkpt lat="40.18049234423605" lon="15.025932207462203"><ele>8.666666666666666</ele><time>2026-04-25T16:48:03.999Z</time></trkpt><trkpt lat="40.18042045815496" lon="15.025975342348097"><ele>8.5</ele><time>2026-04-25T16:48:05.999Z</time></trkpt><trkpt lat="40.1803390796519" lon="15.02601415005347"><ele>8.333333333333332</ele><time>2026-04-25T16:48:08.999Z</time></trkpt><trkpt lat="40.180290400067165" lon="15.026103365507984"><ele>8.166666666666666</ele><time>2026-04-25T16:48:20.999Z</time></trkpt><trkpt lat="40.18035140517161" lon="15.026223091974373"><ele>8.0</ele><time>2026-04-25T16:48:22.999Z</time></trkpt><trkpt lat="40.180415015792484" lon="15.026295746904493"><ele>7.999999999999999</ele><time>2026-04-25T16:48:25Z</time></trkpt><trkpt lat="40.18048279864139" lon="15.026338911184911"><ele>8.0</ele><time>2026-04-25T16:48:29Z</time></trkpt><trkpt lat="40.180586297322684" lon="15.026380560919042"><ele>8.0</ele><time>2026-04-25T16:48:31Z</time></trkpt><trkpt lat="40.18065442052199" lon="15.02642132750516"><ele>8.0</ele><time>2026-04-25T16:48:32Z</time></trkpt><trkpt lat="40.18072133208185" lon="15.026458967326509"><ele>7.999999999999999</ele><time>2026-04-25T16:48:33Z</time></trkpt><trkpt lat="40.180795096510565" lon="15.026400612334365"><ele>8.0</ele><time>2026-04-25T16:48:34Z</time></trkpt><trkpt lat="40.180852726061765" lon="15.026361517758804"><ele>8.0</ele><time>2026-04-25T16:48:35Z</time></trkpt><trkpt lat="40.18091326935002" lon="15.026324509176094"><ele>8.0</ele><time>2026-04-25T16:48:37Z</time></trkpt><trkpt lat="40.18092724579787" lon="15.026504562392507"><ele>8.0</ele><time>2026-04-25T16:48:38Z</time></trkpt><trkpt lat="40.18097037458051" lon="15.026627563307112"><ele>8.0</ele><time>2026-04-25T16:48:39Z</time></trkpt><trkpt lat="40.181014939208254" lon="15.026750553202637"><ele>8.0</ele><time>2026-04-25T16:48:40Z</time></trkpt><trkpt lat="40.18105483158965" lon="15.02686270167577"><ele>8.200000000000001</ele><time>2026-04-25T16:48:41Z</time></trkpt><trkpt lat="40.18109420754927" lon="15.026978306752403"><ele>8.4</ele><time>2026-04-25T16:48:42Z</time></trkpt><trkpt lat="40.18112380094845" lon="15.027065190739284"><ele>8.600000000000001</ele><time>2026-04-25T16:48:43Z</time></trkpt><trkpt lat="40.181135039339516" lon="15.027188189435078"><ele>8.8</ele><time>2026-04-25T16:48:45Z</time></trkpt><trkpt lat="40.181071798012624" lon="15.027258603866944"><ele>9.0</ele><time>2026-04-25T16:48:46Z</time></trkpt><trkpt lat="40.18097397201962" lon="15.027306380409291"><ele>9.0</ele><time>2026-04-25T16:48:47Z</time></trkpt><trkpt lat="40.18086688794178" lon="15.02736751145985"><ele>9.0</ele><time>2026-04-25T16:48:48Z</time></trkpt><trkpt lat="40.18077069385258" lon="15.027421638050805"><ele>9.0</ele><time>2026-04-25T16:48:49Z</time></trkpt><trkpt lat="40.18068360238864" lon="15.027472230217258"><ele>9.0</ele><time>2026-04-25T16:48:50Z</time></trkpt><trkpt lat="40.180595703802325" lon="15.027543534894432"><ele>9.0</ele><time>2026-04-25T16:48:51Z</time></trkpt><trkpt lat="40.180483718844016" lon="15.02760385184146"><ele>9.2</ele><time>2026-04-25T16:48:52Z</time></trkpt><trkpt lat="40.18037301156168" lon="15.027665566300017"><ele>9.4</ele><time>2026-04-25T16:48:53Z</time></trkpt><trkpt lat="40.180273747559134" lon="15.027723940365302"><ele>9.6</ele><time>2026-04-25T16:48:54Z</time></trkpt><trkpt lat="40.18019140529144" lon="15.027781245190406"><ele>9.8</ele><time>2026-04-25T16:48:55Z</time></trkpt><trkpt lat="40.18012234828915" lon="15.027833399006475"><ele>10.0</ele><time>2026-04-25T16:48:56Z</time></trkpt><trkpt lat="40.18004224451276" lon="15.027870772951452"><ele>10.0</ele><time>2026-04-25T16:48:58Z</time></trkpt><trkpt lat="40.179972042995544" lon="15.027913302662451"><ele>10.0</ele><time>2026-04-25T16:49:00Z</time></trkpt><trkpt lat="40.179969890315036" lon="15.028108794735871"><ele>10.0</ele><time>2026-04-25T16:49:01Z</time></trkpt><trkpt lat="40.17995269109466" lon="15.02820189482746"><ele>10.0</ele><time>2026-04-25T16:49:02Z</time></trkpt><trkpt lat="40.17994703912027" lon="15.0283065166964"><ele>10.0</ele><time>2026-04-25T16:49:03Z</time></trkpt><trkpt lat="40.17996741030551" lon="15.028427768607596"><ele>10.6</ele><time>2026-04-25T16:49:04Z</time></trkpt><trkpt lat="40.18003478972326" lon="15.02855229106633"><ele>11.2</ele><time>2026-04-25T16:49:05Z</time></trkpt><trkpt lat="40.18008100882732" lon="15.028667753584951"><ele>11.8</ele><time>2026-04-25T16:49:06Z</time></trkpt><trkpt lat="40.180133029610765" lon="15.028801488008419"><ele>12.4</ele><time>2026-04-25T16:49:07Z</time></trkpt><trkpt lat="40.18017769210429" lon="15.028920629097303"><ele>13.0</ele><time>2026-04-25T16:49:08Z</time></trkpt><trkpt lat="40.18021024242988" lon="15.029007459863916"><ele>12.999999999999998</ele><time>2026-04-25T16:49:09Z</time></trkpt><trkpt lat="40.18024822789032" lon="15.029110549434359"><ele>13.0</ele><time>2026-04-25T16:49:11Z</time></trkpt><trkpt lat="40.180240309323" lon="15.029206728770001"><ele>13.0</ele><time>2026-04-25T16:49:14Z</time></trkpt><trkpt lat="40.18015617565368" lon="15.02921280235646"><ele>13.0</ele><time>2026-04-25T16:49:15Z</time></trkpt><trkpt lat="40.18008450771534" lon="15.029258565303591"><ele>12.999999999999998</ele><time>2026-04-25T16:49:16Z</time></trkpt><trkpt lat="40.179989271673634" lon="15.029316243962247"><ele>13.0</ele><time>2026-04-25T16:49:17Z</time></trkpt><trkpt lat="40.17987391671189" lon="15.029405163452765"><ele>14.0</ele><time>2026-04-25T16:49:18Z</time></trkpt><trkpt lat="40.1797209771935" lon="15.029492863088121"><ele>15.0</ele><time>2026-04-25T16:49:19Z</time></trkpt><trkpt lat="40.179521874793096" lon="15.029603055663271"><ele>16.0</ele><time>2026-04-25T16:49:20Z</time></trkpt><trkpt lat="40.17932087267001" lon="15.029716198978491"><ele>16.0</ele><time>2026-04-25T16:49:21Z</time></trkpt><trkpt lat="40.17914598829595" lon="15.029792823234105"><ele>16.0</ele><time>2026-04-25T16:49:22Z</time></trkpt><trkpt lat="40.17900137398753" lon="15.029896610552882"><ele>16.0</ele><time>2026-04-25T16:49:23Z</time></trkpt><trkpt lat="40.17887042814697" lon="15.029967676276037"><ele>16.666666666666664</ele><time>2026-04-25T16:49:24Z</time></trkpt><trkpt lat="40.178741866663856" lon="15.03004865120837"><ele>17.333333333333332</ele><time>2026-04-25T16:49:25Z</time></trkpt><trkpt lat="40.17859814431262" lon="15.030127130302706"><ele>18.0</ele><time>2026-04-25T16:49:26Z</time></trkpt><trkpt lat="40.17845625562524" lon="15.03024538932086"><ele>18.0</ele><time>2026-04-25T16:49:27Z</time></trkpt><trkpt lat="40.178316809221464" lon="15.030384608153852"><ele>18.0</ele><time>2026-04-25T16:49:28Z</time></trkpt><trkpt lat="40.17818628572838" lon="15.030536497621794"><ele>18.0</ele><time>2026-04-25T16:49:29Z</time></trkpt><trkpt lat="40.17806349228641" lon="15.030692489774049"><ele>16.666666666666668</ele><time>2026-04-25T16:49:30Z</time></trkpt><trkpt lat="40.17794394627147" lon="15.03084969855349"><ele>15.333333333333334</ele><time>2026-04-25T16:49:31Z</time></trkpt><trkpt lat="40.17782254017996" lon="15.03100842060872"><ele>14.0</ele><time>2026-04-25T16:49:32Z</time></trkpt><trkpt lat="40.17769894708565" lon="15.031169505900216"><ele>14.0</ele><time>2026-04-25T16:49:33Z</time></trkpt><trkpt lat="40.17757541207672" lon="15.0313299609768"><ele>14.0</ele><time>2026-04-25T16:49:34Z</time></trkpt><trkpt lat="40.177451151753125" lon="15.03148893103729"><ele>14.0</ele><time>2026-04-25T16:49:35Z</time></trkpt><trkpt lat="40.17732620630929" lon="15.03164886772159"><ele>11.0</ele><time>2026-04-25T16:49:36Z</time></trkpt><trkpt lat="40.17720294193961" lon="15.031805610666522"><ele>8.0</ele><time>2026-04-25T16:49:36.999Z</time></trkpt><trkpt lat="40.17708060366283" lon="15.031962342070868"><ele>5.0</ele><time>2026-04-25T16:49:37.999Z</time></trkpt><trkpt lat="40.17695838433506" lon="15.032119715755815"><ele>5.0</ele><time>2026-04-25T16:49:38.999Z</time></trkpt><trkpt lat="40.17684117962042" lon="15.032270996741916"><ele>5.0</ele><time>2026-04-25T16:49:39.999Z</time></trkpt><trkpt lat="40.17672344074213" lon="15.03242332837795"><ele>5.0</ele><time>2026-04-25T16:49:40.999Z</time></trkpt><trkpt lat="40.1766059607062" lon="15.032575325075797"><ele>6.5</ele><time>2026-04-25T16:49:41.999Z</time></trkpt><trkpt lat="40.17649422506408" lon="15.032719384726915"><ele>8.0</ele><time>2026-04-25T16:49:42.999Z</time></trkpt><trkpt lat="40.17639170775224" lon="15.03285124602071"><ele>9.5</ele><time>2026-04-25T16:49:43.999Z</time></trkpt><trkpt lat="40.176294317406125" lon="15.032976607550744"><ele>11.0</ele><time>2026-04-25T16:49:44.999Z</time></trkpt><trkpt lat="40.176206326100484" lon="15.033089817733574"><ele>11.0</ele><time>2026-04-25T16:49:45.999Z</time></trkpt><trkpt lat="40.17612465360612" lon="15.033194847370943"><ele>11.0</ele><time>2026-04-25T16:49:46.999Z</time></trkpt><trkpt lat="40.17604560180681" lon="15.033295166591685"><ele>11.0</ele><time>2026-04-25T16:49:47.999Z</time></trkpt><trkpt lat="40.175968288274234" lon="15.033392749012087"><ele>11.0</ele><time>2026-04-25T16:49:48.999Z</time></trkpt><trkpt lat="40.17588778901868" lon="15.033493246528808"><ele>11.0</ele><time>2026-04-25T16:49:49.999Z</time></trkpt><trkpt lat="40.17585693883674" lon="15.033729722226544"><ele>11.75</ele><time>2026-04-25T16:49:50.999Z</time></trkpt><trkpt lat="40.175820667936705" lon="15.033899134979952"><ele>12.5</ele><time>2026-04-25T16:49:51.999Z</time></trkpt><trkpt lat="40.17575989150084" lon="15.034035416797359"><ele>13.25</ele><time>2026-04-25T16:49:52.999Z</time></trkpt><trkpt lat="40.17570798145609" lon="15.034196853588659"><ele>14.0</ele><time>2026-04-25T16:49:53.999Z</time></trkpt><trkpt lat="40.17566449831992" lon="15.034346595187246"><ele>14.0</ele><time>2026-04-25T16:49:54.999Z</time></trkpt><trkpt lat="40.175624938667" lon="15.03447461553273"><ele>13.999999999999998</ele><time>2026-04-25T16:49:55.999Z</time></trkpt><trkpt lat="40.175583834386025" lon="15.034591333844581"><ele>13.999999999999998</ele><time>2026-04-25T16:49:56.999Z</time></trkpt><trkpt lat="40.1755339329965" lon="15.034710401602194"><ele>14.0</ele><time>2026-04-25T16:49:57.999Z</time></trkpt><trkpt lat="40.17547180075987" lon="15.034857713057919"><ele>14.0</ele><time>2026-04-25T16:49:58.999Z</time></trkpt><trkpt lat="40.175397636332086" lon="15.035014803673894"><ele>17.666666666666668</ele><time>2026-04-25T16:49:59.999Z</time></trkpt><trkpt lat="40.17531136718489" lon="15.035182185524299"><ele>21.333333333333336</ele><time>2026-04-25T16:50:00.999Z</time></trkpt><trkpt lat="40.175220259415525" lon="15.035342691451044"><ele>25.0</ele><time>2026-04-25T16:50:01.999Z</time></trkpt><trkpt lat="40.17512510533745" lon="15.03549127995919"><ele>25.0</ele><time>2026-04-25T16:50:02.999Z</time></trkpt><trkpt lat="40.17503205575455" lon="15.035638828254466"><ele>25.0</ele><time>2026-04-25T16:50:03.999Z</time></trkpt><trkpt lat="40.174938271584416" lon="15.035788350724635"><ele>25.0</ele><time>2026-04-25T16:50:04.999Z</time></trkpt><trkpt lat="40.1748441364365" lon="15.03594099572406"><ele>25.0</ele><time>2026-04-25T16:50:05.999Z</time></trkpt><trkpt lat="40.17476500687489" lon="15.036069308557112"><ele>24.75</ele><time>2026-04-25T16:50:06.999Z</time></trkpt><trkpt lat="40.17469285924699" lon="15.036186724787735"><ele>24.5</ele><time>2026-04-25T16:50:07.999Z</time></trkpt><trkpt lat="40.17462661272027" lon="15.036296327076757"><ele>24.25</ele><time>2026-04-25T16:50:08.999Z</time></trkpt><trkpt lat="40.17456416592713" lon="15.036425528381038"><ele>24.0</ele><time>2026-04-25T16:50:09.999Z</time></trkpt><trkpt lat="40.17452103028812" lon="15.036602599627845"><ele>25.799999999999997</ele><time>2026-04-25T16:50:10.999Z</time></trkpt><trkpt lat="40.17452805143036" lon="15.036763912857495"><ele>27.599999999999998</ele><time>2026-04-25T16:50:11.999Z</time></trkpt><trkpt lat="40.17452077793623" lon="15.036885026111168"><ele>29.4</ele><time>2026-04-25T16:50:12.999Z</time></trkpt><trkpt lat="40.17448949396949" lon="15.036989180115368"><ele>31.2</ele><time>2026-04-25T16:50:13.999Z</time></trkpt><trkpt lat="40.174422955991865" lon="15.037062808023432"><ele>33.0</ele><time>2026-04-25T16:50:14.999Z</time></trkpt><trkpt lat="40.174323816750416" lon="15.037142422400605"><ele>33.0</ele><time>2026-04-25T16:50:15.999Z</time></trkpt><trkpt lat="40.17420563958144" lon="15.037237874847953"><ele>33.0</ele><time>2026-04-25T16:50:16.999Z</time></trkpt><trkpt lat="40.17410861076068" lon="15.037327195985876"><ele>33.0</ele><time>2026-04-25T16:50:17.999Z</time></trkpt><trkpt lat="40.17401748180678" lon="15.037454282921647"><ele>33.0</ele><time>2026-04-25T16:50:18.999Z</time></trkpt><trkpt lat="40.17394786718589" lon="15.037610485675746"><ele>32.75</ele><time>2026-04-25T16:50:19.999Z</time></trkpt><trkpt lat="40.17390021868695" lon="15.037779700108835"><ele>32.5</ele><time>2026-04-25T16:50:20.999Z</time></trkpt><trkpt lat="40.17386949513954" lon="15.037965301424988"><ele>32.25</ele><time>2026-04-25T16:50:21.999Z</time></trkpt><trkpt lat="40.17387451954392" lon="15.038159411430579"><ele>32.0</ele><time>2026-04-25T16:50:22.999Z</time></trkpt><trkpt lat="40.173897160634034" lon="15.038357275568732"><ele>32.0</ele><time>2026-04-25T16:50:23.999Z</time></trkpt><trkpt lat="40.17392512982425" lon="15.038544444242387"><ele>32.0</ele><time>2026-04-25T16:50:24.999Z</time></trkpt><trkpt lat="40.17395178636182" lon="15.038704074215614"><ele>32.0</ele><time>2026-04-25T16:50:25.999Z</time></trkpt><trkpt lat="40.17398215377483" lon="15.03884939081524"><ele>32.0</ele><time>2026-04-25T16:50:26.999Z</time></trkpt><trkpt lat="40.17405458065322" lon="15.038990871242213"><ele>39.33333333333333</ele><time>2026-04-25T16:50:27.999Z</time></trkpt><trkpt lat="40.17419949302694" lon="15.03906783639375"><ele>46.666666666666664</ele><time>2026-04-25T16:50:28.999Z</time></trkpt><trkpt lat="40.174331948163456" lon="15.039184869793496"><ele>54.0</ele><time>2026-04-25T16:50:29.999Z</time></trkpt><trkpt lat="40.17445849066349" lon="15.039295750726998"><ele>54.0</ele><time>2026-04-25T16:50:31Z</time></trkpt><trkpt lat="40.174563314046495" lon="15.039397995839087"><ele>54.0</ele><time>2026-04-25T16:50:32Z</time></trkpt><trkpt lat="40.174666643380775" lon="15.039479108374458"><ele>54.0</ele><time>2026-04-25T16:50:33Z</time></trkpt><trkpt lat="40.174790923705984" lon="15.039538193990055"><ele>54.0</ele><time>2026-04-25T16:50:34Z</time></trkpt><trkpt lat="40.174940792709414" lon="15.039525335499594"><ele>57.400000000000006</ele><time>2026-04-25T16:50:35Z</time></trkpt><trkpt lat="40.175072388499196" lon="15.039482603561085"><ele>60.800000000000004</ele><time>2026-04-25T16:50:36Z</time></trkpt><trkpt lat="40.17516693785972" lon="15.039482247756272"><ele>64.19999999999999</ele><time>2026-04-25T16:50:37Z</time></trkpt><trkpt lat="40.175252886796514" lon="15.039511597078118"><ele>67.6</ele><time>2026-04-25T16:50:38Z</time></trkpt><trkpt lat="40.17532908338197" lon="15.039621391252544"><ele>71.0</ele><time>2026-04-25T16:50:39Z</time></trkpt><trkpt lat="40.17543977401737" lon="15.03973873968459"><ele>71.0</ele><time>2026-04-25T16:50:40Z</time></trkpt><trkpt lat="40.17552917085716" lon="15.039859166020209"><ele>71.0</ele><time>2026-04-25T16:50:41Z</time></trkpt><trkpt lat="40.17558684855416" lon="15.039995512588348"><ele>71.0</ele><time>2026-04-25T16:50:42Z</time></trkpt><trkpt lat="40.1756109151573" lon="15.040135454369882"><ele>71.0</ele><time>2026-04-25T16:50:43Z</time></trkpt><trkpt lat="40.17564063538071" lon="15.040275339148"><ele>72.5</ele><time>2026-04-25T16:50:44Z</time></trkpt><trkpt lat="40.175702643077585" lon="15.0403992030897"><ele>74.0</ele><time>2026-04-25T16:50:45Z</time></trkpt><trkpt lat="40.175798483360104" lon="15.040504867712631"><ele>75.5</ele><time>2026-04-25T16:50:46Z</time></trkpt><trkpt lat="40.175926508553346" lon="15.04054905896953"><ele>77.0</ele><time>2026-04-25T16:50:47Z</time></trkpt><trkpt lat="40.17604603185763" lon="15.040501895754362"><ele>77.0</ele><time>2026-04-25T16:50:48Z</time></trkpt><trkpt lat="40.17616714676286" lon="15.040439064229828"><ele>77.0</ele><time>2026-04-25T16:50:49Z</time></trkpt><trkpt lat="40.17628358178838" lon="15.040429006510168"><ele>77.0</ele><time>2026-04-25T16:50:50Z</time></trkpt><trkpt lat="40.176376134143354" lon="15.040475952479715"><ele>77.0</ele><time>2026-04-25T16:50:51Z</time></trkpt><trkpt lat="40.17644294362805" lon="15.040596863257791"><ele>78.33333333333334</ele><time>2026-04-25T16:50:52Z</time></trkpt><trkpt lat="40.17656478325631" lon="15.040726489088039"><ele>79.66666666666667</ele><time>2026-04-25T16:50:53Z</time></trkpt><trkpt lat="40.176677601901886" lon="15.040855760235473"><ele>81.0</ele><time>2026-04-25T16:50:54Z</time></trkpt><trkpt lat="40.17677734052598" lon="15.041000382850141"><ele>81.0</ele><time>2026-04-25T16:50:55Z</time></trkpt><trkpt lat="40.17689651566481" lon="15.041155231921556"><ele>81.0</ele><time>2026-04-25T16:50:56Z</time></trkpt><trkpt lat="40.177013426065564" lon="15.041281647173985"><ele>81.0</ele><time>2026-04-25T16:50:57Z</time></trkpt><trkpt lat="40.17710883016056" lon="15.04137582187495"><ele>81.0</ele><time>2026-04-25T16:50:58Z</time></trkpt><trkpt lat="40.17721652758513" lon="15.04145112126378"><ele>81.0</ele><time>2026-04-25T16:50:59Z</time></trkpt><trkpt lat="40.177351212400865" lon="15.041488265429525"><ele>81.0</ele><time>2026-04-25T16:51:00Z</time></trkpt><trkpt lat="40.1774903556153" lon="15.041453322140427"><ele>81.0</ele><time>2026-04-25T16:51:01Z</time></trkpt><trkpt lat="40.17761339093468" lon="15.041402511249986"><ele>81.0</ele><time>2026-04-25T16:51:02Z</time></trkpt><trkpt lat="40.177720151228336" lon="15.04129335864156"><ele>89.33333333333334</ele><time>2026-04-25T16:51:03Z</time></trkpt><trkpt lat="40.1778271061033" lon="15.041125595807394"><ele>97.66666666666667</ele><time>2026-04-25T16:51:04Z</time></trkpt><trkpt lat="40.177930532898046" lon="15.040945855084868"><ele>106.0</ele><time>2026-04-25T16:51:05Z</time></trkpt><trkpt lat="40.1780458370923" lon="15.040762895673392"><ele>107.33333333333334</ele><time>2026-04-25T16:51:06Z</time></trkpt><trkpt lat="40.17816038107764" lon="15.040587314183174"><ele>108.66666666666666</ele><time>2026-04-25T16:51:07Z</time></trkpt><trkpt lat="40.17827806264469" lon="15.040407910194666"><ele>110.0</ele><time>2026-04-25T16:51:08Z</time></trkpt><trkpt lat="40.17838157169445" lon="15.040244165076212"><ele>110.0</ele><time>2026-04-25T16:51:09Z</time></trkpt><trkpt lat="40.178480677984105" lon="15.040100977136776"><ele>110.0</ele><time>2026-04-25T16:51:10Z</time></trkpt><trkpt lat="40.17861876214415" lon="15.039994898292115"><ele>110.0</ele><time>2026-04-25T16:51:11Z</time></trkpt><trkpt lat="40.17872194079214" lon="15.039842756980699"><ele>113.75</ele><time>2026-04-25T16:51:12Z</time></trkpt><trkpt lat="40.17880962726486" lon="15.039721922430136"><ele>117.5</ele><time>2026-04-25T16:51:13Z</time></trkpt><trkpt lat="40.17888175350345" lon="15.039614158450501"><ele>121.25</ele><time>2026-04-25T16:51:14Z</time></trkpt><trkpt lat="40.17898111439671" lon="15.039555720858234"><ele>125.0</ele><time>2026-04-25T16:51:15Z</time></trkpt><trkpt lat="40.179124639029766" lon="15.0395880557444"><ele>125.0</ele><time>2026-04-25T16:51:16Z</time></trkpt><trkpt lat="40.179271204485275" lon="15.039572577252835"><ele>125.0</ele><time>2026-04-25T16:51:17Z</time></trkpt><trkpt lat="40.179403074436046" lon="15.03953945542337"><ele>125.0</ele><time>2026-04-25T16:51:18Z</time></trkpt><trkpt lat="40.17951826900532" lon="15.03952735055614"><ele>125.0</ele><time>2026-04-25T16:51:19Z</time></trkpt><trkpt lat="40.17963072663585" lon="15.039473933044171"><ele>125.0</ele><time>2026-04-25T16:51:20Z</time></trkpt><trkpt lat="40.17973056014863" lon="15.039367380144762"><ele>125.0</ele><time>2026-04-25T16:51:21Z</time></trkpt><trkpt lat="40.1798036999026" lon="15.039207150625854"><ele>125.0</ele><time>2026-04-25T16:51:22Z</time></trkpt><trkpt lat="40.179847454388636" lon="15.039056506536383"><ele>125.0</ele><time>2026-04-25T16:51:23Z</time></trkpt><trkpt lat="40.1799001719458" lon="15.038971354817418"><ele>126.2</ele><time>2026-04-25T16:51:24Z</time></trkpt><trkpt lat="40.17997741349182" lon="15.03894728706408"><ele>127.4</ele><time>2026-04-25T16:51:25Z</time></trkpt><trkpt lat="40.18004951900366" lon="15.039007743245794"><ele>128.6</ele><time>2026-04-25T16:51:26Z</time></trkpt><trkpt lat="40.18009177337353" lon="15.039111385029488"><ele>129.8</ele><time>2026-04-25T16:51:27Z</time></trkpt><trkpt lat="40.180187587973236" lon="15.039227018679464"><ele>131.0</ele><time>2026-04-25T16:51:28Z</time></trkpt><trkpt lat="40.180302016483665" lon="15.039303711049563"><ele>127.5</ele><time>2026-04-25T16:51:29Z</time></trkpt><trkpt lat="40.180433860800605" lon="15.03932683896853"><ele>124.0</ele><time>2026-04-25T16:51:30Z</time></trkpt><trkpt lat="40.18058425147502" lon="15.03933702091767"><ele>120.5</ele><time>2026-04-25T16:51:31Z</time></trkpt><trkpt lat="40.18074376323178" lon="15.039358456441509"><ele>117.0</ele><time>2026-04-25T16:51:32Z</time></trkpt><trkpt lat="40.18089117186407" lon="15.039357848537243"><ele>116.5</ele><time>2026-04-25T16:51:33Z</time></trkpt><trkpt lat="40.18104053051199" lon="15.0393406960217"><ele>116.0</ele><time>2026-04-25T16:51:34Z</time></trkpt><trkpt lat="40.181183485657016" lon="15.039289519311518"><ele>115.5</ele><time>2026-04-25T16:51:35Z</time></trkpt><trkpt lat="40.18131884261656" lon="15.039238301774068"><ele>115.0</ele><time>2026-04-25T16:51:36Z</time></trkpt><trkpt lat="40.181460945405064" lon="15.039198078228962"><ele>116.25</ele><time>2026-04-25T16:51:37Z</time></trkpt><trkpt lat="40.18159971039985" lon="15.039151447575286"><ele>117.5</ele><time>2026-04-25T16:51:38Z</time></trkpt><trkpt lat="40.18173896383591" lon="15.03911358317065"><ele>118.75</ele><time>2026-04-25T16:51:39Z</time></trkpt><trkpt lat="40.181855137507874" lon="15.039087815558442"><ele>120.0</ele><time>2026-04-25T16:51:40Z</time></trkpt><trkpt lat="40.18196142220762" lon="15.039066433038776"><ele>114.75</ele><time>2026-04-25T16:51:40.999Z</time></trkpt><trkpt lat="40.18208045481963" lon="15.039045275476889"><ele>109.5</ele><time>2026-04-25T16:51:41.999Z</time></trkpt><trkpt lat="40.18221040937226" lon="15.039028962220918"><ele>104.25</ele><time>2026-04-25T16:51:42.999Z</time></trkpt><trkpt lat="40.18235124806886" lon="15.039025093120507"><ele>99.0</ele><time>2026-04-25T16:51:43.999Z</time></trkpt><trkpt lat="40.18249875033527" lon="15.039036433184542"><ele>99.0</ele><time>2026-04-25T16:51:44.999Z</time></trkpt><trkpt lat="40.18265002494457" lon="15.039071452982776"><ele>99.0</ele><time>2026-04-25T16:51:45.999Z</time></trkpt><trkpt lat="40.182809443802576" lon="15.03909715623537"><ele>99.0</ele><time>2026-04-25T16:51:46.999Z</time></trkpt><trkpt lat="40.18295487701111" lon="15.03910051589821"><ele>99.0</ele><time>2026-04-25T16:51:47.999Z</time></trkpt><trkpt lat="40.183081287192564" lon="15.039083177533369"><ele>99.0</ele><time>2026-04-25T16:51:48.999Z</time></trkpt><trkpt lat="40.1832144088162" lon="15.039065143701205"><ele>99.0</ele><time>2026-04-25T16:51:49.999Z</time></trkpt><trkpt lat="40.183330171493175" lon="15.03905225186129"><ele>99.0</ele><time>2026-04-25T16:51:50.999Z</time></trkpt><trkpt lat="40.18344094962179" lon="15.039049520817734"><ele>100.0</ele><time>2026-04-25T16:51:51.999Z</time></trkpt><trkpt lat="40.18353101160709" lon="15.039100009320887"><ele>101.0</ele><time>2026-04-25T16:51:52.999Z</time></trkpt><trkpt lat="40.18363169808914" lon="15.039196053731933"><ele>102.0</ele><time>2026-04-25T16:51:53.999Z</time></trkpt><trkpt lat="40.18373773162854" lon="15.039256832496333"><ele>103.0</ele><time>2026-04-25T16:51:54.999Z</time></trkpt><trkpt lat="40.183843941617894" lon="15.0392736293373"><ele>104.0</ele><time>2026-04-25T16:51:55.999Z</time></trkpt><trkpt lat="40.18393554747526" lon="15.039222117976133"><ele>108.80000000000001</ele><time>2026-04-25T16:51:56.999Z</time></trkpt><trkpt lat="40.18400075029908" lon="15.039160575041336"><ele>113.60000000000001</ele><time>2026-04-25T16:51:57.999Z</time></trkpt><trkpt lat="40.184042404720984" lon="15.039060654262125"><ele>118.4</ele><time>2026-04-25T16:51:58.999Z</time></trkpt><trkpt lat="40.18406836915645" lon="15.038940590808105"><ele>123.2</ele><time>2026-04-25T16:51:59.999Z</time></trkpt><trkpt lat="40.184088034488646" lon="15.0387986408353"><ele>128.0</ele><time>2026-04-25T16:52:00.999Z</time></trkpt><trkpt lat="40.18411173745013" lon="15.038676820574354"><ele>128.0</ele><time>2026-04-25T16:52:01.999Z</time></trkpt><trkpt lat="40.184155754864875" lon="15.038560259050412"><ele>128.0</ele><time>2026-04-25T16:52:02.999Z</time></trkpt><trkpt lat="40.18424712046748" lon="15.038487495748699"><ele>128.0</ele><time>2026-04-25T16:52:03.999Z</time></trkpt><trkpt lat="40.18435952673413" lon="15.03842001180236"><ele>128.0</ele><time>2026-04-25T16:52:04.999Z</time></trkpt><trkpt lat="40.18446728510457" lon="15.03832807024157"><ele>128.0</ele><time>2026-04-25T16:52:05.999Z</time></trkpt><trkpt lat="40.184579042786105" lon="15.038255648561934"><ele>128.0</ele><time>2026-04-25T16:52:06.999Z</time></trkpt><trkpt lat="40.18466042930026" lon="15.038172845257346"><ele>128.0</ele><time>2026-04-25T16:52:07.999Z</time></trkpt><trkpt lat="40.18471555089015" lon="15.038076671847646"><ele>128.0</ele><time>2026-04-25T16:52:08.999Z</time></trkpt><trkpt lat="40.184732655389574" lon="15.037960442682886"><ele>128.0</ele><time>2026-04-25T16:52:09.999Z</time></trkpt><trkpt lat="40.18470156837081" lon="15.037826492040894"><ele>128.0</ele><time>2026-04-25T16:52:10.999Z</time></trkpt><trkpt lat="40.184629740557796" lon="15.03769988756145"><ele>128.0</ele><time>2026-04-25T16:52:11.999Z</time></trkpt><trkpt lat="40.18452511814556" lon="15.037599500263306"><ele>128.0</ele><time>2026-04-25T16:52:12.999Z</time></trkpt><trkpt lat="40.18440819992732" lon="15.037521663163517"><ele>128.0</ele><time>2026-04-25T16:52:13.999Z</time></trkpt><trkpt lat="40.18432389407942" lon="15.037456432048346"><ele>125.2</ele><time>2026-04-25T16:52:14.999Z</time></trkpt><trkpt lat="40.184268667629034" lon="15.037386025382103"><ele>122.4</ele><time>2026-04-25T16:52:15.999Z</time></trkpt><trkpt lat="40.184271434188254" lon="15.037237043532093"><ele>119.60000000000001</ele><time>2026-04-25T16:52:17.999Z</time></trkpt><trkpt lat="40.18431859398484" lon="15.037159179805865"><ele>116.80000000000001</ele><time>2026-04-25T16:52:18.999Z</time></trkpt><trkpt lat="40.184394159580144" lon="15.037103977298411"><ele>114.0</ele><time>2026-04-25T16:52:19.999Z</time></trkpt><trkpt lat="40.18448970336984" lon="15.037140366021383"><ele>114.0</ele><time>2026-04-25T16:52:20.999Z</time></trkpt><trkpt lat="40.184567628251266" lon="15.037196224142727"><ele>114.0</ele><time>2026-04-25T16:52:21.999Z</time></trkpt><trkpt lat="40.18466587332089" lon="15.037256188309305"><ele>114.0</ele><time>2026-04-25T16:52:22.999Z</time></trkpt><trkpt lat="40.18477865644816" lon="15.037307619436543"><ele>114.0</ele><time>2026-04-25T16:52:23.999Z</time></trkpt><trkpt lat="40.184888076461284" lon="15.03731192197334"><ele>114.0</ele><time>2026-04-25T16:52:24.999Z</time></trkpt><trkpt lat="40.184990339920205" lon="15.03727411258515"><ele>114.80000000000001</ele><time>2026-04-25T16:52:25.999Z</time></trkpt><trkpt lat="40.18508332463498" lon="15.037278296447077"><ele>115.60000000000001</ele><time>2026-04-25T16:52:26.999Z</time></trkpt><trkpt lat="40.18516468198107" lon="15.037288525473619"><ele>116.4</ele><time>2026-04-25T16:52:27.999Z</time></trkpt><trkpt lat="40.18524612800699" lon="15.037326119512766"><ele>117.2</ele><time>2026-04-25T16:52:28.999Z</time></trkpt><trkpt lat="40.18534691382064" lon="15.037389072481862"><ele>118.0</ele><time>2026-04-25T16:52:29.999Z</time></trkpt><trkpt lat="40.18546087249789" lon="15.0374557073734"><ele>121.80000000000001</ele><time>2026-04-25T16:52:30.999Z</time></trkpt><trkpt lat="40.18554891002683" lon="15.037512367989388"><ele>125.60000000000001</ele><time>2026-04-25T16:52:31.999Z</time></trkpt><trkpt lat="40.18561586584166" lon="15.03757759490152"><ele>129.39999999999998</ele><time>2026-04-25T16:52:32.999Z</time></trkpt><trkpt lat="40.185675696343516" lon="15.037676903767535"><ele>133.2</ele><time>2026-04-25T16:52:33.999Z</time></trkpt><trkpt lat="40.18570400779119" lon="15.03780836409485"><ele>137.0</ele><time>2026-04-25T16:52:34.999Z</time></trkpt><trkpt lat="40.18574474355184" lon="15.037949761189912"><ele>137.0</ele><time>2026-04-25T16:52:35.999Z</time></trkpt><trkpt lat="40.18577525285318" lon="15.038084837259094"><ele>137.0</ele><time>2026-04-25T16:52:37Z</time></trkpt><trkpt lat="40.18581845236463" lon="15.038205047464023"><ele>137.0</ele><time>2026-04-25T16:52:38Z</time></trkpt><trkpt lat="40.185939278451386" lon="15.038305120965637"><ele>137.0</ele><time>2026-04-25T16:52:39Z</time></trkpt><trkpt lat="40.18605427823763" lon="15.038376637554817"><ele>141.8</ele><time>2026-04-25T16:52:40Z</time></trkpt><trkpt lat="40.18614674792278" lon="15.038434975002902"><ele>146.6</ele><time>2026-04-25T16:52:41Z</time></trkpt><trkpt lat="40.186230625785505" lon="15.038499124479756"><ele>151.4</ele><time>2026-04-25T16:52:42Z</time></trkpt><trkpt lat="40.18631091618832" lon="15.038592962143973"><ele>156.20000000000002</ele><time>2026-04-25T16:52:43Z</time></trkpt><trkpt lat="40.18642392712175" lon="15.038642341285529"><ele>161.0</ele><time>2026-04-25T16:52:44Z</time></trkpt><trkpt lat="40.18650964686349" lon="15.038785585064858"><ele>161.5</ele><time>2026-04-25T16:52:45Z</time></trkpt><trkpt lat="40.18661320655867" lon="15.038899520639175"><ele>162.0</ele><time>2026-04-25T16:52:46Z</time></trkpt><trkpt lat="40.186713607232605" lon="15.038990584696325"><ele>162.5</ele><time>2026-04-25T16:52:47Z</time></trkpt><trkpt lat="40.18680875652675" lon="15.039081901584249"><ele>163.0</ele><time>2026-04-25T16:52:48Z</time></trkpt><trkpt lat="40.186870285334976" lon="15.039228819326897"><ele>163.0</ele><time>2026-04-25T16:52:49Z</time></trkpt><trkpt lat="40.18695747406847" lon="15.039330835335562"><ele>163.0</ele><time>2026-04-25T16:52:50Z</time></trkpt><trkpt lat="40.187046381014845" lon="15.03944279721083"><ele>163.0</ele><time>2026-04-25T16:52:51Z</time></trkpt><trkpt lat="40.187134418750105" lon="15.039536894749567"><ele>163.0</ele><time>2026-04-25T16:52:52Z</time></trkpt><trkpt lat="40.18721911554538" lon="15.039611506777273"><ele>163.0</ele><time>2026-04-25T16:52:53Z</time></trkpt><trkpt lat="40.18732438178145" lon="15.039641916721376"><ele>163.0</ele><time>2026-04-25T16:52:54Z</time></trkpt><trkpt lat="40.187420524683375" lon="15.039689444946461"><ele>163.0</ele><time>2026-04-25T16:52:55Z</time></trkpt><trkpt lat="40.18752282524974" lon="15.039716013783684"><ele>163.0</ele><time>2026-04-25T16:52:56Z</time></trkpt><trkpt lat="40.18763389108952" lon="15.039702865313505"><ele>163.0</ele><time>2026-04-25T16:52:57Z</time></trkpt><trkpt lat="40.187736011116804" lon="15.039669252227297"><ele>161.16666666666669</ele><time>2026-04-25T16:52:58Z</time></trkpt><trkpt lat="40.1878213722638" lon="15.039624966543958"><ele>159.33333333333334</ele><time>2026-04-25T16:52:59Z</time></trkpt><trkpt lat="40.18789393131027" lon="15.039576043196652"><ele>157.5</ele><time>2026-04-25T16:53:00Z</time></trkpt><trkpt lat="40.18796295184316" lon="15.039547723648944"><ele>155.66666666666666</ele><time>2026-04-25T16:53:01Z</time></trkpt><trkpt lat="40.18803229347817" lon="15.039547480299282"><ele>153.83333333333331</ele><time>2026-04-25T16:53:02Z</time></trkpt><trkpt lat="40.18808313475807" lon="15.039655938216546"><ele>152.0</ele><time>2026-04-25T16:53:03Z</time></trkpt><trkpt lat="40.1881062655041" lon="15.039781713573456"><ele>150.5</ele><time>2026-04-25T16:53:04Z</time></trkpt><trkpt lat="40.18817956299391" lon="15.039910138207986"><ele>149.0</ele><time>2026-04-25T16:53:05Z</time></trkpt><trkpt lat="40.188256212673274" lon="15.040008285081"><ele>147.5</ele><time>2026-04-25T16:53:06Z</time></trkpt><trkpt lat="40.18837953291378" lon="15.040080118646019"><ele>146.0</ele><time>2026-04-25T16:53:07Z</time></trkpt><trkpt lat="40.18850415950991" lon="15.04012702476053"><ele>150.2</ele><time>2026-04-25T16:53:08Z</time></trkpt><trkpt lat="40.1886030848413" lon="15.04017418308224"><ele>154.39999999999998</ele><time>2026-04-25T16:53:09Z</time></trkpt><trkpt lat="40.188687356189725" lon="15.04021804184572"><ele>158.6</ele><time>2026-04-25T16:53:10Z</time></trkpt><trkpt lat="40.18877292289544" lon="15.04025804795508"><ele>162.79999999999998</ele><time>2026-04-25T16:53:11Z</time></trkpt><trkpt lat="40.188877922688064" lon="15.040302820828373"><ele>167.0</ele><time>2026-04-25T16:53:12Z</time></trkpt><trkpt lat="40.18901496292907" lon="15.040347414411272"><ele>167.0</ele><time>2026-04-25T16:53:13Z</time></trkpt><trkpt lat="40.18915647462591" lon="15.04039995880528"><ele>167.0</ele><time>2026-04-25T16:53:14Z</time></trkpt><trkpt lat="40.18932893592083" lon="15.040461379270248"><ele>167.0</ele><time>2026-04-25T16:53:15Z</time></trkpt><trkpt lat="40.18951394146627" lon="15.04049655187597"><ele>167.0</ele><time>2026-04-25T16:53:16Z</time></trkpt><trkpt lat="40.18966391832292" lon="15.040512823727695"><ele>167.0</ele><time>2026-04-25T16:53:17Z</time></trkpt><trkpt lat="40.189802852001904" lon="15.040520657569266"><ele>167.0</ele><time>2026-04-25T16:53:18Z</time></trkpt><trkpt lat="40.18994520512817" lon="15.040505380828145"><ele>167.0</ele><time>2026-04-25T16:53:19Z</time></trkpt><trkpt lat="40.190057665012105" lon="15.040484261606547"><ele>168.0</ele><time>2026-04-25T16:53:20Z</time></trkpt><trkpt lat="40.190168641809855" lon="15.040488695926651"><ele>169.0</ele><time>2026-04-25T16:53:21Z</time></trkpt><trkpt lat="40.19027246340303" lon="15.040550647815634"><ele>170.0</ele><time>2026-04-25T16:53:22Z</time></trkpt><trkpt lat="40.190399900998806" lon="15.040633452400002"><ele>171.0</ele><time>2026-04-25T16:53:23Z</time></trkpt><trkpt lat="40.19054170812458" lon="15.040725636450908"><ele>176.75</ele><time>2026-04-25T16:53:24Z</time></trkpt><trkpt lat="40.19067509115975" lon="15.04081234435217"><ele>182.5</ele><time>2026-04-25T16:53:25Z</time></trkpt><trkpt lat="40.19081334607587" lon="15.040896048623557"><ele>188.25</ele><time>2026-04-25T16:53:26Z</time></trkpt><trkpt lat="40.19094681474284" lon="15.040948534798872"><ele>194.0</ele><time>2026-04-25T16:53:27Z</time></trkpt><trkpt lat="40.19107915444972" lon="15.040963472322924"><ele>194.0</ele><time>2026-04-25T16:53:28Z</time></trkpt><trkpt lat="40.191203245843106" lon="15.040968510623681"><ele>194.0</ele><time>2026-04-25T16:53:29Z</time></trkpt><trkpt lat="40.19130792937304" lon="15.04099534922237"><ele>194.0</ele><time>2026-04-25T16:53:30Z</time></trkpt><trkpt lat="40.191390565298896" lon="15.041052446475222"><ele>194.0</ele><time>2026-04-25T16:53:31Z</time></trkpt><trkpt lat="40.19146609083988" lon="15.041161073287476"><ele>194.0</ele><time>2026-04-25T16:53:32Z</time></trkpt><trkpt lat="40.19156180458978" lon="15.041292808297909"><ele>196.5</ele><time>2026-04-25T16:53:33Z</time></trkpt><trkpt lat="40.19165576722601" lon="15.04141787014362"><ele>199.0</ele><time>2026-04-25T16:53:34Z</time></trkpt><trkpt lat="40.191752592913495" lon="15.041545369639659"><ele>201.5</ele><time>2026-04-25T16:53:35Z</time></trkpt><trkpt lat="40.19186431303423" lon="15.04167817519188"><ele>204.0</ele><time>2026-04-25T16:53:36Z</time></trkpt><trkpt lat="40.191984721458525" lon="15.041787735388043"><ele>204.0</ele><time>2026-04-25T16:53:37Z</time></trkpt><trkpt lat="40.19209824720528" lon="15.04188029894643"><ele>204.0</ele><time>2026-04-25T16:53:38Z</time></trkpt><trkpt lat="40.192209916659145" lon="15.041967595966714"><ele>204.0</ele><time>2026-04-25T16:53:39Z</time></trkpt><trkpt lat="40.19231372365565" lon="15.042046321229016"><ele>204.0</ele><time>2026-04-25T16:53:40Z</time></trkpt><trkpt lat="40.19240308990718" lon="15.042096473968618"><ele>204.0</ele><time>2026-04-25T16:53:41Z</time></trkpt><trkpt lat="40.19246244102523" lon="15.042130623223356"><ele>204.0</ele><time>2026-04-25T16:53:42Z</time></trkpt><trkpt lat="40.19253309949853" lon="15.042190428229611"><ele>204.0</ele><time>2026-04-25T16:53:43.999Z</time></trkpt><trkpt lat="40.192482581765965" lon="15.042244023961045"><ele>204.0</ele><time>2026-04-25T16:53:45.999Z</time></trkpt><trkpt lat="40.192407998492484" lon="15.042217733838221"><ele>204.0</ele><time>2026-04-25T16:53:46.999Z</time></trkpt><trkpt lat="40.192306084194364" lon="15.042169004339474"><ele>204.0</ele><time>2026-04-25T16:53:47.999Z</time></trkpt><trkpt lat="40.192189908866595" lon="15.042119350772406"><ele>204.0</ele><time>2026-04-25T16:53:48.999Z</time></trkpt><trkpt lat="40.19206221256292" lon="15.042063536250627"><ele>204.0</ele><time>2026-04-25T16:53:49.999Z</time></trkpt><trkpt lat="40.19190563792903" lon="15.042000887617824"><ele>204.0</ele><time>2026-04-25T16:53:50.999Z</time></trkpt><trkpt lat="40.19174736720831" lon="15.041938392159746"><ele>204.0</ele><time>2026-04-25T16:53:51.999Z</time></trkpt><trkpt lat="40.19160918855735" lon="15.041873581698647"><ele>204.0</ele><time>2026-04-25T16:53:52.999Z</time></trkpt><trkpt lat="40.191464352274004" lon="15.04177944178446"><ele>204.0</ele><time>2026-04-25T16:53:53.999Z</time></trkpt><trkpt lat="40.19132845985016" lon="15.041643525699998"><ele>201.5</ele><time>2026-04-25T16:53:54.999Z</time></trkpt><trkpt lat="40.1912239109764" lon="15.041515303391073"><ele>199.0</ele><time>2026-04-25T16:53:55.999Z</time></trkpt><trkpt lat="40.19111285691206" lon="15.041439806287773"><ele>196.5</ele><time>2026-04-25T16:53:56.999Z</time></trkpt><trkpt lat="40.19098739046546" lon="15.041402543137206"><ele>194.0</ele><time>2026-04-25T16:53:57.999Z</time></trkpt><trkpt lat="40.19082417482982" lon="15.041389655289919"><ele>196.66666666666669</ele><time>2026-04-25T16:53:58.999Z</time></trkpt><trkpt lat="40.1906393206918" lon="15.04139096071482"><ele>199.33333333333331</ele><time>2026-04-25T16:53:59.999Z</time></trkpt><trkpt lat="40.19046819547435" lon="15.041386269417197"><ele>202.0</ele><time>2026-04-25T16:54:00.999Z</time></trkpt><trkpt lat="40.19033580151539" lon="15.041348564064139"><ele>202.0</ele><time>2026-04-25T16:54:01.999Z</time></trkpt><trkpt lat="40.19024277547978" lon="15.041319123673976"><ele>202.0</ele><time>2026-04-25T16:54:02.999Z</time></trkpt><trkpt lat="40.19018003055364" lon="15.041298162628578"><ele>202.0</ele><time>2026-04-25T16:54:03.999Z</time></trkpt><trkpt lat="40.19008992687499" lon="15.041338791249233"><ele>202.0</ele><time>2026-04-25T16:54:05.999Z</time></trkpt><trkpt lat="40.190094848017196" lon="15.041464487629169"><ele>202.0</ele><time>2026-04-25T16:54:06.999Z</time></trkpt><trkpt lat="40.19020414872293" lon="15.04150634001898"><ele>202.0</ele><time>2026-04-25T16:54:07.999Z</time></trkpt><trkpt lat="40.19029245753093" lon="15.041517096541579"><ele>202.0</ele><time>2026-04-25T16:54:08.999Z</time></trkpt><trkpt lat="40.19038047390275" lon="15.041534970360242"><ele>202.0</ele><time>2026-04-25T16:54:09.999Z</time></trkpt><trkpt lat="40.19048261063691" lon="15.04155482682757"><ele>202.0</ele><time>2026-04-25T16:54:10.999Z</time></trkpt><trkpt lat="40.190609213680574" lon="15.041581120035"><ele>202.0</ele><time>2026-04-25T16:54:11.999Z</time></trkpt><trkpt lat="40.19073543901951" lon="15.041602532420667"><ele>206.0</ele><time>2026-04-25T16:54:12.999Z</time></trkpt><trkpt lat="40.19083719432451" lon="15.041640642948998"><ele>210.0</ele><time>2026-04-25T16:54:13.999Z</time></trkpt><trkpt lat="40.190914133308546" lon="15.041708470780248"><ele>214.0</ele><time>2026-04-25T16:54:14.999Z</time></trkpt><trkpt lat="40.19097665133333" lon="15.04179528973977"><ele>218.0</ele><time>2026-04-25T16:54:15.999Z</time></trkpt><trkpt lat="40.19102808316192" lon="15.041941145507348"><ele>222.0</ele><time>2026-04-25T16:54:16.999Z</time></trkpt><trkpt lat="40.19111438221795" lon="15.042120237230334"><ele>222.0</ele><time>2026-04-25T16:54:17.999Z</time></trkpt><trkpt lat="40.19123509778939" lon="15.042294811471374"><ele>222.0</ele><time>2026-04-25T16:54:18.999Z</time></trkpt><trkpt lat="40.19133404150069" lon="15.042479677997836"><ele>222.0</ele><time>2026-04-25T16:54:19.999Z</time></trkpt><trkpt lat="40.19146676764612" lon="15.042629592881841"><ele>224.33333333333331</ele><time>2026-04-25T16:54:20.999Z</time></trkpt><trkpt lat="40.19161611302832" lon="15.042749268906876"><ele>226.66666666666666</ele><time>2026-04-25T16:54:21.999Z</time></trkpt><trkpt lat="40.19176530282836" lon="15.042856947092384"><ele>229.0</ele><time>2026-04-25T16:54:22.999Z</time></trkpt><trkpt lat="40.19193821962062" lon="15.042952171153576"><ele>229.0</ele><time>2026-04-25T16:54:23.999Z</time></trkpt><trkpt lat="40.192100701917184" lon="15.043059258613091"><ele>229.0</ele><time>2026-04-25T16:54:24.999Z</time></trkpt><trkpt lat="40.19225784949709" lon="15.043143963233115"><ele>229.0</ele><time>2026-04-25T16:54:25.999Z</time></trkpt><trkpt lat="40.192395789980495" lon="15.043214339638137"><ele>226.5</ele><time>2026-04-25T16:54:26.999Z</time></trkpt><trkpt lat="40.192524165545024" lon="15.04326618261572"><ele>224.0</ele><time>2026-04-25T16:54:27.999Z</time></trkpt><trkpt lat="40.19265168147725" lon="15.043275802853584"><ele>221.5</ele><time>2026-04-25T16:54:28.999Z</time></trkpt><trkpt lat="40.19278992775254" lon="15.043314652405893"><ele>219.0</ele><time>2026-04-25T16:54:29.999Z</time></trkpt><trkpt lat="40.192955991652916" lon="15.043306536828911"><ele>219.0</ele><time>2026-04-25T16:54:30.999Z</time></trkpt><trkpt lat="40.19311859647104" lon="15.043294862737696"><ele>219.0</ele><time>2026-04-25T16:54:31.999Z</time></trkpt><trkpt lat="40.19327526317561" lon="15.043279747761964"><ele>219.0</ele><time>2026-04-25T16:54:32.999Z</time></trkpt><trkpt lat="40.1934357741973" lon="15.04324727345549"><ele>219.5</ele><time>2026-04-25T16:54:33.999Z</time></trkpt><trkpt lat="40.19359197869742" lon="15.04322658517812"><ele>220.0</ele><time>2026-04-25T16:54:34.999Z</time></trkpt><trkpt lat="40.19373569701901" lon="15.043195857702289"><ele>220.5</ele><time>2026-04-25T16:54:35.999Z</time></trkpt><trkpt lat="40.19386192399062" lon="15.043171827330989"><ele>221.0</ele><time>2026-04-25T16:54:36.999Z</time></trkpt><trkpt lat="40.19397598156473" lon="15.043158247770135"><ele>225.25</ele><time>2026-04-25T16:54:37.999Z</time></trkpt><trkpt lat="40.19408316078517" lon="15.043144743071004"><ele>229.5</ele><time>2026-04-25T16:54:38.999Z</time></trkpt><trkpt lat="40.194176324549225" lon="15.043090353331674"><ele>233.75</ele><time>2026-04-25T16:54:39.999Z</time></trkpt><trkpt lat="40.19425939195089" lon="15.04296728653075"><ele>238.0</ele><time>2026-04-25T16:54:40.999Z</time></trkpt><trkpt lat="40.19432073943477" lon="15.042818643412371"><ele>238.0</ele><time>2026-04-25T16:54:41.999Z</time></trkpt><trkpt lat="40.194373882869584" lon="15.04271125957996"><ele>238.0</ele><time>2026-04-25T16:54:43Z</time></trkpt><trkpt lat="40.1944410197071" lon="15.042631778239405"><ele>238.0</ele><time>2026-04-25T16:54:44Z</time></trkpt><trkpt lat="40.19452218886059" lon="15.04258947914951"><ele>238.0</ele><time>2026-04-25T16:54:45Z</time></trkpt><trkpt lat="40.194617783686695" lon="15.0425143649491"><ele>238.0</ele><time>2026-04-25T16:54:46Z</time></trkpt><trkpt lat="40.194744877764734" lon="15.042583022760011"><ele>237.5</ele><time>2026-04-25T16:54:47Z</time></trkpt><trkpt lat="40.19488834017461" lon="15.04256408422712"><ele>237.0</ele><time>2026-04-25T16:54:48Z</time></trkpt><trkpt lat="40.195032438963" lon="15.042493818743358"><ele>236.5</ele><time>2026-04-25T16:54:49Z</time></trkpt><trkpt lat="40.19515168491292" lon="15.04244117422066"><ele>236.0</ele><time>2026-04-25T16:54:50Z</time></trkpt><trkpt lat="40.19528803262887" lon="15.042476546494052"><ele>240.60000000000002</ele><time>2026-04-25T16:54:51Z</time></trkpt><trkpt lat="40.1954218951103" lon="15.042494931886539"><ele>245.20000000000002</ele><time>2026-04-25T16:54:52Z</time></trkpt><trkpt lat="40.195500849344384" lon="15.042519190184583"><ele>249.79999999999998</ele><time>2026-04-25T16:54:53Z</time></trkpt><trkpt lat="40.195554422766435" lon="15.042582272655686"><ele>254.39999999999998</ele><time>2026-04-25T16:54:55Z</time></trkpt><trkpt lat="40.19549780157141" lon="15.042653533162392"><ele>259.0</ele><time>2026-04-25T16:54:57Z</time></trkpt><trkpt lat="40.195355333769626" lon="15.042732502526956"><ele>259.0</ele><time>2026-04-25T16:54:59Z</time></trkpt><trkpt lat="40.1952396539533" lon="15.042775748774101"><ele>259.0</ele><time>2026-04-25T16:55:00Z</time></trkpt><trkpt lat="40.19510566849751" lon="15.04282975601655"><ele>259.0</ele><time>2026-04-25T16:55:01Z</time></trkpt><trkpt lat="40.19497809275042" lon="15.04289477058702"><ele>259.0</ele><time>2026-04-25T16:55:02Z</time></trkpt><trkpt lat="40.19484999544197" lon="15.042967249225912"><ele>261.25</ele><time>2026-04-25T16:55:03Z</time></trkpt><trkpt lat="40.194721714436" lon="15.043036460708581"><ele>263.5</ele><time>2026-04-25T16:55:04Z</time></trkpt><trkpt lat="40.19460311766566" lon="15.043124462761051"><ele>265.75</ele><time>2026-04-25T16:55:05Z</time></trkpt><trkpt lat="40.19449051452812" lon="15.043269655842487"><ele>268.0</ele><time>2026-04-25T16:55:06Z</time></trkpt><trkpt lat="40.19435992548422" lon="15.04343633064291"><ele>268.0</ele><time>2026-04-25T16:55:07Z</time></trkpt><trkpt lat="40.19424678197257" lon="15.043593732368388"><ele>268.0</ele><time>2026-04-25T16:55:08Z</time></trkpt><trkpt lat="40.19411749832781" lon="15.043729399088901"><ele>268.0</ele><time>2026-04-25T16:55:09Z</time></trkpt><trkpt lat="40.19396792120994" lon="15.043844015928649"><ele>263.3333333333333</ele><time>2026-04-25T16:55:10Z</time></trkpt><trkpt lat="40.19381479407619" lon="15.04395446964902"><ele>258.6666666666667</ele><time>2026-04-25T16:55:11Z</time></trkpt><trkpt lat="40.19365612253712" lon="15.04405336702"><ele>254.0</ele><time>2026-04-25T16:55:12Z</time></trkpt><trkpt lat="40.193498350416675" lon="15.04415759406176"><ele>257.75</ele><time>2026-04-25T16:55:13Z</time></trkpt><trkpt lat="40.193351621040954" lon="15.044226767908004"><ele>261.5</ele><time>2026-04-25T16:55:14Z</time></trkpt><trkpt lat="40.193217329446135" lon="15.044270804669464"><ele>265.25</ele><time>2026-04-25T16:55:15Z</time></trkpt><trkpt lat="40.193112669698976" lon="15.044328525805328"><ele>269.0</ele><time>2026-04-25T16:55:16Z</time></trkpt><trkpt lat="40.192997993589536" lon="15.04436699107096"><ele>269.0</ele><time>2026-04-25T16:55:17Z</time></trkpt><trkpt lat="40.19289642225469" lon="15.044459005931934"><ele>269.0</ele><time>2026-04-25T16:55:18Z</time></trkpt><trkpt lat="40.192826896889244" lon="15.044568212765135"><ele>269.0</ele><time>2026-04-25T16:55:19Z</time></trkpt><trkpt lat="40.19278822762903" lon="15.044692475950717"><ele>269.0</ele><time>2026-04-25T16:55:20Z</time></trkpt><trkpt lat="40.19278603985775" lon="15.044849592542656"><ele>269.5</ele><time>2026-04-25T16:55:21Z</time></trkpt><trkpt lat="40.19284985004886" lon="15.045010634533378"><ele>270.0</ele><time>2026-04-25T16:55:22Z</time></trkpt><trkpt lat="40.192934751282536" lon="15.045180267815724"><ele>270.5</ele><time>2026-04-25T16:55:23Z</time></trkpt><trkpt lat="40.19295643129163" lon="15.045345162520709"><ele>271.0</ele><time>2026-04-25T16:55:24Z</time></trkpt><trkpt lat="40.19296641798861" lon="15.045540585164101"><ele>271.0</ele><time>2026-04-25T16:55:25Z</time></trkpt><trkpt lat="40.19298116017239" lon="15.045734330896943"><ele>271.0</ele><time>2026-04-25T16:55:26Z</time></trkpt><trkpt lat="40.19299346563609" lon="15.045906410235213"><ele>271.0</ele><time>2026-04-25T16:55:27Z</time></trkpt><trkpt lat="40.19300556552999" lon="15.046084331009945"><ele>271.0</ele><time>2026-04-25T16:55:28Z</time></trkpt><trkpt lat="40.19301671833204" lon="15.04623880457421"><ele>272.8</ele><time>2026-04-25T16:55:29Z</time></trkpt><trkpt lat="40.19302293565226" lon="15.046351197438925"><ele>274.6</ele><time>2026-04-25T16:55:30Z</time></trkpt><trkpt lat="40.19300004024071" lon="15.046476489565766"><ele>276.4</ele><time>2026-04-25T16:55:32Z</time></trkpt><trkpt lat="40.192882832863496" lon="15.046539438037119"><ele>278.2</ele><time>2026-04-25T16:55:34Z</time></trkpt><trkpt lat="40.192775936042665" lon="15.046521081578826"><ele>280.0</ele><time>2026-04-25T16:55:35Z</time></trkpt><trkpt lat="40.192642926009235" lon="15.046476732798045"><ele>280.0</ele><time>2026-04-25T16:55:36Z</time></trkpt><trkpt lat="40.19252729562308" lon="15.04647050866692"><ele>280.0</ele><time>2026-04-25T16:55:37Z</time></trkpt><trkpt lat="40.192426933347136" lon="15.046520704097857"><ele>280.0</ele><time>2026-04-25T16:55:38Z</time></trkpt><trkpt lat="40.19232804183412" lon="15.046623637017785"><ele>280.0</ele><time>2026-04-25T16:55:39Z</time></trkpt><trkpt lat="40.19222976402795" lon="15.046745052090463"><ele>280.75</ele><time>2026-04-25T16:55:40Z</time></trkpt><trkpt lat="40.192151193122626" lon="15.04690694417366"><ele>281.5</ele><time>2026-04-25T16:55:41Z</time></trkpt><trkpt lat="40.192094644933434" lon="15.047088867112738"><ele>282.25</ele><time>2026-04-25T16:55:42Z</time></trkpt><trkpt lat="40.19204583791642" lon="15.047223758034763"><ele>283.0</ele><time>2026-04-25T16:55:43Z</time></trkpt><trkpt lat="40.192018299398605" lon="15.047355647354548"><ele>284.5</ele><time>2026-04-25T16:55:44Z</time></trkpt><trkpt lat="40.19204379175925" lon="15.04750982205233"><ele>286.0</ele><time>2026-04-25T16:55:45Z</time></trkpt><trkpt lat="40.192131639170846" lon="15.04765868203044"><ele>287.5</ele><time>2026-04-25T16:55:46Z</time></trkpt><trkpt lat="40.19222936717176" lon="15.047792956424358"><ele>289.0</ele><time>2026-04-25T16:55:47Z</time></trkpt><trkpt lat="40.19229783976416" lon="15.047912259293978"><ele>289.0</ele><time>2026-04-25T16:55:47.999Z</time></trkpt><trkpt lat="40.192337144105096" lon="15.048004048299441"><ele>289.0</ele><time>2026-04-25T16:55:48.999Z</time></trkpt><trkpt lat="40.19228684419494" lon="15.048146491991247"><ele>289.0</ele><time>2026-04-25T16:55:50.999Z</time></trkpt><trkpt lat="40.19221689179994" lon="15.048206489551456"><ele>289.0</ele><time>2026-04-25T16:55:51.999Z</time></trkpt><trkpt lat="40.19213442194598" lon="15.048309099282655"><ele>289.0</ele><time>2026-04-25T16:55:52.999Z</time></trkpt><trkpt lat="40.19204185110832" lon="15.048432115382905"><ele>290.2</ele><time>2026-04-25T16:55:53.999Z</time></trkpt><trkpt lat="40.19197361399713" lon="15.04855614261939"><ele>291.4</ele><time>2026-04-25T16:55:54.999Z</time></trkpt><trkpt lat="40.19194194743053" lon="15.048679070654456"><ele>292.6</ele><time>2026-04-25T16:55:55.999Z</time></trkpt><trkpt lat="40.19193984673852" lon="15.048798627487642"><ele>293.8</ele><time>2026-04-25T16:55:56.999Z</time></trkpt><trkpt lat="40.19202979087108" lon="15.048936034401674"><ele>295.0</ele><time>2026-04-25T16:55:57.999Z</time></trkpt><trkpt lat="40.19213747969583" lon="15.049047152414397"><ele>294.5</ele><time>2026-04-25T16:55:58.999Z</time></trkpt><trkpt lat="40.19225078315821" lon="15.049176020052705"><ele>294.0</ele><time>2026-04-25T16:55:59.999Z</time></trkpt><trkpt lat="40.192368057292924" lon="15.049308279266102"><ele>293.5</ele><time>2026-04-25T16:56:00.999Z</time></trkpt><trkpt lat="40.192453310345115" lon="15.04940649947501"><ele>293.0</ele><time>2026-04-25T16:56:01.999Z</time></trkpt><trkpt lat="40.19249217763694" lon="15.049476651096914"><ele>293.0</ele><time>2026-04-25T16:56:02.999Z</time></trkpt><trkpt lat="40.19247974025149" lon="15.049643575486591"><ele>293.0</ele><time>2026-04-25T16:56:04.999Z</time></trkpt><trkpt lat="40.192399324285226" lon="15.049752121925206"><ele>293.0</ele><time>2026-04-25T16:56:05.999Z</time></trkpt><trkpt lat="40.19231625136498" lon="15.049900418021354"><ele>293.0</ele><time>2026-04-25T16:56:06.999Z</time></trkpt><trkpt lat="40.19223830756515" lon="15.05004814950076"><ele>298.0</ele><time>2026-04-25T16:56:07.999Z</time></trkpt><trkpt lat="40.192167659979994" lon="15.050210695656515"><ele>303.0</ele><time>2026-04-25T16:56:08.999Z</time></trkpt><trkpt lat="40.1921219426286" lon="15.050371287287309"><ele>308.0</ele><time>2026-04-25T16:56:09.999Z</time></trkpt><trkpt lat="40.19209125038886" lon="15.05046525605391"><ele>313.0</ele><time>2026-04-25T16:56:10.999Z</time></trkpt><trkpt lat="40.192000638427785" lon="15.050560195417741"><ele>313.0</ele><time>2026-04-25T16:56:12.999Z</time></trkpt><trkpt lat="40.19190985262043" lon="15.050494192099931"><ele>313.0</ele><time>2026-04-25T16:56:13.999Z</time></trkpt><trkpt lat="40.19179152576175" lon="15.050445490648993"><ele>313.0</ele><time>2026-04-25T16:56:14.999Z</time></trkpt><trkpt lat="40.19166642423933" lon="15.050409000602878"><ele>313.0</ele><time>2026-04-25T16:56:15.999Z</time></trkpt><trkpt lat="40.19153412756506" lon="15.05043718717357"><ele>310.66666666666663</ele><time>2026-04-25T16:56:16.999Z</time></trkpt><trkpt lat="40.191374926951774" lon="15.050505425844424"><ele>308.3333333333333</ele><time>2026-04-25T16:56:17.999Z</time></trkpt><trkpt lat="40.19121724525035" lon="15.050570133541072"><ele>306.0</ele><time>2026-04-25T16:56:18.999Z</time></trkpt><trkpt lat="40.19108418461027" lon="15.050618523395578"><ele>306.0</ele><time>2026-04-25T16:56:19.999Z</time></trkpt><trkpt lat="40.19094984766573" lon="15.050699887162168"><ele>306.0</ele><time>2026-04-25T16:56:20.999Z</time></trkpt><trkpt lat="40.19081993167497" lon="15.05083607189613"><ele>306.0</ele><time>2026-04-25T16:56:21.999Z</time></trkpt><trkpt lat="40.19069427901327" lon="15.051015299474809"><ele>310.6666666666667</ele><time>2026-04-25T16:56:22.999Z</time></trkpt><trkpt lat="40.19055591789792" lon="15.05117151688779"><ele>315.33333333333337</ele><time>2026-04-25T16:56:23.999Z</time></trkpt><trkpt lat="40.19045174393484" lon="15.05132198868518"><ele>320.0</ele><time>2026-04-25T16:56:24.999Z</time></trkpt><trkpt lat="40.19035452594339" lon="15.051451200391536"><ele>320.0</ele><time>2026-04-25T16:56:25.999Z</time></trkpt><trkpt lat="40.190245185748225" lon="15.051545172151078"><ele>320.0</ele><time>2026-04-25T16:56:26.999Z</time></trkpt><trkpt lat="40.19010956249627" lon="15.05160194394223"><ele>320.0</ele><time>2026-04-25T16:56:27.999Z</time></trkpt><trkpt lat="40.189978944695646" lon="15.051675263935865"><ele>320.0</ele><time>2026-04-25T16:56:28.999Z</time></trkpt><trkpt lat="40.18986183807715" lon="15.051726068632309"><ele>319.6</ele><time>2026-04-25T16:56:29.999Z</time></trkpt><trkpt lat="40.18977144773512" lon="15.051815393379158"><ele>319.2</ele><time>2026-04-25T16:56:30.999Z</time></trkpt><trkpt lat="40.18969459958115" lon="15.051918471462853"><ele>318.8</ele><time>2026-04-25T16:56:31.999Z</time></trkpt><trkpt lat="40.18966151447649" lon="15.052044232291781"><ele>318.4</ele><time>2026-04-25T16:56:32.999Z</time></trkpt><trkpt lat="40.18965280846017" lon="15.052149790154566"><ele>318.0</ele><time>2026-04-25T16:56:33.999Z</time></trkpt><trkpt lat="40.18971944623605" lon="15.052291699845393"><ele>329.3333333333333</ele><time>2026-04-25T16:56:34.999Z</time></trkpt><trkpt lat="40.18984404441799" lon="15.052408521623176"><ele>340.66666666666663</ele><time>2026-04-25T16:56:35.999Z</time></trkpt><trkpt lat="40.1899719354124" lon="15.05252941357533"><ele>352.0</ele><time>2026-04-25T16:56:36.999Z</time></trkpt><trkpt lat="40.1901049150975" lon="15.052645747075333"><ele>353.25</ele><time>2026-04-25T16:56:37.999Z</time></trkpt><trkpt lat="40.19020795554255" lon="15.052745576478848"><ele>354.5</ele><time>2026-04-25T16:56:38.999Z</time></trkpt><trkpt lat="40.190293523680644" lon="15.0528379363122"><ele>355.75</ele><time>2026-04-25T16:56:39.999Z</time></trkpt><trkpt lat="40.190376517791535" lon="15.052934838503914"><ele>357.0</ele><time>2026-04-25T16:56:40.999Z</time></trkpt><trkpt lat="40.19044826234102" lon="15.053039778551291"><ele>357.0</ele><time>2026-04-25T16:56:41.999Z</time></trkpt><trkpt lat="40.1905126558707" lon="15.053175416211165"><ele>357.0</ele><time>2026-04-25T16:56:42.999Z</time></trkpt><trkpt lat="40.19058881811069" lon="15.053340584526772"><ele>357.0</ele><time>2026-04-25T16:56:43.999Z</time></trkpt><trkpt lat="40.19065208984097" lon="15.053466458197263"><ele>357.0</ele><time>2026-04-25T16:56:44.999Z</time></trkpt><trkpt lat="40.19069547808558" lon="15.053573052500015"><ele>361.20000000000005</ele><time>2026-04-25T16:56:45.999Z</time></trkpt><trkpt lat="40.19070593480716" lon="15.053667943621955"><ele>365.4</ele><time>2026-04-25T16:56:46.999Z</time></trkpt><trkpt lat="40.19070258860171" lon="15.05379861705558"><ele>369.6</ele><time>2026-04-25T16:56:47.999Z</time></trkpt><trkpt lat="40.19070090471775" lon="15.053979940846505"><ele>373.79999999999995</ele><time>2026-04-25T16:56:49Z</time></trkpt><trkpt lat="40.190703826170925" lon="15.054138547523786"><ele>378.0</ele><time>2026-04-25T16:56:50Z</time></trkpt><trkpt lat="40.1907065590032" lon="15.054286913641281"><ele>378.0</ele><time>2026-04-25T16:56:51Z</time></trkpt><trkpt lat="40.19071873832027" lon="15.054441562318726"><ele>378.0</ele><time>2026-04-25T16:56:52Z</time></trkpt><trkpt lat="40.19075432610758" lon="15.05456940170495"><ele>378.0</ele><time>2026-04-25T16:56:53Z</time></trkpt><trkpt lat="40.19077545905172" lon="15.054673800478287"><ele>378.0</ele><time>2026-04-25T16:56:54Z</time></trkpt><trkpt lat="40.1907842045434" lon="15.054755926530762"><ele>378.0</ele><time>2026-04-25T16:56:55Z</time></trkpt><trkpt lat="40.19079304039655" lon="15.054840664731165"><ele>378.0</ele><time>2026-04-25T16:56:56Z</time></trkpt><trkpt lat="40.19080907616091" lon="15.054943870680178"><ele>378.0</ele><time>2026-04-25T16:56:58Z</time></trkpt><trkpt lat="40.19095321838036" lon="15.054830785693781"><ele>378.0</ele><time>2026-04-25T16:57:01Z</time></trkpt><trkpt lat="40.190932072544136" lon="15.05471552312028"><ele>378.0</ele><time>2026-04-25T16:57:03Z</time></trkpt><trkpt lat="40.190914697100496" lon="15.054586201757042"><ele>378.0</ele><time>2026-04-25T16:57:05Z</time></trkpt><trkpt lat="40.19090535181258" lon="15.054492320159433"><ele>378.0</ele><time>2026-04-25T16:57:06Z</time></trkpt><trkpt lat="40.19088991537811" lon="15.054389003185983"><ele>378.0</ele><time>2026-04-25T16:57:07Z</time></trkpt><trkpt lat="40.19087230607484" lon="15.054261762083977"><ele>378.0</ele><time>2026-04-25T16:57:08Z</time></trkpt><trkpt lat="40.1908559056068" lon="15.054123219572332"><ele>378.0</ele><time>2026-04-25T16:57:09Z</time></trkpt><trkpt lat="40.19084678718902" lon="15.053995504111766"><ele>378.0</ele><time>2026-04-25T16:57:10Z</time></trkpt><trkpt lat="40.19085846528085" lon="15.053854746309487"><ele>378.0</ele><time>2026-04-25T16:57:11Z</time></trkpt><trkpt lat="40.19089341836422" lon="15.053716467173047"><ele>378.4</ele><time>2026-04-25T16:57:12Z</time></trkpt><trkpt lat="40.19093764334252" lon="15.05357387650674"><ele>378.79999999999995</ele><time>2026-04-25T16:57:13Z</time></trkpt><trkpt lat="40.190947000441774" lon="15.053441443713472"><ele>379.2</ele><time>2026-04-25T16:57:14Z</time></trkpt><trkpt lat="40.19092190923694" lon="15.053311832444408"><ele>379.6</ele><time>2026-04-25T16:57:15Z</time></trkpt><trkpt lat="40.19086851335722" lon="15.05318244948088"><ele>380.0</ele><time>2026-04-25T16:57:16Z</time></trkpt><trkpt lat="40.190807357340994" lon="15.053047000593589"><ele>382.25</ele><time>2026-04-25T16:57:17Z</time></trkpt><trkpt lat="40.19075732241117" lon="15.05288585993546"><ele>384.5</ele><time>2026-04-25T16:57:18Z</time></trkpt><trkpt lat="40.19068538429234" lon="15.052719415104894"><ele>386.75</ele><time>2026-04-25T16:57:19Z</time></trkpt><trkpt lat="40.1906050611688" lon="15.052599193249312"><ele>389.0</ele><time>2026-04-25T16:57:20Z</time></trkpt><trkpt lat="40.19053952874575" lon="15.05249808869446"><ele>381.6</ele><time>2026-04-25T16:57:21Z</time></trkpt><trkpt lat="40.19048148415596" lon="15.052405904095192"><ele>374.2</ele><time>2026-04-25T16:57:22Z</time></trkpt><trkpt lat="40.19043782703599" lon="15.052321162700792"><ele>366.8</ele><time>2026-04-25T16:57:23Z</time></trkpt><trkpt lat="40.19041696056849" lon="15.052241796653036"><ele>359.40000000000003</ele><time>2026-04-25T16:57:24Z</time></trkpt><trkpt lat="40.19045932574205" lon="15.05208074024051"><ele>352.0</ele><time>2026-04-25T16:57:26Z</time></trkpt><trkpt lat="40.19054301255519" lon="15.051989219202786"><ele>352.0</ele><time>2026-04-25T16:57:27Z</time></trkpt><trkpt lat="40.19066522316652" lon="15.05190513876719"><ele>352.0</ele><time>2026-04-25T16:57:28Z</time></trkpt><trkpt lat="40.190781674205404" lon="15.051844333472298"><ele>352.0</ele><time>2026-04-25T16:57:29Z</time></trkpt><trkpt lat="40.19091196681225" lon="15.051829590863697"><ele>352.0</ele><time>2026-04-25T16:57:30Z</time></trkpt><trkpt lat="40.19105716505395" lon="15.051802608968593"><ele>352.75</ele><time>2026-04-25T16:57:31Z</time></trkpt><trkpt lat="40.1912027866584" lon="15.051755888750215"><ele>353.5</ele><time>2026-04-25T16:57:32Z</time></trkpt><trkpt lat="40.19134182812685" lon="15.051709305063746"><ele>354.25</ele><time>2026-04-25T16:57:33Z</time></trkpt><trkpt lat="40.19145836122403" lon="15.051624674506467"><ele>355.0</ele><time>2026-04-25T16:57:34Z</time></trkpt><trkpt lat="40.19155801685944" lon="15.051530352243246"><ele>355.0</ele><time>2026-04-25T16:57:35Z</time></trkpt><trkpt lat="40.19164186374029" lon="15.051458118599411"><ele>355.0</ele><time>2026-04-25T16:57:36Z</time></trkpt><trkpt lat="40.191717863409394" lon="15.05140944186309"><ele>355.0</ele><time>2026-04-25T16:57:37Z</time></trkpt><trkpt lat="40.19179697375612" lon="15.05139663599263"><ele>355.0</ele><time>2026-04-25T16:57:38Z</time></trkpt><trkpt lat="40.191893513012104" lon="15.05146345471631"><ele>355.0</ele><time>2026-04-25T16:57:39Z</time></trkpt><trkpt lat="40.19199040391913" lon="15.051561495435934"><ele>362.75</ele><time>2026-04-25T16:57:40Z</time></trkpt><trkpt lat="40.19209697962796" lon="15.051663932506496"><ele>370.5</ele><time>2026-04-25T16:57:41Z</time></trkpt><trkpt lat="40.19220102354569" lon="15.05176054089991"><ele>378.25</ele><time>2026-04-25T16:57:42Z</time></trkpt><trkpt lat="40.19226393680102" lon="15.051880442270882"><ele>386.0</ele><time>2026-04-25T16:57:43Z</time></trkpt><trkpt lat="40.192331922044474" lon="15.052018182689947"><ele>386.0</ele><time>2026-04-25T16:57:44Z</time></trkpt><trkpt lat="40.19239997520912" lon="15.052141183522453"><ele>386.0</ele><time>2026-04-25T16:57:45Z</time></trkpt><trkpt lat="40.19246576950385" lon="15.052241881132563"><ele>386.0</ele><time>2026-04-25T16:57:46Z</time></trkpt><trkpt lat="40.19253163549958" lon="15.052316543983183"><ele>386.0</ele><time>2026-04-25T16:57:47Z</time></trkpt><trkpt lat="40.19259933214511" lon="15.052369130978295"><ele>386.0</ele><time>2026-04-25T16:57:48Z</time></trkpt><trkpt lat="40.19271650657697" lon="15.052340536479374"><ele>386.0</ele><time>2026-04-25T16:57:49Z</time></trkpt><trkpt lat="40.192807289719056" lon="15.052239149624297"><ele>386.0</ele><time>2026-04-25T16:57:50Z</time></trkpt><trkpt lat="40.192872718264645" lon="15.052109085098646"><ele>386.0</ele><time>2026-04-25T16:57:51Z</time></trkpt><trkpt lat="40.19290757957552" lon="15.051952363393802"><ele>386.0</ele><time>2026-04-25T16:57:52Z</time></trkpt><trkpt lat="40.19292608746978" lon="15.051774278428006"><ele>380.25</ele><time>2026-04-25T16:57:53Z</time></trkpt><trkpt lat="40.19294517971959" lon="15.05158708424023"><ele>374.5</ele><time>2026-04-25T16:57:54Z</time></trkpt><trkpt lat="40.192975165604174" lon="15.051398247786894"><ele>368.75</ele><time>2026-04-25T16:57:55Z</time></trkpt><trkpt lat="40.19301080356768" lon="15.051212669029882"><ele>363.0</ele><time>2026-04-25T16:57:55.999Z</time></trkpt><trkpt lat="40.193042347849776" lon="15.051027621684492"><ele>363.0</ele><time>2026-04-25T16:57:56.999Z</time></trkpt><trkpt lat="40.193069472925316" lon="15.050869562442948"><ele>363.0</ele><time>2026-04-25T16:57:57.999Z</time></trkpt><trkpt lat="40.19309976578299" lon="15.050732265034828"><ele>363.0</ele><time>2026-04-25T16:57:58.999Z</time></trkpt><trkpt lat="40.1931550431092" lon="15.050591106317084"><ele>363.0</ele><time>2026-04-25T16:57:59.999Z</time></trkpt><trkpt lat="40.19324397472453" lon="15.050447517408614"><ele>369.3333333333333</ele><time>2026-04-25T16:58:00.999Z</time></trkpt><trkpt lat="40.19335987919392" lon="15.05031614343984"><ele>375.66666666666663</ele><time>2026-04-25T16:58:01.999Z</time></trkpt><trkpt lat="40.193487691314836" lon="15.050191411856563"><ele>382.0</ele><time>2026-04-25T16:58:02.999Z</time></trkpt><trkpt lat="40.193632425891835" lon="15.050057913495008"><ele>385.0</ele><time>2026-04-25T16:58:03.999Z</time></trkpt><trkpt lat="40.19378824712887" lon="15.04992379495914"><ele>388.0</ele><time>2026-04-25T16:58:04.999Z</time></trkpt><trkpt lat="40.193937206517475" lon="15.049802136477677"><ele>391.0</ele><time>2026-04-25T16:58:05.999Z</time></trkpt><trkpt lat="40.19407343585063" lon="15.04968332304745"><ele>391.0</ele><time>2026-04-25T16:58:06.999Z</time></trkpt><trkpt lat="40.19419438630037" lon="15.049568333866793"><ele>391.0</ele><time>2026-04-25T16:58:07.999Z</time></trkpt><trkpt lat="40.194314555177314" lon="15.04944736329787"><ele>391.0</ele><time>2026-04-25T16:58:08.999Z</time></trkpt><trkpt lat="40.19444310169806" lon="15.049319975314534"><ele>391.0</ele><time>2026-04-25T16:58:09.999Z</time></trkpt><trkpt lat="40.19456965964517" lon="15.04918516374944"><ele>391.0</ele><time>2026-04-25T16:58:10.999Z</time></trkpt><trkpt lat="40.19468904094458" lon="15.049046375608405"><ele>391.0</ele><time>2026-04-25T16:58:11.999Z</time></trkpt><trkpt lat="40.194794893560214" lon="15.048918268096564"><ele>394.0</ele><time>2026-04-25T16:58:12.999Z</time></trkpt><trkpt lat="40.19489275085349" lon="15.048800172545482"><ele>397.0</ele><time>2026-04-25T16:58:13.999Z</time></trkpt><trkpt lat="40.19497869672465" lon="15.04868628717149"><ele>400.0</ele><time>2026-04-25T16:58:14.999Z</time></trkpt><trkpt lat="40.19504249491854" lon="15.048552879239914"><ele>403.0</ele><time>2026-04-25T16:58:15.999Z</time></trkpt><trkpt lat="40.19506984965565" lon="15.04838633560915"><ele>401.33333333333337</ele><time>2026-04-25T16:58:16.999Z</time></trkpt><trkpt lat="40.195071096052516" lon="15.048220184461249"><ele>399.6666666666667</ele><time>2026-04-25T16:58:17.999Z</time></trkpt><trkpt lat="40.195073094308604" lon="15.048105324992015"><ele>398.0</ele><time>2026-04-25T16:58:18.999Z</time></trkpt><trkpt lat="40.19509304621064" lon="15.048018261429963"><ele>396.33333333333337</ele><time>2026-04-25T16:58:19.999Z</time></trkpt><trkpt lat="40.19513829177483" lon="15.047944395660503"><ele>394.6666666666667</ele><time>2026-04-25T16:58:20.999Z</time></trkpt><trkpt lat="40.195209682953774" lon="15.047899758857408"><ele>393.0</ele><time>2026-04-25T16:58:21.999Z</time></trkpt><trkpt lat="40.19528715483976" lon="15.047916754224454"><ele>393.0</ele><time>2026-04-25T16:58:22.999Z</time></trkpt><trkpt lat="40.195310827224034" lon="15.048048367394802"><ele>393.0</ele><time>2026-04-25T16:58:23.999Z</time></trkpt><trkpt lat="40.19536495208678" lon="15.04814792339924"><ele>393.0</ele><time>2026-04-25T16:58:24.999Z</time></trkpt><trkpt lat="40.195447667624165" lon="15.048286293429465"><ele>393.0</ele><time>2026-04-25T16:58:25.999Z</time></trkpt><trkpt lat="40.195534178511025" lon="15.048431012527024"><ele>395.0</ele><time>2026-04-25T16:58:26.999Z</time></trkpt><trkpt lat="40.195609063538804" lon="15.04855222056849"><ele>397.0</ele><time>2026-04-25T16:58:27.999Z</time></trkpt><trkpt lat="40.19567617605961" lon="15.048660480670705"><ele>399.0</ele><time>2026-04-25T16:58:28.999Z</time></trkpt><trkpt lat="40.195728836870146" lon="15.04874661682675"><ele>401.0</ele><time>2026-04-25T16:58:29.999Z</time></trkpt><trkpt lat="40.1957777423726" lon="15.04882661124785"><ele>403.0</ele><time>2026-04-25T16:58:30.999Z</time></trkpt><trkpt lat="40.195766732967385" lon="15.048926037310306"><ele>403.25</ele><time>2026-04-25T16:58:31.999Z</time></trkpt><trkpt lat="40.19574378344591" lon="15.049071735374067"><ele>403.5</ele><time>2026-04-25T16:58:32.999Z</time></trkpt><trkpt lat="40.195715564197116" lon="15.049250641079958"><ele>403.75</ele><time>2026-04-25T16:58:33.999Z</time></trkpt><trkpt lat="40.19568726865089" lon="15.049430031766436"><ele>404.0</ele><time>2026-04-25T16:58:34.999Z</time></trkpt><trkpt lat="40.195665751034504" lon="15.049624371270836"><ele>406.66666666666663</ele><time>2026-04-25T16:58:35.999Z</time></trkpt><trkpt lat="40.19566758362926" lon="15.049819914747918"><ele>409.33333333333337</ele><time>2026-04-25T16:58:36.999Z</time></trkpt><trkpt lat="40.19571450262238" lon="15.050039348834826"><ele>412.0</ele><time>2026-04-25T16:58:37.999Z</time></trkpt><trkpt lat="40.195781322207715" lon="15.050250757969653"><ele>412.0</ele><time>2026-04-25T16:58:38.999Z</time></trkpt><trkpt lat="40.195835163391706" lon="15.05041730750233"><ele>412.0</ele><time>2026-04-25T16:58:39.999Z</time></trkpt><trkpt lat="40.19587016744505" lon="15.050555081961283"><ele>412.0</ele><time>2026-04-25T16:58:40.999Z</time></trkpt><trkpt lat="40.195886471024544" lon="15.050739034079703"><ele>412.0</ele><time>2026-04-25T16:58:41.999Z</time></trkpt><trkpt lat="40.19595803472563" lon="15.050938283572211"><ele>413.25</ele><time>2026-04-25T16:58:42.999Z</time></trkpt><trkpt lat="40.195986358881136" lon="15.051138403397744"><ele>414.5</ele><time>2026-04-25T16:58:43.999Z</time></trkpt><trkpt lat="40.1960248910268" lon="15.051322154771297"><ele>415.75</ele><time>2026-04-25T16:58:44.999Z</time></trkpt><trkpt lat="40.196082242554354" lon="15.051492421125278"><ele>417.0</ele><time>2026-04-25T16:58:45.999Z</time></trkpt><trkpt lat="40.196157449538134" lon="15.051662155511305"><ele>418.33333333333337</ele><time>2026-04-25T16:58:46.999Z</time></trkpt><trkpt lat="40.19624487603992" lon="15.051818002926243"><ele>419.6666666666667</ele><time>2026-04-25T16:58:47.999Z</time></trkpt><trkpt lat="40.19635506697099" lon="15.05195915429526"><ele>421.0</ele><time>2026-04-25T16:58:48.999Z</time></trkpt><trkpt lat="40.19647808913219" lon="15.052093681446046"><ele>418.5</ele><time>2026-04-25T16:58:49.999Z</time></trkpt><trkpt lat="40.19656522167195" lon="15.052230502558325"><ele>416.0</ele><time>2026-04-25T16:58:50.999Z</time></trkpt><trkpt lat="40.19663966652571" lon="15.052386106833486"><ele>413.5</ele><time>2026-04-25T16:58:51.999Z</time></trkpt><trkpt lat="40.196703454303375" lon="15.052523503172466"><ele>411.0</ele><time>2026-04-25T16:58:52.999Z</time></trkpt><trkpt lat="40.19675335998527" lon="15.052624276829162"><ele>411.0</ele><time>2026-04-25T16:58:53.999Z</time></trkpt><trkpt lat="40.196719957094146" lon="15.05275815766981"><ele>411.0</ele><time>2026-04-25T16:58:55Z</time></trkpt><trkpt lat="40.19674556909535" lon="15.052906372670767"><ele>411.0</ele><time>2026-04-25T16:58:56Z</time></trkpt><trkpt lat="40.19674125482287" lon="15.053094463845248"><ele>411.0</ele><time>2026-04-25T16:58:57Z</time></trkpt><trkpt lat="40.19674816021" lon="15.053281660125384"><ele>414.0</ele><time>2026-04-25T16:58:58Z</time></trkpt><trkpt lat="40.19675270583051" lon="15.053440863954613"><ele>417.0</ele><time>2026-04-25T16:58:59Z</time></trkpt><trkpt lat="40.19675741238365" lon="15.0535837815723"><ele>420.0</ele><time>2026-04-25T16:59:00Z</time></trkpt><trkpt lat="40.19677348219102" lon="15.053698596439984"><ele>423.0</ele><time>2026-04-25T16:59:01Z</time></trkpt><trkpt lat="40.19684327334689" lon="15.053805411421799"><ele>426.0</ele><time>2026-04-25T16:59:02Z</time></trkpt><trkpt lat="40.19699060698812" lon="15.053828763738355"><ele>426.0</ele><time>2026-04-25T16:59:03Z</time></trkpt><trkpt lat="40.19711853296549" lon="15.053850347150803"><ele>426.0</ele><time>2026-04-25T16:59:04Z</time></trkpt><trkpt lat="40.19721199300784" lon="15.053896496363896"><ele>426.0</ele><time>2026-04-25T16:59:05Z</time></trkpt><trkpt lat="40.1972713046569" lon="15.053951312557276"><ele>426.0</ele><time>2026-04-25T16:59:06Z</time></trkpt><trkpt lat="40.19731879670601" lon="15.054024684383338"><ele>426.0</ele><time>2026-04-25T16:59:07Z</time></trkpt><trkpt lat="40.197350717763214" lon="15.054140669575581"><ele>422.5</ele><time>2026-04-25T16:59:08Z</time></trkpt><trkpt lat="40.19736045141677" lon="15.054276683217735"><ele>419.0</ele><time>2026-04-25T16:59:09Z</time></trkpt><trkpt lat="40.19737159906392" lon="15.054434940959164"><ele>415.5</ele><time>2026-04-25T16:59:10Z</time></trkpt><trkpt lat="40.1973917517359" lon="15.05462867884616"><ele>412.0</ele><time>2026-04-25T16:59:11Z</time></trkpt><trkpt lat="40.19743972011157" lon="15.054819443252455"><ele>417.33333333333337</ele><time>2026-04-25T16:59:12Z</time></trkpt><trkpt lat="40.197512575230895" lon="15.055001366333533"><ele>422.66666666666663</ele><time>2026-04-25T16:59:13Z</time></trkpt><trkpt lat="40.19759991882474" lon="15.055176561557007"><ele>428.0</ele><time>2026-04-25T16:59:14Z</time></trkpt><trkpt lat="40.197685055526286" lon="15.05535649958046"><ele>428.0</ele><time>2026-04-25T16:59:15Z</time></trkpt><trkpt lat="40.19778399631975" lon="15.055528741383663"><ele>428.0</ele><time>2026-04-25T16:59:16Z</time></trkpt><trkpt lat="40.197895890533914" lon="15.05568525750937"><ele>428.0</ele><time>2026-04-25T16:59:17Z</time></trkpt><trkpt lat="40.198013079360045" lon="15.055835106229965"><ele>423.0</ele><time>2026-04-25T16:59:18Z</time></trkpt><trkpt lat="40.19813117094139" lon="15.055994509688073"><ele>418.0</ele><time>2026-04-25T16:59:19Z</time></trkpt><trkpt lat="40.19825300890034" lon="15.056120299861217"><ele>413.0</ele><time>2026-04-25T16:59:20Z</time></trkpt><trkpt lat="40.198359617143865" lon="15.056234239688505"><ele>413.0</ele><time>2026-04-25T16:59:21Z</time></trkpt><trkpt lat="40.19845798708743" lon="15.056365088005661"><ele>413.0</ele><time>2026-04-25T16:59:22Z</time></trkpt><trkpt lat="40.19854223898213" lon="15.056489384392716"><ele>413.0</ele><time>2026-04-25T16:59:23Z</time></trkpt><trkpt lat="40.19862207884743" lon="15.056614080445998"><ele>413.0</ele><time>2026-04-25T16:59:24Z</time></trkpt><trkpt lat="40.19869443661991" lon="15.056747679359233"><ele>416.59999999999997</ele><time>2026-04-25T16:59:25Z</time></trkpt><trkpt lat="40.19877481569854" lon="15.056904847926784"><ele>420.2</ele><time>2026-04-25T16:59:26Z</time></trkpt><trkpt lat="40.198841434219375" lon="15.057035109873384"><ele>423.8</ele><time>2026-04-25T16:59:27Z</time></trkpt><trkpt lat="40.19888877516932" lon="15.057127677612952"><ele>427.4</ele><time>2026-04-25T16:59:28Z</time></trkpt><trkpt lat="40.19892842451886" lon="15.057207581854563"><ele>431.0</ele><time>2026-04-25T16:59:29Z</time></trkpt><trkpt lat="40.1989659719275" lon="15.05729090574591"><ele>429.3333333333333</ele><time>2026-04-25T16:59:30Z</time></trkpt><trkpt lat="40.19900430761522" lon="15.057372235689853"><ele>427.66666666666663</ele><time>2026-04-25T16:59:31Z</time></trkpt><trkpt lat="40.19904913313312" lon="15.057441325291308"><ele>426.0</ele><time>2026-04-25T16:59:32Z</time></trkpt><trkpt lat="40.19910176164551" lon="15.057499958638035"><ele>424.33333333333337</ele><time>2026-04-25T16:59:33Z</time></trkpt><trkpt lat="40.199089902423" lon="15.057598060198378"><ele>422.6666666666667</ele><time>2026-04-25T16:59:34Z</time></trkpt><trkpt lat="40.199117669756085" lon="15.05769532744081"><ele>421.0</ele><time>2026-04-25T16:59:35Z</time></trkpt><trkpt lat="40.1991626905239" lon="15.057811602718468"><ele>421.0</ele><time>2026-04-25T16:59:37Z</time></trkpt><trkpt lat="40.19932522638093" lon="15.05787184788225"><ele>421.0</ele><time>2026-04-25T17:00:16.999Z</time></trkpt><trkpt lat="40.19941714672935" lon="15.057873671060491"><ele>421.0</ele><time>2026-04-25T17:00:17.999Z</time></trkpt><trkpt lat="40.199505536107914" lon="15.057877159181437"><ele>421.0</ele><time>2026-04-25T17:00:18.999Z</time></trkpt><trkpt lat="40.19957528757448" lon="15.057924404328725"><ele>421.0</ele><time>2026-04-25T17:00:19.999Z</time></trkpt><trkpt lat="40.199672559601495" lon="15.057931243781603"><ele>418.0</ele><time>2026-04-25T17:00:21.999Z</time></trkpt><trkpt lat="40.19988928078186" lon="15.057874061360884"><ele>415.0</ele><time>2026-04-25T17:00:27.999Z</time></trkpt><trkpt lat="40.20000209239071" lon="15.057817528530416"><ele>412.0</ele><time>2026-04-25T17:00:29.999Z</time></trkpt><trkpt lat="40.20006655871939" lon="15.057794997163763"><ele>409.0</ele><time>2026-04-25T17:00:30.999Z</time></trkpt><trkpt lat="40.20013223253483" lon="15.05780509995437"><ele>409.00000000000006</ele><time>2026-04-25T17:00:31.999Z</time></trkpt><trkpt lat="40.200192071896275" lon="15.057833789460368"><ele>409.0</ele><time>2026-04-25T17:00:32.999Z</time></trkpt><trkpt lat="40.20030554303678" lon="15.057928699973603"><ele>409.0</ele><time>2026-04-25T17:00:34.999Z</time></trkpt><trkpt lat="40.20038647286333" lon="15.057948207029826"><ele>409.0</ele><time>2026-04-25T17:00:35.999Z</time></trkpt><trkpt lat="40.20046644922212" lon="15.057931981465774"><ele>409.00000000000006</ele><time>2026-04-25T17:00:36.999Z</time></trkpt><trkpt lat="40.20052500196101" lon="15.057967426350974"><ele>409.0</ele><time>2026-04-25T17:00:37.999Z</time></trkpt><trkpt lat="40.20063940420921" lon="15.05804959182036"><ele>408.6</ele><time>2026-04-25T17:00:39.999Z</time></trkpt><trkpt lat="40.20072988473989" lon="15.05809800592098"><ele>408.2</ele><time>2026-04-25T17:00:40.999Z</time></trkpt><trkpt lat="40.20082352643082" lon="15.058135285443138"><ele>407.8</ele><time>2026-04-25T17:00:41.999Z</time></trkpt><trkpt lat="40.2009131706312" lon="15.058166099702923"><ele>407.40000000000003</ele><time>2026-04-25T17:00:42.999Z</time></trkpt><trkpt lat="40.200999764192105" lon="15.05819537356185"><ele>407.0</ele><time>2026-04-25T17:00:43.999Z</time></trkpt><trkpt lat="40.20108349278538" lon="15.058225469821918"><ele>407.00000000000006</ele><time>2026-04-25T17:00:44.999Z</time></trkpt><trkpt lat="40.201158465160695" lon="15.05825241870835"><ele>407.0</ele><time>2026-04-25T17:00:45.999Z</time></trkpt><trkpt lat="40.20121767651387" lon="15.058291178618802"><ele>407.0</ele><time>2026-04-25T17:00:46.999Z</time></trkpt><trkpt lat="40.20127738044685" lon="15.058323700420004"><ele>407.0</ele><time>2026-04-25T17:00:47.999Z</time></trkpt><trkpt lat="40.201343205030035" lon="15.058334016776785"><ele>407.0</ele><time>2026-04-25T17:00:48.999Z</time></trkpt><trkpt lat="40.20141526481865" lon="15.058349584106093"><ele>407.00000000000006</ele><time>2026-04-25T17:00:49.999Z</time></trkpt><trkpt lat="40.20150603681825" lon="15.058353188331415"><ele>407.0</ele><time>2026-04-25T17:00:51.999Z</time></trkpt><trkpt lat="40.20160065483691" lon="15.058328257711757"><ele>406.0</ele><time>2026-04-25T17:00:53.999Z</time></trkpt><trkpt lat="40.20169222401628" lon="15.058317032237495"><ele>405.0</ele><time>2026-04-25T17:00:55.999Z</time></trkpt><trkpt lat="40.20180828189319" lon="15.058301099474711"><ele>404.0</ele><time>2026-04-25T17:00:57.999Z</time></trkpt><trkpt lat="40.2019232266048" lon="15.058288087372528"><ele>403.0</ele><time>2026-04-25T17:01:00Z</time></trkpt><trkpt lat="40.201992017218316" lon="15.058275779324969"><ele>402.0</ele><time>2026-04-25T17:01:01Z</time></trkpt><trkpt lat="40.20208304897257" lon="15.058257011864708"><ele>402.0</ele><time>2026-04-25T17:01:02Z</time></trkpt><trkpt lat="40.202201284631606" lon="15.058229620639656"><ele>402.0</ele><time>2026-04-25T17:01:03Z</time></trkpt><trkpt lat="40.202309656546454" lon="15.058210428626612"><ele>402.0</ele><time>2026-04-25T17:01:04Z</time></trkpt><trkpt lat="40.2024068103785" lon="15.05818329705753"><ele>402.0</ele><time>2026-04-25T17:01:05Z</time></trkpt><trkpt lat="40.20250804036556" lon="15.058159632704106"><ele>402.0</ele><time>2026-04-25T17:01:06Z</time></trkpt><trkpt lat="40.202612515251914" lon="15.058142020763395"><ele>400.8</ele><time>2026-04-25T17:01:07Z</time></trkpt><trkpt lat="40.202714390175366" lon="15.058117560747434"><ele>399.6</ele><time>2026-04-25T17:01:08Z</time></trkpt><trkpt lat="40.20281500105321" lon="15.05809150070968"><ele>398.40000000000003</ele><time>2026-04-25T17:01:09Z</time></trkpt><trkpt lat="40.20291412361342" lon="15.058067656986099"><ele>397.20000000000005</ele><time>2026-04-25T17:01:10Z</time></trkpt><trkpt lat="40.203012958049825" lon="15.058046071998834"><ele>396.0</ele><time>2026-04-25T17:01:11Z</time></trkpt><trkpt lat="40.203111119696025" lon="15.058024911095117"><ele>396.5</ele><time>2026-04-25T17:01:12Z</time></trkpt><trkpt lat="40.20321842778046" lon="15.057981957283848"><ele>397.0</ele><time>2026-04-25T17:01:13Z</time></trkpt><trkpt lat="40.20334353847093" lon="15.057960286090017"><ele>397.5</ele><time>2026-04-25T17:01:14Z</time></trkpt><trkpt lat="40.20347083962813" lon="15.057935820521298"><ele>398.0</ele><time>2026-04-25T17:01:15Z</time></trkpt><trkpt lat="40.20355917995526" lon="15.057899798026689"><ele>398.0</ele><time>2026-04-25T17:01:16Z</time></trkpt><trkpt lat="40.20363010278965" lon="15.05795613964972"><ele>398.0</ele><time>2026-04-25T17:01:19Z</time></trkpt><trkpt lat="40.203658207231896" lon="15.058070761987873"><ele>398.0</ele><time>2026-04-25T17:01:21Z</time></trkpt><trkpt lat="40.20376079925484" lon="15.058124034222983"><ele>398.0</ele><time>2026-04-25T17:01:23Z</time></trkpt><trkpt lat="40.20382763123139" lon="15.05818429146549"><ele>398.0</ele><time>2026-04-25T17:01:24Z</time></trkpt><trkpt lat="40.203924545992294" lon="15.058239232788178"><ele>397.5</ele><time>2026-04-25T17:01:25Z</time></trkpt><trkpt lat="40.20402891173069" lon="15.058316454676458"><ele>397.0</ele><time>2026-04-25T17:01:26Z</time></trkpt><trkpt lat="40.20413254964982" lon="15.058396558913948"><ele>396.5</ele><time>2026-04-25T17:01:27Z</time></trkpt><trkpt lat="40.20422847429615" lon="15.058468926349228"><ele>396.0</ele><time>2026-04-25T17:01:28Z</time></trkpt><trkpt lat="40.204332076738375" lon="15.058507634454617"><ele>396.0</ele><time>2026-04-25T17:01:29Z</time></trkpt><trkpt lat="40.20442327025342" lon="15.058570873114457"><ele>396.0</ele><time>2026-04-25T17:01:30Z</time></trkpt><trkpt lat="40.20451010885943" lon="15.058639327161112"><ele>396.0</ele><time>2026-04-25T17:01:31Z</time></trkpt><trkpt lat="40.204590004059355" lon="15.058722089531287"><ele>396.0</ele><time>2026-04-25T17:01:32Z</time></trkpt><trkpt lat="40.20467140647926" lon="15.058807493252209"><ele>396.0</ele><time>2026-04-25T17:01:33Z</time></trkpt><trkpt lat="40.20474836207833" lon="15.058882453458972"><ele>396.0</ele><time>2026-04-25T17:01:34Z</time></trkpt><trkpt lat="40.20482495319431" lon="15.058949191720329"><ele>396.0</ele><time>2026-04-25T17:01:35Z</time></trkpt><trkpt lat="40.20491675344458" lon="15.059013455792932"><ele>396.0</ele><time>2026-04-25T17:01:36Z</time></trkpt><trkpt lat="40.20502163402558" lon="15.05907318371967"><ele>396.0</ele><time>2026-04-25T17:01:37Z</time></trkpt><trkpt lat="40.205127996556826" lon="15.059117671768925"><ele>396.0</ele><time>2026-04-25T17:01:38Z</time></trkpt><trkpt lat="40.2052263935754" lon="15.059137871892057"><ele>394.0</ele><time>2026-04-25T17:01:39Z</time></trkpt><trkpt lat="40.20532010799174" lon="15.059151540122505"><ele>392.0</ele><time>2026-04-25T17:01:40Z</time></trkpt><trkpt lat="40.20541264545003" lon="15.059168637997663"><ele>390.0</ele><time>2026-04-25T17:01:41Z</time></trkpt><trkpt lat="40.2054989101563" lon="15.05918519382901"><ele>388.0</ele><time>2026-04-25T17:01:42Z</time></trkpt><trkpt lat="40.205580897942355" lon="15.059182239987843"><ele>386.0</ele><time>2026-04-25T17:01:43Z</time></trkpt><trkpt lat="40.20569120473071" lon="15.059156850755388"><ele>390.20000000000005</ele><time>2026-04-25T17:01:44Z</time></trkpt><trkpt lat="40.20579013502607" lon="15.059107455743739"><ele>394.40000000000003</ele><time>2026-04-25T17:01:45Z</time></trkpt><trkpt lat="40.20589894473417" lon="15.059065802284104"><ele>398.6</ele><time>2026-04-25T17:01:46Z</time></trkpt><trkpt lat="40.206007691721965" lon="15.059034242314477"><ele>402.8</ele><time>2026-04-25T17:01:47Z</time></trkpt><trkpt lat="40.20611783578603" lon="15.059016940952922"><ele>407.0</ele><time>2026-04-25T17:01:48Z</time></trkpt><trkpt lat="40.206208666817275" lon="15.059001598582327"><ele>407.0</ele><time>2026-04-25T17:01:49Z</time></trkpt><trkpt lat="40.20630188142588" lon="15.058954215080943"><ele>407.0</ele><time>2026-04-25T17:01:50Z</time></trkpt><trkpt lat="40.20641923697888" lon="15.058870261891604"><ele>407.0</ele><time>2026-04-25T17:01:51Z</time></trkpt><trkpt lat="40.20652461055261" lon="15.058778921190392"><ele>407.0</ele><time>2026-04-25T17:01:52Z</time></trkpt><trkpt lat="40.206629282118584" lon="15.058696262660945"><ele>404.20000000000005</ele><time>2026-04-25T17:01:53Z</time></trkpt><trkpt lat="40.20673001594752" lon="15.058611910050837"><ele>401.4</ele><time>2026-04-25T17:01:54Z</time></trkpt><trkpt lat="40.2068229983918" lon="15.058532524899864"><ele>398.6</ele><time>2026-04-25T17:01:55Z</time></trkpt><trkpt lat="40.20690830207235" lon="15.058462400325885"><ele>395.79999999999995</ele><time>2026-04-25T17:01:56Z</time></trkpt><trkpt lat="40.20697886070782" lon="15.058402569114062"><ele>393.0</ele><time>2026-04-25T17:01:57Z</time></trkpt><trkpt lat="40.20704506885268" lon="15.058343125803548"><ele>393.0</ele><time>2026-04-25T17:01:58Z</time></trkpt><trkpt lat="40.20711588688846" lon="15.05828791406626"><ele>393.0</ele><time>2026-04-25T17:01:59Z</time></trkpt><trkpt lat="40.207196597539166" lon="15.058241923368042"><ele>393.0</ele><time>2026-04-25T17:02:00Z</time></trkpt><trkpt lat="40.20726789815399" lon="15.058188477090043"><ele>393.0</ele><time>2026-04-25T17:02:01Z</time></trkpt><trkpt lat="40.207362391856435" lon="15.058153377043505"><ele>393.0</ele><time>2026-04-25T17:02:02Z</time></trkpt><trkpt lat="40.207470741383474" lon="15.058137341763858"><ele>391.59999999999997</ele><time>2026-04-25T17:02:03Z</time></trkpt><trkpt lat="40.207574279161186" lon="15.058124025714996"><ele>390.2</ele><time>2026-04-25T17:02:03.999Z</time></trkpt><trkpt lat="40.207668071377896" lon="15.058118237870413"><ele>388.8</ele><time>2026-04-25T17:02:04.999Z</time></trkpt><trkpt lat="40.20776033200283" lon="15.058108107332849"><ele>387.4</ele><time>2026-04-25T17:02:05.999Z</time></trkpt><trkpt lat="40.2078566482649" lon="15.05809096603305"><ele>386.0</ele><time>2026-04-25T17:02:06.999Z</time></trkpt><trkpt lat="40.20793965355986" lon="15.058074070042213"><ele>385.99999999999994</ele><time>2026-04-25T17:02:07.999Z</time></trkpt><trkpt lat="40.20801768469992" lon="15.058051838978052"><ele>386.0</ele><time>2026-04-25T17:02:08.999Z</time></trkpt><trkpt lat="40.20809503521476" lon="15.058040160580932"><ele>386.0</ele><time>2026-04-25T17:02:09.999Z</time></trkpt><trkpt lat="40.20816131963671" lon="15.05796822163773"><ele>386.0</ele><time>2026-04-25T17:02:10.999Z</time></trkpt><trkpt lat="40.208231038272004" lon="15.057886055492103"><ele>385.99999999999994</ele><time>2026-04-25T17:02:11.999Z</time></trkpt><trkpt lat="40.208283592069016" lon="15.05777509188233"><ele>386.0</ele><time>2026-04-25T17:02:12.999Z</time></trkpt><trkpt lat="40.20831679581615" lon="15.057687279325728"><ele>386.4</ele><time>2026-04-25T17:02:13.999Z</time></trkpt><trkpt lat="40.20839478837616" lon="15.057552242460128"><ele>386.8</ele><time>2026-04-25T17:02:15.999Z</time></trkpt><trkpt lat="40.20848178785211" lon="15.057513943187832"><ele>387.2</ele><time>2026-04-25T17:02:16.999Z</time></trkpt><trkpt lat="40.20856639266196" lon="15.057478229545154"><ele>387.59999999999997</ele><time>2026-04-25T17:02:17.999Z</time></trkpt><trkpt lat="40.208652070346226" lon="15.057438358394712"><ele>388.0</ele><time>2026-04-25T17:02:18.999Z</time></trkpt><trkpt lat="40.2087315092775" lon="15.057393194893773"><ele>388.00000000000006</ele><time>2026-04-25T17:02:19.999Z</time></trkpt><trkpt lat="40.208801688285995" lon="15.057351680718583"><ele>388.0</ele><time>2026-04-25T17:02:20.999Z</time></trkpt><trkpt lat="40.20891945338254" lon="15.057291836540744"><ele>388.0</ele><time>2026-04-25T17:02:22.999Z</time></trkpt><trkpt lat="40.20900181784287" lon="15.05726690781289"><ele>388.0</ele><time>2026-04-25T17:02:23.999Z</time></trkpt><trkpt lat="40.209083841772674" lon="15.057262631614234"><ele>388.00000000000006</ele><time>2026-04-25T17:02:24.999Z</time></trkpt><trkpt lat="40.209160738991876" lon="15.05726411476601"><ele>388.0</ele><time>2026-04-25T17:02:25.999Z</time></trkpt><trkpt lat="40.209218509330086" lon="15.057212566096755"><ele>385.4</ele><time>2026-04-25T17:02:26.999Z</time></trkpt><trkpt lat="40.20930262210748" lon="15.057153603976655"><ele>382.79999999999995</ele><time>2026-04-25T17:02:28.999Z</time></trkpt><trkpt lat="40.20936481864928" lon="15.057127358558537"><ele>380.2</ele><time>2026-04-25T17:02:29.999Z</time></trkpt><trkpt lat="40.2094499370171" lon="15.057146111132745"><ele>377.6</ele><time>2026-04-25T17:02:30.999Z</time></trkpt><trkpt lat="40.20954805144001" lon="15.057248296865104"><ele>375.0</ele><time>2026-04-25T17:02:31.999Z</time></trkpt><trkpt lat="40.209634368974655" lon="15.057375403841581"><ele>371.8</ele><time>2026-04-25T17:02:32.999Z</time></trkpt><trkpt lat="40.2096999014287" lon="15.057481562588084"><ele>368.6</ele><time>2026-04-25T17:02:33.999Z</time></trkpt><trkpt lat="40.20975377034266" lon="15.057553019101388"><ele>365.4</ele><time>2026-04-25T17:02:34.999Z</time></trkpt><trkpt lat="40.20983063230454" lon="15.057620292579523"><ele>362.2</ele><time>2026-04-25T17:02:35.999Z</time></trkpt><trkpt lat="40.20992936267035" lon="15.057682128773177"><ele>359.0</ele><time>2026-04-25T17:02:36.999Z</time></trkpt><trkpt lat="40.21004372393266" lon="15.057743332105003"><ele>359.0</ele><time>2026-04-25T17:02:37.999Z</time></trkpt><trkpt lat="40.210128338810215" lon="15.057782031083388"><ele>359.0</ele><time>2026-04-25T17:02:38.999Z</time></trkpt><trkpt lat="40.21020101068589" lon="15.057817557439355"><ele>359.0</ele><time>2026-04-25T17:02:39.999Z</time></trkpt><trkpt lat="40.21026210095211" lon="15.057863091916676"><ele>359.0</ele><time>2026-04-25T17:02:40.999Z</time></trkpt><trkpt lat="40.21031878227923" lon="15.057922903134797"><ele>359.0</ele><time>2026-04-25T17:02:41.999Z</time></trkpt><trkpt lat="40.21037013937864" lon="15.058023488536039"><ele>359.0</ele><time>2026-04-25T17:02:42.999Z</time></trkpt><trkpt lat="40.21038165396164" lon="15.058160021418185"><ele>359.0</ele><time>2026-04-25T17:02:43.999Z</time></trkpt><trkpt lat="40.21035704874232" lon="15.058273860478492"><ele>359.0</ele><time>2026-04-25T17:02:44.999Z</time></trkpt><trkpt lat="40.210342946208584" lon="15.058376585849267"><ele>359.0</ele><time>2026-04-25T17:02:45.999Z</time></trkpt><trkpt lat="40.21032800551022" lon="15.058480208915352"><ele>359.0</ele><time>2026-04-25T17:02:46.999Z</time></trkpt><trkpt lat="40.21031150705019" lon="15.058584613690527"><ele>359.0</ele><time>2026-04-25T17:02:47.999Z</time></trkpt><trkpt lat="40.210299737152724" lon="15.058685524799818"><ele>359.0</ele><time>2026-04-25T17:02:48.999Z</time></trkpt><trkpt lat="40.210298099524486" lon="15.058786231984525"><ele>355.6</ele><time>2026-04-25T17:02:49.999Z</time></trkpt><trkpt lat="40.21030531376321" lon="15.058908275317345"><ele>352.2</ele><time>2026-04-25T17:02:50.999Z</time></trkpt><trkpt lat="40.210319303321796" lon="15.05903811913632"><ele>348.8</ele><time>2026-04-25T17:02:51.999Z</time></trkpt><trkpt lat="40.21032708022104" lon="15.05918342332121"><ele>345.40000000000003</ele><time>2026-04-25T17:02:52.999Z</time></trkpt><trkpt lat="40.210327649075644" lon="15.059328112447513"><ele>342.0</ele><time>2026-04-25T17:02:53.999Z</time></trkpt><trkpt lat="40.21034282335811" lon="15.059463664040834"><ele>339.6</ele><time>2026-04-25T17:02:54.999Z</time></trkpt><trkpt lat="40.21036562233954" lon="15.059584207218737"><ele>337.20000000000005</ele><time>2026-04-25T17:02:55.999Z</time></trkpt><trkpt lat="40.210390088530616" lon="15.05971290929944"><ele>334.8</ele><time>2026-04-25T17:02:56.999Z</time></trkpt><trkpt lat="40.2104030136022" lon="15.059851793503459"><ele>332.4</ele><time>2026-04-25T17:02:57.999Z</time></trkpt><trkpt lat="40.21040488020711" lon="15.060002493686572"><ele>330.0</ele><time>2026-04-25T17:02:58.999Z</time></trkpt><trkpt lat="40.210393429862" lon="15.060170470762698"><ele>327.0</ele><time>2026-04-25T17:02:59.999Z</time></trkpt><trkpt lat="40.21038552268557" lon="15.06034268064836"><ele>324.0</ele><time>2026-04-25T17:03:00.999Z</time></trkpt><trkpt lat="40.21038474556846" lon="15.060521860625323"><ele>321.0</ele><time>2026-04-25T17:03:01.999Z</time></trkpt><trkpt lat="40.21038406420967" lon="15.060678961214013"><ele>318.0</ele><time>2026-04-25T17:03:02.999Z</time></trkpt><trkpt lat="40.210383437345385" lon="15.060823497338253"><ele>316.2</ele><time>2026-04-25T17:03:03.999Z</time></trkpt><trkpt lat="40.21038338017875" lon="15.060959888228016"><ele>314.4</ele><time>2026-04-25T17:03:04.999Z</time></trkpt><trkpt lat="40.210383380172146" lon="15.061090271364364"><ele>312.59999999999997</ele><time>2026-04-25T17:03:06Z</time></trkpt><trkpt lat="40.21038489402053" lon="15.061211169916227"><ele>310.8</ele><time>2026-04-25T17:03:07Z</time></trkpt><trkpt lat="40.21039721091557" lon="15.061317961835872"><ele>309.0</ele><time>2026-04-25T17:03:08Z</time></trkpt><trkpt lat="40.21042085192793" lon="15.061412341860892"><ele>309.0</ele><time>2026-04-25T17:03:09Z</time></trkpt><trkpt lat="40.21045708363274" lon="15.061502860117729"><ele>309.0</ele><time>2026-04-25T17:03:10Z</time></trkpt><trkpt lat="40.21050605092273" lon="15.061569415786172"><ele>309.0</ele><time>2026-04-25T17:03:11Z</time></trkpt><trkpt lat="40.210563280920105" lon="15.061615146708988"><ele>309.0</ele><time>2026-04-25T17:03:12Z</time></trkpt><trkpt lat="40.21063627367583" lon="15.061676267733088"><ele>309.0</ele><time>2026-04-25T17:03:13Z</time></trkpt><trkpt lat="40.21071815253206" lon="15.061737890452491"><ele>309.0</ele><time>2026-04-25T17:03:14Z</time></trkpt><trkpt lat="40.210803618119094" lon="15.061789584631745"><ele>312.6</ele><time>2026-04-25T17:03:15Z</time></trkpt><trkpt lat="40.21089295743077" lon="15.061851259207332"><ele>316.2</ele><time>2026-04-25T17:03:16Z</time></trkpt><trkpt lat="40.210974788692404" lon="15.061913724080897"><ele>319.8</ele><time>2026-04-25T17:03:17Z</time></trkpt><trkpt lat="40.2110489321689" lon="15.061979110238395"><ele>323.40000000000003</ele><time>2026-04-25T17:03:18Z</time></trkpt><trkpt lat="40.21110341208872" lon="15.062037501110977"><ele>327.0</ele><time>2026-04-25T17:03:19Z</time></trkpt><trkpt lat="40.21121867721133" lon="15.062083076364255"><ele>327.0</ele><time>2026-04-25T17:03:21Z</time></trkpt><trkpt lat="40.211292299802025" lon="15.062066779723123"><ele>327.0</ele><time>2026-04-25T17:03:22Z</time></trkpt><trkpt lat="40.21139370271886" lon="15.06203333083572"><ele>327.0</ele><time>2026-04-25T17:03:23Z</time></trkpt><trkpt lat="40.21148581401025" lon="15.061982842741227"><ele>327.0</ele><time>2026-04-25T17:03:24Z</time></trkpt><trkpt lat="40.21158097921479" lon="15.06191004620673"><ele>327.0</ele><time>2026-04-25T17:03:25Z</time></trkpt><trkpt lat="40.21170459747485" lon="15.06190588840694"><ele>328.0</ele><time>2026-04-25T17:03:26Z</time></trkpt><trkpt lat="40.21181255204037" lon="15.061893247111902"><ele>329.0</ele><time>2026-04-25T17:03:27Z</time></trkpt><trkpt lat="40.21190411843679" lon="15.061871333383678"><ele>330.0</ele><time>2026-04-25T17:03:28Z</time></trkpt><trkpt lat="40.21199435533019" lon="15.061846733786908"><ele>331.0</ele><time>2026-04-25T17:03:29Z</time></trkpt><trkpt lat="40.21208357765605" lon="15.061837454519388"><ele>332.0</ele><time>2026-04-25T17:03:30Z</time></trkpt><trkpt lat="40.21214945551668" lon="15.061789345266089"><ele>332.0</ele><time>2026-04-25T17:03:31Z</time></trkpt><trkpt lat="40.21226678405321" lon="15.061728204933226"><ele>332.0</ele><time>2026-04-25T17:03:33Z</time></trkpt><trkpt lat="40.21236566698968" lon="15.061754062648951"><ele>332.0</ele><time>2026-04-25T17:03:34Z</time></trkpt><trkpt lat="40.21245890997938" lon="15.061844586910084"><ele>332.0</ele><time>2026-04-25T17:03:35Z</time></trkpt><trkpt lat="40.21254303734274" lon="15.061910676449285"><ele>332.0</ele><time>2026-04-25T17:03:36Z</time></trkpt><trkpt lat="40.2126255564484" lon="15.0619611335013"><ele>332.20000000000005</ele><time>2026-04-25T17:03:37Z</time></trkpt><trkpt lat="40.212701562844146" lon="15.062006048862939"><ele>332.4</ele><time>2026-04-25T17:03:38Z</time></trkpt><trkpt lat="40.21277219438215" lon="15.062043859073288"><ele>332.6</ele><time>2026-04-25T17:03:39Z</time></trkpt><trkpt lat="40.21282768926723" lon="15.062085670459473"><ele>332.79999999999995</ele><time>2026-04-25T17:03:40Z</time></trkpt><trkpt lat="40.212879385332286" lon="15.062159064980902"><ele>333.0</ele><time>2026-04-25T17:03:41Z</time></trkpt><trkpt lat="40.212801603155825" lon="15.062329335151198"><ele>333.0</ele><time>2026-04-25T17:03:42Z</time></trkpt><trkpt lat="40.21279546153771" lon="15.062423964449032"><ele>333.0</ele><time>2026-04-25T17:03:43Z</time></trkpt><trkpt lat="40.21279770123208" lon="15.062510450720852"><ele>333.0</ele><time>2026-04-25T17:03:44Z</time></trkpt><trkpt lat="40.212860918078334" lon="15.06261665749096"><ele>333.0</ele><time>2026-04-25T17:03:46Z</time></trkpt><trkpt lat="40.21291106364062" lon="15.062673184946453"><ele>333.0</ele><time>2026-04-25T17:03:47Z</time></trkpt><trkpt lat="40.212975457043285" lon="15.062721464640523"><ele>333.0</ele><time>2026-04-25T17:03:48Z</time></trkpt><trkpt lat="40.21305049713829" lon="15.062770511874852"><ele>331.4</ele><time>2026-04-25T17:03:49Z</time></trkpt><trkpt lat="40.2131314296294" lon="15.062796196707342"><ele>329.79999999999995</ele><time>2026-04-25T17:03:50Z</time></trkpt><trkpt lat="40.21321529999735" lon="15.062815930921186"><ele>328.2</ele><time>2026-04-25T17:03:51Z</time></trkpt><trkpt lat="40.21330400089451" lon="15.062840948933893"><ele>326.6</ele><time>2026-04-25T17:03:52Z</time></trkpt><trkpt lat="40.213407110576" lon="15.062915202386785"><ele>325.0</ele><time>2026-04-25T17:03:54Z</time></trkpt><trkpt lat="40.21343773177921" lon="15.063016632599126"><ele>325.0</ele><time>2026-04-25T17:03:55Z</time></trkpt><trkpt lat="40.21337627555309" lon="15.063168933517234"><ele>325.0</ele><time>2026-04-25T17:03:56Z</time></trkpt><trkpt lat="40.213280963115174" lon="15.063231984062757"><ele>325.0</ele><time>2026-04-25T17:03:57Z</time></trkpt><trkpt lat="40.21317734342812" lon="15.06328107968042"><ele>325.0</ele><time>2026-04-25T17:03:58Z</time></trkpt><trkpt lat="40.21309799527314" lon="15.063352871305797"><ele>325.0</ele><time>2026-04-25T17:03:59Z</time></trkpt><trkpt lat="40.21302155472305" lon="15.063431479468568"><ele>320.8</ele><time>2026-04-25T17:04:00Z</time></trkpt><trkpt lat="40.21295375979938" lon="15.06349284372163"><ele>316.6</ele><time>2026-04-25T17:04:01Z</time></trkpt><trkpt lat="40.212887968934304" lon="15.06351334342019"><ele>312.4</ele><time>2026-04-25T17:04:02Z</time></trkpt><trkpt lat="40.212737360420455" lon="15.063491234052245"><ele>308.2</ele><time>2026-04-25T17:04:04Z</time></trkpt><trkpt lat="40.2126218055116" lon="15.063491294715122"><ele>304.0</ele><time>2026-04-25T17:04:05Z</time></trkpt><trkpt lat="40.21250963667545" lon="15.063511537167706"><ele>304.0</ele><time>2026-04-25T17:04:06Z</time></trkpt><trkpt lat="40.212415745366734" lon="15.063545807111067"><ele>304.0</ele><time>2026-04-25T17:04:07Z</time></trkpt><trkpt lat="40.21231647489907" lon="15.063587373997192"><ele>304.0</ele><time>2026-04-25T17:04:08Z</time></trkpt><trkpt lat="40.21221829776414" lon="15.063636106364122"><ele>304.0</ele><time>2026-04-25T17:04:08.999Z</time></trkpt><trkpt lat="40.212125881655446" lon="15.063720382373132"><ele>304.0</ele><time>2026-04-25T17:04:09.999Z</time></trkpt><trkpt lat="40.212034155991745" lon="15.06377705087543"><ele>298.75</ele><time>2026-04-25T17:04:10.999Z</time></trkpt><trkpt lat="40.21193038122102" lon="15.063806751644945"><ele>293.5</ele><time>2026-04-25T17:04:11.999Z</time></trkpt><trkpt lat="40.21183392128106" lon="15.063825585691559"><ele>288.25</ele><time>2026-04-25T17:04:12.999Z</time></trkpt><trkpt lat="40.21170258441916" lon="15.063854880028197"><ele>283.0</ele><time>2026-04-25T17:04:13.999Z</time></trkpt><trkpt lat="40.21155999635515" lon="15.063898671959706"><ele>279.75</ele><time>2026-04-25T17:04:14.999Z</time></trkpt><trkpt lat="40.21143615222999" lon="15.063940731815636"><ele>276.5</ele><time>2026-04-25T17:04:15.999Z</time></trkpt><trkpt lat="40.21132346147264" lon="15.06398344371925"><ele>273.25</ele><time>2026-04-25T17:04:16.999Z</time></trkpt><trkpt lat="40.21122578507532" lon="15.064031607648012"><ele>270.0</ele><time>2026-04-25T17:04:17.999Z</time></trkpt><trkpt lat="40.21113186539248" lon="15.064085352656594"><ele>274.8</ele><time>2026-04-25T17:04:18.999Z</time></trkpt><trkpt lat="40.211043150022505" lon="15.064158565297523"><ele>279.6</ele><time>2026-04-25T17:04:19.999Z</time></trkpt><trkpt lat="40.21095117746522" lon="15.064216217324677"><ele>284.4</ele><time>2026-04-25T17:04:20.999Z</time></trkpt><trkpt lat="40.210863280513735" lon="15.064265165364965"><ele>289.2</ele><time>2026-04-25T17:04:21.999Z</time></trkpt><trkpt lat="40.210770370049104" lon="15.064316742401193"><ele>294.0</ele><time>2026-04-25T17:04:22.999Z</time></trkpt><trkpt lat="40.210683178260304" lon="15.06438395032031"><ele>290.2</ele><time>2026-04-25T17:04:23.999Z</time></trkpt><trkpt lat="40.21059839545159" lon="15.06447462618109"><ele>286.4</ele><time>2026-04-25T17:04:24.999Z</time></trkpt><trkpt lat="40.21051983446099" lon="15.064588293764265"><ele>282.6</ele><time>2026-04-25T17:04:25.999Z</time></trkpt><trkpt lat="40.21044627023614" lon="15.06468849461819"><ele>278.8</ele><time>2026-04-25T17:04:26.999Z</time></trkpt><trkpt lat="40.21038350053975" lon="15.064771488903684"><ele>275.0</ele><time>2026-04-25T17:04:27.999Z</time></trkpt><trkpt lat="40.210325226374" lon="15.064841368344906"><ele>275.0</ele><time>2026-04-25T17:04:28.999Z</time></trkpt><trkpt lat="40.21024964775704" lon="15.06487398254149"><ele>275.0</ele><time>2026-04-25T17:04:29.999Z</time></trkpt><trkpt lat="40.2101632334282" lon="15.06492346107401"><ele>275.0</ele><time>2026-04-25T17:04:30.999Z</time></trkpt><trkpt lat="40.21008877312594" lon="15.06498389661272"><ele>275.0</ele><time>2026-04-25T17:04:31.999Z</time></trkpt><trkpt lat="40.210014608579314" lon="15.064988997181192"><ele>275.0</ele><time>2026-04-25T17:04:32.999Z</time></trkpt><trkpt lat="40.20994344748322" lon="15.065001700034623"><ele>275.0</ele><time>2026-04-25T17:04:33.999Z</time></trkpt><trkpt lat="40.209846876338126" lon="15.065034169874037"><ele>279.0</ele><time>2026-04-25T17:04:34.999Z</time></trkpt><trkpt lat="40.209754465923595" lon="15.065088604042659"><ele>283.0</ele><time>2026-04-25T17:04:35.999Z</time></trkpt><trkpt lat="40.209692184935406" lon="15.065143019421587"><ele>287.0</ele><time>2026-04-25T17:04:36.999Z</time></trkpt><trkpt lat="40.20966806879462" lon="15.065235171480904"><ele>291.0</ele><time>2026-04-25T17:04:38.999Z</time></trkpt><trkpt lat="40.20973886582084" lon="15.065327650486225"><ele>295.0</ele><time>2026-04-25T17:04:40.999Z</time></trkpt><trkpt lat="40.2098632678872" lon="15.065400169143215"><ele>295.2</ele><time>2026-04-25T17:04:42.999Z</time></trkpt><trkpt lat="40.209960021913766" lon="15.065448721134333"><ele>295.4</ele><time>2026-04-25T17:04:43.999Z</time></trkpt><trkpt lat="40.21005382594856" lon="15.065494094619925"><ele>295.6</ele><time>2026-04-25T17:04:44.999Z</time></trkpt><trkpt lat="40.210166232684045" lon="15.065547142762213"><ele>295.8</ele><time>2026-04-25T17:04:45.999Z</time></trkpt><trkpt lat="40.2102715328746" lon="15.065610401571458"><ele>296.0</ele><time>2026-04-25T17:04:46.999Z</time></trkpt><trkpt lat="40.21036229133835" lon="15.065679232417189"><ele>296.0</ele><time>2026-04-25T17:04:47.999Z</time></trkpt><trkpt lat="40.210442899097295" lon="15.06575908468945"><ele>296.0</ele><time>2026-04-25T17:04:48.999Z</time></trkpt><trkpt lat="40.21050726137159" lon="15.065833802728568"><ele>296.0</ele><time>2026-04-25T17:04:49.999Z</time></trkpt><trkpt lat="40.21056371690832" lon="15.065910709839246"><ele>296.0</ele><time>2026-04-25T17:04:50.999Z</time></trkpt><trkpt lat="40.21060739527177" lon="15.065999365762018"><ele>296.0</ele><time>2026-04-25T17:04:51.999Z</time></trkpt><trkpt lat="40.21063124091098" lon="15.066102697707027"><ele>296.0</ele><time>2026-04-25T17:04:52.999Z</time></trkpt><trkpt lat="40.210621079894" lon="15.066222476521016"><ele>294.6</ele><time>2026-04-25T17:04:53.999Z</time></trkpt><trkpt lat="40.21056763536309" lon="15.066325665376"><ele>293.20000000000005</ele><time>2026-04-25T17:04:54.999Z</time></trkpt><trkpt lat="40.2105074807117" lon="15.066391514658948"><ele>291.79999999999995</ele><time>2026-04-25T17:04:55.999Z</time></trkpt><trkpt lat="40.210429330734314" lon="15.066444021432307"><ele>290.4</ele><time>2026-04-25T17:04:56.999Z</time></trkpt><trkpt lat="40.21033631681543" lon="15.066513759994839"><ele>289.0</ele><time>2026-04-25T17:04:57.999Z</time></trkpt><trkpt lat="40.210265977964035" lon="15.066603156608602"><ele>289.0</ele><time>2026-04-25T17:04:58.999Z</time></trkpt><trkpt lat="40.21021058057398" lon="15.066655746983502"><ele>289.0</ele><time>2026-04-25T17:04:59.999Z</time></trkpt><trkpt lat="40.210172705247274" lon="15.06673034787289"><ele>289.0</ele><time>2026-04-25T17:05:00.999Z</time></trkpt><trkpt lat="40.21012936514399" lon="15.066822456314446"><ele>289.0</ele><time>2026-04-25T17:05:01.999Z</time></trkpt><trkpt lat="40.21007599203835" lon="15.06693628108886"><ele>289.0</ele><time>2026-04-25T17:05:02.999Z</time></trkpt><trkpt lat="40.21001514214548" lon="15.06706982338079"><ele>289.0</ele><time>2026-04-25T17:05:03.999Z</time></trkpt><trkpt lat="40.20994527970823" lon="15.06721415838499"><ele>289.0</ele><time>2026-04-25T17:05:04.999Z</time></trkpt><trkpt lat="40.20987373121527" lon="15.0673540686513"><ele>289.0</ele><time>2026-04-25T17:05:05.999Z</time></trkpt><trkpt lat="40.20982196290613" lon="15.067469974707716"><ele>289.0</ele><time>2026-04-25T17:05:06.999Z</time></trkpt><trkpt lat="40.20979961284662" lon="15.067593543979962"><ele>289.0</ele><time>2026-04-25T17:05:07.999Z</time></trkpt><trkpt lat="40.20978141182355" lon="15.067721533607216"><ele>289.0</ele><time>2026-04-25T17:05:08.999Z</time></trkpt><trkpt lat="40.20978076691496" lon="15.06787086255632"><ele>288.0</ele><time>2026-04-25T17:05:09.999Z</time></trkpt><trkpt lat="40.20977306771876" lon="15.068034197236136"><ele>287.0</ele><time>2026-04-25T17:05:10.999Z</time></trkpt><trkpt lat="40.20975348849466" lon="15.068174825595976"><ele>286.0</ele><time>2026-04-25T17:05:12Z</time></trkpt><trkpt lat="40.209714979173825" lon="15.06829081963067"><ele>285.0</ele><time>2026-04-25T17:05:13Z</time></trkpt><trkpt lat="40.2096848775624" lon="15.068404430124746"><ele>284.0</ele><time>2026-04-25T17:05:14Z</time></trkpt><trkpt lat="40.20962879737957" lon="15.068543503785206"><ele>284.0</ele><time>2026-04-25T17:05:15Z</time></trkpt><trkpt lat="40.20959369884448" lon="15.0686744748428"><ele>284.0</ele><time>2026-04-25T17:05:16Z</time></trkpt><trkpt lat="40.20957562438808" lon="15.068790334241521"><ele>284.0</ele><time>2026-04-25T17:05:17Z</time></trkpt><trkpt lat="40.209602006251025" lon="15.0689375147639"><ele>284.0</ele><time>2026-04-25T17:05:18Z</time></trkpt><trkpt lat="40.209589852207664" lon="15.069098421359827"><ele>284.0</ele><time>2026-04-25T17:05:19Z</time></trkpt><trkpt lat="40.20958481811422" lon="15.069243080910626"><ele>284.75</ele><time>2026-04-25T17:05:20Z</time></trkpt><trkpt lat="40.20959157234847" lon="15.069388447399822"><ele>285.5</ele><time>2026-04-25T17:05:21Z</time></trkpt><trkpt lat="40.20962455337236" lon="15.069574955005926"><ele>286.25</ele><time>2026-04-25T17:05:22Z</time></trkpt><trkpt lat="40.209654362471206" lon="15.06978172257254"><ele>287.0</ele><time>2026-04-25T17:05:23Z</time></trkpt><trkpt lat="40.20966293102678" lon="15.069946126234324"><ele>287.0</ele><time>2026-04-25T17:05:24Z</time></trkpt><trkpt lat="40.20967077219476" lon="15.070104265608592"><ele>287.0</ele><time>2026-04-25T17:05:25Z</time></trkpt><trkpt lat="40.209661639297" lon="15.070242007282497"><ele>287.0</ele><time>2026-04-25T17:05:26Z</time></trkpt><trkpt lat="40.2096837176802" lon="15.070365348039333"><ele>287.0</ele><time>2026-04-25T17:05:27Z</time></trkpt><trkpt lat="40.209661168017476" lon="15.07048634959848"><ele>287.0</ele><time>2026-04-25T17:05:28Z</time></trkpt><trkpt lat="40.2096449505857" lon="15.070601334060164"><ele>287.0</ele><time>2026-04-25T17:05:29Z</time></trkpt><trkpt lat="40.20961388252125" lon="15.070698414841761"><ele>287.0</ele><time>2026-04-25T17:05:30Z</time></trkpt><trkpt lat="40.20956224038035" lon="15.070799804441467"><ele>287.0</ele><time>2026-04-25T17:05:31Z</time></trkpt><trkpt lat="40.209493416223566" lon="15.070909783166131"><ele>287.0</ele><time>2026-04-25T17:05:32Z</time></trkpt><trkpt lat="40.20946184944189" lon="15.0710288838225"><ele>287.0</ele><time>2026-04-25T17:05:33Z</time></trkpt><trkpt lat="40.20944901887518" lon="15.071154692561098"><ele>288.8</ele><time>2026-04-25T17:05:34Z</time></trkpt><trkpt lat="40.209422938589" lon="15.07128263490281"><ele>290.6</ele><time>2026-04-25T17:05:35Z</time></trkpt><trkpt lat="40.20941624903753" lon="15.071389016087297"><ele>292.40000000000003</ele><time>2026-04-25T17:05:36Z</time></trkpt><trkpt lat="40.20939041552542" lon="15.071494623340067"><ele>294.2</ele><time>2026-04-25T17:05:37Z</time></trkpt><trkpt lat="40.20934001054481" lon="15.071587954506892"><ele>296.0</ele><time>2026-04-25T17:05:38Z</time></trkpt><trkpt lat="40.20924212125197" lon="15.071628741641991"><ele>297.1666666666667</ele><time>2026-04-25T17:05:39Z</time></trkpt><trkpt lat="40.209177382284345" lon="15.071671579348514"><ele>298.33333333333337</ele><time>2026-04-25T17:05:40Z</time></trkpt><trkpt lat="40.20911992940047" lon="15.071711320478075"><ele>299.5</ele><time>2026-04-25T17:05:41Z</time></trkpt><trkpt lat="40.209045718220516" lon="15.071782359977627"><ele>300.6666666666667</ele><time>2026-04-25T17:05:42Z</time></trkpt><trkpt lat="40.20896704282433" lon="15.071828841585074"><ele>301.8333333333333</ele><time>2026-04-25T17:05:43Z</time></trkpt><trkpt lat="40.2088962138051" lon="15.071826578290384"><ele>303.0</ele><time>2026-04-25T17:05:44Z</time></trkpt><trkpt lat="40.20881197093868" lon="15.071790849896207"><ele>303.0</ele><time>2026-04-25T17:05:46Z</time></trkpt><trkpt lat="40.20873667675154" lon="15.071707576281831"><ele>303.0</ele><time>2026-04-25T17:05:48Z</time></trkpt><trkpt lat="40.20867003989619" lon="15.071629721825804"><ele>303.0</ele><time>2026-04-25T17:05:49Z</time></trkpt><trkpt lat="40.20861040636159" lon="15.071537339451414"><ele>303.0</ele><time>2026-04-25T17:05:50Z</time></trkpt><trkpt lat="40.20854693974181" lon="15.071461563876806"><ele>303.0</ele><time>2026-04-25T17:05:51Z</time></trkpt><trkpt lat="40.20848557587898" lon="15.071405053593612"><ele>303.0</ele><time>2026-04-25T17:05:52Z</time></trkpt><trkpt lat="40.208418763389986" lon="15.071383884443529"><ele>299.6</ele><time>2026-04-25T17:05:53Z</time></trkpt><trkpt lat="40.20832362129801" lon="15.071422719107677"><ele>296.20000000000005</ele><time>2026-04-25T17:05:54Z</time></trkpt><trkpt lat="40.20821204677877" lon="15.071430572837793"><ele>292.8</ele><time>2026-04-25T17:05:55Z</time></trkpt><trkpt lat="40.20810715476751" lon="15.071401835885082"><ele>289.40000000000003</ele><time>2026-04-25T17:05:56Z</time></trkpt><trkpt lat="40.2080335164458" lon="15.07139001582149"><ele>286.0</ele><time>2026-04-25T17:05:57Z</time></trkpt><trkpt lat="40.20796726569176" lon="15.07136656241906"><ele>286.0</ele><time>2026-04-25T17:05:58Z</time></trkpt><trkpt lat="40.20790770082509" lon="15.071297687834885"><ele>286.0</ele><time>2026-04-25T17:05:59Z</time></trkpt><trkpt lat="40.20781797567569" lon="15.071219744300059"><ele>286.0</ele><time>2026-04-25T17:06:00Z</time></trkpt><trkpt lat="40.207723370438906" lon="15.071135184813233"><ele>286.0</ele><time>2026-04-25T17:06:01Z</time></trkpt><trkpt lat="40.207637949546225" lon="15.071062936937368"><ele>286.0</ele><time>2026-04-25T17:06:02Z</time></trkpt><trkpt lat="40.207559374523726" lon="15.071011509139623"><ele>286.0</ele><time>2026-04-25T17:06:03Z</time></trkpt><trkpt lat="40.20747126657394" lon="15.070995250652182"><ele>286.0</ele><time>2026-04-25T17:06:04Z</time></trkpt><trkpt lat="40.207398727804275" lon="15.070958411473432"><ele>286.0</ele><time>2026-04-25T17:06:05Z</time></trkpt><trkpt lat="40.207325146274385" lon="15.070982852886484"><ele>286.0</ele><time>2026-04-25T17:06:06Z</time></trkpt><trkpt lat="40.20725268092266" lon="15.071000853110709"><ele>286.0</ele><time>2026-04-25T17:06:07Z</time></trkpt><trkpt lat="40.2071785044181" lon="15.07104167306053"><ele>286.0</ele><time>2026-04-25T17:06:08Z</time></trkpt><trkpt lat="40.20709862662163" lon="15.071112085260149"><ele>282.66666666666663</ele><time>2026-04-25T17:06:09Z</time></trkpt><trkpt lat="40.20700353610932" lon="15.071176390218362"><ele>279.3333333333333</ele><time>2026-04-25T17:06:10Z</time></trkpt><trkpt lat="40.20692175241749" lon="15.071251133606635"><ele>276.0</ele><time>2026-04-25T17:06:11Z</time></trkpt><trkpt lat="40.20686358132233" lon="15.071318103864819"><ele>272.6666666666667</ele><time>2026-04-25T17:06:12Z</time></trkpt><trkpt lat="40.206834766344635" lon="15.071391872806869"><ele>269.33333333333337</ele><time>2026-04-25T17:06:13Z</time></trkpt><trkpt lat="40.20678310928398" lon="15.071459696543064"><ele>266.0</ele><time>2026-04-25T17:06:14Z</time></trkpt><trkpt lat="40.20677285819885" lon="15.071584083163605"><ele>268.0</ele><time>2026-04-25T17:06:15Z</time></trkpt><trkpt lat="40.20675980416012" lon="15.07171825135858"><ele>270.0</ele><time>2026-04-25T17:06:15.999Z</time></trkpt><trkpt lat="40.20675377357129" lon="15.071872327800728"><ele>272.0</ele><time>2026-04-25T17:06:16.999Z</time></trkpt><trkpt lat="40.20671533568057" lon="15.072014617128199"><ele>274.0</ele><time>2026-04-25T17:06:17.999Z</time></trkpt><trkpt lat="40.206693736685196" lon="15.072153561872897"><ele>276.0</ele><time>2026-04-25T17:06:18.999Z</time></trkpt><trkpt lat="40.206676934951155" lon="15.072269056976271"><ele>276.0</ele><time>2026-04-25T17:06:19.999Z</time></trkpt><trkpt lat="40.20666946650258" lon="15.072396672795577"><ele>276.0</ele><time>2026-04-25T17:06:20.999Z</time></trkpt><trkpt lat="40.20667939045869" lon="15.072521965386095"><ele>276.0</ele><time>2026-04-25T17:06:21.999Z</time></trkpt><trkpt lat="40.20670234390958" lon="15.072654515043888"><ele>276.0</ele><time>2026-04-25T17:06:22.999Z</time></trkpt><trkpt lat="40.20673962883254" lon="15.072791101490187"><ele>276.0</ele><time>2026-04-25T17:06:23.999Z</time></trkpt><trkpt lat="40.20679655045181" lon="15.072925655303392"><ele>275.6</ele><time>2026-04-25T17:06:24.999Z</time></trkpt><trkpt lat="40.20685502527999" lon="15.073039486195768"><ele>275.20000000000005</ele><time>2026-04-25T17:06:25.999Z</time></trkpt><trkpt lat="40.20689126426303" lon="15.073150880833941"><ele>274.79999999999995</ele><time>2026-04-25T17:06:26.999Z</time></trkpt><trkpt lat="40.20690829864044" lon="15.073262080160362"><ele>274.4</ele><time>2026-04-25T17:06:27.999Z</time></trkpt><trkpt lat="40.20692288328654" lon="15.073385108130612"><ele>274.0</ele><time>2026-04-25T17:06:28.999Z</time></trkpt><trkpt lat="40.206924864393194" lon="15.07349280095692"><ele>273.0</ele><time>2026-04-25T17:06:29.999Z</time></trkpt><trkpt lat="40.206892433709186" lon="15.073601917457918"><ele>272.0</ele><time>2026-04-25T17:06:30.999Z</time></trkpt><trkpt lat="40.20684500487288" lon="15.07372296286956"><ele>271.0</ele><time>2026-04-25T17:06:31.999Z</time></trkpt><trkpt lat="40.206786195048814" lon="15.073879385841796"><ele>270.0</ele><time>2026-04-25T17:06:32.999Z</time></trkpt><trkpt lat="40.20674581439145" lon="15.074030188182933"><ele>269.0</ele><time>2026-04-25T17:06:33.999Z</time></trkpt><trkpt lat="40.2067109815484" lon="15.074145661653981"><ele>269.5</ele><time>2026-04-25T17:06:34.999Z</time></trkpt><trkpt lat="40.206670787106276" lon="15.074231558238932"><ele>270.0</ele><time>2026-04-25T17:06:35.999Z</time></trkpt><trkpt lat="40.2066052870555" lon="15.074287435890298"><ele>270.5</ele><time>2026-04-25T17:06:36.999Z</time></trkpt><trkpt lat="40.206524388680755" lon="15.074351093394398"><ele>271.0</ele><time>2026-04-25T17:06:37.999Z</time></trkpt><trkpt lat="40.20648804200184" lon="15.074427007025806"><ele>271.5</ele><time>2026-04-25T17:06:38.999Z</time></trkpt><trkpt lat="40.20647340057231" lon="15.074532831975255"><ele>272.0</ele><time>2026-04-25T17:06:39.999Z</time></trkpt><trkpt lat="40.20647057710167" lon="15.074643228667517"><ele>272.0</ele><time>2026-04-25T17:06:40.999Z</time></trkpt><trkpt lat="40.206424788592294" lon="15.074739833119327"><ele>272.0</ele><time>2026-04-25T17:06:42.999Z</time></trkpt><trkpt lat="40.206295005019705" lon="15.074737984564617"><ele>272.0</ele><time>2026-04-25T17:06:44.999Z</time></trkpt><trkpt lat="40.20620111358298" lon="15.07467830241543"><ele>272.0</ele><time>2026-04-25T17:06:45.999Z</time></trkpt><trkpt lat="40.20608085887157" lon="15.074637113715777"><ele>272.0</ele><time>2026-04-25T17:06:46.999Z</time></trkpt><trkpt lat="40.20594369135583" lon="15.07462039733737"><ele>272.0</ele><time>2026-04-25T17:06:47.999Z</time></trkpt><trkpt lat="40.20584661081678" lon="15.074624233252106"><ele>272.0</ele><time>2026-04-25T17:06:48.999Z</time></trkpt><trkpt lat="40.20572003127232" lon="15.07456523026411"><ele>272.0</ele><time>2026-04-25T17:06:50.999Z</time></trkpt><trkpt lat="40.205631747889285" lon="15.074505504609013"><ele>272.0</ele><time>2026-04-25T17:06:51.999Z</time></trkpt><trkpt lat="40.20554637460552" lon="15.074477027490001"><ele>272.0</ele><time>2026-04-25T17:06:52.999Z</time></trkpt><trkpt lat="40.20547182983501" lon="15.07448989000301"><ele>273.83333333333337</ele><time>2026-04-25T17:06:53.999Z</time></trkpt><trkpt lat="40.205411767359955" lon="15.074525760638343"><ele>275.6666666666667</ele><time>2026-04-25T17:06:54.999Z</time></trkpt><trkpt lat="40.205345798523744" lon="15.074576510519814"><ele>277.5</ele><time>2026-04-25T17:06:55.999Z</time></trkpt><trkpt lat="40.205262790614" lon="15.074645004211032"><ele>279.3333333333333</ele><time>2026-04-25T17:06:56.999Z</time></trkpt><trkpt lat="40.20518811124879" lon="15.074730344261813"><ele>281.16666666666663</ele><time>2026-04-25T17:06:57.999Z</time></trkpt><trkpt lat="40.205113988171505" lon="15.07479422666661"><ele>283.0</ele><time>2026-04-25T17:06:58.999Z</time></trkpt><trkpt lat="40.20504571043042" lon="15.074836751636"><ele>283.0</ele><time>2026-04-25T17:06:59.999Z</time></trkpt><trkpt lat="40.2049461289829" lon="15.074815438467459"><ele>283.0</ele><time>2026-04-25T17:07:01.999Z</time></trkpt><trkpt lat="40.20489101022846" lon="15.074688336244773"><ele>283.0</ele><time>2026-04-25T17:07:03.999Z</time></trkpt><trkpt lat="40.20488756137529" lon="15.07459989694597"><ele>283.0</ele><time>2026-04-25T17:07:04.999Z</time></trkpt><trkpt lat="40.20486780608774" lon="15.074488287319497"><ele>283.0</ele><time>2026-04-25T17:07:05.999Z</time></trkpt><trkpt lat="40.20482235021054" lon="15.074361517653085"><ele>282.6</ele><time>2026-04-25T17:07:06.999Z</time></trkpt><trkpt lat="40.20476154323565" lon="15.074231893524557"><ele>282.20000000000005</ele><time>2026-04-25T17:07:07.999Z</time></trkpt><trkpt lat="40.204662099865686" lon="15.074113519373926"><ele>281.8</ele><time>2026-04-25T17:07:08.999Z</time></trkpt><trkpt lat="40.20459417835558" lon="15.074012987950336"><ele>281.40000000000003</ele><time>2026-04-25T17:07:09.999Z</time></trkpt><trkpt lat="40.20451888023871" lon="15.073934381426865"><ele>281.0</ele><time>2026-04-25T17:07:10.999Z</time></trkpt><trkpt lat="40.20446211960721" lon="15.073846927669628"><ele>281.0</ele><time>2026-04-25T17:07:11.999Z</time></trkpt><trkpt lat="40.204385888347595" lon="15.073768446395219"><ele>281.0</ele><time>2026-04-25T17:07:12.999Z</time></trkpt><trkpt lat="40.20430666474026" lon="15.073702085714043"><ele>281.0</ele><time>2026-04-25T17:07:13.999Z</time></trkpt><trkpt lat="40.20423699844661" lon="15.073672047729854"><ele>281.0</ele><time>2026-04-25T17:07:14.999Z</time></trkpt><trkpt lat="40.20416603999057" lon="15.073665972993306"><ele>281.0</ele><time>2026-04-25T17:07:15.999Z</time></trkpt><trkpt lat="40.204098214296884" lon="15.073689800766504"><ele>281.0</ele><time>2026-04-25T17:07:16.999Z</time></trkpt><trkpt lat="40.20403351302806" lon="15.073747657619922"><ele>283.0</ele><time>2026-04-25T17:07:18Z</time></trkpt><trkpt lat="40.20397116016481" lon="15.073827167787723"><ele>285.0</ele><time>2026-04-25T17:07:19Z</time></trkpt><trkpt lat="40.20392739749341" lon="15.073918936921638"><ele>287.0</ele><time>2026-04-25T17:07:20Z</time></trkpt><trkpt lat="40.20389001090665" lon="15.073994953566189"><ele>289.0</ele><time>2026-04-25T17:07:21Z</time></trkpt><trkpt lat="40.20382693378583" lon="15.074045305597547"><ele>291.0</ele><time>2026-04-25T17:07:23Z</time></trkpt><trkpt lat="40.20372282530796" lon="15.074047041163697"><ele>293.0</ele><time>2026-04-25T17:07:25Z</time></trkpt><trkpt lat="40.20366855940495" lon="15.07400516364901"><ele>293.0</ele><time>2026-04-25T17:07:26Z</time></trkpt><trkpt lat="40.20362267017182" lon="15.073907218934615"><ele>293.0</ele><time>2026-04-25T17:07:27Z</time></trkpt><trkpt lat="40.203570701512035" lon="15.073788039299327"><ele>293.0</ele><time>2026-04-25T17:07:28Z</time></trkpt><trkpt lat="40.20351980486474" lon="15.073667120719222"><ele>293.0</ele><time>2026-04-25T17:07:29Z</time></trkpt><trkpt lat="40.203474194050074" lon="15.073571029461942"><ele>293.0</ele><time>2026-04-25T17:07:30Z</time></trkpt><trkpt lat="40.2034154348517" lon="15.073491871749642"><ele>293.0</ele><time>2026-04-25T17:07:31Z</time></trkpt><trkpt lat="40.20333882470046" lon="15.073436756321138"><ele>293.0</ele><time>2026-04-25T17:07:32Z</time></trkpt><trkpt lat="40.20322840455528" lon="15.073386898659814"><ele>293.0</ele><time>2026-04-25T17:07:33Z</time></trkpt><trkpt lat="40.203100281285025" lon="15.073331283485834"><ele>293.0</ele><time>2026-04-25T17:07:34Z</time></trkpt><trkpt lat="40.203000668895264" lon="15.07328043116539"><ele>293.0</ele><time>2026-04-25T17:07:35Z</time></trkpt><trkpt lat="40.20292670825924" lon="15.07323248471066"><ele>291.4</ele><time>2026-04-25T17:07:36Z</time></trkpt><trkpt lat="40.20286424687002" lon="15.073166813588735"><ele>289.8</ele><time>2026-04-25T17:07:37Z</time></trkpt><trkpt lat="40.20280049772974" lon="15.073078058347653"><ele>288.2</ele><time>2026-04-25T17:07:38Z</time></trkpt><trkpt lat="40.20272548156839" lon="15.072965919347384"><ele>286.6</ele><time>2026-04-25T17:07:39Z</time></trkpt><trkpt lat="40.20267396000377" lon="15.072878443350831"><ele>285.0</ele><time>2026-04-25T17:07:40Z</time></trkpt><trkpt lat="40.202575085348755" lon="15.072820698310865"><ele>285.0</ele><time>2026-04-25T17:07:42Z</time></trkpt><trkpt lat="40.2025086598004" lon="15.072841440920318"><ele>285.0</ele><time>2026-04-25T17:07:43Z</time></trkpt><trkpt lat="40.20244087816782" lon="15.07289832288292"><ele>285.0</ele><time>2026-04-25T17:07:44Z</time></trkpt><trkpt lat="40.202363265730874" lon="15.072985653255005"><ele>285.0</ele><time>2026-04-25T17:07:45Z</time></trkpt><trkpt lat="40.20229420696631" lon="15.073026229302828"><ele>285.0</ele><time>2026-04-25T17:07:46Z</time></trkpt><trkpt lat="40.202196823942394" lon="15.073036381381783"><ele>285.0</ele><time>2026-04-25T17:07:47Z</time></trkpt><trkpt lat="40.20207997513651" lon="15.073046626263285"><ele>283.8</ele><time>2026-04-25T17:07:48Z</time></trkpt><trkpt lat="40.20198296782321" lon="15.073040543014931"><ele>282.6</ele><time>2026-04-25T17:07:49Z</time></trkpt><trkpt lat="40.20189841886326" lon="15.07300925738247"><ele>281.4</ele><time>2026-04-25T17:07:50Z</time></trkpt><trkpt lat="40.20182031114941" lon="15.072980467709172"><ele>280.2</ele><time>2026-04-25T17:07:51Z</time></trkpt><trkpt lat="40.20175755908579" lon="15.072961936540391"><ele>279.0</ele><time>2026-04-25T17:07:52Z</time></trkpt><trkpt lat="40.20163121316914" lon="15.073023340368287"><ele>279.0</ele><time>2026-04-25T17:07:54Z</time></trkpt><trkpt lat="40.2015625352606" lon="15.073091514673049"><ele>279.0</ele><time>2026-04-25T17:07:55Z</time></trkpt><trkpt lat="40.2014731551278" lon="15.073170047792164"><ele>279.0</ele><time>2026-04-25T17:07:56Z</time></trkpt><trkpt lat="40.20137141608227" lon="15.073228085864708"><ele>279.0</ele><time>2026-04-25T17:07:57Z</time></trkpt><trkpt lat="40.20125819840526" lon="15.073258784576906"><ele>279.0</ele><time>2026-04-25T17:07:58Z</time></trkpt><trkpt lat="40.20113794124974" lon="15.073277310809523"><ele>283.4</ele><time>2026-04-25T17:07:59Z</time></trkpt><trkpt lat="40.201021203401936" lon="15.073298562507919"><ele>287.79999999999995</ele><time>2026-04-25T17:08:00Z</time></trkpt><trkpt lat="40.20092260785084" lon="15.073323504296805"><ele>292.20000000000005</ele><time>2026-04-25T17:08:01Z</time></trkpt><trkpt lat="40.20085611127033" lon="15.073326698881006"><ele>296.6</ele><time>2026-04-25T17:08:02Z</time></trkpt><trkpt lat="40.20075750710096" lon="15.073421892288902"><ele>301.0</ele><time>2026-04-25T17:08:04Z</time></trkpt><trkpt lat="40.2007070714555" lon="15.073508536067576"><ele>301.0</ele><time>2026-04-25T17:08:05Z</time></trkpt><trkpt lat="40.20066727243617" lon="15.073634403341059"><ele>301.0</ele><time>2026-04-25T17:08:06Z</time></trkpt><trkpt lat="40.20063521491053" lon="15.073762769752294"><ele>301.0</ele><time>2026-04-25T17:08:07Z</time></trkpt><trkpt lat="40.20061061892792" lon="15.073876262868543"><ele>301.0</ele><time>2026-04-25T17:08:08Z</time></trkpt><trkpt lat="40.20057564970069" lon="15.07398384882863"><ele>301.0</ele><time>2026-04-25T17:08:09Z</time></trkpt><trkpt lat="40.20049918888783" lon="15.074096953029313"><ele>298.75</ele><time>2026-04-25T17:08:10Z</time></trkpt><trkpt lat="40.20040768115139" lon="15.074221524096929"><ele>296.5</ele><time>2026-04-25T17:08:11Z</time></trkpt><trkpt lat="40.20032920294131" lon="15.07434285241069"><ele>294.25</ele><time>2026-04-25T17:08:12Z</time></trkpt><trkpt lat="40.20026103738026" lon="15.07446382743316"><ele>292.0</ele><time>2026-04-25T17:08:13Z</time></trkpt><trkpt lat="40.20020341819213" lon="15.074571728937956"><ele>292.0</ele><time>2026-04-25T17:08:14Z</time></trkpt><trkpt lat="40.200157090660404" lon="15.074667534209171"><ele>292.0</ele><time>2026-04-25T17:08:15Z</time></trkpt><trkpt lat="40.20007504942399" lon="15.07472699643648"><ele>292.0</ele><time>2026-04-25T17:08:17Z</time></trkpt><trkpt lat="40.20001163756519" lon="15.0747037127863"><ele>292.0</ele><time>2026-04-25T17:08:18Z</time></trkpt><trkpt lat="40.199922854621974" lon="15.074675882266172"><ele>292.0</ele><time>2026-04-25T17:08:19Z</time></trkpt><trkpt lat="40.19984450383566" lon="15.074689342474837"><ele>292.0</ele><time>2026-04-25T17:08:20Z</time></trkpt><trkpt lat="40.19977038874155" lon="15.074736630698682"><ele>289.6</ele><time>2026-04-25T17:08:21Z</time></trkpt><trkpt lat="40.19970918166356" lon="15.074816287088447"><ele>287.2</ele><time>2026-04-25T17:08:21.999Z</time></trkpt><trkpt lat="40.19964246253168" lon="15.074935182686358"><ele>284.8</ele><time>2026-04-25T17:08:22.999Z</time></trkpt><trkpt lat="40.19956717879463" lon="15.075069283235083"><ele>282.4</ele><time>2026-04-25T17:08:23.999Z</time></trkpt><trkpt lat="40.1995017193505" lon="15.075186227494042"><ele>280.0</ele><time>2026-04-25T17:08:24.999Z</time></trkpt><trkpt lat="40.19944096139641" lon="15.075317577520613"><ele>280.0</ele><time>2026-04-25T17:08:25.999Z</time></trkpt><trkpt lat="40.19938894910001" lon="15.075439840110517"><ele>280.0</ele><time>2026-04-25T17:08:26.999Z</time></trkpt><trkpt lat="40.19934359142762" lon="15.075557610620917"><ele>280.0</ele><time>2026-04-25T17:08:27.999Z</time></trkpt><trkpt lat="40.1993038432728" lon="15.075666953988529"><ele>280.0</ele><time>2026-04-25T17:08:28.999Z</time></trkpt><trkpt lat="40.19925350447114" lon="15.075768781167701"><ele>280.0</ele><time>2026-04-25T17:08:29.999Z</time></trkpt><trkpt lat="40.199184018943164" lon="15.075874823698447"><ele>276.0</ele><time>2026-04-25T17:08:30.999Z</time></trkpt><trkpt lat="40.19912342670472" lon="15.0759839677335"><ele>272.0</ele><time>2026-04-25T17:08:31.999Z</time></trkpt><trkpt lat="40.19904823793055" lon="15.076096691759405"><ele>268.0</ele><time>2026-04-25T17:08:32.999Z</time></trkpt><trkpt lat="40.198961279423656" lon="15.076233936541131"><ele>264.0</ele><time>2026-04-25T17:08:33.999Z</time></trkpt><trkpt lat="40.19887193018682" lon="15.076353727097272"><ele>264.0</ele><time>2026-04-25T17:08:34.999Z</time></trkpt><trkpt lat="40.19878387592738" lon="15.076471804443049"><ele>264.0</ele><time>2026-04-25T17:08:35.999Z</time></trkpt><trkpt lat="40.19870550971452" lon="15.076583534947183"><ele>264.0</ele><time>2026-04-25T17:08:36.999Z</time></trkpt><trkpt lat="40.19862618810563" lon="15.076683385376883"><ele>264.0</ele><time>2026-04-25T17:08:37.999Z</time></trkpt><trkpt lat="40.19855332974245" lon="15.076772479653453"><ele>268.75</ele><time>2026-04-25T17:08:38.999Z</time></trkpt><trkpt lat="40.19847859111293" lon="15.076849237407147"><ele>273.5</ele><time>2026-04-25T17:08:39.999Z</time></trkpt><trkpt lat="40.19839830618586" lon="15.076943148797174"><ele>278.25</ele><time>2026-04-25T17:08:40.999Z</time></trkpt><trkpt lat="40.19830869498227" lon="15.077079769786062"><ele>283.0</ele><time>2026-04-25T17:08:41.999Z</time></trkpt><trkpt lat="40.19822718717638" lon="15.077241748887957"><ele>280.0</ele><time>2026-04-25T17:08:42.999Z</time></trkpt><trkpt lat="40.198151665531874" lon="15.0773888889472"><ele>277.0</ele><time>2026-04-25T17:08:43.999Z</time></trkpt><trkpt lat="40.19807347436382" lon="15.077515149042528"><ele>274.0</ele><time>2026-04-25T17:08:44.999Z</time></trkpt><trkpt lat="40.19799410294102" lon="15.077632658844104"><ele>271.0</ele><time>2026-04-25T17:08:45.999Z</time></trkpt><trkpt lat="40.197905408752824" lon="15.077737566260048"><ele>271.0</ele><time>2026-04-25T17:08:46.999Z</time></trkpt><trkpt lat="40.19780817318192" lon="15.077828733440795"><ele>271.0</ele><time>2026-04-25T17:08:47.999Z</time></trkpt><trkpt lat="40.197699299769134" lon="15.077910736500144"><ele>271.0</ele><time>2026-04-25T17:08:48.999Z</time></trkpt><trkpt lat="40.19758352526401" lon="15.077990588695782"><ele>271.0</ele><time>2026-04-25T17:08:49.999Z</time></trkpt><trkpt lat="40.1974913252061" lon="15.078078471602199"><ele>271.0</ele><time>2026-04-25T17:08:50.999Z</time></trkpt><trkpt lat="40.19740347140462" lon="15.078158101918754"><ele>271.0</ele><time>2026-04-25T17:08:51.999Z</time></trkpt><trkpt lat="40.1973287802642" lon="15.078224890456667"><ele>271.0</ele><time>2026-04-25T17:08:52.999Z</time></trkpt><trkpt lat="40.19725950640978" lon="15.078307288965966"><ele>271.0</ele><time>2026-04-25T17:08:54.999Z</time></trkpt><trkpt lat="40.197123987588576" lon="15.078493995938429"><ele>270.5</ele><time>2026-04-25T17:09:53Z</time></trkpt><trkpt lat="40.19706194992262" lon="15.07855025699574"><ele>270.0</ele><time>2026-04-25T17:09:54Z</time></trkpt><trkpt lat="40.19699139489913" lon="15.078597821565412"><ele>269.5</ele><time>2026-04-25T17:09:55Z</time></trkpt><trkpt lat="40.19692292947395" lon="15.07864520152875"><ele>269.0</ele><time>2026-04-25T17:09:56Z</time></trkpt><trkpt lat="40.19686302742852" lon="15.078695204572735"><ele>268.5</ele><time>2026-04-25T17:09:57Z</time></trkpt><trkpt lat="40.196808179447636" lon="15.07874735019418"><ele>268.0</ele><time>2026-04-25T17:09:58Z</time></trkpt><trkpt lat="40.196743530055" lon="15.078808155620631"><ele>268.0</ele><time>2026-04-25T17:09:59Z</time></trkpt><trkpt lat="40.1966693544353" lon="15.078874192539335"><ele>268.0</ele><time>2026-04-25T17:10:00Z</time></trkpt><trkpt lat="40.196586187589375" lon="15.078943563436798"><ele>268.0</ele><time>2026-04-25T17:10:01Z</time></trkpt><trkpt lat="40.19649221603974" lon="15.079010935691333"><ele>268.0</ele><time>2026-04-25T17:10:02Z</time></trkpt><trkpt lat="40.19639646093318" lon="15.079074484478122"><ele>268.0</ele><time>2026-04-25T17:10:03Z</time></trkpt><trkpt lat="40.19631790033229" lon="15.079124226641985"><ele>267.0</ele><time>2026-04-25T17:10:04Z</time></trkpt><trkpt lat="40.19623903514522" lon="15.079217691844253"><ele>266.0</ele><time>2026-04-25T17:10:06Z</time></trkpt><trkpt lat="40.19622253063714" lon="15.079297846111636"><ele>265.0</ele><time>2026-04-25T17:10:07Z</time></trkpt><trkpt lat="40.19622082838207" lon="15.07939795303439"><ele>264.0</ele><time>2026-04-25T17:10:08Z</time></trkpt><trkpt lat="40.19623596619647" lon="15.079485652816764"><ele>263.0</ele><time>2026-04-25T17:10:09Z</time></trkpt><trkpt lat="40.196276964808035" lon="15.079573416688127"><ele>262.0</ele><time>2026-04-25T17:10:10Z</time></trkpt><trkpt lat="40.19634003372923" lon="15.07965663422123"><ele>262.0</ele><time>2026-04-25T17:10:11Z</time></trkpt><trkpt lat="40.196417771378606" lon="15.079736001199052"><ele>262.0</ele><time>2026-04-25T17:10:12Z</time></trkpt><trkpt lat="40.19650924697218" lon="15.079822199032582"><ele>262.0</ele><time>2026-04-25T17:10:13Z</time></trkpt><trkpt lat="40.196607031063394" lon="15.079908993503835"><ele>262.0</ele><time>2026-04-25T17:10:14Z</time></trkpt><trkpt lat="40.196698267929094" lon="15.07998385501313"><ele>262.0</ele><time>2026-04-25T17:10:15Z</time></trkpt><trkpt lat="40.19678205909269" lon="15.080045985042887"><ele>265.6</ele><time>2026-04-25T17:10:16Z</time></trkpt><trkpt lat="40.196873496232236" lon="15.080101423127587"><ele>269.2</ele><time>2026-04-25T17:10:17Z</time></trkpt><trkpt lat="40.19698299891911" lon="15.080164451545011"><ele>272.8</ele><time>2026-04-25T17:10:18Z</time></trkpt><trkpt lat="40.19709153328988" lon="15.0802304386926"><ele>276.4</ele><time>2026-04-25T17:10:19Z</time></trkpt><trkpt lat="40.19719119309063" lon="15.080288646698847"><ele>280.0</ele><time>2026-04-25T17:10:20Z</time></trkpt><trkpt lat="40.19727729780271" lon="15.080335969694344"><ele>279.0</ele><time>2026-04-25T17:10:21Z</time></trkpt><trkpt lat="40.197352772965296" lon="15.080391214934972"><ele>278.0</ele><time>2026-04-25T17:10:22Z</time></trkpt><trkpt lat="40.19742975554654" lon="15.080471504373808"><ele>277.0</ele><time>2026-04-25T17:10:23Z</time></trkpt><trkpt lat="40.197501846256614" lon="15.080571650705092"><ele>276.0</ele><time>2026-04-25T17:10:24Z</time></trkpt><trkpt lat="40.19758081058879" lon="15.080684913346373"><ele>275.0</ele><time>2026-04-25T17:10:25Z</time></trkpt><trkpt lat="40.19766524383852" lon="15.080819892677667"><ele>275.0</ele><time>2026-04-25T17:10:26Z</time></trkpt><trkpt lat="40.1977508793711" lon="15.080962567297805"><ele>275.0</ele><time>2026-04-25T17:10:26.999Z</time></trkpt><trkpt lat="40.19783804541406" lon="15.081111348241238"><ele>275.0</ele><time>2026-04-25T17:10:27.999Z</time></trkpt><trkpt lat="40.197925004679895" lon="15.081264184181158"><ele>275.0</ele><time>2026-04-25T17:10:28.999Z</time></trkpt><trkpt lat="40.19801077100231" lon="15.081407160445032"><ele>275.0</ele><time>2026-04-25T17:10:29.999Z</time></trkpt><trkpt lat="40.198086334418164" lon="15.081532316821503"><ele>275.0</ele><time>2026-04-25T17:10:30.999Z</time></trkpt><trkpt lat="40.198153771322254" lon="15.081655782639025"><ele>275.0</ele><time>2026-04-25T17:10:31.999Z</time></trkpt><trkpt lat="40.19821025941517" lon="15.081773373373794"><ele>275.0</ele><time>2026-04-25T17:10:32.999Z</time></trkpt><trkpt lat="40.19824790606217" lon="15.081889978986148"><ele>275.0</ele><time>2026-04-25T17:10:33.999Z</time></trkpt><trkpt lat="40.198268933426085" lon="15.082013076375775"><ele>274.8</ele><time>2026-04-25T17:10:34.999Z</time></trkpt><trkpt lat="40.198272041274116" lon="15.082132836006274"><ele>274.6</ele><time>2026-04-25T17:10:35.999Z</time></trkpt><trkpt lat="40.19826549052512" lon="15.082254894049157"><ele>274.4</ele><time>2026-04-25T17:10:36.999Z</time></trkpt><trkpt lat="40.1982501126819" lon="15.08239642080106"><ele>274.2</ele><time>2026-04-25T17:10:37.999Z</time></trkpt><trkpt lat="40.198233803246275" lon="15.082542928872043"><ele>274.0</ele><time>2026-04-25T17:10:38.999Z</time></trkpt><trkpt lat="40.19822901777468" lon="15.082662578737724"><ele>274.0</ele><time>2026-04-25T17:10:39.999Z</time></trkpt><trkpt lat="40.1982412661883" lon="15.082758103140286"><ele>274.0</ele><time>2026-04-25T17:10:40.999Z</time></trkpt><trkpt lat="40.19827895706842" lon="15.082851944378923"><ele>274.0</ele><time>2026-04-25T17:10:41.999Z</time></trkpt><trkpt lat="40.198351138572804" lon="15.082962193393138"><ele>274.0</ele><time>2026-04-25T17:10:42.999Z</time></trkpt><trkpt lat="40.198432743614305" lon="15.08307910374134"><ele>274.0</ele><time>2026-04-25T17:10:43.999Z</time></trkpt><trkpt lat="40.19849833156787" lon="15.083159578866962"><ele>274.0</ele><time>2026-04-25T17:10:44.999Z</time></trkpt><trkpt lat="40.19853772580481" lon="15.083225443619567"><ele>274.0</ele><time>2026-04-25T17:10:45.999Z</time></trkpt><trkpt lat="40.19856621855098" lon="15.083314579917873"><ele>274.0</ele><time>2026-04-25T17:10:46.999Z</time></trkpt><trkpt lat="40.19857085848235" lon="15.083418896439811"><ele>274.0</ele><time>2026-04-25T17:10:47.999Z</time></trkpt><trkpt lat="40.198545404890744" lon="15.08354221073979"><ele>274.0</ele><time>2026-04-25T17:10:48.999Z</time></trkpt><trkpt lat="40.19853252767005" lon="15.083681167333369"><ele>274.0</ele><time>2026-04-25T17:10:49.999Z</time></trkpt><trkpt lat="40.198538520042455" lon="15.083802481669466"><ele>271.5</ele><time>2026-04-25T17:10:50.999Z</time></trkpt><trkpt lat="40.19857936260772" lon="15.083923932474113"><ele>269.0</ele><time>2026-04-25T17:10:51.999Z</time></trkpt><trkpt lat="40.1986515006204" lon="15.084049503212997"><ele>266.5</ele><time>2026-04-25T17:10:52.999Z</time></trkpt><trkpt lat="40.1987521592777" lon="15.084189990967912"><ele>264.0</ele><time>2026-04-25T17:10:53.999Z</time></trkpt><trkpt lat="40.1988552768149" lon="15.084329241445523"><ele>261.3333333333333</ele><time>2026-04-25T17:10:54.999Z</time></trkpt><trkpt lat="40.19894978739743" lon="15.084464203913663"><ele>258.66666666666663</ele><time>2026-04-25T17:10:55.999Z</time></trkpt><trkpt lat="40.1990541847555" lon="15.084605973310493"><ele>256.0</ele><time>2026-04-25T17:10:56.999Z</time></trkpt><trkpt lat="40.19917953506186" lon="15.084757755218094"><ele>257.66666666666663</ele><time>2026-04-25T17:10:57.999Z</time></trkpt><trkpt lat="40.19929880873894" lon="15.084895176558291"><ele>259.3333333333333</ele><time>2026-04-25T17:10:58.999Z</time></trkpt><trkpt lat="40.19942380170271" lon="15.08503971595671"><ele>261.0</ele><time>2026-04-25T17:10:59.999Z</time></trkpt><trkpt lat="40.19955224979485" lon="15.085184551254866"><ele>261.0</ele><time>2026-04-25T17:11:00.999Z</time></trkpt><trkpt lat="40.199672947792735" lon="15.085314789142194"><ele>261.0</ele><time>2026-04-25T17:11:01.999Z</time></trkpt><trkpt lat="40.19980812688205" lon="15.085452842087124"><ele>261.0</ele><time>2026-04-25T17:11:02.999Z</time></trkpt><trkpt lat="40.199946176832476" lon="15.085600749917047"><ele>261.25</ele><time>2026-04-25T17:11:03.999Z</time></trkpt><trkpt lat="40.200063298614594" lon="15.085727495559329"><ele>261.5</ele><time>2026-04-25T17:11:04.999Z</time></trkpt><trkpt lat="40.200162479203264" lon="15.085846327133053"><ele>261.75</ele><time>2026-04-25T17:11:05.999Z</time></trkpt><trkpt lat="40.200228782110514" lon="15.085997483228903"><ele>262.0</ele><time>2026-04-25T17:11:06.999Z</time></trkpt><trkpt lat="40.20033189739848" lon="15.08610368694218"><ele>262.0</ele><time>2026-04-25T17:11:07.999Z</time></trkpt><trkpt lat="40.20043749209223" lon="15.086217718507214"><ele>262.0</ele><time>2026-04-25T17:11:08.999Z</time></trkpt><trkpt lat="40.200532772034464" lon="15.086316579858172"><ele>262.0</ele><time>2026-04-25T17:11:09.999Z</time></trkpt><trkpt lat="40.20062141860057" lon="15.086401176694212"><ele>262.0</ele><time>2026-04-25T17:11:10.999Z</time></trkpt><trkpt lat="40.20071164314428" lon="15.086466344170171"><ele>262.0</ele><time>2026-04-25T17:11:11.999Z</time></trkpt><trkpt lat="40.200806879450106" lon="15.086523785169957"><ele>262.0</ele><time>2026-04-25T17:11:12.999Z</time></trkpt><trkpt lat="40.20090755625746" lon="15.086576831736712"><ele>262.0</ele><time>2026-04-25T17:11:13.999Z</time></trkpt><trkpt lat="40.20097360806817" lon="15.086628515023685"><ele>262.0</ele><time>2026-04-25T17:11:14.999Z</time></trkpt><trkpt lat="40.201007730567746" lon="15.086708680431846"><ele>262.0</ele><time>2026-04-25T17:11:16.999Z</time></trkpt><trkpt lat="40.20103156100576" lon="15.086854326771245"><ele>262.0</ele><time>2026-04-25T17:11:18.999Z</time></trkpt><trkpt lat="40.20102503511636" lon="15.086963591568857"><ele>262.0</ele><time>2026-04-25T17:11:19.999Z</time></trkpt><trkpt lat="40.200998447506315" lon="15.087094623762363"><ele>262.0</ele><time>2026-04-25T17:11:20.999Z</time></trkpt><trkpt lat="40.20096432950475" lon="15.087240267570785"><ele>262.0</ele><time>2026-04-25T17:11:21.999Z</time></trkpt><trkpt lat="40.20094604158104" lon="15.087369592281435"><ele>262.0</ele><time>2026-04-25T17:11:22.999Z</time></trkpt><trkpt lat="40.200956238542695" lon="15.08749050113284"><ele>260.0</ele><time>2026-04-25T17:11:23.999Z</time></trkpt><trkpt lat="40.2009717983996" lon="15.087598522464308"><ele>258.0</ele><time>2026-04-25T17:11:24.999Z</time></trkpt><trkpt lat="40.20098590458394" lon="15.087721707176435"><ele>256.0</ele><time>2026-04-25T17:11:25.999Z</time></trkpt><trkpt lat="40.20098515599162" lon="15.087848940445703"><ele>254.0</ele><time>2026-04-25T17:11:26.999Z</time></trkpt><trkpt lat="40.200975409950914" lon="15.087947111933946"><ele>251.99999999999997</ele><time>2026-04-25T17:11:27.999Z</time></trkpt><trkpt lat="40.20095580793065" lon="15.088058133234428"><ele>250.0</ele><time>2026-04-25T17:11:28.999Z</time></trkpt><trkpt lat="40.200927918854745" lon="15.088237242173264"><ele>249.2</ele><time>2026-04-25T17:11:30Z</time></trkpt><trkpt lat="40.200880330749946" lon="15.08839331050526"><ele>248.4</ele><time>2026-04-25T17:11:31Z</time></trkpt><trkpt lat="40.200827020012824" lon="15.088505285948225"><ele>247.60000000000002</ele><time>2026-04-25T17:11:32Z</time></trkpt><trkpt lat="40.20080064244304" lon="15.088605031226113"><ele>246.8</ele><time>2026-04-25T17:11:33Z</time></trkpt><trkpt lat="40.200780299085466" lon="15.088755521553397"><ele>246.0</ele><time>2026-04-25T17:11:35Z</time></trkpt><trkpt lat="40.200812322018336" lon="15.088858216796224"><ele>246.0</ele><time>2026-04-25T17:11:36Z</time></trkpt><trkpt lat="40.200866923613496" lon="15.088947961401367"><ele>246.00000000000003</ele><time>2026-04-25T17:11:37Z</time></trkpt><trkpt lat="40.20096029716949" lon="15.08897931281663"><ele>246.00000000000003</ele><time>2026-04-25T17:11:38Z</time></trkpt><trkpt lat="40.201022093803594" lon="15.088997509650415"><ele>246.0</ele><time>2026-04-25T17:11:39Z</time></trkpt><trkpt lat="40.201113669391965" lon="15.089029759656414"><ele>246.0</ele><time>2026-04-25T17:11:40Z</time></trkpt><trkpt lat="40.20121948672753" lon="15.089087016236276"><ele>244.5</ele><time>2026-04-25T17:11:41Z</time></trkpt><trkpt lat="40.201349308548124" lon="15.089158357280727"><ele>243.0</ele><time>2026-04-25T17:11:42Z</time></trkpt><trkpt lat="40.20147321499275" lon="15.08922826382804"><ele>241.5</ele><time>2026-04-25T17:11:43Z</time></trkpt><trkpt lat="40.20156073968047" lon="15.08928752026514"><ele>240.0</ele><time>2026-04-25T17:11:44Z</time></trkpt><trkpt lat="40.20163661075444" lon="15.089349551610745"><ele>242.6</ele><time>2026-04-25T17:11:45Z</time></trkpt><trkpt lat="40.2016906731383" lon="15.089423844608676"><ele>245.2</ele><time>2026-04-25T17:11:46Z</time></trkpt><trkpt lat="40.201764605149215" lon="15.0895120147366"><ele>247.8</ele><time>2026-04-25T17:11:47Z</time></trkpt><trkpt lat="40.20183490429057" lon="15.089576635823025"><ele>250.4</ele><time>2026-04-25T17:11:48Z</time></trkpt><trkpt lat="40.20193408047866" lon="15.08960474597171"><ele>253.0</ele><time>2026-04-25T17:11:49Z</time></trkpt><trkpt lat="40.202027717262965" lon="15.089620020859975"><ele>253.0</ele><time>2026-04-25T17:11:50Z</time></trkpt><trkpt lat="40.20214313849495" lon="15.089614752777353"><ele>253.0</ele><time>2026-04-25T17:11:51Z</time></trkpt><trkpt lat="40.202236799990104" lon="15.089622202634544"><ele>253.0</ele><time>2026-04-25T17:11:52Z</time></trkpt><trkpt lat="40.202314407973354" lon="15.089571404578237"><ele>253.0</ele><time>2026-04-25T17:11:53Z</time></trkpt><trkpt lat="40.20240649282321" lon="15.089647233328984"><ele>253.0</ele><time>2026-04-25T17:11:55Z</time></trkpt><trkpt lat="40.20245024008408" lon="15.08976266247669"><ele>251.25</ele><time>2026-04-25T17:11:57Z</time></trkpt><trkpt lat="40.20244641168991" lon="15.089861985027413"><ele>249.5</ele><time>2026-04-25T17:11:58Z</time></trkpt><trkpt lat="40.202405902192666" lon="15.090018267688977"><ele>247.75</ele><time>2026-04-25T17:11:59Z</time></trkpt><trkpt lat="40.20236223605509" lon="15.090225077128494"><ele>246.0</ele><time>2026-04-25T17:12:00Z</time></trkpt><trkpt lat="40.20232708812288" lon="15.090414422753812"><ele>240.0</ele><time>2026-04-25T17:12:01Z</time></trkpt><trkpt lat="40.20230491460368" lon="15.090577057375299"><ele>234.0</ele><time>2026-04-25T17:12:02Z</time></trkpt><trkpt lat="40.202220898571575" lon="15.090702780852185"><ele>228.0</ele><time>2026-04-25T17:12:03Z</time></trkpt><trkpt lat="40.20218772858893" lon="15.090872941472806"><ele>222.0</ele><time>2026-04-25T17:12:04Z</time></trkpt><trkpt lat="40.202161585364095" lon="15.091037366047807"><ele>219.0</ele><time>2026-04-25T17:12:05Z</time></trkpt><trkpt lat="40.20213472286663" lon="15.091202597539631"><ele>216.0</ele><time>2026-04-25T17:12:06Z</time></trkpt><trkpt lat="40.202102284902374" lon="15.09135287550549"><ele>213.0</ele><time>2026-04-25T17:12:07Z</time></trkpt><trkpt lat="40.20206880525409" lon="15.091505089875007"><ele>210.0</ele><time>2026-04-25T17:12:08Z</time></trkpt><trkpt lat="40.202033688489365" lon="15.091644218102584"><ele>210.0</ele><time>2026-04-25T17:12:09Z</time></trkpt><trkpt lat="40.20199486002098" lon="15.09176214237851"><ele>210.0</ele><time>2026-04-25T17:12:10Z</time></trkpt><trkpt lat="40.201950796926496" lon="15.091875964719847"><ele>210.0</ele><time>2026-04-25T17:12:11Z</time></trkpt><trkpt lat="40.20188810154855" lon="15.091984184634159"><ele>210.0</ele><time>2026-04-25T17:12:12Z</time></trkpt><trkpt lat="40.20180438297086" lon="15.092071473704955"><ele>210.0</ele><time>2026-04-25T17:12:13Z</time></trkpt><trkpt lat="40.201723215924815" lon="15.092158411161058"><ele>210.0</ele><time>2026-04-25T17:12:14Z</time></trkpt><trkpt lat="40.20164908188201" lon="15.092252378689043"><ele>210.0</ele><time>2026-04-25T17:12:15Z</time></trkpt><trkpt lat="40.20163180536605" lon="15.092373264402058"><ele>210.0</ele><time>2026-04-25T17:12:16Z</time></trkpt><trkpt lat="40.201608864290016" lon="15.092462940494134"><ele>210.0</ele><time>2026-04-25T17:12:17Z</time></trkpt><trkpt lat="40.20160457654926" lon="15.09256009517625"><ele>210.0</ele><time>2026-04-25T17:12:18Z</time></trkpt><trkpt lat="40.201680302735106" lon="15.092680945780995"><ele>211.75</ele><time>2026-04-25T17:12:20Z</time></trkpt><trkpt lat="40.20175621529066" lon="15.092725012105836"><ele>213.5</ele><time>2026-04-25T17:12:21Z</time></trkpt><trkpt lat="40.20185987171799" lon="15.092736873345126"><ele>215.25</ele><time>2026-04-25T17:12:22Z</time></trkpt><trkpt lat="40.20200447458143" lon="15.092748506792802"><ele>217.0</ele><time>2026-04-25T17:12:23Z</time></trkpt><trkpt lat="40.2021403770818" lon="15.09276720928454"><ele>216.99999999999997</ele><time>2026-04-25T17:12:24Z</time></trkpt><trkpt lat="40.202217023986016" lon="15.092779509046608"><ele>217.0</ele><time>2026-04-25T17:12:25Z</time></trkpt><trkpt lat="40.20228711815328" lon="15.092809856779951"><ele>217.0</ele><time>2026-04-25T17:12:26Z</time></trkpt><trkpt lat="40.202347226189005" lon="15.092860637455663"><ele>217.0</ele><time>2026-04-25T17:12:26.999Z</time></trkpt><trkpt lat="40.2023946336384" lon="15.092959154666495"><ele>216.99999999999997</ele><time>2026-04-25T17:12:27.999Z</time></trkpt><trkpt lat="40.202430325531374" lon="15.093107632468481"><ele>217.0</ele><time>2026-04-25T17:12:28.999Z</time></trkpt><trkpt lat="40.20242574590195" lon="15.093295645481485"><ele>215.0</ele><time>2026-04-25T17:12:29.999Z</time></trkpt><trkpt lat="40.20240324154676" lon="15.093549203783592"><ele>213.0</ele><time>2026-04-25T17:12:30.999Z</time></trkpt><trkpt lat="40.20237530086555" lon="15.093840236211427"><ele>211.0</ele><time>2026-04-25T17:12:31.999Z</time></trkpt><trkpt lat="40.20232796616736" lon="15.094109439974899"><ele>201.66666666666666</ele><time>2026-04-25T17:12:32.999Z</time></trkpt><trkpt lat="40.20222933330888" lon="15.094336533441245"><ele>192.33333333333331</ele><time>2026-04-25T17:12:33.999Z</time></trkpt><trkpt lat="40.202154022439565" lon="15.094583523342504"><ele>183.0</ele><time>2026-04-25T17:12:34.999Z</time></trkpt><trkpt lat="40.202042076676186" lon="15.094810019362395"><ele>188.0</ele><time>2026-04-25T17:12:35.999Z</time></trkpt><trkpt lat="40.20187797670161" lon="15.094989073832725"><ele>193.0</ele><time>2026-04-25T17:12:36.999Z</time></trkpt><trkpt lat="40.201729723815475" lon="15.095187733149066"><ele>198.0</ele><time>2026-04-25T17:12:37.999Z</time></trkpt><trkpt lat="40.20161131632806" lon="15.09537811420495"><ele>200.66666666666669</ele><time>2026-04-25T17:12:38.999Z</time></trkpt><trkpt lat="40.20148126116136" lon="15.095505861777951"><ele>203.33333333333334</ele><time>2026-04-25T17:12:39.999Z</time></trkpt><trkpt lat="40.20136802106723" lon="15.09563825828054"><ele>206.0</ele><time>2026-04-25T17:12:40.999Z</time></trkpt><trkpt lat="40.20126046806807" lon="15.095782366660524"><ele>206.0</ele><time>2026-04-25T17:12:41.999Z</time></trkpt><trkpt lat="40.20116123445899" lon="15.095962970841079"><ele>206.0</ele><time>2026-04-25T17:12:42.999Z</time></trkpt><trkpt lat="40.201050052562245" lon="15.096108123706156"><ele>206.0</ele><time>2026-04-25T17:12:43.999Z</time></trkpt><trkpt lat="40.20098151123952" lon="15.096262586120014"><ele>206.0</ele><time>2026-04-25T17:12:44.999Z</time></trkpt><trkpt lat="40.20090461770358" lon="15.096388362638779"><ele>206.0</ele><time>2026-04-25T17:12:45.999Z</time></trkpt><trkpt lat="40.200874128580146" lon="15.09655537625128"><ele>206.0</ele><time>2026-04-25T17:12:46.999Z</time></trkpt><trkpt lat="40.20086585883286" lon="15.096729023577193"><ele>206.0</ele><time>2026-04-25T17:12:47.999Z</time></trkpt><trkpt lat="40.20084868052154" lon="15.096882064647327"><ele>205.5</ele><time>2026-04-25T17:12:48.999Z</time></trkpt><trkpt lat="40.20081474048693" lon="15.097008612039536"><ele>205.0</ele><time>2026-04-25T17:12:49.999Z</time></trkpt><trkpt lat="40.20073716987384" lon="15.097153140313514"><ele>204.5</ele><time>2026-04-25T17:12:50.999Z</time></trkpt><trkpt lat="40.20063417565632" lon="15.097307334445253"><ele>204.0</ele><time>2026-04-25T17:12:51.999Z</time></trkpt><trkpt lat="40.20055493064086" lon="15.09744656311272"><ele>204.0</ele><time>2026-04-25T17:12:52.999Z</time></trkpt><trkpt lat="40.20045883845745" lon="15.097578484815832"><ele>204.0</ele><time>2026-04-25T17:12:53.999Z</time></trkpt><trkpt lat="40.20036203311679" lon="15.09770790913796"><ele>204.0</ele><time>2026-04-25T17:12:54.999Z</time></trkpt><trkpt lat="40.200263895242074" lon="15.09783705314382"><ele>204.0</ele><time>2026-04-25T17:12:55.999Z</time></trkpt><trkpt lat="40.200163524986145" lon="15.097951635117576"><ele>204.0</ele><time>2026-04-25T17:12:56.999Z</time></trkpt><trkpt lat="40.20006124549418" lon="15.098048230310033"><ele>204.0</ele><time>2026-04-25T17:12:57.999Z</time></trkpt><trkpt lat="40.1999516497322" lon="15.09813327086357"><ele>204.0</ele><time>2026-04-25T17:12:58.999Z</time></trkpt><trkpt lat="40.199839869840055" lon="15.09820793740752"><ele>204.0</ele><time>2026-04-25T17:12:59.999Z</time></trkpt><trkpt lat="40.199719074801585" lon="15.098285981053069"><ele>202.75</ele><time>2026-04-25T17:13:00.999Z</time></trkpt><trkpt lat="40.19959545610532" lon="15.098366181276559"><ele>201.5</ele><time>2026-04-25T17:13:01.999Z</time></trkpt><trkpt lat="40.1994692493502" lon="15.09844829659115"><ele>200.25</ele><time>2026-04-25T17:13:02.999Z</time></trkpt><trkpt lat="40.19934633010294" lon="15.0985269447905"><ele>199.0</ele><time>2026-04-25T17:13:03.999Z</time></trkpt><trkpt lat="40.19922827432676" lon="15.09860364913324"><ele>199.0</ele><time>2026-04-25T17:13:04.999Z</time></trkpt><trkpt lat="40.199112984915494" lon="15.09868154052085"><ele>199.0</ele><time>2026-04-25T17:13:05.999Z</time></trkpt><trkpt lat="40.198996230051876" lon="15.098752105396432"><ele>199.0</ele><time>2026-04-25T17:13:06.999Z</time></trkpt><trkpt lat="40.198868006989876" lon="15.098818999875142"><ele>199.0</ele><time>2026-04-25T17:13:07.999Z</time></trkpt><trkpt lat="40.19873684231788" lon="15.09888322679424"><ele>198.0</ele><time>2026-04-25T17:13:08.999Z</time></trkpt><trkpt lat="40.1985973436697" lon="15.098962306816095"><ele>197.0</ele><time>2026-04-25T17:13:09.999Z</time></trkpt><trkpt lat="40.19845025387689" lon="15.099058270411517"><ele>196.0</ele><time>2026-04-25T17:13:10.999Z</time></trkpt><trkpt lat="40.19832481920452" lon="15.099171771232083"><ele>196.0</ele><time>2026-04-25T17:13:11.999Z</time></trkpt><trkpt lat="40.198189488627186" lon="15.09929715676464"><ele>196.0</ele><time>2026-04-25T17:13:12.999Z</time></trkpt><trkpt lat="40.198051821960725" lon="15.099423237669162"><ele>196.0</ele><time>2026-04-25T17:13:13.999Z</time></trkpt><trkpt lat="40.19792745482928" lon="15.099536127118315"><ele>193.33333333333331</ele><time>2026-04-25T17:13:14.999Z</time></trkpt><trkpt lat="40.197804901317554" lon="15.099640995530553"><ele>190.66666666666666</ele><time>2026-04-25T17:13:15.999Z</time></trkpt><trkpt lat="40.197666085076094" lon="15.09974170834677"><ele>188.0</ele><time>2026-04-25T17:13:16.999Z</time></trkpt><trkpt lat="40.19751364655342" lon="15.099853095617949"><ele>191.0</ele><time>2026-04-25T17:13:17.999Z</time></trkpt><trkpt lat="40.197375502475616" lon="15.099956679130942"><ele>194.0</ele><time>2026-04-25T17:13:18.999Z</time></trkpt><trkpt lat="40.1972433031129" lon="15.100055805162766"><ele>197.0</ele><time>2026-04-25T17:13:19.999Z</time></trkpt><trkpt lat="40.19711496501828" lon="15.10017372250279"><ele>198.33333333333334</ele><time>2026-04-25T17:13:20.999Z</time></trkpt><trkpt lat="40.19697049190398" lon="15.100274566363424"><ele>199.66666666666669</ele><time>2026-04-25T17:13:21.999Z</time></trkpt><trkpt lat="40.196834210792474" lon="15.100375307027184"><ele>201.0</ele><time>2026-04-25T17:13:22.999Z</time></trkpt><trkpt lat="40.19672402191098" lon="15.100468840371057"><ele>201.0</ele><time>2026-04-25T17:13:23.999Z</time></trkpt><trkpt lat="40.196623284579644" lon="15.100529904547574"><ele>201.0</ele><time>2026-04-25T17:13:24.999Z</time></trkpt><trkpt lat="40.19654451363126" lon="15.100584981365449"><ele>201.0</ele><time>2026-04-25T17:13:25.999Z</time></trkpt><trkpt lat="40.196450648132114" lon="15.10063758620072"><ele>201.0</ele><time>2026-04-25T17:13:27.999Z</time></trkpt><trkpt lat="40.19634987114814" lon="15.100775665897661"><ele>201.0</ele><time>2026-04-25T17:13:29.999Z</time></trkpt><trkpt lat="40.19626369848231" lon="15.100825560142763"><ele>203.33333333333334</ele><time>2026-04-25T17:13:30.999Z</time></trkpt><trkpt lat="40.196185586617105" lon="15.100877986369742"><ele>205.66666666666669</ele><time>2026-04-25T17:13:31.999Z</time></trkpt><trkpt lat="40.19608232516072" lon="15.100968770260272"><ele>208.0</ele><time>2026-04-25T17:13:33.999Z</time></trkpt><trkpt lat="40.196025547344654" lon="15.101023726282802"><ele>210.33333333333334</ele><time>2026-04-25T17:13:35Z</time></trkpt><trkpt lat="40.19596698607183" lon="15.101089830238237"><ele>212.66666666666669</ele><time>2026-04-25T17:13:36Z</time></trkpt><trkpt lat="40.19591404135219" lon="15.101151871072505"><ele>215.0</ele><time>2026-04-25T17:13:37Z</time></trkpt><trkpt lat="40.19585917591036" lon="15.101216162620888"><ele>215.0</ele><time>2026-04-25T17:13:38Z</time></trkpt><trkpt lat="40.19580676325828" lon="15.101277579943476"><ele>215.0</ele><time>2026-04-25T17:13:39Z</time></trkpt><trkpt lat="40.19571199214029" lon="15.101396059987751"><ele>215.0</ele><time>2026-04-25T17:13:41Z</time></trkpt><trkpt lat="40.19565279704063" lon="15.101468609964137"><ele>215.0</ele><time>2026-04-25T17:13:42Z</time></trkpt><trkpt lat="40.195601474354966" lon="15.101526021635811"><ele>215.0</ele><time>2026-04-25T17:13:43Z</time></trkpt><trkpt lat="40.19555598999373" lon="15.101656970182553"><ele>219.0</ele><time>2026-04-25T17:13:45Z</time></trkpt><trkpt lat="40.19551426602448" lon="15.101730564258766"><ele>223.0</ele><time>2026-04-25T17:13:46Z</time></trkpt><trkpt lat="40.195459948122625" lon="15.101847792838514"><ele>227.0</ele><time>2026-04-25T17:13:47Z</time></trkpt><trkpt lat="40.19540658114432" lon="15.101981634807654"><ele>231.0</ele><time>2026-04-25T17:13:48Z</time></trkpt><trkpt lat="40.19535713512557" lon="15.102115419206328"><ele>235.0</ele><time>2026-04-25T17:13:49Z</time></trkpt><trkpt lat="40.19531334475003" lon="15.102220285459728"><ele>235.0</ele><time>2026-04-25T17:13:50Z</time></trkpt><trkpt lat="40.195247888188874" lon="15.102341591999279"><ele>235.0</ele><time>2026-04-25T17:13:51Z</time></trkpt><trkpt lat="40.195170004859" lon="15.102483150891086"><ele>235.0</ele><time>2026-04-25T17:13:52Z</time></trkpt><trkpt lat="40.19511544069315" lon="15.102612529140348"><ele>235.0</ele><time>2026-04-25T17:13:53Z</time></trkpt><trkpt lat="40.195078484910034" lon="15.102733783196058"><ele>237.2</ele><time>2026-04-25T17:13:54Z</time></trkpt><trkpt lat="40.19504706347145" lon="15.102833698330402"><ele>239.4</ele><time>2026-04-25T17:13:55Z</time></trkpt><trkpt lat="40.195004114107434" lon="15.10295213643478"><ele>241.60000000000002</ele><time>2026-04-25T17:13:56Z</time></trkpt><trkpt lat="40.19495583942322" lon="15.103059489410894"><ele>243.8</ele><time>2026-04-25T17:13:57Z</time></trkpt><trkpt lat="40.194916072900185" lon="15.10315550875362"><ele>246.0</ele><time>2026-04-25T17:13:58Z</time></trkpt><trkpt lat="40.19486778292634" lon="15.103261017727526"><ele>247.60000000000002</ele><time>2026-04-25T17:13:59Z</time></trkpt><trkpt lat="40.194764609560245" lon="15.103365022435476"><ele>249.20000000000002</ele><time>2026-04-25T17:14:00Z</time></trkpt><trkpt lat="40.19472653394965" lon="15.10349613235462"><ele>250.79999999999998</ele><time>2026-04-25T17:14:01Z</time></trkpt><trkpt lat="40.194707079142184" lon="15.103587178759552"><ele>252.39999999999998</ele><time>2026-04-25T17:14:02Z</time></trkpt><trkpt lat="40.194684477111174" lon="15.103689280479584"><ele>254.0</ele><time>2026-04-25T17:14:04Z</time></trkpt><trkpt lat="40.1946616265452" lon="15.103813836837904"><ele>254.0</ele><time>2026-04-25T17:14:06Z</time></trkpt><trkpt lat="40.1946812853684" lon="15.103946343091817"><ele>253.99999999999997</ele><time>2026-04-25T17:14:07Z</time></trkpt><trkpt lat="40.19468961284796" lon="15.104057342401351"><ele>253.99999999999997</ele><time>2026-04-25T17:14:08Z</time></trkpt><trkpt lat="40.19470676849082" lon="15.104168167000067"><ele>254.0</ele><time>2026-04-25T17:14:09Z</time></trkpt><trkpt lat="40.19474161007523" lon="15.104280967867812"><ele>254.0</ele><time>2026-04-25T17:14:10Z</time></trkpt><trkpt lat="40.194781183552855" lon="15.10438186441255"><ele>253.50000000000003</ele><time>2026-04-25T17:14:11Z</time></trkpt><trkpt lat="40.19480867362457" lon="15.104478742482694"><ele>253.0</ele><time>2026-04-25T17:14:12Z</time></trkpt><trkpt lat="40.19482374381013" lon="15.104567491999441"><ele>252.5</ele><time>2026-04-25T17:14:13Z</time></trkpt><trkpt lat="40.19483004158166" lon="15.104673741956528"><ele>252.0</ele><time>2026-04-25T17:14:14Z</time></trkpt><trkpt lat="40.19482338867742" lon="15.104777955058502"><ele>251.50000000000003</ele><time>2026-04-25T17:14:15Z</time></trkpt><trkpt lat="40.194805876332964" lon="15.104889141492533"><ele>251.0</ele><time>2026-04-25T17:14:16Z</time></trkpt><trkpt lat="40.19476875164118" lon="15.104985989428664"><ele>251.00000000000003</ele><time>2026-04-25T17:14:17Z</time></trkpt><trkpt lat="40.194714568909575" lon="15.10507577573983"><ele>251.0</ele><time>2026-04-25T17:14:18Z</time></trkpt><trkpt lat="40.1946607902048" lon="15.10516629925324"><ele>251.0</ele><time>2026-04-25T17:14:19Z</time></trkpt><trkpt lat="40.194614537377845" lon="15.105251977370306"><ele>251.0</ele><time>2026-04-25T17:14:20Z</time></trkpt><trkpt lat="40.19457124274312" lon="15.105326193275802"><ele>251.00000000000003</ele><time>2026-04-25T17:14:21Z</time></trkpt><trkpt lat="40.194512910402146" lon="15.10538896721526"><ele>251.0</ele><time>2026-04-25T17:14:22Z</time></trkpt><trkpt lat="40.194439341969236" lon="15.105460764849795"><ele>251.0</ele><time>2026-04-25T17:14:23Z</time></trkpt><trkpt lat="40.19436143339298" lon="15.105552197789326"><ele>251.00000000000003</ele><time>2026-04-25T17:14:24Z</time></trkpt><trkpt lat="40.194301318167525" lon="15.105664638388674"><ele>251.00000000000003</ele><time>2026-04-25T17:14:25Z</time></trkpt><trkpt lat="40.19426973143153" lon="15.105784885560988"><ele>251.0</ele><time>2026-04-25T17:14:26Z</time></trkpt><trkpt lat="40.19422855597305" lon="15.105895024956851"><ele>251.0</ele><time>2026-04-25T17:14:27Z</time></trkpt><trkpt lat="40.1941957541666" lon="15.106009804993224"><ele>249.8</ele><time>2026-04-25T17:14:28Z</time></trkpt><trkpt lat="40.194121452695626" lon="15.106073662876387"><ele>248.60000000000002</ele><time>2026-04-25T17:14:29Z</time></trkpt><trkpt lat="40.19405882143538" lon="15.106136420957768"><ele>247.4</ele><time>2026-04-25T17:14:30Z</time></trkpt><trkpt lat="40.19398435629202" lon="15.106210930939195"><ele>246.2</ele><time>2026-04-25T17:14:30.999Z</time></trkpt><trkpt lat="40.193886264580605" lon="15.10628468683833"><ele>245.0</ele><time>2026-04-25T17:14:31.999Z</time></trkpt><trkpt lat="40.193792398711224" lon="15.106417169076217"><ele>243.4</ele><time>2026-04-25T17:14:32.999Z</time></trkpt><trkpt lat="40.19370589356818" lon="15.106536472661915"><ele>241.8</ele><time>2026-04-25T17:14:33.999Z</time></trkpt><trkpt lat="40.19364079547766" lon="15.10663367322206"><ele>240.2</ele><time>2026-04-25T17:14:34.999Z</time></trkpt><trkpt lat="40.19358782197838" lon="15.10671277007476"><ele>238.6</ele><time>2026-04-25T17:14:35.999Z</time></trkpt><trkpt lat="40.1935344450316" lon="15.106790647547054"><ele>237.0</ele><time>2026-04-25T17:14:36.999Z</time></trkpt><trkpt lat="40.193478064135476" lon="15.106872017976237"><ele>237.0</ele><time>2026-04-25T17:14:37.999Z</time></trkpt><trkpt lat="40.19342119581272" lon="15.10695190348785"><ele>237.0</ele><time>2026-04-25T17:14:38.999Z</time></trkpt><trkpt lat="40.19337309741147" lon="15.107045019688359"><ele>237.0</ele><time>2026-04-25T17:14:39.999Z</time></trkpt><trkpt lat="40.193307838180395" lon="15.107128245696199"><ele>237.0</ele><time>2026-04-25T17:14:40.999Z</time></trkpt><trkpt lat="40.193228190844515" lon="15.107210574764256"><ele>237.0</ele><time>2026-04-25T17:14:41.999Z</time></trkpt><trkpt lat="40.19315957780743" lon="15.107305958101916"><ele>233.39999999999998</ele><time>2026-04-25T17:14:42.999Z</time></trkpt><trkpt lat="40.19309426182946" lon="15.107403493138028"><ele>229.79999999999998</ele><time>2026-04-25T17:14:43.999Z</time></trkpt><trkpt lat="40.19304056949643" lon="15.107520673795781"><ele>226.2</ele><time>2026-04-25T17:14:44.999Z</time></trkpt><trkpt lat="40.19296333509788" lon="15.10761102373636"><ele>222.6</ele><time>2026-04-25T17:14:45.999Z</time></trkpt><trkpt lat="40.19289982638086" lon="15.10771239411388"><ele>219.0</ele><time>2026-04-25T17:14:46.999Z</time></trkpt><trkpt lat="40.19283606323231" lon="15.107810807198904"><ele>219.0</ele><time>2026-04-25T17:14:47.999Z</time></trkpt><trkpt lat="40.19276947430079" lon="15.107918618108595"><ele>218.99999999999997</ele><time>2026-04-25T17:14:48.999Z</time></trkpt><trkpt lat="40.192699681612794" lon="15.108044845455673"><ele>218.99999999999997</ele><time>2026-04-25T17:14:49.999Z</time></trkpt><trkpt lat="40.1926360218411" lon="15.108170199238142"><ele>219.0</ele><time>2026-04-25T17:14:50.999Z</time></trkpt><trkpt lat="40.19258776365051" lon="15.1082845238748"><ele>219.0</ele><time>2026-04-25T17:14:51.999Z</time></trkpt><trkpt lat="40.19255559132299" lon="15.108392075977239"><ele>219.16666666666666</ele><time>2026-04-25T17:14:52.999Z</time></trkpt><trkpt lat="40.19254434765304" lon="15.10850789121425"><ele>219.33333333333331</ele><time>2026-04-25T17:14:53.999Z</time></trkpt><trkpt lat="40.19253381110714" lon="15.108607738642064"><ele>219.5</ele><time>2026-04-25T17:14:54.999Z</time></trkpt><trkpt lat="40.19250521215215" lon="15.108698142653315"><ele>219.66666666666666</ele><time>2026-04-25T17:14:55.999Z</time></trkpt><trkpt lat="40.192492924136964" lon="15.108781877852344"><ele>219.83333333333331</ele><time>2026-04-25T17:14:56.999Z</time></trkpt><trkpt lat="40.19247651670823" lon="15.108886063734152"><ele>220.0</ele><time>2026-04-25T17:14:57.999Z</time></trkpt><trkpt lat="40.19245877115744" lon="15.109000106780558"><ele>218.99999999999997</ele><time>2026-04-25T17:14:58.999Z</time></trkpt><trkpt lat="40.19244147515237" lon="15.10910262103814"><ele>218.0</ele><time>2026-04-25T17:14:59.999Z</time></trkpt><trkpt lat="40.19242177052395" lon="15.109203716903606"><ele>217.0</ele><time>2026-04-25T17:15:00.999Z</time></trkpt><trkpt lat="40.19239728680227" lon="15.109307516237271"><ele>216.0</ele><time>2026-04-25T17:15:01.999Z</time></trkpt><trkpt lat="40.192374195324874" lon="15.109398788316645"><ele>215.0</ele><time>2026-04-25T17:15:02.999Z</time></trkpt><trkpt lat="40.19235432342287" lon="15.10947733443302"><ele>213.99999999999997</ele><time>2026-04-25T17:15:03.999Z</time></trkpt><trkpt lat="40.19234772690609" lon="15.10956452465878"><ele>213.0</ele><time>2026-04-25T17:15:04.999Z</time></trkpt><trkpt lat="40.192299456430774" lon="15.109728008786323"><ele>212.2</ele><time>2026-04-25T17:15:06.999Z</time></trkpt><trkpt lat="40.19232989936591" lon="15.109894352183362"><ele>211.4</ele><time>2026-04-25T17:15:07.999Z</time></trkpt><trkpt lat="40.19232953294686" lon="15.110018583480588"><ele>210.6</ele><time>2026-04-25T17:15:08.999Z</time></trkpt><trkpt lat="40.19232613752797" lon="15.11013338271102"><ele>209.79999999999998</ele><time>2026-04-25T17:15:09.999Z</time></trkpt><trkpt lat="40.192320178072734" lon="15.110217199485112"><ele>209.0</ele><time>2026-04-25T17:15:10.999Z</time></trkpt><trkpt lat="40.1923054627417" lon="15.11032520871293"><ele>205.25</ele><time>2026-04-25T17:15:12.999Z</time></trkpt><trkpt lat="40.192448128834826" lon="15.110435246098993"><ele>201.5</ele><time>2026-04-25T17:15:15.999Z</time></trkpt><trkpt lat="40.192517789937654" lon="15.110336277796296"><ele>197.75</ele><time>2026-04-25T17:15:16.999Z</time></trkpt><trkpt lat="40.1925987465774" lon="15.110251529276736"><ele>194.0</ele><time>2026-04-25T17:15:17.999Z</time></trkpt><trkpt lat="40.192681609248176" lon="15.110131705579033"><ele>194.0</ele><time>2026-04-25T17:15:18.999Z</time></trkpt><trkpt lat="40.19274661937956" lon="15.110004581624617"><ele>194.0</ele><time>2026-04-25T17:15:19.999Z</time></trkpt><trkpt lat="40.19280136892955" lon="15.109885294252463"><ele>194.0</ele><time>2026-04-25T17:15:20.999Z</time></trkpt><trkpt lat="40.19286221734824" lon="15.1098028362699"><ele>194.0</ele><time>2026-04-25T17:15:21.999Z</time></trkpt><trkpt lat="40.192941387965256" lon="15.109774382118973"><ele>194.0</ele><time>2026-04-25T17:15:22.999Z</time></trkpt><trkpt lat="40.193041300756214" lon="15.109799148184322"><ele>195.0</ele><time>2026-04-25T17:15:23.999Z</time></trkpt><trkpt lat="40.19317372853118" lon="15.109781415595545"><ele>196.0</ele><time>2026-04-25T17:15:24.999Z</time></trkpt><trkpt lat="40.193309185623136" lon="15.10976942178757"><ele>197.0</ele><time>2026-04-25T17:15:25.999Z</time></trkpt><trkpt lat="40.19344288695544" lon="15.109761284672135"><ele>198.0</ele><time>2026-04-25T17:15:26.999Z</time></trkpt><trkpt lat="40.193557394208554" lon="15.109753510125374"><ele>198.0</ele><time>2026-04-25T17:15:27.999Z</time></trkpt><trkpt lat="40.19365856983254" lon="15.109743985335106"><ele>198.0</ele><time>2026-04-25T17:15:28.999Z</time></trkpt><trkpt lat="40.19376248581774" lon="15.109735938313962"><ele>198.0</ele><time>2026-04-25T17:15:29.999Z</time></trkpt><trkpt lat="40.19387364596033" lon="15.109730084605367"><ele>198.0</ele><time>2026-04-25T17:15:30.999Z</time></trkpt><trkpt lat="40.193993570581135" lon="15.109696289673366"><ele>198.0</ele><time>2026-04-25T17:15:31.999Z</time></trkpt><trkpt lat="40.1941047381262" lon="15.109615253203744"><ele>195.83333333333334</ele><time>2026-04-25T17:15:32.999Z</time></trkpt><trkpt lat="40.1942029027547" lon="15.109586742710489"><ele>193.66666666666666</ele><time>2026-04-25T17:15:33.999Z</time></trkpt><trkpt lat="40.19427630351959" lon="15.10956850062595"><ele>191.5</ele><time>2026-04-25T17:15:34.999Z</time></trkpt><trkpt lat="40.19434086641346" lon="15.10957629202918"><ele>189.33333333333331</ele><time>2026-04-25T17:15:35.999Z</time></trkpt><trkpt lat="40.19441941206257" lon="15.109584465261438"><ele>187.16666666666666</ele><time>2026-04-25T17:15:36.999Z</time></trkpt><trkpt lat="40.19449130051858" lon="15.10961000906912"><ele>185.0</ele><time>2026-04-25T17:15:37.999Z</time></trkpt><trkpt lat="40.194559788208416" lon="15.109646463651378"><ele>185.0</ele><time>2026-04-25T17:15:38.999Z</time></trkpt><trkpt lat="40.19463964116653" lon="15.10969658335765"><ele>185.0</ele><time>2026-04-25T17:15:40Z</time></trkpt><trkpt lat="40.19470645036642" lon="15.10977188097849"><ele>185.0</ele><time>2026-04-25T17:15:41Z</time></trkpt><trkpt lat="40.19475339158273" lon="15.109861484360485"><ele>185.0</ele><time>2026-04-25T17:15:42Z</time></trkpt><trkpt lat="40.19478907801776" lon="15.109976741475123"><ele>185.0</ele><time>2026-04-25T17:15:43Z</time></trkpt><trkpt lat="40.194849534204344" lon="15.110110916552474"><ele>181.2</ele><time>2026-04-25T17:15:44Z</time></trkpt><trkpt lat="40.19492637580404" lon="15.110211111583729"><ele>177.4</ele><time>2026-04-25T17:15:45Z</time></trkpt><trkpt lat="40.195011527679746" lon="15.110294762361631"><ele>173.60000000000002</ele><time>2026-04-25T17:15:46Z</time></trkpt><trkpt lat="40.19511826618413" lon="15.110342661588248"><ele>169.8</ele><time>2026-04-25T17:15:47Z</time></trkpt><trkpt lat="40.19521813121076" lon="15.110361654251337"><ele>166.0</ele><time>2026-04-25T17:15:48Z</time></trkpt><trkpt lat="40.19531053017177" lon="15.110369568527329"><ele>166.0</ele><time>2026-04-25T17:15:49Z</time></trkpt><trkpt lat="40.19539122304493" lon="15.11039028686506"><ele>166.0</ele><time>2026-04-25T17:15:50Z</time></trkpt><trkpt lat="40.19546612656763" lon="15.110417111130042"><ele>166.0</ele><time>2026-04-25T17:15:51Z</time></trkpt><trkpt lat="40.195535674388736" lon="15.110457413576336"><ele>166.0</ele><time>2026-04-25T17:15:52Z</time></trkpt><trkpt lat="40.195589668436945" lon="15.110505059102259"><ele>166.0</ele><time>2026-04-25T17:15:53Z</time></trkpt><trkpt lat="40.19562864746089" lon="15.110570596132346"><ele>166.0</ele><time>2026-04-25T17:15:54Z</time></trkpt><trkpt lat="40.195683082201775" lon="15.110672666889544"><ele>163.4</ele><time>2026-04-25T17:15:55Z</time></trkpt><trkpt lat="40.19574117152734" lon="15.110796846351507"><ele>160.8</ele><time>2026-04-25T17:15:56Z</time></trkpt><trkpt lat="40.19580656996971" lon="15.11092577053516"><ele>158.20000000000002</ele><time>2026-04-25T17:15:57Z</time></trkpt><trkpt lat="40.19587019387148" lon="15.111040519386613"><ele>155.60000000000002</ele><time>2026-04-25T17:15:58Z</time></trkpt><trkpt lat="40.19593702261348" lon="15.111141602535993"><ele>153.0</ele><time>2026-04-25T17:15:59Z</time></trkpt><trkpt lat="40.19601183138173" lon="15.111225892571953"><ele>153.0</ele><time>2026-04-25T17:16:00Z</time></trkpt><trkpt lat="40.19609705081191" lon="15.111296213154317"><ele>153.0</ele><time>2026-04-25T17:16:01Z</time></trkpt><trkpt lat="40.19621660153058" lon="15.111338852847393"><ele>153.0</ele><time>2026-04-25T17:16:02Z</time></trkpt><trkpt lat="40.19632697328621" lon="15.111360477358886"><ele>153.0</ele><time>2026-04-25T17:16:03Z</time></trkpt><trkpt lat="40.196414977220485" lon="15.11136269428005"><ele>153.0</ele><time>2026-04-25T17:16:04Z</time></trkpt><trkpt lat="40.196499590011555" lon="15.111343736147091"><ele>151.6</ele><time>2026-04-25T17:16:05Z</time></trkpt><trkpt lat="40.19658345614375" lon="15.111263592290461"><ele>150.20000000000002</ele><time>2026-04-25T17:16:06Z</time></trkpt><trkpt lat="40.19667394465124" lon="15.11116650056204"><ele>148.8</ele><time>2026-04-25T17:16:07Z</time></trkpt><trkpt lat="40.19674830334182" lon="15.11106639878969"><ele>147.4</ele><time>2026-04-25T17:16:08Z</time></trkpt><trkpt lat="40.19680311715153" lon="15.110947574352931"><ele>146.0</ele><time>2026-04-25T17:16:09Z</time></trkpt><trkpt lat="40.196840707206334" lon="15.110811460643863"><ele>148.4</ele><time>2026-04-25T17:16:10Z</time></trkpt><trkpt lat="40.19688218089343" lon="15.110700527191177"><ele>150.8</ele><time>2026-04-25T17:16:11Z</time></trkpt><trkpt lat="40.1969667766931" lon="15.110645823146411"><ele>153.20000000000002</ele><time>2026-04-25T17:16:12Z</time></trkpt><trkpt lat="40.19705783554673" lon="15.110604353263925"><ele>155.6</ele><time>2026-04-25T17:16:13Z</time></trkpt><trkpt lat="40.19716308363258" lon="15.110572276222822"><ele>158.0</ele><time>2026-04-25T17:16:14Z</time></trkpt><trkpt lat="40.197266105794746" lon="15.110518734459792"><ele>155.4</ele><time>2026-04-25T17:16:15Z</time></trkpt><trkpt lat="40.197353061950544" lon="15.110457245219065"><ele>152.8</ele><time>2026-04-25T17:16:16Z</time></trkpt><trkpt lat="40.197431432707994" lon="15.110421706100164"><ele>150.2</ele><time>2026-04-25T17:16:17Z</time></trkpt><trkpt lat="40.19751287259632" lon="15.11040133939167"><ele>147.6</ele><time>2026-04-25T17:16:18Z</time></trkpt><trkpt lat="40.197591282330805" lon="15.110432244970454"><ele>145.0</ele><time>2026-04-25T17:16:19Z</time></trkpt><trkpt lat="40.19769248445574" lon="15.110469999167853"><ele>145.0</ele><time>2026-04-25T17:16:20Z</time></trkpt><trkpt lat="40.19781796765162" lon="15.110515726510037"><ele>145.0</ele><time>2026-04-25T17:16:21Z</time></trkpt><trkpt lat="40.19793983925717" lon="15.11053285307479"><ele>145.0</ele><time>2026-04-25T17:16:22Z</time></trkpt><trkpt lat="40.1980533544359" lon="15.1105457478429"><ele>145.0</ele><time>2026-04-25T17:16:23Z</time></trkpt><trkpt lat="40.19814968850266" lon="15.110558639132057"><ele>142.6</ele><time>2026-04-25T17:16:24Z</time></trkpt><trkpt lat="40.198249137756676" lon="15.110586815884353"><ele>140.2</ele><time>2026-04-25T17:16:25Z</time></trkpt><trkpt lat="40.19833330919041" lon="15.110637081985848"><ele>137.8</ele><time>2026-04-25T17:16:26Z</time></trkpt><trkpt lat="40.19841582622441" lon="15.110704520504832"><ele>135.4</ele><time>2026-04-25T17:16:27Z</time></trkpt><trkpt lat="40.19850838603401" lon="15.11078532182557"><ele>133.0</ele><time>2026-04-25T17:16:28Z</time></trkpt><trkpt lat="40.198592639943364" lon="15.110855544817738"><ele>133.0</ele><time>2026-04-25T17:16:29Z</time></trkpt><trkpt lat="40.19865880262473" lon="15.110904534196363"><ele>133.0</ele><time>2026-04-25T17:16:30Z</time></trkpt><trkpt lat="40.19873679675693" lon="15.110916998983809"><ele>133.0</ele><time>2026-04-25T17:16:31Z</time></trkpt><trkpt lat="40.19881182123276" lon="15.110875321985054"><ele>133.0</ele><time>2026-04-25T17:16:32Z</time></trkpt><trkpt lat="40.19884084608357" lon="15.110731166932679"><ele>133.0</ele><time>2026-04-25T17:16:33Z</time></trkpt><trkpt lat="40.19886178319886" lon="15.110575052056133"><ele>133.0</ele><time>2026-04-25T17:16:34Z</time></trkpt><trkpt lat="40.19886519095284" lon="15.110401934955908"><ele>133.0</ele><time>2026-04-25T17:16:34.999Z</time></trkpt><trkpt lat="40.19887661384973" lon="15.110248771673994"><ele>133.0</ele><time>2026-04-25T17:16:35.999Z</time></trkpt><trkpt lat="40.19889055034005" lon="15.110098206414479"><ele>133.0</ele><time>2026-04-25T17:16:36.999Z</time></trkpt><trkpt lat="40.1989057024505" lon="15.109956704274854"><ele>132.20000000000002</ele><time>2026-04-25T17:16:37.999Z</time></trkpt><trkpt lat="40.19888024158847" lon="15.109828126882187"><ele>131.4</ele><time>2026-04-25T17:16:38.999Z</time></trkpt><trkpt lat="40.19882573710714" lon="15.109716748385905"><ele>130.60000000000002</ele><time>2026-04-25T17:16:39.999Z</time></trkpt><trkpt lat="40.19874948128244" lon="15.109601449177521"><ele>129.8</ele><time>2026-04-25T17:16:40.999Z</time></trkpt><trkpt lat="40.19867237230548" lon="15.1094697589091"><ele>129.0</ele><time>2026-04-25T17:16:41.999Z</time></trkpt><trkpt lat="40.19861955365198" lon="15.109364496919838"><ele>129.0</ele><time>2026-04-25T17:16:42.999Z</time></trkpt><trkpt lat="40.19858818516946" lon="15.109269332615607"><ele>129.0</ele><time>2026-04-25T17:16:43.999Z</time></trkpt><trkpt lat="40.19859026089636" lon="15.109165944361818"><ele>129.0</ele><time>2026-04-25T17:16:44.999Z</time></trkpt><trkpt lat="40.19862770018149" lon="15.109048620117527"><ele>129.0</ele><time>2026-04-25T17:16:45.999Z</time></trkpt><trkpt lat="40.198676880469314" lon="15.108939913713847"><ele>129.0</ele><time>2026-04-25T17:16:46.999Z</time></trkpt><trkpt lat="40.198692827135396" lon="15.108812873291354"><ele>127.5</ele><time>2026-04-25T17:16:47.999Z</time></trkpt><trkpt lat="40.19866981176915" lon="15.108643815892703"><ele>126.0</ele><time>2026-04-25T17:16:48.999Z</time></trkpt><trkpt lat="40.1986393248015" lon="15.10845017286436"><ele>124.5</ele><time>2026-04-25T17:16:49.999Z</time></trkpt><trkpt lat="40.1986184965968" lon="15.108262382864753"><ele>123.0</ele><time>2026-04-25T17:16:50.999Z</time></trkpt><trkpt lat="40.19860106040334" lon="15.108103998289808"><ele>122.66666666666667</ele><time>2026-04-25T17:16:51.999Z</time></trkpt><trkpt lat="40.19858975858044" lon="15.107968604262899"><ele>122.33333333333334</ele><time>2026-04-25T17:16:52.999Z</time></trkpt><trkpt lat="40.198585160471865" lon="15.107848746017762"><ele>122.0</ele><time>2026-04-25T17:16:53.999Z</time></trkpt><trkpt lat="40.19859392811599" lon="15.107725725332577"><ele>121.66666666666667</ele><time>2026-04-25T17:16:54.999Z</time></trkpt><trkpt lat="40.198618908621725" lon="15.10763587820891"><ele>121.33333333333334</ele><time>2026-04-25T17:16:55.999Z</time></trkpt><trkpt lat="40.19866786781459" lon="15.107567250395366"><ele>121.0</ele><time>2026-04-25T17:16:56.999Z</time></trkpt><trkpt lat="40.1987501046921" lon="15.107561613931164"><ele>121.0</ele><time>2026-04-25T17:16:57.999Z</time></trkpt><trkpt lat="40.198828841483" lon="15.107585625677325"><ele>121.0</ele><time>2026-04-25T17:16:58.999Z</time></trkpt><trkpt lat="40.1989497025057" lon="15.107571664886933"><ele>121.0</ele><time>2026-04-25T17:16:59.999Z</time></trkpt><trkpt lat="40.19907795869789" lon="15.107531903751497"><ele>121.0</ele><time>2026-04-25T17:17:00.999Z</time></trkpt><trkpt lat="40.199223261088335" lon="15.107454132945001"><ele>121.25</ele><time>2026-04-25T17:17:01.999Z</time></trkpt><trkpt lat="40.19935286600881" lon="15.107394928568674"><ele>121.5</ele><time>2026-04-25T17:17:02.999Z</time></trkpt><trkpt lat="40.19947791619033" lon="15.107313336754556"><ele>121.75</ele><time>2026-04-25T17:17:03.999Z</time></trkpt><trkpt lat="40.199590989136844" lon="15.107223870953693"><ele>122.0</ele><time>2026-04-25T17:17:04.999Z</time></trkpt><trkpt lat="40.19969677913069" lon="15.107138430929945"><ele>122.0</ele><time>2026-04-25T17:17:05.999Z</time></trkpt><trkpt lat="40.19979230555884" lon="15.107042991526615"><ele>122.0</ele><time>2026-04-25T17:17:06.999Z</time></trkpt><trkpt lat="40.199885151001524" lon="15.106898611209086"><ele>122.0</ele><time>2026-04-25T17:17:07.999Z</time></trkpt><trkpt lat="40.199964482185464" lon="15.106753959839862"><ele>122.0</ele><time>2026-04-25T17:17:08.999Z</time></trkpt><trkpt lat="40.20001769748054" lon="15.106616995782288"><ele>121.0</ele><time>2026-04-25T17:17:09.999Z</time></trkpt><trkpt lat="40.20004848038058" lon="15.106437870004765"><ele>120.0</ele><time>2026-04-25T17:17:10.999Z</time></trkpt><trkpt lat="40.200067679055394" lon="15.106235373387435"><ele>119.0</ele><time>2026-04-25T17:17:11.999Z</time></trkpt><trkpt lat="40.200070273072924" lon="15.106039315550731"><ele>118.0</ele><time>2026-04-25T17:17:12.999Z</time></trkpt><trkpt lat="40.20008017393711" lon="15.105856750353984"><ele>118.25</ele><time>2026-04-25T17:17:13.999Z</time></trkpt><trkpt lat="40.200091004711716" lon="15.105686088639239"><ele>118.5</ele><time>2026-04-25T17:17:14.999Z</time></trkpt><trkpt lat="40.20009621593266" lon="15.105507144219551"><ele>118.75</ele><time>2026-04-25T17:17:15.999Z</time></trkpt><trkpt lat="40.20009273540355" lon="15.105319855260651"><ele>119.0</ele><time>2026-04-25T17:17:16.999Z</time></trkpt><trkpt lat="40.20008615449955" lon="15.105171829113514"><ele>119.0</ele><time>2026-04-25T17:17:17.999Z</time></trkpt><trkpt lat="40.200091380520135" lon="15.105068147257386"><ele>119.0</ele><time>2026-04-25T17:17:18.999Z</time></trkpt><trkpt lat="40.20019160342837" lon="15.1049430386156"><ele>119.0</ele><time>2026-04-25T17:17:20.999Z</time></trkpt><trkpt lat="40.200300003375254" lon="15.104983136840309"><ele>119.0</ele><time>2026-04-25T17:17:21.999Z</time></trkpt><trkpt lat="40.20041879399205" lon="15.104983396744041"><ele>119.0</ele><time>2026-04-25T17:17:22.999Z</time></trkpt><trkpt lat="40.20054520932731" lon="15.10500035787462"><ele>118.99999999999999</ele><time>2026-04-25T17:17:23.999Z</time></trkpt><trkpt lat="40.20065935781535" lon="15.105018180312383"><ele>119.0</ele><time>2026-04-25T17:17:24.999Z</time></trkpt><trkpt lat="40.200751911338884" lon="15.105023878160846"><ele>119.0</ele><time>2026-04-25T17:17:25.999Z</time></trkpt><trkpt lat="40.20083300205945" lon="15.105010261096421"><ele>119.0</ele><time>2026-04-25T17:17:26.999Z</time></trkpt><trkpt lat="40.20090155885951" lon="15.104947768306342"><ele>118.99999999999999</ele><time>2026-04-25T17:17:27.999Z</time></trkpt><trkpt lat="40.200941579609704" lon="15.104880712666626"><ele>119.0</ele><time>2026-04-25T17:17:28.999Z</time></trkpt><trkpt lat="40.20093361219865" lon="15.1047960703867"><ele>119.75</ele><time>2026-04-25T17:17:29.999Z</time></trkpt><trkpt lat="40.20088079516126" lon="15.104612211922722"><ele>120.5</ele><time>2026-04-25T17:17:31.999Z</time></trkpt><trkpt lat="40.20079449458887" lon="15.104489244943254"><ele>121.25</ele><time>2026-04-25T17:17:32.999Z</time></trkpt><trkpt lat="40.20071458157016" lon="15.104366065739478"><ele>122.0</ele><time>2026-04-25T17:17:33.999Z</time></trkpt><trkpt lat="40.20064694313573" lon="15.104250777269023"><ele>122.0</ele><time>2026-04-25T17:17:34.999Z</time></trkpt><trkpt lat="40.20059495345821" lon="15.104158463948377"><ele>121.99999999999999</ele><time>2026-04-25T17:17:35.999Z</time></trkpt><trkpt lat="40.20057911514675" lon="15.104015937023956"><ele>121.99999999999999</ele><time>2026-04-25T17:17:37.999Z</time></trkpt><trkpt lat="40.20067134571506" lon="15.103928919288782"><ele>122.0</ele><time>2026-04-25T17:17:39.999Z</time></trkpt><trkpt lat="40.20075360835484" lon="15.103999928250948"><ele>122.0</ele><time>2026-04-25T17:17:40.999Z</time></trkpt><trkpt lat="40.20086296803208" lon="15.104044195305166"><ele>120.0</ele><time>2026-04-25T17:17:41.999Z</time></trkpt><trkpt lat="40.20097018695658" lon="15.104046027305536"><ele>117.99999999999999</ele><time>2026-04-25T17:17:42.999Z</time></trkpt><trkpt lat="40.20106421267385" lon="15.10399758120459"><ele>115.99999999999999</ele><time>2026-04-25T17:17:43.999Z</time></trkpt><trkpt lat="40.201162525918285" lon="15.103956475889847"><ele>114.0</ele><time>2026-04-25T17:17:45Z</time></trkpt><trkpt lat="40.20123699292758" lon="15.103866527846808"><ele>112.0</ele><time>2026-04-25T17:17:46Z</time></trkpt><trkpt lat="40.2013131069208" lon="15.103773598772936"><ele>112.0</ele><time>2026-04-25T17:17:47Z</time></trkpt><trkpt lat="40.20138524837017" lon="15.103644423628445"><ele>112.0</ele><time>2026-04-25T17:17:48Z</time></trkpt><trkpt lat="40.201463675535834" lon="15.103510786403605"><ele>112.0</ele><time>2026-04-25T17:17:49Z</time></trkpt><trkpt lat="40.20153450081129" lon="15.103395415858804"><ele>112.0</ele><time>2026-04-25T17:17:50Z</time></trkpt><trkpt lat="40.201589176870996" lon="15.103297955026502"><ele>111.00000000000001</ele><time>2026-04-25T17:17:51Z</time></trkpt><trkpt lat="40.201634930423545" lon="15.103219665686636"><ele>110.0</ele><time>2026-04-25T17:17:52Z</time></trkpt><trkpt lat="40.20170839120288" lon="15.103127939334671"><ele>109.0</ele><time>2026-04-25T17:17:54Z</time></trkpt><trkpt lat="40.20177660062451" lon="15.103148994438854"><ele>108.0</ele><time>2026-04-25T17:17:55Z</time></trkpt><trkpt lat="40.20183535313446" lon="15.103208783203339"><ele>107.00000000000001</ele><time>2026-04-25T17:17:56Z</time></trkpt><trkpt lat="40.20188573588078" lon="15.103309001852324"><ele>106.0</ele><time>2026-04-25T17:17:57Z</time></trkpt><trkpt lat="40.2019537401382" lon="15.103379276697966"><ele>106.00000000000001</ele><time>2026-04-25T17:17:58Z</time></trkpt><trkpt lat="40.20202547197562" lon="15.103416962441992"><ele>106.0</ele><time>2026-04-25T17:17:59Z</time></trkpt><trkpt lat="40.202109239057194" lon="15.103416576753991"><ele>106.0</ele><time>2026-04-25T17:18:00Z</time></trkpt><trkpt lat="40.202184174176104" lon="15.103326568462894"><ele>106.0</ele><time>2026-04-25T17:18:01Z</time></trkpt><trkpt lat="40.20225878727728" lon="15.103253880154181"><ele>106.00000000000001</ele><time>2026-04-25T17:18:02Z</time></trkpt><trkpt lat="40.20232129902031" lon="15.103166923969699"><ele>106.0</ele><time>2026-04-25T17:18:03Z</time></trkpt><trkpt lat="40.20237202133281" lon="15.103093682176992"><ele>102.19999999999999</ele><time>2026-04-25T17:18:04Z</time></trkpt><trkpt lat="40.20245736376184" lon="15.103018505860758"><ele>98.39999999999999</ele><time>2026-04-25T17:18:06Z</time></trkpt><trkpt lat="40.20255607023793" lon="15.103036209921067"><ele>94.6</ele><time>2026-04-25T17:18:08Z</time></trkpt><trkpt lat="40.20264444759664" lon="15.103130237578487"><ele>90.8</ele><time>2026-04-25T17:18:10Z</time></trkpt><trkpt lat="40.20268732260675" lon="15.103217302643445"><ele>87.0</ele><time>2026-04-25T17:18:11Z</time></trkpt><trkpt lat="40.2026282900023" lon="15.10338013690447"><ele>85.75</ele><time>2026-04-25T17:18:12Z</time></trkpt><trkpt lat="40.202629535075616" lon="15.103546476413173"><ele>84.5</ele><time>2026-04-25T17:18:13Z</time></trkpt><trkpt lat="40.202620345452836" lon="15.10370924085584"><ele>83.25</ele><time>2026-04-25T17:18:14Z</time></trkpt><trkpt lat="40.20259437719665" lon="15.103871420684731"><ele>82.0</ele><time>2026-04-25T17:18:15Z</time></trkpt><trkpt lat="40.202569864055725" lon="15.104061674253833"><ele>81.25</ele><time>2026-04-25T17:18:16Z</time></trkpt><trkpt lat="40.20255362082676" lon="15.10425675899507"><ele>80.5</ele><time>2026-04-25T17:18:17Z</time></trkpt><trkpt lat="40.20254803941839" lon="15.104444233249517"><ele>79.75</ele><time>2026-04-25T17:18:18Z</time></trkpt><trkpt lat="40.20254511593626" lon="15.104613135047707"><ele>79.0</ele><time>2026-04-25T17:18:19Z</time></trkpt><trkpt lat="40.20254323932381" lon="15.104774101896345"><ele>80.25</ele><time>2026-04-25T17:18:20Z</time></trkpt><trkpt lat="40.20254894813778" lon="15.104938657693257"><ele>81.5</ele><time>2026-04-25T17:18:21Z</time></trkpt><trkpt lat="40.20257374532176" lon="15.10511322437263"><ele>82.75</ele><time>2026-04-25T17:18:22Z</time></trkpt><trkpt lat="40.202639829477924" lon="15.105288918955939"><ele>84.0</ele><time>2026-04-25T17:18:23Z</time></trkpt><trkpt lat="40.202672970735215" lon="15.105462726331329"><ele>84.0</ele><time>2026-04-25T17:18:24Z</time></trkpt><trkpt lat="40.20270039131446" lon="15.105616921439935"><ele>84.0</ele><time>2026-04-25T17:18:25Z</time></trkpt><trkpt lat="40.20272324246834" lon="15.105742540803481"><ele>84.0</ele><time>2026-04-25T17:18:26Z</time></trkpt><trkpt lat="40.202720888577865" lon="15.105866976698795"><ele>84.0</ele><time>2026-04-25T17:18:27Z</time></trkpt><trkpt lat="40.20273494208515" lon="15.106026643751912"><ele>84.0</ele><time>2026-04-25T17:18:29Z</time></trkpt><trkpt lat="40.20270162064142" lon="15.106111223405849"><ele>83.5</ele><time>2026-04-25T17:18:30Z</time></trkpt><trkpt lat="40.202638089604854" lon="15.106230726290223"><ele>83.0</ele><time>2026-04-25T17:18:31Z</time></trkpt><trkpt lat="40.202561347588656" lon="15.106396399931885"><ele>82.5</ele><time>2026-04-25T17:18:32Z</time></trkpt><trkpt lat="40.202490437214145" lon="15.106547612325308"><ele>82.0</ele><time>2026-04-25T17:18:33Z</time></trkpt><trkpt lat="40.20241713531735" lon="15.10666756766298"><ele>79.8</ele><time>2026-04-25T17:18:34Z</time></trkpt><trkpt lat="40.20233715252491" lon="15.106790875990571"><ele>77.6</ele><time>2026-04-25T17:18:35Z</time></trkpt><trkpt lat="40.20224569080313" lon="15.106887618355985"><ele>75.39999999999999</ele><time>2026-04-25T17:18:36Z</time></trkpt><trkpt lat="40.20215593480529" lon="15.106965563317045"><ele>73.19999999999999</ele><time>2026-04-25T17:18:37Z</time></trkpt><trkpt lat="40.202091483526665" lon="15.106997431587885"><ele>71.0</ele><time>2026-04-25T17:18:38Z</time></trkpt><trkpt lat="40.202019800031024" lon="15.10703051562051"><ele>71.0</ele><time>2026-04-25T17:18:39Z</time></trkpt><trkpt lat="40.201921279979274" lon="15.107077502860115"><ele>71.0</ele><time>2026-04-25T17:18:40Z</time></trkpt><trkpt lat="40.20178984217676" lon="15.107108869811194"><ele>71.0</ele><time>2026-04-25T17:18:41Z</time></trkpt><trkpt lat="40.20164104772842" lon="15.107141620767683"><ele>71.0</ele><time>2026-04-25T17:18:42Z</time></trkpt><trkpt lat="40.2015007244959" lon="15.107150982637963"><ele>72.0</ele><time>2026-04-25T17:18:42.999Z</time></trkpt><trkpt lat="40.20139006423657" lon="15.107178932453369"><ele>73.0</ele><time>2026-04-25T17:18:43.999Z</time></trkpt><trkpt lat="40.20130292091724" lon="15.107205614662602"><ele>74.0</ele><time>2026-04-25T17:18:44.999Z</time></trkpt><trkpt lat="40.2012273650435" lon="15.10724472035513"><ele>75.0</ele><time>2026-04-25T17:18:45.999Z</time></trkpt><trkpt lat="40.201161220328295" lon="15.107310760680837"><ele>76.0</ele><time>2026-04-25T17:18:46.999Z</time></trkpt><trkpt lat="40.201113226438736" lon="15.107429174101306"><ele>76.0</ele><time>2026-04-25T17:18:47.999Z</time></trkpt><trkpt lat="40.20109772108394" lon="15.107594529379279"><ele>76.0</ele><time>2026-04-25T17:18:48.999Z</time></trkpt><trkpt lat="40.201096739287024" lon="15.10774990739721"><ele>76.0</ele><time>2026-04-25T17:18:49.999Z</time></trkpt><trkpt lat="40.201123235977434" lon="15.10792296799654"><ele>76.0</ele><time>2026-04-25T17:18:50.999Z</time></trkpt><trkpt lat="40.20116208189869" lon="15.108080029416119"><ele>76.0</ele><time>2026-04-25T17:18:51.999Z</time></trkpt><trkpt lat="40.20120401860299" lon="15.108235455658725"><ele>76.0</ele><time>2026-04-25T17:18:52.999Z</time></trkpt><trkpt lat="40.201240336484965" lon="15.108387471614545"><ele>76.0</ele><time>2026-04-25T17:18:53.999Z</time></trkpt><trkpt lat="40.20126346260905" lon="15.108547258932346"><ele>76.0</ele><time>2026-04-25T17:18:54.999Z</time></trkpt><trkpt lat="40.201280504934225" lon="15.108712379183341"><ele>73.39999999999999</ele><time>2026-04-25T17:18:55.999Z</time></trkpt><trkpt lat="40.201293853769016" lon="15.10887269771761"><ele>70.8</ele><time>2026-04-25T17:18:56.999Z</time></trkpt><trkpt lat="40.20130796880579" lon="15.109009368944935"><ele>68.19999999999999</ele><time>2026-04-25T17:18:57.999Z</time></trkpt><trkpt lat="40.20128869360711" lon="15.109113479876214"><ele>65.6</ele><time>2026-04-25T17:18:58.999Z</time></trkpt><trkpt lat="40.20134877922422" lon="15.109271122300594"><ele>63.0</ele><time>2026-04-25T17:18:59.999Z</time></trkpt><trkpt lat="40.20137209712697" lon="15.109412550689262"><ele>62.166666666666664</ele><time>2026-04-25T17:19:00.999Z</time></trkpt><trkpt lat="40.2014108101403" lon="15.10954320049206"><ele>61.33333333333333</ele><time>2026-04-25T17:19:01.999Z</time></trkpt><trkpt lat="40.20144744497593" lon="15.10965578515764"><ele>60.5</ele><time>2026-04-25T17:19:02.999Z</time></trkpt><trkpt lat="40.20151739046789" lon="15.109731447376232"><ele>59.666666666666664</ele><time>2026-04-25T17:19:03.999Z</time></trkpt><trkpt lat="40.20159199801198" lon="15.109732501119568"><ele>58.83333333333333</ele><time>2026-04-25T17:19:05.999Z</time></trkpt><trkpt lat="40.20166766598636" lon="15.109756598618144"><ele>58.0</ele><time>2026-04-25T17:19:07.999Z</time></trkpt><trkpt lat="40.20174223435459" lon="15.109776596004737"><ele>58.0</ele><time>2026-04-25T17:19:09.999Z</time></trkpt><trkpt lat="40.201573078956045" lon="15.109762214152731"><ele>58.0</ele><time>2026-04-25T17:19:31.999Z</time></trkpt><trkpt lat="40.20150055145114" lon="15.109698223542315"><ele>58.0</ele><time>2026-04-25T17:19:32.999Z</time></trkpt><trkpt lat="40.20148164079842" lon="15.109612839189401"><ele>58.0</ele><time>2026-04-25T17:19:33.999Z</time></trkpt><trkpt lat="40.20143610488267" lon="15.109545469295755"><ele>58.0</ele><time>2026-04-25T17:19:36.999Z</time></trkpt><trkpt lat="40.201294071072645" lon="15.109639614238933"><ele>57.599999999999994</ele><time>2026-04-25T17:19:38.999Z</time></trkpt><trkpt lat="40.201225052795074" lon="15.109733931336674"><ele>57.199999999999996</ele><time>2026-04-25T17:19:39.999Z</time></trkpt><trkpt lat="40.20116347555567" lon="15.109825917380102"><ele>56.8</ele><time>2026-04-25T17:19:40.999Z</time></trkpt><trkpt lat="40.201096808506534" lon="15.109922005109581"><ele>56.4</ele><time>2026-04-25T17:19:41.999Z</time></trkpt><trkpt lat="40.20101608181481" lon="15.110029915406548"><ele>56.0</ele><time>2026-04-25T17:19:42.999Z</time></trkpt><trkpt lat="40.20095122958582" lon="15.11012563524402"><ele>56.0</ele><time>2026-04-25T17:19:43.999Z</time></trkpt><trkpt lat="40.20089256794103" lon="15.110220954078464"><ele>55.99999999999999</ele><time>2026-04-25T17:19:44.999Z</time></trkpt><trkpt lat="40.20083922339318" lon="15.11032174725258"><ele>55.99999999999999</ele><time>2026-04-25T17:19:45.999Z</time></trkpt><trkpt lat="40.200783642119326" lon="15.11043391405942"><ele>56.0</ele><time>2026-04-25T17:19:46.999Z</time></trkpt><trkpt lat="40.20071929705683" lon="15.110564470209741"><ele>56.0</ele><time>2026-04-25T17:19:47.999Z</time></trkpt><trkpt lat="40.200660452935175" lon="15.110697044638133"><ele>56.66666666666667</ele><time>2026-04-25T17:19:48.999Z</time></trkpt><trkpt lat="40.2006200298812" lon="15.110792687072097"><ele>57.333333333333336</ele><time>2026-04-25T17:19:50Z</time></trkpt><trkpt lat="40.20058853177358" lon="15.110866621960206"><ele>58.0</ele><time>2026-04-25T17:19:51Z</time></trkpt><trkpt lat="40.20056393294614" lon="15.11095991158264"><ele>58.66666666666667</ele><time>2026-04-25T17:19:52Z</time></trkpt><trkpt lat="40.200555293587534" lon="15.111053856047386"><ele>59.333333333333336</ele><time>2026-04-25T17:19:53Z</time></trkpt><trkpt lat="40.20060715006241" lon="15.111171998223575"><ele>60.0</ele><time>2026-04-25T17:20:02Z</time></trkpt><trkpt lat="40.200536899000895" lon="15.11130455166836"><ele>60.0</ele><time>2026-04-25T17:20:04Z</time></trkpt><trkpt lat="40.200605335883964" lon="15.111293318483275"><ele>60.0</ele><time>2026-04-25T17:20:07Z</time></trkpt><trkpt lat="40.20053815214971" lon="15.111378755662471"><ele>60.0</ele><time>2026-04-25T17:20:12Z</time></trkpt><trkpt lat="40.20055483926597" lon="15.111518067884104"><ele>60.0</ele><time>2026-04-25T17:20:14Z</time></trkpt><trkpt lat="40.20062707688314" lon="15.111554594230329"><ele>60.0</ele><time>2026-04-25T17:20:15Z</time></trkpt><trkpt lat="40.20070454509183" lon="15.111641850124137"><ele>58.0</ele><time>2026-04-25T17:20:17Z</time></trkpt><trkpt lat="40.20077785370623" lon="15.111462576301262"><ele>56.0</ele><time>2026-04-25T17:20:18Z</time></trkpt><trkpt lat="40.20048025021003" lon="15.11196679483573"><ele>55.833333333333336</ele><time>2026-04-25T17:20:19Z</time></trkpt><trkpt lat="40.20046394896047" lon="15.112084410531441"><ele>55.66666666666667</ele><time>2026-04-25T17:20:20Z</time></trkpt><trkpt lat="40.20044573573802" lon="15.112188509504831"><ele>55.5</ele><time>2026-04-25T17:20:21Z</time></trkpt><trkpt lat="40.200431668720555" lon="15.112283170678216"><ele>55.33333333333333</ele><time>2026-04-25T17:20:22Z</time></trkpt><trkpt lat="40.20042428711672" lon="15.112387790411306"><ele>55.166666666666664</ele><time>2026-04-25T17:20:23Z</time></trkpt><trkpt lat="40.20041655942942" lon="15.112491791358083"><ele>55.0</ele><time>2026-04-25T17:20:24Z</time></trkpt><trkpt lat="40.20040391440166" lon="15.11260578784444"><ele>54.49999999999999</ele><time>2026-04-25T17:20:26Z</time></trkpt><trkpt lat="40.20046299803177" lon="15.112690785974824"><ele>54.0</ele><time>2026-04-25T17:20:29Z</time></trkpt><trkpt lat="40.20053452659923" lon="15.112721991568675"><ele>53.5</ele><time>2026-04-25T17:20:31Z</time></trkpt><trkpt lat="40.200493926931884" lon="15.112794601136184"><ele>53.0</ele><time>2026-04-25T17:20:34Z</time></trkpt><trkpt lat="40.20042055209243" lon="15.112812368279458"><ele>52.49999999999999</ele><time>2026-04-25T17:20:36Z</time></trkpt><trkpt lat="40.20032224238834" lon="15.11280930991624"><ele>52.0</ele><time>2026-04-25T17:20:38Z</time></trkpt><trkpt lat="40.20026035209187" lon="15.112893038674251"><ele>52.0</ele><time>2026-04-25T17:20:40Z</time></trkpt><trkpt lat="40.20019810669045" lon="15.113022895670166"><ele>52.0</ele><time>2026-04-25T17:20:41Z</time></trkpt><trkpt lat="40.20012752611982" lon="15.113166468999617"><ele>52.0</ele><time>2026-04-25T17:20:42Z</time></trkpt><trkpt lat="40.20005133543366" lon="15.11328423599602"><ele>52.0</ele><time>2026-04-25T17:20:43Z</time></trkpt><trkpt lat="40.199966006926935" lon="15.113412222384317"><ele>52.0</ele><time>2026-04-25T17:20:44Z</time></trkpt><trkpt lat="40.19988523979899" lon="15.113505919328562"><ele>52.0</ele><time>2026-04-25T17:20:45Z</time></trkpt><trkpt lat="40.199795482752" lon="15.113592390510558"><ele>52.0</ele><time>2026-04-25T17:20:46Z</time></trkpt><trkpt lat="40.1996978952324" lon="15.113685258024002"><ele>52.0</ele><time>2026-04-25T17:20:47Z</time></trkpt><trkpt lat="40.1995954748934" lon="15.113780891995468"><ele>52.166666666666664</ele><time>2026-04-25T17:20:47.999Z</time></trkpt><trkpt lat="40.19952937138428" lon="15.113863315697172"><ele>52.33333333333333</ele><time>2026-04-25T17:20:48.999Z</time></trkpt><trkpt lat="40.199465419332846" lon="15.113954963195898"><ele>52.5</ele><time>2026-04-25T17:20:49.999Z</time></trkpt><trkpt lat="40.19943584751408" lon="15.11405367676821"><ele>52.66666666666667</ele><time>2026-04-25T17:20:50.999Z</time></trkpt><trkpt lat="40.199417494762685" lon="15.114153661839204"><ele>52.833333333333336</ele><time>2026-04-25T17:20:51.999Z</time></trkpt><trkpt lat="40.199403858603574" lon="15.114260150070518"><ele>53.0</ele><time>2026-04-25T17:20:52.999Z</time></trkpt><trkpt lat="40.1993732981606" lon="15.114371031790087"><ele>52.0</ele><time>2026-04-25T17:20:53.999Z</time></trkpt><trkpt lat="40.19933145189196" lon="15.114478259160025"><ele>51.0</ele><time>2026-04-25T17:20:54.999Z</time></trkpt><trkpt lat="40.19929799509997" lon="15.114565877857123"><ele>50.0</ele><time>2026-04-25T17:20:55.999Z</time></trkpt><trkpt lat="40.199282196778235" lon="15.114672199374844"><ele>49.0</ele><time>2026-04-25T17:20:56.999Z</time></trkpt><trkpt lat="40.199027929042195" lon="15.114698318335488"><ele>48.99999999999999</ele><time>2026-04-25T17:20:57.999Z</time></trkpt><trkpt lat="40.19901024715164" lon="15.114810815073595"><ele>49.0</ele><time>2026-04-25T17:20:58.999Z</time></trkpt><trkpt lat="40.199000953497475" lon="15.114902013812578"><ele>49.0</ele><time>2026-04-25T17:20:59.999Z</time></trkpt><trkpt lat="40.19899983965455" lon="15.115002471122489"><ele>49.0</ele><time>2026-04-25T17:21:00.999Z</time></trkpt><trkpt lat="40.199000001990946" lon="15.115106245685027"><ele>48.99999999999999</ele><time>2026-04-25T17:21:01.999Z</time></trkpt><trkpt lat="40.198975307163316" lon="15.11522110119038"><ele>49.0</ele><time>2026-04-25T17:21:02.999Z</time></trkpt><trkpt lat="40.1989564625757" lon="15.115309545871892"><ele>49.25</ele><time>2026-04-25T17:21:03.999Z</time></trkpt><trkpt lat="40.198947874981364" lon="15.115419090016573"><ele>49.5</ele><time>2026-04-25T17:21:04.999Z</time></trkpt><trkpt lat="40.198924714924" lon="15.115561407528128"><ele>49.75</ele><time>2026-04-25T17:21:06.999Z</time></trkpt><trkpt lat="40.19889633029995" lon="15.11566880856328"><ele>50.0</ele><time>2026-04-25T17:21:08.999Z</time></trkpt><trkpt lat="40.19920066021724" lon="15.115910421616407"><ele>50.2</ele><time>2026-04-25T17:21:09.999Z</time></trkpt><trkpt lat="40.19914180525992" lon="15.11602380805054"><ele>50.4</ele><time>2026-04-25T17:21:11.999Z</time></trkpt><trkpt lat="40.19909889901901" lon="15.11618027932325"><ele>50.599999999999994</ele><time>2026-04-25T17:21:13.999Z</time></trkpt><trkpt lat="40.19901300364933" lon="15.11630926153099"><ele>50.8</ele><time>2026-04-25T17:21:15.999Z</time></trkpt><trkpt lat="40.19895479210925" lon="15.116370799494156"><ele>51.0</ele><time>2026-04-25T17:21:16.999Z</time></trkpt><trkpt lat="40.1988688259076" lon="15.11645007659103"><ele>49.5</ele><time>2026-04-25T17:21:17.999Z</time></trkpt><trkpt lat="40.198789337028835" lon="15.116552727401212"><ele>48.0</ele><time>2026-04-25T17:21:18.999Z</time></trkpt><trkpt lat="40.1987156328424" lon="15.116680319777846"><ele>46.5</ele><time>2026-04-25T17:21:19.999Z</time></trkpt><trkpt lat="40.19864716847002" lon="15.116855958921718"><ele>45.0</ele><time>2026-04-25T17:21:20.999Z</time></trkpt><trkpt lat="40.19857535949047" lon="15.116995332472516"><ele>45.0</ele><time>2026-04-25T17:21:21.999Z</time></trkpt><trkpt lat="40.19850797642114" lon="15.11713717596795"><ele>45.0</ele><time>2026-04-25T17:21:22.999Z</time></trkpt><trkpt lat="40.19844181766113" lon="15.117278381203777"><ele>45.0</ele><time>2026-04-25T17:21:23.999Z</time></trkpt><trkpt lat="40.198382066203386" lon="15.11740108110175"><ele>45.0</ele><time>2026-04-25T17:21:24.999Z</time></trkpt><trkpt lat="40.198323877263306" lon="15.117526486705945"><ele>45.75</ele><time>2026-04-25T17:21:25.999Z</time></trkpt><trkpt lat="40.19826958598103" lon="15.117688923390476"><ele>46.5</ele><time>2026-04-25T17:21:26.999Z</time></trkpt><trkpt lat="40.198229913367676" lon="15.117851954051217"><ele>47.25</ele><time>2026-04-25T17:21:27.999Z</time></trkpt><trkpt lat="40.19819182800204" lon="15.11798753941242"><ele>48.0</ele><time>2026-04-25T17:21:28.999Z</time></trkpt><trkpt lat="40.198130644849684" lon="15.118105929145274"><ele>46.25</ele><time>2026-04-25T17:21:29.999Z</time></trkpt><trkpt lat="40.198066171888854" lon="15.118248688945735"><ele>44.5</ele><time>2026-04-25T17:21:30.999Z</time></trkpt><trkpt lat="40.1980084974786" lon="15.11842197896396"><ele>42.75</ele><time>2026-04-25T17:21:31.999Z</time></trkpt><trkpt lat="40.19797168859525" lon="15.118607645946636"><ele>41.0</ele><time>2026-04-25T17:21:32.999Z</time></trkpt><trkpt lat="40.197950712571554" lon="15.118798702442383"><ele>41.0</ele><time>2026-04-25T17:21:33.999Z</time></trkpt><trkpt lat="40.19795530288205" lon="15.119010383493809"><ele>41.0</ele><time>2026-04-25T17:21:34.999Z</time></trkpt><trkpt lat="40.1979581688641" lon="15.119204267942967"><ele>41.0</ele><time>2026-04-25T17:21:35.999Z</time></trkpt><trkpt lat="40.197948639242405" lon="15.119387487724241"><ele>41.0</ele><time>2026-04-25T17:21:36.999Z</time></trkpt><trkpt lat="40.197951788312174" lon="15.119556932625143"><ele>41.0</ele><time>2026-04-25T17:21:37.999Z</time></trkpt><trkpt lat="40.19796207562776" lon="15.119710810033219"><ele>41.0</ele><time>2026-04-25T17:21:38.999Z</time></trkpt><trkpt lat="40.19799081405384" lon="15.119832411607293"><ele>41.0</ele><time>2026-04-25T17:21:39.999Z</time></trkpt><trkpt lat="40.19801960814848" lon="15.119929803503387"><ele>41.0</ele><time>2026-04-25T17:21:40.999Z</time></trkpt><trkpt lat="40.19804666671085" lon="15.120045170116166"><ele>40.25</ele><time>2026-04-25T17:21:41.999Z</time></trkpt><trkpt lat="40.198082773432006" lon="15.120196549675322"><ele>39.5</ele><time>2026-04-25T17:21:42.999Z</time></trkpt><trkpt lat="40.19812761285388" lon="15.120385502327707"><ele>38.75</ele><time>2026-04-25T17:21:43.999Z</time></trkpt><trkpt lat="40.198165606487954" lon="15.120568185820566"><ele>38.0</ele><time>2026-04-25T17:21:44.999Z</time></trkpt><trkpt lat="40.198179823351" lon="15.120710407312323"><ele>38.0</ele><time>2026-04-25T17:21:45.999Z</time></trkpt><trkpt lat="40.198180139234196" lon="15.120833215586888"><ele>38.0</ele><time>2026-04-25T17:21:46.999Z</time></trkpt><trkpt lat="40.198141129313136" lon="15.120932690410758"><ele>38.0</ele><time>2026-04-25T17:21:47.999Z</time></trkpt><trkpt lat="40.19807571632618" lon="15.12110207644755"><ele>38.0</ele><time>2026-04-25T17:21:48.999Z</time></trkpt><trkpt lat="40.19801249114624" lon="15.121278922617135"><ele>38.0</ele><time>2026-04-25T17:21:49.999Z</time></trkpt><trkpt lat="40.19796616766468" lon="15.121413296673355"><ele>38.0</ele><time>2026-04-25T17:21:50.999Z</time></trkpt><trkpt lat="40.197933847871845" lon="15.121523369646116"><ele>38.0</ele><time>2026-04-25T17:21:51.999Z</time></trkpt><trkpt lat="40.197914804452" lon="15.12163377317896"><ele>38.0</ele><time>2026-04-25T17:21:52.999Z</time></trkpt><trkpt lat="40.1979065210012" lon="15.121806041764266"><ele>38.0</ele><time>2026-04-25T17:21:53.999Z</time></trkpt><trkpt lat="40.197899986718845" lon="15.121969631148987"><ele>38.8</ele><time>2026-04-25T17:21:54.999Z</time></trkpt><trkpt lat="40.19788549268003" lon="15.12209613065401"><ele>39.599999999999994</ele><time>2026-04-25T17:21:56Z</time></trkpt><trkpt lat="40.19786982875376" lon="15.122202953065958"><ele>40.400000000000006</ele><time>2026-04-25T17:21:57Z</time></trkpt><trkpt lat="40.1978041262841" lon="15.122255987735713"><ele>41.2</ele><time>2026-04-25T17:21:58Z</time></trkpt><trkpt lat="40.19772287919593" lon="15.12230622069103"><ele>42.0</ele><time>2026-04-25T17:21:59Z</time></trkpt><trkpt lat="40.19764480225681" lon="15.12242622162709"><ele>41.0</ele><time>2026-04-25T17:22:00Z</time></trkpt><trkpt lat="40.197540930718816" lon="15.122534475981595"><ele>40.0</ele><time>2026-04-25T17:22:01Z</time></trkpt><trkpt lat="40.19744668049273" lon="15.122664092699264"><ele>39.0</ele><time>2026-04-25T17:22:02Z</time></trkpt><trkpt lat="40.19735428700763" lon="15.122798206287532"><ele>38.0</ele><time>2026-04-25T17:22:03Z</time></trkpt><trkpt lat="40.19726756869327" lon="15.12293629787626"><ele>38.0</ele><time>2026-04-25T17:22:04Z</time></trkpt><trkpt lat="40.19718761200385" lon="15.123090622597688"><ele>38.0</ele><time>2026-04-25T17:22:05Z</time></trkpt><trkpt lat="40.19711648359465" lon="15.123265609701987"><ele>38.0</ele><time>2026-04-25T17:22:06Z</time></trkpt><trkpt lat="40.19704609826434" lon="15.123441397225257"><ele>38.0</ele><time>2026-04-25T17:22:07Z</time></trkpt><trkpt lat="40.196973384648295" lon="15.123616169353667"><ele>38.25</ele><time>2026-04-25T17:22:08Z</time></trkpt><trkpt lat="40.19690356712238" lon="15.123794576200712"><ele>38.5</ele><time>2026-04-25T17:22:09Z</time></trkpt><trkpt lat="40.196843702544086" lon="15.123962704124617"><ele>38.75</ele><time>2026-04-25T17:22:10Z</time></trkpt><trkpt lat="40.196787547751995" lon="15.124121088964001"><ele>39.0</ele><time>2026-04-25T17:22:11Z</time></trkpt><trkpt lat="40.19671583761555" lon="15.124248396405568"><ele>39.75</ele><time>2026-04-25T17:22:12Z</time></trkpt><trkpt lat="40.19661768067963" lon="15.12435614271685"><ele>40.5</ele><time>2026-04-25T17:22:13Z</time></trkpt><trkpt lat="40.19651262099201" lon="15.124484789920173"><ele>41.25</ele><time>2026-04-25T17:22:14Z</time></trkpt><trkpt lat="40.196411396014156" lon="15.124628069146926"><ele>42.0</ele><time>2026-04-25T17:22:15Z</time></trkpt><trkpt lat="40.196327096374716" lon="15.124788672653436"><ele>40.0</ele><time>2026-04-25T17:22:16Z</time></trkpt><trkpt lat="40.1962590540591" lon="15.124970138400263"><ele>38.0</ele><time>2026-04-25T17:22:17Z</time></trkpt><trkpt lat="40.196197224374025" lon="15.12514002280199"><ele>36.0</ele><time>2026-04-25T17:22:18Z</time></trkpt><trkpt lat="40.19614251904028" lon="15.125291075543467"><ele>34.0</ele><time>2026-04-25T17:22:19Z</time></trkpt><trkpt lat="40.19608347151353" lon="15.125408898721043"><ele>34.0</ele><time>2026-04-25T17:22:20Z</time></trkpt><trkpt lat="40.19599802181886" lon="15.125519019140615"><ele>34.0</ele><time>2026-04-25T17:22:21Z</time></trkpt><trkpt lat="40.19589906756289" lon="15.125610539388354"><ele>34.0</ele><time>2026-04-25T17:22:22Z</time></trkpt><trkpt lat="40.19583210190659" lon="15.125714003805612"><ele>34.0</ele><time>2026-04-25T17:22:23Z</time></trkpt><trkpt lat="40.195756248322986" lon="15.125822023588743"><ele>35.0</ele><time>2026-04-25T17:22:24Z</time></trkpt><trkpt lat="40.19569371399778" lon="15.125992007292744"><ele>36.0</ele><time>2026-04-25T17:22:25Z</time></trkpt><trkpt lat="40.19566264324284" lon="15.12619575667903"><ele>37.0</ele><time>2026-04-25T17:22:26Z</time></trkpt><trkpt lat="40.1956407195497" lon="15.126409480854928"><ele>35.0</ele><time>2026-04-25T17:22:27Z</time></trkpt><trkpt lat="40.19561904133404" lon="15.126602209274107"><ele>33.0</ele><time>2026-04-25T17:22:28Z</time></trkpt><trkpt lat="40.195601096980404" lon="15.126807076227037"><ele>31.0</ele><time>2026-04-25T17:22:29Z</time></trkpt><trkpt lat="40.19561902536095" lon="15.127054345216473"><ele>31.0</ele><time>2026-04-25T17:22:30Z</time></trkpt><trkpt lat="40.19562911544276" lon="15.1272652926758"><ele>31.0</ele><time>2026-04-25T17:22:31Z</time></trkpt><trkpt lat="40.19561036066891" lon="15.127481488637883"><ele>31.0</ele><time>2026-04-25T17:22:32Z</time></trkpt><trkpt lat="40.19558958576875" lon="15.127694237336621"><ele>31.0</ele><time>2026-04-25T17:22:33Z</time></trkpt><trkpt lat="40.195561749078536" lon="15.12790825087609"><ele>31.0</ele><time>2026-04-25T17:22:34Z</time></trkpt><trkpt lat="40.19551489105895" lon="15.128122608622691"><ele>31.0</ele><time>2026-04-25T17:22:35Z</time></trkpt><trkpt lat="40.19546312476595" lon="15.12834667384731"><ele>31.0</ele><time>2026-04-25T17:22:36Z</time></trkpt><trkpt lat="40.19542452730495" lon="15.128555787193182"><ele>31.0</ele><time>2026-04-25T17:22:37Z</time></trkpt><trkpt lat="40.1953933261085" lon="15.128757782874775"><ele>31.0</ele><time>2026-04-25T17:22:38Z</time></trkpt><trkpt lat="40.19536548583515" lon="15.128957116214245"><ele>31.0</ele><time>2026-04-25T17:22:39Z</time></trkpt><trkpt lat="40.19532328518912" lon="15.12916052967686"><ele>31.0</ele><time>2026-04-25T17:22:40Z</time></trkpt><trkpt lat="40.19527105984301" lon="15.12939001756805"><ele>31.0</ele><time>2026-04-25T17:22:41Z</time></trkpt><trkpt lat="40.19522498488559" lon="15.129611822995695"><ele>31.0</ele><time>2026-04-25T17:22:42Z</time></trkpt><trkpt lat="40.19518373735008" lon="15.129813074245474"><ele>31.0</ele><time>2026-04-25T17:22:43Z</time></trkpt><trkpt lat="40.19513410254234" lon="15.130013135187173"><ele>31.0</ele><time>2026-04-25T17:22:44Z</time></trkpt><trkpt lat="40.195066203929784" lon="15.130217878065006"><ele>30.333333333333336</ele><time>2026-04-25T17:22:45Z</time></trkpt><trkpt lat="40.19499887589071" lon="15.130416668767795"><ele>29.666666666666664</ele><time>2026-04-25T17:22:46Z</time></trkpt><trkpt lat="40.19493348168367" lon="15.130606376255354"><ele>29.0</ele><time>2026-04-25T17:22:47Z</time></trkpt><trkpt lat="40.19487887767455" lon="15.130766506072225"><ele>27.5</ele><time>2026-04-25T17:22:48Z</time></trkpt><trkpt lat="40.19483429197914" lon="15.130911784767376"><ele>26.0</ele><time>2026-04-25T17:22:49Z</time></trkpt><trkpt lat="40.19480708513914" lon="15.131089078963377"><ele>24.5</ele><time>2026-04-25T17:22:50Z</time></trkpt><trkpt lat="40.19479574962466" lon="15.131289108816741"><ele>23.0</ele><time>2026-04-25T17:22:51Z</time></trkpt><trkpt lat="40.194756410752134" lon="15.131481213164092"><ele>23.4</ele><time>2026-04-25T17:22:52Z</time></trkpt><trkpt lat="40.19472074765267" lon="15.131629982481078"><ele>23.799999999999997</ele><time>2026-04-25T17:22:52.999Z</time></trkpt><trkpt lat="40.19469300013903" lon="15.131735522665618"><ele>24.2</ele><time>2026-04-25T17:22:53.999Z</time></trkpt><trkpt lat="40.19466382436777" lon="15.131819389261912"><ele>24.6</ele><time>2026-04-25T17:22:54.999Z</time></trkpt><trkpt lat="40.19461250776619" lon="15.131925979687386"><ele>25.0</ele><time>2026-04-25T17:22:55.999Z</time></trkpt><trkpt lat="40.19454426332755" lon="15.13203434280666"><ele>25.0</ele><time>2026-04-25T17:22:56.999Z</time></trkpt><trkpt lat="40.194453287289434" lon="15.132144356412077"><ele>25.0</ele><time>2026-04-25T17:22:57.999Z</time></trkpt><trkpt lat="40.1943318606036" lon="15.132244840608196"><ele>25.0</ele><time>2026-04-25T17:22:58.999Z</time></trkpt><trkpt lat="40.19420368999025" lon="15.132356592109238"><ele>25.0</ele><time>2026-04-25T17:22:59.999Z</time></trkpt><trkpt lat="40.19410714084842" lon="15.13246986345279"><ele>25.0</ele><time>2026-04-25T17:23:00.999Z</time></trkpt><trkpt lat="40.194028965823584" lon="15.132570155037845"><ele>25.0</ele><time>2026-04-25T17:23:01.999Z</time></trkpt><trkpt lat="40.19392685730595" lon="15.132659273256397"><ele>25.0</ele><time>2026-04-25T17:23:02.999Z</time></trkpt><trkpt lat="40.193801112749746" lon="15.132717608144532"><ele>25.0</ele><time>2026-04-25T17:23:03.999Z</time></trkpt><trkpt lat="40.19368036905846" lon="15.132807399561457"><ele>25.0</ele><time>2026-04-25T17:23:04.999Z</time></trkpt><trkpt lat="40.19356994284652" lon="15.13294054777621"><ele>25.0</ele><time>2026-04-25T17:23:05.999Z</time></trkpt><trkpt lat="40.19345644302142" lon="15.133114681525567"><ele>25.0</ele><time>2026-04-25T17:23:06.999Z</time></trkpt><trkpt lat="40.19333942554074" lon="15.133284806723974"><ele>25.0</ele><time>2026-04-25T17:23:07.999Z</time></trkpt><trkpt lat="40.19321352669969" lon="15.13346477837216"><ele>25.0</ele><time>2026-04-25T17:23:08.999Z</time></trkpt><trkpt lat="40.19309483462043" lon="15.133633020382323"><ele>25.0</ele><time>2026-04-25T17:23:09.999Z</time></trkpt><trkpt lat="40.192984940182896" lon="15.133783082266953"><ele>25.0</ele><time>2026-04-25T17:23:10.999Z</time></trkpt><trkpt lat="40.19285964872086" lon="15.133938476350544"><ele>25.0</ele><time>2026-04-25T17:23:11.999Z</time></trkpt><trkpt lat="40.192716283588005" lon="15.134088095076565"><ele>25.0</ele><time>2026-04-25T17:23:12.999Z</time></trkpt><trkpt lat="40.1925725146606" lon="15.134231828763234"><ele>24.0</ele><time>2026-04-25T17:23:13.999Z</time></trkpt><trkpt lat="40.1924434474609" lon="15.134360832437054"><ele>23.0</ele><time>2026-04-25T17:23:14.999Z</time></trkpt><trkpt lat="40.19234488401128" lon="15.134490256239225"><ele>22.0</ele><time>2026-04-25T17:23:15.999Z</time></trkpt><trkpt lat="40.192210254072066" lon="15.134586219972242"><ele>21.333333333333332</ele><time>2026-04-25T17:23:16.999Z</time></trkpt><trkpt lat="40.192071275047766" lon="15.134698158812363"><ele>20.666666666666668</ele><time>2026-04-25T17:23:17.999Z</time></trkpt><trkpt lat="40.19193551546374" lon="15.134826736934086"><ele>20.0</ele><time>2026-04-25T17:23:18.999Z</time></trkpt><trkpt lat="40.191789705326286" lon="15.134913861988055"><ele>20.0</ele><time>2026-04-25T17:23:19.999Z</time></trkpt><trkpt lat="40.19167119280221" lon="15.135032370834127"><ele>20.0</ele><time>2026-04-25T17:23:20.999Z</time></trkpt><trkpt lat="40.19154456243322" lon="15.135109141550467"><ele>20.0</ele><time>2026-04-25T17:23:21.999Z</time></trkpt><trkpt lat="40.19143651850142" lon="15.135191746303592"><ele>20.0</ele><time>2026-04-25T17:23:22.999Z</time></trkpt><trkpt lat="40.191335810393724" lon="15.135274265433802"><ele>19.8</ele><time>2026-04-25T17:23:23.999Z</time></trkpt><trkpt lat="40.19124870700346" lon="15.135360212826479"><ele>19.6</ele><time>2026-04-25T17:23:24.999Z</time></trkpt><trkpt lat="40.19116028941976" lon="15.135417672786552"><ele>19.4</ele><time>2026-04-25T17:23:25.999Z</time></trkpt><trkpt lat="40.19108975302417" lon="15.135466279395716"><ele>19.2</ele><time>2026-04-25T17:23:26.999Z</time></trkpt><trkpt lat="40.19102883298194" lon="15.135498811229036"><ele>19.0</ele><time>2026-04-25T17:23:27.999Z</time></trkpt><trkpt lat="40.19092475446112" lon="15.135546876846282"><ele>19.0</ele><time>2026-04-25T17:23:29.999Z</time></trkpt><trkpt lat="40.19083508731763" lon="15.135583861055322"><ele>19.0</ele><time>2026-04-25T17:23:31.999Z</time></trkpt><trkpt lat="40.190773340856744" lon="15.13556581178997"><ele>19.0</ele><time>2026-04-25T17:23:33.999Z</time></trkpt><trkpt lat="40.19077208482356" lon="15.135376797909014"><ele>19.0</ele><time>2026-04-25T17:23:35.999Z</time></trkpt><trkpt lat="40.190786254738384" lon="15.135246772119336"><ele>19.0</ele><time>2026-04-25T17:23:36.999Z</time></trkpt><trkpt lat="40.190802490991025" lon="15.135075109993576"><ele>18.666666666666664</ele><time>2026-04-25T17:23:37.999Z</time></trkpt><trkpt lat="40.19081795954297" lon="15.134854096925684"><ele>18.333333333333332</ele><time>2026-04-25T17:23:38.999Z</time></trkpt><trkpt lat="40.19082708979934" lon="15.134602870709754"><ele>18.0</ele><time>2026-04-25T17:23:39.999Z</time></trkpt><trkpt lat="40.19083288066603" lon="15.134328302646995"><ele>18.0</ele><time>2026-04-25T17:23:40.999Z</time></trkpt><trkpt lat="40.19082339811184" lon="15.134058332158375"><ele>18.0</ele><time>2026-04-25T17:23:41.999Z</time></trkpt><trkpt lat="40.19078477715313" lon="15.133812578603127"><ele>18.0</ele><time>2026-04-25T17:23:42.999Z</time></trkpt><trkpt lat="40.19072739023906" lon="15.133587061654536"><ele>18.0</ele><time>2026-04-25T17:23:43.999Z</time></trkpt><trkpt lat="40.19065513962755" lon="15.133380967358738"><ele>18.0</ele><time>2026-04-25T17:23:44.999Z</time></trkpt><trkpt lat="40.19057530192418" lon="15.133195533290296"><ele>18.0</ele><time>2026-04-25T17:23:45.999Z</time></trkpt><trkpt lat="40.19050317465539" lon="15.133040570876831"><ele>18.2</ele><time>2026-04-25T17:23:46.999Z</time></trkpt><trkpt lat="40.19043408442617" lon="15.13292325863448"><ele>18.4</ele><time>2026-04-25T17:23:47.999Z</time></trkpt><trkpt lat="40.190361218149995" lon="15.132817914015925"><ele>18.599999999999998</ele><time>2026-04-25T17:23:48.999Z</time></trkpt><trkpt lat="40.190288755646485" lon="15.132720444647315"><ele>18.8</ele><time>2026-04-25T17:23:49.999Z</time></trkpt><trkpt lat="40.19021974352001" lon="15.132636170033315"><ele>19.0</ele><time>2026-04-25T17:23:50.999Z</time></trkpt><trkpt lat="40.19015800965498" lon="15.132563031711639"><ele>19.0</ele><time>2026-04-25T17:23:51.999Z</time></trkpt><trkpt lat="40.19009167578614" lon="15.132498363737907"><ele>19.0</ele><time>2026-04-25T17:23:53.999Z</time></trkpt><trkpt lat="40.1900167276689" lon="15.132502376969406"><ele>19.0</ele><time>2026-04-25T17:23:56.999Z</time></trkpt><trkpt lat="40.189965509641056" lon="15.132700727487046"><ele>19.0</ele><time>2026-04-25T17:24:02Z</time></trkpt><trkpt lat="40.18994233020993" lon="15.132786803264958"><ele>19.0</ele><time>2026-04-25T17:24:04Z</time></trkpt><trkpt lat="40.189879650700824" lon="15.132921065701902"><ele>18.8</ele><time>2026-04-25T17:24:06Z</time></trkpt><trkpt lat="40.18983677241401" lon="15.132999296933733"><ele>18.599999999999998</ele><time>2026-04-25T17:24:07Z</time></trkpt><trkpt lat="40.18976607843183" lon="15.133132497969754"><ele>18.4</ele><time>2026-04-25T17:24:09Z</time></trkpt><trkpt lat="40.18972772319495" lon="15.133224270383877"><ele>18.2</ele><time>2026-04-25T17:24:10Z</time></trkpt><trkpt lat="40.18968853769275" lon="15.133307518917723"><ele>18.0</ele><time>2026-04-25T17:24:11Z</time></trkpt><trkpt lat="40.18961003687296" lon="15.13343913349777"><ele>17.833333333333332</ele><time>2026-04-25T17:24:13Z</time></trkpt><trkpt lat="40.189543849624656" lon="15.133581492964506"><ele>17.666666666666668</ele><time>2026-04-25T17:24:15Z</time></trkpt><trkpt lat="40.189497288502935" lon="15.133655645533581"><ele>17.5</ele><time>2026-04-25T17:24:16Z</time></trkpt><trkpt lat="40.18944273444869" lon="15.133732860475972"><ele>17.333333333333336</ele><time>2026-04-25T17:24:17Z</time></trkpt><trkpt lat="40.18938232573489" lon="15.133808524868062"><ele>17.166666666666668</ele><time>2026-04-25T17:24:18Z</time></trkpt><trkpt lat="40.18933012292338" lon="15.133882693013083"><ele>17.0</ele><time>2026-04-25T17:24:19Z</time></trkpt><trkpt lat="40.189280240709934" lon="15.133965608820576"><ele>17.0</ele><time>2026-04-25T17:24:20Z</time></trkpt><trkpt lat="40.189235819166214" lon="15.134040722189381"><ele>17.0</ele><time>2026-04-25T17:24:21Z</time></trkpt><trkpt lat="40.18918768715813" lon="15.134124394043637"><ele>17.0</ele><time>2026-04-25T17:24:22Z</time></trkpt><trkpt lat="40.18911746565293" lon="15.134247990324175"><ele>17.0</ele><time>2026-04-25T17:24:23Z</time></trkpt><trkpt lat="40.189035584719306" lon="15.134421391325418"><ele>17.0</ele><time>2026-04-25T17:24:24Z</time></trkpt><trkpt lat="40.188968552388886" lon="15.134557562338847"><ele>16.6</ele><time>2026-04-25T17:24:25Z</time></trkpt><trkpt lat="40.18891684676554" lon="15.134652835764589"><ele>16.2</ele><time>2026-04-25T17:24:26Z</time></trkpt><trkpt lat="40.188852478761" lon="15.13477497458014"><ele>15.8</ele><time>2026-04-25T17:24:27Z</time></trkpt><trkpt lat="40.188787907582686" lon="15.134914403167258"><ele>15.4</ele><time>2026-04-25T17:24:28Z</time></trkpt><trkpt lat="40.18871975885863" lon="15.135040621241629"><ele>15.0</ele><time>2026-04-25T17:24:29Z</time></trkpt><trkpt lat="40.188652294667406" lon="15.135160755701369"><ele>15.0</ele><time>2026-04-25T17:24:30Z</time></trkpt><trkpt lat="40.188581063481635" lon="15.13528066591093"><ele>15.0</ele><time>2026-04-25T17:24:31Z</time></trkpt><trkpt lat="40.18850160826364" lon="15.13539911564492"><ele>15.0</ele><time>2026-04-25T17:24:32Z</time></trkpt><trkpt lat="40.18841336814277" lon="15.135514654847915"><ele>15.0</ele><time>2026-04-25T17:24:33Z</time></trkpt><trkpt lat="40.18831691981594" lon="15.135633453428069"><ele>14.75</ele><time>2026-04-25T17:24:34Z</time></trkpt><trkpt lat="40.18820610566958" lon="15.135756893553225"><ele>14.5</ele><time>2026-04-25T17:24:35Z</time></trkpt><trkpt lat="40.18808750281859" lon="15.135882571836925"><ele>14.25</ele><time>2026-04-25T17:24:36Z</time></trkpt><trkpt lat="40.187974277224754" lon="15.136004696824227"><ele>14.0</ele><time>2026-04-25T17:24:37Z</time></trkpt><trkpt lat="40.1878673027025" lon="15.13612000822859"><ele>13.75</ele><time>2026-04-25T17:24:38Z</time></trkpt><trkpt lat="40.18777022007909" lon="15.13622693517282"><ele>13.5</ele><time>2026-04-25T17:24:39Z</time></trkpt><trkpt lat="40.18767781827158" lon="15.136327567481242"><ele>13.25</ele><time>2026-04-25T17:24:40Z</time></trkpt><trkpt lat="40.1875793819457" lon="15.1364299047552"><ele>13.0</ele><time>2026-04-25T17:24:41Z</time></trkpt><trkpt lat="40.18748012918269" lon="15.136542118558864"><ele>13.0</ele><time>2026-04-25T17:24:42Z</time></trkpt><trkpt lat="40.18737194006992" lon="15.136652357995878"><ele>13.0</ele><time>2026-04-25T17:24:43Z</time></trkpt><trkpt lat="40.18724969173221" lon="15.136782390826102"><ele>13.0</ele><time>2026-04-25T17:24:44Z</time></trkpt><trkpt lat="40.18712293879917" lon="15.136925048084084"><ele>13.0</ele><time>2026-04-25T17:24:45Z</time></trkpt><trkpt lat="40.187013560871364" lon="15.137049445329586"><ele>13.0</ele><time>2026-04-25T17:24:46Z</time></trkpt><trkpt lat="40.18690918231575" lon="15.137160120798711"><ele>13.0</ele><time>2026-04-25T17:24:47Z</time></trkpt><trkpt lat="40.18679723314203" lon="15.137274918050213"><ele>13.0</ele><time>2026-04-25T17:24:48Z</time></trkpt><trkpt lat="40.18668675938776" lon="15.137397290929377"><ele>12.75</ele><time>2026-04-25T17:24:49Z</time></trkpt><trkpt lat="40.18657968138231" lon="15.137517877912813"><ele>12.5</ele><time>2026-04-25T17:24:50Z</time></trkpt><trkpt lat="40.18648619683244" lon="15.137617818250513"><ele>12.25</ele><time>2026-04-25T17:24:51Z</time></trkpt><trkpt lat="40.18639037449295" lon="15.137719878352067"><ele>12.0</ele><time>2026-04-25T17:24:52Z</time></trkpt><trkpt lat="40.18628688482783" lon="15.137826425764123"><ele>11.5</ele><time>2026-04-25T17:24:53Z</time></trkpt><trkpt lat="40.18617739319139" lon="15.137928897550006"><ele>11.0</ele><time>2026-04-25T17:24:54Z</time></trkpt><trkpt lat="40.18606313214169" lon="15.138032844005954"><ele>10.5</ele><time>2026-04-25T17:24:55Z</time></trkpt><trkpt lat="40.18593568390506" lon="15.138135522310836"><ele>10.0</ele><time>2026-04-25T17:24:56Z</time></trkpt><trkpt lat="40.18579265731621" lon="15.13820640541791"><ele>9.666666666666668</ele><time>2026-04-25T17:24:57Z</time></trkpt><trkpt lat="40.18564849807165" lon="15.138301996367815"><ele>9.333333333333334</ele><time>2026-04-25T17:24:57.999Z</time></trkpt><trkpt lat="40.18550113361386" lon="15.138399035539615"><ele>9.0</ele><time>2026-04-25T17:24:58.999Z</time></trkpt><trkpt lat="40.1853505478847" lon="15.138498311012222"><ele>9.0</ele><time>2026-04-25T17:24:59.999Z</time></trkpt><trkpt lat="40.18520042852708" lon="15.138597751446925"><ele>9.0</ele><time>2026-04-25T17:25:00.999Z</time></trkpt><trkpt lat="40.18505673407528" lon="15.138693728718183"><ele>9.0</ele><time>2026-04-25T17:25:01.999Z</time></trkpt><trkpt lat="40.184927470923796" lon="15.138780067062145"><ele>8.5</ele><time>2026-04-25T17:25:02.999Z</time></trkpt><trkpt lat="40.18480542626971" lon="15.138861568692684"><ele>8.0</ele><time>2026-04-25T17:25:03.999Z</time></trkpt><trkpt lat="40.184670723367326" lon="15.138955266084848"><ele>7.5</ele><time>2026-04-25T17:25:04.999Z</time></trkpt><trkpt lat="40.18454172891426" lon="15.13905186198743"><ele>7.0</ele><time>2026-04-25T17:25:05.999Z</time></trkpt><trkpt lat="40.184418081689095" lon="15.139151693383669"><ele>7.000000000000001</ele><time>2026-04-25T17:25:06.999Z</time></trkpt><trkpt lat="40.1843146153355" lon="15.139239499772174"><ele>7.0</ele><time>2026-04-25T17:25:07.999Z</time></trkpt><trkpt lat="40.18422811520331" lon="15.139312907771314"><ele>7.0</ele><time>2026-04-25T17:25:08.999Z</time></trkpt><trkpt lat="40.184163876138726" lon="15.139367424179841"><ele>7.0</ele><time>2026-04-25T17:25:09.999Z</time></trkpt><trkpt lat="40.184106738622134" lon="15.139415914532131"><ele>7.000000000000001</ele><time>2026-04-25T17:25:12.999Z</time></trkpt><trkpt lat="40.18405186424975" lon="15.139345957966835"><ele>7.0</ele><time>2026-04-25T17:25:13.999Z</time></trkpt><trkpt lat="40.184013427074106" lon="15.13926358824811"><ele>6.833333333333334</ele><time>2026-04-25T17:25:14.999Z</time></trkpt><trkpt lat="40.18397645534808" lon="15.139155902091527"><ele>6.666666666666667</ele><time>2026-04-25T17:25:15.999Z</time></trkpt><trkpt lat="40.18392107075788" lon="15.139066627543478"><ele>6.5</ele><time>2026-04-25T17:25:17.999Z</time></trkpt><trkpt lat="40.183841307993866" lon="15.139106988084583"><ele>6.333333333333334</ele><time>2026-04-25T17:25:20.999Z</time></trkpt><trkpt lat="40.18377383415232" lon="15.139126258688817"><ele>6.166666666666667</ele><time>2026-04-25T17:25:21.999Z</time></trkpt><trkpt lat="40.183711083347795" lon="15.13916829433609"><ele>6.0</ele><time>2026-04-25T17:25:22.999Z</time></trkpt><trkpt lat="40.18364432588791" lon="15.13921463114797"><ele>6.0</ele><time>2026-04-25T17:25:23.999Z</time></trkpt><trkpt lat="40.183574983125325" lon="15.139262762390853"><ele>6.0</ele><time>2026-04-25T17:25:24.999Z</time></trkpt><trkpt lat="40.183480501390065" lon="15.139328342807651"><ele>6.0</ele><time>2026-04-25T17:25:25.999Z</time></trkpt><trkpt lat="40.18337437991458" lon="15.139400584425468"><ele>6.0</ele><time>2026-04-25T17:25:26.999Z</time></trkpt><trkpt lat="40.18326208328044" lon="15.139497689595533"><ele>6.0</ele><time>2026-04-25T17:25:27.999Z</time></trkpt><trkpt lat="40.183129865450326" lon="15.139587821916582"><ele>6.25</ele><time>2026-04-25T17:25:28.999Z</time></trkpt><trkpt lat="40.18300259846752" lon="15.139680844005865"><ele>6.5</ele><time>2026-04-25T17:25:29.999Z</time></trkpt><trkpt lat="40.18287233733894" lon="15.139748399983112"><ele>6.75</ele><time>2026-04-25T17:25:30.999Z</time></trkpt><trkpt lat="40.18274909190642" lon="15.139832125604382"><ele>7.0</ele><time>2026-04-25T17:25:31.999Z</time></trkpt><trkpt lat="40.182626103971785" lon="15.139937595346323"><ele>7.0</ele><time>2026-04-25T17:25:32.999Z</time></trkpt><trkpt lat="40.18248947353357" lon="15.14000964298403"><ele>7.0</ele><time>2026-04-25T17:25:33.999Z</time></trkpt><trkpt lat="40.18237643789155" lon="15.140114859776986"><ele>7.0</ele><time>2026-04-25T17:25:34.999Z</time></trkpt><trkpt lat="40.182258879880195" lon="15.140196072118526"><ele>7.0</ele><time>2026-04-25T17:25:35.999Z</time></trkpt><trkpt lat="40.18214366943491" lon="15.14025358692414"><ele>6.8</ele><time>2026-04-25T17:25:36.999Z</time></trkpt><trkpt lat="40.182040168044146" lon="15.140321077192729"><ele>6.6</ele><time>2026-04-25T17:25:37.999Z</time></trkpt><trkpt lat="40.181937323177024" lon="15.140398343631704"><ele>6.3999999999999995</ele><time>2026-04-25T17:25:38.999Z</time></trkpt><trkpt lat="40.181829981469996" lon="15.140443332523642"><ele>6.199999999999999</ele><time>2026-04-25T17:25:39.999Z</time></trkpt><trkpt lat="40.18173071220635" lon="15.140468245187893"><ele>6.0</ele><time>2026-04-25T17:25:40.999Z</time></trkpt><trkpt lat="40.18166033640674" lon="15.140481925587224"><ele>6.0</ele><time>2026-04-25T17:25:41.999Z</time></trkpt><trkpt lat="40.181546917697425" lon="15.1406163994581"><ele>6.0</ele><time>2026-04-25T17:25:43.999Z</time></trkpt><trkpt lat="40.1814696339797" lon="15.1406212625929"><ele>6.0</ele><time>2026-04-25T17:25:44.999Z</time></trkpt><trkpt lat="40.181382415874936" lon="15.140625979313574"><ele>6.0</ele><time>2026-04-25T17:25:45.999Z</time></trkpt><trkpt lat="40.18131092540939" lon="15.140628919411672"><ele>6.0</ele><time>2026-04-25T17:25:46.999Z</time></trkpt><trkpt lat="40.18124595953096" lon="15.140630747867505"><ele>5.666666666666667</ele><time>2026-04-25T17:25:47.999Z</time></trkpt><trkpt lat="40.181104217740994" lon="15.140611193482021"><ele>5.333333333333333</ele><time>2026-04-25T17:25:49.999Z</time></trkpt><trkpt lat="40.181024866099186" lon="15.140595556940811"><ele>5.0</ele><time>2026-04-25T17:25:50.999Z</time></trkpt><trkpt lat="40.18095849290775" lon="15.140579893024945"><ele>4.666666666666666</ele><time>2026-04-25T17:25:51.999Z</time></trkpt><trkpt lat="40.18089131867151" lon="15.14056404013182"><ele>4.333333333333333</ele><time>2026-04-25T17:25:52.999Z</time></trkpt><trkpt lat="40.18081573566822" lon="15.14054432724759"><ele>4.0</ele><time>2026-04-25T17:25:53.999Z</time></trkpt><trkpt lat="40.180738788927215" lon="15.140524171651784"><ele>3.714285714285714</ele><time>2026-04-25T17:25:54.999Z</time></trkpt><trkpt lat="40.1806630663372" lon="15.14050383430853"><ele>3.428571428571428</ele><time>2026-04-25T17:25:55.999Z</time></trkpt><trkpt lat="40.18059887843782" lon="15.140485963751773"><ele>3.142857142857143</ele><time>2026-04-25T17:25:56.999Z</time></trkpt><trkpt lat="40.180532932405974" lon="15.140467603811324"><ele>2.8571428571428568</ele><time>2026-04-25T17:25:57.999Z</time></trkpt><trkpt lat="40.18045194199071" lon="15.140445055379896"><ele>2.571428571428571</ele><time>2026-04-25T17:25:58.999Z</time></trkpt><trkpt lat="40.18037276206517" lon="15.140423010922778"><ele>2.2857142857142856</ele><time>2026-04-25T17:25:59.999Z</time></trkpt><trkpt lat="40.180304405042996" lon="15.140403979725695"><ele>2.0</ele><time>2026-04-25T17:26:00.999Z</time></trkpt><trkpt lat="40.18023898694696" lon="15.140387855513302"><ele>1.9999999999999998</ele><time>2026-04-25T17:26:01.999Z</time></trkpt><trkpt lat="40.18016464872125" lon="15.140370287019827"><ele>2.0</ele><time>2026-04-25T17:26:02.999Z</time></trkpt><trkpt lat="40.18008036494202" lon="15.140350368133092"><ele>2.0</ele><time>2026-04-25T17:26:03.999Z</time></trkpt><trkpt lat="40.179992556735506" lon="15.140329616365388"><ele>2.0</ele><time>2026-04-25T17:26:04.999Z</time></trkpt><trkpt lat="40.17989732647562" lon="15.140307110440357"><ele>1.9999999999999998</ele><time>2026-04-25T17:26:05.999Z</time></trkpt><trkpt lat="40.17980317284943" lon="15.14028262037361"><ele>2.0</ele><time>2026-04-25T17:26:06.999Z</time></trkpt><trkpt lat="40.17971437773026" lon="15.140259519340672"><ele>2.1666666666666665</ele><time>2026-04-25T17:26:08Z</time></trkpt><trkpt lat="40.17962996327955" lon="15.140237558016032"><ele>2.333333333333333</ele><time>2026-04-25T17:26:09Z</time></trkpt><trkpt lat="40.17954292644875" lon="15.140214914430569"><ele>2.5</ele><time>2026-04-25T17:26:10Z</time></trkpt><trkpt lat="40.17945877025814" lon="15.140193020271289"><ele>2.6666666666666665</ele><time>2026-04-25T17:26:11Z</time></trkpt><trkpt lat="40.17937622156282" lon="15.14017297534484"><ele>2.8333333333333335</ele><time>2026-04-25T17:26:12Z</time></trkpt><trkpt lat="40.179283515519245" lon="15.140152531949159"><ele>3.0</ele><time>2026-04-25T17:26:13Z</time></trkpt><trkpt lat="40.179190281420915" lon="15.140131972116794"><ele>3.0</ele><time>2026-04-25T17:26:14Z</time></trkpt><trkpt lat="40.179109208588095" lon="15.140114094036269"><ele>3.0</ele><time>2026-04-25T17:26:15Z</time></trkpt><trkpt lat="40.17902906841537" lon="15.140095929785247"><ele>3.0</ele><time>2026-04-25T17:26:16Z</time></trkpt><trkpt lat="40.17896181233892" lon="15.140078601986529"><ele>3.0</ele><time>2026-04-25T17:26:17Z</time></trkpt><trkpt lat="40.1788393667253" lon="15.140043747519877"><ele>3.0</ele><time>2026-04-25T17:26:19Z</time></trkpt><trkpt lat="40.17877452053578" lon="15.140024639252909"><ele>3.0</ele><time>2026-04-25T17:26:20Z</time></trkpt><trkpt lat="40.17870120937673" lon="15.1400030366369"><ele>3.0</ele><time>2026-04-25T17:26:21Z</time></trkpt><trkpt lat="40.17862329909911" lon="15.139980078703694"><ele>3.0</ele><time>2026-04-25T17:26:22Z</time></trkpt><trkpt lat="40.17853969299812" lon="15.139956642945855"><ele>3.0</ele><time>2026-04-25T17:26:23Z</time></trkpt><trkpt lat="40.17846061573688" lon="15.139935378019356"><ele>3.0</ele><time>2026-04-25T17:26:24Z</time></trkpt><trkpt lat="40.17837700929324" lon="15.139914374452443"><ele>3.0</ele><time>2026-04-25T17:26:25Z</time></trkpt><trkpt lat="40.17828144962149" lon="15.139891286755665"><ele>3.0</ele><time>2026-04-25T17:26:26Z</time></trkpt><trkpt lat="40.17817737080216" lon="15.1398662847938"><ele>2.8333333333333335</ele><time>2026-04-25T17:26:27Z</time></trkpt><trkpt lat="40.178086990394036" lon="15.139844573517312"><ele>2.6666666666666665</ele><time>2026-04-25T17:26:28Z</time></trkpt><trkpt lat="40.178017745363576" lon="15.13982793940811"><ele>2.5</ele><time>2026-04-25T17:26:29Z</time></trkpt><trkpt lat="40.17795278858998" lon="15.139812335370598"><ele>2.333333333333333</ele><time>2026-04-25T17:26:30Z</time></trkpt><trkpt lat="40.17788865534071" lon="15.13979692922199"><ele>2.1666666666666665</ele><time>2026-04-25T17:26:31Z</time></trkpt><trkpt lat="40.1778217767949" lon="15.139780863559013"><ele>2.0</ele><time>2026-04-25T17:26:32Z</time></trkpt><trkpt lat="40.17770990213902" lon="15.139753988911698"><ele>2.0</ele><time>2026-04-25T17:26:34Z</time></trkpt><trkpt lat="40.17761924835732" lon="15.139732211937954"><ele>2.0</ele><time>2026-04-25T17:26:36Z</time></trkpt><trkpt lat="40.17756322614593" lon="15.139609519508465"><ele>2.0</ele><time>2026-04-25T17:26:38Z</time></trkpt><trkpt lat="40.17746306927333" lon="15.139587413945538"><ele>2.0</ele><time>2026-04-25T17:26:41Z</time></trkpt><trkpt lat="40.17734546257398" lon="15.139579860993093"><ele>2.0</ele><time>2026-04-25T17:26:43Z</time></trkpt><trkpt lat="40.17727832842113" lon="15.139548830625872"><ele>2.2</ele><time>2026-04-25T17:26:44Z</time></trkpt><trkpt lat="40.17720278907175" lon="15.139529688963277"><ele>2.4000000000000004</ele><time>2026-04-25T17:26:45Z</time></trkpt><trkpt lat="40.1770913294509" lon="15.139582582811821"><ele>2.5999999999999996</ele><time>2026-04-25T17:26:46Z</time></trkpt><trkpt lat="40.177031388740616" lon="15.139549126697064"><ele>2.8</ele><time>2026-04-25T17:26:47Z</time></trkpt><trkpt lat="40.17696863453972" lon="15.13945946515965"><ele>3.0</ele><time>2026-04-25T17:26:48Z</time></trkpt><trkpt lat="40.1768316684001" lon="15.13943231120606"><ele>3.0</ele><time>2026-04-25T17:26:49Z</time></trkpt><trkpt lat="40.17669174134202" lon="15.139402994053507"><ele>3.0</ele><time>2026-04-25T17:26:50Z</time></trkpt><trkpt lat="40.17649989346628" lon="15.139354545227196"><ele>3.0</ele><time>2026-04-25T17:26:51Z</time></trkpt><trkpt lat="40.17630193534464" lon="15.139298730080666"><ele>3.0</ele><time>2026-04-25T17:26:52Z</time></trkpt><trkpt lat="40.1761033481203" lon="15.139245353522073"><ele>3.0</ele><time>2026-04-25T17:26:53Z</time></trkpt><trkpt lat="40.17592813112684" lon="15.139202212848861"><ele>3.0</ele><time>2026-04-25T17:26:54Z</time></trkpt><trkpt lat="40.175777048093025" lon="15.139167367752263"><ele>2.75</ele><time>2026-04-25T17:26:55Z</time></trkpt><trkpt lat="40.17564903600554" lon="15.139132006136203"><ele>2.5</ele><time>2026-04-25T17:26:56Z</time></trkpt><trkpt lat="40.17552783850339" lon="15.139099658322186"><ele>2.25</ele><time>2026-04-25T17:26:57Z</time></trkpt><trkpt lat="40.17542302518938" lon="15.139069118486741"><ele>2.0</ele><time>2026-04-25T17:26:58Z</time></trkpt><trkpt lat="40.17530121327212" lon="15.139047792329906"><ele>2.0</ele><time>2026-04-25T17:26:59Z</time></trkpt><trkpt lat="40.17518980612309" lon="15.139018792000401"><ele>2.0</ele><time>2026-04-25T17:27:00Z</time></trkpt><trkpt lat="40.175072690830504" lon="15.138978719625952"><ele>2.0</ele><time>2026-04-25T17:27:01Z</time></trkpt><trkpt lat="40.174937332711266" lon="15.138940700910364"><ele>2.0</ele><time>2026-04-25T17:27:01.999Z</time></trkpt><trkpt lat="40.17478165265589" lon="15.138902267598894"><ele>2.0</ele><time>2026-04-25T17:27:02.999Z</time></trkpt><trkpt lat="40.1746679457285" lon="15.138870172340164"><ele>2.0</ele><time>2026-04-25T17:27:03.999Z</time></trkpt><trkpt lat="40.174513666864826" lon="15.138860003266409"><ele>2.0</ele><time>2026-04-25T17:27:04.999Z</time></trkpt><trkpt lat="40.17436202842334" lon="15.138827095974941"><ele>2.0</ele><time>2026-04-25T17:27:05.999Z</time></trkpt><trkpt lat="40.17422532287936" lon="15.13879566378942"><ele>2.0</ele><time>2026-04-25T17:27:06.999Z</time></trkpt><trkpt lat="40.17409194560542" lon="15.1387337160993"><ele>2.0</ele><time>2026-04-25T17:27:07.999Z</time></trkpt><trkpt lat="40.17394827000506" lon="15.138697485255976"><ele>2.0</ele><time>2026-04-25T17:27:08.999Z</time></trkpt><trkpt lat="40.17380615571239" lon="15.138664868308975"><ele>2.0</ele><time>2026-04-25T17:27:09.999Z</time></trkpt><trkpt lat="40.17366366755636" lon="15.138658519592198"><ele>2.25</ele><time>2026-04-25T17:27:10.999Z</time></trkpt><trkpt lat="40.17351577731909" lon="15.138636079501028"><ele>2.5</ele><time>2026-04-25T17:27:11.999Z</time></trkpt><trkpt lat="40.173375117956326" lon="15.138598464984836"><ele>2.75</ele><time>2026-04-25T17:27:12.999Z</time></trkpt><trkpt lat="40.1732425299903" lon="15.138586979425812"><ele>3.0</ele><time>2026-04-25T17:27:13.999Z</time></trkpt><trkpt lat="40.173129925764655" lon="15.138608261756442"><ele>3.0</ele><time>2026-04-25T17:27:14.999Z</time></trkpt><trkpt lat="40.17306012240275" lon="15.138585729058633"><ele>3.0</ele><time>2026-04-25T17:27:15.999Z</time></trkpt><trkpt lat="40.17298349032949" lon="15.138574574081973"><ele>3.0</ele><time>2026-04-25T17:27:17.999Z</time></trkpt><trkpt lat="40.172913554898045" lon="15.138535655952033"><ele>3.0</ele><time>2026-04-25T17:27:19.999Z</time></trkpt><trkpt lat="40.17291342798927" lon="15.138451473281693"><ele>3.0</ele><time>2026-04-25T17:27:20.999Z</time></trkpt><trkpt lat="40.17295362296825" lon="15.138353414497187"><ele>3.0</ele><time>2026-04-25T17:27:21.999Z</time></trkpt><trkpt lat="40.172981043817266" lon="15.138217747308921"><ele>3.0</ele><time>2026-04-25T17:27:22.999Z</time></trkpt><trkpt lat="40.17302461978533" lon="15.13805425129838"><ele>3.0</ele><time>2026-04-25T17:27:23.999Z</time></trkpt><trkpt lat="40.173076977901836" lon="15.137888267534734"><ele>3.0</ele><time>2026-04-25T17:27:24.999Z</time></trkpt><trkpt lat="40.17311262708306" lon="15.137753762583017"><ele>3.0</ele><time>2026-04-25T17:27:25.999Z</time></trkpt><trkpt lat="40.173143538014024" lon="15.137634968038546"><ele>3.0</ele><time>2026-04-25T17:27:26.999Z</time></trkpt><trkpt lat="40.17317154422248" lon="15.137520134227636"><ele>3.0</ele><time>2026-04-25T17:27:27.999Z</time></trkpt><trkpt lat="40.17320214583952" lon="15.137386682508131"><ele>3.0</ele><time>2026-04-25T17:27:28.999Z</time></trkpt><trkpt lat="40.17325043424689" lon="15.137193776290363"><ele>3.0</ele><time>2026-04-25T17:27:29.999Z</time></trkpt><trkpt lat="40.17329806675898" lon="15.136999055829014"><ele>2.6</ele><time>2026-04-25T17:27:30.999Z</time></trkpt><trkpt lat="40.173330524445994" lon="15.136845669078854"><ele>2.1999999999999997</ele><time>2026-04-25T17:27:31.999Z</time></trkpt><trkpt lat="40.17334351382907" lon="15.136735547550735"><ele>1.8</ele><time>2026-04-25T17:27:32.999Z</time></trkpt><trkpt lat="40.173379932022485" lon="15.136629502074303"><ele>1.4</ele><time>2026-04-25T17:27:34.999Z</time></trkpt><trkpt lat="40.17344882694598" lon="15.136649265574217"><ele>1.0</ele><time>2026-04-25T17:27:37.999Z</time></trkpt><trkpt lat="40.17344603744121" lon="15.136907429212227"><ele>1.0</ele><time>2026-04-25T17:31:59.999Z</time></trkpt><trkpt lat="40.17341307785413" lon="15.137059980027205"><ele>1.0</ele><time>2026-04-25T17:32:00.999Z</time></trkpt><trkpt lat="40.173334196566444" lon="15.137220871102095"><ele>1.0</ele><time>2026-04-25T17:32:01.999Z</time></trkpt><trkpt lat="40.1732872719199" lon="15.13741170092572"><ele>1.0</ele><time>2026-04-25T17:32:02.999Z</time></trkpt><trkpt lat="40.173272613788555" lon="15.13763616994745"><ele>1.0</ele><time>2026-04-25T17:32:03.999Z</time></trkpt><trkpt lat="40.17321902599858" lon="15.137846829912785"><ele>1.0</ele><time>2026-04-25T17:32:04.999Z</time></trkpt><trkpt lat="40.17316798686152" lon="15.138060111220945"><ele>1.0</ele><time>2026-04-25T17:32:05.999Z</time></trkpt><trkpt lat="40.17311676288881" lon="15.138265215475057"><ele>1.6666666666666665</ele><time>2026-04-25T17:32:06.999Z</time></trkpt><trkpt lat="40.173064109075085" lon="15.138462647565627"><ele>2.3333333333333335</ele><time>2026-04-25T17:32:07.999Z</time></trkpt><trkpt lat="40.17301495554625" lon="15.138663666992693"><ele>3.0</ele><time>2026-04-25T17:32:08.999Z</time></trkpt><trkpt lat="40.172963301054715" lon="15.138874838421074"><ele>3.0</ele><time>2026-04-25T17:32:09.999Z</time></trkpt><trkpt lat="40.17290886323259" lon="15.139098649489659"><ele>3.0</ele><time>2026-04-25T17:32:10.999Z</time></trkpt><trkpt lat="40.172854632806036" lon="15.139334852586082"><ele>3.0</ele><time>2026-04-25T17:32:11.999Z</time></trkpt><trkpt lat="40.172796869301614" lon="15.139570719050818"><ele>3.0</ele><time>2026-04-25T17:32:12.999Z</time></trkpt><trkpt lat="40.17273586589212" lon="15.139813456561686"><ele>3.0</ele><time>2026-04-25T17:32:13.999Z</time></trkpt><trkpt lat="40.17267669258209" lon="15.140054870843118"><ele>3.0</ele><time>2026-04-25T17:32:14.999Z</time></trkpt><trkpt lat="40.172613388581425" lon="15.140310531967106"><ele>3.0</ele><time>2026-04-25T17:32:15.999Z</time></trkpt><trkpt lat="40.17255156189103" lon="15.140567082682816"><ele>3.0</ele><time>2026-04-25T17:32:16.999Z</time></trkpt><trkpt lat="40.1724590339871" lon="15.140796047698739"><ele>3.0</ele><time>2026-04-25T17:32:17.999Z</time></trkpt><trkpt lat="40.172404132703114" lon="15.141021426682608"><ele>3.0</ele><time>2026-04-25T17:32:18.999Z</time></trkpt><trkpt lat="40.17235223791735" lon="15.141228711800247"><ele>3.0</ele><time>2026-04-25T17:32:19.999Z</time></trkpt><trkpt lat="40.17229486331043" lon="15.14143653740818"><ele>3.0</ele><time>2026-04-25T17:32:20.999Z</time></trkpt><trkpt lat="40.17222615919586" lon="15.141643855514637"><ele>2.6666666666666665</ele><time>2026-04-25T17:32:21.999Z</time></trkpt><trkpt lat="40.17214167370954" lon="15.141840691074844"><ele>2.333333333333333</ele><time>2026-04-25T17:32:22.999Z</time></trkpt><trkpt lat="40.172045411627046" lon="15.142033971834547"><ele>2.0</ele><time>2026-04-25T17:32:23.999Z</time></trkpt><trkpt lat="40.17193694617609" lon="15.142218361101222"><ele>1.6666666666666665</ele><time>2026-04-25T17:32:24.999Z</time></trkpt><trkpt lat="40.17181686695647" lon="15.142393332164515"><ele>1.3333333333333333</ele><time>2026-04-25T17:32:26Z</time></trkpt><trkpt lat="40.17169267054914" lon="15.14257619343037"><ele>1.0</ele><time>2026-04-25T17:32:27Z</time></trkpt><trkpt lat="40.171543174920934" lon="15.142729925685229"><ele>1.0</ele><time>2026-04-25T17:32:28Z</time></trkpt><trkpt lat="40.171382666579746" lon="15.142873412126093"><ele>1.0</ele><time>2026-04-25T17:32:29Z</time></trkpt><trkpt lat="40.171196611447286" lon="15.142998780241276"><ele>1.0</ele><time>2026-04-25T17:32:30Z</time></trkpt><trkpt lat="40.17099995595981" lon="15.143144114246688"><ele>1.5</ele><time>2026-04-25T17:32:31Z</time></trkpt><trkpt lat="40.17079818946069" lon="15.143293219199371"><ele>2.0</ele><time>2026-04-25T17:32:32Z</time></trkpt><trkpt lat="40.17060756444961" lon="15.143433946956778"><ele>2.333333333333333</ele><time>2026-04-25T17:32:33Z</time></trkpt><trkpt lat="40.17042648540987" lon="15.143567499822556"><ele>2.6666666666666665</ele><time>2026-04-25T17:32:34Z</time></trkpt><trkpt lat="40.170259420311275" lon="15.143691458356622"><ele>3.0</ele><time>2026-04-25T17:32:35Z</time></trkpt><trkpt lat="40.17010074154714" lon="15.143809194343612"><ele>3.0</ele><time>2026-04-25T17:32:36Z</time></trkpt><trkpt lat="40.169949085784985" lon="15.143921719447558"><ele>3.0</ele><time>2026-04-25T17:32:37Z</time></trkpt><trkpt lat="40.169805072394816" lon="15.144028574119114"><ele>3.0</ele><time>2026-04-25T17:32:38Z</time></trkpt><trkpt lat="40.169666894445314" lon="15.144131099057162"><ele>2.6666666666666665</ele><time>2026-04-25T17:32:39Z</time></trkpt><trkpt lat="40.169531233340734" lon="15.144231756294765"><ele>2.333333333333333</ele><time>2026-04-25T17:32:40Z</time></trkpt><trkpt lat="40.169381011657066" lon="15.144343503405855"><ele>2.0</ele><time>2026-04-25T17:32:41Z</time></trkpt><trkpt lat="40.16921951799154" lon="15.144463620505809"><ele>2.0</ele><time>2026-04-25T17:32:42Z</time></trkpt><trkpt lat="40.169053393339816" lon="15.144587181888001"><ele>2.0</ele><time>2026-04-25T17:32:43Z</time></trkpt><trkpt lat="40.16888451595197" lon="15.144712790877021"><ele>2.0</ele><time>2026-04-25T17:32:44Z</time></trkpt><trkpt lat="40.16872542310991" lon="15.144831567551627"><ele>1.6666666666666665</ele><time>2026-04-25T17:32:45Z</time></trkpt><trkpt lat="40.16858194176083" lon="15.144939594542997"><ele>1.3333333333333333</ele><time>2026-04-25T17:32:46Z</time></trkpt><trkpt lat="40.16845563589309" lon="15.145059311881987"><ele>1.0</ele><time>2026-04-25T17:32:47Z</time></trkpt><trkpt lat="40.16833579708883" lon="15.145149936659731"><ele>1.0</ele><time>2026-04-25T17:32:48Z</time></trkpt><trkpt lat="40.16821369116991" lon="15.1452168500182"><ele>1.0</ele><time>2026-04-25T17:32:49Z</time></trkpt><trkpt lat="40.168106618703305" lon="15.145297465807099"><ele>1.0</ele><time>2026-04-25T17:32:50Z</time></trkpt><trkpt lat="40.168007724158095" lon="15.145371561055704"><ele>1.0</ele><time>2026-04-25T17:32:51Z</time></trkpt><trkpt lat="40.167920406511925" lon="15.145461635256455"><ele>1.25</ele><time>2026-04-25T17:32:52Z</time></trkpt><trkpt lat="40.16782917211617" lon="15.145529164301115"><ele>1.5</ele><time>2026-04-25T17:32:53Z</time></trkpt><trkpt lat="40.16772282011493" lon="15.145585205578719"><ele>1.75</ele><time>2026-04-25T17:32:54Z</time></trkpt><trkpt lat="40.16761140971505" lon="15.145668750388387"><ele>2.0</ele><time>2026-04-25T17:32:55Z</time></trkpt><trkpt lat="40.167490703441125" lon="15.145759265931877"><ele>2.333333333333333</ele><time>2026-04-25T17:32:56Z</time></trkpt><trkpt lat="40.16736848779758" lon="15.145851274190344"><ele>2.6666666666666665</ele><time>2026-04-25T17:32:57Z</time></trkpt><trkpt lat="40.16723392685273" lon="15.145952583474962"><ele>3.0</ele><time>2026-04-25T17:32:58Z</time></trkpt><trkpt lat="40.16709165329621" lon="15.146059066853324"><ele>2.5</ele><time>2026-04-25T17:32:59Z</time></trkpt><trkpt lat="40.16695503011482" lon="15.146161451161552"><ele>2.0</ele><time>2026-04-25T17:33:00Z</time></trkpt><trkpt lat="40.16683300401959" lon="15.146251764010271"><ele>1.5</ele><time>2026-04-25T17:33:01Z</time></trkpt><trkpt lat="40.166721994382286" lon="15.146334545077051"><ele>1.0</ele><time>2026-04-25T17:33:02Z</time></trkpt><trkpt lat="40.1666157819449" lon="15.146413747656613"><ele>1.2000000000000002</ele><time>2026-04-25T17:33:03Z</time></trkpt><trkpt lat="40.166519535969904" lon="15.146485518233554"><ele>1.4000000000000001</ele><time>2026-04-25T17:33:04Z</time></trkpt><trkpt lat="40.16642602400224" lon="15.146555250117965"><ele>1.6</ele><time>2026-04-25T17:33:05Z</time></trkpt><trkpt lat="40.166338990379295" lon="15.146620151044589"><ele>1.8</ele><time>2026-04-25T17:33:06Z</time></trkpt><trkpt lat="40.16625949230071" lon="15.14667943276602"><ele>2.0</ele><time>2026-04-25T17:33:07Z</time></trkpt><trkpt lat="40.166196904706574" lon="15.14675061429925"><ele>2.0</ele><time>2026-04-25T17:33:08Z</time></trkpt><trkpt lat="40.16610942018571" lon="15.146790075948234"><ele>2.0</ele><time>2026-04-25T17:33:09Z</time></trkpt><trkpt lat="40.166013471109196" lon="15.14686065424205"><ele>2.0</ele><time>2026-04-25T17:33:10Z</time></trkpt><trkpt lat="40.16589160475869" lon="15.146953045202741"><ele>2.0</ele><time>2026-04-25T17:33:11Z</time></trkpt><trkpt lat="40.165747083234066" lon="15.147061558533872"><ele>2.0</ele><time>2026-04-25T17:33:12Z</time></trkpt><trkpt lat="40.16559891646106" lon="15.1471729890293"><ele>2.0</ele><time>2026-04-25T17:33:13Z</time></trkpt><trkpt lat="40.165425346878756" lon="15.147303325100234"><ele>2.0</ele><time>2026-04-25T17:33:14Z</time></trkpt><trkpt lat="40.165267860903235" lon="15.147420454806582"><ele>2.0</ele><time>2026-04-25T17:33:14.999Z</time></trkpt><trkpt lat="40.16511653291451" lon="15.147531203648418"><ele>2.0</ele><time>2026-04-25T17:33:15.999Z</time></trkpt><trkpt lat="40.164955260302946" lon="15.147650795246996"><ele>2.0</ele><time>2026-04-25T17:33:16.999Z</time></trkpt><trkpt lat="40.16476819715055" lon="15.147792035949509"><ele>2.0</ele><time>2026-04-25T17:33:17.999Z</time></trkpt><trkpt lat="40.16455390557245" lon="15.147953160780439"><ele>2.0</ele><time>2026-04-25T17:33:18.999Z</time></trkpt><trkpt lat="40.16433282610802" lon="15.148118076333214"><ele>1.3333333333333333</ele><time>2026-04-25T17:33:19.999Z</time></trkpt><trkpt lat="40.164143171433636" lon="15.148259189519775"><ele>0.6666666666666666</ele><time>2026-04-25T17:33:20.999Z</time></trkpt><trkpt lat="40.163975689197095" lon="15.148385809676007"><ele>0.0</ele><time>2026-04-25T17:33:21.999Z</time></trkpt><trkpt lat="40.16380578196706" lon="15.14851426318489"><ele>0.0</ele><time>2026-04-25T17:33:22.999Z</time></trkpt><trkpt lat="40.16364629705881" lon="15.148631902746901"><ele>0.0</ele><time>2026-04-25T17:33:23.999Z</time></trkpt><trkpt lat="40.16349554861121" lon="15.148742503533269"><ele>0.0</ele><time>2026-04-25T17:33:24.999Z</time></trkpt><trkpt lat="40.16335009645499" lon="15.14884973558854"><ele>0.0</ele><time>2026-04-25T17:33:25.999Z</time></trkpt><trkpt lat="40.163208952628175" lon="15.148956662704906"><ele>0.0</ele><time>2026-04-25T17:33:26.999Z</time></trkpt><trkpt lat="40.1630597606025" lon="15.14907051379223"><ele>0.0</ele><time>2026-04-25T17:33:27.999Z</time></trkpt><trkpt lat="40.16290093219218" lon="15.149191959558244"><ele>0.3333333333333333</ele><time>2026-04-25T17:33:28.999Z</time></trkpt><trkpt lat="40.162744785421204" lon="15.149308286444729"><ele>0.6666666666666666</ele><time>2026-04-25T17:33:29.999Z</time></trkpt><trkpt lat="40.16258895715066" lon="15.14942285008123"><ele>1.0</ele><time>2026-04-25T17:33:30.999Z</time></trkpt><trkpt lat="40.16244305385092" lon="15.149531129107384"><ele>1.25</ele><time>2026-04-25T17:33:31.999Z</time></trkpt><trkpt lat="40.162306945637404" lon="15.149632720117978"><ele>1.5</ele><time>2026-04-25T17:33:32.999Z</time></trkpt><trkpt lat="40.162178132088236" lon="15.149728867782631"><ele>1.75</ele><time>2026-04-25T17:33:33.999Z</time></trkpt><trkpt lat="40.162053679372015" lon="15.149821538020282"><ele>2.0</ele><time>2026-04-25T17:33:34.999Z</time></trkpt><trkpt lat="40.16193529790258" lon="15.149909508545306"><ele>2.0</ele><time>2026-04-25T17:33:35.999Z</time></trkpt><trkpt lat="40.161807597211904" lon="15.150008156917085"><ele>2.0</ele><time>2026-04-25T17:33:36.999Z</time></trkpt><trkpt lat="40.16166039618509" lon="15.150116266871544"><ele>2.0</ele><time>2026-04-25T17:33:37.999Z</time></trkpt><trkpt lat="40.16149134843055" lon="15.150239295665063"><ele>2.0</ele><time>2026-04-25T17:33:38.999Z</time></trkpt><trkpt lat="40.161311101021504" lon="15.150376176471145"><ele>2.0</ele><time>2026-04-25T17:33:39.999Z</time></trkpt><trkpt lat="40.16113795098996" lon="15.15050523940007"><ele>2.0</ele><time>2026-04-25T17:33:40.999Z</time></trkpt><trkpt lat="40.16098191008626" lon="15.15062100721292"><ele>2.0</ele><time>2026-04-25T17:33:41.999Z</time></trkpt><trkpt lat="40.160837405572764" lon="15.150729586022194"><ele>2.0</ele><time>2026-04-25T17:33:42.999Z</time></trkpt><trkpt lat="40.16069936449727" lon="15.1508333083126"><ele>2.0</ele><time>2026-04-25T17:33:43.999Z</time></trkpt><trkpt lat="40.16056694536638" lon="15.150932806342311"><ele>2.0</ele><time>2026-04-25T17:33:44.999Z</time></trkpt><trkpt lat="40.16044222460653" lon="15.15102651970626"><ele>2.0</ele><time>2026-04-25T17:33:45.999Z</time></trkpt><trkpt lat="40.16032399069284" lon="15.151114121893615"><ele>2.0</ele><time>2026-04-25T17:33:46.999Z</time></trkpt><trkpt lat="40.16020876352108" lon="15.151198716286215"><ele>2.0</ele><time>2026-04-25T17:33:47.999Z</time></trkpt><trkpt lat="40.160097090076306" lon="15.151279087300596"><ele>2.0</ele><time>2026-04-25T17:33:48.999Z</time></trkpt><trkpt lat="40.15997201496726" lon="15.151369103478773"><ele>2.0</ele><time>2026-04-25T17:33:49.999Z</time></trkpt><trkpt lat="40.15984937488555" lon="15.151457204166581"><ele>2.0</ele><time>2026-04-25T17:33:50.999Z</time></trkpt><trkpt lat="40.15973206821389" lon="15.151541259785159"><ele>2.0</ele><time>2026-04-25T17:33:51.999Z</time></trkpt><trkpt lat="40.15962351207119" lon="15.151620980915188"><ele>2.75</ele><time>2026-04-25T17:33:52.999Z</time></trkpt><trkpt lat="40.15952841223602" lon="15.15170869473388"><ele>3.5</ele><time>2026-04-25T17:33:53.999Z</time></trkpt><trkpt lat="40.15945541142866" lon="15.151802861962338"><ele>4.25</ele><time>2026-04-25T17:33:54.999Z</time></trkpt><trkpt lat="40.15936340237712" lon="15.151877962324223"><ele>5.0</ele><time>2026-04-25T17:33:55.999Z</time></trkpt><trkpt lat="40.159247213254396" lon="15.151966137798867"><ele>5.0</ele><time>2026-04-25T17:33:56.999Z</time></trkpt><trkpt lat="40.15910743294121" lon="15.152060603162532"><ele>5.0</ele><time>2026-04-25T17:33:57.999Z</time></trkpt><trkpt lat="40.158973336038855" lon="15.152174890024124"><ele>5.0</ele><time>2026-04-25T17:33:58.999Z</time></trkpt><trkpt lat="40.15885291437395" lon="15.152330324376132"><ele>4.666666666666667</ele><time>2026-04-25T17:33:59.999Z</time></trkpt><trkpt lat="40.15873095037078" lon="15.152487654430768"><ele>4.333333333333333</ele><time>2026-04-25T17:34:00.999Z</time></trkpt><trkpt lat="40.15864347517173" lon="15.152669108114605"><ele>4.0</ele><time>2026-04-25T17:34:01.999Z</time></trkpt><trkpt lat="40.15856760133483" lon="15.152855188555813"><ele>4.0</ele><time>2026-04-25T17:34:02.999Z</time></trkpt><trkpt lat="40.158512246236626" lon="15.153044664096816"><ele>4.0</ele><time>2026-04-25T17:34:03.999Z</time></trkpt><trkpt lat="40.15848702377696" lon="15.153251439052061"><ele>4.0</ele><time>2026-04-25T17:34:04.999Z</time></trkpt><trkpt lat="40.15847142081124" lon="15.153459536589121"><ele>4.0</ele><time>2026-04-25T17:34:05.999Z</time></trkpt><trkpt lat="40.15845653728136" lon="15.153652723654888"><ele>4.0</ele><time>2026-04-25T17:34:06.999Z</time></trkpt><trkpt lat="40.15844278831426" lon="15.153836875191528"><ele>4.0</ele><time>2026-04-25T17:34:07.999Z</time></trkpt><trkpt lat="40.15844946150948" lon="15.154013724079057"><ele>4.0</ele><time>2026-04-25T17:34:08.999Z</time></trkpt><trkpt lat="40.15847539134245" lon="15.154175654806147"><ele>4.0</ele><time>2026-04-25T17:34:09.999Z</time></trkpt><trkpt lat="40.158508647030374" lon="15.154321445171187"><ele>4.0</ele><time>2026-04-25T17:34:10.999Z</time></trkpt><trkpt lat="40.15853669152456" lon="15.15445752930338"><ele>4.0</ele><time>2026-04-25T17:34:11.999Z</time></trkpt><trkpt lat="40.15854106401202" lon="15.154588179115567"><ele>4.0</ele><time>2026-04-25T17:34:12.999Z</time></trkpt><trkpt lat="40.158527931843764" lon="15.154725002735361"><ele>4.0</ele><time>2026-04-25T17:34:13.999Z</time></trkpt><trkpt lat="40.15846782855776" lon="15.154849185570255"><ele>4.0</ele><time>2026-04-25T17:34:14.999Z</time></trkpt><trkpt lat="40.158428323533485" lon="15.155006773210687"><ele>4.0</ele><time>2026-04-25T17:34:15.999Z</time></trkpt><trkpt lat="40.15835686246496" lon="15.155123669856172"><ele>4.0</ele><time>2026-04-25T17:34:16.999Z</time></trkpt><trkpt lat="40.15829225089269" lon="15.15523659082686"><ele>4.0</ele><time>2026-04-25T17:34:17.999Z</time></trkpt><trkpt lat="40.15823005304134" lon="15.155361012715474"><ele>4.0</ele><time>2026-04-25T17:34:18.999Z</time></trkpt><trkpt lat="40.1581610341801" lon="15.155494203995488"><ele>4.0</ele><time>2026-04-25T17:34:19.999Z</time></trkpt><trkpt lat="40.15808520027195" lon="15.155632447464813"><ele>4.0</ele><time>2026-04-25T17:34:20.999Z</time></trkpt><trkpt lat="40.15800039804731" lon="15.155777340649907"><ele>4.0</ele><time>2026-04-25T17:34:21.999Z</time></trkpt><trkpt lat="40.15791573268373" lon="15.155933861735248"><ele>4.0</ele><time>2026-04-25T17:34:22.999Z</time></trkpt><trkpt lat="40.15782952071239" lon="15.156094184918231"><ele>4.0</ele><time>2026-04-25T17:34:23.999Z</time></trkpt><trkpt lat="40.15774328132396" lon="15.156257930222427"><ele>4.0</ele><time>2026-04-25T17:34:24.999Z</time></trkpt><trkpt lat="40.15765787094059" lon="15.156425792725575"><ele>3.6666666666666665</ele><time>2026-04-25T17:34:25.999Z</time></trkpt><trkpt lat="40.157559593165495" lon="15.156614130784247"><ele>3.333333333333333</ele><time>2026-04-25T17:34:26.999Z</time></trkpt><trkpt lat="40.15745209594871" lon="15.156814731376858"><ele>3.0</ele><time>2026-04-25T17:34:27.999Z</time></trkpt><trkpt lat="40.15733935567206" lon="15.157029145194073"><ele>3.0</ele><time>2026-04-25T17:34:28.999Z</time></trkpt><trkpt lat="40.15721237186914" lon="15.15723895371505"><ele>3.0</ele><time>2026-04-25T17:34:29.999Z</time></trkpt><trkpt lat="40.157104408573346" lon="15.15746346412549"><ele>3.0</ele><time>2026-04-25T17:34:30.998Z</time></trkpt><trkpt lat="40.15699956682077" lon="15.157699963415029"><ele>3.0</ele><time>2026-04-25T17:34:32Z</time></trkpt><trkpt lat="40.15690209251333" lon="15.157940838927557"><ele>3.0</ele><time>2026-04-25T17:34:33Z</time></trkpt><trkpt lat="40.15681617302588" lon="15.158159823928155"><ele>3.0</ele><time>2026-04-25T17:34:34Z</time></trkpt><trkpt lat="40.15673607096691" lon="15.158365215419895"><ele>3.0</ele><time>2026-04-25T17:34:35Z</time></trkpt><trkpt lat="40.15666035652451" lon="15.158563920313123"><ele>3.0</ele><time>2026-04-25T17:34:36Z</time></trkpt><trkpt lat="40.1565906703333" lon="15.158758117804679"><ele>3.0</ele><time>2026-04-25T17:34:37Z</time></trkpt><trkpt lat="40.15652336438519" lon="15.158941667229785"><ele>2.6666666666666665</ele><time>2026-04-25T17:34:38Z</time></trkpt><trkpt lat="40.156471147123405" lon="15.159130538007917"><ele>2.333333333333333</ele><time>2026-04-25T17:34:39Z</time></trkpt><trkpt lat="40.156412568606534" lon="15.1593170120167"><ele>2.0</ele><time>2026-04-25T17:34:40Z</time></trkpt><trkpt lat="40.15634642105819" lon="15.159497090574227"><ele>2.0</ele><time>2026-04-25T17:34:41Z</time></trkpt><trkpt lat="40.15630003407396" lon="15.159684964512026"><ele>2.0</ele><time>2026-04-25T17:34:42Z</time></trkpt><trkpt lat="40.15625228378766" lon="15.15985286224285"><ele>2.0</ele><time>2026-04-25T17:34:43Z</time></trkpt><trkpt lat="40.15621057500401" lon="15.160021115220086"><ele>2.0</ele><time>2026-04-25T17:34:44Z</time></trkpt><trkpt lat="40.156141638248116" lon="15.160165892093865"><ele>2.5</ele><time>2026-04-25T17:34:45Z</time></trkpt><trkpt lat="40.15606643006809" lon="15.160298886165515"><ele>3.0</ele><time>2026-04-25T17:34:46Z</time></trkpt><trkpt lat="40.15598619830672" lon="15.160416187468648"><ele>3.5</ele><time>2026-04-25T17:34:47Z</time></trkpt><trkpt lat="40.1559052845251" lon="15.160524246613058"><ele>4.0</ele><time>2026-04-25T17:34:48Z</time></trkpt><trkpt lat="40.15583039502517" lon="15.160628446013035"><ele>4.166666666666666</ele><time>2026-04-25T17:34:49Z</time></trkpt><trkpt lat="40.15576127502446" lon="15.160726656895104"><ele>4.333333333333333</ele><time>2026-04-25T17:34:50Z</time></trkpt><trkpt lat="40.1557024647905" lon="15.160812602325008"><ele>4.5</ele><time>2026-04-25T17:34:51Z</time></trkpt><trkpt lat="40.15565593812981" lon="15.160880842033063"><ele>4.666666666666667</ele><time>2026-04-25T17:34:52Z</time></trkpt><trkpt lat="40.155603370905" lon="15.160955838140904"><ele>4.833333333333334</ele><time>2026-04-25T17:34:53Z</time></trkpt><trkpt lat="40.15554174457711" lon="15.161034447286722"><ele>5.0</ele><time>2026-04-25T17:34:54Z</time></trkpt><trkpt lat="40.15548287117563" lon="15.16111157913652"><ele>5.0</ele><time>2026-04-25T17:34:55Z</time></trkpt><trkpt lat="40.15541725988937" lon="15.161198149073199"><ele>5.0</ele><time>2026-04-25T17:34:56Z</time></trkpt><trkpt lat="40.155344261852726" lon="15.161302510382468"><ele>5.0</ele><time>2026-04-25T17:34:57Z</time></trkpt><trkpt lat="40.155263172914616" lon="15.161431603356421"><ele>5.0</ele><time>2026-04-25T17:34:58Z</time></trkpt><trkpt lat="40.15516784784825" lon="15.161570153630178"><ele>5.0</ele><time>2026-04-25T17:34:59Z</time></trkpt><trkpt lat="40.15506759829227" lon="15.1617125678086"><ele>5.0</ele><time>2026-04-25T17:35:00Z</time></trkpt><trkpt lat="40.154978349886576" lon="15.161841905403575"><ele>5.0</ele><time>2026-04-25T17:35:01Z</time></trkpt><trkpt lat="40.15489359253219" lon="15.161970256803333"><ele>5.0</ele><time>2026-04-25T17:35:02Z</time></trkpt><trkpt lat="40.154807758996796" lon="15.162097110485922"><ele>5.0</ele><time>2026-04-25T17:35:03Z</time></trkpt><trkpt lat="40.15471979250775" lon="15.162218592945866"><ele>5.0</ele><time>2026-04-25T17:35:04Z</time></trkpt><trkpt lat="40.15463018571273" lon="15.16233733446988"><ele>5.0</ele><time>2026-04-25T17:35:05Z</time></trkpt><trkpt lat="40.15453836652821" lon="15.162458786488173"><ele>5.0</ele><time>2026-04-25T17:35:06Z</time></trkpt><trkpt lat="40.15444089462572" lon="15.162580439356502"><ele>5.25</ele><time>2026-04-25T17:35:07Z</time></trkpt><trkpt lat="40.15433745562247" lon="15.162696090725966"><ele>5.5</ele><time>2026-04-25T17:35:08Z</time></trkpt><trkpt lat="40.15422815599092" lon="15.162808162555304"><ele>5.75</ele><time>2026-04-25T17:35:09Z</time></trkpt><trkpt lat="40.15412370739697" lon="15.162925186034663"><ele>6.0</ele><time>2026-04-25T17:35:10Z</time></trkpt><trkpt lat="40.15401534357244" lon="15.163043953608625"><ele>5.75</ele><time>2026-04-25T17:35:11Z</time></trkpt><trkpt lat="40.15390555024276" lon="15.16316228199491"><ele>5.5</ele><time>2026-04-25T17:35:12Z</time></trkpt><trkpt lat="40.15378779334761" lon="15.163278561842786"><ele>5.25</ele><time>2026-04-25T17:35:13Z</time></trkpt><trkpt lat="40.1536610739566" lon="15.163399985403482"><ele>5.0</ele><time>2026-04-25T17:35:14Z</time></trkpt><trkpt lat="40.1535242676363" lon="15.163520437643221"><ele>5.0</ele><time>2026-04-25T17:35:15Z</time></trkpt><trkpt lat="40.15338208544132" lon="15.16364104471439"><ele>5.0</ele><time>2026-04-25T17:35:16Z</time></trkpt><trkpt lat="40.15323503521631" lon="15.163760463292393"><ele>5.0</ele><time>2026-04-25T17:35:17Z</time></trkpt><trkpt lat="40.15308798740294" lon="15.163890531238769"><ele>5.333333333333334</ele><time>2026-04-25T17:35:18Z</time></trkpt><trkpt lat="40.15294060576842" lon="15.164016142161275"><ele>5.666666666666667</ele><time>2026-04-25T17:35:18.999Z</time></trkpt><trkpt lat="40.1528037771554" lon="15.164128603347994"><ele>6.0</ele><time>2026-04-25T17:35:19.999Z</time></trkpt><trkpt lat="40.152665506505066" lon="15.164244547003376"><ele>6.666666666666666</ele><time>2026-04-25T17:35:20.999Z</time></trkpt><trkpt lat="40.15252826100697" lon="15.164356233915287"><ele>7.333333333333333</ele><time>2026-04-25T17:35:21.999Z</time></trkpt><trkpt lat="40.152389780665885" lon="15.1644603478254"><ele>8.0</ele><time>2026-04-25T17:35:22.999Z</time></trkpt><trkpt lat="40.1522530988318" lon="15.164557446039174"><ele>6.666666666666666</ele><time>2026-04-25T17:35:23.999Z</time></trkpt><trkpt lat="40.1521184931933" lon="15.164651299442049"><ele>5.333333333333333</ele><time>2026-04-25T17:35:24.999Z</time></trkpt><trkpt lat="40.15198306508307" lon="15.164741693547093"><ele>4.0</ele><time>2026-04-25T17:35:25.999Z</time></trkpt><trkpt lat="40.15184426640293" lon="15.16483336992519"><ele>4.666666666666666</ele><time>2026-04-25T17:35:26.999Z</time></trkpt><trkpt lat="40.151704027478715" lon="15.164926864411532"><ele>5.333333333333333</ele><time>2026-04-25T17:35:27.999Z</time></trkpt><trkpt lat="40.15156459163509" lon="15.165016164802926"><ele>6.0</ele><time>2026-04-25T17:35:28.999Z</time></trkpt><trkpt lat="40.151424902967776" lon="15.165103149715963"><ele>6.0</ele><time>2026-04-25T17:35:29.999Z</time></trkpt><trkpt lat="40.15129176925306" lon="15.165187317828876"><ele>6.0</ele><time>2026-04-25T17:35:30.999Z</time></trkpt><trkpt lat="40.151165606076596" lon="15.16527040384774"><ele>6.0</ele><time>2026-04-25T17:35:31.999Z</time></trkpt><trkpt lat="40.15105054890776" lon="15.16535378112794"><ele>6.0</ele><time>2026-04-25T17:35:32.999Z</time></trkpt><trkpt lat="40.15094850019641" lon="15.165434671095142"><ele>6.0</ele><time>2026-04-25T17:35:33.999Z</time></trkpt><trkpt lat="40.15084862985625" lon="15.165495093785056"><ele>6.0</ele><time>2026-04-25T17:35:34.999Z</time></trkpt><trkpt lat="40.1507554678219" lon="15.165538627912339"><ele>6.0</ele><time>2026-04-25T17:35:35.999Z</time></trkpt><trkpt lat="40.1506818435616" lon="15.165561043269939"><ele>6.0</ele><time>2026-04-25T17:35:36.999Z</time></trkpt><trkpt lat="40.15061680108281" lon="15.165575483701174"><ele>6.0</ele><time>2026-04-25T17:35:37.999Z</time></trkpt><trkpt lat="40.15051781020308" lon="15.16566168078204"><ele>5.6</ele><time>2026-04-25T17:35:39.999Z</time></trkpt><trkpt lat="40.15052608011123" lon="15.165834462271372"><ele>5.199999999999999</ele><time>2026-04-25T17:35:41.999Z</time></trkpt><trkpt lat="40.15057051855489" lon="15.165920242670111"><ele>4.800000000000001</ele><time>2026-04-25T17:35:42.999Z</time></trkpt><trkpt lat="40.150618378123156" lon="15.166025007057577"><ele>4.4</ele><time>2026-04-25T17:35:43.999Z</time></trkpt><trkpt lat="40.150644661887526" lon="15.166163105540335"><ele>4.0</ele><time>2026-04-25T17:35:44.999Z</time></trkpt><trkpt lat="40.150661431988134" lon="15.166307927010124"><ele>4.0</ele><time>2026-04-25T17:35:45.999Z</time></trkpt><trkpt lat="40.15065332503699" lon="15.166483231861614"><ele>4.0</ele><time>2026-04-25T17:35:46.999Z</time></trkpt><trkpt lat="40.15072442879824" lon="15.166644899932912"><ele>4.0</ele><time>2026-04-25T17:35:47.999Z</time></trkpt><trkpt lat="40.15081893579371" lon="15.166788884852643"><ele>4.0</ele><time>2026-04-25T17:35:48.999Z</time></trkpt><trkpt lat="40.15093449883456" lon="15.16689752624255"><ele>4.25</ele><time>2026-04-25T17:35:49.999Z</time></trkpt><trkpt lat="40.15106034613538" lon="15.166979950066395"><ele>4.5</ele><time>2026-04-25T17:35:50.999Z</time></trkpt><trkpt lat="40.15120637551527" lon="15.167022218587418"><ele>4.75</ele><time>2026-04-25T17:35:51.999Z</time></trkpt><trkpt lat="40.15133769402567" lon="15.167067506393769"><ele>5.0</ele><time>2026-04-25T17:35:52.999Z</time></trkpt><trkpt lat="40.151475575974224" lon="15.167134275299583"><ele>5.5</ele><time>2026-04-25T17:35:53.999Z</time></trkpt><trkpt lat="40.151585310403306" lon="15.167267070865147"><ele>6.0</ele><time>2026-04-25T17:35:54.999Z</time></trkpt><trkpt lat="40.151697656641495" lon="15.167392148264893"><ele>6.5</ele><time>2026-04-25T17:35:55.999Z</time></trkpt><trkpt lat="40.151792715533" lon="15.16750487590383"><ele>7.0</ele><time>2026-04-25T17:35:56.999Z</time></trkpt><trkpt lat="40.151869912368724" lon="15.16760903125596"><ele>7.25</ele><time>2026-04-25T17:35:57.999Z</time></trkpt><trkpt lat="40.1519120890067" lon="15.167723901401905"><ele>7.5</ele><time>2026-04-25T17:35:58.999Z</time></trkpt><trkpt lat="40.15192005871013" lon="15.167885806289288"><ele>7.75</ele><time>2026-04-25T17:35:59.999Z</time></trkpt><trkpt lat="40.151957966104604" lon="15.168096050426202"><ele>8.0</ele><time>2026-04-25T17:36:00.999Z</time></trkpt><trkpt lat="40.15200495234557" lon="15.16832561262525"><ele>10.0</ele><time>2026-04-25T17:36:01.999Z</time></trkpt><trkpt lat="40.15205012816993" lon="15.168563741054038"><ele>12.0</ele><time>2026-04-25T17:36:02.999Z</time></trkpt><trkpt lat="40.152090855076864" lon="15.168778700469321"><ele>14.0</ele><time>2026-04-25T17:36:03.999Z</time></trkpt><trkpt lat="40.15212861590784" lon="15.16896845726687"><ele>15.25</ele><time>2026-04-25T17:36:04.999Z</time></trkpt><trkpt lat="40.15216335530956" lon="15.169145066660198"><ele>16.5</ele><time>2026-04-25T17:36:05.999Z</time></trkpt><trkpt lat="40.15219694824598" lon="15.169317505941917"><ele>17.75</ele><time>2026-04-25T17:36:06.999Z</time></trkpt><trkpt lat="40.152233850292404" lon="15.169501221394587"><ele>19.0</ele><time>2026-04-25T17:36:07.999Z</time></trkpt><trkpt lat="40.152276623736554" lon="15.169705261857125"><ele>20.333333333333332</ele><time>2026-04-25T17:36:08.999Z</time></trkpt><trkpt lat="40.152321551689504" lon="15.16991957985249"><ele>21.666666666666668</ele><time>2026-04-25T17:36:09.999Z</time></trkpt><trkpt lat="40.15236700845354" lon="15.170136419824141"><ele>23.0</ele><time>2026-04-25T17:36:10.999Z</time></trkpt><trkpt lat="40.1524125159458" lon="15.170360068862543"><ele>19.666666666666668</ele><time>2026-04-25T17:36:11.999Z</time></trkpt><trkpt lat="40.152459875666075" lon="15.170586973716274"><ele>16.333333333333332</ele><time>2026-04-25T17:36:12.999Z</time></trkpt><trkpt lat="40.152511420261305" lon="15.170828580515147"><ele>13.0</ele><time>2026-04-25T17:36:13.999Z</time></trkpt><trkpt lat="40.15256659402105" lon="15.171085443911153"><ele>13.0</ele><time>2026-04-25T17:36:14.999Z</time></trkpt><trkpt lat="40.15261773055848" lon="15.171323511648849"><ele>13.0</ele><time>2026-04-25T17:36:15.999Z</time></trkpt><trkpt lat="40.152700245128514" lon="15.171550271632299"><ele>13.0</ele><time>2026-04-25T17:36:16.999Z</time></trkpt><trkpt lat="40.152751073606666" lon="15.171771264242327"><ele>15.333333333333332</ele><time>2026-04-25T17:36:17.999Z</time></trkpt><trkpt lat="40.15278769492969" lon="15.171984192784548"><ele>17.666666666666668</ele><time>2026-04-25T17:36:18.999Z</time></trkpt><trkpt lat="40.15280934319827" lon="15.172208046682542"><ele>20.0</ele><time>2026-04-25T17:36:19.999Z</time></trkpt><trkpt lat="40.152792239047784" lon="15.172441193471565"><ele>23.666666666666668</ele><time>2026-04-25T17:36:20.999Z</time></trkpt><trkpt lat="40.152799871500754" lon="15.172678238678138"><ele>27.333333333333336</ele><time>2026-04-25T17:36:21.999Z</time></trkpt><trkpt lat="40.15280847665246" lon="15.172913585280181"><ele>31.0</ele><time>2026-04-25T17:36:22.999Z</time></trkpt><trkpt lat="40.15283079549212" lon="15.17313472669454"><ele>31.5</ele><time>2026-04-25T17:36:23.999Z</time></trkpt><trkpt lat="40.152822589610686" lon="15.173327627629032"><ele>32.0</ele><time>2026-04-25T17:36:24.999Z</time></trkpt><trkpt lat="40.152819403972345" lon="15.173508589399015"><ele>32.5</ele><time>2026-04-25T17:36:25.999Z</time></trkpt><trkpt lat="40.15286239613979" lon="15.173690141789328"><ele>33.0</ele><time>2026-04-25T17:36:26.999Z</time></trkpt><trkpt lat="40.1529153766387" lon="15.173887531195222"><ele>34.75</ele><time>2026-04-25T17:36:27.999Z</time></trkpt><trkpt lat="40.152976179516145" lon="15.174067584507904"><ele>36.5</ele><time>2026-04-25T17:36:28.999Z</time></trkpt><trkpt lat="40.153010574106325" lon="15.174243191477226"><ele>38.25</ele><time>2026-04-25T17:36:29.999Z</time></trkpt><trkpt lat="40.15303635798647" lon="15.174415600615841"><ele>40.0</ele><time>2026-04-25T17:36:30.999Z</time></trkpt><trkpt lat="40.15307887095442" lon="15.174582302880516"><ele>40.0</ele><time>2026-04-25T17:36:31.999Z</time></trkpt><trkpt lat="40.153155005664274" lon="15.174740193262428"><ele>40.0</ele><time>2026-04-25T17:36:32.999Z</time></trkpt><trkpt lat="40.15324193613013" lon="15.174858646660935"><ele>40.0</ele><time>2026-04-25T17:36:33.999Z</time></trkpt><trkpt lat="40.15331630860031" lon="15.17496881956649"><ele>40.0</ele><time>2026-04-25T17:36:34.998Z</time></trkpt><trkpt lat="40.15336995217382" lon="15.175096808480694"><ele>37.25</ele><time>2026-04-25T17:36:35.998Z</time></trkpt><trkpt lat="40.153407972907694" lon="15.1752346986786"><ele>34.5</ele><time>2026-04-25T17:36:36.998Z</time></trkpt><trkpt lat="40.153434355718346" lon="15.175389940736046"><ele>31.75</ele><time>2026-04-25T17:36:38Z</time></trkpt><trkpt lat="40.15347205086951" lon="15.175536778712162"><ele>29.0</ele><time>2026-04-25T17:36:39Z</time></trkpt><trkpt lat="40.15350503160187" lon="15.175661453314463"><ele>30.499999999999996</ele><time>2026-04-25T17:36:40Z</time></trkpt><trkpt lat="40.153543214984296" lon="15.175770897865334"><ele>32.0</ele><time>2026-04-25T17:36:41Z</time></trkpt><trkpt lat="40.153550695502325" lon="15.175876147580963"><ele>33.5</ele><time>2026-04-25T17:36:42Z</time></trkpt><trkpt lat="40.153537080446256" lon="15.17597926319363"><ele>35.0</ele><time>2026-04-25T17:36:43Z</time></trkpt><trkpt lat="40.153498238628956" lon="15.176081883394232"><ele>36.5</ele><time>2026-04-25T17:36:44Z</time></trkpt><trkpt lat="40.153444829882" lon="15.176174871284116"><ele>38.0</ele><time>2026-04-25T17:36:45Z</time></trkpt><trkpt lat="40.15337450183397" lon="15.176245365995717"><ele>38.0</ele><time>2026-04-25T17:36:46Z</time></trkpt><trkpt lat="40.153292133723255" lon="15.17629142968778"><ele>38.0</ele><time>2026-04-25T17:36:47Z</time></trkpt><trkpt lat="40.15322667221345" lon="15.176330200911895"><ele>38.0</ele><time>2026-04-25T17:36:48Z</time></trkpt><trkpt lat="40.153184939404774" lon="15.176397159085363"><ele>38.0</ele><time>2026-04-25T17:36:49Z</time></trkpt><trkpt lat="40.15317212593317" lon="15.176496711668747"><ele>38.0</ele><time>2026-04-25T17:36:50Z</time></trkpt><trkpt lat="40.153175846518046" lon="15.176607600549639"><ele>38.0</ele><time>2026-04-25T17:36:51Z</time></trkpt><trkpt lat="40.15323990424097" lon="15.17670927013802"><ele>38.166666666666664</ele><time>2026-04-25T17:36:52Z</time></trkpt><trkpt lat="40.15332984364172" lon="15.17677088571136"><ele>38.33333333333333</ele><time>2026-04-25T17:36:53Z</time></trkpt><trkpt lat="40.15340127156531" lon="15.176830782705016"><ele>38.5</ele><time>2026-04-25T17:36:54Z</time></trkpt><trkpt lat="40.153458478406286" lon="15.176910836241225"><ele>38.666666666666664</ele><time>2026-04-25T17:36:55Z</time></trkpt><trkpt lat="40.15350724224996" lon="15.177001326469856"><ele>38.833333333333336</ele><time>2026-04-25T17:36:56Z</time></trkpt><trkpt lat="40.153524682234405" lon="15.17710220722819"><ele>39.0</ele><time>2026-04-25T17:36:57Z</time></trkpt><trkpt lat="40.15352394739841" lon="15.177200932567446"><ele>39.0</ele><time>2026-04-25T17:36:58Z</time></trkpt><trkpt lat="40.15348097482582" lon="15.177298938028521"><ele>39.0</ele><time>2026-04-25T17:36:59Z</time></trkpt><trkpt lat="40.153441389039116" lon="15.177402067021909"><ele>39.0</ele><time>2026-04-25T17:37:00Z</time></trkpt><trkpt lat="40.15340792320265" lon="15.177514196026676"><ele>39.0</ele><time>2026-04-25T17:37:01Z</time></trkpt><trkpt lat="40.153369193427245" lon="15.17763158230011"><ele>39.0</ele><time>2026-04-25T17:37:02Z</time></trkpt><trkpt lat="40.15336437780638" lon="15.177771863212648"><ele>40.6</ele><time>2026-04-25T17:37:03Z</time></trkpt><trkpt lat="40.15337238898517" lon="15.177912321204905"><ele>42.2</ele><time>2026-04-25T17:37:04Z</time></trkpt><trkpt lat="40.15338328103801" lon="15.178053116558967"><ele>43.800000000000004</ele><time>2026-04-25T17:37:05Z</time></trkpt><trkpt lat="40.153394254137986" lon="15.178170725998509"><ele>45.4</ele><time>2026-04-25T17:37:06Z</time></trkpt><trkpt lat="40.15340616506635" lon="15.17828521834003"><ele>47.0</ele><time>2026-04-25T17:37:07Z</time></trkpt><trkpt lat="40.15342023049077" lon="15.178396240824387"><ele>47.666666666666664</ele><time>2026-04-25T17:37:08Z</time></trkpt><trkpt lat="40.1534344512405" lon="15.178508489375222"><ele>48.33333333333333</ele><time>2026-04-25T17:37:09Z</time></trkpt><trkpt lat="40.15344845697827" lon="15.178619040276036"><ele>49.0</ele><time>2026-04-25T17:37:10Z</time></trkpt><trkpt lat="40.153470211037" lon="15.178735662278498"><ele>49.666666666666664</ele><time>2026-04-25T17:37:11Z</time></trkpt><trkpt lat="40.15348960758157" lon="15.178854190578383"><ele>50.333333333333336</ele><time>2026-04-25T17:37:12Z</time></trkpt><trkpt lat="40.15350000375493" lon="15.178966128876622"><ele>51.0</ele><time>2026-04-25T17:37:13Z</time></trkpt><trkpt lat="40.153500555076" lon="15.179064968443557"><ele>51.0</ele><time>2026-04-25T17:37:14Z</time></trkpt><trkpt lat="40.153498631647764" lon="15.179162227726833"><ele>51.0</ele><time>2026-04-25T17:37:15Z</time></trkpt><trkpt lat="40.15344824756223" lon="15.179246055208417"><ele>51.0</ele><time>2026-04-25T17:37:16Z</time></trkpt><trkpt lat="40.15336737179904" lon="15.179316002076236"><ele>51.0</ele><time>2026-04-25T17:37:17Z</time></trkpt><trkpt lat="40.15327336294488" lon="15.179363306993086"><ele>51.0</ele><time>2026-04-25T17:37:18Z</time></trkpt><trkpt lat="40.15317221988744" lon="15.179385686232504"><ele>54.8</ele><time>2026-04-25T17:37:19Z</time></trkpt><trkpt lat="40.1530903015347" lon="15.179402706476932"><ele>58.599999999999994</ele><time>2026-04-25T17:37:20Z</time></trkpt><trkpt lat="40.153013325241645" lon="15.179447856325023"><ele>62.4</ele><time>2026-04-25T17:37:21Z</time></trkpt><trkpt lat="40.15294555727174" lon="15.179516952315545"><ele>66.2</ele><time>2026-04-25T17:37:22Z</time></trkpt><trkpt lat="40.152899193466155" lon="15.179612735525334"><ele>70.0</ele><time>2026-04-25T17:37:23Z</time></trkpt><trkpt lat="40.15289276087107" lon="15.179773041327552"><ele>69.5</ele><time>2026-04-25T17:37:24Z</time></trkpt><trkpt lat="40.152910327213284" lon="15.179944275059222"><ele>69.0</ele><time>2026-04-25T17:37:25Z</time></trkpt><trkpt lat="40.15290297333421" lon="15.1801163675486"><ele>68.5</ele><time>2026-04-25T17:37:25.999Z</time></trkpt><trkpt lat="40.15287080897644" lon="15.180279687564637"><ele>68.0</ele><time>2026-04-25T17:37:26.999Z</time></trkpt><trkpt lat="40.15286162691216" lon="15.180439254071903"><ele>68.0</ele><time>2026-04-25T17:37:27.999Z</time></trkpt><trkpt lat="40.15286333855922" lon="15.18058306719925"><ele>68.0</ele><time>2026-04-25T17:37:28.999Z</time></trkpt><trkpt lat="40.15286989563894" lon="15.18071727372697"><ele>68.0</ele><time>2026-04-25T17:37:29.999Z</time></trkpt><trkpt lat="40.152875341870015" lon="15.180844202950215"><ele>68.0</ele><time>2026-04-25T17:37:30.999Z</time></trkpt><trkpt lat="40.15286855055884" lon="15.180974862832276"><ele>68.0</ele><time>2026-04-25T17:37:31.999Z</time></trkpt><trkpt lat="40.15284200661726" lon="15.181105430857574"><ele>68.75</ele><time>2026-04-25T17:37:32.999Z</time></trkpt><trkpt lat="40.15279886143305" lon="15.181233842142557"><ele>69.5</ele><time>2026-04-25T17:37:33.999Z</time></trkpt><trkpt lat="40.152732081846146" lon="15.181374606803772"><ele>70.25</ele><time>2026-04-25T17:37:34.999Z</time></trkpt><trkpt lat="40.15264300921364" lon="15.181542552094859"><ele>71.0</ele><time>2026-04-25T17:37:35.999Z</time></trkpt><trkpt lat="40.15253761187238" lon="15.18174669755055"><ele>71.0</ele><time>2026-04-25T17:37:36.999Z</time></trkpt><trkpt lat="40.15243770579103" lon="15.181961174107935"><ele>71.0</ele><time>2026-04-25T17:37:37.999Z</time></trkpt><trkpt lat="40.15235792368978" lon="15.182143008783088"><ele>71.0</ele><time>2026-04-25T17:37:38.999Z</time></trkpt><trkpt lat="40.1522855738248" lon="15.182308510515849"><ele>77.5</ele><time>2026-04-25T17:37:39.999Z</time></trkpt><trkpt lat="40.15222161727494" lon="15.182456192051536"><ele>84.0</ele><time>2026-04-25T17:37:40.999Z</time></trkpt><trkpt lat="40.152161076363655" lon="15.182595986451025"><ele>90.5</ele><time>2026-04-25T17:37:41.999Z</time></trkpt><trkpt lat="40.15210440847381" lon="15.182739418920745"><ele>97.0</ele><time>2026-04-25T17:37:42.999Z</time></trkpt><trkpt lat="40.15206498161968" lon="15.182875701124827"><ele>97.0</ele><time>2026-04-25T17:37:43.999Z</time></trkpt><trkpt lat="40.15204946471973" lon="15.18302220178619"><ele>97.0</ele><time>2026-04-25T17:37:44.999Z</time></trkpt><trkpt lat="40.15208484419369" lon="15.183180925890413"><ele>97.0</ele><time>2026-04-25T17:37:45.999Z</time></trkpt><trkpt lat="40.152156529279004" lon="15.183316326933841"><ele>97.0</ele><time>2026-04-25T17:37:46.999Z</time></trkpt><trkpt lat="40.15225227156421" lon="15.183425915055986"><ele>97.75</ele><time>2026-04-25T17:37:47.999Z</time></trkpt><trkpt lat="40.15232991797023" lon="15.183535529962683"><ele>98.5</ele><time>2026-04-25T17:37:48.999Z</time></trkpt><trkpt lat="40.15239815346003" lon="15.18365548051534"><ele>99.25</ele><time>2026-04-25T17:37:49.999Z</time></trkpt><trkpt lat="40.1524469798923" lon="15.18379889842994"><ele>100.0</ele><time>2026-04-25T17:37:50.999Z</time></trkpt><trkpt lat="40.152500325139044" lon="15.183961928331042"><ele>98.2</ele><time>2026-04-25T17:37:51.999Z</time></trkpt><trkpt lat="40.15254898258458" lon="15.184104633396615"><ele>96.4</ele><time>2026-04-25T17:37:52.999Z</time></trkpt><trkpt lat="40.15259842024107" lon="15.18422363289929"><ele>94.6</ele><time>2026-04-25T17:37:53.999Z</time></trkpt><trkpt lat="40.15265576594269" lon="15.184332631357877"><ele>92.8</ele><time>2026-04-25T17:37:54.999Z</time></trkpt><trkpt lat="40.15272636315007" lon="15.184431468335912"><ele>91.0</ele><time>2026-04-25T17:37:55.999Z</time></trkpt><trkpt lat="40.152819265187745" lon="15.184508321985327"><ele>91.0</ele><time>2026-04-25T17:37:56.999Z</time></trkpt><trkpt lat="40.152918110715305" lon="15.184551751092304"><ele>91.0</ele><time>2026-04-25T17:37:57.999Z</time></trkpt><trkpt lat="40.153017675411846" lon="15.18455456548446"><ele>91.0</ele><time>2026-04-25T17:37:58.999Z</time></trkpt><trkpt lat="40.1531153133173" lon="15.184552813309908"><ele>91.0</ele><time>2026-04-25T17:37:59.999Z</time></trkpt><trkpt lat="40.15321291390328" lon="15.184532233374235"><ele>91.0</ele><time>2026-04-25T17:38:00.999Z</time></trkpt><trkpt lat="40.15330409090201" lon="15.184503070751141"><ele>91.33333333333333</ele><time>2026-04-25T17:38:01.999Z</time></trkpt><trkpt lat="40.15339622168191" lon="15.184523257850605"><ele>91.66666666666666</ele><time>2026-04-25T17:38:02.999Z</time></trkpt><trkpt lat="40.15347786581176" lon="15.18454700090677"><ele>92.0</ele><time>2026-04-25T17:38:03.999Z</time></trkpt><trkpt lat="40.15354305368702" lon="15.18458185901881"><ele>92.33333333333333</ele><time>2026-04-25T17:38:04.999Z</time></trkpt><trkpt lat="40.15360624923844" lon="15.18463700990227"><ele>92.66666666666667</ele><time>2026-04-25T17:38:05.999Z</time></trkpt><trkpt lat="40.15362965066182" lon="15.184717887783215"><ele>93.0</ele><time>2026-04-25T17:38:06.999Z</time></trkpt><trkpt lat="40.153557226545445" lon="15.184860947363488"><ele>93.0</ele><time>2026-04-25T17:38:08.999Z</time></trkpt><trkpt lat="40.15346179497279" lon="15.18490166163664"><ele>93.0</ele><time>2026-04-25T17:38:09.999Z</time></trkpt><trkpt lat="40.15337073367545" lon="15.184921555340582"><ele>93.0</ele><time>2026-04-25T17:38:10.999Z</time></trkpt><trkpt lat="40.15329886597822" lon="15.184936524909029"><ele>93.0</ele><time>2026-04-25T17:38:11.999Z</time></trkpt><trkpt lat="40.153219091594906" lon="15.184938570600465"><ele>93.0</ele><time>2026-04-25T17:38:12.999Z</time></trkpt><trkpt lat="40.153121466740636" lon="15.184925499626686"><ele>93.0</ele><time>2026-04-25T17:38:13.999Z</time></trkpt><trkpt lat="40.152997295284344" lon="15.184889234635623"><ele>92.33333333333333</ele><time>2026-04-25T17:38:14.999Z</time></trkpt><trkpt lat="40.15286514490408" lon="15.184810362557414"><ele>91.66666666666666</ele><time>2026-04-25T17:38:15.999Z</time></trkpt><trkpt lat="40.15270324655965" lon="15.1847060026258"><ele>91.0</ele><time>2026-04-25T17:38:16.999Z</time></trkpt><trkpt lat="40.152546877805285" lon="15.184611509937186"><ele>91.0</ele><time>2026-04-25T17:38:17.999Z</time></trkpt><trkpt lat="40.15240974842008" lon="15.184506091103891"><ele>91.0</ele><time>2026-04-25T17:38:18.999Z</time></trkpt><trkpt lat="40.15229084807908" lon="15.184366407341471"><ele>91.0</ele><time>2026-04-25T17:38:19.999Z</time></trkpt><trkpt lat="40.152186736257306" lon="15.184208682979099"><ele>93.25</ele><time>2026-04-25T17:38:20.999Z</time></trkpt><trkpt lat="40.15211751583754" lon="15.184056835410626"><ele>95.5</ele><time>2026-04-25T17:38:21.999Z</time></trkpt><trkpt lat="40.15204695529845" lon="15.183935207127355"><ele>97.75</ele><time>2026-04-25T17:38:22.999Z</time></trkpt><trkpt lat="40.15194087090686" lon="15.183842326984804"><ele>100.0</ele><time>2026-04-25T17:38:23.999Z</time></trkpt><trkpt lat="40.151790141797235" lon="15.183784164208108"><ele>100.0</ele><time>2026-04-25T17:38:24.999Z</time></trkpt><trkpt lat="40.151611607230464" lon="15.183760514534058"><ele>100.0</ele><time>2026-04-25T17:38:25.999Z</time></trkpt><trkpt lat="40.15145639840833" lon="15.183745145360508"><ele>100.0</ele><time>2026-04-25T17:38:26.999Z</time></trkpt><trkpt lat="40.1513356312615" lon="15.183704075830933"><ele>106.66666666666667</ele><time>2026-04-25T17:38:27.999Z</time></trkpt><trkpt lat="40.151225403745904" lon="15.183619108199904"><ele>113.33333333333334</ele><time>2026-04-25T17:38:28.999Z</time></trkpt><trkpt lat="40.151128772061675" lon="15.183477688707523"><ele>120.0</ele><time>2026-04-25T17:38:29.999Z</time></trkpt><trkpt lat="40.15103523840758" lon="15.183279245517632"><ele>118.33333333333334</ele><time>2026-04-25T17:38:30.999Z</time></trkpt><trkpt lat="40.1509504733111" lon="15.183072114892322"><ele>116.66666666666667</ele><time>2026-04-25T17:38:31.999Z</time></trkpt><trkpt lat="40.15088852527594" lon="15.182855368456686"><ele>115.0</ele><time>2026-04-25T17:38:32.999Z</time></trkpt><trkpt lat="40.150850370339" lon="15.182669587346947"><ele>115.0</ele><time>2026-04-25T17:38:33.999Z</time></trkpt><trkpt lat="40.150798069109285" lon="15.182514621507316"><ele>115.0</ele><time>2026-04-25T17:38:34.999Z</time></trkpt><trkpt lat="40.15071574275185" lon="15.18238819198759"><ele>115.0</ele><time>2026-04-25T17:38:35.999Z</time></trkpt><trkpt lat="40.15059768488015" lon="15.182310418621926"><ele>115.0</ele><time>2026-04-25T17:38:36.999Z</time></trkpt><trkpt lat="40.15046730106828" lon="15.18226784052255"><ele>116.4</ele><time>2026-04-25T17:38:37.999Z</time></trkpt><trkpt lat="40.15035657632111" lon="15.18224438847325"><ele>117.8</ele><time>2026-04-25T17:38:38.999Z</time></trkpt><trkpt lat="40.150276904726994" lon="15.182175853246092"><ele>119.19999999999999</ele><time>2026-04-25T17:38:39.999Z</time></trkpt><trkpt lat="40.15022966570521" lon="15.182047713787819"><ele>120.6</ele><time>2026-04-25T17:38:40.999Z</time></trkpt><trkpt lat="40.150218134152375" lon="15.181897816221761"><ele>122.0</ele><time>2026-04-25T17:38:41.999Z</time></trkpt><trkpt lat="40.150233058018486" lon="15.18174985687994"><ele>121.99999999999999</ele><time>2026-04-25T17:38:42.998Z</time></trkpt><trkpt lat="40.15025831635704" lon="15.181592939660124"><ele>122.0</ele><time>2026-04-25T17:38:44Z</time></trkpt><trkpt lat="40.15025538076896" lon="15.181470624742158"><ele>122.0</ele><time>2026-04-25T17:38:45Z</time></trkpt><trkpt lat="40.15022046325321" lon="15.181381352187097"><ele>122.0</ele><time>2026-04-25T17:38:46Z</time></trkpt><trkpt lat="40.15015385201192" lon="15.181328520256551"><ele>121.99999999999999</ele><time>2026-04-25T17:38:47Z</time></trkpt><trkpt lat="40.1500786480079" lon="15.1813219640115"><ele>122.0</ele><time>2026-04-25T17:38:48Z</time></trkpt><trkpt lat="40.15000199232422" lon="15.181365689109247"><ele>120.6</ele><time>2026-04-25T17:38:49Z</time></trkpt><trkpt lat="40.14991314647266" lon="15.181424484615063"><ele>119.19999999999999</ele><time>2026-04-25T17:38:50Z</time></trkpt><trkpt lat="40.149821770389515" lon="15.181482408683879"><ele>117.8</ele><time>2026-04-25T17:38:51Z</time></trkpt><trkpt lat="40.149743431349016" lon="15.181529690088903"><ele>116.4</ele><time>2026-04-25T17:38:52Z</time></trkpt><trkpt lat="40.149668733910694" lon="15.18157213041673"><ele>115.0</ele><time>2026-04-25T17:38:53Z</time></trkpt><trkpt lat="40.14959142583582" lon="15.18161086022691"><ele>118.33333333333334</ele><time>2026-04-25T17:38:54Z</time></trkpt><trkpt lat="40.149515215925575" lon="15.181640771793596"><ele>121.66666666666667</ele><time>2026-04-25T17:38:55Z</time></trkpt><trkpt lat="40.149435921185194" lon="15.181648007664023"><ele>125.0</ele><time>2026-04-25T17:38:56Z</time></trkpt><trkpt lat="40.149350439853016" lon="15.181645347250493"><ele>128.33333333333334</ele><time>2026-04-25T17:38:57Z</time></trkpt><trkpt lat="40.1492662120587" lon="15.181630420559951"><ele>131.66666666666666</ele><time>2026-04-25T17:38:58Z</time></trkpt><trkpt lat="40.149184211350935" lon="15.181631912906743"><ele>135.0</ele><time>2026-04-25T17:38:59Z</time></trkpt><trkpt lat="40.1491221276309" lon="15.181598688026302"><ele>135.2</ele><time>2026-04-25T17:39:00Z</time></trkpt><trkpt lat="40.14904062626363" lon="15.181489052504407"><ele>135.4</ele><time>2026-04-25T17:39:02Z</time></trkpt><trkpt lat="40.149043748900525" lon="15.1813845153314"><ele>135.6</ele><time>2026-04-25T17:39:03Z</time></trkpt><trkpt lat="40.14908419429055" lon="15.181245024899878"><ele>135.8</ele><time>2026-04-25T17:39:04Z</time></trkpt><trkpt lat="40.14914793731799" lon="15.181117313755676"><ele>136.0</ele><time>2026-04-25T17:39:05Z</time></trkpt><trkpt lat="40.14920781192585" lon="15.180989948043539"><ele>136.0</ele><time>2026-04-25T17:39:06Z</time></trkpt><trkpt lat="40.14926616599435" lon="15.180844963230854"><ele>136.0</ele><time>2026-04-25T17:39:07Z</time></trkpt><trkpt lat="40.14932262863145" lon="15.180706615188859"><ele>136.0</ele><time>2026-04-25T17:39:08Z</time></trkpt><trkpt lat="40.14934477640246" lon="15.180573338517243"><ele>136.0</ele><time>2026-04-25T17:39:09Z</time></trkpt><trkpt lat="40.149325457987096" lon="15.1804368279478"><ele>137.25</ele><time>2026-04-25T17:39:10Z</time></trkpt><trkpt lat="40.14928112756941" lon="15.180310341234046"><ele>138.5</ele><time>2026-04-25T17:39:11Z</time></trkpt><trkpt lat="40.14921549078968" lon="15.180190278830674"><ele>139.75</ele><time>2026-04-25T17:39:12Z</time></trkpt><trkpt lat="40.149161252013705" lon="15.180047363166638"><ele>141.0</ele><time>2026-04-25T17:39:13Z</time></trkpt><trkpt lat="40.14913386659042" lon="15.179864355707268"><ele>140.5</ele><time>2026-04-25T17:39:14Z</time></trkpt><trkpt lat="40.14912482189267" lon="15.179648962335623"><ele>140.0</ele><time>2026-04-25T17:39:15Z</time></trkpt><trkpt lat="40.149136449988475" lon="15.179446836333886"><ele>139.5</ele><time>2026-04-25T17:39:16Z</time></trkpt><trkpt lat="40.149145758859085" lon="15.179281039700381"><ele>139.0</ele><time>2026-04-25T17:39:17Z</time></trkpt><trkpt lat="40.1491347129535" lon="15.17913477441875"><ele>136.5</ele><time>2026-04-25T17:39:18Z</time></trkpt><trkpt lat="40.149090962968444" lon="15.179014565555374"><ele>134.0</ele><time>2026-04-25T17:39:19Z</time></trkpt><trkpt lat="40.14899913104772" lon="15.178910194191607"><ele>131.5</ele><time>2026-04-25T17:39:20Z</time></trkpt><trkpt lat="40.148872196240546" lon="15.178817161293502"><ele>129.0</ele><time>2026-04-25T17:39:21Z</time></trkpt><trkpt lat="40.14874667023011" lon="15.178689021492984"><ele>136.66666666666666</ele><time>2026-04-25T17:39:22Z</time></trkpt><trkpt lat="40.148617873451265" lon="15.178543178460792"><ele>144.33333333333331</ele><time>2026-04-25T17:39:23Z</time></trkpt><trkpt lat="40.1485151611127" lon="15.178389283879076"><ele>152.0</ele><time>2026-04-25T17:39:24Z</time></trkpt><trkpt lat="40.14843495780435" lon="15.178202639749948"><ele>147.33333333333331</ele><time>2026-04-25T17:39:25Z</time></trkpt><trkpt lat="40.14835528492063" lon="15.177975554257884"><ele>142.66666666666666</ele><time>2026-04-25T17:39:26Z</time></trkpt><trkpt lat="40.14827907037489" lon="15.177772956819666"><ele>138.0</ele><time>2026-04-25T17:39:27Z</time></trkpt><trkpt lat="40.14821758409064" lon="15.177626743175928"><ele>138.16666666666666</ele><time>2026-04-25T17:39:28Z</time></trkpt><trkpt lat="40.148168994393636" lon="15.17749866560697"><ele>138.33333333333334</ele><time>2026-04-25T17:39:29Z</time></trkpt><trkpt lat="40.14813206730557" lon="15.177394101604703"><ele>138.5</ele><time>2026-04-25T17:39:30Z</time></trkpt><trkpt lat="40.148079775081925" lon="15.17731229996596"><ele>138.66666666666669</ele><time>2026-04-25T17:39:31.999Z</time></trkpt><trkpt lat="40.1480091250414" lon="15.177290891844905"><ele>138.83333333333334</ele><time>2026-04-25T17:41:03Z</time></trkpt><trkpt lat="40.14792462393113" lon="15.177346906158107"><ele>139.0</ele><time>2026-04-25T17:41:05Z</time></trkpt><trkpt lat="40.147911085500716" lon="15.177474120294706"><ele>142.0</ele><time>2026-04-25T17:41:07Z</time></trkpt><trkpt lat="40.148037067163905" lon="15.177671616318426"><ele>145.0</ele><time>2026-04-25T17:41:11Z</time></trkpt><trkpt lat="40.14808276333418" lon="15.177739969110794"><ele>148.0</ele><time>2026-04-25T17:41:12Z</time></trkpt><trkpt lat="40.148124605809464" lon="15.177820345194018"><ele>151.0</ele><time>2026-04-25T17:41:13Z</time></trkpt><trkpt lat="40.148161464709226" lon="15.17790612768891"><ele>154.0</ele><time>2026-04-25T17:41:14Z</time></trkpt><trkpt lat="40.14819459425434" lon="15.178000836852824"><ele>153.6</ele><time>2026-04-25T17:41:15Z</time></trkpt><trkpt lat="40.14822496026314" lon="15.178112844554144"><ele>153.2</ele><time>2026-04-25T17:41:16Z</time></trkpt><trkpt lat="40.14825133566863" lon="15.178226855049035"><ele>152.79999999999998</ele><time>2026-04-25T17:41:17Z</time></trkpt><trkpt lat="40.148282848504195" lon="15.178344454901602"><ele>152.4</ele><time>2026-04-25T17:41:18Z</time></trkpt><trkpt lat="40.148310718725575" lon="15.17846323865662"><ele>152.0</ele><time>2026-04-25T17:41:19Z</time></trkpt><trkpt lat="40.14833431728619" lon="15.178581589302498"><ele>152.0</ele><time>2026-04-25T17:41:20Z</time></trkpt><trkpt lat="40.14832337959113" lon="15.178689793906496"><ele>152.0</ele><time>2026-04-25T17:41:21Z</time></trkpt><trkpt lat="40.14833503939248" lon="15.178826884781948"><ele>152.0</ele><time>2026-04-25T17:41:23Z</time></trkpt><trkpt lat="40.14828358656717" lon="15.178899675641597"><ele>152.0</ele><time>2026-04-25T17:41:25Z</time></trkpt><trkpt lat="40.148214905984645" lon="15.17876878796491"><ele>152.0</ele><time>2026-04-25T17:41:27Z</time></trkpt><trkpt lat="40.1481849154722" lon="15.178636091780021"><ele>152.5</ele><time>2026-04-25T17:41:28Z</time></trkpt><trkpt lat="40.148153369484035" lon="15.178465824074548"><ele>153.0</ele><time>2026-04-25T17:41:29Z</time></trkpt><trkpt lat="40.14810893852053" lon="15.178301786512048"><ele>153.5</ele><time>2026-04-25T17:41:30Z</time></trkpt><trkpt lat="40.14805073235692" lon="15.178154538117889"><ele>154.0</ele><time>2026-04-25T17:41:31Z</time></trkpt><trkpt lat="40.147972880842936" lon="15.178024056870113"><ele>154.0</ele><time>2026-04-25T17:41:32Z</time></trkpt><trkpt lat="40.14787302895161" lon="15.177923981243147"><ele>154.0</ele><time>2026-04-25T17:41:33Z</time></trkpt><trkpt lat="40.14775452114502" lon="15.177869011280022"><ele>154.0</ele><time>2026-04-25T17:41:34Z</time></trkpt><trkpt lat="40.14762694282116" lon="15.17785071249475"><ele>154.0</ele><time>2026-04-25T17:41:35Z</time></trkpt><trkpt lat="40.14749891126381" lon="15.17787153885781"><ele>155.25</ele><time>2026-04-25T17:41:36Z</time></trkpt><trkpt lat="40.14737615574254" lon="15.17794010395563"><ele>156.5</ele><time>2026-04-25T17:41:37Z</time></trkpt><trkpt lat="40.14726894006646" lon="15.178046377646265"><ele>157.75</ele><time>2026-04-25T17:41:37.999Z</time></trkpt><trkpt lat="40.1471821679634" lon="15.178169809742995"><ele>159.0</ele><time>2026-04-25T17:41:38.999Z</time></trkpt><trkpt lat="40.14711689423129" lon="15.178302986461114"><ele>159.0</ele><time>2026-04-25T17:41:39.999Z</time></trkpt><trkpt lat="40.14707431911616" lon="15.17846721076196"><ele>159.0</ele><time>2026-04-25T17:41:40.999Z</time></trkpt><trkpt lat="40.1470322806927" lon="15.178660253074128"><ele>159.0</ele><time>2026-04-25T17:41:41.999Z</time></trkpt><trkpt lat="40.1470439991152" lon="15.178879511119131"><ele>160.5</ele><time>2026-04-25T17:41:42.999Z</time></trkpt><trkpt lat="40.14702717423535" lon="15.179085208955149"><ele>162.0</ele><time>2026-04-25T17:41:43.999Z</time></trkpt><trkpt lat="40.1470003710298" lon="15.179244138021225"><ele>163.5</ele><time>2026-04-25T17:41:44.999Z</time></trkpt><trkpt lat="40.1469495400187" lon="15.179384544382708"><ele>165.0</ele><time>2026-04-25T17:41:45.999Z</time></trkpt><trkpt lat="40.146872744544325" lon="15.179529009235331"><ele>165.0</ele><time>2026-04-25T17:41:46.999Z</time></trkpt><trkpt lat="40.146759964566456" lon="15.179658063225597"><ele>165.0</ele><time>2026-04-25T17:41:47.999Z</time></trkpt><trkpt lat="40.1466196996143" lon="15.179760132623773"><ele>165.0</ele><time>2026-04-25T17:41:48.999Z</time></trkpt><trkpt lat="40.14648196670225" lon="15.179874625183544"><ele>165.25</ele><time>2026-04-25T17:41:49.999Z</time></trkpt><trkpt lat="40.14635987507332" lon="15.179958761455804"><ele>165.5</ele><time>2026-04-25T17:41:50.999Z</time></trkpt><trkpt lat="40.146253050169136" lon="15.18008492796889"><ele>165.75</ele><time>2026-04-25T17:41:51.999Z</time></trkpt><trkpt lat="40.1461748192423" lon="15.180267926406097"><ele>166.0</ele><time>2026-04-25T17:41:52.999Z</time></trkpt><trkpt lat="40.14612480660721" lon="15.18049355511619"><ele>171.0</ele><time>2026-04-25T17:41:53.999Z</time></trkpt><trkpt lat="40.146074545628345" lon="15.180711383718519"><ele>176.0</ele><time>2026-04-25T17:41:54.999Z</time></trkpt><trkpt lat="40.1459887821791" lon="15.180870862911892"><ele>181.0</ele><time>2026-04-25T17:41:55.999Z</time></trkpt><trkpt lat="40.14588509801605" lon="15.18102715428857"><ele>181.0</ele><time>2026-04-25T17:41:56.999Z</time></trkpt><trkpt lat="40.14575203877462" lon="15.18118854407945"><ele>181.0</ele><time>2026-04-25T17:41:57.999Z</time></trkpt><trkpt lat="40.14559865132185" lon="15.181349559826003"><ele>181.0</ele><time>2026-04-25T17:41:58.999Z</time></trkpt><trkpt lat="40.14542389249526" lon="15.181509636877527"><ele>182.33333333333334</ele><time>2026-04-25T17:41:59.999Z</time></trkpt><trkpt lat="40.14525961178137" lon="15.181666224134494"><ele>183.66666666666666</ele><time>2026-04-25T17:42:00.999Z</time></trkpt><trkpt lat="40.14511464061451" lon="15.181774633411226"><ele>185.0</ele><time>2026-04-25T17:42:01.999Z</time></trkpt><trkpt lat="40.144985887523255" lon="15.181846073815382"><ele>184.33333333333331</ele><time>2026-04-25T17:42:02.999Z</time></trkpt><trkpt lat="40.144845233679554" lon="15.181884953805985"><ele>183.66666666666666</ele><time>2026-04-25T17:42:03.999Z</time></trkpt><trkpt lat="40.14468029381245" lon="15.181877970635668"><ele>183.0</ele><time>2026-04-25T17:42:04.999Z</time></trkpt><trkpt lat="40.14451118508369" lon="15.181856117239946"><ele>183.0</ele><time>2026-04-25T17:42:05.999Z</time></trkpt><trkpt lat="40.144354630029326" lon="15.181869436018903"><ele>183.0</ele><time>2026-04-25T17:42:06.999Z</time></trkpt><trkpt lat="40.144205017265236" lon="15.18194409315301"><ele>183.0</ele><time>2026-04-25T17:42:07.999Z</time></trkpt><trkpt lat="40.144068134202605" lon="15.18206932831361"><ele>183.25</ele><time>2026-04-25T17:42:08.999Z</time></trkpt><trkpt lat="40.14395790569054" lon="15.18222736925749"><ele>183.5</ele><time>2026-04-25T17:42:09.999Z</time></trkpt><trkpt lat="40.143861170637685" lon="15.18236124429436"><ele>183.75</ele><time>2026-04-25T17:42:10.999Z</time></trkpt><trkpt lat="40.143778301612095" lon="15.182468313364803"><ele>184.0</ele><time>2026-04-25T17:42:11.999Z</time></trkpt><trkpt lat="40.14366424339615" lon="15.182455550534637"><ele>184.0</ele><time>2026-04-25T17:42:12.999Z</time></trkpt><trkpt lat="40.14355676040042" lon="15.182437409824995"><ele>184.0</ele><time>2026-04-25T17:42:13.999Z</time></trkpt><trkpt lat="40.143425015029095" lon="15.182380838437116"><ele>184.0</ele><time>2026-04-25T17:42:14.999Z</time></trkpt><trkpt lat="40.1432724167258" lon="15.18232291293306"><ele>184.0</ele><time>2026-04-25T17:42:15.999Z</time></trkpt><trkpt lat="40.14315967877194" lon="15.182262456254282"><ele>185.2</ele><time>2026-04-25T17:42:16.999Z</time></trkpt><trkpt lat="40.14307809494482" lon="15.18228266130523"><ele>186.39999999999998</ele><time>2026-04-25T17:42:17.999Z</time></trkpt><trkpt lat="40.14301266176094" lon="15.18236097348823"><ele>187.6</ele><time>2026-04-25T17:42:18.999Z</time></trkpt><trkpt lat="40.1429554868708" lon="15.182491312826041"><ele>188.8</ele><time>2026-04-25T17:42:19.999Z</time></trkpt><trkpt lat="40.14291151945329" lon="15.182662360583588"><ele>190.0</ele><time>2026-04-25T17:42:20.999Z</time></trkpt><trkpt lat="40.142846456173366" lon="15.18285208426653"><ele>190.0</ele><time>2026-04-25T17:42:21.999Z</time></trkpt><trkpt lat="40.14279389923728" lon="15.183074001907066"><ele>190.0</ele><time>2026-04-25T17:42:22.999Z</time></trkpt><trkpt lat="40.14274585732286" lon="15.18327894503202"><ele>190.0</ele><time>2026-04-25T17:42:23.999Z</time></trkpt><trkpt lat="40.142683417643426" lon="15.183451435027818"><ele>191.6</ele><time>2026-04-25T17:42:24.999Z</time></trkpt><trkpt lat="40.14261454750904" lon="15.183604069566043"><ele>193.2</ele><time>2026-04-25T17:42:25.999Z</time></trkpt><trkpt lat="40.142548521519785" lon="15.183716800931652"><ele>194.8</ele><time>2026-04-25T17:42:26.999Z</time></trkpt><trkpt lat="40.14249460497692" lon="15.183790454342896"><ele>196.4</ele><time>2026-04-25T17:42:27.999Z</time></trkpt><trkpt lat="40.14243659335519" lon="15.183844150068513"><ele>198.0</ele><time>2026-04-25T17:42:28.999Z</time></trkpt><trkpt lat="40.14232711652344" lon="15.183814829740058"><ele>198.0</ele><time>2026-04-25T17:42:29.999Z</time></trkpt><trkpt lat="40.14220510483494" lon="15.183740974790393"><ele>198.0</ele><time>2026-04-25T17:42:30.999Z</time></trkpt><trkpt lat="40.1420990984393" lon="15.183683404294118"><ele>198.0</ele><time>2026-04-25T17:42:31.999Z</time></trkpt><trkpt lat="40.142011581125104" lon="15.183700650256792"><ele>198.0</ele><time>2026-04-25T17:42:32.999Z</time></trkpt><trkpt lat="40.14193380198994" lon="15.183789575012247"><ele>198.0</ele><time>2026-04-25T17:42:33.999Z</time></trkpt><trkpt lat="40.14186354277547" lon="15.18394270241409"><ele>202.66666666666669</ele><time>2026-04-25T17:42:34.999Z</time></trkpt><trkpt lat="40.14179362126851" lon="15.184119677426906"><ele>207.33333333333334</ele><time>2026-04-25T17:42:35.999Z</time></trkpt><trkpt lat="40.141696582386345" lon="15.184296928109406"><ele>212.0</ele><time>2026-04-25T17:42:36.999Z</time></trkpt><trkpt lat="40.141599867971976" lon="15.184458147385508"><ele>213.0</ele><time>2026-04-25T17:42:37.999Z</time></trkpt><trkpt lat="40.14146189331482" lon="15.184599450721747"><ele>214.0</ele><time>2026-04-25T17:42:38.999Z</time></trkpt><trkpt lat="40.14131293712307" lon="15.184751029954047"><ele>215.0</ele><time>2026-04-25T17:42:39.999Z</time></trkpt><trkpt lat="40.14120478863626" lon="15.184873181082583"><ele>215.0</ele><time>2026-04-25T17:42:40.999Z</time></trkpt><trkpt lat="40.14112115280691" lon="15.184988275610538"><ele>215.0</ele><time>2026-04-25T17:42:41.999Z</time></trkpt><trkpt lat="40.14104271630938" lon="15.185118648988412"><ele>215.0</ele><time>2026-04-25T17:42:42.999Z</time></trkpt><trkpt lat="40.14096441772462" lon="15.185227107726444"><ele>215.0</ele><time>2026-04-25T17:42:43.999Z</time></trkpt><trkpt lat="40.140883664601304" lon="15.18530994961138"><ele>215.0</ele><time>2026-04-25T17:42:44.999Z</time></trkpt><trkpt lat="40.14081305729351" lon="15.185357726049164"><ele>215.0</ele><time>2026-04-25T17:42:45.999Z</time></trkpt><trkpt lat="40.14070395876709" lon="15.185395683531665"><ele>215.0</ele><time>2026-04-25T17:42:47.999Z</time></trkpt><trkpt lat="40.14060441000018" lon="15.185421562085713"><ele>215.0</ele><time>2026-04-25T17:42:48.999Z</time></trkpt><trkpt lat="40.14046910474514" lon="15.185447414066847"><ele>215.0</ele><time>2026-04-25T17:42:49.999Z</time></trkpt><trkpt lat="40.14034288546858" lon="15.185445748326995"><ele>215.33333333333334</ele><time>2026-04-25T17:42:50.999Z</time></trkpt><trkpt lat="40.140240624478984" lon="15.185439212537226"><ele>215.66666666666669</ele><time>2026-04-25T17:42:51.999Z</time></trkpt><trkpt lat="40.140154487436824" lon="15.185444362619231"><ele>216.0</ele><time>2026-04-25T17:42:52.998Z</time></trkpt><trkpt lat="40.140087082302166" lon="15.185452072203756"><ele>216.33333333333331</ele><time>2026-04-25T17:42:53.998Z</time></trkpt><trkpt lat="40.139987798839016" lon="15.185551854556213"><ele>216.66666666666666</ele><time>2026-04-25T17:42:56Z</time></trkpt><trkpt lat="40.139957010966334" lon="15.185630738098807"><ele>217.0</ele><time>2026-04-25T17:42:57Z</time></trkpt><trkpt lat="40.139935076219686" lon="15.18575749694895"><ele>216.75</ele><time>2026-04-25T17:42:58Z</time></trkpt><trkpt lat="40.139878689918014" lon="15.185894412287162"><ele>216.5</ele><time>2026-04-25T17:42:59Z</time></trkpt><trkpt lat="40.13982274824624" lon="15.18604694627039"><ele>216.25</ele><time>2026-04-25T17:43:00Z</time></trkpt><trkpt lat="40.13977612280084" lon="15.186179256943571"><ele>216.0</ele><time>2026-04-25T17:43:01Z</time></trkpt><trkpt lat="40.13973741100817" lon="15.186285775907605"><ele>216.0</ele><time>2026-04-25T17:43:02Z</time></trkpt><trkpt lat="40.13969914425967" lon="15.1863671340189"><ele>216.0</ele><time>2026-04-25T17:43:03Z</time></trkpt><trkpt lat="40.13965186056089" lon="15.18645213718329"><ele>216.0</ele><time>2026-04-25T17:43:04Z</time></trkpt><trkpt lat="40.13956317600854" lon="15.186494234831791"><ele>216.0</ele><time>2026-04-25T17:43:05Z</time></trkpt><trkpt lat="40.13948685063291" lon="15.186568311559038"><ele>216.0</ele><time>2026-04-25T17:43:06Z</time></trkpt><trkpt lat="40.13940088944655" lon="15.186630971650176"><ele>216.0</ele><time>2026-04-25T17:43:07Z</time></trkpt><trkpt lat="40.13931463708454" lon="15.18670107129738"><ele>218.25</ele><time>2026-04-25T17:43:08Z</time></trkpt><trkpt lat="40.13918402650328" lon="15.186774174971546"><ele>220.5</ele><time>2026-04-25T17:43:09Z</time></trkpt><trkpt lat="40.13907075434951" lon="15.186858383667461"><ele>222.75</ele><time>2026-04-25T17:43:10Z</time></trkpt><trkpt lat="40.13897050206103" lon="15.18693291313792"><ele>225.0</ele><time>2026-04-25T17:43:11Z</time></trkpt><trkpt lat="40.138855618834704" lon="15.187018715004582"><ele>221.4</ele><time>2026-04-25T17:43:12Z</time></trkpt><trkpt lat="40.13874032737046" lon="15.187105977366288"><ele>217.8</ele><time>2026-04-25T17:43:13Z</time></trkpt><trkpt lat="40.13865271992963" lon="15.187172286111204"><ele>214.2</ele><time>2026-04-25T17:43:14Z</time></trkpt><trkpt lat="40.13857615319553" lon="15.187230238312047"><ele>210.6</ele><time>2026-04-25T17:43:15Z</time></trkpt><trkpt lat="40.138506371040776" lon="15.187283055371385"><ele>207.0</ele><time>2026-04-25T17:43:16Z</time></trkpt><trkpt lat="40.13842664279558" lon="15.187343797135279"><ele>206.16666666666666</ele><time>2026-04-25T17:43:17Z</time></trkpt><trkpt lat="40.13834176676397" lon="15.18741025613598"><ele>205.33333333333331</ele><time>2026-04-25T17:43:18Z</time></trkpt><trkpt lat="40.138278682947245" lon="15.187460244649632"><ele>204.5</ele><time>2026-04-25T17:43:19Z</time></trkpt><trkpt lat="40.13822636604186" lon="15.187511547808692"><ele>203.66666666666666</ele><time>2026-04-25T17:43:20Z</time></trkpt><trkpt lat="40.13817874086957" lon="15.18757829823236"><ele>202.83333333333331</ele><time>2026-04-25T17:43:21Z</time></trkpt><trkpt lat="40.13816140076105" lon="15.187700073270161"><ele>202.0</ele><time>2026-04-25T17:43:22Z</time></trkpt><trkpt lat="40.1381723143428" lon="15.187842929955028"><ele>201.99999999999997</ele><time>2026-04-25T17:43:23Z</time></trkpt><trkpt lat="40.13819383831986" lon="15.187966454606194"><ele>202.0</ele><time>2026-04-25T17:43:24Z</time></trkpt><trkpt lat="40.13820896309742" lon="15.188065697210524"><ele>202.0</ele><time>2026-04-25T17:43:25Z</time></trkpt><trkpt lat="40.13821923182483" lon="15.188153094104441"><ele>202.0</ele><time>2026-04-25T17:43:26Z</time></trkpt><trkpt lat="40.13823667120613" lon="15.18829075702143"><ele>201.99999999999997</ele><time>2026-04-25T17:43:28Z</time></trkpt><trkpt lat="40.138229639130316" lon="15.188392856655993"><ele>202.0</ele><time>2026-04-25T17:43:30Z</time></trkpt><trkpt lat="40.13818880524736" lon="15.188507853603088"><ele>203.6</ele><time>2026-04-25T17:43:32Z</time></trkpt><trkpt lat="40.138114287174304" lon="15.188533249622655"><ele>205.2</ele><time>2026-04-25T17:43:33Z</time></trkpt><trkpt lat="40.138015788633886" lon="15.188525048881404"><ele>206.8</ele><time>2026-04-25T17:43:34Z</time></trkpt><trkpt lat="40.13789781527029" lon="15.188510950044321"><ele>208.4</ele><time>2026-04-25T17:43:35Z</time></trkpt><trkpt lat="40.13776326878872" lon="15.18851971534082"><ele>210.0</ele><time>2026-04-25T17:43:36Z</time></trkpt><trkpt lat="40.13764101714035" lon="15.188546107808346"><ele>210.0</ele><time>2026-04-25T17:43:37Z</time></trkpt><trkpt lat="40.1375290543675" lon="15.188537445639867"><ele>210.0</ele><time>2026-04-25T17:43:38Z</time></trkpt><trkpt lat="40.13743039829859" lon="15.188548706212586"><ele>210.0</ele><time>2026-04-25T17:43:39Z</time></trkpt><trkpt lat="40.13733366138502" lon="15.188556850315234"><ele>210.0</ele><time>2026-04-25T17:43:40Z</time></trkpt><trkpt lat="40.13721272371937" lon="15.188538580710638"><ele>210.0</ele><time>2026-04-25T17:43:41Z</time></trkpt><trkpt lat="40.13705218460557" lon="15.188504049644662"><ele>208.0</ele><time>2026-04-25T17:43:42Z</time></trkpt><trkpt lat="40.13684105266441" lon="15.18846782137838"><ele>206.0</ele><time>2026-04-25T17:43:43Z</time></trkpt><trkpt lat="40.136608861534384" lon="15.188403807474987"><ele>205.66666666666669</ele><time>2026-04-25T17:43:44Z</time></trkpt><trkpt lat="40.13637870289209" lon="15.188347815804091"><ele>205.33333333333331</ele><time>2026-04-25T17:43:44.999Z</time></trkpt><trkpt lat="40.136167313248706" lon="15.188300053307952"><ele>205.0</ele><time>2026-04-25T17:43:45.999Z</time></trkpt><trkpt lat="40.13597963721192" lon="15.188247156881937"><ele>205.0</ele><time>2026-04-25T17:43:46.999Z</time></trkpt><trkpt lat="40.13580538546285" lon="15.188191499175856"><ele>205.0</ele><time>2026-04-25T17:43:47.999Z</time></trkpt><trkpt lat="40.135641783951606" lon="15.188142959452547"><ele>205.0</ele><time>2026-04-25T17:43:48.999Z</time></trkpt><trkpt lat="40.135488595788765" lon="15.188101299059403"><ele>203.0</ele><time>2026-04-25T17:43:49.999Z</time></trkpt><trkpt lat="40.135338359099165" lon="15.188058325946674"><ele>201.0</ele><time>2026-04-25T17:43:50.999Z</time></trkpt><trkpt lat="40.13517747932333" lon="15.188007433831473"><ele>199.0</ele><time>2026-04-25T17:43:51.999Z</time></trkpt><trkpt lat="40.13502221040632" lon="15.187925574735239"><ele>201.0</ele><time>2026-04-25T17:43:52.999Z</time></trkpt><trkpt lat="40.13487385438555" lon="15.187806710953339"><ele>203.0</ele><time>2026-04-25T17:43:53.999Z</time></trkpt><trkpt lat="40.134732498016575" lon="15.187670736864481"><ele>205.0</ele><time>2026-04-25T17:43:54.999Z</time></trkpt><trkpt lat="40.13460281155115" lon="15.187559356020504"><ele>205.0</ele><time>2026-04-25T17:43:55.999Z</time></trkpt><trkpt lat="40.134477442168446" lon="15.187484923179122"><ele>205.0</ele><time>2026-04-25T17:43:56.999Z</time></trkpt><trkpt lat="40.134344599810326" lon="15.187443344845697"><ele>205.0</ele><time>2026-04-25T17:43:57.999Z</time></trkpt><trkpt lat="40.13419703066221" lon="15.187430368235585"><ele>205.0</ele><time>2026-04-25T17:43:58.999Z</time></trkpt><trkpt lat="40.13405750822053" lon="15.187431976213855"><ele>205.25</ele><time>2026-04-25T17:43:59.999Z</time></trkpt><trkpt lat="40.13393333860467" lon="15.187445434000205"><ele>205.5</ele><time>2026-04-25T17:44:00.999Z</time></trkpt><trkpt lat="40.133820805397335" lon="15.18748679302743"><ele>205.75</ele><time>2026-04-25T17:44:01.999Z</time></trkpt><trkpt lat="40.13371363780601" lon="15.187545713833343"><ele>206.0</ele><time>2026-04-25T17:44:02.999Z</time></trkpt><trkpt lat="40.13360927810736" lon="15.187577031361744"><ele>206.0</ele><time>2026-04-25T17:44:03.999Z</time></trkpt><trkpt lat="40.13350139738178" lon="15.187567875563445"><ele>206.0</ele><time>2026-04-25T17:44:04.999Z</time></trkpt><trkpt lat="40.13337408394851" lon="15.187501188210469"><ele>206.0</ele><time>2026-04-25T17:44:05.999Z</time></trkpt><trkpt lat="40.133232097398555" lon="15.187402019139338"><ele>206.0</ele><time>2026-04-25T17:44:06.999Z</time></trkpt><trkpt lat="40.13306840481609" lon="15.18731513162426"><ele>197.0</ele><time>2026-04-25T17:44:07.999Z</time></trkpt><trkpt lat="40.13289629394377" lon="15.187260574768963"><ele>188.0</ele><time>2026-04-25T17:44:08.999Z</time></trkpt><trkpt lat="40.13274822530952" lon="15.187213255481929"><ele>179.0</ele><time>2026-04-25T17:44:09.999Z</time></trkpt><trkpt lat="40.132607855036845" lon="15.18716878464009"><ele>179.0</ele><time>2026-04-25T17:44:10.999Z</time></trkpt><trkpt lat="40.132481826536925" lon="15.187125107511484"><ele>179.0</ele><time>2026-04-25T17:44:11.999Z</time></trkpt><trkpt lat="40.1323553476081" lon="15.187088267310335"><ele>179.0</ele><time>2026-04-25T17:44:12.999Z</time></trkpt><trkpt lat="40.132233427940335" lon="15.187062084955059"><ele>179.0</ele><time>2026-04-25T17:44:13.999Z</time></trkpt><trkpt lat="40.13210717898508" lon="15.18705910749351"><ele>177.0</ele><time>2026-04-25T17:44:14.999Z</time></trkpt><trkpt lat="40.13197747411502" lon="15.187060697696493"><ele>175.0</ele><time>2026-04-25T17:44:15.999Z</time></trkpt><trkpt lat="40.13186605627523" lon="15.187040685996244"><ele>173.0</ele><time>2026-04-25T17:44:16.999Z</time></trkpt><trkpt lat="40.131781694480075" lon="15.187020265016914"><ele>171.0</ele><time>2026-04-25T17:44:17.999Z</time></trkpt><trkpt lat="40.1316982352278" lon="15.187045032440352"><ele>169.0</ele><time>2026-04-25T17:44:18.999Z</time></trkpt><trkpt lat="40.131610540218" lon="15.187123609007081"><ele>166.0</ele><time>2026-04-25T17:44:19.999Z</time></trkpt><trkpt lat="40.131521489852" lon="15.187269875019048"><ele>163.0</ele><time>2026-04-25T17:44:20.999Z</time></trkpt><trkpt lat="40.131412602653846" lon="15.187412740376788"><ele>160.0</ele><time>2026-04-25T17:44:21.999Z</time></trkpt><trkpt lat="40.13128070964956" lon="15.187526424832592"><ele>164.5</ele><time>2026-04-25T17:44:22.999Z</time></trkpt><trkpt lat="40.131141192548114" lon="15.187626544503763"><ele>169.0</ele><time>2026-04-25T17:44:23.999Z</time></trkpt><trkpt lat="40.1310183525195" lon="15.187735892489245"><ele>173.5</ele><time>2026-04-25T17:44:24.999Z</time></trkpt><trkpt lat="40.1309155627411" lon="15.187852451249038"><ele>178.0</ele><time>2026-04-25T17:44:25.999Z</time></trkpt><trkpt lat="40.13083100370131" lon="15.18797864190896"><ele>178.0</ele><time>2026-04-25T17:44:26.999Z</time></trkpt><trkpt lat="40.130761095232685" lon="15.188131631938619"><ele>178.0</ele><time>2026-04-25T17:44:27.999Z</time></trkpt><trkpt lat="40.13069937138962" lon="15.188328952941733"><ele>178.0</ele><time>2026-04-25T17:44:28.999Z</time></trkpt><trkpt lat="40.13061267156799" lon="15.188514234846199"><ele>177.75</ele><time>2026-04-25T17:44:29.999Z</time></trkpt><trkpt lat="40.13055563394036" lon="15.188706628835464"><ele>177.5</ele><time>2026-04-25T17:44:30.999Z</time></trkpt><trkpt lat="40.13046667564385" lon="15.188831585754134"><ele>177.25</ele><time>2026-04-25T17:44:31.999Z</time></trkpt><trkpt lat="40.13039600095412" lon="15.188955653590519"><ele>177.0</ele><time>2026-04-25T17:44:32.999Z</time></trkpt><trkpt lat="40.13034283165131" lon="15.189075123705543"><ele>177.0</ele><time>2026-04-25T17:44:33.999Z</time></trkpt><trkpt lat="40.13029169582266" lon="15.18916679224625"><ele>177.0</ele><time>2026-04-25T17:44:34.999Z</time></trkpt><trkpt lat="40.13027475413163" lon="15.189261827196178"><ele>177.0</ele><time>2026-04-25T17:44:35.999Z</time></trkpt><trkpt lat="40.13025962150456" lon="15.189368446058722"><ele>177.0</ele><time>2026-04-25T17:44:36.999Z</time></trkpt><trkpt lat="40.13032072416598" lon="15.189508268396109"><ele>177.0</ele><time>2026-04-25T17:44:37.999Z</time></trkpt><trkpt lat="40.13044671316744" lon="15.18961460714894"><ele>177.0</ele><time>2026-04-25T17:44:38.999Z</time></trkpt><trkpt lat="40.13058039143995" lon="15.189740500509876"><ele>177.0</ele><time>2026-04-25T17:44:39.999Z</time></trkpt><trkpt lat="40.130697058105895" lon="15.189851647738495"><ele>177.0</ele><time>2026-04-25T17:44:40.999Z</time></trkpt><trkpt lat="40.13079330019457" lon="15.189958698267308"><ele>177.0</ele><time>2026-04-25T17:44:41.999Z</time></trkpt><trkpt lat="40.13088211528542" lon="15.190089107900414"><ele>178.66666666666666</ele><time>2026-04-25T17:44:42.999Z</time></trkpt><trkpt lat="40.130986493648855" lon="15.190228012044308"><ele>180.33333333333331</ele><time>2026-04-25T17:44:43.999Z</time></trkpt><trkpt lat="40.131117481213714" lon="15.190345008652288"><ele>182.0</ele><time>2026-04-25T17:44:44.999Z</time></trkpt><trkpt lat="40.13126706204649" lon="15.190433225238857"><ele>182.0</ele><time>2026-04-25T17:44:45.999Z</time></trkpt><trkpt lat="40.13140621604723" lon="15.190489116465729"><ele>182.0</ele><time>2026-04-25T17:44:46.999Z</time></trkpt><trkpt lat="40.13153051238524" lon="15.190510168271393"><ele>182.0</ele><time>2026-04-25T17:44:47.999Z</time></trkpt><trkpt lat="40.13163724238901" lon="15.190519590212343"><ele>182.0</ele><time>2026-04-25T17:44:48.999Z</time></trkpt><trkpt lat="40.131715861607" lon="15.190524853138761"><ele>182.66666666666666</ele><time>2026-04-25T17:44:49.999Z</time></trkpt><trkpt lat="40.13177894216599" lon="15.190541406056722"><ele>183.33333333333331</ele><time>2026-04-25T17:44:50.999Z</time></trkpt><trkpt lat="40.13187318772792" lon="15.19063484708019"><ele>184.0</ele><time>2026-04-25T17:44:52.999Z</time></trkpt><trkpt lat="40.13189472883372" lon="15.190744031252759"><ele>184.66666666666666</ele><time>2026-04-25T17:44:53.999Z</time></trkpt><trkpt lat="40.13191310486095" lon="15.190846116563991"><ele>185.33333333333334</ele><time>2026-04-25T17:44:54.999Z</time></trkpt><trkpt lat="40.13186373255647" lon="15.190932223111918"><ele>186.0</ele><time>2026-04-25T17:44:55.999Z</time></trkpt><trkpt lat="40.13175855997316" lon="15.191002315679249"><ele>186.0</ele><time>2026-04-25T17:44:56.999Z</time></trkpt><trkpt lat="40.13160753964578" lon="15.191062483089516"><ele>186.0</ele><time>2026-04-25T17:44:57.999Z</time></trkpt><trkpt lat="40.13144463059672" lon="15.191122315194756"><ele>186.0</ele><time>2026-04-25T17:44:58.999Z</time></trkpt><trkpt lat="40.131309767551414" lon="15.191175440356426"><ele>183.25</ele><time>2026-04-25T17:44:59.999Z</time></trkpt><trkpt lat="40.13118600008455" lon="15.191215860614305"><ele>180.5</ele><time>2026-04-25T17:45:00.998Z</time></trkpt><trkpt lat="40.131065784489266" lon="15.191249980186006"><ele>177.75</ele><time>2026-04-25T17:45:02Z</time></trkpt><trkpt lat="40.130956654435984" lon="15.191269163646158"><ele>175.0</ele><time>2026-04-25T17:45:03Z</time></trkpt><trkpt lat="40.13083379897044" lon="15.191255132500446"><ele>171.33333333333334</ele><time>2026-04-25T17:45:04Z</time></trkpt><trkpt lat="40.130687486993025" lon="15.191197393800909"><ele>167.66666666666666</ele><time>2026-04-25T17:45:05Z</time></trkpt><trkpt lat="40.13052352094589" lon="15.191112421513525"><ele>164.0</ele><time>2026-04-25T17:45:06Z</time></trkpt><trkpt lat="40.13036822041292" lon="15.191043901147438"><ele>164.0</ele><time>2026-04-25T17:45:07Z</time></trkpt><trkpt lat="40.13022001105662" lon="15.190976996440176"><ele>164.0</ele><time>2026-04-25T17:45:08Z</time></trkpt><trkpt lat="40.130080881370255" lon="15.190924287288679"><ele>164.0</ele><time>2026-04-25T17:45:09Z</time></trkpt><trkpt lat="40.129931370255356" lon="15.190881834482518"><ele>163.66666666666666</ele><time>2026-04-25T17:45:10Z</time></trkpt><trkpt lat="40.12977566095418" lon="15.190853405657446"><ele>163.33333333333334</ele><time>2026-04-25T17:45:11Z</time></trkpt><trkpt lat="40.129628182162904" lon="15.190829611774664"><ele>163.0</ele><time>2026-04-25T17:45:12Z</time></trkpt><trkpt lat="40.12948014524774" lon="15.190805411378978"><ele>163.0</ele><time>2026-04-25T17:45:13Z</time></trkpt><trkpt lat="40.129323506019375" lon="15.190791301705064"><ele>163.0</ele><time>2026-04-25T17:45:14Z</time></trkpt><trkpt lat="40.129166500353335" lon="15.190798429022783"><ele>163.0</ele><time>2026-04-25T17:45:15Z</time></trkpt><trkpt lat="40.1290051814403" lon="15.190804940801524"><ele>160.5</ele><time>2026-04-25T17:45:16Z</time></trkpt><trkpt lat="40.12886940615865" lon="15.190781513380806"><ele>158.0</ele><time>2026-04-25T17:45:17Z</time></trkpt><trkpt lat="40.12872897875321" lon="15.19077278461146"><ele>155.5</ele><time>2026-04-25T17:45:18Z</time></trkpt><trkpt lat="40.12857510957592" lon="15.190793211210993"><ele>153.0</ele><time>2026-04-25T17:45:19Z</time></trkpt><trkpt lat="40.12841659753005" lon="15.190844934343659"><ele>153.0</ele><time>2026-04-25T17:45:20Z</time></trkpt><trkpt lat="40.128270569517575" lon="15.19089103473708"><ele>153.0</ele><time>2026-04-25T17:45:21Z</time></trkpt><trkpt lat="40.128131451089345" lon="15.190922959423974"><ele>153.0</ele><time>2026-04-25T17:45:22Z</time></trkpt><trkpt lat="40.12800681166811" lon="15.190955580963553"><ele>153.0</ele><time>2026-04-25T17:45:23Z</time></trkpt><trkpt lat="40.127885029425435" lon="15.1909989083421"><ele>150.8</ele><time>2026-04-25T17:45:24Z</time></trkpt><trkpt lat="40.12777907378887" lon="15.191059802584837"><ele>148.60000000000002</ele><time>2026-04-25T17:45:25Z</time></trkpt><trkpt lat="40.12769046481512" lon="15.191132400339313"><ele>146.39999999999998</ele><time>2026-04-25T17:45:26Z</time></trkpt><trkpt lat="40.12762566369694" lon="15.191206617214412"><ele>144.2</ele><time>2026-04-25T17:45:27Z</time></trkpt><trkpt lat="40.12758216768578" lon="15.191286795045361"><ele>142.0</ele><time>2026-04-25T17:45:28Z</time></trkpt><trkpt lat="40.127555075511175" lon="15.191391380718423"><ele>142.0</ele><time>2026-04-25T17:45:29Z</time></trkpt><trkpt lat="40.127573610097855" lon="15.191527168122485"><ele>142.0</ele><time>2026-04-25T17:45:30Z</time></trkpt><trkpt lat="40.12765935506507" lon="15.19164409288414"><ele>142.0</ele><time>2026-04-25T17:45:31Z</time></trkpt><trkpt lat="40.12777521392353" lon="15.19172415240681"><ele>142.0</ele><time>2026-04-25T17:45:32Z</time></trkpt><trkpt lat="40.12792715292577" lon="15.19179750505602"><ele>142.0</ele><time>2026-04-25T17:45:33Z</time></trkpt><trkpt lat="40.128092341057446" lon="15.191843148005889"><ele>142.0</ele><time>2026-04-25T17:45:34Z</time></trkpt><trkpt lat="40.128256104915415" lon="15.191885278115064"><ele>142.0</ele><time>2026-04-25T17:45:35Z</time></trkpt><trkpt lat="40.12839153747342" lon="15.191935423235655"><ele>146.75</ele><time>2026-04-25T17:45:36Z</time></trkpt><trkpt lat="40.12851690582503" lon="15.191972864317437"><ele>151.5</ele><time>2026-04-25T17:45:37Z</time></trkpt><trkpt lat="40.12865854337636" lon="15.191969818798325"><ele>156.25</ele><time>2026-04-25T17:45:38Z</time></trkpt><trkpt lat="40.12879104705451" lon="15.191946005028091"><ele>161.0</ele><time>2026-04-25T17:45:39Z</time></trkpt><trkpt lat="40.12891572801105" lon="15.191973046081433"><ele>161.0</ele><time>2026-04-25T17:45:40Z</time></trkpt><trkpt lat="40.12904025763859" lon="15.192063479476335"><ele>161.0</ele><time>2026-04-25T17:45:41Z</time></trkpt><trkpt lat="40.12918967475662" lon="15.192194638664358"><ele>161.0</ele><time>2026-04-25T17:45:42Z</time></trkpt><trkpt lat="40.12933109792012" lon="15.192329119720183"><ele>155.0</ele><time>2026-04-25T17:45:43Z</time></trkpt><trkpt lat="40.12945472855188" lon="15.192447485579818"><ele>149.0</ele><time>2026-04-25T17:45:44Z</time></trkpt><trkpt lat="40.12957013243094" lon="15.19255797523783"><ele>143.0</ele><time>2026-04-25T17:45:45Z</time></trkpt><trkpt lat="40.12968076347404" lon="15.192663895149312"><ele>137.0</ele><time>2026-04-25T17:45:46Z</time></trkpt><trkpt lat="40.12980348995877" lon="15.192764754419118"><ele>146.0</ele><time>2026-04-25T17:45:47Z</time></trkpt><trkpt lat="40.129969620031716" lon="15.192811974953452"><ele>155.0</ele><time>2026-04-25T17:45:48Z</time></trkpt><trkpt lat="40.13013016380815" lon="15.192847307160525"><ele>164.0</ele><time>2026-04-25T17:45:49Z</time></trkpt><trkpt lat="40.13025731593359" lon="15.19291126425431"><ele>164.0</ele><time>2026-04-25T17:45:49.999Z</time></trkpt><trkpt lat="40.130397850016784" lon="15.193040108883885"><ele>164.0</ele><time>2026-04-25T17:45:50.999Z</time></trkpt><trkpt lat="40.13054929004312" lon="15.193173871807826"><ele>164.0</ele><time>2026-04-25T17:45:51.999Z</time></trkpt><trkpt lat="40.13067817317485" lon="15.19328771093024"><ele>158.5</ele><time>2026-04-25T17:45:52.999Z</time></trkpt><trkpt lat="40.13080565828907" lon="15.193387142042301"><ele>153.0</ele><time>2026-04-25T17:45:53.999Z</time></trkpt><trkpt lat="40.13095700880807" lon="15.193439575449663"><ele>147.5</ele><time>2026-04-25T17:45:54.999Z</time></trkpt><trkpt lat="40.13107649582939" lon="15.193452344334702"><ele>142.0</ele><time>2026-04-25T17:45:55.999Z</time></trkpt><trkpt lat="40.13116847943698" lon="15.193484902060884"><ele>142.0</ele><time>2026-04-25T17:45:56.999Z</time></trkpt><trkpt lat="40.13124334933512" lon="15.19354293847584"><ele>142.0</ele><time>2026-04-25T17:45:57.999Z</time></trkpt><trkpt lat="40.13130521975002" lon="15.193621074589126"><ele>142.0</ele><time>2026-04-25T17:45:58.999Z</time></trkpt><trkpt lat="40.13135399002985" lon="15.193717222963924"><ele>142.0</ele><time>2026-04-25T17:45:59.999Z</time></trkpt><trkpt lat="40.13132540078342" lon="15.193880388332548"><ele>142.0</ele><time>2026-04-25T17:46:00.999Z</time></trkpt><trkpt lat="40.13135121640933" lon="15.19405351280762"><ele>144.0</ele><time>2026-04-25T17:46:01.999Z</time></trkpt><trkpt lat="40.13141549689052" lon="15.194226910693514"><ele>146.0</ele><time>2026-04-25T17:46:02.999Z</time></trkpt><trkpt lat="40.13154449975246" lon="15.194403595058308"><ele>148.0</ele><time>2026-04-25T17:46:03.999Z</time></trkpt><trkpt lat="40.131668369154454" lon="15.194550701162978"><ele>148.0</ele><time>2026-04-25T17:46:04.999Z</time></trkpt><trkpt lat="40.13175929549549" lon="15.194693464373662"><ele>148.0</ele><time>2026-04-25T17:46:05.999Z</time></trkpt><trkpt lat="40.13183308901923" lon="15.19483165696903"><ele>148.0</ele><time>2026-04-25T17:46:06.999Z</time></trkpt><trkpt lat="40.131913091505034" lon="15.194960618325029"><ele>148.0</ele><time>2026-04-25T17:46:07.999Z</time></trkpt><trkpt lat="40.132050784699395" lon="15.195060376203102"><ele>145.33333333333334</ele><time>2026-04-25T17:46:08.999Z</time></trkpt><trkpt lat="40.13223079267416" lon="15.195106167235517"><ele>142.66666666666666</ele><time>2026-04-25T17:46:09.999Z</time></trkpt><trkpt lat="40.13239864407952" lon="15.195151771294642"><ele>140.0</ele><time>2026-04-25T17:46:10.999Z</time></trkpt><trkpt lat="40.13252838171081" lon="15.195209473925248"><ele>140.0</ele><time>2026-04-25T17:46:11.999Z</time></trkpt><trkpt lat="40.13263208794972" lon="15.195256649590423"><ele>140.0</ele><time>2026-04-25T17:46:12.999Z</time></trkpt><trkpt lat="40.13270863082194" lon="15.195297242986669"><ele>140.0</ele><time>2026-04-25T17:46:13.999Z</time></trkpt><trkpt lat="40.13277093120261" lon="15.19534759983304"><ele>140.0</ele><time>2026-04-25T17:46:14.999Z</time></trkpt><trkpt lat="40.13283543066623" lon="15.195426428019577"><ele>140.0</ele><time>2026-04-25T17:46:15.999Z</time></trkpt><trkpt lat="40.132813058477865" lon="15.195585555646955"><ele>133.4</ele><time>2026-04-25T17:46:16.999Z</time></trkpt><trkpt lat="40.13282436114024" lon="15.195719409009767"><ele>126.8</ele><time>2026-04-25T17:46:17.999Z</time></trkpt><trkpt lat="40.13284510039502" lon="15.195843917446703"><ele>120.19999999999999</ele><time>2026-04-25T17:46:18.999Z</time></trkpt><trkpt lat="40.13290120437203" lon="15.195946903216326"><ele>113.6</ele><time>2026-04-25T17:46:19.999Z</time></trkpt><trkpt lat="40.13297514312321" lon="15.196040384833701"><ele>107.0</ele><time>2026-04-25T17:46:20.999Z</time></trkpt><trkpt lat="40.13309050857908" lon="15.196083150057406"><ele>107.0</ele><time>2026-04-25T17:46:21.999Z</time></trkpt><trkpt lat="40.13320052870298" lon="15.196105062808872"><ele>107.0</ele><time>2026-04-25T17:46:22.999Z</time></trkpt><trkpt lat="40.13331957609511" lon="15.19609293690707"><ele>107.0</ele><time>2026-04-25T17:46:23.999Z</time></trkpt><trkpt lat="40.133438400717395" lon="15.196024473531866"><ele>107.0</ele><time>2026-04-25T17:46:24.999Z</time></trkpt><trkpt lat="40.133537731907644" lon="15.195948971169472"><ele>109.6</ele><time>2026-04-25T17:46:25.999Z</time></trkpt><trkpt lat="40.13361415898873" lon="15.195892527666189"><ele>112.19999999999999</ele><time>2026-04-25T17:46:26.999Z</time></trkpt><trkpt lat="40.13371647033906" lon="15.195871905134872"><ele>114.8</ele><time>2026-04-25T17:46:28.999Z</time></trkpt><trkpt lat="40.13381571837993" lon="15.195995693100443"><ele>117.4</ele><time>2026-04-25T17:46:30.999Z</time></trkpt><trkpt lat="40.13381268229098" lon="15.196131933737002"><ele>120.0</ele><time>2026-04-25T17:46:31.999Z</time></trkpt><trkpt lat="40.1338217044297" lon="15.196253476633656"><ele>120.0</ele><time>2026-04-25T17:46:32.999Z</time></trkpt><trkpt lat="40.133865722789224" lon="15.196359214937077"><ele>120.0</ele><time>2026-04-25T17:46:33.999Z</time></trkpt><trkpt lat="40.13397551172173" lon="15.196438391188071"><ele>120.0</ele><time>2026-04-25T17:46:34.999Z</time></trkpt><trkpt lat="40.13411880417871" lon="15.196481149737737"><ele>120.0</ele><time>2026-04-25T17:46:35.999Z</time></trkpt><trkpt lat="40.13427969171072" lon="15.196485395253323"><ele>123.66666666666666</ele><time>2026-04-25T17:46:36.999Z</time></trkpt><trkpt lat="40.13443565613498" lon="15.196465092068552"><ele>127.33333333333333</ele><time>2026-04-25T17:46:37.999Z</time></trkpt><trkpt lat="40.13458913489234" lon="15.196444916018766"><ele>131.0</ele><time>2026-04-25T17:46:38.999Z</time></trkpt><trkpt lat="40.13473027909836" lon="15.196423726392004"><ele>131.0</ele><time>2026-04-25T17:46:39.999Z</time></trkpt><trkpt lat="40.13486276174769" lon="15.196351834104872"><ele>131.0</ele><time>2026-04-25T17:46:40.999Z</time></trkpt><trkpt lat="40.13498152084526" lon="15.196266164738395"><ele>131.0</ele><time>2026-04-25T17:46:41.999Z</time></trkpt><trkpt lat="40.13506672220306" lon="15.196206790080398"><ele>131.0</ele><time>2026-04-25T17:46:42.999Z</time></trkpt><trkpt lat="40.13512745234434" lon="15.196174525271873"><ele>131.0</ele><time>2026-04-25T17:46:43.999Z</time></trkpt><trkpt lat="40.13520713221861" lon="15.196194718192908"><ele>130.0</ele><time>2026-04-25T17:46:45.999Z</time></trkpt><trkpt lat="40.135262885649354" lon="15.196263780935789"><ele>129.0</ele><time>2026-04-25T17:46:46.999Z</time></trkpt><trkpt lat="40.13526100426589" lon="15.19638879221426"><ele>128.0</ele><time>2026-04-25T17:46:47.999Z</time></trkpt><trkpt lat="40.135209130621" lon="15.196519583036036"><ele>127.0</ele><time>2026-04-25T17:46:48.999Z</time></trkpt><trkpt lat="40.135114295591286" lon="15.196651054686939"><ele>126.0</ele><time>2026-04-25T17:46:49.999Z</time></trkpt><trkpt lat="40.135018869026084" lon="15.196794031536685"><ele>121.0</ele><time>2026-04-25T17:46:50.999Z</time></trkpt><trkpt lat="40.13493574602822" lon="15.196925328544317"><ele>116.0</ele><time>2026-04-25T17:46:51.999Z</time></trkpt><trkpt lat="40.13484641052106" lon="15.197046265129494"><ele>111.0</ele><time>2026-04-25T17:46:52.999Z</time></trkpt><trkpt lat="40.134740661012316" lon="15.197176074631184"><ele>106.0</ele><time>2026-04-25T17:46:53.999Z</time></trkpt><trkpt lat="40.13462603320857" lon="15.197320579340538"><ele>102.25</ele><time>2026-04-25T17:46:54.999Z</time></trkpt><trkpt lat="40.134523366122835" lon="15.19745418086709"><ele>98.5</ele><time>2026-04-25T17:46:55.999Z</time></trkpt><trkpt lat="40.13442835037808" lon="15.197580660152253"><ele>94.75</ele><time>2026-04-25T17:46:56.999Z</time></trkpt><trkpt lat="40.13433742082604" lon="15.197704671536327"><ele>91.0</ele><time>2026-04-25T17:46:57.999Z</time></trkpt><trkpt lat="40.13424744532183" lon="15.19782317662385"><ele>91.0</ele><time>2026-04-25T17:46:58.999Z</time></trkpt><trkpt lat="40.13417313733406" lon="15.197939792155061"><ele>91.0</ele><time>2026-04-25T17:46:59.999Z</time></trkpt><trkpt lat="40.134123595477654" lon="15.198074937935635"><ele>91.0</ele><time>2026-04-25T17:47:00.999Z</time></trkpt><trkpt lat="40.1341044994659" lon="15.19820943443579"><ele>91.0</ele><time>2026-04-25T17:47:01.999Z</time></trkpt><trkpt lat="40.13411574112194" lon="15.198338600450919"><ele>91.0</ele><time>2026-04-25T17:47:02.999Z</time></trkpt><trkpt lat="40.13415912552815" lon="15.198457402079942"><ele>91.19999999999999</ele><time>2026-04-25T17:47:03.998Z</time></trkpt><trkpt lat="40.13421451277813" lon="15.19858883542564"><ele>91.39999999999999</ele><time>2026-04-25T17:47:04.998Z</time></trkpt><trkpt lat="40.13431908187387" lon="15.198685625801527"><ele>91.6</ele><time>2026-04-25T17:47:05.998Z</time></trkpt><trkpt lat="40.13441055767446" lon="15.198750549876815"><ele>91.8</ele><time>2026-04-25T17:47:06.998Z</time></trkpt><trkpt lat="40.13447316855345" lon="15.198801470393574"><ele>92.0</ele><time>2026-04-25T17:47:08Z</time></trkpt><trkpt lat="40.134531553705884" lon="15.198916201343323"><ele>92.0</ele><time>2026-04-25T17:47:10Z</time></trkpt><trkpt lat="40.134504922292535" lon="15.198994881084964"><ele>92.0</ele><time>2026-04-25T17:47:11Z</time></trkpt><trkpt lat="40.1344332841517" lon="15.199051845614727"><ele>92.0</ele><time>2026-04-25T17:47:12Z</time></trkpt><trkpt lat="40.13433366601043" lon="15.199077856810002"><ele>92.0</ele><time>2026-04-25T17:47:13Z</time></trkpt><trkpt lat="40.134213391378246" lon="15.199073753851586"><ele>92.0</ele><time>2026-04-25T17:47:14Z</time></trkpt><trkpt lat="40.13410357747545" lon="15.199097344160505"><ele>86.25</ele><time>2026-04-25T17:47:15Z</time></trkpt><trkpt lat="40.134022114970364" lon="15.19914358329133"><ele>80.5</ele><time>2026-04-25T17:47:16Z</time></trkpt><trkpt lat="40.13394740272253" lon="15.199252822421945"><ele>74.75</ele><time>2026-04-25T17:47:17Z</time></trkpt><trkpt lat="40.13389202530451" lon="15.19943510497519"><ele>69.0</ele><time>2026-04-25T17:47:18Z</time></trkpt><trkpt lat="40.13383032908203" lon="15.199639218627444"><ele>69.0</ele><time>2026-04-25T17:47:19Z</time></trkpt><trkpt lat="40.13371831164743" lon="15.199812237589242"><ele>69.0</ele><time>2026-04-25T17:47:20Z</time></trkpt><trkpt lat="40.13360380733454" lon="15.19996255211156"><ele>69.0</ele><time>2026-04-25T17:47:21Z</time></trkpt><trkpt lat="40.13350654962168" lon="15.200098504234035"><ele>70.75</ele><time>2026-04-25T17:47:22Z</time></trkpt><trkpt lat="40.1334250805739" lon="15.200224323478661"><ele>72.5</ele><time>2026-04-25T17:47:23Z</time></trkpt><trkpt lat="40.133342670814194" lon="15.20032447553769"><ele>74.25</ele><time>2026-04-25T17:47:24Z</time></trkpt><trkpt lat="40.13323084749298" lon="15.20041782204959"><ele>76.0</ele><time>2026-04-25T17:47:25Z</time></trkpt><trkpt lat="40.13307217657306" lon="15.200490773967708"><ele>76.33333333333333</ele><time>2026-04-25T17:47:26Z</time></trkpt><trkpt lat="40.132890328988076" lon="15.200573165393605"><ele>76.66666666666667</ele><time>2026-04-25T17:47:27Z</time></trkpt><trkpt lat="40.13271751194534" lon="15.200657656656745"><ele>77.0</ele><time>2026-04-25T17:47:28Z</time></trkpt><trkpt lat="40.132576778437475" lon="15.20072014493165"><ele>77.0</ele><time>2026-04-25T17:47:29Z</time></trkpt><trkpt lat="40.132471276249056" lon="15.200764283312356"><ele>77.0</ele><time>2026-04-25T17:47:30Z</time></trkpt><trkpt lat="40.13237880765863" lon="15.200802207662486"><ele>77.0</ele><time>2026-04-25T17:47:31Z</time></trkpt><trkpt lat="40.13230681201011" lon="15.20081660380935"><ele>77.0</ele><time>2026-04-25T17:47:32Z</time></trkpt><trkpt lat="40.13223558428589" lon="15.20077444174334"><ele>77.0</ele><time>2026-04-25T17:47:33Z</time></trkpt><trkpt lat="40.132179923913775" lon="15.200688369444645"><ele>77.0</ele><time>2026-04-25T17:47:34Z</time></trkpt><trkpt lat="40.1321887167107" lon="15.200561402089178"><ele>89.75</ele><time>2026-04-25T17:47:35Z</time></trkpt><trkpt lat="40.132177808114236" lon="15.200407145744059"><ele>102.5</ele><time>2026-04-25T17:47:36Z</time></trkpt><trkpt lat="40.13218605962588" lon="15.200246169957914"><ele>115.25</ele><time>2026-04-25T17:47:37Z</time></trkpt><trkpt lat="40.13222285853413" lon="15.200109057656473"><ele>128.0</ele><time>2026-04-25T17:47:38Z</time></trkpt><trkpt lat="40.13229308755994" lon="15.199980239959837"><ele>126.33333333333333</ele><time>2026-04-25T17:47:39Z</time></trkpt><trkpt lat="40.13237470329999" lon="15.199813376778131"><ele>124.66666666666666</ele><time>2026-04-25T17:47:40Z</time></trkpt><trkpt lat="40.1324571793523" lon="15.199601179108988"><ele>123.0</ele><time>2026-04-25T17:47:41Z</time></trkpt><trkpt lat="40.13255237727317" lon="15.199396026055418"><ele>117.4</ele><time>2026-04-25T17:47:42Z</time></trkpt><trkpt lat="40.13263755212637" lon="15.199246436947842"><ele>111.80000000000001</ele><time>2026-04-25T17:47:43Z</time></trkpt><trkpt lat="40.132698506679255" lon="15.199104848207424"><ele>106.2</ele><time>2026-04-25T17:47:44Z</time></trkpt><trkpt lat="40.13272521400679" lon="15.198980006335782"><ele>100.6</ele><time>2026-04-25T17:47:45Z</time></trkpt><trkpt lat="40.132741160026185" lon="15.19888407962887"><ele>95.0</ele><time>2026-04-25T17:47:46Z</time></trkpt><trkpt lat="40.13271059727717" lon="15.198776057754143"><ele>95.75</ele><time>2026-04-25T17:47:47Z</time></trkpt><trkpt lat="40.132646443901194" lon="15.198687264913922"><ele>96.5</ele><time>2026-04-25T17:47:48Z</time></trkpt><trkpt lat="40.13253784113985" lon="15.19863860463004"><ele>97.25</ele><time>2026-04-25T17:47:49Z</time></trkpt><trkpt lat="40.13241073344872" lon="15.198617287532882"><ele>98.0</ele><time>2026-04-25T17:47:50Z</time></trkpt><trkpt lat="40.13226688415837" lon="15.198616880818294"><ele>98.0</ele><time>2026-04-25T17:47:51Z</time></trkpt><trkpt lat="40.13209867436972" lon="15.198621943278896"><ele>98.0</ele><time>2026-04-25T17:47:52Z</time></trkpt><trkpt lat="40.13191843905098" lon="15.198615188577742"><ele>98.0</ele><time>2026-04-25T17:47:53Z</time></trkpt><trkpt lat="40.131749660331565" lon="15.198609187499873"><ele>98.0</ele><time>2026-04-25T17:47:53.999Z</time></trkpt><trkpt lat="40.13159883934401" lon="15.198597382203905"><ele>98.0</ele><time>2026-04-25T17:47:54.999Z</time></trkpt><trkpt lat="40.131462438024485" lon="15.198566985001195"><ele>98.0</ele><time>2026-04-25T17:47:55.999Z</time></trkpt><trkpt lat="40.13131981793033" lon="15.198510946994865"><ele>98.0</ele><time>2026-04-25T17:47:56.999Z</time></trkpt><trkpt lat="40.131167432405746" lon="15.198396717770828"><ele>94.0</ele><time>2026-04-25T17:47:57.999Z</time></trkpt><trkpt lat="40.1310113563947" lon="15.198261752320857"><ele>90.0</ele><time>2026-04-25T17:47:58.999Z</time></trkpt><trkpt lat="40.13088400213309" lon="15.19816018022635"><ele>86.0</ele><time>2026-04-25T17:47:59.999Z</time></trkpt><trkpt lat="40.13077731498001" lon="15.198083308241992"><ele>90.0</ele><time>2026-04-25T17:48:00.999Z</time></trkpt><trkpt lat="40.13068104726853" lon="15.198015866859956"><ele>94.0</ele><time>2026-04-25T17:48:01.999Z</time></trkpt><trkpt lat="40.130568264636786" lon="15.19795799222961"><ele>98.0</ele><time>2026-04-25T17:48:02.999Z</time></trkpt><trkpt lat="40.13045475415749" lon="15.197942558751969"><ele>102.0</ele><time>2026-04-25T17:48:03.999Z</time></trkpt><trkpt lat="40.13034845869318" lon="15.197958764475484"><ele>102.0</ele><time>2026-04-25T17:48:04.999Z</time></trkpt><trkpt lat="40.13024432906586" lon="15.197974003947488"><ele>102.0</ele><time>2026-04-25T17:48:05.999Z</time></trkpt><trkpt lat="40.13014089899267" lon="15.197970998073341"><ele>102.0</ele><time>2026-04-25T17:48:06.999Z</time></trkpt><trkpt lat="40.13003662449252" lon="15.19796052630586"><ele>102.0</ele><time>2026-04-25T17:48:07.999Z</time></trkpt><trkpt lat="40.12993101100301" lon="15.197950325271286"><ele>102.0</ele><time>2026-04-25T17:48:08.999Z</time></trkpt><trkpt lat="40.12983169473264" lon="15.197937741319809"><ele>106.33333333333333</ele><time>2026-04-25T17:48:09.999Z</time></trkpt><trkpt lat="40.129744559977354" lon="15.197924115035322"><ele>110.66666666666666</ele><time>2026-04-25T17:48:10.999Z</time></trkpt><trkpt lat="40.12966978974466" lon="15.197901645640458"><ele>115.0</ele><time>2026-04-25T17:48:11.999Z</time></trkpt><trkpt lat="40.12960741130921" lon="15.19785779075482"><ele>119.33333333333333</ele><time>2026-04-25T17:48:12.999Z</time></trkpt><trkpt lat="40.12953370303146" lon="15.197794032762006"><ele>123.66666666666666</ele><time>2026-04-25T17:48:13.999Z</time></trkpt><trkpt lat="40.12945327479801" lon="15.197707929445762"><ele>128.0</ele><time>2026-04-25T17:48:14.999Z</time></trkpt><trkpt lat="40.12937160104818" lon="15.197590081869318"><ele>128.0</ele><time>2026-04-25T17:48:15.999Z</time></trkpt><trkpt lat="40.12927590092793" lon="15.197474749146341"><ele>128.0</ele><time>2026-04-25T17:48:16.999Z</time></trkpt><trkpt lat="40.129183344406044" lon="15.197377715638021"><ele>128.0</ele><time>2026-04-25T17:48:17.999Z</time></trkpt><trkpt lat="40.129104581360615" lon="15.197268992770045"><ele>128.0</ele><time>2026-04-25T17:48:18.999Z</time></trkpt><trkpt lat="40.12909068515145" lon="15.19712152677521"><ele>127.60000000000001</ele><time>2026-04-25T17:48:19.999Z</time></trkpt><trkpt lat="40.12905733035224" lon="15.196986255537364"><ele>127.20000000000002</ele><time>2026-04-25T17:48:20.999Z</time></trkpt><trkpt lat="40.12902607080573" lon="15.196821694236116"><ele>126.8</ele><time>2026-04-25T17:48:21.999Z</time></trkpt><trkpt lat="40.128995509326124" lon="15.196677860707961"><ele>126.4</ele><time>2026-04-25T17:48:22.999Z</time></trkpt><trkpt lat="40.12895245087341" lon="15.196566541856628"><ele>126.0</ele><time>2026-04-25T17:48:23.999Z</time></trkpt><trkpt lat="40.128884197069894" lon="15.19648720488717"><ele>119.6</ele><time>2026-04-25T17:48:24.999Z</time></trkpt><trkpt lat="40.128805085969915" lon="15.196439472780353"><ele>113.19999999999999</ele><time>2026-04-25T17:48:25.999Z</time></trkpt><trkpt lat="40.12871734306465" lon="15.196406806427062"><ele>106.80000000000001</ele><time>2026-04-25T17:48:26.999Z</time></trkpt><trkpt lat="40.12860626838914" lon="15.19640779402197"><ele>100.4</ele><time>2026-04-25T17:48:27.999Z</time></trkpt><trkpt lat="40.1284886573963" lon="15.196433260504236"><ele>94.0</ele><time>2026-04-25T17:48:28.999Z</time></trkpt><trkpt lat="40.12835721475545" lon="15.196461596006312"><ele>96.25</ele><time>2026-04-25T17:48:29.999Z</time></trkpt><trkpt lat="40.128220858168945" lon="15.196476169968712"><ele>98.5</ele><time>2026-04-25T17:48:30.999Z</time></trkpt><trkpt lat="40.128098505400025" lon="15.196494324714891"><ele>100.75</ele><time>2026-04-25T17:48:31.999Z</time></trkpt><trkpt lat="40.127979606414264" lon="15.19650655733077"><ele>103.0</ele><time>2026-04-25T17:48:32.999Z</time></trkpt><trkpt lat="40.12786367726229" lon="15.196489890278611"><ele>103.0</ele><time>2026-04-25T17:48:33.999Z</time></trkpt><trkpt lat="40.127772093204115" lon="15.196439840711744"><ele>103.0</ele><time>2026-04-25T17:48:34.999Z</time></trkpt><trkpt lat="40.12771264602872" lon="15.196371467669426"><ele>103.0</ele><time>2026-04-25T17:48:35.999Z</time></trkpt><trkpt lat="40.12766064643616" lon="15.196284659461055"><ele>103.0</ele><time>2026-04-25T17:48:36.999Z</time></trkpt><trkpt lat="40.12759284004618" lon="15.196187195904104"><ele>103.0</ele><time>2026-04-25T17:48:37.999Z</time></trkpt><trkpt lat="40.12751669618407" lon="15.19610122185146"><ele>103.00000000000001</ele><time>2026-04-25T17:48:38.999Z</time></trkpt><trkpt lat="40.127447255618435" lon="15.196036633843855"><ele>103.0</ele><time>2026-04-25T17:48:39.999Z</time></trkpt><trkpt lat="40.12737209443353" lon="15.195990010340834"><ele>103.0</ele><time>2026-04-25T17:48:40.999Z</time></trkpt><trkpt lat="40.12729247634138" lon="15.195975381840286"><ele>103.0</ele><time>2026-04-25T17:48:41.999Z</time></trkpt><trkpt lat="40.12720266708613" lon="15.196000258537103"><ele>103.00000000000001</ele><time>2026-04-25T17:48:42.999Z</time></trkpt><trkpt lat="40.12711000294894" lon="15.196047524567597"><ele>103.0</ele><time>2026-04-25T17:48:43.999Z</time></trkpt><trkpt lat="40.127009513887835" lon="15.196145583893255"><ele>102.4</ele><time>2026-04-25T17:48:44.999Z</time></trkpt><trkpt lat="40.12692396847779" lon="15.196259871364976"><ele>101.80000000000001</ele><time>2026-04-25T17:48:45.999Z</time></trkpt><trkpt lat="40.12686673486761" lon="15.19636011621136"><ele>101.2</ele><time>2026-04-25T17:48:46.999Z</time></trkpt><trkpt lat="40.126843143549436" lon="15.196458042327256"><ele>100.6</ele><time>2026-04-25T17:48:47.999Z</time></trkpt><trkpt lat="40.12683967949662" lon="15.196571226491983"><ele>100.0</ele><time>2026-04-25T17:48:48.999Z</time></trkpt><trkpt lat="40.12685067908745" lon="15.196714121721103"><ele>107.25</ele><time>2026-04-25T17:48:49.999Z</time></trkpt><trkpt lat="40.126865974710164" lon="15.196878718437146"><ele>114.5</ele><time>2026-04-25T17:48:50.999Z</time></trkpt><trkpt lat="40.126885278989526" lon="15.197047592777407"><ele>121.75</ele><time>2026-04-25T17:48:51.999Z</time></trkpt><trkpt lat="40.126901713717075" lon="15.19721704314577"><ele>129.0</ele><time>2026-04-25T17:48:52.999Z</time></trkpt><trkpt lat="40.12691158783262" lon="15.197399640022265"><ele>131.33333333333334</ele><time>2026-04-25T17:48:53.999Z</time></trkpt><trkpt lat="40.126924057336176" lon="15.197603330403787"><ele>133.66666666666669</ele><time>2026-04-25T17:48:54.999Z</time></trkpt><trkpt lat="40.12694130804367" lon="15.19780307130186"><ele>136.0</ele><time>2026-04-25T17:48:55.999Z</time></trkpt><trkpt lat="40.12694316192803" lon="15.19798965916621"><ele>136.0</ele><time>2026-04-25T17:48:56.999Z</time></trkpt><trkpt lat="40.1269556380893" lon="15.198151201874463"><ele>136.0</ele><time>2026-04-25T17:48:57.999Z</time></trkpt><trkpt lat="40.12696505631579" lon="15.198297530966814"><ele>136.0</ele><time>2026-04-25T17:48:58.999Z</time></trkpt><trkpt lat="40.12697875013526" lon="15.19845056219237"><ele>136.0</ele><time>2026-04-25T17:48:59.999Z</time></trkpt><trkpt lat="40.12698768341632" lon="15.198609232132037"><ele>135.75</ele><time>2026-04-25T17:49:00.999Z</time></trkpt><trkpt lat="40.12699409712904" lon="15.1987847213924"><ele>135.5</ele><time>2026-04-25T17:49:01.999Z</time></trkpt><trkpt lat="40.127009594537256" lon="15.198962991010262"><ele>135.25</ele><time>2026-04-25T17:49:02.999Z</time></trkpt><trkpt lat="40.12702495025609" lon="15.19912578661376"><ele>135.0</ele><time>2026-04-25T17:49:03.999Z</time></trkpt><trkpt lat="40.127031681398705" lon="15.1993140530616"><ele>134.75</ele><time>2026-04-25T17:49:04.999Z</time></trkpt><trkpt lat="40.12703107090392" lon="15.199519925683042"><ele>134.5</ele><time>2026-04-25T17:49:05.999Z</time></trkpt><trkpt lat="40.127022268100625" lon="15.199716508768349"><ele>134.25</ele><time>2026-04-25T17:49:06.999Z</time></trkpt><trkpt lat="40.127007641439455" lon="15.19989984200166"><ele>134.0</ele><time>2026-04-25T17:49:07.998Z</time></trkpt><trkpt lat="40.126997829076394" lon="15.200088484003144"><ele>135.25</ele><time>2026-04-25T17:49:08.998Z</time></trkpt><trkpt lat="40.12698952127304" lon="15.200271939872895"><ele>136.5</ele><time>2026-04-25T17:49:09.998Z</time></trkpt><trkpt lat="40.12697928007338" lon="15.20046973458802"><ele>137.75</ele><time>2026-04-25T17:49:10.998Z</time></trkpt><trkpt lat="40.12696598545186" lon="15.200661365982185"><ele>139.0</ele><time>2026-04-25T17:49:11.998Z</time></trkpt><trkpt lat="40.12695810700424" lon="15.200874473430645"><ele>140.25</ele><time>2026-04-25T17:49:13Z</time></trkpt><trkpt lat="40.126962798350334" lon="15.201074194121182"><ele>141.5</ele><time>2026-04-25T17:49:14Z</time></trkpt><trkpt lat="40.12697202420191" lon="15.201253272302452"><ele>142.75</ele><time>2026-04-25T17:49:15Z</time></trkpt><trkpt lat="40.12698579042591" lon="15.201434794976782"><ele>144.0</ele><time>2026-04-25T17:49:16Z</time></trkpt><trkpt lat="40.126998874839465" lon="15.201637733573373"><ele>144.0</ele><time>2026-04-25T17:49:17Z</time></trkpt><trkpt lat="40.12700222997696" lon="15.20186845969602"><ele>144.0</ele><time>2026-04-25T17:49:18Z</time></trkpt><trkpt lat="40.12698640939323" lon="15.202101995001179"><ele>144.0</ele><time>2026-04-25T17:49:19Z</time></trkpt><trkpt lat="40.1269577283106" lon="15.202310077521181"><ele>145.25</ele><time>2026-04-25T17:49:20Z</time></trkpt><trkpt lat="40.12692200052387" lon="15.202480158327159"><ele>146.5</ele><time>2026-04-25T17:49:21Z</time></trkpt><trkpt lat="40.12689565175429" lon="15.202638393719951"><ele>147.75</ele><time>2026-04-25T17:49:22Z</time></trkpt><trkpt lat="40.12689336958144" lon="15.202807994400509"><ele>149.0</ele><time>2026-04-25T17:49:23Z</time></trkpt><trkpt lat="40.126908282077856" lon="15.203004855070017"><ele>148.25</ele><time>2026-04-25T17:49:24Z</time></trkpt><trkpt lat="40.126965798772645" lon="15.203196110096256"><ele>147.5</ele><time>2026-04-25T17:49:25Z</time></trkpt><trkpt lat="40.127011603793406" lon="15.203378754264422"><ele>146.75</ele><time>2026-04-25T17:49:26Z</time></trkpt><trkpt lat="40.127012251979174" lon="15.203552324977192"><ele>146.0</ele><time>2026-04-25T17:49:27Z</time></trkpt><trkpt lat="40.12699516192162" lon="15.20374625695089"><ele>146.0</ele><time>2026-04-25T17:49:28Z</time></trkpt><trkpt lat="40.126977406540306" lon="15.203943121427214"><ele>146.0</ele><time>2026-04-25T17:49:29Z</time></trkpt><trkpt lat="40.12696086889662" lon="15.204116878356203"><ele>146.0</ele><time>2026-04-25T17:49:30Z</time></trkpt><trkpt lat="40.1269526783039" lon="15.204283284847955"><ele>146.0</ele><time>2026-04-25T17:49:31Z</time></trkpt><trkpt lat="40.12694535541706" lon="15.204474777809033"><ele>146.33333333333331</ele><time>2026-04-25T17:49:32Z</time></trkpt><trkpt lat="40.12696100892011" lon="15.204693580105083"><ele>146.66666666666666</ele><time>2026-04-25T17:49:33Z</time></trkpt><trkpt lat="40.12698462138333" lon="15.20494036427256"><ele>147.0</ele><time>2026-04-25T17:49:34Z</time></trkpt><trkpt lat="40.12698700493985" lon="15.205173410131657"><ele>149.0</ele><time>2026-04-25T17:49:35Z</time></trkpt><trkpt lat="40.126997873947545" lon="15.20543086301672"><ele>151.0</ele><time>2026-04-25T17:49:36Z</time></trkpt><trkpt lat="40.12697456348057" lon="15.205676624873282"><ele>153.0</ele><time>2026-04-25T17:49:37Z</time></trkpt><trkpt lat="40.126931285566016" lon="15.20594964117989"><ele>153.0</ele><time>2026-04-25T17:49:38Z</time></trkpt><trkpt lat="40.12689517054898" lon="15.206210079048157"><ele>153.0</ele><time>2026-04-25T17:49:39Z</time></trkpt><trkpt lat="40.126866635694086" lon="15.206448819891056"><ele>153.0</ele><time>2026-04-25T17:49:40Z</time></trkpt><trkpt lat="40.126840723652535" lon="15.206656852263498"><ele>156.0</ele><time>2026-04-25T17:49:41Z</time></trkpt><trkpt lat="40.12681481773636" lon="15.206848649714372"><ele>159.0</ele><time>2026-04-25T17:49:42Z</time></trkpt><trkpt lat="40.1267750781732" lon="15.207027563309405"><ele>162.0</ele><time>2026-04-25T17:49:43Z</time></trkpt><trkpt lat="40.126709158000985" lon="15.207228248176769"><ele>167.33333333333334</ele><time>2026-04-25T17:49:44Z</time></trkpt><trkpt lat="40.12662606142251" lon="15.207435031852722"><ele>172.66666666666669</ele><time>2026-04-25T17:49:45Z</time></trkpt><trkpt lat="40.1265476639337" lon="15.207621964351016"><ele>178.0</ele><time>2026-04-25T17:49:46Z</time></trkpt><trkpt lat="40.126472574907005" lon="15.20778928273587"><ele>172.75</ele><time>2026-04-25T17:49:47Z</time></trkpt><trkpt lat="40.12639744472035" lon="15.20792316221232"><ele>167.5</ele><time>2026-04-25T17:49:48Z</time></trkpt><trkpt lat="40.12631386284498" lon="15.20802312673244"><ele>162.25</ele><time>2026-04-25T17:49:49Z</time></trkpt><trkpt lat="40.12619498477684" lon="15.20814343110895"><ele>157.0</ele><time>2026-04-25T17:49:50Z</time></trkpt><trkpt lat="40.126082764246185" lon="15.208254313974786"><ele>157.0</ele><time>2026-04-25T17:49:51Z</time></trkpt><trkpt lat="40.12599997544241" lon="15.208399189330642"><ele>157.0</ele><time>2026-04-25T17:49:52Z</time></trkpt><trkpt lat="40.12592493467415" lon="15.208518424320816"><ele>157.0</ele><time>2026-04-25T17:49:53Z</time></trkpt><trkpt lat="40.12590307413332" lon="15.208641956473688"><ele>157.0</ele><time>2026-04-25T17:49:54Z</time></trkpt><trkpt lat="40.12587462505934" lon="15.208772377527916"><ele>157.0</ele><time>2026-04-25T17:49:55Z</time></trkpt><trkpt lat="40.125861871969576" lon="15.208955383766076"><ele>157.0</ele><time>2026-04-25T17:49:55.999Z</time></trkpt><trkpt lat="40.12583976919713" lon="15.209145329126422"><ele>157.0</ele><time>2026-04-25T17:49:56.999Z</time></trkpt><trkpt lat="40.12581716931423" lon="15.209331976915674"><ele>157.0</ele><time>2026-04-25T17:49:57.999Z</time></trkpt><trkpt lat="40.1257885559721" lon="15.209520145870577"><ele>161.25</ele><time>2026-04-25T17:49:58.999Z</time></trkpt><trkpt lat="40.12576327275011" lon="15.209702852465446"><ele>165.5</ele><time>2026-04-25T17:49:59.999Z</time></trkpt><trkpt lat="40.125734093691015" lon="15.209884714160935"><ele>169.75</ele><time>2026-04-25T17:50:00.999Z</time></trkpt><trkpt lat="40.12569841780097" lon="15.210090515649656"><ele>174.0</ele><time>2026-04-25T17:50:01.999Z</time></trkpt><trkpt lat="40.12565194447441" lon="15.210303349445054"><ele>167.33333333333334</ele><time>2026-04-25T17:50:02.999Z</time></trkpt><trkpt lat="40.12559426202467" lon="15.210512583161556"><ele>160.66666666666669</ele><time>2026-04-25T17:50:03.999Z</time></trkpt><trkpt lat="40.125531127376625" lon="15.21072510789893"><ele>154.0</ele><time>2026-04-25T17:50:04.999Z</time></trkpt><trkpt lat="40.12544825872866" lon="15.210921771934068"><ele>154.0</ele><time>2026-04-25T17:50:05.999Z</time></trkpt><trkpt lat="40.12534133793483" lon="15.211116050262566"><ele>154.0</ele><time>2026-04-25T17:50:06.999Z</time></trkpt><trkpt lat="40.125221520430365" lon="15.211310116462514"><ele>154.0</ele><time>2026-04-25T17:50:07.999Z</time></trkpt><trkpt lat="40.12509491593896" lon="15.211512159064009"><ele>153.25</ele><time>2026-04-25T17:50:08.999Z</time></trkpt><trkpt lat="40.12498166616837" lon="15.21170078712205"><ele>152.5</ele><time>2026-04-25T17:50:09.999Z</time></trkpt><trkpt lat="40.12489140168472" lon="15.211853716705912"><ele>151.75</ele><time>2026-04-25T17:50:10.999Z</time></trkpt><trkpt lat="40.12482115455282" lon="15.211976577266181"><ele>151.0</ele><time>2026-04-25T17:50:11.999Z</time></trkpt><trkpt lat="40.124774320407255" lon="15.212097321211083"><ele>151.0</ele><time>2026-04-25T17:50:12.999Z</time></trkpt><trkpt lat="40.12477775658096" lon="15.212253157861724"><ele>151.0</ele><time>2026-04-25T17:50:13.999Z</time></trkpt><trkpt lat="40.12476691433783" lon="15.212456566936513"><ele>151.0</ele><time>2026-04-25T17:50:14.999Z</time></trkpt><trkpt lat="40.124768428345796" lon="15.212641910406647"><ele>151.0</ele><time>2026-04-25T17:50:15.999Z</time></trkpt><trkpt lat="40.12476815002266" lon="15.212796397793904"><ele>156.25</ele><time>2026-04-25T17:50:16.999Z</time></trkpt><trkpt lat="40.124769837087314" lon="15.21293713070724"><ele>161.5</ele><time>2026-04-25T17:50:17.999Z</time></trkpt><trkpt lat="40.12472731556821" lon="15.213075026067061"><ele>166.75</ele><time>2026-04-25T17:50:18.999Z</time></trkpt><trkpt lat="40.124657065764566" lon="15.213213284809292"><ele>172.0</ele><time>2026-04-25T17:50:19.999Z</time></trkpt><trkpt lat="40.12458637737103" lon="15.213329362861415"><ele>174.39999999999998</ele><time>2026-04-25T17:50:20.999Z</time></trkpt><trkpt lat="40.124511709703874" lon="15.213414787365918"><ele>176.79999999999998</ele><time>2026-04-25T17:50:21.999Z</time></trkpt><trkpt lat="40.124432319030674" lon="15.213461492529541"><ele>179.2</ele><time>2026-04-25T17:50:22.999Z</time></trkpt><trkpt lat="40.12434545065903" lon="15.21345910906282"><ele>181.6</ele><time>2026-04-25T17:50:23.999Z</time></trkpt><trkpt lat="40.12424825832916" lon="15.21339855384996"><ele>184.0</ele><time>2026-04-25T17:50:24.999Z</time></trkpt><trkpt lat="40.124155939880346" lon="15.213325937044702"><ele>184.0</ele><time>2026-04-25T17:50:25.999Z</time></trkpt><trkpt lat="40.124066960213625" lon="15.213276394822854"><ele>184.0</ele><time>2026-04-25T17:50:26.999Z</time></trkpt><trkpt lat="40.12398697963" lon="15.213242273880182"><ele>184.0</ele><time>2026-04-25T17:50:27.999Z</time></trkpt><trkpt lat="40.12390849699513" lon="15.21322693077619"><ele>184.0</ele><time>2026-04-25T17:50:28.999Z</time></trkpt><trkpt lat="40.12382216768653" lon="15.213276620958831"><ele>184.0</ele><time>2026-04-25T17:50:29.999Z</time></trkpt><trkpt lat="40.12373617663804" lon="15.213392469853613"><ele>181.0</ele><time>2026-04-25T17:50:30.999Z</time></trkpt><trkpt lat="40.123648081326806" lon="15.213538792114017"><ele>178.0</ele><time>2026-04-25T17:50:31.999Z</time></trkpt><trkpt lat="40.123532152719534" lon="15.213711087465956"><ele>175.0</ele><time>2026-04-25T17:50:32.999Z</time></trkpt><trkpt lat="40.12338768763873" lon="15.21389066768224"><ele>173.33333333333334</ele><time>2026-04-25T17:50:33.999Z</time></trkpt><trkpt lat="40.12325359300709" lon="15.214045920863397"><ele>171.66666666666666</ele><time>2026-04-25T17:50:34.999Z</time></trkpt><trkpt lat="40.123115896232314" lon="15.21420083842479"><ele>170.0</ele><time>2026-04-25T17:50:35.999Z</time></trkpt><trkpt lat="40.12298283697938" lon="15.214345341259508"><ele>170.0</ele><time>2026-04-25T17:50:36.999Z</time></trkpt><trkpt lat="40.122846725378125" lon="15.214476182840826"><ele>170.0</ele><time>2026-04-25T17:50:37.999Z</time></trkpt><trkpt lat="40.12271435625409" lon="15.214596460424854"><ele>170.0</ele><time>2026-04-25T17:50:38.999Z</time></trkpt><trkpt lat="40.12258120932192" lon="15.214713552558031"><ele>170.0</ele><time>2026-04-25T17:50:39.999Z</time></trkpt><trkpt lat="40.122451884853255" lon="15.21480821319666"><ele>170.0</ele><time>2026-04-25T17:50:40.999Z</time></trkpt><trkpt lat="40.122329391213086" lon="15.214907014217747"><ele>170.0</ele><time>2026-04-25T17:50:41.999Z</time></trkpt><trkpt lat="40.12221957940933" lon="15.215001493201784"><ele>170.0</ele><time>2026-04-25T17:50:42.999Z</time></trkpt><trkpt lat="40.12211701768824" lon="15.215092939462874"><ele>167.75</ele><time>2026-04-25T17:50:43.999Z</time></trkpt><trkpt lat="40.12203052510342" lon="15.215196427146564"><ele>165.5</ele><time>2026-04-25T17:50:44.999Z</time></trkpt><trkpt lat="40.12194660331685" lon="15.21532353429941"><ele>163.25</ele><time>2026-04-25T17:50:45.999Z</time></trkpt><trkpt lat="40.12187300204878" lon="15.21549410025924"><ele>161.0</ele><time>2026-04-25T17:50:46.999Z</time></trkpt><trkpt lat="40.12180976543888" lon="15.215697418150116"><ele>156.33333333333331</ele><time>2026-04-25T17:50:47.999Z</time></trkpt><trkpt lat="40.121732956109355" lon="15.215885606515846"><ele>151.66666666666666</ele><time>2026-04-25T17:50:48.999Z</time></trkpt><trkpt lat="40.121629548882815" lon="15.216048617927363"><ele>147.0</ele><time>2026-04-25T17:50:49.999Z</time></trkpt><trkpt lat="40.121500447848256" lon="15.21618152003335"><ele>147.0</ele><time>2026-04-25T17:50:50.999Z</time></trkpt><trkpt lat="40.12138622063696" lon="15.216311596892714"><ele>147.0</ele><time>2026-04-25T17:50:51.999Z</time></trkpt><trkpt lat="40.12131133723011" lon="15.21645415964545"><ele>147.0</ele><time>2026-04-25T17:50:52.999Z</time></trkpt><trkpt lat="40.12124277019485" lon="15.216610164391009"><ele>147.0</ele><time>2026-04-25T17:50:53.999Z</time></trkpt><trkpt lat="40.12116914471662" lon="15.21675950328381"><ele>152.75</ele><time>2026-04-25T17:50:54.999Z</time></trkpt><trkpt lat="40.12109601715084" lon="15.216891013616973"><ele>158.5</ele><time>2026-04-25T17:50:55.999Z</time></trkpt><trkpt lat="40.12102623609477" lon="15.217024724437632"><ele>164.25</ele><time>2026-04-25T17:50:56.999Z</time></trkpt><trkpt lat="40.12095962794592" lon="15.217164538232826"><ele>170.0</ele><time>2026-04-25T17:50:57.999Z</time></trkpt><trkpt lat="40.12087910856066" lon="15.21731049786739"><ele>169.5</ele><time>2026-04-25T17:50:58.999Z</time></trkpt><trkpt lat="40.120778466220266" lon="15.217447352597372"><ele>169.0</ele><time>2026-04-25T17:50:59.999Z</time></trkpt><trkpt lat="40.12066392616433" lon="15.21756981180744"><ele>168.5</ele><time>2026-04-25T17:51:00.999Z</time></trkpt><trkpt lat="40.12054862328179" lon="15.217693585280871"><ele>168.0</ele><time>2026-04-25T17:51:01.999Z</time></trkpt><trkpt lat="40.120427729430844" lon="15.217819060508628"><ele>168.0</ele><time>2026-04-25T17:51:02.999Z</time></trkpt><trkpt lat="40.1202960714232" lon="15.217947353451894"><ele>168.0</ele><time>2026-04-25T17:51:03.999Z</time></trkpt><trkpt lat="40.12016330545009" lon="15.218076023520293"><ele>168.0</ele><time>2026-04-25T17:51:04.999Z</time></trkpt><trkpt lat="40.12003833871781" lon="15.218211494133064"><ele>168.5</ele><time>2026-04-25T17:51:05.999Z</time></trkpt><trkpt lat="40.119928006277746" lon="15.218346472010785"><ele>169.0</ele><time>2026-04-25T17:51:06.999Z</time></trkpt><trkpt lat="40.11983017341534" lon="15.218468890063411"><ele>169.5</ele><time>2026-04-25T17:51:07.999Z</time></trkpt><trkpt lat="40.11973465544189" lon="15.218579432628637"><ele>170.0</ele><time>2026-04-25T17:51:08.999Z</time></trkpt><trkpt lat="40.119644520418504" lon="15.21868015626597"><ele>170.0</ele><time>2026-04-25T17:51:09.998Z</time></trkpt><trkpt lat="40.11954291526696" lon="15.21878687164456"><ele>170.0</ele><time>2026-04-25T17:51:10.998Z</time></trkpt><trkpt lat="40.11942085580211" lon="15.218876102478058"><ele>170.0</ele><time>2026-04-25T17:51:11.998Z</time></trkpt><trkpt lat="40.11928550793589" lon="15.218948265752097"><ele>170.0</ele><time>2026-04-25T17:51:12.998Z</time></trkpt><trkpt lat="40.1191459471162" lon="15.219028558003663"><ele>172.0</ele><time>2026-04-25T17:51:13.998Z</time></trkpt><trkpt lat="40.11900487485356" lon="15.21911810695098"><ele>174.0</ele><time>2026-04-25T17:51:14.998Z</time></trkpt><trkpt lat="40.118865221909594" lon="15.219201873644439"><ele>176.0</ele><time>2026-04-25T17:51:15.998Z</time></trkpt><trkpt lat="40.11873631670042" lon="15.219273803402249"><ele>176.0</ele><time>2026-04-25T17:51:16.998Z</time></trkpt><trkpt lat="40.118615927786365" lon="15.219351970371036"><ele>176.0</ele><time>2026-04-25T17:51:17.998Z</time></trkpt><trkpt lat="40.118497500522466" lon="15.219447770050506"><ele>176.0</ele><time>2026-04-25T17:51:19Z</time></trkpt><trkpt lat="40.118384666416524" lon="15.219550820386631"><ele>176.0</ele><time>2026-04-25T17:51:20Z</time></trkpt><trkpt lat="40.11828271638677" lon="15.219647885758377"><ele>175.5</ele><time>2026-04-25T17:51:21Z</time></trkpt><trkpt lat="40.1181951075635" lon="15.219730932376185"><ele>175.0</ele><time>2026-04-25T17:51:22Z</time></trkpt><trkpt lat="40.118118388106055" lon="15.219836048980493"><ele>174.5</ele><time>2026-04-25T17:51:23Z</time></trkpt><trkpt lat="40.11806140401309" lon="15.219980207090945"><ele>174.0</ele><time>2026-04-25T17:51:24Z</time></trkpt><trkpt lat="40.118015851469096" lon="15.220149456545233"><ele>174.0</ele><time>2026-04-25T17:51:25Z</time></trkpt><trkpt lat="40.11795457208255" lon="15.220317726600744"><ele>174.0</ele><time>2026-04-25T17:51:26Z</time></trkpt><trkpt lat="40.117861315775976" lon="15.220470012655849"><ele>174.0</ele><time>2026-04-25T17:51:27Z</time></trkpt><trkpt lat="40.11776308515651" lon="15.220606589148105"><ele>174.0</ele><time>2026-04-25T17:51:28Z</time></trkpt><trkpt lat="40.1176626432226" lon="15.220743235877501"><ele>174.33333333333334</ele><time>2026-04-25T17:51:29Z</time></trkpt><trkpt lat="40.11755766244633" lon="15.220884534763593"><ele>174.66666666666669</ele><time>2026-04-25T17:51:30Z</time></trkpt><trkpt lat="40.11744505446652" lon="15.221020083507433"><ele>175.0</ele><time>2026-04-25T17:51:31Z</time></trkpt><trkpt lat="40.11732607288717" lon="15.221144502440923"><ele>175.0</ele><time>2026-04-25T17:51:32Z</time></trkpt><trkpt lat="40.11720283062792" lon="15.221240582301988"><ele>175.0</ele><time>2026-04-25T17:51:33Z</time></trkpt><trkpt lat="40.11709023784335" lon="15.221307953025846"><ele>175.0</ele><time>2026-04-25T17:51:34Z</time></trkpt><trkpt lat="40.1169929020428" lon="15.22139011372481"><ele>175.0</ele><time>2026-04-25T17:51:35Z</time></trkpt><trkpt lat="40.11689809849332" lon="15.221520584698792"><ele>176.4</ele><time>2026-04-25T17:51:36Z</time></trkpt><trkpt lat="40.11682966415885" lon="15.221667765981278"><ele>177.8</ele><time>2026-04-25T17:51:37Z</time></trkpt><trkpt lat="40.11677353896886" lon="15.221791397000468"><ele>179.2</ele><time>2026-04-25T17:51:38Z</time></trkpt><trkpt lat="40.11671098994241" lon="15.22187353425639"><ele>180.6</ele><time>2026-04-25T17:51:39Z</time></trkpt><trkpt lat="40.11662963310799" lon="15.221922016774025"><ele>182.0</ele><time>2026-04-25T17:51:40Z</time></trkpt><trkpt lat="40.11651109392205" lon="15.221921630369"><ele>182.0</ele><time>2026-04-25T17:51:41Z</time></trkpt><trkpt lat="40.116362057721446" lon="15.221890072607636"><ele>182.0</ele><time>2026-04-25T17:51:42Z</time></trkpt><trkpt lat="40.11619475270138" lon="15.221835432458587"><ele>182.0</ele><time>2026-04-25T17:51:43Z</time></trkpt><trkpt lat="40.11603561059868" lon="15.22179788877264"><ele>182.0</ele><time>2026-04-25T17:51:44Z</time></trkpt><trkpt lat="40.1159060880815" lon="15.221785245963478"><ele>182.0</ele><time>2026-04-25T17:51:45Z</time></trkpt><trkpt lat="40.11580022194177" lon="15.221773673079502"><ele>182.0</ele><time>2026-04-25T17:51:46Z</time></trkpt><trkpt lat="40.11571191016346" lon="15.221778178460976"><ele>182.0</ele><time>2026-04-25T17:51:47Z</time></trkpt><trkpt lat="40.11563101106818" lon="15.221828641377607"><ele>182.0</ele><time>2026-04-25T17:51:48Z</time></trkpt><trkpt lat="40.115560463689555" lon="15.22192129325687"><ele>181.5</ele><time>2026-04-25T17:51:49Z</time></trkpt><trkpt lat="40.11550779474819" lon="15.2220545903286"><ele>181.0</ele><time>2026-04-25T17:51:50Z</time></trkpt><trkpt lat="40.11546335709744" lon="15.222233242662341"><ele>180.5</ele><time>2026-04-25T17:51:51Z</time></trkpt><trkpt lat="40.11540831570891" lon="15.22240410339891"><ele>180.0</ele><time>2026-04-25T17:51:52Z</time></trkpt><trkpt lat="40.11534269380411" lon="15.22255691674802"><ele>180.0</ele><time>2026-04-25T17:51:53Z</time></trkpt><trkpt lat="40.11526607627548" lon="15.22269681080365"><ele>180.0</ele><time>2026-04-25T17:51:54Z</time></trkpt><trkpt lat="40.11517550208724" lon="15.22285251840935"><ele>180.0</ele><time>2026-04-25T17:51:55Z</time></trkpt><trkpt lat="40.11508105477358" lon="15.223027784069632"><ele>180.0</ele><time>2026-04-25T17:51:56Z</time></trkpt><trkpt lat="40.11499040976691" lon="15.22317527267208"><ele>177.0</ele><time>2026-04-25T17:51:57Z</time></trkpt><trkpt lat="40.11488184481574" lon="15.223311714128052"><ele>174.0</ele><time>2026-04-25T17:51:58Z</time></trkpt><trkpt lat="40.11476631174782" lon="15.223466144464016"><ele>171.0</ele><time>2026-04-25T17:51:59Z</time></trkpt><trkpt lat="40.11466754403281" lon="15.223624528505159"><ele>171.0</ele><time>2026-04-25T17:51:59.999Z</time></trkpt><trkpt lat="40.11458545657618" lon="15.223789763477322"><ele>171.0</ele><time>2026-04-25T17:52:00.999Z</time></trkpt><trkpt lat="40.11450969749776" lon="15.223943592033827"><ele>171.0</ele><time>2026-04-25T17:52:01.999Z</time></trkpt><trkpt lat="40.11441092957277" lon="15.224112009486769"><ele>175.33333333333334</ele><time>2026-04-25T17:52:02.999Z</time></trkpt><trkpt lat="40.11428739163059" lon="15.224302066531271"><ele>179.66666666666669</ele><time>2026-04-25T17:52:03.999Z</time></trkpt><trkpt lat="40.114179454060604" lon="15.224485438058878"><ele>184.0</ele><time>2026-04-25T17:52:04.999Z</time></trkpt><trkpt lat="40.114090830171776" lon="15.224684302013769"><ele>181.33333333333334</ele><time>2026-04-25T17:52:05.999Z</time></trkpt><trkpt lat="40.11401167229175" lon="15.22489953298048"><ele>178.66666666666666</ele><time>2026-04-25T17:52:06.999Z</time></trkpt><trkpt lat="40.113934587841534" lon="15.225113366291325"><ele>176.0</ele><time>2026-04-25T17:52:07.999Z</time></trkpt><trkpt lat="40.11385369599867" lon="15.225291900153287"><ele>176.0</ele><time>2026-04-25T17:52:08.999Z</time></trkpt><trkpt lat="40.1137718470901" lon="15.225444633800757"><ele>176.0</ele><time>2026-04-25T17:52:09.999Z</time></trkpt><trkpt lat="40.11368740009126" lon="15.225578956576314"><ele>176.0</ele><time>2026-04-25T17:52:10.999Z</time></trkpt><trkpt lat="40.11358806870642" lon="15.2256990740091"><ele>176.0</ele><time>2026-04-25T17:52:11.999Z</time></trkpt><trkpt lat="40.11347363163641" lon="15.225794721015733"><ele>181.25</ele><time>2026-04-25T17:52:12.999Z</time></trkpt><trkpt lat="40.11335419439579" lon="15.225861005584363"><ele>186.5</ele><time>2026-04-25T17:52:13.999Z</time></trkpt><trkpt lat="40.11323454442915" lon="15.225904600862949"><ele>191.75</ele><time>2026-04-25T17:52:14.999Z</time></trkpt><trkpt lat="40.11310341504556" lon="15.225932596669804"><ele>197.0</ele><time>2026-04-25T17:52:15.999Z</time></trkpt><trkpt lat="40.112964302740316" lon="15.225927750617409"><ele>198.33333333333334</ele><time>2026-04-25T17:52:16.999Z</time></trkpt><trkpt lat="40.112817900660794" lon="15.225883429063524"><ele>199.66666666666669</ele><time>2026-04-25T17:52:17.999Z</time></trkpt><trkpt lat="40.112676362531055" lon="15.225825280137741"><ele>201.0</ele><time>2026-04-25T17:52:18.999Z</time></trkpt><trkpt lat="40.11252492433833" lon="15.225780656219433"><ele>200.5</ele><time>2026-04-25T17:52:19.999Z</time></trkpt><trkpt lat="40.112382860238526" lon="15.225750719213883"><ele>200.0</ele><time>2026-04-25T17:52:20.999Z</time></trkpt><trkpt lat="40.112257876245984" lon="15.22570614261848"><ele>199.5</ele><time>2026-04-25T17:52:21.999Z</time></trkpt><trkpt lat="40.112151319416284" lon="15.225645832299703"><ele>199.0</ele><time>2026-04-25T17:52:22.999Z</time></trkpt><trkpt lat="40.11204332199792" lon="15.225562626724019"><ele>196.0</ele><time>2026-04-25T17:52:23.999Z</time></trkpt><trkpt lat="40.11193824846418" lon="15.225463791324621"><ele>193.0</ele><time>2026-04-25T17:52:24.999Z</time></trkpt><trkpt lat="40.111834269863365" lon="15.225365952034522"><ele>190.0</ele><time>2026-04-25T17:52:25.999Z</time></trkpt><trkpt lat="40.11173792568594" lon="15.225305620348863"><ele>187.0</ele><time>2026-04-25T17:52:26.999Z</time></trkpt><trkpt lat="40.11165363922547" lon="15.2252860841889"><ele>187.0</ele><time>2026-04-25T17:52:27.999Z</time></trkpt><trkpt lat="40.111580499942676" lon="15.22529523662595"><ele>187.0</ele><time>2026-04-25T17:52:28.999Z</time></trkpt><trkpt lat="40.11147692934736" lon="15.225365908047172"><ele>187.0</ele><time>2026-04-25T17:52:30.999Z</time></trkpt><trkpt lat="40.11144845185632" lon="15.225445910175035"><ele>187.0</ele><time>2026-04-25T17:52:31.999Z</time></trkpt><trkpt lat="40.111440333558804" lon="15.22556762696031"><ele>187.0</ele><time>2026-04-25T17:52:32.999Z</time></trkpt><trkpt lat="40.11145099596144" lon="15.225711170826232"><ele>189.39999999999998</ele><time>2026-04-25T17:52:33.999Z</time></trkpt><trkpt lat="40.11147229596917" lon="15.225845495661234"><ele>191.79999999999998</ele><time>2026-04-25T17:52:34.999Z</time></trkpt><trkpt lat="40.1115160659838" lon="15.225975315569169"><ele>194.2</ele><time>2026-04-25T17:52:35.999Z</time></trkpt><trkpt lat="40.11153794806597" lon="15.226110665953158"><ele>196.6</ele><time>2026-04-25T17:52:36.999Z</time></trkpt><trkpt lat="40.111565509333104" lon="15.2262307590419"><ele>199.0</ele><time>2026-04-25T17:52:37.999Z</time></trkpt><trkpt lat="40.111598037443535" lon="15.226343461521079"><ele>198.99999999999997</ele><time>2026-04-25T17:52:38.999Z</time></trkpt><trkpt lat="40.11160614286903" lon="15.226455012593018"><ele>199.0</ele><time>2026-04-25T17:52:39.999Z</time></trkpt><trkpt lat="40.11160977399987" lon="15.22655792556544"><ele>199.0</ele><time>2026-04-25T17:52:40.999Z</time></trkpt><trkpt lat="40.11161373639701" lon="15.226652269778265"><ele>199.0</ele><time>2026-04-25T17:52:41.999Z</time></trkpt><trkpt lat="40.11161517387829" lon="15.226738893005603"><ele>199.0</ele><time>2026-04-25T17:52:42.999Z</time></trkpt><trkpt lat="40.11160559644383" lon="15.226821654386187"><ele>198.99999999999997</ele><time>2026-04-25T17:52:43.999Z</time></trkpt><trkpt lat="40.11156451280536" lon="15.226913388344876"><ele>199.0</ele><time>2026-04-25T17:52:44.999Z</time></trkpt><trkpt lat="40.111491870811534" lon="15.226983912694136"><ele>191.0</ele><time>2026-04-25T17:52:45.999Z</time></trkpt><trkpt lat="40.11137990083879" lon="15.22704674016212"><ele>183.0</ele><time>2026-04-25T17:52:46.999Z</time></trkpt><trkpt lat="40.111237803297634" lon="15.227128230807315"><ele>175.0</ele><time>2026-04-25T17:52:47.999Z</time></trkpt><trkpt lat="40.111059526371825" lon="15.227203896491602"><ele>175.0</ele><time>2026-04-25T17:52:48.999Z</time></trkpt><trkpt lat="40.11089165695538" lon="15.227242974120344"><ele>175.0</ele><time>2026-04-25T17:52:49.999Z</time></trkpt><trkpt lat="40.11075810898278" lon="15.227278560466212"><ele>175.0</ele><time>2026-04-25T17:52:50.999Z</time></trkpt><trkpt lat="40.11063955661404" lon="15.227318705602643"><ele>175.0</ele><time>2026-04-25T17:52:51.999Z</time></trkpt><trkpt lat="40.110529046322796" lon="15.227357457222997"><ele>178.25</ele><time>2026-04-25T17:52:52.999Z</time></trkpt><trkpt lat="40.11041394490521" lon="15.227421005571877"><ele>181.5</ele><time>2026-04-25T17:52:53.999Z</time></trkpt><trkpt lat="40.110295664124344" lon="15.227536860591073"><ele>184.75</ele><time>2026-04-25T17:52:54.999Z</time></trkpt><trkpt lat="40.11019081717132" lon="15.227693557192644"><ele>188.0</ele><time>2026-04-25T17:52:55.999Z</time></trkpt><trkpt lat="40.11007722693679" lon="15.227808516245661"><ele>188.0</ele><time>2026-04-25T17:52:56.999Z</time></trkpt><trkpt lat="40.10995752980761" lon="15.227881188341437"><ele>188.0</ele><time>2026-04-25T17:52:57.999Z</time></trkpt><trkpt lat="40.10985280535697" lon="15.227921340521798"><ele>188.0</ele><time>2026-04-25T17:52:58.999Z</time></trkpt><trkpt lat="40.10975804272282" lon="15.228011595312866"><ele>188.0</ele><time>2026-04-25T17:52:59.999Z</time></trkpt><trkpt lat="40.10967802681692" lon="15.228180717850647"><ele>185.0</ele><time>2026-04-25T17:53:00.999Z</time></trkpt><trkpt lat="40.109626294377954" lon="15.228354480020279"><ele>182.0</ele><time>2026-04-25T17:53:01.999Z</time></trkpt><trkpt lat="40.10958485057721" lon="15.22849854814504"><ele>179.0</ele><time>2026-04-25T17:53:02.999Z</time></trkpt><trkpt lat="40.10951576194997" lon="15.228618753617795"><ele>176.0</ele><time>2026-04-25T17:53:03.999Z</time></trkpt><trkpt lat="40.10941778248007" lon="15.228735044829818"><ele>176.0</ele><time>2026-04-25T17:53:04.999Z</time></trkpt><trkpt lat="40.10928759516015" lon="15.228825719483304"><ele>176.0</ele><time>2026-04-25T17:53:05.999Z</time></trkpt><trkpt lat="40.10915273983088" lon="15.228879036482407"><ele>176.0</ele><time>2026-04-25T17:53:06.999Z</time></trkpt><trkpt lat="40.1090265281387" lon="15.228929077446336"><ele>176.0</ele><time>2026-04-25T17:53:07.999Z</time></trkpt><trkpt lat="40.108915213649446" lon="15.228979287066926"><ele>175.16666666666666</ele><time>2026-04-25T17:53:08.999Z</time></trkpt><trkpt lat="40.108820166200125" lon="15.229027172522619"><ele>174.33333333333331</ele><time>2026-04-25T17:53:09.999Z</time></trkpt><trkpt lat="40.10874435776686" lon="15.229072839166651"><ele>173.5</ele><time>2026-04-25T17:53:10.999Z</time></trkpt><trkpt lat="40.10868430021067" lon="15.229129797752607"><ele>172.66666666666666</ele><time>2026-04-25T17:53:11.999Z</time></trkpt><trkpt lat="40.10865451588446" lon="15.22920835018717"><ele>171.83333333333334</ele><time>2026-04-25T17:53:12.999Z</time></trkpt><trkpt lat="40.108681565613665" lon="15.22932465854753"><ele>171.0</ele><time>2026-04-25T17:53:13.998Z</time></trkpt><trkpt lat="40.10874481601193" lon="15.229430567732253"><ele>171.0</ele><time>2026-04-25T17:53:14.998Z</time></trkpt><trkpt lat="40.10883977977483" lon="15.229564855318264"><ele>171.0</ele><time>2026-04-25T17:53:15.998Z</time></trkpt><trkpt lat="40.10893173331108" lon="15.229673552051526"><ele>171.0</ele><time>2026-04-25T17:53:16.998Z</time></trkpt><trkpt lat="40.10901709077646" lon="15.229780784018539"><ele>171.0</ele><time>2026-04-25T17:53:17.998Z</time></trkpt><trkpt lat="40.10909098030467" lon="15.229883402733726"><ele>175.60000000000002</ele><time>2026-04-25T17:53:18.998Z</time></trkpt><trkpt lat="40.10915128084518" lon="15.229999355006793"><ele>180.2</ele><time>2026-04-25T17:53:19.998Z</time></trkpt><trkpt lat="40.109183183748975" lon="15.230134726017107"><ele>184.8</ele><time>2026-04-25T17:53:20.998Z</time></trkpt><trkpt lat="40.109214757613415" lon="15.230279127297495"><ele>189.39999999999998</ele><time>2026-04-25T17:53:21.998Z</time></trkpt><trkpt lat="40.10925093100093" lon="15.230414068390521"><ele>194.0</ele><time>2026-04-25T17:53:22.998Z</time></trkpt><trkpt lat="40.109275190283455" lon="15.230538322170199"><ele>189.75</ele><time>2026-04-25T17:53:23.998Z</time></trkpt><trkpt lat="40.10929556317418" lon="15.23066600771321"><ele>185.5</ele><time>2026-04-25T17:53:25Z</time></trkpt><trkpt lat="40.109395009213316" lon="15.230791097972588"><ele>181.25</ele><time>2026-04-25T17:53:26Z</time></trkpt><trkpt lat="40.109530097276" lon="15.230908922669357"><ele>177.0</ele><time>2026-04-25T17:53:27Z</time></trkpt><trkpt lat="40.10966291525408" lon="15.231021172625208"><ele>177.0</ele><time>2026-04-25T17:53:28Z</time></trkpt><trkpt lat="40.10977917395041" lon="15.231120303402202"><ele>177.0</ele><time>2026-04-25T17:53:29Z</time></trkpt><trkpt lat="40.10987854261907" lon="15.231208860826023"><ele>177.0</ele><time>2026-04-25T17:53:30Z</time></trkpt><trkpt lat="40.10997055604548" lon="15.231290863400577"><ele>177.0</ele><time>2026-04-25T17:53:31Z</time></trkpt><trkpt lat="40.11005801972737" lon="15.231368811435072"><ele>176.8</ele><time>2026-04-25T17:53:32Z</time></trkpt><trkpt lat="40.11013576782132" lon="15.231439757924635"><ele>176.6</ele><time>2026-04-25T17:53:33Z</time></trkpt><trkpt lat="40.11020540926589" lon="15.231512077358385"><ele>176.4</ele><time>2026-04-25T17:53:34Z</time></trkpt><trkpt lat="40.11027062923902" lon="15.231588806472718"><ele>176.20000000000002</ele><time>2026-04-25T17:53:35Z</time></trkpt><trkpt lat="40.110330161001876" lon="15.231689939185449"><ele>176.0</ele><time>2026-04-25T17:53:36Z</time></trkpt><trkpt lat="40.110383741087134" lon="15.231800606825667"><ele>176.0</ele><time>2026-04-25T17:53:37Z</time></trkpt><trkpt lat="40.11041374144681" lon="15.23191183810637"><ele>176.0</ele><time>2026-04-25T17:53:38Z</time></trkpt><trkpt lat="40.110465967712145" lon="15.232004684540682"><ele>176.0</ele><time>2026-04-25T17:53:39Z</time></trkpt><trkpt lat="40.11053349744022" lon="15.232108109992177"><ele>176.0</ele><time>2026-04-25T17:53:40Z</time></trkpt><trkpt lat="40.11064907475147" lon="15.232166030590687"><ele>176.0</ele><time>2026-04-25T17:53:41Z</time></trkpt><trkpt lat="40.11074951917752" lon="15.232221413657928"><ele>176.8</ele><time>2026-04-25T17:53:42Z</time></trkpt><trkpt lat="40.110833673811236" lon="15.232285859144158"><ele>177.60000000000002</ele><time>2026-04-25T17:53:43Z</time></trkpt><trkpt lat="40.11090991004927" lon="15.232367733586239"><ele>178.4</ele><time>2026-04-25T17:53:44Z</time></trkpt><trkpt lat="40.110994166779406" lon="15.232437884052265"><ele>179.2</ele><time>2026-04-25T17:53:45Z</time></trkpt><trkpt lat="40.1110603880308" lon="15.232515641541786"><ele>180.0</ele><time>2026-04-25T17:53:46Z</time></trkpt><trkpt lat="40.11110705418044" lon="15.23259947735166"><ele>180.0</ele><time>2026-04-25T17:53:47Z</time></trkpt><trkpt lat="40.11116109619227" lon="15.232652030858155"><ele>180.0</ele><time>2026-04-25T17:53:48Z</time></trkpt><trkpt lat="40.11116585143934" lon="15.232830249997098"><ele>180.0</ele><time>2026-04-25T17:53:50Z</time></trkpt><trkpt lat="40.11111409463708" lon="15.232928874295594"><ele>180.0</ele><time>2026-04-25T17:53:51Z</time></trkpt><trkpt lat="40.1110225057811" lon="15.233011175347196"><ele>180.0</ele><time>2026-04-25T17:53:52Z</time></trkpt><trkpt lat="40.11092004752074" lon="15.23308777403616"><ele>182.0</ele><time>2026-04-25T17:53:53Z</time></trkpt><trkpt lat="40.110835107371216" lon="15.233159530581911"><ele>184.0</ele><time>2026-04-25T17:53:54Z</time></trkpt><trkpt lat="40.110750749394235" lon="15.233228017859778"><ele>186.0</ele><time>2026-04-25T17:53:55Z</time></trkpt><trkpt lat="40.11067027973509" lon="15.233276148416916"><ele>188.0</ele><time>2026-04-25T17:53:56Z</time></trkpt><trkpt lat="40.110591758652276" lon="15.233302378344991"><ele>190.0</ele><time>2026-04-25T17:53:57Z</time></trkpt><trkpt lat="40.11050232461313" lon="15.23329321362961"><ele>190.0</ele><time>2026-04-25T17:53:58Z</time></trkpt><trkpt lat="40.11039931977722" lon="15.233250763233007"><ele>190.0</ele><time>2026-04-25T17:53:59Z</time></trkpt><trkpt lat="40.110306538915395" lon="15.233177922843907"><ele>190.0</ele><time>2026-04-25T17:53:59.999Z</time></trkpt><trkpt lat="40.11022907932675" lon="15.233114250507755"><ele>190.0</ele><time>2026-04-25T17:54:00.999Z</time></trkpt><trkpt lat="40.110147222307724" lon="15.233080377985017"><ele>190.0</ele><time>2026-04-25T17:54:01.999Z</time></trkpt><trkpt lat="40.110071456752266" lon="15.233077545357855"><ele>190.0</ele><time>2026-04-25T17:54:02.999Z</time></trkpt><trkpt lat="40.10999173950079" lon="15.233110615296997"><ele>190.0</ele><time>2026-04-25T17:54:03.999Z</time></trkpt><trkpt lat="40.109911457020075" lon="15.233161950361243"><ele>190.0</ele><time>2026-04-25T17:54:04.999Z</time></trkpt><trkpt lat="40.10983839391655" lon="15.233195271878223"><ele>190.0</ele><time>2026-04-25T17:54:05.999Z</time></trkpt><trkpt lat="40.10976996527646" lon="15.233219975091293"><ele>190.0</ele><time>2026-04-25T17:54:06.999Z</time></trkpt><trkpt lat="40.1096957754959" lon="15.23325355052831"><ele>190.0</ele><time>2026-04-25T17:54:07.999Z</time></trkpt><trkpt lat="40.10961726374081" lon="15.233285528528372"><ele>188.66666666666669</ele><time>2026-04-25T17:54:08.999Z</time></trkpt><trkpt lat="40.109534921791095" lon="15.233317605826251"><ele>187.33333333333334</ele><time>2026-04-25T17:54:09.999Z</time></trkpt><trkpt lat="40.10945973145074" lon="15.233358754830661"><ele>186.0</ele><time>2026-04-25T17:54:10.999Z</time></trkpt><trkpt lat="40.10939482812029" lon="15.233389614233701"><ele>184.66666666666666</ele><time>2026-04-25T17:54:11.999Z</time></trkpt><trkpt lat="40.10930256883598" lon="15.233443034031335"><ele>183.33333333333331</ele><time>2026-04-25T17:54:13.999Z</time></trkpt><trkpt lat="40.109204332064614" lon="15.233473605381969"><ele>182.0</ele><time>2026-04-25T17:54:15.999Z</time></trkpt><trkpt lat="40.1091257504813" lon="15.233495444519725"><ele>181.0</ele><time>2026-04-25T17:54:17.999Z</time></trkpt><trkpt lat="40.10904947468975" lon="15.233526280417763"><ele>180.0</ele><time>2026-04-25T17:54:20.999Z</time></trkpt><trkpt lat="40.10899165053109" lon="15.23358424854796"><ele>179.0</ele><time>2026-04-25T17:54:22.999Z</time></trkpt><trkpt lat="40.10894963129957" lon="15.233673922972773"><ele>178.0</ele><time>2026-04-25T17:54:24.999Z</time></trkpt><trkpt lat="40.10893948407389" lon="15.233821012100142"><ele>177.0</ele><time>2026-04-25T17:54:26.999Z</time></trkpt><trkpt lat="40.108950808300705" lon="15.23391459422387"><ele>176.0</ele><time>2026-04-25T17:54:27.999Z</time></trkpt><trkpt lat="40.108963716725285" lon="15.234001165895661"><ele>176.0</ele><time>2026-04-25T17:54:28.999Z</time></trkpt><trkpt lat="40.10902145927077" lon="15.234067754276094"><ele>176.0</ele><time>2026-04-25T17:54:29.999Z</time></trkpt><trkpt lat="40.10905794258614" lon="15.234212109977669"><ele>176.0</ele><time>2026-04-25T17:54:31.999Z</time></trkpt><trkpt lat="40.1090538004107" lon="15.234351153268845"><ele>176.0</ele><time>2026-04-25T17:54:33.999Z</time></trkpt><trkpt lat="40.10908046147708" lon="15.23449475804579"><ele>176.0</ele><time>2026-04-25T17:54:35.999Z</time></trkpt><trkpt lat="40.109143283526215" lon="15.234633962252586"><ele>177.8</ele><time>2026-04-25T17:54:37.999Z</time></trkpt><trkpt lat="40.10921116241779" lon="15.234757497251973"><ele>179.60000000000002</ele><time>2026-04-25T17:54:39.999Z</time></trkpt><trkpt lat="40.10924166766025" lon="15.234882692470821"><ele>181.4</ele><time>2026-04-25T17:54:41.999Z</time></trkpt><trkpt lat="40.109236171083104" lon="15.235002334375173"><ele>183.2</ele><time>2026-04-25T17:54:43.999Z</time></trkpt><trkpt lat="40.10917819707441" lon="15.235091829733294"><ele>185.0</ele><time>2026-04-25T17:54:45.999Z</time></trkpt><trkpt lat="40.10909000581959" lon="15.235177884513462"><ele>180.0</ele><time>2026-04-25T17:54:47.999Z</time></trkpt><trkpt lat="40.10900698317861" lon="15.235279421875191"><ele>175.0</ele><time>2026-04-25T17:54:49.999Z</time></trkpt><trkpt lat="40.108932658662354" lon="15.23539434343899"><ele>170.0</ele><time>2026-04-25T17:54:51.999Z</time></trkpt><trkpt lat="40.108880552593604" lon="15.235526931576253"><ele>165.0</ele><time>2026-04-25T17:54:53.999Z</time></trkpt><trkpt lat="40.108847398313074" lon="15.235663651748482"><ele>165.0</ele><time>2026-04-25T17:54:55.999Z</time></trkpt><trkpt lat="40.1088185802832" lon="15.235800024666682"><ele>165.0</ele><time>2026-04-25T17:54:57.999Z</time></trkpt><trkpt lat="40.1087414432243" lon="15.23590995480812"><ele>165.0</ele><time>2026-04-25T17:54:59.999Z</time></trkpt><trkpt lat="40.10865351752091" lon="15.236048115199303"><ele>165.0</ele><time>2026-04-25T17:55:01.999Z</time></trkpt><trkpt lat="40.1085677965174" lon="15.236126449252932"><ele>165.0</ele><time>2026-04-25T17:55:02.999Z</time></trkpt><trkpt lat="40.108473283192936" lon="15.236223187913167"><ele>165.0</ele><time>2026-04-25T17:55:03.999Z</time></trkpt><trkpt lat="40.108387738519454" lon="15.236344760122162"><ele>165.0</ele><time>2026-04-25T17:55:04.999Z</time></trkpt><trkpt lat="40.10831990457948" lon="15.236460073777744"><ele>165.0</ele><time>2026-04-25T17:55:05.999Z</time></trkpt><trkpt lat="40.10825485198391" lon="15.236554205518141"><ele>160.0</ele><time>2026-04-25T17:55:06.999Z</time></trkpt><trkpt lat="40.10819353725936" lon="15.23663417793904"><ele>155.0</ele><time>2026-04-25T17:55:07.999Z</time></trkpt><trkpt lat="40.10813179806977" lon="15.236704218164231"><ele>150.0</ele><time>2026-04-25T17:55:08.999Z</time></trkpt><trkpt lat="40.10807915833574" lon="15.23678323259604"><ele>145.0</ele><time>2026-04-25T17:55:09.999Z</time></trkpt><trkpt lat="40.10804443050076" lon="15.236879238843082"><ele>140.0</ele><time>2026-04-25T17:55:10.999Z</time></trkpt><trkpt lat="40.108018062057866" lon="15.236991938588822"><ele>135.0</ele><time>2026-04-25T17:55:11.999Z</time></trkpt><trkpt lat="40.108024313572045" lon="15.237105636996498"><ele>135.0</ele><time>2026-04-25T17:55:12.999Z</time></trkpt><trkpt lat="40.108039261845185" lon="15.237223844255546"><ele>135.0</ele><time>2026-04-25T17:55:14.999Z</time></trkpt><trkpt lat="40.10804628708633" lon="15.237336493246255"><ele>135.0</ele><time>2026-04-25T17:55:16.998Z</time></trkpt><trkpt lat="40.107984244379324" lon="15.237463433070578"><ele>135.0</ele><time>2026-04-25T17:55:18.998Z</time></trkpt><trkpt lat="40.10790500221597" lon="15.237514037393694"><ele>135.0</ele><time>2026-04-25T17:55:19.998Z</time></trkpt><trkpt lat="40.10783341753746" lon="15.23755872444423"><ele>140.0</ele><time>2026-04-25T17:55:20.998Z</time></trkpt><trkpt lat="40.107757680484234" lon="15.237612574392255"><ele>145.0</ele><time>2026-04-25T17:55:21.998Z</time></trkpt><trkpt lat="40.10768785348978" lon="15.237655065919807"><ele>150.0</ele><time>2026-04-25T17:55:22.998Z</time></trkpt><trkpt lat="40.107620736259086" lon="15.237677286452236"><ele>155.0</ele><time>2026-04-25T17:55:23.998Z</time></trkpt><trkpt lat="40.10753317116787" lon="15.237662921451793"><ele>160.0</ele><time>2026-04-25T17:55:24.998Z</time></trkpt><trkpt lat="40.10742891610007" lon="15.237612806424796"><ele>165.0</ele><time>2026-04-25T17:55:25.998Z</time></trkpt><trkpt lat="40.10732152884109" lon="15.237560566745795"><ele>166.75</ele><time>2026-04-25T17:55:26.998Z</time></trkpt><trkpt lat="40.10719384751176" lon="15.23750723302712"><ele>168.5</ele><time>2026-04-25T17:55:27.998Z</time></trkpt><trkpt lat="40.10705985355039" lon="15.237442300578342"><ele>170.25</ele><time>2026-04-25T17:55:28.998Z</time></trkpt><trkpt lat="40.1069144651821" lon="15.23736786007448"><ele>172.0</ele><time>2026-04-25T17:55:30Z</time></trkpt><trkpt lat="40.1067664853059" lon="15.237295270329003"><ele>168.25</ele><time>2026-04-25T17:55:31Z</time></trkpt><trkpt lat="40.10662492172158" lon="15.237225964549053"><ele>164.5</ele><time>2026-04-25T17:55:32Z</time></trkpt><trkpt lat="40.10649552384137" lon="15.237154779225433"><ele>160.75</ele><time>2026-04-25T17:55:33Z</time></trkpt><trkpt lat="40.106370468129775" lon="15.237083458309405"><ele>157.0</ele><time>2026-04-25T17:55:34Z</time></trkpt><trkpt lat="40.10622044092887" lon="15.236997968524442"><ele>157.0</ele><time>2026-04-25T17:55:35Z</time></trkpt><trkpt lat="40.10605383034485" lon="15.236865626540586"><ele>157.0</ele><time>2026-04-25T17:55:36Z</time></trkpt><trkpt lat="40.10585851865453" lon="15.236791421792336"><ele>157.0</ele><time>2026-04-25T17:55:37Z</time></trkpt><trkpt lat="40.10569214443333" lon="15.236686253846647"><ele>154.66666666666669</ele><time>2026-04-25T17:55:38Z</time></trkpt><trkpt lat="40.10553103123015" lon="15.236587568248272"><ele>152.33333333333334</ele><time>2026-04-25T17:55:39Z</time></trkpt><trkpt lat="40.1053659143322" lon="15.236511391009412"><ele>150.0</ele><time>2026-04-25T17:55:40Z</time></trkpt><trkpt lat="40.10520560196483" lon="15.23644635427066"><ele>150.0</ele><time>2026-04-25T17:55:41Z</time></trkpt><trkpt lat="40.10506195968313" lon="15.23639018783737"><ele>150.0</ele><time>2026-04-25T17:55:42Z</time></trkpt><trkpt lat="40.10493140653425" lon="15.23633017429582"><ele>150.0</ele><time>2026-04-25T17:55:43Z</time></trkpt><trkpt lat="40.104801114371305" lon="15.23627154617876"><ele>150.0</ele><time>2026-04-25T17:55:44Z</time></trkpt><trkpt lat="40.10467010537938" lon="15.236239670094333"><ele>152.5</ele><time>2026-04-25T17:55:45Z</time></trkpt><trkpt lat="40.10453033422905" lon="15.236247835633932"><ele>155.0</ele><time>2026-04-25T17:55:46Z</time></trkpt><trkpt lat="40.104381846468506" lon="15.236266363449511"><ele>157.5</ele><time>2026-04-25T17:55:47Z</time></trkpt><trkpt lat="40.10424380869211" lon="15.236245260424221"><ele>160.0</ele><time>2026-04-25T17:55:48Z</time></trkpt><trkpt lat="40.10412706730585" lon="15.2361896298022"><ele>158.8</ele><time>2026-04-25T17:55:49Z</time></trkpt><trkpt lat="40.1040306318112" lon="15.236136785796635"><ele>157.6</ele><time>2026-04-25T17:55:50Z</time></trkpt><trkpt lat="40.10393679795621" lon="15.23614133971213"><ele>156.4</ele><time>2026-04-25T17:55:51Z</time></trkpt><trkpt lat="40.10385658876906" lon="15.236209691237049"><ele>155.2</ele><time>2026-04-25T17:55:52Z</time></trkpt><trkpt lat="40.103784541342485" lon="15.236329556750315"><ele>154.0</ele><time>2026-04-25T17:55:53Z</time></trkpt><trkpt lat="40.103712500250595" lon="15.236484642798398"><ele>158.25</ele><time>2026-04-25T17:55:54Z</time></trkpt><trkpt lat="40.10363261033029" lon="15.236631909381401"><ele>162.5</ele><time>2026-04-25T17:55:55Z</time></trkpt><trkpt lat="40.10355459836589" lon="15.236753208274118"><ele>166.75</ele><time>2026-04-25T17:55:56Z</time></trkpt><trkpt lat="40.10345674063646" lon="15.23686927842488"><ele>171.0</ele><time>2026-04-25T17:55:57Z</time></trkpt><trkpt lat="40.103341422845986" lon="15.236988983594717"><ele>172.25</ele><time>2026-04-25T17:55:58Z</time></trkpt><trkpt lat="40.103220221792064" lon="15.237094855069676"><ele>173.5</ele><time>2026-04-25T17:55:59Z</time></trkpt><trkpt lat="40.10309681446202" lon="15.237173878008031"><ele>174.75</ele><time>2026-04-25T17:56:00Z</time></trkpt><trkpt lat="40.10298514851152" lon="15.237242847057296"><ele>176.0</ele><time>2026-04-25T17:56:01Z</time></trkpt><trkpt lat="40.102877068826075" lon="15.237308590587874"><ele>176.0</ele><time>2026-04-25T17:56:02Z</time></trkpt><trkpt lat="40.10277263363833" lon="15.237379298676812"><ele>176.0</ele><time>2026-04-25T17:56:03Z</time></trkpt><trkpt lat="40.10268266660639" lon="15.237470584511998"><ele>176.0</ele><time>2026-04-25T17:56:04Z</time></trkpt><trkpt lat="40.102600612652495" lon="15.23757479488149"><ele>176.0</ele><time>2026-04-25T17:56:05Z</time></trkpt><trkpt lat="40.10251061663236" lon="15.237671096958048"><ele>169.75</ele><time>2026-04-25T17:56:06Z</time></trkpt><trkpt lat="40.10241154793554" lon="15.237741323015637"><ele>163.5</ele><time>2026-04-25T17:56:06.999Z</time></trkpt><trkpt lat="40.10230488274985" lon="15.23776463355368"><ele>157.25</ele><time>2026-04-25T17:56:07.999Z</time></trkpt><trkpt lat="40.1021876618864" lon="15.237739838672109"><ele>151.0</ele><time>2026-04-25T17:56:08.999Z</time></trkpt><trkpt lat="40.102076634027206" lon="15.237726579550827"><ele>151.0</ele><time>2026-04-25T17:56:09.999Z</time></trkpt><trkpt lat="40.10197936722524" lon="15.237736121390682"><ele>151.0</ele><time>2026-04-25T17:56:10.999Z</time></trkpt><trkpt lat="40.10189741011575" lon="15.237762876389933"><ele>151.0</ele><time>2026-04-25T17:56:11.999Z</time></trkpt><trkpt lat="40.10182614059309" lon="15.23782293254057"><ele>151.0</ele><time>2026-04-25T17:56:12.999Z</time></trkpt><trkpt lat="40.10177003680604" lon="15.237924941493052"><ele>151.0</ele><time>2026-04-25T17:56:13.999Z</time></trkpt><trkpt lat="40.10174718059579" lon="15.238039901165925"><ele>156.6</ele><time>2026-04-25T17:56:14.999Z</time></trkpt><trkpt lat="40.1017573879005" lon="15.23815921419854"><ele>162.2</ele><time>2026-04-25T17:56:15.999Z</time></trkpt><trkpt lat="40.10178775479437" lon="15.238285302026693"><ele>167.79999999999998</ele><time>2026-04-25T17:56:16.999Z</time></trkpt><trkpt lat="40.10178638318408" lon="15.238414798695413"><ele>173.39999999999998</ele><time>2026-04-25T17:56:17.999Z</time></trkpt><trkpt lat="40.101785463445" lon="15.238529933888989"><ele>179.0</ele><time>2026-04-25T17:56:18.999Z</time></trkpt><trkpt lat="40.10178908877654" lon="15.238657657951466"><ele>179.0</ele><time>2026-04-25T17:56:19.999Z</time></trkpt><trkpt lat="40.10176106707799" lon="15.23878455817313"><ele>179.0</ele><time>2026-04-25T17:56:20.999Z</time></trkpt><trkpt lat="40.10171710050275" lon="15.238911006300329"><ele>179.0</ele><time>2026-04-25T17:56:21.999Z</time></trkpt><trkpt lat="40.10166873202113" lon="15.23903848092593"><ele>179.0</ele><time>2026-04-25T17:56:22.999Z</time></trkpt><trkpt lat="40.10162476515378" lon="15.23916768897988"><ele>179.0</ele><time>2026-04-25T17:56:23.999Z</time></trkpt><trkpt lat="40.10157635144078" lon="15.239290110515132"><ele>182.0</ele><time>2026-04-25T17:56:24.999Z</time></trkpt><trkpt lat="40.101530471048605" lon="15.239416755014249"><ele>185.0</ele><time>2026-04-25T17:56:25.999Z</time></trkpt><trkpt lat="40.101488713834236" lon="15.239549313720039"><ele>188.0</ele><time>2026-04-25T17:56:26.999Z</time></trkpt><trkpt lat="40.10144584911508" lon="15.239676246008774"><ele>191.0</ele><time>2026-04-25T17:56:27.999Z</time></trkpt><trkpt lat="40.10140477598281" lon="15.239795429556782"><ele>194.0</ele><time>2026-04-25T17:56:28.999Z</time></trkpt><trkpt lat="40.1013639231636" lon="15.239918747095208"><ele>195.83333333333334</ele><time>2026-04-25T17:56:29.999Z</time></trkpt><trkpt lat="40.10132464188986" lon="15.240044082682275"><ele>197.66666666666669</ele><time>2026-04-25T17:56:30.999Z</time></trkpt><trkpt lat="40.10128871317471" lon="15.240161262000912"><ele>199.5</ele><time>2026-04-25T17:56:31.999Z</time></trkpt><trkpt lat="40.10124247580106" lon="15.240259615576038"><ele>201.33333333333331</ele><time>2026-04-25T17:56:32.999Z</time></trkpt><trkpt lat="40.10118539021854" lon="15.240333786996421"><ele>203.16666666666666</ele><time>2026-04-25T17:56:33.999Z</time></trkpt><trkpt lat="40.10112031121933" lon="15.24037824055916"><ele>205.0</ele><time>2026-04-25T17:56:34.999Z</time></trkpt><trkpt lat="40.10105200191993" lon="15.240390293395015"><ele>205.0</ele><time>2026-04-25T17:56:35.999Z</time></trkpt><trkpt lat="40.10097430689974" lon="15.240372490900137"><ele>205.0</ele><time>2026-04-25T17:56:36.999Z</time></trkpt><trkpt lat="40.100918365910395" lon="15.240326853460333"><ele>205.0</ele><time>2026-04-25T17:56:37.999Z</time></trkpt><trkpt lat="40.10087016474267" lon="15.240268150103823"><ele>205.0</ele><time>2026-04-25T17:56:38.999Z</time></trkpt><trkpt lat="40.10084527438311" lon="15.240186381356732"><ele>205.0</ele><time>2026-04-25T17:56:39.999Z</time></trkpt><trkpt lat="40.10086128493054" lon="15.240088144624671"><ele>205.0</ele><time>2026-04-25T17:56:40.999Z</time></trkpt><trkpt lat="40.10086450465" lon="15.239985361332316"><ele>205.0</ele><time>2026-04-25T17:56:41.999Z</time></trkpt><trkpt lat="40.100884742191006" lon="15.239879113995098"><ele>202.8</ele><time>2026-04-25T17:56:42.999Z</time></trkpt><trkpt lat="40.100900968286155" lon="15.239762782648976"><ele>200.6</ele><time>2026-04-25T17:56:43.999Z</time></trkpt><trkpt lat="40.100917239840065" lon="15.23964336497755"><ele>198.39999999999998</ele><time>2026-04-25T17:56:44.999Z</time></trkpt><trkpt lat="40.100928136871" lon="15.239508947873592"><ele>196.2</ele><time>2026-04-25T17:56:45.999Z</time></trkpt><trkpt lat="40.100924309668216" lon="15.23936817851693"><ele>194.0</ele><time>2026-04-25T17:56:46.999Z</time></trkpt><trkpt lat="40.100911209420985" lon="15.239234737926603"><ele>194.0</ele><time>2026-04-25T17:56:47.999Z</time></trkpt><trkpt lat="40.100883479521535" lon="15.239092292681232"><ele>194.0</ele><time>2026-04-25T17:56:48.999Z</time></trkpt><trkpt lat="40.10083164794437" lon="15.238953218493908"><ele>194.0</ele><time>2026-04-25T17:56:49.999Z</time></trkpt><trkpt lat="40.10075422865842" lon="15.238830221125362"><ele>194.0</ele><time>2026-04-25T17:56:50.999Z</time></trkpt><trkpt lat="40.10065921280773" lon="15.238723835926931"><ele>190.0</ele><time>2026-04-25T17:56:51.999Z</time></trkpt><trkpt lat="40.1005577155777" lon="15.238639329576115"><ele>186.0</ele><time>2026-04-25T17:56:52.999Z</time></trkpt><trkpt lat="40.10046238354974" lon="15.23858317798096"><ele>182.0</ele><time>2026-04-25T17:56:53.999Z</time></trkpt><trkpt lat="40.10038068371559" lon="15.23854658673911"><ele>178.0</ele><time>2026-04-25T17:56:54.999Z</time></trkpt><trkpt lat="40.10030223131764" lon="15.238525375073294"><ele>174.0</ele><time>2026-04-25T17:56:55.999Z</time></trkpt><trkpt lat="40.10020423499251" lon="15.238546358938748"><ele>174.0</ele><time>2026-04-25T17:56:56.999Z</time></trkpt><trkpt lat="40.1001063839826" lon="15.238588254876767"><ele>174.0</ele><time>2026-04-25T17:56:57.999Z</time></trkpt><trkpt lat="40.100010172074505" lon="15.238621186859666"><ele>174.0</ele><time>2026-04-25T17:56:58.999Z</time></trkpt><trkpt lat="40.09991791325809" lon="15.238656952855663"><ele>174.0</ele><time>2026-04-25T17:56:59.999Z</time></trkpt><trkpt lat="40.09983321961925" lon="15.238695381964785"><ele>174.0</ele><time>2026-04-25T17:57:00.999Z</time></trkpt><trkpt lat="40.099747916320865" lon="15.238742498578777"><ele>176.39999999999998</ele><time>2026-04-25T17:57:01.999Z</time></trkpt><trkpt lat="40.09966815595814" lon="15.238789915556822"><ele>178.8</ele><time>2026-04-25T17:57:02.999Z</time></trkpt><trkpt lat="40.09958831780453" lon="15.238844743738687"><ele>181.2</ele><time>2026-04-25T17:57:03.999Z</time></trkpt><trkpt lat="40.09950095828759" lon="15.238934526491496"><ele>183.60000000000002</ele><time>2026-04-25T17:57:04.999Z</time></trkpt><trkpt lat="40.09940620482277" lon="15.239041214548395"><ele>186.0</ele><time>2026-04-25T17:57:05.999Z</time></trkpt><trkpt lat="40.09931983063348" lon="15.239143073249105"><ele>186.0</ele><time>2026-04-25T17:57:06.999Z</time></trkpt><trkpt lat="40.09924304861258" lon="15.23924124729119"><ele>186.0</ele><time>2026-04-25T17:57:07.999Z</time></trkpt><trkpt lat="40.09917607916598" lon="15.239335159712324"><ele>186.0</ele><time>2026-04-25T17:57:08.999Z</time></trkpt><trkpt lat="40.09910675012511" lon="15.23943087745629"><ele>186.0</ele><time>2026-04-25T17:57:09.999Z</time></trkpt><trkpt lat="40.099038299685525" lon="15.239534714474583"><ele>186.0</ele><time>2026-04-25T17:57:10.999Z</time></trkpt><trkpt lat="40.0989769677225" lon="15.239645218836845"><ele>184.60000000000002</ele><time>2026-04-25T17:57:11.999Z</time></trkpt><trkpt lat="40.09892352469039" lon="15.239760508305354"><ele>183.2</ele><time>2026-04-25T17:57:12.999Z</time></trkpt><trkpt lat="40.09888022516878" lon="15.23988183648161"><ele>181.8</ele><time>2026-04-25T17:57:13.999Z</time></trkpt><trkpt lat="40.098831699906775" lon="15.24000536387491"><ele>180.39999999999998</ele><time>2026-04-25T17:57:14.999Z</time></trkpt><trkpt lat="40.09878277141259" lon="15.240117340605561"><ele>179.0</ele><time>2026-04-25T17:57:15.999Z</time></trkpt><trkpt lat="40.09873964733718" lon="15.240214896964336"><ele>179.0</ele><time>2026-04-25T17:57:16.999Z</time></trkpt><trkpt lat="40.09870474177483" lon="15.24029702118753"><ele>179.0</ele><time>2026-04-25T17:57:17.999Z</time></trkpt><trkpt lat="40.09866955397211" lon="15.24037005592057"><ele>179.0</ele><time>2026-04-25T17:57:18.999Z</time></trkpt><trkpt lat="40.0986181220733" lon="15.240434866935022"><ele>179.0</ele><time>2026-04-25T17:57:19.999Z</time></trkpt><trkpt lat="40.098537291045105" lon="15.24047234859112"><ele>179.0</ele><time>2026-04-25T17:57:20.999Z</time></trkpt><trkpt lat="40.098437787486716" lon="15.240464570962041"><ele>179.0</ele><time>2026-04-25T17:57:21.999Z</time></trkpt><trkpt lat="40.09835306588184" lon="15.240407976664319"><ele>179.0</ele><time>2026-04-25T17:57:22.999Z</time></trkpt><trkpt lat="40.098271046024756" lon="15.240346662133494"><ele>179.0</ele><time>2026-04-25T17:57:23.998Z</time></trkpt><trkpt lat="40.09816474827702" lon="15.240331509593803"><ele>179.0</ele><time>2026-04-25T17:57:24.998Z</time></trkpt><trkpt lat="40.09805165304032" lon="15.240367456661831"><ele>179.0</ele><time>2026-04-25T17:57:25.998Z</time></trkpt><trkpt lat="40.09794529243265" lon="15.240417026810935"><ele>179.0</ele><time>2026-04-25T17:57:26.998Z</time></trkpt><trkpt lat="40.09783171958044" lon="15.240498062955595"><ele>183.33333333333331</ele><time>2026-04-25T17:57:27.998Z</time></trkpt><trkpt lat="40.09768881467977" lon="15.240630108691802"><ele>187.66666666666666</ele><time>2026-04-25T17:57:28.998Z</time></trkpt><trkpt lat="40.09754699590081" lon="15.240737721122924"><ele>192.0</ele><time>2026-04-25T17:57:29.998Z</time></trkpt><trkpt lat="40.09741345963264" lon="15.240821095242586"><ele>183.75</ele><time>2026-04-25T17:57:30.998Z</time></trkpt><trkpt lat="40.09729217359251" lon="15.240900888717455"><ele>175.5</ele><time>2026-04-25T17:57:31.998Z</time></trkpt><trkpt lat="40.097177928899676" lon="15.240991728339283"><ele>167.25</ele><time>2026-04-25T17:57:32.998Z</time></trkpt><trkpt lat="40.09705720407412" lon="15.241107625960229"><ele>159.0</ele><time>2026-04-25T17:57:33.998Z</time></trkpt><trkpt lat="40.09693581418151" lon="15.241244808116404"><ele>159.0</ele><time>2026-04-25T17:57:34.998Z</time></trkpt><trkpt lat="40.09681803011211" lon="15.241385979114032"><ele>159.0</ele><time>2026-04-25T17:57:36Z</time></trkpt><trkpt lat="40.096696602000264" lon="15.241533679877737"><ele>159.0</ele><time>2026-04-25T17:57:37Z</time></trkpt><trkpt lat="40.096571496578605" lon="15.241686773911999"><ele>159.0</ele><time>2026-04-25T17:57:38Z</time></trkpt><trkpt lat="40.09644486132365" lon="15.241832475550586"><ele>159.0</ele><time>2026-04-25T17:57:39Z</time></trkpt><trkpt lat="40.096316575114976" lon="15.241970396281094"><ele>159.0</ele><time>2026-04-25T17:57:40Z</time></trkpt><trkpt lat="40.09618818984064" lon="15.242107104300821"><ele>159.0</ele><time>2026-04-25T17:57:41Z</time></trkpt><trkpt lat="40.09606140546668" lon="15.2422448173209"><ele>159.0</ele><time>2026-04-25T17:57:42Z</time></trkpt><trkpt lat="40.095930983101546" lon="15.242385512297382"><ele>159.0</ele><time>2026-04-25T17:57:43Z</time></trkpt><trkpt lat="40.095797122076" lon="15.242523277213369"><ele>157.33333333333334</ele><time>2026-04-25T17:57:44Z</time></trkpt><trkpt lat="40.09566896041755" lon="15.242654506100612"><ele>155.66666666666669</ele><time>2026-04-25T17:57:45Z</time></trkpt><trkpt lat="40.0955460365089" lon="15.242791332200726"><ele>154.0</ele><time>2026-04-25T17:57:46Z</time></trkpt><trkpt lat="40.095422101152955" lon="15.242932501685358"><ele>154.0</ele><time>2026-04-25T17:57:47Z</time></trkpt><trkpt lat="40.09530121548217" lon="15.243068346414951"><ele>154.0</ele><time>2026-04-25T17:57:48Z</time></trkpt><trkpt lat="40.09518735662704" lon="15.24320960781449"><ele>154.0</ele><time>2026-04-25T17:57:49Z</time></trkpt><trkpt lat="40.095079945839245" lon="15.243350511000799"><ele>151.5</ele><time>2026-04-25T17:57:50Z</time></trkpt><trkpt lat="40.09497320556202" lon="15.24348769075105"><ele>149.0</ele><time>2026-04-25T17:57:51Z</time></trkpt><trkpt lat="40.09486750348161" lon="15.243617601803805"><ele>146.5</ele><time>2026-04-25T17:57:52Z</time></trkpt><trkpt lat="40.094761337722616" lon="15.243737424583871"><ele>144.0</ele><time>2026-04-25T17:57:53Z</time></trkpt><trkpt lat="40.0946553272968" lon="15.243865502438158"><ele>147.25</ele><time>2026-04-25T17:57:54Z</time></trkpt><trkpt lat="40.094545583523086" lon="15.243999231712564"><ele>150.5</ele><time>2026-04-25T17:57:55Z</time></trkpt><trkpt lat="40.0944370811459" lon="15.244127940056"><ele>153.75</ele><time>2026-04-25T17:57:56Z</time></trkpt><trkpt lat="40.09432879851592" lon="15.244255614726418"><ele>157.0</ele><time>2026-04-25T17:57:57Z</time></trkpt><trkpt lat="40.09422534610863" lon="15.244381888919966"><ele>157.0</ele><time>2026-04-25T17:57:58Z</time></trkpt><trkpt lat="40.09413625370024" lon="15.244516382631348"><ele>157.0</ele><time>2026-04-25T17:57:59Z</time></trkpt><trkpt lat="40.09405708757477" lon="15.244660347126317"><ele>157.0</ele><time>2026-04-25T17:58:00Z</time></trkpt><trkpt lat="40.09398809483546" lon="15.24480698519413"><ele>157.0</ele><time>2026-04-25T17:58:01Z</time></trkpt><trkpt lat="40.09393860451015" lon="15.244960015532989"><ele>151.79999999999998</ele><time>2026-04-25T17:58:02Z</time></trkpt><trkpt lat="40.09391596059997" lon="15.245116434709757"><ele>146.6</ele><time>2026-04-25T17:58:03Z</time></trkpt><trkpt lat="40.093919899162316" lon="15.245264354287448"><ele>141.39999999999998</ele><time>2026-04-25T17:58:04Z</time></trkpt><trkpt lat="40.09393666217992" lon="15.245381258219943"><ele>136.2</ele><time>2026-04-25T17:58:05Z</time></trkpt><trkpt lat="40.09394627186037" lon="15.245476656820179"><ele>131.0</ele><time>2026-04-25T17:58:06Z</time></trkpt><trkpt lat="40.093935455078096" lon="15.245567989127446"><ele>134.83333333333331</ele><time>2026-04-25T17:58:07Z</time></trkpt><trkpt lat="40.09389616011419" lon="15.245649463882671"><ele>138.66666666666666</ele><time>2026-04-25T17:58:08Z</time></trkpt><trkpt lat="40.0938328268477" lon="15.245702183653435"><ele>142.5</ele><time>2026-04-25T17:58:09Z</time></trkpt><trkpt lat="40.09374879871201" lon="15.245719895285545"><ele>146.33333333333334</ele><time>2026-04-25T17:58:10Z</time></trkpt><trkpt lat="40.09367341029457" lon="15.245706907467053"><ele>150.16666666666669</ele><time>2026-04-25T17:58:11Z</time></trkpt><trkpt lat="40.093602545319335" lon="15.245696748998924"><ele>154.0</ele><time>2026-04-25T17:58:12Z</time></trkpt><trkpt lat="40.093514356089074" lon="15.245706438259457"><ele>154.0</ele><time>2026-04-25T17:58:13Z</time></trkpt><trkpt lat="40.093402494328" lon="15.245745588753085"><ele>154.0</ele><time>2026-04-25T17:58:14Z</time></trkpt><trkpt lat="40.093285615878905" lon="15.24581816530139"><ele>154.0</ele><time>2026-04-25T17:58:15Z</time></trkpt><trkpt lat="40.093164704158966" lon="15.245933115776712"><ele>154.0</ele><time>2026-04-25T17:58:16Z</time></trkpt><trkpt lat="40.093051177707075" lon="15.246080208596142"><ele>146.0</ele><time>2026-04-25T17:58:16.999Z</time></trkpt><trkpt lat="40.09295404624854" lon="15.246234731606947"><ele>138.0</ele><time>2026-04-25T17:58:17.999Z</time></trkpt><trkpt lat="40.09286711216928" lon="15.24640552687979"><ele>130.0</ele><time>2026-04-25T17:58:18.999Z</time></trkpt><trkpt lat="40.09279571935503" lon="15.246589322460725"><ele>130.0</ele><time>2026-04-25T17:58:19.999Z</time></trkpt><trkpt lat="40.09274738051316" lon="15.24678259819344"><ele>130.0</ele><time>2026-04-25T17:58:20.999Z</time></trkpt><trkpt lat="40.092709623071165" lon="15.246983341284563"><ele>130.0</ele><time>2026-04-25T17:58:21.999Z</time></trkpt><trkpt lat="40.092679448961" lon="15.247169746075626"><ele>133.25</ele><time>2026-04-25T17:58:22.999Z</time></trkpt><trkpt lat="40.09264639402416" lon="15.24734368733806"><ele>136.5</ele><time>2026-04-25T17:58:23.999Z</time></trkpt><trkpt lat="40.092613919148455" lon="15.247517865641882"><ele>139.75</ele><time>2026-04-25T17:58:24.999Z</time></trkpt><trkpt lat="40.09258055945123" lon="15.247696293848945"><ele>143.0</ele><time>2026-04-25T17:58:25.999Z</time></trkpt><trkpt lat="40.092559989304064" lon="15.24787266997777"><ele>143.0</ele><time>2026-04-25T17:58:26.999Z</time></trkpt><trkpt lat="40.09256301857855" lon="15.248044385581895"><ele>143.0</ele><time>2026-04-25T17:58:27.999Z</time></trkpt><trkpt lat="40.092583686208286" lon="15.248209300141749"><ele>143.0</ele><time>2026-04-25T17:58:28.999Z</time></trkpt><trkpt lat="40.09259905363052" lon="15.2483649787987"><ele>143.0</ele><time>2026-04-25T17:58:29.999Z</time></trkpt><trkpt lat="40.092592018013704" lon="15.24851490290055"><ele>143.5</ele><time>2026-04-25T17:58:30.999Z</time></trkpt><trkpt lat="40.09255465906743" lon="15.248665190128747"><ele>144.0</ele><time>2026-04-25T17:58:31.999Z</time></trkpt><trkpt lat="40.092485164944264" lon="15.248817348219132"><ele>144.5</ele><time>2026-04-25T17:58:32.999Z</time></trkpt><trkpt lat="40.09238954175563" lon="15.248960904296263"><ele>145.0</ele><time>2026-04-25T17:58:33.999Z</time></trkpt><trkpt lat="40.092298339832745" lon="15.249110418969908"><ele>133.33333333333334</ele><time>2026-04-25T17:58:34.999Z</time></trkpt><trkpt lat="40.09221405455521" lon="15.249276082709475"><ele>121.66666666666666</ele><time>2026-04-25T17:58:35.999Z</time></trkpt><trkpt lat="40.092132962719276" lon="15.249445173433042"><ele>110.0</ele><time>2026-04-25T17:58:36.999Z</time></trkpt><trkpt lat="40.09205077436577" lon="15.249611579015204"><ele>110.0</ele><time>2026-04-25T17:58:37.999Z</time></trkpt><trkpt lat="40.09196887234379" lon="15.249772766182593"><ele>110.0</ele><time>2026-04-25T17:58:38.999Z</time></trkpt><trkpt lat="40.0918869538696" lon="15.249935176574521"><ele>110.0</ele><time>2026-04-25T17:58:39.999Z</time></trkpt><trkpt lat="40.091806169350406" lon="15.250094407352924"><ele>110.0</ele><time>2026-04-25T17:58:40.999Z</time></trkpt><trkpt lat="40.09172097786085" lon="15.250260208198384"><ele>107.66666666666666</ele><time>2026-04-25T17:58:41.999Z</time></trkpt><trkpt lat="40.091633666127066" lon="15.250429671944904"><ele>105.33333333333334</ele><time>2026-04-25T17:58:42.999Z</time></trkpt><trkpt lat="40.09154965586995" lon="15.250600086940503"><ele>103.0</ele><time>2026-04-25T17:58:43.999Z</time></trkpt><trkpt lat="40.09147166548454" lon="15.250766872276408"><ele>103.0</ele><time>2026-04-25T17:58:44.999Z</time></trkpt><trkpt lat="40.09139936417361" lon="15.250933566143955"><ele>103.0</ele><time>2026-04-25T17:58:45.999Z</time></trkpt><trkpt lat="40.09133415368389" lon="15.251099821968188"><ele>103.0</ele><time>2026-04-25T17:58:46.999Z</time></trkpt><trkpt lat="40.09128537289184" lon="15.25127258346098"><ele>103.0</ele><time>2026-04-25T17:58:47.999Z</time></trkpt><trkpt lat="40.09123532772994" lon="15.251437336781395"><ele>107.0</ele><time>2026-04-25T17:58:48.999Z</time></trkpt><trkpt lat="40.09116037476658" lon="15.251584348523197"><ele>111.0</ele><time>2026-04-25T17:58:49.999Z</time></trkpt><trkpt lat="40.09107935164267" lon="15.251716361850622"><ele>115.0</ele><time>2026-04-25T17:58:50.999Z</time></trkpt><trkpt lat="40.0910022676762" lon="15.251844928268904"><ele>119.0</ele><time>2026-04-25T17:58:51.999Z</time></trkpt><trkpt lat="40.090929598355196" lon="15.251967274740222"><ele>119.0</ele><time>2026-04-25T17:58:52.999Z</time></trkpt><trkpt lat="40.09086759168516" lon="15.25209249715701"><ele>119.0</ele><time>2026-04-25T17:58:53.999Z</time></trkpt><trkpt lat="40.09081759748045" lon="15.252221021383603"><ele>119.0</ele><time>2026-04-25T17:58:54.999Z</time></trkpt><trkpt lat="40.09077197745372" lon="15.252354237038647"><ele>119.0</ele><time>2026-04-25T17:58:55.999Z</time></trkpt><trkpt lat="40.09073354469958" lon="15.252487740625485"><ele>119.0</ele><time>2026-04-25T17:58:56.999Z</time></trkpt><trkpt lat="40.09070806284646" lon="15.252622895939135"><ele>115.16666666666666</ele><time>2026-04-25T17:58:57.999Z</time></trkpt><trkpt lat="40.09068744628415" lon="15.252752812208549"><ele>111.33333333333333</ele><time>2026-04-25T17:58:58.999Z</time></trkpt><trkpt lat="40.090672681717166" lon="15.252876521339784"><ele>107.5</ele><time>2026-04-25T17:58:59.999Z</time></trkpt><trkpt lat="40.09066679511931" lon="15.252993520804385"><ele>103.66666666666666</ele><time>2026-04-25T17:59:00.999Z</time></trkpt><trkpt lat="40.09066547014033" lon="15.253103135562137"><ele>99.83333333333333</ele><time>2026-04-25T17:59:01.999Z</time></trkpt><trkpt lat="40.09066303692563" lon="15.253202958065865"><ele>96.0</ele><time>2026-04-25T17:59:02.999Z</time></trkpt><trkpt lat="40.09066188586995" lon="15.253307046880927"><ele>96.0</ele><time>2026-04-25T17:59:03.999Z</time></trkpt><trkpt lat="40.090665239308976" lon="15.253448967135403"><ele>96.0</ele><time>2026-04-25T17:59:04.999Z</time></trkpt><trkpt lat="40.09066281012311" lon="15.2536209229975"><ele>96.0</ele><time>2026-04-25T17:59:05.999Z</time></trkpt><trkpt lat="40.090639430319435" lon="15.253817863707397"><ele>96.0</ele><time>2026-04-25T17:59:06.999Z</time></trkpt><trkpt lat="40.09060510682898" lon="15.254020767840311"><ele>98.33333333333334</ele><time>2026-04-25T17:59:07.999Z</time></trkpt><trkpt lat="40.09057104614704" lon="15.254241209049326"><ele>100.66666666666667</ele><time>2026-04-25T17:59:08.999Z</time></trkpt><trkpt lat="40.09053550391478" lon="15.254480423106907"><ele>103.0</ele><time>2026-04-25T17:59:09.999Z</time></trkpt><trkpt lat="40.09049893969937" lon="15.254727584828164"><ele>104.0</ele><time>2026-04-25T17:59:10.999Z</time></trkpt><trkpt lat="40.090468267597466" lon="15.254959805431001"><ele>105.0</ele><time>2026-04-25T17:59:11.999Z</time></trkpt><trkpt lat="40.09043725849775" lon="15.255171819630968"><ele>106.0</ele><time>2026-04-25T17:59:12.999Z</time></trkpt><trkpt lat="40.090407246125885" lon="15.255375779564355"><ele>106.0</ele><time>2026-04-25T17:59:13.999Z</time></trkpt><trkpt lat="40.09037597606807" lon="15.255564992282283"><ele>106.0</ele><time>2026-04-25T17:59:14.999Z</time></trkpt><trkpt lat="40.09035232349917" lon="15.255743734015656"><ele>106.0</ele><time>2026-04-25T17:59:15.999Z</time></trkpt><trkpt lat="40.090323738493424" lon="15.255905882610962"><ele>106.0</ele><time>2026-04-25T17:59:16.999Z</time></trkpt><trkpt lat="40.090284700027574" lon="15.256061997899288"><ele>107.25</ele><time>2026-04-25T17:59:17.999Z</time></trkpt><trkpt lat="40.09022973415902" lon="15.256205255727846"><ele>108.5</ele><time>2026-04-25T17:59:18.999Z</time></trkpt><trkpt lat="40.09015114066078" lon="15.256319289483322"><ele>109.75</ele><time>2026-04-25T17:59:19.999Z</time></trkpt><trkpt lat="40.09004975201229" lon="15.256405355332584"><ele>111.0</ele><time>2026-04-25T17:59:20.999Z</time></trkpt><trkpt lat="40.089935433189794" lon="15.256463889233496"><ele>111.0</ele><time>2026-04-25T17:59:21.999Z</time></trkpt><trkpt lat="40.08980269283827" lon="15.256490854420374"><ele>111.0</ele><time>2026-04-25T17:59:22.999Z</time></trkpt><trkpt lat="40.08965951127088" lon="15.256500767587871"><ele>111.0</ele><time>2026-04-25T17:59:23.999Z</time></trkpt><trkpt lat="40.089519469431" lon="15.256498906292316"><ele>111.0</ele><time>2026-04-25T17:59:24.999Z</time></trkpt><trkpt lat="40.0894003035725" lon="15.25651501900618"><ele>111.0</ele><time>2026-04-25T17:59:25.999Z</time></trkpt><trkpt lat="40.089284459058455" lon="15.256543080347067"><ele>111.0</ele><time>2026-04-25T17:59:26.999Z</time></trkpt><trkpt lat="40.08917191620714" lon="15.256591150540737"><ele>111.0</ele><time>2026-04-25T17:59:27.999Z</time></trkpt><trkpt lat="40.08905876494992" lon="15.256700904815249"><ele>111.0</ele><time>2026-04-25T17:59:28.999Z</time></trkpt><trkpt lat="40.08895333292989" lon="15.256869160303172"><ele>110.5</ele><time>2026-04-25T17:59:29.999Z</time></trkpt><trkpt lat="40.08886129410455" lon="15.257025007925586"><ele>110.0</ele><time>2026-04-25T17:59:30.999Z</time></trkpt><trkpt lat="40.08876244604633" lon="15.257155704575794"><ele>109.5</ele><time>2026-04-25T17:59:31.999Z</time></trkpt><trkpt lat="40.08863695054252" lon="15.257251804274931"><ele>109.0</ele><time>2026-04-25T17:59:32.998Z</time></trkpt><trkpt lat="40.08848054841953" lon="15.25732801719847"><ele>109.0</ele><time>2026-04-25T17:59:33.998Z</time></trkpt><trkpt lat="40.08832594355721" lon="15.257382241867052"><ele>109.0</ele><time>2026-04-25T17:59:34.998Z</time></trkpt><trkpt lat="40.08818723331376" lon="15.257428559637184"><ele>109.0</ele><time>2026-04-25T17:59:35.998Z</time></trkpt><trkpt lat="40.08804954323457" lon="15.25746089180093"><ele>109.0</ele><time>2026-04-25T17:59:36.998Z</time></trkpt><trkpt lat="40.08791150197237" lon="15.257473884461508"><ele>104.5</ele><time>2026-04-25T17:59:37.998Z</time></trkpt><trkpt lat="40.087782673729066" lon="15.257464888248878"><ele>100.0</ele><time>2026-04-25T17:59:38.998Z</time></trkpt><trkpt lat="40.08766282513225" lon="15.257433533828475"><ele>95.5</ele><time>2026-04-25T17:59:39.998Z</time></trkpt><trkpt lat="40.08754438527061" lon="15.257401147942565"><ele>91.0</ele><time>2026-04-25T17:59:40.998Z</time></trkpt><trkpt lat="40.08742647874291" lon="15.257409575309724"><ele>87.25</ele><time>2026-04-25T17:59:42Z</time></trkpt><trkpt lat="40.087315092326165" lon="15.25745766731"><ele>83.5</ele><time>2026-04-25T17:59:43Z</time></trkpt><trkpt lat="40.08721581015432" lon="15.257539435867342"><ele>79.75</ele><time>2026-04-25T17:59:44Z</time></trkpt><trkpt lat="40.087125037584265" lon="15.257668843777832"><ele>76.0</ele><time>2026-04-25T17:59:45Z</time></trkpt><trkpt lat="40.0870470125013" lon="15.257843156201334"><ele>76.0</ele><time>2026-04-25T17:59:46Z</time></trkpt><trkpt lat="40.086988567365616" lon="15.25805015738856"><ele>76.0</ele><time>2026-04-25T17:59:47Z</time></trkpt><trkpt lat="40.08694548304011" lon="15.258274325101045"><ele>76.0</ele><time>2026-04-25T17:59:48Z</time></trkpt><trkpt lat="40.08689978254263" lon="15.25849466821221"><ele>80.0</ele><time>2026-04-25T17:59:49Z</time></trkpt><trkpt lat="40.08684973866888" lon="15.25871798289614"><ele>84.0</ele><time>2026-04-25T17:59:50Z</time></trkpt><trkpt lat="40.086798412115726" lon="15.258938190650934"><ele>88.0</ele><time>2026-04-25T17:59:51Z</time></trkpt><trkpt lat="40.08674341897827" lon="15.259158675966628"><ele>89.0</ele><time>2026-04-25T17:59:52Z</time></trkpt><trkpt lat="40.08668519888993" lon="15.259376529562491"><ele>90.0</ele><time>2026-04-25T17:59:53Z</time></trkpt><trkpt lat="40.086632810640985" lon="15.259601099800703"><ele>91.0</ele><time>2026-04-25T17:59:54Z</time></trkpt><trkpt lat="40.0865800541641" lon="15.259818044255171"><ele>87.33333333333333</ele><time>2026-04-25T17:59:55Z</time></trkpt><trkpt lat="40.08652539708829" lon="15.26002590068204"><ele>83.66666666666667</ele><time>2026-04-25T17:59:56Z</time></trkpt><trkpt lat="40.086475103746686" lon="15.260237752424553"><ele>80.0</ele><time>2026-04-25T17:59:57Z</time></trkpt><trkpt lat="40.086424365403225" lon="15.26044655597816"><ele>78.0</ele><time>2026-04-25T17:59:58Z</time></trkpt><trkpt lat="40.08637156376134" lon="15.260648290285157"><ele>76.0</ele><time>2026-04-25T17:59:59Z</time></trkpt><trkpt lat="40.0863227074286" lon="15.260857294510512"><ele>74.0</ele><time>2026-04-25T18:00:00Z</time></trkpt><trkpt lat="40.08626358127085" lon="15.261065984748257"><ele>74.0</ele><time>2026-04-25T18:00:01Z</time></trkpt><trkpt lat="40.08620121756675" lon="15.261271700827587"><ele>74.0</ele><time>2026-04-25T18:00:02Z</time></trkpt><trkpt lat="40.0861360853656" lon="15.261470698622825"><ele>74.0</ele><time>2026-04-25T18:00:03Z</time></trkpt><trkpt lat="40.08607848843513" lon="15.261662999589435"><ele>72.0</ele><time>2026-04-25T18:00:04Z</time></trkpt><trkpt lat="40.08603680513484" lon="15.26187966535139"><ele>70.0</ele><time>2026-04-25T18:00:05Z</time></trkpt><trkpt lat="40.08601987358116" lon="15.262109880463193"><ele>68.0</ele><time>2026-04-25T18:00:06Z</time></trkpt><trkpt lat="40.08601740174269" lon="15.26232934874277"><ele>68.0</ele><time>2026-04-25T18:00:07Z</time></trkpt><trkpt lat="40.08599706833566" lon="15.262527772209221"><ele>68.0</ele><time>2026-04-25T18:00:08Z</time></trkpt><trkpt lat="40.08595353483145" lon="15.262721265399058"><ele>68.0</ele><time>2026-04-25T18:00:09Z</time></trkpt><trkpt lat="40.08589209662285" lon="15.26291458412481"><ele>68.0</ele><time>2026-04-25T18:00:10Z</time></trkpt><trkpt lat="40.08581292509763" lon="15.263108243175003"><ele>68.0</ele><time>2026-04-25T18:00:11Z</time></trkpt><trkpt lat="40.08571744036325" lon="15.263301342589575"><ele>68.0</ele><time>2026-04-25T18:00:12Z</time></trkpt><trkpt lat="40.08561515386158" lon="15.263498179197871"><ele>64.66666666666667</ele><time>2026-04-25T18:00:13Z</time></trkpt><trkpt lat="40.085507292955825" lon="15.263697488015474"><ele>61.33333333333333</ele><time>2026-04-25T18:00:14Z</time></trkpt><trkpt lat="40.08538904711275" lon="15.263899148680187"><ele>58.0</ele><time>2026-04-25T18:00:15Z</time></trkpt><trkpt lat="40.08526097585038" lon="15.264099255190967"><ele>58.0</ele><time>2026-04-25T18:00:16Z</time></trkpt><trkpt lat="40.085123212988115" lon="15.26429295693108"><ele>58.0</ele><time>2026-04-25T18:00:17Z</time></trkpt><trkpt lat="40.08498188527621" lon="15.264473287634857"><ele>58.0</ele><time>2026-04-25T18:00:18Z</time></trkpt><trkpt lat="40.08484323707983" lon="15.2646347851627"><ele>62.666666666666664</ele><time>2026-04-25T18:00:19Z</time></trkpt><trkpt lat="40.08470375769057" lon="15.26480041354417"><ele>67.33333333333333</ele><time>2026-04-25T18:00:20Z</time></trkpt><trkpt lat="40.08456722744191" lon="15.264962936164835"><ele>72.0</ele><time>2026-04-25T18:00:21Z</time></trkpt><trkpt lat="40.08443072490629" lon="15.265127704378171"><ele>72.0</ele><time>2026-04-25T18:00:22Z</time></trkpt><trkpt lat="40.08429446198963" lon="15.265289001677917"><ele>72.0</ele><time>2026-04-25T18:00:22.999Z</time></trkpt><trkpt lat="40.08415849681779" lon="15.26544888508616"><ele>72.0</ele><time>2026-04-25T18:00:23.999Z</time></trkpt><trkpt lat="40.084025207594046" lon="15.265610804795537"><ele>72.33333333333333</ele><time>2026-04-25T18:00:24.999Z</time></trkpt><trkpt lat="40.08389307520551" lon="15.265776507650923"><ele>72.66666666666666</ele><time>2026-04-25T18:00:25.999Z</time></trkpt><trkpt lat="40.083764807121646" lon="15.265942188546935"><ele>73.0</ele><time>2026-04-25T18:00:26.999Z</time></trkpt><trkpt lat="40.08363909109483" lon="15.266106549440568"><ele>73.0</ele><time>2026-04-25T18:00:27.999Z</time></trkpt><trkpt lat="40.08351501936632" lon="15.266274749030432"><ele>73.0</ele><time>2026-04-25T18:00:28.999Z</time></trkpt><trkpt lat="40.08339780279649" lon="15.266435947031026"><ele>73.0</ele><time>2026-04-25T18:00:29.999Z</time></trkpt><trkpt lat="40.083289422477506" lon="15.266606474322831"><ele>70.33333333333333</ele><time>2026-04-25T18:00:30.999Z</time></trkpt><trkpt lat="40.08319503712497" lon="15.266789876758859"><ele>67.66666666666667</ele><time>2026-04-25T18:00:31.999Z</time></trkpt><trkpt lat="40.083112427667174" lon="15.266987130195181"><ele>65.0</ele><time>2026-04-25T18:00:32.999Z</time></trkpt><trkpt lat="40.083041126239046" lon="15.267170177693107"><ele>66.0</ele><time>2026-04-25T18:00:33.999Z</time></trkpt><trkpt lat="40.08297346468447" lon="15.267342631732797"><ele>67.0</ele><time>2026-04-25T18:00:34.999Z</time></trkpt><trkpt lat="40.08291304060775" lon="15.267509914106197"><ele>68.0</ele><time>2026-04-25T18:00:35.999Z</time></trkpt><trkpt lat="40.08285753504179" lon="15.2676716907248"><ele>69.0</ele><time>2026-04-25T18:00:36.999Z</time></trkpt><trkpt lat="40.082797706429325" lon="15.267826840687734"><ele>69.0</ele><time>2026-04-25T18:00:37.999Z</time></trkpt><trkpt lat="40.082721340623245" lon="15.267975285010284"><ele>69.0</ele><time>2026-04-25T18:00:38.999Z</time></trkpt><trkpt lat="40.08263257346972" lon="15.26811132677689"><ele>69.0</ele><time>2026-04-25T18:00:39.999Z</time></trkpt><trkpt lat="40.08253975268123" lon="15.26822738748706"><ele>69.0</ele><time>2026-04-25T18:00:40.999Z</time></trkpt><trkpt lat="40.082445093725774" lon="15.268323346094242"><ele>70.25</ele><time>2026-04-25T18:00:41.999Z</time></trkpt><trkpt lat="40.0823477504461" lon="15.268402569873855"><ele>71.5</ele><time>2026-04-25T18:00:42.999Z</time></trkpt><trkpt lat="40.08224472239889" lon="15.26845405543071"><ele>72.75</ele><time>2026-04-25T18:00:43.999Z</time></trkpt><trkpt lat="40.08212220274377" lon="15.268491704865589"><ele>74.0</ele><time>2026-04-25T18:00:44.999Z</time></trkpt><trkpt lat="40.08200392850494" lon="15.268528349560667"><ele>74.0</ele><time>2026-04-25T18:00:45.999Z</time></trkpt><trkpt lat="40.08189320611813" lon="15.268560630283035"><ele>74.0</ele><time>2026-04-25T18:00:46.999Z</time></trkpt><trkpt lat="40.08179467617107" lon="15.26858950606478"><ele>74.0</ele><time>2026-04-25T18:00:47.999Z</time></trkpt><trkpt lat="40.08169983490934" lon="15.268616344203208"><ele>74.0</ele><time>2026-04-25T18:00:48.999Z</time></trkpt><trkpt lat="40.081592307511336" lon="15.268649048173403"><ele>74.0</ele><time>2026-04-25T18:00:49.999Z</time></trkpt><trkpt lat="40.081455737358176" lon="15.268698144666663"><ele>73.33333333333334</ele><time>2026-04-25T18:00:50.999Z</time></trkpt><trkpt lat="40.081284956552" lon="15.268755332214928"><ele>72.66666666666667</ele><time>2026-04-25T18:00:51.999Z</time></trkpt><trkpt lat="40.081116269741294" lon="15.268799365375546"><ele>72.0</ele><time>2026-04-25T18:00:52.999Z</time></trkpt><trkpt lat="40.08096374120697" lon="15.268829769073374"><ele>72.0</ele><time>2026-04-25T18:00:53.999Z</time></trkpt><trkpt lat="40.08081334662995" lon="15.268852176262378"><ele>72.0</ele><time>2026-04-25T18:00:54.999Z</time></trkpt><trkpt lat="40.08065574756333" lon="15.268860940108532"><ele>72.0</ele><time>2026-04-25T18:00:55.999Z</time></trkpt><trkpt lat="40.080505095029125" lon="15.268844367212468"><ele>71.25</ele><time>2026-04-25T18:00:56.999Z</time></trkpt><trkpt lat="40.080369710865384" lon="15.268824665773245"><ele>70.5</ele><time>2026-04-25T18:00:57.999Z</time></trkpt><trkpt lat="40.08025573958134" lon="15.26883208303866"><ele>69.75</ele><time>2026-04-25T18:00:58.999Z</time></trkpt><trkpt lat="40.080143370687495" lon="15.268881321313692"><ele>69.0</ele><time>2026-04-25T18:00:59.999Z</time></trkpt><trkpt lat="40.08004483385135" lon="15.2689747377742"><ele>69.0</ele><time>2026-04-25T18:01:00.999Z</time></trkpt><trkpt lat="40.07995310240339" lon="15.269120468454343"><ele>69.0</ele><time>2026-04-25T18:01:01.999Z</time></trkpt><trkpt lat="40.07987023842411" lon="15.269275960502886"><ele>69.0</ele><time>2026-04-25T18:01:02.999Z</time></trkpt><trkpt lat="40.07980117475051" lon="15.269397499910182"><ele>69.0</ele><time>2026-04-25T18:01:03.999Z</time></trkpt><trkpt lat="40.079732561030845" lon="15.26950689334581"><ele>65.5</ele><time>2026-04-25T18:01:04.999Z</time></trkpt><trkpt lat="40.079653903939594" lon="15.269598031926101"><ele>62.0</ele><time>2026-04-25T18:01:05.999Z</time></trkpt><trkpt lat="40.07955630421391" lon="15.269676216872643"><ele>58.5</ele><time>2026-04-25T18:01:06.999Z</time></trkpt><trkpt lat="40.079434556229465" lon="15.269737567600002"><ele>55.0</ele><time>2026-04-25T18:01:07.999Z</time></trkpt><trkpt lat="40.07930510213137" lon="15.269772819994246"><ele>55.0</ele><time>2026-04-25T18:01:08.999Z</time></trkpt><trkpt lat="40.07918265452525" lon="15.26978595286425"><ele>55.0</ele><time>2026-04-25T18:01:09.999Z</time></trkpt><trkpt lat="40.07906590408469" lon="15.26979645385938"><ele>55.0</ele><time>2026-04-25T18:01:10.999Z</time></trkpt><trkpt lat="40.07895047212963" lon="15.26981112736745"><ele>55.0</ele><time>2026-04-25T18:01:11.999Z</time></trkpt><trkpt lat="40.078839651821426" lon="15.269836647017371"><ele>55.0</ele><time>2026-04-25T18:01:12.999Z</time></trkpt><trkpt lat="40.07875199270505" lon="15.269882358267532"><ele>55.0</ele><time>2026-04-25T18:01:13.999Z</time></trkpt><trkpt lat="40.078696087668185" lon="15.269961649075865"><ele>55.0</ele><time>2026-04-25T18:01:14.999Z</time></trkpt><trkpt lat="40.07866339152222" lon="15.27007679922629"><ele>55.0</ele><time>2026-04-25T18:01:15.999Z</time></trkpt><trkpt lat="40.078661925180114" lon="15.270218749619113"><ele>55.0</ele><time>2026-04-25T18:01:16.999Z</time></trkpt><trkpt lat="40.0786923736259" lon="15.270358968363013"><ele>55.0</ele><time>2026-04-25T18:01:17.999Z</time></trkpt><trkpt lat="40.07875552821555" lon="15.270489474916648"><ele>55.0</ele><time>2026-04-25T18:01:18.999Z</time></trkpt><trkpt lat="40.07880126811526" lon="15.270625595047777"><ele>55.0</ele><time>2026-04-25T18:01:19.999Z</time></trkpt><trkpt lat="40.07884223194765" lon="15.27074152959663"><ele>55.0</ele><time>2026-04-25T18:01:20.999Z</time></trkpt><trkpt lat="40.07887416659123" lon="15.270833879689178"><ele>55.0</ele><time>2026-04-25T18:01:21.999Z</time></trkpt><trkpt lat="40.078868093524854" lon="15.270936637139519"><ele>54.0</ele><time>2026-04-25T18:01:22.999Z</time></trkpt><trkpt lat="40.07883250918383" lon="15.271036922164551"><ele>53.0</ele><time>2026-04-25T18:01:23.999Z</time></trkpt><trkpt lat="40.078778549944275" lon="15.271103311453151"><ele>52.0</ele><time>2026-04-25T18:01:24.999Z</time></trkpt><trkpt lat="40.07869368718665" lon="15.271145602023722"><ele>51.0</ele><time>2026-04-25T18:01:25.999Z</time></trkpt><trkpt lat="40.078585388084406" lon="15.27116648860791"><ele>50.0</ele><time>2026-04-25T18:01:26.999Z</time></trkpt><trkpt lat="40.07845661648074" lon="15.271168760512062"><ele>50.0</ele><time>2026-04-25T18:01:27.999Z</time></trkpt><trkpt lat="40.07833739782799" lon="15.271163048547157"><ele>50.0</ele><time>2026-04-25T18:01:28.999Z</time></trkpt><trkpt lat="40.07823304039787" lon="15.2711822516769"><ele>50.0</ele><time>2026-04-25T18:01:29.999Z</time></trkpt><trkpt lat="40.07812820096696" lon="15.271229814356209"><ele>50.0</ele><time>2026-04-25T18:01:30.999Z</time></trkpt><trkpt lat="40.078020762443735" lon="15.27128954640528"><ele>49.75</ele><time>2026-04-25T18:01:31.999Z</time></trkpt><trkpt lat="40.07791939863511" lon="15.271348196178039"><ele>49.5</ele><time>2026-04-25T18:01:32.999Z</time></trkpt><trkpt lat="40.07781514586823" lon="15.271411669636535"><ele>49.25</ele><time>2026-04-25T18:01:33.999Z</time></trkpt><trkpt lat="40.07770507869508" lon="15.271481334430982"><ele>49.0</ele><time>2026-04-25T18:01:34.999Z</time></trkpt><trkpt lat="40.07759823711931" lon="15.271550728693812"><ele>49.0</ele><time>2026-04-25T18:01:35.999Z</time></trkpt><trkpt lat="40.07750577193441" lon="15.271604903313506"><ele>49.0</ele><time>2026-04-25T18:01:36.999Z</time></trkpt><trkpt lat="40.07742535047389" lon="15.271642050930753"><ele>49.0</ele><time>2026-04-25T18:01:37.999Z</time></trkpt><trkpt lat="40.077333788425086" lon="15.271663659778957"><ele>49.0</ele><time>2026-04-25T18:01:38.998Z</time></trkpt><trkpt lat="40.0772265644248" lon="15.271641085680935"><ele>49.0</ele><time>2026-04-25T18:01:39.998Z</time></trkpt><trkpt lat="40.07711570644772" lon="15.271572780103288"><ele>48.6</ele><time>2026-04-25T18:01:40.998Z</time></trkpt><trkpt lat="40.077019417531226" lon="15.271520978678364"><ele>48.2</ele><time>2026-04-25T18:01:41.998Z</time></trkpt><trkpt lat="40.076936679775436" lon="15.271495787129327"><ele>47.800000000000004</ele><time>2026-04-25T18:01:42.998Z</time></trkpt><trkpt lat="40.07685254439609" lon="15.271485292459133"><ele>47.400000000000006</ele><time>2026-04-25T18:01:43.998Z</time></trkpt><trkpt lat="40.076767197804834" lon="15.27148978329282"><ele>47.0</ele><time>2026-04-25T18:01:44.998Z</time></trkpt><trkpt lat="40.076679473970934" lon="15.271520531144047"><ele>46.400000000000006</ele><time>2026-04-25T18:01:45.998Z</time></trkpt><trkpt lat="40.07659475053208" lon="15.27157161769706"><ele>45.800000000000004</ele><time>2026-04-25T18:01:46.998Z</time></trkpt><trkpt lat="40.07651852263954" lon="15.271623247415494"><ele>45.2</ele><time>2026-04-25T18:01:48Z</time></trkpt><trkpt lat="40.076439121471054" lon="15.271681010297451"><ele>44.6</ele><time>2026-04-25T18:01:49Z</time></trkpt><trkpt lat="40.07634348338753" lon="15.271755263940904"><ele>44.0</ele><time>2026-04-25T18:01:50Z</time></trkpt><trkpt lat="40.07624277250437" lon="15.271827058672834"><ele>44.0</ele><time>2026-04-25T18:01:51Z</time></trkpt><trkpt lat="40.0761397504452" lon="15.271892165491368"><ele>44.0</ele><time>2026-04-25T18:01:52Z</time></trkpt><trkpt lat="40.076039852142124" lon="15.271951275619566"><ele>44.0</ele><time>2026-04-25T18:01:53Z</time></trkpt><trkpt lat="40.07593754017281" lon="15.272004770081455"><ele>44.0</ele><time>2026-04-25T18:01:54Z</time></trkpt><trkpt lat="40.075840980473934" lon="15.272049771233235"><ele>44.0</ele><time>2026-04-25T18:01:55Z</time></trkpt><trkpt lat="40.075749467594314" lon="15.272093669160284"><ele>41.800000000000004</ele><time>2026-04-25T18:01:56Z</time></trkpt><trkpt lat="40.07565666765033" lon="15.272140929312302"><ele>39.6</ele><time>2026-04-25T18:01:57Z</time></trkpt><trkpt lat="40.07557288679074" lon="15.272190637442272"><ele>37.4</ele><time>2026-04-25T18:01:58Z</time></trkpt><trkpt lat="40.07548973983674" lon="15.272229694447638"><ele>35.2</ele><time>2026-04-25T18:01:59Z</time></trkpt><trkpt lat="40.07540340905236" lon="15.272264199437927"><ele>33.0</ele><time>2026-04-25T18:02:00Z</time></trkpt><trkpt lat="40.07531956430528" lon="15.272301624084056"><ele>33.0</ele><time>2026-04-25T18:02:01Z</time></trkpt><trkpt lat="40.07523624043681" lon="15.27234030284162"><ele>33.0</ele><time>2026-04-25T18:02:02Z</time></trkpt><trkpt lat="40.075144703248654" lon="15.272385822144084"><ele>33.0</ele><time>2026-04-25T18:02:03Z</time></trkpt><trkpt lat="40.075057521170876" lon="15.272436244922796"><ele>33.0</ele><time>2026-04-25T18:02:04Z</time></trkpt><trkpt lat="40.07498025055277" lon="15.272505430079631"><ele>33.0</ele><time>2026-04-25T18:02:05Z</time></trkpt><trkpt lat="40.0749151228943" lon="15.272610718872857"><ele>30.599999999999998</ele><time>2026-04-25T18:02:06Z</time></trkpt><trkpt lat="40.07485584682944" lon="15.272732798264133"><ele>28.199999999999996</ele><time>2026-04-25T18:02:07Z</time></trkpt><trkpt lat="40.07480107291359" lon="15.272845359860597"><ele>25.8</ele><time>2026-04-25T18:02:08Z</time></trkpt><trkpt lat="40.07473949963488" lon="15.27294886355862"><ele>23.4</ele><time>2026-04-25T18:02:09Z</time></trkpt><trkpt lat="40.074680567559476" lon="15.273052869763768"><ele>21.0</ele><time>2026-04-25T18:02:10Z</time></trkpt><trkpt lat="40.07461969610222" lon="15.273149834826382"><ele>21.0</ele><time>2026-04-25T18:02:11Z</time></trkpt><trkpt lat="40.07455581356295" lon="15.273245559210997"><ele>21.0</ele><time>2026-04-25T18:02:12Z</time></trkpt><trkpt lat="40.07448787889782" lon="15.273338272155838"><ele>21.0</ele><time>2026-04-25T18:02:13Z</time></trkpt><trkpt lat="40.07441803778576" lon="15.273427926466002"><ele>21.0</ele><time>2026-04-25T18:02:14Z</time></trkpt><trkpt lat="40.074347454479394" lon="15.273514613727214"><ele>21.0</ele><time>2026-04-25T18:02:15Z</time></trkpt><trkpt lat="40.07427483102118" lon="15.273595643410816"><ele>21.0</ele><time>2026-04-25T18:02:16Z</time></trkpt><trkpt lat="40.07418907225349" lon="15.27366278582101"><ele>21.0</ele><time>2026-04-25T18:02:17Z</time></trkpt><trkpt lat="40.07408590498879" lon="15.273712399378836"><ele>21.0</ele><time>2026-04-25T18:02:18Z</time></trkpt><trkpt lat="40.07398344012209" lon="15.27373745878744"><ele>21.0</ele><time>2026-04-25T18:02:19Z</time></trkpt><trkpt lat="40.073882490332394" lon="15.273749117294814"><ele>21.0</ele><time>2026-04-25T18:02:20Z</time></trkpt><trkpt lat="40.073778660864605" lon="15.273754450010856"><ele>20.2</ele><time>2026-04-25T18:02:21Z</time></trkpt><trkpt lat="40.073675366665746" lon="15.273741823206306"><ele>19.400000000000002</ele><time>2026-04-25T18:02:22Z</time></trkpt><trkpt lat="40.07357288691483" lon="15.273703508190735"><ele>18.6</ele><time>2026-04-25T18:02:23Z</time></trkpt><trkpt lat="40.07346489716958" lon="15.273678473562095"><ele>17.8</ele><time>2026-04-25T18:02:24Z</time></trkpt><trkpt lat="40.073358491712526" lon="15.273653631026075"><ele>17.0</ele><time>2026-04-25T18:02:25Z</time></trkpt><trkpt lat="40.07324707353465" lon="15.273625219646807"><ele>16.6</ele><time>2026-04-25T18:02:26Z</time></trkpt><trkpt lat="40.073142339252335" lon="15.273600626901649"><ele>16.2</ele><time>2026-04-25T18:02:26.999Z</time></trkpt><trkpt lat="40.073035358433" lon="15.273579238880647"><ele>15.8</ele><time>2026-04-25T18:02:27.999Z</time></trkpt><trkpt lat="40.072928198420335" lon="15.273561374724872"><ele>15.4</ele><time>2026-04-25T18:02:28.999Z</time></trkpt><trkpt lat="40.07281947359424" lon="15.273553282582698"><ele>15.0</ele><time>2026-04-25T18:02:29.999Z</time></trkpt><trkpt lat="40.072711640176955" lon="15.273566708127808"><ele>15.0</ele><time>2026-04-25T18:02:30.999Z</time></trkpt><trkpt lat="40.07260245283395" lon="15.273593216463148"><ele>15.0</ele><time>2026-04-25T18:02:31.999Z</time></trkpt><trkpt lat="40.07249515593409" lon="15.27363477955628"><ele>15.0</ele><time>2026-04-25T18:02:32.999Z</time></trkpt><trkpt lat="40.07239060072554" lon="15.273698745045497"><ele>15.0</ele><time>2026-04-25T18:02:33.999Z</time></trkpt><trkpt lat="40.072295056756126" lon="15.273768350647005"><ele>15.0</ele><time>2026-04-25T18:02:34.999Z</time></trkpt><trkpt lat="40.07221466628019" lon="15.27383286227311"><ele>14.2</ele><time>2026-04-25T18:02:35.999Z</time></trkpt><trkpt lat="40.07214499641648" lon="15.273915846116061"><ele>13.4</ele><time>2026-04-25T18:02:36.999Z</time></trkpt><trkpt lat="40.07209544631757" lon="15.27401691447201"><ele>12.600000000000001</ele><time>2026-04-25T18:02:37.999Z</time></trkpt><trkpt lat="40.07206183607712" lon="15.27413869310583"><ele>11.8</ele><time>2026-04-25T18:02:38.999Z</time></trkpt><trkpt lat="40.072045397331415" lon="15.27425870914782"><ele>11.0</ele><time>2026-04-25T18:02:39.999Z</time></trkpt><trkpt lat="40.07203335702216" lon="15.274375749438034"><ele>11.0</ele><time>2026-04-25T18:02:40.999Z</time></trkpt><trkpt lat="40.0720193664138" lon="15.274490633797942"><ele>11.0</ele><time>2026-04-25T18:02:41.999Z</time></trkpt><trkpt lat="40.07200444337859" lon="15.274601921638663"><ele>11.0</ele><time>2026-04-25T18:02:42.999Z</time></trkpt><trkpt lat="40.07199489628841" lon="15.274711234676209"><ele>11.0</ele><time>2026-04-25T18:02:43.999Z</time></trkpt><trkpt lat="40.07198398307696" lon="15.274821196077776"><ele>11.0</ele><time>2026-04-25T18:02:44.999Z</time></trkpt><trkpt lat="40.071967388525216" lon="15.27493795512448"><ele>11.0</ele><time>2026-04-25T18:02:45.999Z</time></trkpt><trkpt lat="40.07194598779853" lon="15.275049925739644"><ele>10.600000000000001</ele><time>2026-04-25T18:02:46.999Z</time></trkpt><trkpt lat="40.07191944351172" lon="15.275153812659084"><ele>10.200000000000001</ele><time>2026-04-25T18:02:47.999Z</time></trkpt><trkpt lat="40.07187085201317" lon="15.275245706791022"><ele>9.8</ele><time>2026-04-25T18:02:48.999Z</time></trkpt><trkpt lat="40.07180039011442" lon="15.275322771460722"><ele>9.4</ele><time>2026-04-25T18:02:49.999Z</time></trkpt><trkpt lat="40.071707441204" lon="15.275373705951601"><ele>9.0</ele><time>2026-04-25T18:02:50.999Z</time></trkpt><trkpt lat="40.071606542322584" lon="15.27540389896999"><ele>9.0</ele><time>2026-04-25T18:02:51.999Z</time></trkpt><trkpt lat="40.071508108061245" lon="15.275424750562012"><ele>9.0</ele><time>2026-04-25T18:02:52.999Z</time></trkpt><trkpt lat="40.07141182987564" lon="15.275431727114157"><ele>9.0</ele><time>2026-04-25T18:02:53.999Z</time></trkpt><trkpt lat="40.071308523597864" lon="15.275424987723385"><ele>9.0</ele><time>2026-04-25T18:02:54.999Z</time></trkpt><trkpt lat="40.07119656266315" lon="15.275412710660191"><ele>9.0</ele><time>2026-04-25T18:02:55.999Z</time></trkpt><trkpt lat="40.07108036335597" lon="15.275410694011983"><ele>9.0</ele><time>2026-04-25T18:02:56.999Z</time></trkpt><trkpt lat="40.07096679756139" lon="15.275409576686014"><ele>9.0</ele><time>2026-04-25T18:02:57.999Z</time></trkpt><trkpt lat="40.07085423595094" lon="15.275398706359763"><ele>9.0</ele><time>2026-04-25T18:02:58.999Z</time></trkpt><trkpt lat="40.070746091470085" lon="15.275391800214964"><ele>9.0</ele><time>2026-04-25T18:02:59.999Z</time></trkpt><trkpt lat="40.07064364265169" lon="15.27538595826246"><ele>9.0</ele><time>2026-04-25T18:03:00.999Z</time></trkpt><trkpt lat="40.0705445073404" lon="15.2753844914739"><ele>8.25</ele><time>2026-04-25T18:03:01.999Z</time></trkpt><trkpt lat="40.070440007394154" lon="15.275396505227102"><ele>7.5</ele><time>2026-04-25T18:03:02.999Z</time></trkpt><trkpt lat="40.070335569880505" lon="15.275421130471289"><ele>6.75</ele><time>2026-04-25T18:03:03.999Z</time></trkpt><trkpt lat="40.070229248020766" lon="15.27546140497295"><ele>6.0</ele><time>2026-04-25T18:03:04.999Z</time></trkpt><trkpt lat="40.070107880086944" lon="15.275531690808435"><ele>6.666666666666666</ele><time>2026-04-25T18:03:05.999Z</time></trkpt><trkpt lat="40.06996995203738" lon="15.275616375359881"><ele>7.333333333333333</ele><time>2026-04-25T18:03:06.999Z</time></trkpt><trkpt lat="40.06981132739096" lon="15.275706578114695"><ele>8.0</ele><time>2026-04-25T18:03:07.999Z</time></trkpt><trkpt lat="40.06967428400304" lon="15.275781158555786"><ele>8.0</ele><time>2026-04-25T18:03:08.999Z</time></trkpt><trkpt lat="40.06955015663279" lon="15.275843008114865"><ele>8.0</ele><time>2026-04-25T18:03:09.999Z</time></trkpt><trkpt lat="40.069440465901636" lon="15.27590374139925"><ele>8.0</ele><time>2026-04-25T18:03:10.999Z</time></trkpt><trkpt lat="40.06933706500506" lon="15.275960303142286"><ele>8.0</ele><time>2026-04-25T18:03:11.999Z</time></trkpt><trkpt lat="40.06924185783576" lon="15.276011024705092"><ele>8.0</ele><time>2026-04-25T18:03:12.999Z</time></trkpt><trkpt lat="40.06915493624897" lon="15.276058947427705"><ele>8.0</ele><time>2026-04-25T18:03:13.999Z</time></trkpt><trkpt lat="40.06906810429459" lon="15.276111679164249"><ele>8.0</ele><time>2026-04-25T18:03:14.999Z</time></trkpt><trkpt lat="40.06897357509526" lon="15.276167841387645"><ele>8.0</ele><time>2026-04-25T18:03:15.999Z</time></trkpt><trkpt lat="40.06886218197545" lon="15.276244816190417"><ele>8.0</ele><time>2026-04-25T18:03:16.999Z</time></trkpt><trkpt lat="40.06874060284416" lon="15.27632814012906"><ele>7.5</ele><time>2026-04-25T18:03:17.999Z</time></trkpt><trkpt lat="40.068613059816286" lon="15.276408020200284"><ele>7.0</ele><time>2026-04-25T18:03:18.999Z</time></trkpt><trkpt lat="40.068481355338044" lon="15.27649003568899"><ele>6.5</ele><time>2026-04-25T18:03:19.999Z</time></trkpt><trkpt lat="40.06834616285125" lon="15.27657345290562"><ele>6.0</ele><time>2026-04-25T18:03:20.999Z</time></trkpt><trkpt lat="40.068218551315454" lon="15.27665158405505"><ele>5.75</ele><time>2026-04-25T18:03:21.999Z</time></trkpt><trkpt lat="40.06809134483231" lon="15.276735563954478"><ele>5.5</ele><time>2026-04-25T18:03:22.999Z</time></trkpt><trkpt lat="40.06796890235303" lon="15.276822153088686"><ele>5.25</ele><time>2026-04-25T18:03:23.999Z</time></trkpt><trkpt lat="40.06783988368825" lon="15.276908174754041"><ele>5.0</ele><time>2026-04-25T18:03:24.999Z</time></trkpt><trkpt lat="40.06771063221024" lon="15.27698784574019"><ele>5.0</ele><time>2026-04-25T18:03:25.999Z</time></trkpt><trkpt lat="40.067589567457226" lon="15.277060953968364"><ele>5.0</ele><time>2026-04-25T18:03:26.999Z</time></trkpt><trkpt lat="40.06747133265085" lon="15.277130622013653"><ele>5.0</ele><time>2026-04-25T18:03:27.999Z</time></trkpt><trkpt lat="40.06735769115458" lon="15.277207123934563"><ele>5.0</ele><time>2026-04-25T18:03:28.999Z</time></trkpt><trkpt lat="40.06724088966051" lon="15.277295761740598"><ele>5.75</ele><time>2026-04-25T18:03:29.999Z</time></trkpt><trkpt lat="40.067121923050955" lon="15.277381986420805"><ele>6.5</ele><time>2026-04-25T18:03:30.999Z</time></trkpt><trkpt lat="40.06701093936615" lon="15.277441681331124"><ele>7.25</ele><time>2026-04-25T18:03:31.999Z</time></trkpt><trkpt lat="40.06690863998382" lon="15.277496711583993"><ele>8.0</ele><time>2026-04-25T18:03:32.999Z</time></trkpt><trkpt lat="40.06681278157774" lon="15.27754948205059"><ele>8.0</ele><time>2026-04-25T18:03:33.999Z</time></trkpt><trkpt lat="40.06672685360849" lon="15.27759714502704"><ele>8.0</ele><time>2026-04-25T18:03:34.999Z</time></trkpt><trkpt lat="40.06664799027095" lon="15.27763825844645"><ele>8.0</ele><time>2026-04-25T18:03:35.999Z</time></trkpt><trkpt lat="40.06656444639974" lon="15.277681194055297"><ele>8.0</ele><time>2026-04-25T18:03:36.999Z</time></trkpt><trkpt lat="40.06647290610255" lon="15.277729032051903"><ele>8.0</ele><time>2026-04-25T18:03:37.999Z</time></trkpt><trkpt lat="40.066364027440045" lon="15.277798069789094"><ele>7.75</ele><time>2026-04-25T18:03:38.999Z</time></trkpt><trkpt lat="40.0662485225169" lon="15.277868627617897"><ele>7.5</ele><time>2026-04-25T18:03:39.999Z</time></trkpt><trkpt lat="40.066111819916706" lon="15.277949088785627"><ele>7.25</ele><time>2026-04-25T18:03:40.999Z</time></trkpt><trkpt lat="40.06595990838099" lon="15.278029040211917"><ele>7.0</ele><time>2026-04-25T18:03:41.999Z</time></trkpt><trkpt lat="40.06580509480311" lon="15.278100369384262"><ele>7.666666666666667</ele><time>2026-04-25T18:03:42.998Z</time></trkpt><trkpt lat="40.06565841489049" lon="15.278163341019408"><ele>8.333333333333334</ele><time>2026-04-25T18:03:43.998Z</time></trkpt><trkpt lat="40.065515194144815" lon="15.27822002803485"><ele>9.0</ele><time>2026-04-25T18:03:44.998Z</time></trkpt><trkpt lat="40.065367741251784" lon="15.278281652512806"><ele>9.0</ele><time>2026-04-25T18:03:45.998Z</time></trkpt><trkpt lat="40.06521490444913" lon="15.278351062386257"><ele>9.0</ele><time>2026-04-25T18:03:46.998Z</time></trkpt><trkpt lat="40.065057442896155" lon="15.27842744246653"><ele>9.0</ele><time>2026-04-25T18:03:47.998Z</time></trkpt><trkpt lat="40.06489050512249" lon="15.278513797385253"><ele>7.666666666666667</ele><time>2026-04-25T18:03:48.998Z</time></trkpt><trkpt lat="40.06471598989343" lon="15.278589241468987"><ele>6.333333333333334</ele><time>2026-04-25T18:03:49.998Z</time></trkpt><trkpt lat="40.064564980768026" lon="15.278653619172179"><ele>5.0</ele><time>2026-04-25T18:03:50.998Z</time></trkpt><trkpt lat="40.064404719207445" lon="15.2787205253252"><ele>5.0</ele><time>2026-04-25T18:03:51.998Z</time></trkpt><trkpt lat="40.06424669233078" lon="15.278776403991545"><ele>5.0</ele><time>2026-04-25T18:03:52.998Z</time></trkpt><trkpt lat="40.06408856305468" lon="15.27883526054381"><ele>5.0</ele><time>2026-04-25T18:03:54Z</time></trkpt><trkpt lat="40.0639436749111" lon="15.278897328714715"><ele>7.0</ele><time>2026-04-25T18:03:55Z</time></trkpt><trkpt lat="40.063802421647075" lon="15.278963129178079"><ele>9.0</ele><time>2026-04-25T18:03:56Z</time></trkpt><trkpt lat="40.06365979685648" lon="15.279037442173488"><ele>11.0</ele><time>2026-04-25T18:03:57Z</time></trkpt><trkpt lat="40.0635124142866" lon="15.279131485255084"><ele>11.0</ele><time>2026-04-25T18:03:58Z</time></trkpt><trkpt lat="40.063362500820695" lon="15.279238735941611"><ele>11.0</ele><time>2026-04-25T18:03:59Z</time></trkpt><trkpt lat="40.063210826609954" lon="15.279351203360246"><ele>11.0</ele><time>2026-04-25T18:04:00Z</time></trkpt><trkpt lat="40.063059425981706" lon="15.27947121081045"><ele>11.0</ele><time>2026-04-25T18:04:01Z</time></trkpt><trkpt lat="40.06290304675236" lon="15.279596510493686"><ele>11.0</ele><time>2026-04-25T18:04:02Z</time></trkpt><trkpt lat="40.062746394100074" lon="15.279723048114525"><ele>11.0</ele><time>2026-04-25T18:04:03Z</time></trkpt><trkpt lat="40.06260239310077" lon="15.279842922080373"><ele>11.0</ele><time>2026-04-25T18:04:04Z</time></trkpt><trkpt lat="40.062460955724966" lon="15.27997012781856"><ele>11.0</ele><time>2026-04-25T18:04:05Z</time></trkpt><trkpt lat="40.06231217989051" lon="15.280104033489366"><ele>11.0</ele><time>2026-04-25T18:04:06Z</time></trkpt><trkpt lat="40.062162425463434" lon="15.280231581584328"><ele>9.333333333333332</ele><time>2026-04-25T18:04:07Z</time></trkpt><trkpt lat="40.06201284325497" lon="15.280359441732175"><ele>7.666666666666666</ele><time>2026-04-25T18:04:08Z</time></trkpt><trkpt lat="40.061863891717664" lon="15.280482087766037"><ele>6.0</ele><time>2026-04-25T18:04:09Z</time></trkpt><trkpt lat="40.06170856146797" lon="15.280596319047458"><ele>7.333333333333334</ele><time>2026-04-25T18:04:10Z</time></trkpt><trkpt lat="40.06154723993485" lon="15.280699223962301"><ele>8.666666666666668</ele><time>2026-04-25T18:04:11Z</time></trkpt><trkpt lat="40.06138235857946" lon="15.280783733479069"><ele>10.0</ele><time>2026-04-25T18:04:12Z</time></trkpt><trkpt lat="40.06121054117123" lon="15.280856944444865"><ele>10.0</ele><time>2026-04-25T18:04:13Z</time></trkpt><trkpt lat="40.061030741376086" lon="15.280920842034186"><ele>10.0</ele><time>2026-04-25T18:04:14Z</time></trkpt><trkpt lat="40.060851515188574" lon="15.280994099391195"><ele>10.0</ele><time>2026-04-25T18:04:15Z</time></trkpt><trkpt lat="40.06067361372643" lon="15.281072552711684"><ele>9.666666666666668</ele><time>2026-04-25T18:04:16Z</time></trkpt><trkpt lat="40.0605039361615" lon="15.281143870513981"><ele>9.333333333333334</ele><time>2026-04-25T18:04:17Z</time></trkpt><trkpt lat="40.060334617002695" lon="15.281215419279356"><ele>9.0</ele><time>2026-04-25T18:04:18Z</time></trkpt><trkpt lat="40.06015976053318" lon="15.28128864500466"><ele>9.0</ele><time>2026-04-25T18:04:19Z</time></trkpt><trkpt lat="40.05999239972855" lon="15.281357482366209"><ele>9.0</ele><time>2026-04-25T18:04:20Z</time></trkpt><trkpt lat="40.0598127267429" lon="15.281439747778892"><ele>9.0</ele><time>2026-04-25T18:04:21Z</time></trkpt><trkpt lat="40.059631506497524" lon="15.281523344802538"><ele>9.666666666666666</ele><time>2026-04-25T18:04:22Z</time></trkpt><trkpt lat="40.05943832417221" lon="15.281611126155276"><ele>10.333333333333332</ele><time>2026-04-25T18:04:23Z</time></trkpt><trkpt lat="40.059259502950624" lon="15.281688946472892"><ele>11.0</ele><time>2026-04-25T18:04:24Z</time></trkpt><trkpt lat="40.05908702930183" lon="15.281766262579255"><ele>9.666666666666666</ele><time>2026-04-25T18:04:25Z</time></trkpt><trkpt lat="40.05890232394641" lon="15.281840140989315"><ele>8.333333333333334</ele><time>2026-04-25T18:04:26Z</time></trkpt><trkpt lat="40.05871984589273" lon="15.281909208322531"><ele>7.0</ele><time>2026-04-25T18:04:27Z</time></trkpt><trkpt lat="40.0585462993789" lon="15.281973610859371"><ele>7.0</ele><time>2026-04-25T18:04:28Z</time></trkpt><trkpt lat="40.05837055833314" lon="15.282039296193181"><ele>7.0</ele><time>2026-04-25T18:04:29Z</time></trkpt><trkpt lat="40.05819171532466" lon="15.282107760415352"><ele>7.0</ele><time>2026-04-25T18:04:30Z</time></trkpt><trkpt lat="40.05801370497664" lon="15.282178668166356"><ele>5.0</ele><time>2026-04-25T18:04:31Z</time></trkpt><trkpt lat="40.05783621699171" lon="15.282245158880466"><ele>3.0</ele><time>2026-04-25T18:04:32Z</time></trkpt><trkpt lat="40.05766501835421" lon="15.282308660224944"><ele>1.0</ele><time>2026-04-25T18:04:33Z</time></trkpt><trkpt lat="40.05750866297074" lon="15.282363148264047"><ele>3.6666666666666665</ele><time>2026-04-25T18:04:33.999Z</time></trkpt><trkpt lat="40.05735975116864" lon="15.282415235555087"><ele>6.333333333333333</ele><time>2026-04-25T18:04:34.999Z</time></trkpt><trkpt lat="40.057201647825664" lon="15.282462157489588"><ele>9.0</ele><time>2026-04-25T18:04:35.999Z</time></trkpt><trkpt lat="40.05704395672506" lon="15.28250715076735"><ele>9.0</ele><time>2026-04-25T18:04:36.999Z</time></trkpt><trkpt lat="40.05689804692684" lon="15.282555674567861"><ele>9.0</ele><time>2026-04-25T18:04:37.999Z</time></trkpt><trkpt lat="40.0567716375623" lon="15.282597216440736"><ele>9.0</ele><time>2026-04-25T18:04:38.999Z</time></trkpt><trkpt lat="40.056637391025546" lon="15.28263210888458"><ele>9.0</ele><time>2026-04-25T18:04:39.999Z</time></trkpt><trkpt lat="40.056499432566284" lon="15.282669584315451"><ele>7.75</ele><time>2026-04-25T18:04:40.999Z</time></trkpt><trkpt lat="40.05636203760911" lon="15.282705857196117"><ele>6.5</ele><time>2026-04-25T18:04:41.999Z</time></trkpt><trkpt lat="40.05622996992654" lon="15.282741323657909"><ele>5.25</ele><time>2026-04-25T18:04:42.999Z</time></trkpt><trkpt lat="40.056107295761485" lon="15.282774375967351"><ele>4.0</ele><time>2026-04-25T18:04:43.999Z</time></trkpt><trkpt lat="40.05597743940897" lon="15.28281062375004"><ele>4.0</ele><time>2026-04-25T18:04:44.999Z</time></trkpt><trkpt lat="40.05584719198366" lon="15.282847961118332"><ele>4.0</ele><time>2026-04-25T18:04:45.999Z</time></trkpt><trkpt lat="40.055728288086925" lon="15.282876838781592"><ele>4.0</ele><time>2026-04-25T18:04:46.999Z</time></trkpt><trkpt lat="40.05561230919317" lon="15.282909918659877"><ele>4.0</ele><time>2026-04-25T18:04:47.999Z</time></trkpt><trkpt lat="40.05549227618083" lon="15.28294960836679"><ele>3.25</ele><time>2026-04-25T18:04:48.999Z</time></trkpt><trkpt lat="40.055366782429914" lon="15.282982549139376"><ele>2.5</ele><time>2026-04-25T18:04:49.999Z</time></trkpt><trkpt lat="40.055230626123006" lon="15.283028770498744"><ele>1.75</ele><time>2026-04-25T18:04:50.999Z</time></trkpt><trkpt lat="40.0550721472547" lon="15.283075587546554"><ele>1.0</ele><time>2026-04-25T18:04:51.999Z</time></trkpt><trkpt lat="40.05492589273949" lon="15.283103866032537"><ele>4.0</ele><time>2026-04-25T18:04:52.999Z</time></trkpt><trkpt lat="40.054771964855895" lon="15.28312290685796"><ele>7.0</ele><time>2026-04-25T18:04:53.999Z</time></trkpt><trkpt lat="40.05461553079785" lon="15.283141359355954"><ele>10.0</ele><time>2026-04-25T18:04:54.999Z</time></trkpt><trkpt lat="40.05445918119637" lon="15.283165493911106"><ele>10.0</ele><time>2026-04-25T18:04:55.999Z</time></trkpt><trkpt lat="40.05430931565984" lon="15.283188179669045"><ele>10.0</ele><time>2026-04-25T18:04:56.999Z</time></trkpt><trkpt lat="40.05416220723521" lon="15.283208115139223"><ele>10.0</ele><time>2026-04-25T18:04:57.999Z</time></trkpt><trkpt lat="40.054015655100926" lon="15.28322014166759"><ele>10.0</ele><time>2026-04-25T18:04:58.999Z</time></trkpt><trkpt lat="40.05386746253484" lon="15.283238097243302"><ele>9.666666666666668</ele><time>2026-04-25T18:04:59.999Z</time></trkpt><trkpt lat="40.0537143011962" lon="15.283258173175648"><ele>9.333333333333334</ele><time>2026-04-25T18:05:00.999Z</time></trkpt><trkpt lat="40.05355004447935" lon="15.28327346076583"><ele>9.0</ele><time>2026-04-25T18:05:01.999Z</time></trkpt><trkpt lat="40.05339084375199" lon="15.283286438278935"><ele>9.333333333333334</ele><time>2026-04-25T18:05:02.999Z</time></trkpt><trkpt lat="40.05323716374112" lon="15.283305127442507"><ele>9.666666666666668</ele><time>2026-04-25T18:05:03.999Z</time></trkpt><trkpt lat="40.05308263344016" lon="15.283323841367878"><ele>10.0</ele><time>2026-04-25T18:05:04.999Z</time></trkpt><trkpt lat="40.0529266051302" lon="15.28334108478791"><ele>10.0</ele><time>2026-04-25T18:05:05.999Z</time></trkpt><trkpt lat="40.052771781388515" lon="15.283365668471921"><ele>10.0</ele><time>2026-04-25T18:05:06.999Z</time></trkpt><trkpt lat="40.05261475068149" lon="15.28339686409649"><ele>10.0</ele><time>2026-04-25T18:05:07.999Z</time></trkpt><trkpt lat="40.05246007142787" lon="15.283432635934506"><ele>9.333333333333334</ele><time>2026-04-25T18:05:08.999Z</time></trkpt><trkpt lat="40.05230870954891" lon="15.283486045494106"><ele>8.666666666666666</ele><time>2026-04-25T18:05:09.999Z</time></trkpt><trkpt lat="40.0521601925428" lon="15.283555206656393"><ele>8.0</ele><time>2026-04-25T18:05:10.999Z</time></trkpt><trkpt lat="40.05201199957188" lon="15.283627014760999"><ele>8.0</ele><time>2026-04-25T18:05:11.999Z</time></trkpt><trkpt lat="40.05186518290423" lon="15.28369673566524"><ele>8.0</ele><time>2026-04-25T18:05:12.999Z</time></trkpt><trkpt lat="40.05172031916188" lon="15.283762975466235"><ele>8.0</ele><time>2026-04-25T18:05:13.999Z</time></trkpt><trkpt lat="40.051578779068386" lon="15.283826019524158"><ele>7.0</ele><time>2026-04-25T18:05:14.999Z</time></trkpt><trkpt lat="40.051434069427216" lon="15.283891823972086"><ele>6.0</ele><time>2026-04-25T18:05:15.999Z</time></trkpt><trkpt lat="40.05128289451003" lon="15.283961903789208"><ele>5.0</ele><time>2026-04-25T18:05:16.999Z</time></trkpt><trkpt lat="40.05112924929269" lon="15.284036792680054"><ele>8.0</ele><time>2026-04-25T18:05:17.999Z</time></trkpt><trkpt lat="40.050980490395645" lon="15.284120161349403"><ele>11.0</ele><time>2026-04-25T18:05:18.999Z</time></trkpt><trkpt lat="40.05082780199523" lon="15.284207306423541"><ele>14.0</ele><time>2026-04-25T18:05:19.999Z</time></trkpt><trkpt lat="40.05067535394856" lon="15.284295994460043"><ele>14.0</ele><time>2026-04-25T18:05:20.999Z</time></trkpt><trkpt lat="40.050523017916746" lon="15.284382715144094"><ele>14.0</ele><time>2026-04-25T18:05:21.999Z</time></trkpt><trkpt lat="40.05037357367205" lon="15.284466204346057"><ele>14.0</ele><time>2026-04-25T18:05:22.999Z</time></trkpt><trkpt lat="40.05022261723156" lon="15.284556840219519"><ele>14.0</ele><time>2026-04-25T18:05:23.999Z</time></trkpt><trkpt lat="40.05006421987289" lon="15.284650407677796"><ele>14.0</ele><time>2026-04-25T18:05:24.999Z</time></trkpt><trkpt lat="40.049915777483164" lon="15.28473832572518"><ele>14.0</ele><time>2026-04-25T18:05:25.999Z</time></trkpt><trkpt lat="40.0497673359526" lon="15.284822424397895"><ele>15.333333333333334</ele><time>2026-04-25T18:05:26.999Z</time></trkpt><trkpt lat="40.04961526498377" lon="15.284907687140203"><ele>16.666666666666668</ele><time>2026-04-25T18:05:27.999Z</time></trkpt><trkpt lat="40.049466127145045" lon="15.284990264179761"><ele>18.0</ele><time>2026-04-25T18:05:28.999Z</time></trkpt><trkpt lat="40.04931723117676" lon="15.285069305228303"><ele>18.0</ele><time>2026-04-25T18:05:29.999Z</time></trkpt><trkpt lat="40.04916408927328" lon="15.28514583434271"><ele>18.0</ele><time>2026-04-25T18:05:30.999Z</time></trkpt><trkpt lat="40.04900485774113" lon="15.285223935911821"><ele>18.0</ele><time>2026-04-25T18:05:31.999Z</time></trkpt><trkpt lat="40.04884674894259" lon="15.285307282748635"><ele>17.666666666666668</ele><time>2026-04-25T18:05:32.999Z</time></trkpt><trkpt lat="40.04869025022932" lon="15.285394711970756"><ele>17.333333333333336</ele><time>2026-04-25T18:05:33.999Z</time></trkpt><trkpt lat="40.048535059951185" lon="15.285478475883657"><ele>17.0</ele><time>2026-04-25T18:05:34.999Z</time></trkpt><trkpt lat="40.048376393872076" lon="15.285560518733028"><ele>19.333333333333336</ele><time>2026-04-25T18:05:35.999Z</time></trkpt><trkpt lat="40.04820982156939" lon="15.285646621741925"><ele>21.666666666666668</ele><time>2026-04-25T18:05:36.999Z</time></trkpt><trkpt lat="40.04803864677173" lon="15.285734139845509"><ele>24.0</ele><time>2026-04-25T18:05:37.999Z</time></trkpt><trkpt lat="40.04786406133557" lon="15.285836687389335"><ele>24.0</ele><time>2026-04-25T18:05:38.999Z</time></trkpt><trkpt lat="40.0476904162124" lon="15.285954102919057"><ele>24.0</ele><time>2026-04-25T18:05:39.999Z</time></trkpt><trkpt lat="40.047522247686224" lon="15.286079760439955"><ele>24.0</ele><time>2026-04-25T18:05:40.999Z</time></trkpt><trkpt lat="40.0473627806379" lon="15.286198769093646"><ele>23.0</ele><time>2026-04-25T18:05:41.999Z</time></trkpt><trkpt lat="40.04718882199161" lon="15.286321055233676"><ele>22.0</ele><time>2026-04-25T18:05:42.999Z</time></trkpt><trkpt lat="40.047022873028205" lon="15.28643651617825"><ele>21.0</ele><time>2026-04-25T18:05:43.999Z</time></trkpt><trkpt lat="40.04686096688107" lon="15.286545434599931"><ele>23.0</ele><time>2026-04-25T18:05:44.999Z</time></trkpt><trkpt lat="40.046701661968775" lon="15.286648567479412"><ele>25.0</ele><time>2026-04-25T18:05:45.999Z</time></trkpt><trkpt lat="40.04655542936613" lon="15.286739677947812"><ele>27.0</ele><time>2026-04-25T18:05:46.999Z</time></trkpt><trkpt lat="40.04641146662577" lon="15.286828350091668"><ele>27.0</ele><time>2026-04-25T18:05:47.999Z</time></trkpt><trkpt lat="40.046262246672704" lon="15.286925416534041"><ele>27.0</ele><time>2026-04-25T18:05:48.999Z</time></trkpt><trkpt lat="40.04610536304379" lon="15.28702541497107"><ele>27.0</ele><time>2026-04-25T18:05:49.998Z</time></trkpt><trkpt lat="40.045942701797536" lon="15.287111358840447"><ele>27.333333333333336</ele><time>2026-04-25T18:05:50.998Z</time></trkpt><trkpt lat="40.045766628938225" lon="15.287190920274822"><ele>27.666666666666668</ele><time>2026-04-25T18:05:51.998Z</time></trkpt><trkpt lat="40.04559135192258" lon="15.287258901177067"><ele>28.0</ele><time>2026-04-25T18:05:52.998Z</time></trkpt><trkpt lat="40.04543529114969" lon="15.287315308339116"><ele>28.75</ele><time>2026-04-25T18:05:53.998Z</time></trkpt><trkpt lat="40.04529627853805" lon="15.287372169298779"><ele>29.5</ele><time>2026-04-25T18:05:54.998Z</time></trkpt><trkpt lat="40.04516300257831" lon="15.287425812736023"><ele>30.25</ele><time>2026-04-25T18:05:55.998Z</time></trkpt><trkpt lat="40.045022849990886" lon="15.287491551273634"><ele>31.0</ele><time>2026-04-25T18:05:56.998Z</time></trkpt><trkpt lat="40.04488464704404" lon="15.2875745136741"><ele>31.0</ele><time>2026-04-25T18:05:57.998Z</time></trkpt><trkpt lat="40.044749804773325" lon="15.28766859696069"><ele>31.0</ele><time>2026-04-25T18:05:58.998Z</time></trkpt><trkpt lat="40.044617677770155" lon="15.28777474301344"><ele>31.0</ele><time>2026-04-25T18:06:00Z</time></trkpt><trkpt lat="40.04448946483443" lon="15.287883596180382"><ele>31.0</ele><time>2026-04-25T18:06:01Z</time></trkpt><trkpt lat="40.04435822656507" lon="15.287982619769046"><ele>31.0</ele><time>2026-04-25T18:06:02Z</time></trkpt><trkpt lat="40.0442254403534" lon="15.288082492026716"><ele>31.0</ele><time>2026-04-25T18:06:03Z</time></trkpt><trkpt lat="40.04409727861536" lon="15.288182739522757"><ele>31.75</ele><time>2026-04-25T18:06:04Z</time></trkpt><trkpt lat="40.04397487638675" lon="15.288287964026516"><ele>32.5</ele><time>2026-04-25T18:06:05Z</time></trkpt><trkpt lat="40.04385266772386" lon="15.288394694359127"><ele>33.25</ele><time>2026-04-25T18:06:06Z</time></trkpt><trkpt lat="40.0437278159294" lon="15.288502084708071"><ele>34.0</ele><time>2026-04-25T18:06:07Z</time></trkpt><trkpt lat="40.043594587801515" lon="15.288616188053576"><ele>34.0</ele><time>2026-04-25T18:06:08Z</time></trkpt><trkpt lat="40.04345566439795" lon="15.288734239152529"><ele>34.0</ele><time>2026-04-25T18:06:09Z</time></trkpt><trkpt lat="40.04331458094619" lon="15.288853145792489"><ele>34.0</ele><time>2026-04-25T18:06:10Z</time></trkpt><trkpt lat="40.04318059044954" lon="15.28897397374992"><ele>35.66666666666667</ele><time>2026-04-25T18:06:11Z</time></trkpt><trkpt lat="40.04304578134406" lon="15.289094525461929"><ele>37.333333333333336</ele><time>2026-04-25T18:06:12Z</time></trkpt><trkpt lat="40.04291369746064" lon="15.289204404016937"><ele>39.0</ele><time>2026-04-25T18:06:13Z</time></trkpt><trkpt lat="40.042791438354854" lon="15.289304214538028"><ele>39.0</ele><time>2026-04-25T18:06:14Z</time></trkpt><trkpt lat="40.042679429123176" lon="15.289401290813077"><ele>39.0</ele><time>2026-04-25T18:06:15Z</time></trkpt><trkpt lat="40.04258677940755" lon="15.289483623275954"><ele>39.0</ele><time>2026-04-25T18:06:16Z</time></trkpt><trkpt lat="40.042503569034444" lon="15.289548106799382"><ele>39.0</ele><time>2026-04-25T18:06:17Z</time></trkpt><trkpt lat="40.04243072521813" lon="15.289606743318993"><ele>39.0</ele><time>2026-04-25T18:06:18Z</time></trkpt><trkpt lat="40.04236633872789" lon="15.289653028004627"><ele>39.25</ele><time>2026-04-25T18:06:19Z</time></trkpt><trkpt lat="40.04225468087107" lon="15.289668774468826"><ele>39.5</ele><time>2026-04-25T18:06:21Z</time></trkpt><trkpt lat="40.04219381669623" lon="15.289769824037526"><ele>39.75</ele><time>2026-04-25T18:06:23Z</time></trkpt><trkpt lat="40.042271528546145" lon="15.289924485373886"><ele>40.0</ele><time>2026-04-25T18:06:25Z</time></trkpt><trkpt lat="40.04235724048849" lon="15.29002498450839"><ele>41.0</ele><time>2026-04-25T18:06:26Z</time></trkpt><trkpt lat="40.0424472287466" lon="15.290150276244264"><ele>42.0</ele><time>2026-04-25T18:06:27Z</time></trkpt><trkpt lat="40.04253478716972" lon="15.290275838907128"><ele>43.0</ele><time>2026-04-25T18:06:28Z</time></trkpt><trkpt lat="40.0425955627241" lon="15.290434896622115"><ele>44.0</ele><time>2026-04-25T18:06:29Z</time></trkpt><trkpt lat="40.04268323576614" lon="15.29053825227775"><ele>41.25</ele><time>2026-04-25T18:06:30Z</time></trkpt><trkpt lat="40.042790427607656" lon="15.290593703028659"><ele>38.5</ele><time>2026-04-25T18:06:31Z</time></trkpt><trkpt lat="40.04289023444665" lon="15.29066752477456"><ele>35.75</ele><time>2026-04-25T18:06:32Z</time></trkpt><trkpt lat="40.043018223695334" lon="15.290716665760726"><ele>33.0</ele><time>2026-04-25T18:06:33Z</time></trkpt><trkpt lat="40.04316403145437" lon="15.290723382661369"><ele>33.333333333333336</ele><time>2026-04-25T18:06:34Z</time></trkpt><trkpt lat="40.04331174036765" lon="15.290758010837507"><ele>33.66666666666667</ele><time>2026-04-25T18:06:35Z</time></trkpt><trkpt lat="40.04346080092022" lon="15.290758119549675"><ele>34.0</ele><time>2026-04-25T18:06:36Z</time></trkpt><trkpt lat="40.04361546434136" lon="15.290746013631592"><ele>34.0</ele><time>2026-04-25T18:06:37Z</time></trkpt><trkpt lat="40.04378791498482" lon="15.290712112534605"><ele>34.0</ele><time>2026-04-25T18:06:38Z</time></trkpt><trkpt lat="40.04395072964251" lon="15.290674155342167"><ele>34.0</ele><time>2026-04-25T18:06:38.999Z</time></trkpt><trkpt lat="40.04409771670423" lon="15.290643085031144"><ele>33.5</ele><time>2026-04-25T18:06:39.999Z</time></trkpt><trkpt lat="40.044237134279236" lon="15.290614625377904"><ele>33.0</ele><time>2026-04-25T18:06:40.999Z</time></trkpt><trkpt lat="40.04437739722834" lon="15.290598520796962"><ele>32.5</ele><time>2026-04-25T18:06:41.999Z</time></trkpt><trkpt lat="40.044521935494004" lon="15.290609001517963"><ele>32.0</ele><time>2026-04-25T18:06:42.999Z</time></trkpt><trkpt lat="40.044662333482094" lon="15.290658559632138"><ele>32.0</ele><time>2026-04-25T18:06:43.999Z</time></trkpt><trkpt lat="40.044806743581844" lon="15.290705628064124"><ele>32.0</ele><time>2026-04-25T18:06:44.999Z</time></trkpt><trkpt lat="40.044939511609456" lon="15.290790994363123"><ele>32.0</ele><time>2026-04-25T18:06:45.999Z</time></trkpt><trkpt lat="40.04509220447832" lon="15.29082483046258"><ele>30.5</ele><time>2026-04-25T18:06:46.999Z</time></trkpt><trkpt lat="40.045240509985106" lon="15.290832278290104"><ele>29.0</ele><time>2026-04-25T18:06:47.999Z</time></trkpt><trkpt lat="40.04538151682009" lon="15.290819108502593"><ele>27.5</ele><time>2026-04-25T18:06:48.999Z</time></trkpt><trkpt lat="40.045501937626696" lon="15.290797958383381"><ele>26.0</ele><time>2026-04-25T18:06:49.999Z</time></trkpt><trkpt lat="40.04559615289651" lon="15.29077754661946"><ele>26.0</ele><time>2026-04-25T18:06:50.999Z</time></trkpt><trkpt lat="40.04568538837288" lon="15.290760069359314"><ele>26.0</ele><time>2026-04-25T18:06:51.999Z</time></trkpt><trkpt lat="40.04578570248714" lon="15.290772358191056"><ele>26.0</ele><time>2026-04-25T18:06:52.999Z</time></trkpt><trkpt lat="40.04587166413107" lon="15.290836396766968"><ele>26.0</ele><time>2026-04-25T18:06:53.999Z</time></trkpt><trkpt lat="40.04593933863076" lon="15.29093336808731"><ele>26.0</ele><time>2026-04-25T18:06:54.999Z</time></trkpt><trkpt lat="40.045992282247454" lon="15.291077030347287"><ele>24.333333333333332</ele><time>2026-04-25T18:06:55.999Z</time></trkpt><trkpt lat="40.046027652088085" lon="15.291253657688237"><ele>22.666666666666664</ele><time>2026-04-25T18:06:56.999Z</time></trkpt><trkpt lat="40.04606032169638" lon="15.291450659731515"><ele>21.0</ele><time>2026-04-25T18:06:57.999Z</time></trkpt><trkpt lat="40.04610712529272" lon="15.291659874706866"><ele>18.333333333333332</ele><time>2026-04-25T18:06:58.999Z</time></trkpt><trkpt lat="40.04615249206916" lon="15.291860615286469"><ele>15.666666666666666</ele><time>2026-04-25T18:06:59.999Z</time></trkpt><trkpt lat="40.04619779360125" lon="15.292064695910682"><ele>13.0</ele><time>2026-04-25T18:07:00.999Z</time></trkpt><trkpt lat="40.04624608584373" lon="15.292283492889348"><ele>13.0</ele><time>2026-04-25T18:07:01.999Z</time></trkpt><trkpt lat="40.046291275531985" lon="15.292497655657256"><ele>13.0</ele><time>2026-04-25T18:07:02.999Z</time></trkpt><trkpt lat="40.046342407517784" lon="15.29270541392894"><ele>13.0</ele><time>2026-04-25T18:07:03.999Z</time></trkpt><trkpt lat="40.04639430377028" lon="15.29290064823123"><ele>12.666666666666666</ele><time>2026-04-25T18:07:04.999Z</time></trkpt><trkpt lat="40.04644920897842" lon="15.29310282865345"><ele>12.333333333333332</ele><time>2026-04-25T18:07:05.999Z</time></trkpt><trkpt lat="40.04650721810304" lon="15.29331896152397"><ele>12.0</ele><time>2026-04-25T18:07:06.999Z</time></trkpt><trkpt lat="40.046565213658425" lon="15.293537308145083"><ele>12.0</ele><time>2026-04-25T18:07:07.999Z</time></trkpt><trkpt lat="40.04662278848145" lon="15.293766260534401"><ele>12.0</ele><time>2026-04-25T18:07:08.999Z</time></trkpt><trkpt lat="40.04668278648639" lon="15.294001315267671"><ele>12.0</ele><time>2026-04-25T18:07:09.999Z</time></trkpt><trkpt lat="40.04674421928947" lon="15.29425131790737"><ele>12.0</ele><time>2026-04-25T18:07:10.999Z</time></trkpt><trkpt lat="40.04680377488153" lon="15.294486070280312"><ele>12.0</ele><time>2026-04-25T18:07:11.999Z</time></trkpt><trkpt lat="40.04685501446996" lon="15.294692170119566"><ele>12.0</ele><time>2026-04-25T18:07:12.999Z</time></trkpt><trkpt lat="40.046897894291476" lon="15.294889513260754"><ele>12.0</ele><time>2026-04-25T18:07:13.999Z</time></trkpt><trkpt lat="40.04693426315032" lon="15.295091210344161"><ele>12.0</ele><time>2026-04-25T18:07:14.999Z</time></trkpt><trkpt lat="40.04697100717352" lon="15.295302032691154"><ele>12.0</ele><time>2026-04-25T18:07:15.999Z</time></trkpt><trkpt lat="40.04699862347727" lon="15.295539438667301"><ele>11.666666666666666</ele><time>2026-04-25T18:07:16.999Z</time></trkpt><trkpt lat="40.04700512157846" lon="15.29579305947682"><ele>11.333333333333332</ele><time>2026-04-25T18:07:17.999Z</time></trkpt><trkpt lat="40.04699091130714" lon="15.296045175769214"><ele>11.0</ele><time>2026-04-25T18:07:18.999Z</time></trkpt><trkpt lat="40.04695370529862" lon="15.296287861136681"><ele>12.0</ele><time>2026-04-25T18:07:19.999Z</time></trkpt><trkpt lat="40.04690101955246" lon="15.296521829356234"><ele>13.0</ele><time>2026-04-25T18:07:20.999Z</time></trkpt><trkpt lat="40.04683910421654" lon="15.296744298320988"><ele>14.0</ele><time>2026-04-25T18:07:21.999Z</time></trkpt><trkpt lat="40.04676473005088" lon="15.29694084530384"><ele>14.0</ele><time>2026-04-25T18:07:22.999Z</time></trkpt><trkpt lat="40.0466714430988" lon="15.297128392819006"><ele>14.0</ele><time>2026-04-25T18:07:23.999Z</time></trkpt><trkpt lat="40.04656268695605" lon="15.297300539176742"><ele>14.0</ele><time>2026-04-25T18:07:24.999Z</time></trkpt><trkpt lat="40.0464411388573" lon="15.297454714355474"><ele>14.666666666666668</ele><time>2026-04-25T18:07:25.999Z</time></trkpt><trkpt lat="40.04630853767157" lon="15.297593093882247"><ele>15.333333333333332</ele><time>2026-04-25T18:07:26.999Z</time></trkpt><trkpt lat="40.0461654338939" lon="15.297716074200535"><ele>16.0</ele><time>2026-04-25T18:07:27.999Z</time></trkpt><trkpt lat="40.04601410579738" lon="15.297836333731832"><ele>16.0</ele><time>2026-04-25T18:07:28.999Z</time></trkpt><trkpt lat="40.04584755195424" lon="15.297973775769881"><ele>16.0</ele><time>2026-04-25T18:07:29.999Z</time></trkpt><trkpt lat="40.04566843701831" lon="15.298124325350189"><ele>16.0</ele><time>2026-04-25T18:07:30.999Z</time></trkpt><trkpt lat="40.045488660104226" lon="15.298277772150616"><ele>16.333333333333332</ele><time>2026-04-25T18:07:31.999Z</time></trkpt><trkpt lat="40.04531975756228" lon="15.298425193085663"><ele>16.666666666666668</ele><time>2026-04-25T18:07:32.999Z</time></trkpt><trkpt lat="40.045155288763844" lon="15.298564557963088"><ele>17.0</ele><time>2026-04-25T18:07:33.999Z</time></trkpt><trkpt lat="40.04498628367532" lon="15.29869742525421"><ele>16.666666666666668</ele><time>2026-04-25T18:07:34.999Z</time></trkpt><trkpt lat="40.04481607043884" lon="15.298829917006415"><ele>16.333333333333332</ele><time>2026-04-25T18:07:35.999Z</time></trkpt><trkpt lat="40.044649519313715" lon="15.298962152592503"><ele>16.0</ele><time>2026-04-25T18:07:36.999Z</time></trkpt><trkpt lat="40.04448755078392" lon="15.299091913351509"><ele>16.0</ele><time>2026-04-25T18:07:37.999Z</time></trkpt><trkpt lat="40.04430664013354" lon="15.299217424832435"><ele>16.0</ele><time>2026-04-25T18:07:38.999Z</time></trkpt><trkpt lat="40.04412472099036" lon="15.299324206101277"><ele>16.0</ele><time>2026-04-25T18:07:39.999Z</time></trkpt><trkpt lat="40.04395202171018" lon="15.299421613598662"><ele>15.333333333333332</ele><time>2026-04-25T18:07:40.999Z</time></trkpt><trkpt lat="40.04377746958733" lon="15.299509982742084"><ele>14.666666666666668</ele><time>2026-04-25T18:07:41.999Z</time></trkpt><trkpt lat="40.04360206047" lon="15.299593937106488"><ele>14.0</ele><time>2026-04-25T18:07:42.999Z</time></trkpt><trkpt lat="40.0434271000593" lon="15.299672090560417"><ele>14.0</ele><time>2026-04-25T18:07:43.999Z</time></trkpt><trkpt lat="40.04324671886033" lon="15.299747042253511"><ele>14.0</ele><time>2026-04-25T18:07:44.999Z</time></trkpt><trkpt lat="40.04306032165612" lon="15.299824914727711"><ele>14.0</ele><time>2026-04-25T18:07:45.999Z</time></trkpt><trkpt lat="40.0428772451346" lon="15.29990606137057"><ele>14.0</ele><time>2026-04-25T18:07:46.999Z</time></trkpt><trkpt lat="40.04269357559183" lon="15.299988012898027"><ele>14.0</ele><time>2026-04-25T18:07:47.999Z</time></trkpt><trkpt lat="40.04250594901594" lon="15.300064800657818"><ele>14.0</ele><time>2026-04-25T18:07:48.999Z</time></trkpt><trkpt lat="40.0423159871065" lon="15.300142739929669"><ele>13.0</ele><time>2026-04-25T18:07:49.999Z</time></trkpt><trkpt lat="40.042125788567" lon="15.300221293838014"><ele>12.0</ele><time>2026-04-25T18:07:50.999Z</time></trkpt><trkpt lat="40.04193545515936" lon="15.300303514439115"><ele>11.0</ele><time>2026-04-25T18:07:51.999Z</time></trkpt><trkpt lat="40.0417518317007" lon="15.300385635152415"><ele>10.333333333333332</ele><time>2026-04-25T18:07:52.999Z</time></trkpt><trkpt lat="40.041570404522275" lon="15.30046675975541"><ele>9.666666666666666</ele><time>2026-04-25T18:07:53.998Z</time></trkpt><trkpt lat="40.041391905021584" lon="15.300541053243377"><ele>9.0</ele><time>2026-04-25T18:07:54.998Z</time></trkpt><trkpt lat="40.04121309854039" lon="15.30061782358465"><ele>9.666666666666666</ele><time>2026-04-25T18:07:55.998Z</time></trkpt><trkpt lat="40.04103432263923" lon="15.300690943453217"><ele>10.333333333333332</ele><time>2026-04-25T18:07:56.998Z</time></trkpt><trkpt lat="40.04085329283761" lon="15.300765941707326"><ele>11.0</ele><time>2026-04-25T18:07:57.998Z</time></trkpt><trkpt lat="40.040673376781236" lon="15.30084215623788"><ele>11.0</ele><time>2026-04-25T18:07:58.998Z</time></trkpt><trkpt lat="40.04049497781145" lon="15.300922566792925"><ele>11.0</ele><time>2026-04-25T18:07:59.998Z</time></trkpt><trkpt lat="40.040324394851254" lon="15.300995857110594"><ele>11.0</ele><time>2026-04-25T18:08:00.998Z</time></trkpt><trkpt lat="40.04016731466477" lon="15.30106310319443"><ele>11.0</ele><time>2026-04-25T18:08:01.998Z</time></trkpt><trkpt lat="40.040012424644544" lon="15.301133738769698"><ele>11.0</ele><time>2026-04-25T18:08:02.998Z</time></trkpt><trkpt lat="40.03985647477887" lon="15.301201119637044"><ele>11.0</ele><time>2026-04-25T18:08:03.998Z</time></trkpt><trkpt lat="40.03970021896157" lon="15.301264848227726"><ele>10.666666666666666</ele><time>2026-04-25T18:08:04.998Z</time></trkpt><trkpt lat="40.039548579489974" lon="15.301327814617766"><ele>10.333333333333334</ele><time>2026-04-25T18:08:06Z</time></trkpt><trkpt lat="40.03940159697202" lon="15.301393319497247"><ele>10.0</ele><time>2026-04-25T18:08:07Z</time></trkpt><trkpt lat="40.03925943869994" lon="15.301457374973651"><ele>9.75</ele><time>2026-04-25T18:08:08Z</time></trkpt><trkpt lat="40.03911914035222" lon="15.30152022089825"><ele>9.5</ele><time>2026-04-25T18:08:09Z</time></trkpt><trkpt lat="40.03897869241653" lon="15.301578290463572"><ele>9.25</ele><time>2026-04-25T18:08:10Z</time></trkpt><trkpt lat="40.03884518999816" lon="15.301644817070152"><ele>9.0</ele><time>2026-04-25T18:08:11Z</time></trkpt><trkpt lat="40.03872227310408" lon="15.301727824440182"><ele>9.0</ele><time>2026-04-25T18:08:12Z</time></trkpt><trkpt lat="40.038601398383676" lon="15.301827951010923"><ele>9.0</ele><time>2026-04-25T18:08:13Z</time></trkpt><trkpt lat="40.03848650577855" lon="15.301945434249081"><ele>9.0</ele><time>2026-04-25T18:08:14Z</time></trkpt><trkpt lat="40.038385342915326" lon="15.302065338145285"><ele>9.0</ele><time>2026-04-25T18:08:15Z</time></trkpt><trkpt lat="40.0382938780621" lon="15.30219288688203"><ele>10.0</ele><time>2026-04-25T18:08:16Z</time></trkpt><trkpt lat="40.038214289740075" lon="15.302334417824635"><ele>11.0</ele><time>2026-04-25T18:08:17Z</time></trkpt><trkpt lat="40.0381447451195" lon="15.302484876211855"><ele>12.0</ele><time>2026-04-25T18:08:18Z</time></trkpt><trkpt lat="40.03807975783237" lon="15.302639375764818"><ele>13.0</ele><time>2026-04-25T18:08:19Z</time></trkpt><trkpt lat="40.03802551584683" lon="15.302793142599764"><ele>13.0</ele><time>2026-04-25T18:08:20Z</time></trkpt><trkpt lat="40.03798579349056" lon="15.302950295091701"><ele>13.0</ele><time>2026-04-25T18:08:21Z</time></trkpt><trkpt lat="40.037954696619245" lon="15.303114361392678"><ele>13.0</ele><time>2026-04-25T18:08:22Z</time></trkpt><trkpt lat="40.03793102925347" lon="15.303274574454633"><ele>13.0</ele><time>2026-04-25T18:08:23Z</time></trkpt><trkpt lat="40.03792366476726" lon="15.30342967673497"><ele>11.75</ele><time>2026-04-25T18:08:24Z</time></trkpt><trkpt lat="40.03792253108644" lon="15.303583328573932"><ele>10.5</ele><time>2026-04-25T18:08:25Z</time></trkpt><trkpt lat="40.037932931200196" lon="15.303739439460688"><ele>9.25</ele><time>2026-04-25T18:08:26Z</time></trkpt><trkpt lat="40.0379579975756" lon="15.303906655476238"><ele>8.0</ele><time>2026-04-25T18:08:27Z</time></trkpt><trkpt lat="40.038013109285494" lon="15.304118317385628"><ele>6.666666666666666</ele><time>2026-04-25T18:08:28Z</time></trkpt><trkpt lat="40.03806025254815" lon="15.304369440917196"><ele>5.333333333333333</ele><time>2026-04-25T18:08:29Z</time></trkpt><trkpt lat="40.038128216746564" lon="15.304622496996268"><ele>4.0</ele><time>2026-04-25T18:08:30Z</time></trkpt><trkpt lat="40.03819823752617" lon="15.30487549803681"><ele>3.6666666666666665</ele><time>2026-04-25T18:08:31Z</time></trkpt><trkpt lat="40.03828313796065" lon="15.305124471688227"><ele>3.333333333333333</ele><time>2026-04-25T18:08:32Z</time></trkpt><trkpt lat="40.03834387495263" lon="15.305365172252193"><ele>3.0</ele><time>2026-04-25T18:08:33Z</time></trkpt><trkpt lat="40.03840728238918" lon="15.30560170398298"><ele>4.0</ele><time>2026-04-25T18:08:34Z</time></trkpt><trkpt lat="40.03847078309511" lon="15.305835718944179"><ele>5.0</ele><time>2026-04-25T18:08:35Z</time></trkpt><trkpt lat="40.03853305067325" lon="15.306063171143053"><ele>6.0</ele><time>2026-04-25T18:08:36Z</time></trkpt><trkpt lat="40.03859253345849" lon="15.306284923454724"><ele>5.333333333333333</ele><time>2026-04-25T18:08:37Z</time></trkpt><trkpt lat="40.03865246188747" lon="15.306506463217946"><ele>4.666666666666666</ele><time>2026-04-25T18:08:38Z</time></trkpt><trkpt lat="40.038714812746136" lon="15.30672746080831"><ele>4.0</ele><time>2026-04-25T18:08:39Z</time></trkpt><trkpt lat="40.03877717271294" lon="15.30694790599122"><ele>4.0</ele><time>2026-04-25T18:08:40Z</time></trkpt><trkpt lat="40.03883810759981" lon="15.307170124382672"><ele>4.0</ele><time>2026-04-25T18:08:41Z</time></trkpt><trkpt lat="40.03889743292691" lon="15.30739201356967"><ele>4.0</ele><time>2026-04-25T18:08:42Z</time></trkpt><trkpt lat="40.0389529086001" lon="15.307616636407653"><ele>4.333333333333333</ele><time>2026-04-25T18:08:43Z</time></trkpt><trkpt lat="40.03900069085201" lon="15.307839938493418"><ele>4.666666666666667</ele><time>2026-04-25T18:08:44Z</time></trkpt><trkpt lat="40.039038530439946" lon="15.308067596616501"><ele>5.0</ele><time>2026-04-25T18:08:45Z</time></trkpt><trkpt lat="40.03906709410586" lon="15.30829540907597"><ele>5.0</ele><time>2026-04-25T18:08:45.999Z</time></trkpt><trkpt lat="40.039089063390946" lon="15.308517841795029"><ele>5.0</ele><time>2026-04-25T18:08:46.999Z</time></trkpt><trkpt lat="40.039107147879" lon="15.30873611533856"><ele>5.0</ele><time>2026-04-25T18:08:47.999Z</time></trkpt><trkpt lat="40.03911650262331" lon="15.308959724955532"><ele>5.333333333333334</ele><time>2026-04-25T18:08:48.999Z</time></trkpt><trkpt lat="40.03911597770827" lon="15.309182161039164"><ele>5.666666666666667</ele><time>2026-04-25T18:08:49.999Z</time></trkpt><trkpt lat="40.03911146666146" lon="15.309392410353201"><ele>6.0</ele><time>2026-04-25T18:08:50.999Z</time></trkpt><trkpt lat="40.039110207313534" lon="15.309605443081278"><ele>5.666666666666667</ele><time>2026-04-25T18:08:51.999Z</time></trkpt><trkpt lat="40.039116361254656" lon="15.309820413784324"><ele>5.333333333333334</ele><time>2026-04-25T18:08:52.999Z</time></trkpt><trkpt lat="40.039096257041884" lon="15.310032728079387"><ele>5.0</ele><time>2026-04-25T18:08:53.999Z</time></trkpt><trkpt lat="40.03909039239209" lon="15.310232740446175"><ele>5.0</ele><time>2026-04-25T18:08:54.999Z</time></trkpt><trkpt lat="40.03908623336312" lon="15.310446372643035"><ele>5.0</ele><time>2026-04-25T18:08:55.999Z</time></trkpt><trkpt lat="40.0390808991764" lon="15.310676005801216"><ele>5.0</ele><time>2026-04-25T18:08:56.999Z</time></trkpt><trkpt lat="40.039102595354116" lon="15.310915439168081"><ele>5.333333333333334</ele><time>2026-04-25T18:08:57.999Z</time></trkpt><trkpt lat="40.03909265739995" lon="15.311151906556349"><ele>5.666666666666667</ele><time>2026-04-25T18:08:58.999Z</time></trkpt><trkpt lat="40.03908453500138" lon="15.311384140985405"><ele>6.0</ele><time>2026-04-25T18:08:59.999Z</time></trkpt><trkpt lat="40.039081016395635" lon="15.31161298016668"><ele>6.0</ele><time>2026-04-25T18:09:00.999Z</time></trkpt><trkpt lat="40.03905211976999" lon="15.311833555102623"><ele>6.0</ele><time>2026-04-25T18:09:01.999Z</time></trkpt><trkpt lat="40.03904614893887" lon="15.312059747689382"><ele>6.0</ele><time>2026-04-25T18:09:02.999Z</time></trkpt><trkpt lat="40.039039986081036" lon="15.31229321477583"><ele>6.0</ele><time>2026-04-25T18:09:03.999Z</time></trkpt><trkpt lat="40.03903416856249" lon="15.312519480229966"><ele>6.0</ele><time>2026-04-25T18:09:04.999Z</time></trkpt><trkpt lat="40.03902817066041" lon="15.31275364224082"><ele>6.0</ele><time>2026-04-25T18:09:05.999Z</time></trkpt><trkpt lat="40.039025449887376" lon="15.312967519202894"><ele>5.75</ele><time>2026-04-25T18:09:06.999Z</time></trkpt><trkpt lat="40.03902331707913" lon="15.313169244117963"><ele>5.5</ele><time>2026-04-25T18:09:07.999Z</time></trkpt><trkpt lat="40.03901922064832" lon="15.31334804128023"><ele>5.25</ele><time>2026-04-25T18:09:08.999Z</time></trkpt><trkpt lat="40.03901974550596" lon="15.313489078386233"><ele>5.0</ele><time>2026-04-25T18:09:09.999Z</time></trkpt><trkpt lat="40.03899595743207" lon="15.31361129253096"><ele>5.0</ele><time>2026-04-25T18:09:10.999Z</time></trkpt><trkpt lat="40.03896192537945" lon="15.313727304420981"><ele>5.0</ele><time>2026-04-25T18:09:11.999Z</time></trkpt><trkpt lat="40.03891250808705" lon="15.31385860548241"><ele>5.0</ele><time>2026-04-25T18:09:12.999Z</time></trkpt><trkpt lat="40.03885248202576" lon="15.313987028168164"><ele>5.0</ele><time>2026-04-25T18:09:13.999Z</time></trkpt><trkpt lat="40.03878758136764" lon="15.314112189694542"><ele>5.0</ele><time>2026-04-25T18:09:14.999Z</time></trkpt><trkpt lat="40.038735458846084" lon="15.314217993312932"><ele>4.833333333333334</ele><time>2026-04-25T18:09:15.999Z</time></trkpt><trkpt lat="40.03869408406561" lon="15.314313053748434"><ele>4.666666666666667</ele><time>2026-04-25T18:09:16.999Z</time></trkpt><trkpt lat="40.038667193448894" lon="15.314402427354747"><ele>4.5</ele><time>2026-04-25T18:09:17.999Z</time></trkpt><trkpt lat="40.038668617767215" lon="15.314490978417219"><ele>4.333333333333333</ele><time>2026-04-25T18:09:18.999Z</time></trkpt><trkpt lat="40.03870091372126" lon="15.31458701556436"><ele>4.166666666666666</ele><time>2026-04-25T18:09:19.999Z</time></trkpt><trkpt lat="40.03875914926364" lon="15.314666858959995"><ele>4.0</ele><time>2026-04-25T18:09:20.999Z</time></trkpt><trkpt lat="40.03883407214257" lon="15.314740975975933"><ele>4.0</ele><time>2026-04-25T18:09:21.999Z</time></trkpt><trkpt lat="40.038897786980975" lon="15.31484957283311"><ele>4.0</ele><time>2026-04-25T18:09:22.999Z</time></trkpt><trkpt lat="40.03892893462147" lon="15.314976921717484"><ele>4.0</ele><time>2026-04-25T18:09:23.999Z</time></trkpt><trkpt lat="40.038940103268395" lon="15.315128904950628"><ele>4.0</ele><time>2026-04-25T18:09:24.999Z</time></trkpt><trkpt lat="40.03894294365159" lon="15.315303136457354"><ele>4.0</ele><time>2026-04-25T18:09:25.999Z</time></trkpt><trkpt lat="40.038941582099476" lon="15.315499110200907"><ele>4.0</ele><time>2026-04-25T18:09:26.999Z</time></trkpt><trkpt lat="40.038944915073564" lon="15.315711662550482"><ele>4.0</ele><time>2026-04-25T18:09:27.999Z</time></trkpt><trkpt lat="40.03895369303068" lon="15.315914559859083"><ele>4.333333333333333</ele><time>2026-04-25T18:09:28.999Z</time></trkpt><trkpt lat="40.03897139033334" lon="15.316131716027648"><ele>4.666666666666667</ele><time>2026-04-25T18:09:29.999Z</time></trkpt><trkpt lat="40.03899766521042" lon="15.316360217841913"><ele>5.0</ele><time>2026-04-25T18:09:30.999Z</time></trkpt><trkpt lat="40.039027212355435" lon="15.31658955859151"><ele>5.0</ele><time>2026-04-25T18:09:31.999Z</time></trkpt><trkpt lat="40.039062412285524" lon="15.3168049939663"><ele>5.0</ele><time>2026-04-25T18:09:32.999Z</time></trkpt><trkpt lat="40.039106694544174" lon="15.317022537787695"><ele>5.0</ele><time>2026-04-25T18:09:33.999Z</time></trkpt><trkpt lat="40.03915053401152" lon="15.317238458556483"><ele>5.0</ele><time>2026-04-25T18:09:34.999Z</time></trkpt><trkpt lat="40.039201074710334" lon="15.317455998709642"><ele>5.0</ele><time>2026-04-25T18:09:35.999Z</time></trkpt><trkpt lat="40.039266185922145" lon="15.31767108759936"><ele>5.0</ele><time>2026-04-25T18:09:36.999Z</time></trkpt><trkpt lat="40.03933748197831" lon="15.317890569958752"><ele>5.0</ele><time>2026-04-25T18:09:37.999Z</time></trkpt><trkpt lat="40.03941328813044" lon="15.318109459784765"><ele>5.0</ele><time>2026-04-25T18:09:38.999Z</time></trkpt><trkpt lat="40.039497361374" lon="15.318326350699088"><ele>5.0</ele><time>2026-04-25T18:09:39.999Z</time></trkpt><trkpt lat="40.039592050097184" lon="15.3185391248287"><ele>5.0</ele><time>2026-04-25T18:09:40.999Z</time></trkpt><trkpt lat="40.03969985164981" lon="15.318748192423332"><ele>5.0</ele><time>2026-04-25T18:09:41.999Z</time></trkpt><trkpt lat="40.03980664844794" lon="15.318935421665445"><ele>5.0</ele><time>2026-04-25T18:09:42.999Z</time></trkpt><trkpt lat="40.039884950568485" lon="15.319104324322852"><ele>4.75</ele><time>2026-04-25T18:09:43.999Z</time></trkpt><trkpt lat="40.03996084546253" lon="15.319227061353951"><ele>4.5</ele><time>2026-04-25T18:09:44.999Z</time></trkpt><trkpt lat="40.040033177893164" lon="15.319338768442881"><ele>4.25</ele><time>2026-04-25T18:09:45.999Z</time></trkpt><trkpt lat="40.040111501380395" lon="15.319451096402126"><ele>4.0</ele><time>2026-04-25T18:09:46.999Z</time></trkpt><trkpt lat="40.04018602549647" lon="15.319549865602353"><ele>4.6</ele><time>2026-04-25T18:09:47.999Z</time></trkpt><trkpt lat="40.040255619568384" lon="15.319641477381547"><ele>5.2</ele><time>2026-04-25T18:09:48.999Z</time></trkpt><trkpt lat="40.04032158844054" lon="15.319727591416642"><ele>5.799999999999999</ele><time>2026-04-25T18:09:49.999Z</time></trkpt><trkpt lat="40.04038961269405" lon="15.319806325340066"><ele>6.3999999999999995</ele><time>2026-04-25T18:09:50.999Z</time></trkpt><trkpt lat="40.04046582937126" lon="15.319892758182561"><ele>7.0</ele><time>2026-04-25T18:09:51.999Z</time></trkpt><trkpt lat="40.0405469012279" lon="15.319981589389771"><ele>7.0</ele><time>2026-04-25T18:09:52.999Z</time></trkpt><trkpt lat="40.04062709729072" lon="15.320066050023932"><ele>6.999999999999999</ele><time>2026-04-25T18:09:53.999Z</time></trkpt><trkpt lat="40.040701629883266" lon="15.320140102191168"><ele>6.999999999999999</ele><time>2026-04-25T18:09:54.999Z</time></trkpt><trkpt lat="40.04077029332154" lon="15.320203402285903"><ele>7.0</ele><time>2026-04-25T18:09:55.999Z</time></trkpt><trkpt lat="40.04084185695379" lon="15.320264931799302"><ele>7.0</ele><time>2026-04-25T18:09:56.999Z</time></trkpt><trkpt lat="40.04091411738163" lon="15.32032706040828"><ele>7.0</ele><time>2026-04-25T18:09:57.999Z</time></trkpt><trkpt lat="40.040984930219274" lon="15.320387944396122"><ele>6.999999999999999</ele><time>2026-04-25T18:09:58.999Z</time></trkpt><trkpt lat="40.04107134954317" lon="15.320419250410373"><ele>6.999999999999999</ele><time>2026-04-25T18:09:59.998Z</time></trkpt><trkpt lat="40.041144614536464" lon="15.320480599787148"><ele>7.0</ele><time>2026-04-25T18:10:00.998Z</time></trkpt><trkpt lat="40.04122908148457" lon="15.320546102291413"><ele>7.0</ele><time>2026-04-25T18:10:01.998Z</time></trkpt><trkpt lat="40.041325074404625" lon="15.320611399161788"><ele>7.0</ele><time>2026-04-25T18:10:02.998Z</time></trkpt><trkpt lat="40.04141470139876" lon="15.320705039604364"><ele>7.0</ele><time>2026-04-25T18:10:03.998Z</time></trkpt><trkpt lat="40.04151851318894" lon="15.320777444578445"><ele>7.0</ele><time>2026-04-25T18:10:04.998Z</time></trkpt><trkpt lat="40.041630335552405" lon="15.320856056665763"><ele>7.0</ele><time>2026-04-25T18:10:05.998Z</time></trkpt><trkpt lat="40.04175569599199" lon="15.320944186154788"><ele>10.0</ele><time>2026-04-25T18:10:06.998Z</time></trkpt><trkpt lat="40.04188403078024" lon="15.321034406623006"><ele>13.0</ele><time>2026-04-25T18:10:07.998Z</time></trkpt><trkpt lat="40.042011490011106" lon="15.321124011583604"><ele>16.0</ele><time>2026-04-25T18:10:08.998Z</time></trkpt><trkpt lat="40.042137026079395" lon="15.321212264689686"><ele>19.0</ele><time>2026-04-25T18:10:09.998Z</time></trkpt><trkpt lat="40.04226798640521" lon="15.321305833733462"><ele>19.0</ele><time>2026-04-25T18:10:10.998Z</time></trkpt><trkpt lat="40.04239489009573" lon="15.32139606350272"><ele>19.0</ele><time>2026-04-25T18:10:12Z</time></trkpt><trkpt lat="40.042514217310085" lon="15.321482521764851"><ele>19.0</ele><time>2026-04-25T18:10:13Z</time></trkpt><trkpt lat="40.04264495904302" lon="15.321579700784486"><ele>19.0</ele><time>2026-04-25T18:10:14Z</time></trkpt><trkpt lat="40.04277344391431" lon="15.321683596784464"><ele>17.0</ele><time>2026-04-25T18:10:15Z</time></trkpt><trkpt lat="40.042900750534145" lon="15.32179377581459"><ele>15.0</ele><time>2026-04-25T18:10:16Z</time></trkpt><trkpt lat="40.04303674767621" lon="15.321889030157354"><ele>13.0</ele><time>2026-04-25T18:10:17Z</time></trkpt><trkpt lat="40.043156715565466" lon="15.322011561462078"><ele>13.0</ele><time>2026-04-25T18:10:18Z</time></trkpt><trkpt lat="40.04327270618187" lon="15.322134397903254"><ele>13.0</ele><time>2026-04-25T18:10:19Z</time></trkpt><trkpt lat="40.04338754480936" lon="15.322265671334945"><ele>13.0</ele><time>2026-04-25T18:10:20Z</time></trkpt><trkpt lat="40.04350369077149" lon="15.322410006362023"><ele>12.666666666666666</ele><time>2026-04-25T18:10:21Z</time></trkpt><trkpt lat="40.0436182505685" lon="15.322553418593992"><ele>12.333333333333332</ele><time>2026-04-25T18:10:22Z</time></trkpt><trkpt lat="40.04372927680647" lon="15.322706057708128"><ele>12.0</ele><time>2026-04-25T18:10:23Z</time></trkpt><trkpt lat="40.043833032306615" lon="15.322866517713273"><ele>12.0</ele><time>2026-04-25T18:10:24Z</time></trkpt><trkpt lat="40.04392812991755" lon="15.32302736738621"><ele>12.0</ele><time>2026-04-25T18:10:25Z</time></trkpt><trkpt lat="40.044019206227105" lon="15.323191775197891"><ele>12.0</ele><time>2026-04-25T18:10:26Z</time></trkpt><trkpt lat="40.0441108873933" lon="15.3233607350401"><ele>11.333333333333334</ele><time>2026-04-25T18:10:27Z</time></trkpt><trkpt lat="40.044199109660006" lon="15.323542471320994"><ele>10.666666666666668</ele><time>2026-04-25T18:10:28Z</time></trkpt><trkpt lat="40.044284416630376" lon="15.323729449306922"><ele>10.0</ele><time>2026-04-25T18:10:29Z</time></trkpt><trkpt lat="40.04436728036635" lon="15.32391832179673"><ele>8.0</ele><time>2026-04-25T18:10:30Z</time></trkpt><trkpt lat="40.0444506870906" lon="15.324107960172688"><ele>6.0</ele><time>2026-04-25T18:10:31Z</time></trkpt><trkpt lat="40.04453805010576" lon="15.324296570193935"><ele>4.0</ele><time>2026-04-25T18:10:32Z</time></trkpt><trkpt lat="40.04462694715836" lon="15.324482071435556"><ele>4.0</ele><time>2026-04-25T18:10:33Z</time></trkpt><trkpt lat="40.044715459756574" lon="15.324660590214176"><ele>4.0</ele><time>2026-04-25T18:10:34Z</time></trkpt><trkpt lat="40.04479489338771" lon="15.324839835417787"><ele>4.0</ele><time>2026-04-25T18:10:35Z</time></trkpt><trkpt lat="40.04487841829898" lon="15.325011075812146"><ele>4.666666666666666</ele><time>2026-04-25T18:10:36Z</time></trkpt><trkpt lat="40.044978232552104" lon="15.325172131088053"><ele>5.333333333333333</ele><time>2026-04-25T18:10:37Z</time></trkpt><trkpt lat="40.04508769485357" lon="15.325330779072033"><ele>6.0</ele><time>2026-04-25T18:10:38Z</time></trkpt><trkpt lat="40.0452062028109" lon="15.325486783056895"><ele>12.0</ele><time>2026-04-25T18:10:39Z</time></trkpt><trkpt lat="40.045337843136245" lon="15.325635938057824"><ele>18.0</ele><time>2026-04-25T18:10:40Z</time></trkpt><trkpt lat="40.0454700032642" lon="15.325778145575573"><ele>24.0</ele><time>2026-04-25T18:10:41Z</time></trkpt><trkpt lat="40.04560513945262" lon="15.325909621983616"><ele>24.0</ele><time>2026-04-25T18:10:42Z</time></trkpt><trkpt lat="40.045736548468994" lon="15.326057607238887"><ele>24.0</ele><time>2026-04-25T18:10:43Z</time></trkpt><trkpt lat="40.0458865359395" lon="15.326179327859025"><ele>24.0</ele><time>2026-04-25T18:10:44Z</time></trkpt><trkpt lat="40.046045074582764" lon="15.326292024958056"><ele>36.33333333333333</ele><time>2026-04-25T18:10:45Z</time></trkpt><trkpt lat="40.046216243717424" lon="15.326403201944906"><ele>48.666666666666664</ele><time>2026-04-25T18:10:46Z</time></trkpt><trkpt lat="40.04639809154396" lon="15.326502820135875"><ele>61.0</ele><time>2026-04-25T18:10:47Z</time></trkpt><trkpt lat="40.04658018752146" lon="15.326591524131002"><ele>52.33333333333333</ele><time>2026-04-25T18:10:48Z</time></trkpt><trkpt lat="40.04676104264225" lon="15.326676012186441"><ele>43.666666666666664</ele><time>2026-04-25T18:10:49Z</time></trkpt><trkpt lat="40.04693968195166" lon="15.326759451708936"><ele>35.0</ele><time>2026-04-25T18:10:50Z</time></trkpt><trkpt lat="40.0471137237859" lon="15.326841986439858"><ele>35.0</ele><time>2026-04-25T18:10:50.999Z</time></trkpt><trkpt lat="40.04729492623569" lon="15.326927491200804"><ele>35.0</ele><time>2026-04-25T18:10:51.999Z</time></trkpt><trkpt lat="40.047476717313764" lon="15.327012292540807"><ele>35.0</ele><time>2026-04-25T18:10:52.999Z</time></trkpt><trkpt lat="40.0476602448994" lon="15.32709800109465"><ele>34.0</ele><time>2026-04-25T18:10:53.999Z</time></trkpt><trkpt lat="40.047838425465216" lon="15.327180294119984"><ele>33.0</ele><time>2026-04-25T18:10:54.999Z</time></trkpt><trkpt lat="40.04801548535179" lon="15.327261543864074"><ele>32.0</ele><time>2026-04-25T18:10:55.999Z</time></trkpt><trkpt lat="40.04819415847474" lon="15.327342389196264"><ele>31.0</ele><time>2026-04-25T18:10:56.999Z</time></trkpt><trkpt lat="40.04837760779233" lon="15.327419051077033"><ele>30.0</ele><time>2026-04-25T18:10:57.999Z</time></trkpt><trkpt lat="40.04855996688445" lon="15.327480344671915"><ele>29.0</ele><time>2026-04-25T18:10:58.999Z</time></trkpt><trkpt lat="40.04874859648118" lon="15.327527242139535"><ele>29.0</ele><time>2026-04-25T18:10:59.999Z</time></trkpt><trkpt lat="40.04894063366229" lon="15.327540860959397"><ele>29.0</ele><time>2026-04-25T18:11:00.999Z</time></trkpt><trkpt lat="40.049133459080714" lon="15.327561367338083"><ele>29.0</ele><time>2026-04-25T18:11:01.999Z</time></trkpt><trkpt lat="40.04932556832576" lon="15.32759320076057"><ele>29.333333333333332</ele><time>2026-04-25T18:11:02.999Z</time></trkpt><trkpt lat="40.04951826738163" lon="15.327595105270792"><ele>29.666666666666664</ele><time>2026-04-25T18:11:03.999Z</time></trkpt><trkpt lat="40.049711603640404" lon="15.327579487806393"><ele>30.0</ele><time>2026-04-25T18:11:04.999Z</time></trkpt><trkpt lat="40.04990857878576" lon="15.327552419547066"><ele>31.666666666666664</ele><time>2026-04-25T18:11:05.999Z</time></trkpt><trkpt lat="40.05011054765422" lon="15.32751632371163"><ele>33.33333333333333</ele><time>2026-04-25T18:11:06.999Z</time></trkpt><trkpt lat="40.050307419471174" lon="15.327466136804292"><ele>35.0</ele><time>2026-04-25T18:11:07.999Z</time></trkpt><trkpt lat="40.050501203640735" lon="15.327403867392064"><ele>35.0</ele><time>2026-04-25T18:11:08.999Z</time></trkpt><trkpt lat="40.05068738253956" lon="15.32734131771108"><ele>35.0</ele><time>2026-04-25T18:11:09.999Z</time></trkpt><trkpt lat="40.050870130472006" lon="15.327280315108933"><ele>35.0</ele><time>2026-04-25T18:11:10.999Z</time></trkpt><trkpt lat="40.0510499382326" lon="15.327202186787634"><ele>27.666666666666664</ele><time>2026-04-25T18:11:11.999Z</time></trkpt><trkpt lat="40.05123117818371" lon="15.327139208254055"><ele>20.333333333333332</ele><time>2026-04-25T18:11:12.999Z</time></trkpt><trkpt lat="40.05141128894949" lon="15.327075586842286"><ele>13.0</ele><time>2026-04-25T18:11:13.999Z</time></trkpt><trkpt lat="40.05159077947094" lon="15.327017724681252"><ele>13.333333333333332</ele><time>2026-04-25T18:11:14.999Z</time></trkpt><trkpt lat="40.051760150115" lon="15.32696427135926"><ele>13.666666666666668</ele><time>2026-04-25T18:11:15.999Z</time></trkpt><trkpt lat="40.051920243289835" lon="15.326915529591613"><ele>14.0</ele><time>2026-04-25T18:11:16.999Z</time></trkpt><trkpt lat="40.052078401359275" lon="15.326871532071229"><ele>14.0</ele><time>2026-04-25T18:11:17.999Z</time></trkpt><trkpt lat="40.05224902614092" lon="15.32683467650763"><ele>14.0</ele><time>2026-04-25T18:11:18.999Z</time></trkpt><trkpt lat="40.05243107177352" lon="15.326805129903272"><ele>14.0</ele><time>2026-04-25T18:11:19.999Z</time></trkpt><trkpt lat="40.052621018359226" lon="15.32678104643087"><ele>16.666666666666668</ele><time>2026-04-25T18:11:20.999Z</time></trkpt><trkpt lat="40.05281347542631" lon="15.326767182323481"><ele>19.333333333333332</ele><time>2026-04-25T18:11:21.999Z</time></trkpt><trkpt lat="40.053009271022496" lon="15.326758905723118"><ele>22.0</ele><time>2026-04-25T18:11:22.999Z</time></trkpt><trkpt lat="40.053214649754814" lon="15.326759463968484"><ele>22.666666666666664</ele><time>2026-04-25T18:11:23.999Z</time></trkpt><trkpt lat="40.053418641944226" lon="15.326770400157507"><ele>23.333333333333332</ele><time>2026-04-25T18:11:24.999Z</time></trkpt><trkpt lat="40.053618775367305" lon="15.326798257947283"><ele>24.0</ele><time>2026-04-25T18:11:25.999Z</time></trkpt><trkpt lat="40.053813340881234" lon="15.326834000364235"><ele>24.0</ele><time>2026-04-25T18:11:26.999Z</time></trkpt><trkpt lat="40.05399167552269" lon="15.32687469671367"><ele>24.0</ele><time>2026-04-25T18:11:27.999Z</time></trkpt><trkpt lat="40.05417094873511" lon="15.326929856473335"><ele>24.0</ele><time>2026-04-25T18:11:28.999Z</time></trkpt><trkpt lat="40.05434890878739" lon="15.326997180523703"><ele>22.333333333333332</ele><time>2026-04-25T18:11:29.999Z</time></trkpt><trkpt lat="40.05452857198171" lon="15.327070567965757"><ele>20.666666666666664</ele><time>2026-04-25T18:11:30.999Z</time></trkpt><trkpt lat="40.05470838219708" lon="15.32715438738475"><ele>19.0</ele><time>2026-04-25T18:11:31.999Z</time></trkpt><trkpt lat="40.05488454178737" lon="15.327249642726434"><ele>24.333333333333332</ele><time>2026-04-25T18:11:32.999Z</time></trkpt><trkpt lat="40.05505694878694" lon="15.327351669168104"><ele>29.666666666666664</ele><time>2026-04-25T18:11:33.999Z</time></trkpt><trkpt lat="40.05523071058849" lon="15.32745758625223"><ele>35.0</ele><time>2026-04-25T18:11:34.999Z</time></trkpt><trkpt lat="40.0554054202675" lon="15.327570812373331"><ele>35.0</ele><time>2026-04-25T18:11:35.999Z</time></trkpt><trkpt lat="40.05558058356403" lon="15.327688772106063"><ele>35.0</ele><time>2026-04-25T18:11:36.999Z</time></trkpt><trkpt lat="40.05575841264654" lon="15.327804919159128"><ele>35.0</ele><time>2026-04-25T18:11:37.999Z</time></trkpt><trkpt lat="40.0559411028215" lon="15.327918296888262"><ele>39.33333333333333</ele><time>2026-04-25T18:11:38.999Z</time></trkpt><trkpt lat="40.056125712043865" lon="15.328032975109958"><ele>43.666666666666664</ele><time>2026-04-25T18:11:39.999Z</time></trkpt><trkpt lat="40.056312399416754" lon="15.328145355505663"><ele>48.0</ele><time>2026-04-25T18:11:40.999Z</time></trkpt><trkpt lat="40.056498098703884" lon="15.328258806437201"><ele>41.333333333333336</ele><time>2026-04-25T18:11:41.999Z</time></trkpt><trkpt lat="40.05667913588702" lon="15.328374183802438"><ele>34.66666666666667</ele><time>2026-04-25T18:11:42.999Z</time></trkpt><trkpt lat="40.05685738390656" lon="15.328488675583921"><ele>28.0</ele><time>2026-04-25T18:11:43.999Z</time></trkpt><trkpt lat="40.05703543777785" lon="15.328601587050663"><ele>28.0</ele><time>2026-04-25T18:11:44.999Z</time></trkpt><trkpt lat="40.05720903607707" lon="15.328710987151796"><ele>28.0</ele><time>2026-04-25T18:11:45.999Z</time></trkpt><trkpt lat="40.05737992725372" lon="15.328820207926883"><ele>28.0</ele><time>2026-04-25T18:11:46.999Z</time></trkpt><trkpt lat="40.05754898367071" lon="15.32892523257932"><ele>29.666666666666668</ele><time>2026-04-25T18:11:47.999Z</time></trkpt><trkpt lat="40.057714890273864" lon="15.329028630629221"><ele>31.333333333333336</ele><time>2026-04-25T18:11:48.999Z</time></trkpt><trkpt lat="40.05787836822825" lon="15.329135285043149"><ele>33.0</ele><time>2026-04-25T18:11:49.999Z</time></trkpt><trkpt lat="40.058041279266355" lon="15.329244568788878"><ele>33.0</ele><time>2026-04-25T18:11:50.999Z</time></trkpt><trkpt lat="40.05820648951659" lon="15.32935741889233"><ele>33.0</ele><time>2026-04-25T18:11:51.999Z</time></trkpt><trkpt lat="40.058371249346685" lon="15.329476568783937"><ele>33.0</ele><time>2026-04-25T18:11:52.999Z</time></trkpt><trkpt lat="40.05853161600384" lon="15.329596464589178"><ele>30.666666666666664</ele><time>2026-04-25T18:11:53.999Z</time></trkpt><trkpt lat="40.05869300362815" lon="15.329715819556418"><ele>28.333333333333332</ele><time>2026-04-25T18:11:54.999Z</time></trkpt><trkpt lat="40.05885156305935" lon="15.329840813350563"><ele>26.0</ele><time>2026-04-25T18:11:55.999Z</time></trkpt><trkpt lat="40.05901029756072" lon="15.32996633253089"><ele>28.0</ele><time>2026-04-25T18:11:56.999Z</time></trkpt><trkpt lat="40.059172041299696" lon="15.330093444512444"><ele>30.0</ele><time>2026-04-25T18:11:57.999Z</time></trkpt><trkpt lat="40.05933356793069" lon="15.330222828013412"><ele>32.0</ele><time>2026-04-25T18:11:58.999Z</time></trkpt><trkpt lat="40.059493352542184" lon="15.330358105691767"><ele>32.0</ele><time>2026-04-25T18:11:59.999Z</time></trkpt><trkpt lat="40.05964894854831" lon="15.330493002664806"><ele>32.0</ele><time>2026-04-25T18:12:00.999Z</time></trkpt><trkpt lat="40.05980276173244" lon="15.330629988078696"><ele>32.0</ele><time>2026-04-25T18:12:01.999Z</time></trkpt><trkpt lat="40.05995714730826" lon="15.330778657230201"><ele>33.33333333333333</ele><time>2026-04-25T18:12:02.999Z</time></trkpt><trkpt lat="40.060111005419216" lon="15.330935502873952"><ele>34.666666666666664</ele><time>2026-04-25T18:12:03.998Z</time></trkpt><trkpt lat="40.06026581889673" lon="15.331089641080595"><ele>36.0</ele><time>2026-04-25T18:12:04.998Z</time></trkpt><trkpt lat="40.060421931417515" lon="15.331239389645395"><ele>36.0</ele><time>2026-04-25T18:12:05.998Z</time></trkpt><trkpt lat="40.060578819259675" lon="15.331389054916531"><ele>36.0</ele><time>2026-04-25T18:12:06.998Z</time></trkpt><trkpt lat="40.06073368144569" lon="15.331539670163504"><ele>36.0</ele><time>2026-04-25T18:12:07.998Z</time></trkpt><trkpt lat="40.0608892779269" lon="15.331699160452287"><ele>35.333333333333336</ele><time>2026-04-25T18:12:08.998Z</time></trkpt><trkpt lat="40.0610436777542" lon="15.33186298268369"><ele>34.66666666666667</ele><time>2026-04-25T18:12:09.998Z</time></trkpt><trkpt lat="40.061196658470536" lon="15.33202730621592"><ele>34.0</ele><time>2026-04-25T18:12:10.998Z</time></trkpt><trkpt lat="40.061351971530826" lon="15.33219036548255"><ele>31.0</ele><time>2026-04-25T18:12:11.998Z</time></trkpt><trkpt lat="40.06150800915374" lon="15.332361996487094"><ele>28.0</ele><time>2026-04-25T18:12:12.998Z</time></trkpt><trkpt lat="40.0616636233505" lon="15.332533688795253"><ele>25.0</ele><time>2026-04-25T18:12:13.998Z</time></trkpt><trkpt lat="40.06182166091847" lon="15.332703261578938"><ele>25.0</ele><time>2026-04-25T18:12:14.998Z</time></trkpt><trkpt lat="40.06197998939201" lon="15.332870514203224"><ele>25.0</ele><time>2026-04-25T18:12:15.998Z</time></trkpt><trkpt lat="40.062138239942236" lon="15.33304018266662"><ele>25.0</ele><time>2026-04-25T18:12:16.998Z</time></trkpt><trkpt lat="40.062297324196415" lon="15.333206338663661"><ele>26.666666666666668</ele><time>2026-04-25T18:12:18Z</time></trkpt><trkpt lat="40.06245775094939" lon="15.333367824799932"><ele>28.333333333333336</ele><time>2026-04-25T18:12:19Z</time></trkpt><trkpt lat="40.06262275298224" lon="15.33352155524564"><ele>30.0</ele><time>2026-04-25T18:12:20Z</time></trkpt><trkpt lat="40.0627918823268" lon="15.333660677865147"><ele>30.0</ele><time>2026-04-25T18:12:21Z</time></trkpt><trkpt lat="40.0629639210872" lon="15.333791963170714"><ele>30.0</ele><time>2026-04-25T18:12:22Z</time></trkpt><trkpt lat="40.06313729389409" lon="15.33391514390607"><ele>30.0</ele><time>2026-04-25T18:12:23Z</time></trkpt><trkpt lat="40.063312449608816" lon="15.33403107573211"><ele>33.333333333333336</ele><time>2026-04-25T18:12:24Z</time></trkpt><trkpt lat="40.06348896719171" lon="15.334149204602058"><ele>36.66666666666667</ele><time>2026-04-25T18:12:25Z</time></trkpt><trkpt lat="40.06366299203994" lon="15.334271621177898"><ele>40.0</ele><time>2026-04-25T18:12:26Z</time></trkpt><trkpt lat="40.06383873123755" lon="15.334395362809365"><ele>40.0</ele><time>2026-04-25T18:12:27Z</time></trkpt><trkpt lat="40.06401228801501" lon="15.334514510132989"><ele>40.0</ele><time>2026-04-25T18:12:28Z</time></trkpt><trkpt lat="40.064183943452804" lon="15.33463231421266"><ele>40.0</ele><time>2026-04-25T18:12:29Z</time></trkpt><trkpt lat="40.06435810422826" lon="15.334749292917287"><ele>44.0</ele><time>2026-04-25T18:12:30Z</time></trkpt><trkpt lat="40.064531140583846" lon="15.334870235308022"><ele>48.0</ele><time>2026-04-25T18:12:31Z</time></trkpt><trkpt lat="40.06470214933802" lon="15.334991933047563"><ele>52.0</ele><time>2026-04-25T18:12:32Z</time></trkpt><trkpt lat="40.06487243640694" lon="15.335107167082999"><ele>44.0</ele><time>2026-04-25T18:12:33Z</time></trkpt><trkpt lat="40.06503934016572" lon="15.335225107394844"><ele>36.0</ele><time>2026-04-25T18:12:34Z</time></trkpt><trkpt lat="40.06520389690681" lon="15.335343632617391"><ele>28.0</ele><time>2026-04-25T18:12:35Z</time></trkpt><trkpt lat="40.065370844015355" lon="15.33546952571208"><ele>30.333333333333336</ele><time>2026-04-25T18:12:36Z</time></trkpt><trkpt lat="40.065538326112964" lon="15.335600274413888"><ele>32.666666666666664</ele><time>2026-04-25T18:12:37Z</time></trkpt><trkpt lat="40.065707795016614" lon="15.335734762510796"><ele>35.0</ele><time>2026-04-25T18:12:38Z</time></trkpt><trkpt lat="40.065880790634" lon="15.335872659878754"><ele>35.0</ele><time>2026-04-25T18:12:39Z</time></trkpt><trkpt lat="40.066057275312836" lon="15.336015670641142"><ele>35.0</ele><time>2026-04-25T18:12:40Z</time></trkpt><trkpt lat="40.06623490243485" lon="15.336168131864598"><ele>35.0</ele><time>2026-04-25T18:12:41Z</time></trkpt><trkpt lat="40.06641331499457" lon="15.336327748717578"><ele>35.33333333333333</ele><time>2026-04-25T18:12:42Z</time></trkpt><trkpt lat="40.06659032277785" lon="15.33649585331708"><ele>35.666666666666664</ele><time>2026-04-25T18:12:43Z</time></trkpt><trkpt lat="40.066765859941846" lon="15.336663571756333"><ele>36.0</ele><time>2026-04-25T18:12:44Z</time></trkpt><trkpt lat="40.066940564185906" lon="15.336830421134678"><ele>36.0</ele><time>2026-04-25T18:12:45Z</time></trkpt><trkpt lat="40.06711452856721" lon="15.336995468766128"><ele>36.0</ele><time>2026-04-25T18:12:46Z</time></trkpt><trkpt lat="40.067288513796704" lon="15.3371588193208"><ele>36.0</ele><time>2026-04-25T18:12:47Z</time></trkpt><trkpt lat="40.06745881375584" lon="15.337327616149501"><ele>37.333333333333336</ele><time>2026-04-25T18:12:48Z</time></trkpt><trkpt lat="40.0676303712806" lon="15.337495029707302"><ele>38.66666666666667</ele><time>2026-04-25T18:12:49Z</time></trkpt><trkpt lat="40.06780316406216" lon="15.337657078236271"><ele>40.0</ele><time>2026-04-25T18:12:50Z</time></trkpt><trkpt lat="40.067975544965094" lon="15.337815093810955"><ele>40.0</ele><time>2026-04-25T18:12:51Z</time></trkpt><trkpt lat="40.06814198642056" lon="15.337970197869241"><ele>40.0</ele><time>2026-04-25T18:12:52Z</time></trkpt><trkpt lat="40.068307429836025" lon="15.33812125875202"><ele>40.0</ele><time>2026-04-25T18:12:53Z</time></trkpt><trkpt lat="40.068478312724224" lon="15.338263931442434"><ele>41.66666666666667</ele><time>2026-04-25T18:12:54Z</time></trkpt><trkpt lat="40.068655235109105" lon="15.338403753742233"><ele>43.333333333333336</ele><time>2026-04-25T18:12:55Z</time></trkpt><trkpt lat="40.06883162803512" lon="15.338545464560637"><ele>45.0</ele><time>2026-04-25T18:12:55.999Z</time></trkpt><trkpt lat="40.069010209213225" lon="15.338688957146912"><ele>49.66666666666667</ele><time>2026-04-25T18:12:56.999Z</time></trkpt><trkpt lat="40.06918517594623" lon="15.338823798350566"><ele>54.333333333333336</ele><time>2026-04-25T18:12:57.999Z</time></trkpt><trkpt lat="40.06936443372956" lon="15.33895561171884"><ele>59.0</ele><time>2026-04-25T18:12:58.999Z</time></trkpt><trkpt lat="40.06954703155146" lon="15.33908868742606"><ele>59.0</ele><time>2026-04-25T18:12:59.999Z</time></trkpt><trkpt lat="40.06972367986568" lon="15.339218346799791"><ele>59.0</ele><time>2026-04-25T18:13:00.999Z</time></trkpt><trkpt lat="40.0699009512265" lon="15.339340209557427"><ele>59.0</ele><time>2026-04-25T18:13:01.999Z</time></trkpt><trkpt lat="40.07007548814441" lon="15.339466535710242"><ele>58.66666666666667</ele><time>2026-04-25T18:13:02.999Z</time></trkpt><trkpt lat="40.07025039480563" lon="15.339604952010031"><ele>58.33333333333333</ele><time>2026-04-25T18:13:03.999Z</time></trkpt><trkpt lat="40.0704341952019" lon="15.339742195610668"><ele>58.0</ele><time>2026-04-25T18:13:04.999Z</time></trkpt><trkpt lat="40.07062187001857" lon="15.339877301722865"><ele>52.666666666666664</ele><time>2026-04-25T18:13:05.999Z</time></trkpt><trkpt lat="40.07081010225526" lon="15.340013179203844"><ele>47.33333333333333</ele><time>2026-04-25T18:13:06.999Z</time></trkpt><trkpt lat="40.07099875399551" lon="15.340149349451806"><ele>42.0</ele><time>2026-04-25T18:13:07.999Z</time></trkpt><trkpt lat="40.07118654103567" lon="15.340285543465294"><ele>42.0</ele><time>2026-04-25T18:13:08.999Z</time></trkpt><trkpt lat="40.07137373053441" lon="15.340424651034951"><ele>42.0</ele><time>2026-04-25T18:13:09.999Z</time></trkpt><trkpt lat="40.07156028437027" lon="15.340567459459049"><ele>42.0</ele><time>2026-04-25T18:13:10.999Z</time></trkpt><trkpt lat="40.07174440402087" lon="15.340706489941462"><ele>50.66666666666667</ele><time>2026-04-25T18:13:11.999Z</time></trkpt><trkpt lat="40.07192954680323" lon="15.340841005697065"><ele>59.333333333333336</ele><time>2026-04-25T18:13:12.999Z</time></trkpt><trkpt lat="40.072111430322835" lon="15.340977996751107"><ele>68.0</ele><time>2026-04-25T18:13:13.999Z</time></trkpt><trkpt lat="40.072302265846965" lon="15.341120459243736"><ele>66.5</ele><time>2026-04-25T18:13:15.057Z</time></trkpt><trkpt lat="40.072475389314015" lon="15.34124396771041"><ele>65.0</ele><time>2026-04-25T18:13:16.051Z</time></trkpt><trkpt lat="40.072947895928564" lon="15.341538123732152"><ele>65.0</ele><time>2026-04-25T18:13:18.999Z</time></trkpt><trkpt lat="40.07312253809804" lon="15.341619364618202"><ele>65.0</ele><time>2026-04-25T18:13:19.999Z</time></trkpt><trkpt lat="40.07330841917096" lon="15.341701886636129"><ele>65.0</ele><time>2026-04-25T18:13:20.999Z</time></trkpt><trkpt lat="40.07349451334334" lon="15.341775668899782"><ele>53.0</ele><time>2026-04-25T18:13:21.999Z</time></trkpt><trkpt lat="40.0736790057056" lon="15.341835285562004"><ele>41.0</ele><time>2026-04-25T18:13:22.999Z</time></trkpt><trkpt lat="40.073865048767836" lon="15.341895121191085"><ele>29.0</ele><time>2026-04-25T18:13:23.999Z</time></trkpt><trkpt lat="40.07405321063307" lon="15.341969946892682"><ele>29.333333333333332</ele><time>2026-04-25T18:13:24.999Z</time></trkpt><trkpt lat="40.07424501493897" lon="15.342047745510204"><ele>29.666666666666664</ele><time>2026-04-25T18:13:25.999Z</time></trkpt><trkpt lat="40.074441189411495" lon="15.342119143194047"><ele>30.0</ele><time>2026-04-25T18:13:26.999Z</time></trkpt><trkpt lat="40.074638539659844" lon="15.342190735358685"><ele>34.333333333333336</ele><time>2026-04-25T18:13:27.999Z</time></trkpt><trkpt lat="40.07483310452604" lon="15.342262566162184"><ele>38.66666666666667</ele><time>2026-04-25T18:13:28.999Z</time></trkpt><trkpt lat="40.075026856211224" lon="15.342329254679415"><ele>43.0</ele><time>2026-04-25T18:13:29.999Z</time></trkpt><trkpt lat="40.07522041339066" lon="15.342396277516652"><ele>43.66666666666667</ele><time>2026-04-25T18:13:30.999Z</time></trkpt><trkpt lat="40.0754110646548" lon="15.342468170265773"><ele>44.333333333333336</ele><time>2026-04-25T18:13:31.999Z</time></trkpt><trkpt lat="40.07560104616172" lon="15.342539060917796"><ele>45.0</ele><time>2026-04-25T18:13:32.999Z</time></trkpt><trkpt lat="40.07578986568403" lon="15.342610003921957"><ele>42.333333333333336</ele><time>2026-04-25T18:13:33.999Z</time></trkpt><trkpt lat="40.07597771414508" lon="15.342675386780533"><ele>39.66666666666667</ele><time>2026-04-25T18:13:34.999Z</time></trkpt><trkpt lat="40.07617306811175" lon="15.342732924642801"><ele>37.0</ele><time>2026-04-25T18:13:35.999Z</time></trkpt><trkpt lat="40.07637301683339" lon="15.342775741325527"><ele>37.0</ele><time>2026-04-25T18:13:36.999Z</time></trkpt><trkpt lat="40.07657763171427" lon="15.34280223770183"><ele>37.0</ele><time>2026-04-25T18:13:37.999Z</time></trkpt><trkpt lat="40.07678673264992" lon="15.342823034654351"><ele>37.0</ele><time>2026-04-25T18:13:38.999Z</time></trkpt><trkpt lat="40.076996943255665" lon="15.34283038292028"><ele>33.0</ele><time>2026-04-25T18:13:39.999Z</time></trkpt><trkpt lat="40.07720282764114" lon="15.342822182910842"><ele>29.0</ele><time>2026-04-25T18:13:40.999Z</time></trkpt><trkpt lat="40.07740606051788" lon="15.34280536733962"><ele>25.0</ele><time>2026-04-25T18:13:41.999Z</time></trkpt><trkpt lat="40.07760768291426" lon="15.342777747362673"><ele>24.666666666666668</ele><time>2026-04-25T18:13:42.999Z</time></trkpt><trkpt lat="40.07780760688577" lon="15.34274409420841"><ele>24.333333333333336</ele><time>2026-04-25T18:13:43.999Z</time></trkpt><trkpt lat="40.077996966841965" lon="15.342711167370396"><ele>24.0</ele><time>2026-04-25T18:13:44.999Z</time></trkpt><trkpt lat="40.07817162028299" lon="15.34268119769227"><ele>24.75</ele><time>2026-04-25T18:13:45.999Z</time></trkpt><trkpt lat="40.07831462825463" lon="15.342655516418933"><ele>25.5</ele><time>2026-04-25T18:13:46.999Z</time></trkpt><trkpt lat="40.07844660812917" lon="15.342631086723364"><ele>26.25</ele><time>2026-04-25T18:13:47.999Z</time></trkpt><trkpt lat="40.07857290871744" lon="15.342603790276556"><ele>27.0</ele><time>2026-04-25T18:13:48.999Z</time></trkpt><trkpt lat="40.07869109096144" lon="15.342579306101939"><ele>27.0</ele><time>2026-04-25T18:13:49.999Z</time></trkpt><trkpt lat="40.078798916848996" lon="15.34256107108749"><ele>27.0</ele><time>2026-04-25T18:13:50.999Z</time></trkpt><trkpt lat="40.07889452641993" lon="15.34254212295777"><ele>27.0</ele><time>2026-04-25T18:13:51.999Z</time></trkpt><trkpt lat="40.07897403026577" lon="15.342526632435616"><ele>27.0</ele><time>2026-04-25T18:13:52.999Z</time></trkpt><trkpt lat="40.07904924120915" lon="15.342514188229623"><ele>27.0</ele><time>2026-04-25T18:13:53.999Z</time></trkpt><trkpt lat="40.0791209081697" lon="15.342508115288936"><ele>27.0</ele><time>2026-04-25T18:13:54.999Z</time></trkpt><trkpt lat="40.079193840903166" lon="15.342512474987974"><ele>27.333333333333332</ele><time>2026-04-25T18:13:55.999Z</time></trkpt><trkpt lat="40.079273575243555" lon="15.342537244914103"><ele>27.666666666666664</ele><time>2026-04-25T18:13:56.999Z</time></trkpt><trkpt lat="40.07934591240892" lon="15.34258098950959"><ele>28.0</ele><time>2026-04-25T18:13:57.999Z</time></trkpt><trkpt lat="40.07941699349871" lon="15.342644588344346"><ele>28.333333333333332</ele><time>2026-04-25T18:13:58.999Z</time></trkpt><trkpt lat="40.07948738105717" lon="15.342725159479356"><ele>28.666666666666664</ele><time>2026-04-25T18:13:59.999Z</time></trkpt><trkpt lat="40.07954627977716" lon="15.34281431741237"><ele>29.0</ele><time>2026-04-25T18:14:00.999Z</time></trkpt><trkpt lat="40.07959606436428" lon="15.342891875561993"><ele>29.0</ele><time>2026-04-25T18:14:01.999Z</time></trkpt><trkpt lat="40.0796432693946" lon="15.342955145653058"><ele>29.0</ele><time>2026-04-25T18:14:02.999Z</time></trkpt><trkpt lat="40.079740189444394" lon="15.343021830750846"><ele>29.0</ele><time>2026-04-25T18:14:04.999Z</time></trkpt><trkpt lat="40.079871958346786" lon="15.343036385593807"><ele>29.0</ele><time>2026-04-25T18:14:06.999Z</time></trkpt><trkpt lat="40.079952114084485" lon="15.34301298913904"><ele>29.0</ele><time>2026-04-25T18:14:07.999Z</time></trkpt><trkpt lat="40.08003556014721" lon="15.342977050387175"><ele>29.999999999999996</ele><time>2026-04-25T18:14:08.998Z</time></trkpt><trkpt lat="40.08012319883841" lon="15.342934500902967"><ele>31.0</ele><time>2026-04-25T18:14:09.998Z</time></trkpt><trkpt lat="40.08020258183187" lon="15.342897683489214"><ele>32.0</ele><time>2026-04-25T18:14:10.998Z</time></trkpt><trkpt lat="40.0802715129237" lon="15.3428637166185"><ele>33.0</ele><time>2026-04-25T18:14:11.998Z</time></trkpt><trkpt lat="40.080376432668864" lon="15.342830642303086"><ele>34.0</ele><time>2026-04-25T18:14:13.998Z</time></trkpt><trkpt lat="40.08044880943005" lon="15.34286208720517"><ele>35.0</ele><time>2026-04-25T18:14:15.998Z</time></trkpt><trkpt lat="40.08049899072299" lon="15.342943932659576"><ele>35.0</ele><time>2026-04-25T18:14:17.998Z</time></trkpt><trkpt lat="40.08052763583791" lon="15.343021673507131"><ele>35.0</ele><time>2026-04-25T18:14:19.998Z</time></trkpt><trkpt lat="40.080530930732714" lon="15.343124424867478"><ele>35.0</ele><time>2026-04-25T18:14:24Z</time></trkpt><trkpt lat="40.080529466873585" lon="15.343208708788582"><ele>35.0</ele><time>2026-04-25T18:15:32.999Z</time></trkpt><trkpt lat="40.080575320864256" lon="15.343303393461799"><ele>35.0</ele><time>2026-04-25T18:15:35.999Z</time></trkpt><trkpt lat="40.080668621651675" lon="15.343310299187724"><ele>35.0</ele><time>2026-04-25T18:15:37.999Z</time></trkpt><trkpt lat="40.080749333771806" lon="15.34328787550687"><ele>40.166666666666664</ele><time>2026-04-25T18:15:38.999Z</time></trkpt><trkpt lat="40.08083402099484" lon="15.343263802011895"><ele>45.33333333333333</ele><time>2026-04-25T18:15:39.999Z</time></trkpt><trkpt lat="40.080922767219384" lon="15.343236891577156"><ele>50.5</ele><time>2026-04-25T18:15:40.999Z</time></trkpt><trkpt lat="40.0810031885383" lon="15.343217032777313"><ele>55.666666666666664</ele><time>2026-04-25T18:15:41.999Z</time></trkpt><trkpt lat="40.08107840514971" lon="15.343197562248404"><ele>60.833333333333336</ele><time>2026-04-25T18:15:42.999Z</time></trkpt><trkpt lat="40.08115534945291" lon="15.343179633925304"><ele>66.0</ele><time>2026-04-25T18:15:43.999Z</time></trkpt><trkpt lat="40.08122893692521" lon="15.34316017372679"><ele>66.0</ele><time>2026-04-25T18:15:44.999Z</time></trkpt><trkpt lat="40.081304406922875" lon="15.343140087167555"><ele>66.0</ele><time>2026-04-25T18:15:45.999Z</time></trkpt><trkpt lat="40.081382125629766" lon="15.343117151153221"><ele>66.0</ele><time>2026-04-25T18:15:46.999Z</time></trkpt><trkpt lat="40.08145412525503" lon="15.343097693468223"><ele>66.0</ele><time>2026-04-25T18:15:47.999Z</time></trkpt><trkpt lat="40.08152579416069" lon="15.343082557463756"><ele>66.0</ele><time>2026-04-25T18:15:48.999Z</time></trkpt><trkpt lat="40.08159440576269" lon="15.343070098266903"><ele>66.0</ele><time>2026-04-25T18:15:49.999Z</time></trkpt><trkpt lat="40.081702229614045" lon="15.343077791087701"><ele>64.33333333333333</ele><time>2026-04-25T18:15:51.999Z</time></trkpt><trkpt lat="40.0817632270199" lon="15.343121715477206"><ele>62.66666666666667</ele><time>2026-04-25T18:15:52.999Z</time></trkpt><trkpt lat="40.08182600826563" lon="15.343204097370965"><ele>61.0</ele><time>2026-04-25T18:15:53.999Z</time></trkpt><trkpt lat="40.08189143464373" lon="15.343301735829757"><ele>59.333333333333336</ele><time>2026-04-25T18:15:54.999Z</time></trkpt><trkpt lat="40.081970936495225" lon="15.343393311126182"><ele>57.66666666666667</ele><time>2026-04-25T18:15:55.999Z</time></trkpt><trkpt lat="40.08202414262855" lon="15.34345879998879"><ele>56.0</ele><time>2026-04-25T18:15:56.999Z</time></trkpt><trkpt lat="40.08209605833182" lon="15.343570873708703"><ele>56.0</ele><time>2026-04-25T18:15:57.999Z</time></trkpt><trkpt lat="40.08215847242148" lon="15.343656692340828"><ele>55.99999999999999</ele><time>2026-04-25T18:15:58.999Z</time></trkpt><trkpt lat="40.08220370481959" lon="15.343722838856712"><ele>55.99999999999999</ele><time>2026-04-25T18:15:59.999Z</time></trkpt><trkpt lat="40.082255222069435" lon="15.343801292295437"><ele>56.0</ele><time>2026-04-25T18:16:00.999Z</time></trkpt><trkpt lat="40.082309453245934" lon="15.343896024240783"><ele>56.0</ele><time>2026-04-25T18:16:01.999Z</time></trkpt><trkpt lat="40.08243221531377" lon="15.34412557167738"><ele>52.0</ele><time>2026-04-25T18:16:02.999Z</time></trkpt><trkpt lat="40.08247896749957" lon="15.344264597891495"><ele>48.0</ele><time>2026-04-25T18:16:03.999Z</time></trkpt><trkpt lat="40.082551457769654" lon="15.344400057128189"><ele>44.0</ele><time>2026-04-25T18:16:04.999Z</time></trkpt><trkpt lat="40.08263161775012" lon="15.344525894810745"><ele>40.0</ele><time>2026-04-25T18:16:05.999Z</time></trkpt><trkpt lat="40.08269305495285" lon="15.344649973020687"><ele>44.6</ele><time>2026-04-25T18:16:06.999Z</time></trkpt><trkpt lat="40.08275106554787" lon="15.344777255657364"><ele>49.2</ele><time>2026-04-25T18:16:07.999Z</time></trkpt><trkpt lat="40.082810431111525" lon="15.34489429259877"><ele>53.8</ele><time>2026-04-25T18:16:08.999Z</time></trkpt><trkpt lat="40.08286990001654" lon="15.345013562661522"><ele>58.4</ele><time>2026-04-25T18:16:09.999Z</time></trkpt><trkpt lat="40.08293314750128" lon="15.345131274112882"><ele>63.0</ele><time>2026-04-25T18:16:10.999Z</time></trkpt><trkpt lat="40.0829925414658" lon="15.345261523442902"><ele>63.0</ele><time>2026-04-25T18:16:11.998Z</time></trkpt><trkpt lat="40.08303574001181" lon="15.34537920714556"><ele>63.0</ele><time>2026-04-25T18:16:12.998Z</time></trkpt><trkpt lat="40.08307479660199" lon="15.345494991965646"><ele>63.0</ele><time>2026-04-25T18:16:13.998Z</time></trkpt><trkpt lat="40.08311713974385" lon="15.345611720015278"><ele>63.0</ele><time>2026-04-25T18:16:14.998Z</time></trkpt><trkpt lat="40.08315963988253" lon="15.345727748109882"><ele>63.0</ele><time>2026-04-25T18:16:15.998Z</time></trkpt><trkpt lat="40.08319097244938" lon="15.34583740772896"><ele>68.4</ele><time>2026-04-25T18:16:16.998Z</time></trkpt><trkpt lat="40.0831875318526" lon="15.345970171741273"><ele>73.8</ele><time>2026-04-25T18:16:17.998Z</time></trkpt><trkpt lat="40.08317931390454" lon="15.346109852281732"><ele>79.2</ele><time>2026-04-25T18:16:18.998Z</time></trkpt><trkpt lat="40.083172621950226" lon="15.346255063627328"><ele>84.6</ele><time>2026-04-25T18:16:19.998Z</time></trkpt><trkpt lat="40.08317386352839" lon="15.346378901863034"><ele>90.0</ele><time>2026-04-25T18:16:20.998Z</time></trkpt><trkpt lat="40.0831890548405" lon="15.346496636633246"><ele>97.6</ele><time>2026-04-25T18:16:21.998Z</time></trkpt><trkpt lat="40.08322378558505" lon="15.346592471599841"><ele>105.2</ele><time>2026-04-25T18:16:22.998Z</time></trkpt><trkpt lat="40.08328255339631" lon="15.346684444278297"><ele>112.80000000000001</ele><time>2026-04-25T18:16:23.998Z</time></trkpt><trkpt lat="40.08335240316907" lon="15.34678104430707"><ele>120.4</ele><time>2026-04-25T18:16:24.998Z</time></trkpt><trkpt lat="40.08343497081463" lon="15.346875879081594"><ele>128.0</ele><time>2026-04-25T18:16:25.998Z</time></trkpt><trkpt lat="40.08353346153197" lon="15.34695581916641"><ele>115.75</ele><time>2026-04-25T18:16:26.998Z</time></trkpt><trkpt lat="40.08364035681195" lon="15.347000704781623"><ele>103.5</ele><time>2026-04-25T18:16:27.998Z</time></trkpt><trkpt lat="40.08372394842754" lon="15.347099904337364"><ele>91.25</ele><time>2026-04-25T18:16:28.998Z</time></trkpt><trkpt lat="40.08380795084962" lon="15.347230137654334"><ele>79.0</ele><time>2026-04-25T18:16:30Z</time></trkpt><trkpt lat="40.08388867680942" lon="15.347372137611652"><ele>79.0</ele><time>2026-04-25T18:16:31Z</time></trkpt><trkpt lat="40.083971247262916" lon="15.347505650521983"><ele>79.0</ele><time>2026-04-25T18:16:32Z</time></trkpt><trkpt lat="40.084058709618496" lon="15.347646916584784"><ele>79.0</ele><time>2026-04-25T18:16:33Z</time></trkpt><trkpt lat="40.08414362439769" lon="15.347787361398218"><ele>79.0</ele><time>2026-04-25T18:16:34Z</time></trkpt><trkpt lat="40.084232553522796" lon="15.347923739406513"><ele>74.5</ele><time>2026-04-25T18:16:35Z</time></trkpt><trkpt lat="40.08429869461787" lon="15.348087894309922"><ele>70.0</ele><time>2026-04-25T18:16:36Z</time></trkpt><trkpt lat="40.0843974753829" lon="15.34819408664124"><ele>65.5</ele><time>2026-04-25T18:16:37Z</time></trkpt><trkpt lat="40.084482502763414" lon="15.348284203724463"><ele>61.0</ele><time>2026-04-25T18:16:38Z</time></trkpt><trkpt lat="40.08455740206189" lon="15.348366027311506"><ele>61.0</ele><time>2026-04-25T18:16:39Z</time></trkpt><trkpt lat="40.08462071354962" lon="15.348453965647693"><ele>60.99999999999999</ele><time>2026-04-25T18:16:40Z</time></trkpt><trkpt lat="40.08469203029587" lon="15.348559552594475"><ele>60.99999999999999</ele><time>2026-04-25T18:16:41Z</time></trkpt><trkpt lat="40.08475324867472" lon="15.348660265418797"><ele>61.0</ele><time>2026-04-25T18:16:42Z</time></trkpt><trkpt lat="40.08479956058495" lon="15.348752320422046"><ele>61.0</ele><time>2026-04-25T18:16:43Z</time></trkpt><trkpt lat="40.08483587969917" lon="15.348840927272713"><ele>56.8</ele><time>2026-04-25T18:16:44Z</time></trkpt><trkpt lat="40.08486984791548" lon="15.348950289032407"><ele>52.599999999999994</ele><time>2026-04-25T18:16:45Z</time></trkpt><trkpt lat="40.08490432660094" lon="15.349086320609723"><ele>48.4</ele><time>2026-04-25T18:16:46Z</time></trkpt><trkpt lat="40.08493877359284" lon="15.349227352865324"><ele>44.2</ele><time>2026-04-25T18:16:47Z</time></trkpt><trkpt lat="40.084971828567" lon="15.349367773475642"><ele>40.0</ele><time>2026-04-25T18:16:48Z</time></trkpt><trkpt lat="40.08500451846522" lon="15.349507295884548"><ele>40.0</ele><time>2026-04-25T18:16:49Z</time></trkpt><trkpt lat="40.085037356077656" lon="15.349643193082443"><ele>40.0</ele><time>2026-04-25T18:16:50Z</time></trkpt><trkpt lat="40.085069237439185" lon="15.34977513289989"><ele>40.0</ele><time>2026-04-25T18:16:51Z</time></trkpt><trkpt lat="40.085103788918424" lon="15.349918122832317"><ele>40.0</ele><time>2026-04-25T18:16:52Z</time></trkpt><trkpt lat="40.08513801261768" lon="15.350057548557903"><ele>40.0</ele><time>2026-04-25T18:16:53Z</time></trkpt><trkpt lat="40.0851713551938" lon="15.350178688883288"><ele>44.6</ele><time>2026-04-25T18:16:54Z</time></trkpt><trkpt lat="40.085202787411504" lon="15.350276689068819"><ele>49.2</ele><time>2026-04-25T18:16:55Z</time></trkpt><trkpt lat="40.08525333077839" lon="15.35037679834674"><ele>53.8</ele><time>2026-04-25T18:16:56Z</time></trkpt><trkpt lat="40.085336379528385" lon="15.350484822586349"><ele>58.4</ele><time>2026-04-25T18:16:57Z</time></trkpt><trkpt lat="40.085424071523285" lon="15.350609873289093"><ele>63.0</ele><time>2026-04-25T18:16:58Z</time></trkpt><trkpt lat="40.08551583103816" lon="15.350735308777898"><ele>56.5</ele><time>2026-04-25T18:16:59Z</time></trkpt><trkpt lat="40.085604613967476" lon="15.350856095148249"><ele>50.0</ele><time>2026-04-25T18:17:00Z</time></trkpt><trkpt lat="40.085689816332575" lon="15.35096778542613"><ele>43.5</ele><time>2026-04-25T18:17:01Z</time></trkpt><trkpt lat="40.08577504672827" lon="15.351071674746994"><ele>37.0</ele><time>2026-04-25T18:17:02Z</time></trkpt><trkpt lat="40.085862591159604" lon="15.351168225452387"><ele>37.0</ele><time>2026-04-25T18:17:03Z</time></trkpt><trkpt lat="40.085995138666625" lon="15.351271023543399"><ele>37.0</ele><time>2026-04-25T18:17:04Z</time></trkpt><trkpt lat="40.08612078374126" lon="15.351341478784729"><ele>37.0</ele><time>2026-04-25T18:17:05Z</time></trkpt><trkpt lat="40.08624132053852" lon="15.35139875324554"><ele>37.0</ele><time>2026-04-25T18:17:05.999Z</time></trkpt><trkpt lat="40.086363248446276" lon="15.35145676322788"><ele>45.5</ele><time>2026-04-25T18:17:06.999Z</time></trkpt><trkpt lat="40.086490952828505" lon="15.351516564643605"><ele>54.0</ele><time>2026-04-25T18:17:07.999Z</time></trkpt><trkpt lat="40.08661496981144" lon="15.351583651981418"><ele>62.5</ele><time>2026-04-25T18:17:08.999Z</time></trkpt><trkpt lat="40.0867292191031" lon="15.351662424199617"><ele>71.0</ele><time>2026-04-25T18:17:09.999Z</time></trkpt><trkpt lat="40.08683871098596" lon="15.351744206293501"><ele>71.0</ele><time>2026-04-25T18:17:10.999Z</time></trkpt><trkpt lat="40.08695153452233" lon="15.351827841124539"><ele>71.0</ele><time>2026-04-25T18:17:11.999Z</time></trkpt><trkpt lat="40.08706787729026" lon="15.351914084692636"><ele>71.0</ele><time>2026-04-25T18:17:12.999Z</time></trkpt><trkpt lat="40.087183626683164" lon="15.351999888389237"><ele>71.0</ele><time>2026-04-25T18:17:13.999Z</time></trkpt><trkpt lat="40.08729959695269" lon="15.352085855843848"><ele>71.0</ele><time>2026-04-25T18:17:14.999Z</time></trkpt><trkpt lat="40.087418258271846" lon="15.352150581269203"><ele>71.0</ele><time>2026-04-25T18:17:15.999Z</time></trkpt><trkpt lat="40.087542358410914" lon="15.35224707276338"><ele>71.0</ele><time>2026-04-25T18:17:17.059Z</time></trkpt><trkpt lat="40.08765204072158" lon="15.352336998740519"><ele>71.0</ele><time>2026-04-25T18:17:18.052Z</time></trkpt><trkpt lat="40.0878220212835" lon="15.352489487472587"><ele>68.75</ele><time>2026-04-25T18:17:18.999Z</time></trkpt><trkpt lat="40.08763995905159" lon="15.352335344808186"><ele>66.5</ele><time>2026-04-25T18:17:19.999Z</time></trkpt><trkpt lat="40.08770375544156" lon="15.352382615149265"><ele>64.25</ele><time>2026-04-25T18:17:21.999Z</time></trkpt><trkpt lat="40.0877544826834" lon="15.352255197178629"><ele>62.0</ele><time>2026-04-25T18:17:28.999Z</time></trkpt><trkpt lat="40.087747025695094" lon="15.352162874909926"><ele>60.6</ele><time>2026-04-25T18:17:29.999Z</time></trkpt><trkpt lat="40.08779193510591" lon="15.352067298020646"><ele>59.2</ele><time>2026-04-25T18:17:30.999Z</time></trkpt><trkpt lat="40.08783041249445" lon="15.351960199194547"><ele>57.8</ele><time>2026-04-25T18:17:31.999Z</time></trkpt><trkpt lat="40.08786268010754" lon="15.351861009891602"><ele>56.4</ele><time>2026-04-25T18:17:32.999Z</time></trkpt><trkpt lat="40.087910471274846" lon="15.351720873313498"><ele>55.0</ele><time>2026-04-25T18:17:34.999Z</time></trkpt><trkpt lat="40.0880042576839" lon="15.351629668335633"><ele>54.99999999999999</ele><time>2026-04-25T18:17:36.999Z</time></trkpt><trkpt lat="40.08808236330589" lon="15.351631534001886"><ele>55.0</ele><time>2026-04-25T18:17:37.999Z</time></trkpt><trkpt lat="40.08814596946054" lon="15.351638117104576"><ele>55.0</ele><time>2026-04-25T18:17:38.999Z</time></trkpt><trkpt lat="40.08821854929604" lon="15.351641858732837"><ele>55.0</ele><time>2026-04-25T18:17:39.999Z</time></trkpt><trkpt lat="40.08829890595651" lon="15.351643613012422"><ele>54.99999999999999</ele><time>2026-04-25T18:17:40.999Z</time></trkpt><trkpt lat="40.08837615789995" lon="15.351646337643475"><ele>55.0</ele><time>2026-04-25T18:17:41.999Z</time></trkpt><trkpt lat="40.08845768654813" lon="15.351653141973195"><ele>55.666666666666664</ele><time>2026-04-25T18:17:42.999Z</time></trkpt><trkpt lat="40.08854505102773" lon="15.351658188473312"><ele>56.33333333333333</ele><time>2026-04-25T18:17:43.999Z</time></trkpt><trkpt lat="40.088627101065725" lon="15.351634674801916"><ele>57.0</ele><time>2026-04-25T18:17:44.999Z</time></trkpt><trkpt lat="40.08870235558652" lon="15.351585986347677"><ele>57.66666666666667</ele><time>2026-04-25T18:17:45.999Z</time></trkpt><trkpt lat="40.08874808476931" lon="15.351510495587497"><ele>58.333333333333336</ele><time>2026-04-25T18:17:46.999Z</time></trkpt><trkpt lat="40.08876119997089" lon="15.351402306052012"><ele>59.0</ele><time>2026-04-25T18:17:47.999Z</time></trkpt><trkpt lat="40.088750441662235" lon="15.351257038139426"><ele>59.0</ele><time>2026-04-25T18:17:48.999Z</time></trkpt><trkpt lat="40.088745833809554" lon="15.351113409098348"><ele>59.00000000000001</ele><time>2026-04-25T18:17:49.999Z</time></trkpt><trkpt lat="40.08874411074418" lon="15.350991893741087"><ele>59.00000000000001</ele><time>2026-04-25T18:17:50.999Z</time></trkpt><trkpt lat="40.08873773898772" lon="15.350897967151907"><ele>59.0</ele><time>2026-04-25T18:17:51.999Z</time></trkpt><trkpt lat="40.08869727076259" lon="15.350775729644873"><ele>59.0</ele><time>2026-04-25T18:17:53.999Z</time></trkpt><trkpt lat="40.08863975283477" lon="15.350717410209763"><ele>59.0</ele><time>2026-04-25T18:17:55.999Z</time></trkpt><trkpt lat="40.08857389074198" lon="15.350670374441142"><ele>59.00000000000001</ele><time>2026-04-25T18:17:58.999Z</time></trkpt><trkpt lat="40.08846542351491" lon="15.350623148172295"><ele>59.00000000000001</ele><time>2026-04-25T18:18:56Z</time></trkpt><trkpt lat="40.088397385402494" lon="15.350578128560395"><ele>59.0</ele><time>2026-04-25T18:18:57Z</time></trkpt><trkpt lat="40.08829836027794" lon="15.350473173283362"><ele>59.0</ele><time>2026-04-25T18:18:59Z</time></trkpt><trkpt lat="40.088262143791326" lon="15.35039646982942"><ele>64.6</ele><time>2026-04-25T18:19:00Z</time></trkpt><trkpt lat="40.088239676813984" lon="15.350280895539141"><ele>70.2</ele><time>2026-04-25T18:19:01Z</time></trkpt><trkpt lat="40.08822269061254" lon="15.350153808096126"><ele>75.8</ele><time>2026-04-25T18:19:02Z</time></trkpt><trkpt lat="40.08819338887503" lon="15.350031992104201"><ele>81.39999999999999</ele><time>2026-04-25T18:19:03Z</time></trkpt><trkpt lat="40.088145654942046" lon="15.349911510329928"><ele>87.0</ele><time>2026-04-25T18:19:04Z</time></trkpt><trkpt lat="40.08809785002426" lon="15.349799713353159"><ele>88.0</ele><time>2026-04-25T18:19:05Z</time></trkpt><trkpt lat="40.08805799082153" lon="15.349708430361487"><ele>89.0</ele><time>2026-04-25T18:19:06Z</time></trkpt><trkpt lat="40.08802323493872" lon="15.349604772582719"><ele>90.0</ele><time>2026-04-25T18:19:07Z</time></trkpt><trkpt lat="40.088017134793745" lon="15.349481936464597"><ele>91.0</ele><time>2026-04-25T18:19:08Z</time></trkpt><trkpt lat="40.08803389582628" lon="15.349341102537808"><ele>92.0</ele><time>2026-04-25T18:19:09Z</time></trkpt><trkpt lat="40.08806808226024" lon="15.349194391878763"><ele>92.0</ele><time>2026-04-25T18:19:10Z</time></trkpt><trkpt lat="40.088104095796986" lon="15.349054989465984"><ele>92.0</ele><time>2026-04-25T18:19:10.999Z</time></trkpt><trkpt lat="40.08813603788748" lon="15.348929039646293"><ele>92.0</ele><time>2026-04-25T18:19:11.999Z</time></trkpt><trkpt lat="40.08817231789543" lon="15.348833779750208"><ele>92.0</ele><time>2026-04-25T18:19:12.999Z</time></trkpt><trkpt lat="40.08822747360655" lon="15.348770572243989"><ele>92.0</ele><time>2026-04-25T18:19:13.999Z</time></trkpt><trkpt lat="40.08830382125672" lon="15.348728090049631"><ele>89.39999999999999</ele><time>2026-04-25T18:19:14.999Z</time></trkpt><trkpt lat="40.088384608132806" lon="15.348725830014263"><ele>86.8</ele><time>2026-04-25T18:19:15.999Z</time></trkpt><trkpt lat="40.088496202207494" lon="15.348747400824324"><ele>84.2</ele><time>2026-04-25T18:19:16.999Z</time></trkpt><trkpt lat="40.088621525041695" lon="15.348766678446173"><ele>81.6</ele><time>2026-04-25T18:19:17.999Z</time></trkpt><trkpt lat="40.088725239000915" lon="15.348763829603266"><ele>79.0</ele><time>2026-04-25T18:19:18.999Z</time></trkpt><trkpt lat="40.08880229054979" lon="15.348744835659469"><ele>79.0</ele><time>2026-04-25T18:19:19.999Z</time></trkpt><trkpt lat="40.08886705630611" lon="15.348707738139865"><ele>79.0</ele><time>2026-04-25T18:19:20.999Z</time></trkpt><trkpt lat="40.088939803489005" lon="15.348662099497792"><ele>79.0</ele><time>2026-04-25T18:19:21.999Z</time></trkpt><trkpt lat="40.08902070484104" lon="15.348597320615676"><ele>79.0</ele><time>2026-04-25T18:19:22.999Z</time></trkpt><trkpt lat="40.08911267850338" lon="15.34851156156757"><ele>79.0</ele><time>2026-04-25T18:19:23.999Z</time></trkpt><trkpt lat="40.08920729551838" lon="15.348417309476321"><ele>79.25</ele><time>2026-04-25T18:19:24.999Z</time></trkpt><trkpt lat="40.089286244717215" lon="15.348325595726738"><ele>79.5</ele><time>2026-04-25T18:19:25.999Z</time></trkpt><trkpt lat="40.08935745230351" lon="15.348226231038298"><ele>79.75</ele><time>2026-04-25T18:19:26.999Z</time></trkpt><trkpt lat="40.089423479230504" lon="15.348086177860363"><ele>80.0</ele><time>2026-04-25T18:19:27.999Z</time></trkpt><trkpt lat="40.089481102850485" lon="15.34794872888664"><ele>80.0</ele><time>2026-04-25T18:19:28.999Z</time></trkpt><trkpt lat="40.089550666877294" lon="15.347817369281238"><ele>80.0</ele><time>2026-04-25T18:19:29.999Z</time></trkpt><trkpt lat="40.089648361944484" lon="15.347685992393153"><ele>80.0</ele><time>2026-04-25T18:19:30.999Z</time></trkpt><trkpt lat="40.089742782489274" lon="15.347567563109958"><ele>80.0</ele><time>2026-04-25T18:19:31.999Z</time></trkpt><trkpt lat="40.08982667815404" lon="15.347439272963362"><ele>80.0</ele><time>2026-04-25T18:19:32.999Z</time></trkpt><trkpt lat="40.08990177645547" lon="15.347312104038485"><ele>80.0</ele><time>2026-04-25T18:19:33.999Z</time></trkpt><trkpt lat="40.089973690100365" lon="15.34719354332605"><ele>80.0</ele><time>2026-04-25T18:19:34.999Z</time></trkpt><trkpt lat="40.09004377228603" lon="15.34707692757443"><ele>80.0</ele><time>2026-04-25T18:19:35.999Z</time></trkpt><trkpt lat="40.09010769871839" lon="15.346963363901912"><ele>78.4</ele><time>2026-04-25T18:19:36.999Z</time></trkpt><trkpt lat="40.09016729905577" lon="15.346857419859255"><ele>76.8</ele><time>2026-04-25T18:19:37.999Z</time></trkpt><trkpt lat="40.09023965156698" lon="15.346766301752242"><ele>75.2</ele><time>2026-04-25T18:19:38.999Z</time></trkpt><trkpt lat="40.090284160513704" lon="15.346658409280337"><ele>73.6</ele><time>2026-04-25T18:19:39.999Z</time></trkpt><trkpt lat="40.0903511643831" lon="15.346553296372505"><ele>72.0</ele><time>2026-04-25T18:19:40.999Z</time></trkpt><trkpt lat="40.09041659198519" lon="15.346452702607486"><ele>73.8</ele><time>2026-04-25T18:19:41.999Z</time></trkpt><trkpt lat="40.090483638916304" lon="15.346336479659225"><ele>75.6</ele><time>2026-04-25T18:19:42.999Z</time></trkpt><trkpt lat="40.09055695027336" lon="15.346229411442899"><ele>77.39999999999999</ele><time>2026-04-25T18:19:43.999Z</time></trkpt><trkpt lat="40.09061604823492" lon="15.346116813863945"><ele>79.2</ele><time>2026-04-25T18:19:44.999Z</time></trkpt><trkpt lat="40.09067335712103" lon="15.346007624963105"><ele>81.0</ele><time>2026-04-25T18:19:45.999Z</time></trkpt><trkpt lat="40.0907323221014" lon="15.345906223769742"><ele>78.75</ele><time>2026-04-25T18:19:46.999Z</time></trkpt><trkpt lat="40.09079835808758" lon="15.34578549737592"><ele>76.5</ele><time>2026-04-25T18:19:47.999Z</time></trkpt><trkpt lat="40.09089457848454" lon="15.345672664523468"><ele>74.25</ele><time>2026-04-25T18:19:48.999Z</time></trkpt><trkpt lat="40.09099007060932" lon="15.34558000988504"><ele>72.0</ele><time>2026-04-25T18:19:49.999Z</time></trkpt><trkpt lat="40.09107475658896" lon="15.34545856861069"><ele>72.0</ele><time>2026-04-25T18:19:50.999Z</time></trkpt><trkpt lat="40.091146648558535" lon="15.345334311814995"><ele>72.0</ele><time>2026-04-25T18:19:51.999Z</time></trkpt><trkpt lat="40.09120785882393" lon="15.345225646941795"><ele>72.0</ele><time>2026-04-25T18:19:52.999Z</time></trkpt><trkpt lat="40.09126097374195" lon="15.345130544058323"><ele>72.0</ele><time>2026-04-25T18:19:53.999Z</time></trkpt><trkpt lat="40.09131338269788" lon="15.345034688754279"><ele>72.0</ele><time>2026-04-25T18:19:54.999Z</time></trkpt><trkpt lat="40.09136291701333" lon="15.344944091147587"><ele>72.0</ele><time>2026-04-25T18:19:55.999Z</time></trkpt><trkpt lat="40.09141437819883" lon="15.344849969356018"><ele>72.0</ele><time>2026-04-25T18:19:56.999Z</time></trkpt><trkpt lat="40.09146989947946" lon="15.344748421633145"><ele>72.0</ele><time>2026-04-25T18:19:57.999Z</time></trkpt><trkpt lat="40.09152432091912" lon="15.344627334295566"><ele>72.0</ele><time>2026-04-25T18:19:58.999Z</time></trkpt><trkpt lat="40.0915668573551" lon="15.344502961089068"><ele>72.0</ele><time>2026-04-25T18:19:59.999Z</time></trkpt><trkpt lat="40.09161144899442" lon="15.344395969142198"><ele>71.4</ele><time>2026-04-25T18:20:00.999Z</time></trkpt><trkpt lat="40.0916431510884" lon="15.34432033415025"><ele>70.80000000000001</ele><time>2026-04-25T18:20:01.999Z</time></trkpt><trkpt lat="40.09167303229776" lon="15.344244100338697"><ele>70.2</ele><time>2026-04-25T18:20:02.999Z</time></trkpt><trkpt lat="40.09171541398584" lon="15.344105702345548"><ele>69.60000000000001</ele><time>2026-04-25T18:20:04.999Z</time></trkpt><trkpt lat="40.091756003204935" lon="15.343964828195464"><ele>69.0</ele><time>2026-04-25T18:20:06.999Z</time></trkpt><trkpt lat="40.09178981033088" lon="15.3438359120153"><ele>69.0</ele><time>2026-04-25T18:20:08.999Z</time></trkpt><trkpt lat="40.09189935052905" lon="15.343807776299066"><ele>69.0</ele><time>2026-04-25T18:20:10.999Z</time></trkpt><trkpt lat="40.091953919745336" lon="15.343754576886695"><ele>69.0</ele><time>2026-04-25T18:20:11.999Z</time></trkpt><trkpt lat="40.09199829475911" lon="15.343672426137346"><ele>69.0</ele><time>2026-04-25T18:20:12.999Z</time></trkpt><trkpt lat="40.09203628744828" lon="15.343594167220438"><ele>69.0</ele><time>2026-04-25T18:20:13.999Z</time></trkpt><trkpt lat="40.092073734477886" lon="15.34351619529789"><ele>69.0</ele><time>2026-04-25T18:20:14.999Z</time></trkpt><trkpt lat="40.092113274605445" lon="15.343432715771707"><ele>69.0</ele><time>2026-04-25T18:20:15.999Z</time></trkpt><trkpt lat="40.092161259915876" lon="15.343354439430156"><ele>69.0</ele><time>2026-04-25T18:20:16.999Z</time></trkpt><trkpt lat="40.092221982874705" lon="15.343285002028537"><ele>69.0</ele><time>2026-04-25T18:20:17.999Z</time></trkpt><trkpt lat="40.09228841504078" lon="15.343217487231765"><ele>69.0</ele><time>2026-04-25T18:20:18.999Z</time></trkpt><trkpt lat="40.09236234309256" lon="15.343153334475916"><ele>69.0</ele><time>2026-04-25T18:20:19.999Z</time></trkpt><trkpt lat="40.09244259743672" lon="15.343123998308158"><ele>69.0</ele><time>2026-04-25T18:20:20.999Z</time></trkpt><trkpt lat="40.09252802400878" lon="15.343100320992221"><ele>69.83333333333333</ele><time>2026-04-25T18:20:21.998Z</time></trkpt><trkpt lat="40.09260646851786" lon="15.343139734231023"><ele>70.66666666666667</ele><time>2026-04-25T18:20:22.998Z</time></trkpt><trkpt lat="40.092687099223426" lon="15.343195731881144"><ele>71.5</ele><time>2026-04-25T18:20:23.998Z</time></trkpt><trkpt lat="40.092755589942975" lon="15.343236211185799"><ele>72.33333333333334</ele><time>2026-04-25T18:20:24.998Z</time></trkpt><trkpt lat="40.092821373038525" lon="15.34326298012511"><ele>73.16666666666667</ele><time>2026-04-25T18:20:25.998Z</time></trkpt><trkpt lat="40.09290213060616" lon="15.343302952605292"><ele>74.0</ele><time>2026-04-25T18:20:26.998Z</time></trkpt><trkpt lat="40.093011835032584" lon="15.343321820960346"><ele>74.0</ele><time>2026-04-25T18:20:27.998Z</time></trkpt><trkpt lat="40.09312277338254" lon="15.343317950664435"><ele>74.0</ele><time>2026-04-25T18:20:28.998Z</time></trkpt><trkpt lat="40.09322964210343" lon="15.343311140798901"><ele>74.0</ele><time>2026-04-25T18:20:29.998Z</time></trkpt><trkpt lat="40.09331834646677" lon="15.343315542701166"><ele>74.0</ele><time>2026-04-25T18:20:30.998Z</time></trkpt><trkpt lat="40.093395762359826" lon="15.343320493983184"><ele>74.0</ele><time>2026-04-25T18:20:31.998Z</time></trkpt><trkpt lat="40.0934695407016" lon="15.343324071030166"><ele>76.2</ele><time>2026-04-25T18:20:32.998Z</time></trkpt><trkpt lat="40.093562945907536" lon="15.343332011243419"><ele>78.4</ele><time>2026-04-25T18:20:34.998Z</time></trkpt><trkpt lat="40.09364638178923" lon="15.34333313357971"><ele>80.6</ele><time>2026-04-25T18:20:37.998Z</time></trkpt><trkpt lat="40.09365739737533" lon="15.343428788053586"><ele>82.8</ele><time>2026-04-25T18:20:39.998Z</time></trkpt><trkpt lat="40.093541946990186" lon="15.343544909719157"><ele>85.0</ele><time>2026-04-25T18:20:42Z</time></trkpt><trkpt lat="40.093456519089145" lon="15.343604130017502"><ele>85.0</ele><time>2026-04-25T18:20:43Z</time></trkpt><trkpt lat="40.09338465842002" lon="15.34366242067746"><ele>85.0</ele><time>2026-04-25T18:20:44Z</time></trkpt><trkpt lat="40.093319102423656" lon="15.343723287454392"><ele>85.0</ele><time>2026-04-25T18:20:45Z</time></trkpt><trkpt lat="40.093259075352414" lon="15.343784719287852"><ele>85.0</ele><time>2026-04-25T18:20:46Z</time></trkpt><trkpt lat="40.09319776490988" lon="15.343838390707054"><ele>85.0</ele><time>2026-04-25T18:20:47Z</time></trkpt><trkpt lat="40.09313161418429" lon="15.34388708332851"><ele>85.0</ele><time>2026-04-25T18:20:48Z</time></trkpt><trkpt lat="40.093059173304034" lon="15.343932130381592"><ele>82.16666666666666</ele><time>2026-04-25T18:20:49Z</time></trkpt><trkpt lat="40.0929893695095" lon="15.343987240548225"><ele>79.33333333333333</ele><time>2026-04-25T18:20:50Z</time></trkpt><trkpt lat="40.09292301385445" lon="15.3440489593983"><ele>76.5</ele><time>2026-04-25T18:20:51Z</time></trkpt><trkpt lat="40.092860853416354" lon="15.344122768469925"><ele>73.66666666666667</ele><time>2026-04-25T18:20:52Z</time></trkpt><trkpt lat="40.092806331598936" lon="15.344194459902258"><ele>70.83333333333334</ele><time>2026-04-25T18:20:53Z</time></trkpt><trkpt lat="40.09275506424169" lon="15.344280693416618"><ele>68.0</ele><time>2026-04-25T18:20:54Z</time></trkpt><trkpt lat="40.092714335135014" lon="15.344372793870425"><ele>68.0</ele><time>2026-04-25T18:20:55Z</time></trkpt><trkpt lat="40.09267950413303" lon="15.344465766275649"><ele>68.0</ele><time>2026-04-25T18:20:56Z</time></trkpt><trkpt lat="40.09264459863597" lon="15.34456173440563"><ele>68.0</ele><time>2026-04-25T18:20:57Z</time></trkpt><trkpt lat="40.09260884915169" lon="15.344656918456934"><ele>68.0</ele><time>2026-04-25T18:20:58Z</time></trkpt><trkpt lat="40.09257984646379" lon="15.344731107634427"><ele>68.0</ele><time>2026-04-25T18:20:59Z</time></trkpt><trkpt lat="40.09253421181261" lon="15.344850903907329"><ele>68.0</ele><time>2026-04-25T18:21:01Z</time></trkpt><trkpt lat="40.09243573772208" lon="15.344935911468584"><ele>66.83333333333334</ele><time>2026-04-25T18:21:03Z</time></trkpt><trkpt lat="40.092367248881814" lon="15.34496828236614"><ele>65.66666666666667</ele><time>2026-04-25T18:21:04Z</time></trkpt><trkpt lat="40.09229908652251" lon="15.344986408746"><ele>64.5</ele><time>2026-04-25T18:21:05Z</time></trkpt><trkpt lat="40.092234774285515" lon="15.34496637280749"><ele>63.33333333333333</ele><time>2026-04-25T18:21:06Z</time></trkpt><trkpt lat="40.09214592698649" lon="15.344933743064486"><ele>62.166666666666664</ele><time>2026-04-25T18:21:08Z</time></trkpt><trkpt lat="40.09206692745187" lon="15.344933946492796"><ele>61.0</ele><time>2026-04-25T18:21:11Z</time></trkpt><trkpt lat="40.0919848348101" lon="15.344972595608294"><ele>61.0</ele><time>2026-04-25T18:21:14Z</time></trkpt><trkpt lat="40.09203175763043" lon="15.34513132099181"><ele>60.99999999999999</ele><time>2026-04-25T18:21:14.999Z</time></trkpt><trkpt lat="40.09207026449684" lon="15.34525358389607"><ele>60.99999999999999</ele><time>2026-04-25T18:21:16.999Z</time></trkpt><trkpt lat="40.092109407544754" lon="15.34536361199509"><ele>61.0</ele><time>2026-04-25T18:21:18.999Z</time></trkpt><trkpt lat="40.09217625602867" lon="15.345471828223094"><ele>61.0</ele><time>2026-04-25T18:21:20.999Z</time></trkpt><trkpt lat="40.09225300549339" lon="15.345569194922005"><ele>60.83333333333333</ele><time>2026-04-25T18:21:22.999Z</time></trkpt><trkpt lat="40.09232160724105" lon="15.345713210419927"><ele>60.666666666666664</ele><time>2026-04-25T18:21:24.999Z</time></trkpt><trkpt lat="40.09234441965035" lon="15.345798130252986"><ele>60.5</ele><time>2026-04-25T18:21:25.999Z</time></trkpt><trkpt lat="40.09235136916311" lon="15.345893002926985"><ele>60.33333333333333</ele><time>2026-04-25T18:21:26.999Z</time></trkpt><trkpt lat="40.09234997050084" lon="15.345975846953188"><ele>60.166666666666664</ele><time>2026-04-25T18:21:27.999Z</time></trkpt><trkpt lat="40.09231821658088" lon="15.346105427611887"><ele>60.0</ele><time>2026-04-25T18:21:29.999Z</time></trkpt><trkpt lat="40.092280614421895" lon="15.346182447059658"><ele>60.0</ele><time>2026-04-25T18:21:30.999Z</time></trkpt><trkpt lat="40.092216110857514" lon="15.346310205933733"><ele>60.0</ele><time>2026-04-25T18:21:32.999Z</time></trkpt><trkpt lat="40.09216436685197" lon="15.346417366199383"><ele>60.0</ele><time>2026-04-25T18:21:34.999Z</time></trkpt><trkpt lat="40.09213204059807" lon="15.346520309447012"><ele>60.0</ele><time>2026-04-25T18:21:36.999Z</time></trkpt><trkpt lat="40.09213703561277" lon="15.346629574752924"><ele>60.0</ele><time>2026-04-25T18:21:39.999Z</time></trkpt><trkpt lat="40.09222505625258" lon="15.346743807913512"><ele>59.333333333333336</ele><time>2026-04-25T18:21:40.999Z</time></trkpt><trkpt lat="40.09233378062981" lon="15.34682482079435"><ele>58.66666666666667</ele><time>2026-04-25T18:21:42.999Z</time></trkpt><trkpt lat="40.092394685426" lon="15.346885402220414"><ele>58.0</ele><time>2026-04-25T18:21:43.999Z</time></trkpt><trkpt lat="40.09246433244839" lon="15.346957811273331"><ele>57.333333333333336</ele><time>2026-04-25T18:21:44.999Z</time></trkpt><trkpt lat="40.09252991063821" lon="15.347024867760839"><ele>56.66666666666667</ele><time>2026-04-25T18:21:45.999Z</time></trkpt><trkpt lat="40.092580978460205" lon="15.34709194381599"><ele>56.0</ele><time>2026-04-25T18:21:46.999Z</time></trkpt><trkpt lat="40.092632002548" lon="15.347169301822166"><ele>54.66666666666667</ele><time>2026-04-25T18:21:47.999Z</time></trkpt><trkpt lat="40.092683644468536" lon="15.347246709178131"><ele>53.333333333333336</ele><time>2026-04-25T18:21:48.999Z</time></trkpt><trkpt lat="40.09274519722007" lon="15.347323882639728"><ele>52.0</ele><time>2026-04-25T18:21:49.999Z</time></trkpt><trkpt lat="40.092806346175095" lon="15.347390718472756"><ele>50.66666666666667</ele><time>2026-04-25T18:21:50.999Z</time></trkpt><trkpt lat="40.0928872890918" lon="15.34747269135956"><ele>49.333333333333336</ele><time>2026-04-25T18:21:52.999Z</time></trkpt><trkpt lat="40.09293649847106" lon="15.347531376718962"><ele>48.0</ele><time>2026-04-25T18:21:54.999Z</time></trkpt><trkpt lat="40.09300236195158" lon="15.347597945863978"><ele>48.0</ele><time>2026-04-25T18:21:56.999Z</time></trkpt><trkpt lat="40.09307897322811" lon="15.347661212471927"><ele>48.0</ele><time>2026-04-25T18:21:58.999Z</time></trkpt><trkpt lat="40.093134776939735" lon="15.347707032330762"><ele>48.0</ele><time>2026-04-25T18:22:00.999Z</time></trkpt><trkpt lat="40.09317267942574" lon="15.347802788857509"><ele>48.0</ele><time>2026-04-25T18:22:03.999Z</time></trkpt><trkpt lat="40.09314363336458" lon="15.34789806237349"><ele>48.0</ele><time>2026-04-25T18:22:06.999Z</time></trkpt><trkpt lat="40.093073787865876" lon="15.347923518460108"><ele>48.0</ele><time>2026-04-25T18:22:09.999Z</time></trkpt><trkpt lat="40.093008900644065" lon="15.347886277699432"><ele>48.0</ele><time>2026-04-25T18:22:12.999Z</time></trkpt><trkpt lat="40.09294107365273" lon="15.347857266376785"><ele>48.0</ele><time>2026-04-25T18:22:16.999Z</time></trkpt><trkpt lat="40.0928668841174" lon="15.347827527922513"><ele>48.0</ele><time>2026-04-25T18:22:20.999Z</time></trkpt><trkpt lat="40.09279808358963" lon="15.347830571682612"><ele>48.0</ele><time>2026-04-25T18:22:27.998Z</time></trkpt><trkpt lat="40.09290605634027" lon="15.34783672025277"><ele>48.0</ele><time>2026-04-25T18:23:35.999Z</time></trkpt><trkpt lat="40.092836146769656" lon="15.347850998141663"><ele>48.0</ele><time>2026-04-25T18:23:59.999Z</time></trkpt><trkpt lat="40.092902252890134" lon="15.347887226062186"><ele>47.99999999999999</ele><time>2026-04-25T18:24:11.999Z</time></trkpt><trkpt lat="40.09284261304112" lon="15.347843914165304"><ele>48.0</ele><time>2026-04-25T18:24:44.998Z</time></trkpt><trkpt lat="40.092917181575075" lon="15.34783987843972"><ele>48.0</ele><time>2026-04-25T18:25:11Z</time></trkpt><trkpt lat="40.092986227517706" lon="15.347857118376659"><ele>48.0</ele><time>2026-04-25T18:25:18Z</time></trkpt><trkpt lat="40.09291863560743" lon="15.347841134871802"><ele>48.0</ele><time>2026-04-25T18:25:30.999Z</time></trkpt><trkpt lat="40.09284931720998" lon="15.3478458632629"><ele>47.99999999999999</ele><time>2026-04-25T18:25:36.999Z</time></trkpt><trkpt lat="40.09281042577866" lon="15.347915751517174"><ele>48.0</ele><time>2026-04-25T18:25:46.999Z</time></trkpt><trkpt lat="40.09277655140803" lon="15.348011973837624"><ele>48.0</ele><time>2026-04-25T18:25:52.999Z</time></trkpt><trkpt lat="40.092833432757466" lon="15.348073378493352"><ele>48.0</ele><time>2026-04-25T18:26:01.999Z</time></trkpt><trkpt lat="40.09290257467053" lon="15.348012791259762"><ele>48.0</ele><time>2026-04-25T18:26:27.999Z</time></trkpt><trkpt lat="40.09296411684901" lon="15.348063200035801"><ele>48.0</ele><time>2026-04-25T18:26:33.999Z</time></trkpt><trkpt lat="40.09302978611834" lon="15.348020442580241"><ele>48.0</ele><time>2026-04-25T18:26:40.998Z</time></trkpt><trkpt lat="40.09311760811664" lon="15.34792722279495"><ele>48.0</ele><time>2026-04-25T18:26:42.998Z</time></trkpt><trkpt lat="40.09305616279281" lon="15.34794924202456"><ele>48.0</ele><time>2026-04-25T18:26:49.062Z</time></trkpt><trkpt lat="40.0930106153433" lon="15.348025748018754"><ele>48.0</ele><time>2026-04-25T18:26:56.056Z</time></trkpt><trkpt lat="40.09286898924882" lon="15.348093195828234"><ele>48.0</ele><time>2026-04-25T18:27:05.034Z</time></trkpt><trkpt lat="40.09274577890434" lon="15.348119544882591"><ele>48.0</ele><time>2026-04-25T18:27:49.026Z</time></trkpt><trkpt lat="40.092728361787536" lon="15.348200264567069"><ele>48.0</ele><time>2026-04-25T18:27:57.024Z</time></trkpt><trkpt lat="40.09278436195336" lon="15.348157034597232"><ele>42.0</ele><time>2026-04-25T18:28:10.021Z</time></trkpt><trkpt lat="40.09274974521778" lon="15.34797706540337"><ele>48.0</ele><time>2026-04-25T18:28:34.734Z</time></trkpt><trkpt lat="40.09285872326436" lon="15.347961490892745"><ele>48.0</ele><time>2026-04-25T18:28:51.016Z</time></trkpt></trkseg></trk></gpx>